<?xml version='1.0' encoding='UTF-8'?><gpx version="1.1" creator="JPX - https://github.com/jenetics/jpx" xmlns="http://www.topografix.com/GPX/1/1"><trk><trkseg><trkpt lat="46.1093742" lon="12.1984692"><ele>352.5</ele><time>2026-04-09T08:48:33.547Z</time></trkpt><trkpt lat="46.1090596" lon="12.1984141"><ele>352.0</ele><time>2026-04-09T08:48:34.541Z</time></trkpt><trkpt lat="46.1088642" lon="12.1984178"><ele>352.0</ele><time>2026-04-09T08:48:35.568Z</time></trkpt><trkpt lat="46.1086724" lon="12.1984169"><ele>352.0</ele><time>2026-04-09T08:48:36.545Z</time></trkpt><trkpt lat="46.10853" lon="12.1983711"><ele>352.0</ele><time>2026-04-09T08:48:37.55Z</time></trkpt><trkpt lat="46.1084274" lon="12.1982596"><ele>352.0</ele><time>2026-04-09T08:48:38.553Z</time></trkpt><trkpt lat="46.1083547" lon="12.1981948"><ele>352.0</ele><time>2026-04-09T08:48:39.545Z</time></trkpt><trkpt lat="46.1082641" lon="12.1981553"><ele>352.0</ele><time>2026-04-09T08:48:40.541Z</time></trkpt><trkpt lat="46.1081959" lon="12.1980713"><ele>352.0</ele><time>2026-04-09T08:48:41.55Z</time></trkpt><trkpt lat="46.1081013" lon="12.197991"><ele>352.0</ele><time>2026-04-09T08:48:42.55Z</time></trkpt><trkpt lat="46.108022" lon="12.1978896"><ele>351.0</ele><time>2026-04-09T08:48:43.541Z</time></trkpt><trkpt lat="46.1079195" lon="12.1977677"><ele>350.0</ele><time>2026-04-09T08:48:44.543Z</time></trkpt><trkpt lat="46.1078045" lon="12.1976057"><ele>349.0</ele><time>2026-04-09T08:48:45.553Z</time></trkpt><trkpt lat="46.1077016" lon="12.1974299"><ele>349.3333333333333</ele><time>2026-04-09T08:48:46.553Z</time></trkpt><trkpt lat="46.1076079" lon="12.197224"><ele>349.6666666666667</ele><time>2026-04-09T08:48:47.56Z</time></trkpt><trkpt lat="46.1075365" lon="12.1969884"><ele>350.0</ele><time>2026-04-09T08:48:48.55Z</time></trkpt><trkpt lat="46.1074757" lon="12.1967448"><ele>350.6666666666667</ele><time>2026-04-09T08:48:49.553Z</time></trkpt><trkpt lat="46.1074357" lon="12.1964927"><ele>351.3333333333333</ele><time>2026-04-09T08:48:50.556Z</time></trkpt><trkpt lat="46.1073989" lon="12.1962586"><ele>352.0</ele><time>2026-04-09T08:48:51.562Z</time></trkpt><trkpt lat="46.1073804" lon="12.1960344"><ele>353.75</ele><time>2026-04-09T08:48:52.548Z</time></trkpt><trkpt lat="46.1073783" lon="12.1958339"><ele>355.5</ele><time>2026-04-09T08:48:53.552Z</time></trkpt><trkpt lat="46.1073742" lon="12.1956555"><ele>357.25</ele><time>2026-04-09T08:48:54.546Z</time></trkpt><trkpt lat="46.1073688" lon="12.1954864"><ele>359.0</ele><time>2026-04-09T08:48:55.553Z</time></trkpt><trkpt lat="46.1073631" lon="12.1953356"><ele>359.4</ele><time>2026-04-09T08:48:56.547Z</time></trkpt><trkpt lat="46.107354" lon="12.1951998"><ele>359.79999999999995</ele><time>2026-04-09T08:48:57.554Z</time></trkpt><trkpt lat="46.1073547" lon="12.1950643"><ele>360.20000000000005</ele><time>2026-04-09T08:48:58.555Z</time></trkpt><trkpt lat="46.1073308" lon="12.1948988"><ele>360.6</ele><time>2026-04-09T08:48:59.554Z</time></trkpt><trkpt lat="46.1073287" lon="12.194755"><ele>361.0</ele><time>2026-04-09T08:49:00.55Z</time></trkpt><trkpt lat="46.1073267" lon="12.1946136"><ele>361.0</ele><time>2026-04-09T08:49:01.552Z</time></trkpt><trkpt lat="46.1073189" lon="12.1944281"><ele>361.0</ele><time>2026-04-09T08:49:02.547Z</time></trkpt><trkpt lat="46.1073042" lon="12.1942474"><ele>361.0</ele><time>2026-04-09T08:49:03.555Z</time></trkpt><trkpt lat="46.1072934" lon="12.1940655"><ele>361.0</ele><time>2026-04-09T08:49:04.555Z</time></trkpt><trkpt lat="46.1072749" lon="12.1938472"><ele>361.0</ele><time>2026-04-09T08:49:05.579Z</time></trkpt><trkpt lat="46.1072618" lon="12.1936502"><ele>361.0</ele><time>2026-04-09T08:49:06.551Z</time></trkpt><trkpt lat="46.1072385" lon="12.1934701"><ele>361.0</ele><time>2026-04-09T08:49:07.57Z</time></trkpt><trkpt lat="46.1072162" lon="12.1933052"><ele>361.0</ele><time>2026-04-09T08:49:08.551Z</time></trkpt><trkpt lat="46.1072013" lon="12.1931539"><ele>360.8571428571429</ele><time>2026-04-09T08:49:09.549Z</time></trkpt><trkpt lat="46.1072066" lon="12.1930536"><ele>360.71428571428567</ele><time>2026-04-09T08:49:10.55Z</time></trkpt><trkpt lat="46.1072203" lon="12.1929426"><ele>360.57142857142856</ele><time>2026-04-09T08:49:11.552Z</time></trkpt><trkpt lat="46.1072547" lon="12.1928315"><ele>360.42857142857144</ele><time>2026-04-09T08:49:12.54Z</time></trkpt><trkpt lat="46.1072594" lon="12.1927215"><ele>360.28571428571433</ele><time>2026-04-09T08:49:13.546Z</time></trkpt><trkpt lat="46.1072557" lon="12.1926294"><ele>360.1428571428571</ele><time>2026-04-09T08:49:14.553Z</time></trkpt><trkpt lat="46.1072153" lon="12.1925511"><ele>360.0</ele><time>2026-04-09T08:49:15.549Z</time></trkpt><trkpt lat="46.1070585" lon="12.1925343"><ele>360.0</ele><time>2026-04-09T08:49:17.559Z</time></trkpt><trkpt lat="46.1069537" lon="12.1925691"><ele>360.0</ele><time>2026-04-09T08:49:18.542Z</time></trkpt><trkpt lat="46.1068728" lon="12.1925747"><ele>360.0</ele><time>2026-04-09T08:49:19.545Z</time></trkpt><trkpt lat="46.1067851" lon="12.1925099"><ele>360.0</ele><time>2026-04-09T08:49:21.554Z</time></trkpt><trkpt lat="46.1067293" lon="12.1924395"><ele>360.0</ele><time>2026-04-09T08:49:23.55Z</time></trkpt><trkpt lat="46.1066551" lon="12.1924456"><ele>360.0</ele><time>2026-04-09T08:49:25.548Z</time></trkpt><trkpt lat="46.1065578" lon="12.1925479"><ele>360.25</ele><time>2026-04-09T08:49:27.556Z</time></trkpt><trkpt lat="46.1064653" lon="12.1926497"><ele>360.5</ele><time>2026-04-09T08:49:28.55Z</time></trkpt><trkpt lat="46.1064215" lon="12.1927554"><ele>360.75</ele><time>2026-04-09T08:49:29.666Z</time></trkpt><trkpt lat="46.1063267" lon="12.1929584"><ele>361.0</ele><time>2026-04-09T08:49:31.549Z</time></trkpt><trkpt lat="46.1062622" lon="12.1930605"><ele>361.0</ele><time>2026-04-09T08:49:32.559Z</time></trkpt><trkpt lat="46.106197" lon="12.1931652"><ele>361.0</ele><time>2026-04-09T08:49:33.553Z</time></trkpt><trkpt lat="46.1061083" lon="12.1932959"><ele>361.0</ele><time>2026-04-09T08:49:34.555Z</time></trkpt><trkpt lat="46.1060318" lon="12.1933896"><ele>361.0</ele><time>2026-04-09T08:49:35.554Z</time></trkpt><trkpt lat="46.1059301" lon="12.1935215"><ele>361.5</ele><time>2026-04-09T08:49:36.557Z</time></trkpt><trkpt lat="46.1058549" lon="12.1936309"><ele>362.0</ele><time>2026-04-09T08:49:37.558Z</time></trkpt><trkpt lat="46.1058027" lon="12.1937515"><ele>362.5</ele><time>2026-04-09T08:49:38.544Z</time></trkpt><trkpt lat="46.10578" lon="12.1938571"><ele>363.0</ele><time>2026-04-09T08:49:39.552Z</time></trkpt><trkpt lat="46.1057278" lon="12.1936154"><ele>363.0</ele><time>2026-04-09T08:49:43.549Z</time></trkpt><trkpt lat="46.1056808" lon="12.1934919"><ele>363.0</ele><time>2026-04-09T08:49:44.545Z</time></trkpt><trkpt lat="46.1056454" lon="12.1933592"><ele>363.0</ele><time>2026-04-09T08:49:45.553Z</time></trkpt><trkpt lat="46.1056289" lon="12.1931727"><ele>363.0</ele><time>2026-04-09T08:49:46.543Z</time></trkpt><trkpt lat="46.1056108" lon="12.192995"><ele>363.0</ele><time>2026-04-09T08:49:47.546Z</time></trkpt><trkpt lat="46.10559" lon="12.1928267"><ele>363.0</ele><time>2026-04-09T08:49:48.54Z</time></trkpt><trkpt lat="46.1055555" lon="12.1926378"><ele>363.0</ele><time>2026-04-09T08:49:49.546Z</time></trkpt><trkpt lat="46.1055123" lon="12.192476"><ele>363.0</ele><time>2026-04-09T08:49:50.549Z</time></trkpt><trkpt lat="46.1054742" lon="12.1922816"><ele>363.0</ele><time>2026-04-09T08:49:51.55Z</time></trkpt><trkpt lat="46.1054595" lon="12.1921318"><ele>363.0</ele><time>2026-04-09T08:49:52.555Z</time></trkpt><trkpt lat="46.1054324" lon="12.1919476"><ele>363.0</ele><time>2026-04-09T08:49:53.548Z</time></trkpt><trkpt lat="46.1054081" lon="12.1917906"><ele>363.0</ele><time>2026-04-09T08:49:54.551Z</time></trkpt><trkpt lat="46.1053862" lon="12.1916393"><ele>363.0</ele><time>2026-04-09T08:49:55.547Z</time></trkpt><trkpt lat="46.10538" lon="12.1915092"><ele>363.0</ele><time>2026-04-09T08:49:56.554Z</time></trkpt><trkpt lat="46.1053596" lon="12.191383"><ele>363.0</ele><time>2026-04-09T08:49:57.557Z</time></trkpt><trkpt lat="46.105341" lon="12.1912812"><ele>363.0</ele><time>2026-04-09T08:49:59.546Z</time></trkpt><trkpt lat="46.1053398" lon="12.1911436"><ele>363.0</ele><time>2026-04-09T08:50:02.543Z</time></trkpt><trkpt lat="46.1053229" lon="12.1910409"><ele>363.0</ele><time>2026-04-09T08:50:03.554Z</time></trkpt><trkpt lat="46.1053242" lon="12.1909251"><ele>363.0</ele><time>2026-04-09T08:50:04.547Z</time></trkpt><trkpt lat="46.1053233" lon="12.1907894"><ele>363.0</ele><time>2026-04-09T08:50:05.551Z</time></trkpt><trkpt lat="46.1053102" lon="12.1906451"><ele>363.0</ele><time>2026-04-09T08:50:06.554Z</time></trkpt><trkpt lat="46.1052999" lon="12.1905127"><ele>363.0</ele><time>2026-04-09T08:50:07.546Z</time></trkpt><trkpt lat="46.1052914" lon="12.190381"><ele>363.0</ele><time>2026-04-09T08:50:08.547Z</time></trkpt><trkpt lat="46.1052693" lon="12.1902421"><ele>362.5</ele><time>2026-04-09T08:50:09.553Z</time></trkpt><trkpt lat="46.1052305" lon="12.1901083"><ele>362.0</ele><time>2026-04-09T08:50:10.547Z</time></trkpt><trkpt lat="46.1051985" lon="12.1899896"><ele>361.5</ele><time>2026-04-09T08:50:11.547Z</time></trkpt><trkpt lat="46.1051665" lon="12.189891"><ele>361.0</ele><time>2026-04-09T08:50:12.548Z</time></trkpt><trkpt lat="46.1051344" lon="12.1898056"><ele>360.5</ele><time>2026-04-09T08:50:13.554Z</time></trkpt><trkpt lat="46.105101" lon="12.1897064"><ele>360.0</ele><time>2026-04-09T08:50:15.549Z</time></trkpt><trkpt lat="46.1050513" lon="12.1895106"><ele>360.0</ele><time>2026-04-09T08:50:18.553Z</time></trkpt><trkpt lat="46.1049775" lon="12.1893897"><ele>360.0</ele><time>2026-04-09T08:50:19.551Z</time></trkpt><trkpt lat="46.1048811" lon="12.1892964"><ele>360.0</ele><time>2026-04-09T08:50:20.548Z</time></trkpt><trkpt lat="46.1047597" lon="12.1891919"><ele>360.0</ele><time>2026-04-09T08:50:21.545Z</time></trkpt><trkpt lat="46.1046322" lon="12.1891216"><ele>360.0</ele><time>2026-04-09T08:50:22.551Z</time></trkpt><trkpt lat="46.1044999" lon="12.1890709"><ele>360.0</ele><time>2026-04-09T08:50:23.554Z</time></trkpt><trkpt lat="46.1043525" lon="12.1890385"><ele>360.0</ele><time>2026-04-09T08:50:24.548Z</time></trkpt><trkpt lat="46.1041934" lon="12.1889856"><ele>360.0</ele><time>2026-04-09T08:50:25.551Z</time></trkpt><trkpt lat="46.10403" lon="12.1889211"><ele>359.3333333333333</ele><time>2026-04-09T08:50:26.548Z</time></trkpt><trkpt lat="46.1038483" lon="12.1888497"><ele>358.66666666666663</ele><time>2026-04-09T08:50:27.548Z</time></trkpt><trkpt lat="46.1036798" lon="12.1887936"><ele>358.0</ele><time>2026-04-09T08:50:28.551Z</time></trkpt><trkpt lat="46.1035126" lon="12.1887391"><ele>358.0</ele><time>2026-04-09T08:50:29.542Z</time></trkpt><trkpt lat="46.1033478" lon="12.1886435"><ele>358.0</ele><time>2026-04-09T08:50:30.55Z</time></trkpt><trkpt lat="46.103184" lon="12.188565"><ele>358.0</ele><time>2026-04-09T08:50:31.554Z</time></trkpt><trkpt lat="46.1030123" lon="12.1884799"><ele>357.66666666666663</ele><time>2026-04-09T08:50:32.556Z</time></trkpt><trkpt lat="46.1028491" lon="12.1884376"><ele>357.3333333333333</ele><time>2026-04-09T08:50:33.544Z</time></trkpt><trkpt lat="46.102677" lon="12.1884032"><ele>357.0</ele><time>2026-04-09T08:50:34.553Z</time></trkpt><trkpt lat="46.1025159" lon="12.1883472"><ele>356.3333333333333</ele><time>2026-04-09T08:50:35.553Z</time></trkpt><trkpt lat="46.1023508" lon="12.1883039"><ele>355.66666666666663</ele><time>2026-04-09T08:50:36.544Z</time></trkpt><trkpt lat="46.1021952" lon="12.1882363"><ele>355.0</ele><time>2026-04-09T08:50:37.546Z</time></trkpt><trkpt lat="46.1020276" lon="12.1881915"><ele>355.0</ele><time>2026-04-09T08:50:38.55Z</time></trkpt><trkpt lat="46.1018679" lon="12.1881429"><ele>355.0</ele><time>2026-04-09T08:50:39.547Z</time></trkpt><trkpt lat="46.1017144" lon="12.1880719"><ele>355.0</ele><time>2026-04-09T08:50:40.551Z</time></trkpt><trkpt lat="46.1015546" lon="12.1880182"><ele>355.0</ele><time>2026-04-09T08:50:41.545Z</time></trkpt><trkpt lat="46.1014014" lon="12.187967"><ele>355.0</ele><time>2026-04-09T08:50:42.551Z</time></trkpt><trkpt lat="46.1012454" lon="12.1879317"><ele>355.0</ele><time>2026-04-09T08:50:43.549Z</time></trkpt><trkpt lat="46.1011004" lon="12.1878681"><ele>355.0</ele><time>2026-04-09T08:50:44.547Z</time></trkpt><trkpt lat="46.1009625" lon="12.1878119"><ele>355.0</ele><time>2026-04-09T08:50:45.551Z</time></trkpt><trkpt lat="46.1008285" lon="12.1877454"><ele>355.0</ele><time>2026-04-09T08:50:46.549Z</time></trkpt><trkpt lat="46.1007" lon="12.1876783"><ele>355.0</ele><time>2026-04-09T08:50:47.549Z</time></trkpt><trkpt lat="46.1005821" lon="12.1875964"><ele>355.75</ele><time>2026-04-09T08:50:48.549Z</time></trkpt><trkpt lat="46.1004767" lon="12.1874878"><ele>356.5</ele><time>2026-04-09T08:50:49.55Z</time></trkpt><trkpt lat="46.1003713" lon="12.18735"><ele>357.25</ele><time>2026-04-09T08:50:50.545Z</time></trkpt><trkpt lat="46.1002772" lon="12.1871833"><ele>358.0</ele><time>2026-04-09T08:50:51.546Z</time></trkpt><trkpt lat="46.1002149" lon="12.1870117"><ele>358.0</ele><time>2026-04-09T08:50:52.538Z</time></trkpt><trkpt lat="46.1001756" lon="12.1868943"><ele>358.0</ele><time>2026-04-09T08:50:53.546Z</time></trkpt><trkpt lat="46.1001285" lon="12.1867553"><ele>358.0</ele><time>2026-04-09T08:50:54.546Z</time></trkpt><trkpt lat="46.1000804" lon="12.1866177"><ele>358.0</ele><time>2026-04-09T08:50:55.553Z</time></trkpt><trkpt lat="46.10003" lon="12.1864634"><ele>358.0</ele><time>2026-04-09T08:50:56.552Z</time></trkpt><trkpt lat="46.0999795" lon="12.1862878"><ele>358.75</ele><time>2026-04-09T08:50:57.549Z</time></trkpt><trkpt lat="46.0999194" lon="12.1861087"><ele>359.5</ele><time>2026-04-09T08:50:58.555Z</time></trkpt><trkpt lat="46.0998467" lon="12.185926"><ele>360.25</ele><time>2026-04-09T08:50:59.547Z</time></trkpt><trkpt lat="46.0997709" lon="12.1857258"><ele>361.0</ele><time>2026-04-09T08:51:00.545Z</time></trkpt><trkpt lat="46.0997047" lon="12.1855136"><ele>361.66666666666663</ele><time>2026-04-09T08:51:01.543Z</time></trkpt><trkpt lat="46.0996288" lon="12.1852962"><ele>362.3333333333333</ele><time>2026-04-09T08:51:02.557Z</time></trkpt><trkpt lat="46.0995574" lon="12.1850612"><ele>363.0</ele><time>2026-04-09T08:51:03.553Z</time></trkpt><trkpt lat="46.0994803" lon="12.1848321"><ele>363.0</ele><time>2026-04-09T08:51:04.546Z</time></trkpt><trkpt lat="46.0994044" lon="12.1846098"><ele>363.0</ele><time>2026-04-09T08:51:05.546Z</time></trkpt><trkpt lat="46.0993418" lon="12.1844019"><ele>363.0</ele><time>2026-04-09T08:51:06.545Z</time></trkpt><trkpt lat="46.0992854" lon="12.1841931"><ele>363.3333333333333</ele><time>2026-04-09T08:51:07.549Z</time></trkpt><trkpt lat="46.0992368" lon="12.1839782"><ele>363.66666666666663</ele><time>2026-04-09T08:51:08.547Z</time></trkpt><trkpt lat="46.0991967" lon="12.1837651"><ele>364.0</ele><time>2026-04-09T08:51:09.549Z</time></trkpt><trkpt lat="46.0991739" lon="12.1835307"><ele>364.0</ele><time>2026-04-09T08:51:10.544Z</time></trkpt><trkpt lat="46.0991507" lon="12.1832952"><ele>364.0</ele><time>2026-04-09T08:51:11.553Z</time></trkpt><trkpt lat="46.0991445" lon="12.1830471"><ele>364.0</ele><time>2026-04-09T08:51:12.553Z</time></trkpt><trkpt lat="46.0991284" lon="12.1828231"><ele>364.0</ele><time>2026-04-09T08:51:13.549Z</time></trkpt><trkpt lat="46.0991156" lon="12.1826355"><ele>364.0</ele><time>2026-04-09T08:51:14.554Z</time></trkpt><trkpt lat="46.0991088" lon="12.1824699"><ele>364.0</ele><time>2026-04-09T08:51:15.551Z</time></trkpt><trkpt lat="46.0990937" lon="12.1823165"><ele>364.0</ele><time>2026-04-09T08:51:16.547Z</time></trkpt><trkpt lat="46.0990898" lon="12.1821772"><ele>363.6</ele><time>2026-04-09T08:51:17.553Z</time></trkpt><trkpt lat="46.0990798" lon="12.182034"><ele>363.2</ele><time>2026-04-09T08:51:18.548Z</time></trkpt><trkpt lat="46.0990799" lon="12.1818768"><ele>362.8</ele><time>2026-04-09T08:51:19.544Z</time></trkpt><trkpt lat="46.0990691" lon="12.1817154"><ele>362.40000000000003</ele><time>2026-04-09T08:51:20.553Z</time></trkpt><trkpt lat="46.0990561" lon="12.1815458"><ele>362.0</ele><time>2026-04-09T08:51:21.543Z</time></trkpt><trkpt lat="46.0990392" lon="12.1813916"><ele>362.0</ele><time>2026-04-09T08:51:22.547Z</time></trkpt><trkpt lat="46.0990203" lon="12.1812359"><ele>362.0</ele><time>2026-04-09T08:51:23.557Z</time></trkpt><trkpt lat="46.0989937" lon="12.1810717"><ele>362.0</ele><time>2026-04-09T08:51:24.555Z</time></trkpt><trkpt lat="46.0989686" lon="12.1808873"><ele>362.0</ele><time>2026-04-09T08:51:25.548Z</time></trkpt><trkpt lat="46.0989493" lon="12.1807299"><ele>362.20000000000005</ele><time>2026-04-09T08:51:26.549Z</time></trkpt><trkpt lat="46.0989238" lon="12.1805878"><ele>362.4</ele><time>2026-04-09T08:51:27.552Z</time></trkpt><trkpt lat="46.0989066" lon="12.1804429"><ele>362.6</ele><time>2026-04-09T08:51:28.551Z</time></trkpt><trkpt lat="46.0988793" lon="12.1803095"><ele>362.79999999999995</ele><time>2026-04-09T08:51:29.546Z</time></trkpt><trkpt lat="46.0988633" lon="12.1801855"><ele>363.0</ele><time>2026-04-09T08:51:30.553Z</time></trkpt><trkpt lat="46.0988661" lon="12.1800399"><ele>363.0</ele><time>2026-04-09T08:51:31.551Z</time></trkpt><trkpt lat="46.0988616" lon="12.1798818"><ele>363.0</ele><time>2026-04-09T08:51:32.548Z</time></trkpt><trkpt lat="46.0988669" lon="12.1797103"><ele>363.0</ele><time>2026-04-09T08:51:33.551Z</time></trkpt><trkpt lat="46.0988604" lon="12.1795491"><ele>363.0</ele><time>2026-04-09T08:51:34.545Z</time></trkpt><trkpt lat="46.0988468" lon="12.1793672"><ele>362.75</ele><time>2026-04-09T08:51:35.558Z</time></trkpt><trkpt lat="46.0988743" lon="12.1791799"><ele>362.5</ele><time>2026-04-09T08:51:36.556Z</time></trkpt><trkpt lat="46.0988938" lon="12.1789786"><ele>362.25</ele><time>2026-04-09T08:51:37.549Z</time></trkpt><trkpt lat="46.098926" lon="12.1787638"><ele>362.0</ele><time>2026-04-09T08:51:38.543Z</time></trkpt><trkpt lat="46.098952" lon="12.1785401"><ele>360.6666666666667</ele><time>2026-04-09T08:51:39.551Z</time></trkpt><trkpt lat="46.0989845" lon="12.1783088"><ele>359.3333333333333</ele><time>2026-04-09T08:51:40.547Z</time></trkpt><trkpt lat="46.0990072" lon="12.1780614"><ele>358.0</ele><time>2026-04-09T08:51:41.551Z</time></trkpt><trkpt lat="46.0990185" lon="12.1778343"><ele>357.0</ele><time>2026-04-09T08:51:42.542Z</time></trkpt><trkpt lat="46.0990166" lon="12.1775983"><ele>356.0</ele><time>2026-04-09T08:51:43.542Z</time></trkpt><trkpt lat="46.0990494" lon="12.1773751"><ele>355.0</ele><time>2026-04-09T08:51:44.549Z</time></trkpt><trkpt lat="46.0990419" lon="12.1771662"><ele>355.0</ele><time>2026-04-09T08:51:45.553Z</time></trkpt><trkpt lat="46.0990276" lon="12.1769892"><ele>355.0</ele><time>2026-04-09T08:51:46.556Z</time></trkpt><trkpt lat="46.0989826" lon="12.1768059"><ele>355.0</ele><time>2026-04-09T08:51:47.556Z</time></trkpt><trkpt lat="46.0989131" lon="12.1766518"><ele>355.0</ele><time>2026-04-09T08:51:48.551Z</time></trkpt><trkpt lat="46.0988124" lon="12.1765066"><ele>354.66666666666663</ele><time>2026-04-09T08:51:49.553Z</time></trkpt><trkpt lat="46.0987041" lon="12.1763929"><ele>354.3333333333333</ele><time>2026-04-09T08:51:50.547Z</time></trkpt><trkpt lat="46.09856" lon="12.176293"><ele>354.0</ele><time>2026-04-09T08:51:51.546Z</time></trkpt><trkpt lat="46.0983956" lon="12.1761582"><ele>354.0</ele><time>2026-04-09T08:51:52.546Z</time></trkpt><trkpt lat="46.0982351" lon="12.1760328"><ele>354.0</ele><time>2026-04-09T08:51:53.552Z</time></trkpt><trkpt lat="46.0980878" lon="12.1759209"><ele>354.0</ele><time>2026-04-09T08:51:54.55Z</time></trkpt><trkpt lat="46.097955" lon="12.1758149"><ele>354.0</ele><time>2026-04-09T08:51:55.552Z</time></trkpt><trkpt lat="46.0978299" lon="12.175695"><ele>354.0</ele><time>2026-04-09T08:51:56.543Z</time></trkpt><trkpt lat="46.0977265" lon="12.1755378"><ele>354.0</ele><time>2026-04-09T08:51:57.545Z</time></trkpt><trkpt lat="46.0976524" lon="12.1753482"><ele>354.0</ele><time>2026-04-09T08:51:58.554Z</time></trkpt><trkpt lat="46.097562" lon="12.1751517"><ele>354.0</ele><time>2026-04-09T08:51:59.547Z</time></trkpt><trkpt lat="46.0974746" lon="12.1749511"><ele>354.0</ele><time>2026-04-09T08:52:00.547Z</time></trkpt><trkpt lat="46.0973911" lon="12.1747351"><ele>352.6666666666667</ele><time>2026-04-09T08:52:01.56Z</time></trkpt><trkpt lat="46.0973047" lon="12.1745192"><ele>351.33333333333337</ele><time>2026-04-09T08:52:02.543Z</time></trkpt><trkpt lat="46.0972394" lon="12.1742831"><ele>350.0</ele><time>2026-04-09T08:52:03.538Z</time></trkpt><trkpt lat="46.0971475" lon="12.1740644"><ele>349.6666666666667</ele><time>2026-04-09T08:52:04.544Z</time></trkpt><trkpt lat="46.0970721" lon="12.1738598"><ele>349.3333333333333</ele><time>2026-04-09T08:52:05.547Z</time></trkpt><trkpt lat="46.0970095" lon="12.1736567"><ele>349.0</ele><time>2026-04-09T08:52:06.544Z</time></trkpt><trkpt lat="46.0969305" lon="12.1734774"><ele>349.0</ele><time>2026-04-09T08:52:07.554Z</time></trkpt><trkpt lat="46.096878" lon="12.1733178"><ele>349.0</ele><time>2026-04-09T08:52:08.548Z</time></trkpt><trkpt lat="46.0968405" lon="12.1731962"><ele>349.0</ele><time>2026-04-09T08:52:09.556Z</time></trkpt><trkpt lat="46.0968162" lon="12.1730995"><ele>349.0</ele><time>2026-04-09T08:52:10.552Z</time></trkpt><trkpt lat="46.0968569" lon="12.1729743"><ele>349.0</ele><time>2026-04-09T08:52:12.554Z</time></trkpt><trkpt lat="46.0968799" lon="12.172822"><ele>349.16666666666663</ele><time>2026-04-09T08:52:14.55Z</time></trkpt><trkpt lat="46.0968043" lon="12.1726949"><ele>349.3333333333333</ele><time>2026-04-09T08:52:16.552Z</time></trkpt><trkpt lat="46.0967349" lon="12.1726423"><ele>349.5</ele><time>2026-04-09T08:52:17.55Z</time></trkpt><trkpt lat="46.0966538" lon="12.1725914"><ele>349.6666666666667</ele><time>2026-04-09T08:52:18.544Z</time></trkpt><trkpt lat="46.0965863" lon="12.1725387"><ele>349.83333333333337</ele><time>2026-04-09T08:52:19.544Z</time></trkpt><trkpt lat="46.096535" lon="12.1724662"><ele>350.0</ele><time>2026-04-09T08:52:20.544Z</time></trkpt><trkpt lat="46.0964789" lon="12.1723808"><ele>349.8</ele><time>2026-04-09T08:52:21.553Z</time></trkpt><trkpt lat="46.0964245" lon="12.1722803"><ele>349.6</ele><time>2026-04-09T08:52:22.552Z</time></trkpt><trkpt lat="46.0963611" lon="12.17219"><ele>349.4</ele><time>2026-04-09T08:52:23.539Z</time></trkpt><trkpt lat="46.0962889" lon="12.1720895"><ele>349.2</ele><time>2026-04-09T08:52:24.546Z</time></trkpt><trkpt lat="46.0962106" lon="12.1720069"><ele>349.0</ele><time>2026-04-09T08:52:25.55Z</time></trkpt><trkpt lat="46.0961387" lon="12.1719244"><ele>349.0</ele><time>2026-04-09T08:52:26.546Z</time></trkpt><trkpt lat="46.0960519" lon="12.1718464"><ele>349.0</ele><time>2026-04-09T08:52:27.546Z</time></trkpt><trkpt lat="46.0959803" lon="12.1717671"><ele>349.0</ele><time>2026-04-09T08:52:28.552Z</time></trkpt><trkpt lat="46.0959315" lon="12.1716942"><ele>349.0</ele><time>2026-04-09T08:52:29.547Z</time></trkpt><trkpt lat="46.0958739" lon="12.1715736"><ele>349.0</ele><time>2026-04-09T08:52:31.551Z</time></trkpt><trkpt lat="46.0959132" lon="12.1713725"><ele>349.0</ele><time>2026-04-09T08:52:33.549Z</time></trkpt><trkpt lat="46.0959295" lon="12.1712302"><ele>349.0</ele><time>2026-04-09T08:52:34.55Z</time></trkpt><trkpt lat="46.0959439" lon="12.1710975"><ele>349.0</ele><time>2026-04-09T08:52:35.546Z</time></trkpt><trkpt lat="46.0959471" lon="12.1709567"><ele>349.0</ele><time>2026-04-09T08:52:36.556Z</time></trkpt><trkpt lat="46.095945" lon="12.170803"><ele>349.0</ele><time>2026-04-09T08:52:37.558Z</time></trkpt><trkpt lat="46.0959138" lon="12.1706312"><ele>349.0</ele><time>2026-04-09T08:52:38.554Z</time></trkpt><trkpt lat="46.0958806" lon="12.1704335"><ele>349.0</ele><time>2026-04-09T08:52:39.545Z</time></trkpt><trkpt lat="46.0958364" lon="12.1702231"><ele>349.0</ele><time>2026-04-09T08:52:40.552Z</time></trkpt><trkpt lat="46.0957933" lon="12.1699936"><ele>350.0</ele><time>2026-04-09T08:52:41.594Z</time></trkpt><trkpt lat="46.0957388" lon="12.1697503"><ele>351.0</ele><time>2026-04-09T08:52:42.542Z</time></trkpt><trkpt lat="46.0956908" lon="12.1695161"><ele>352.0</ele><time>2026-04-09T08:52:43.541Z</time></trkpt><trkpt lat="46.0956435" lon="12.1692745"><ele>352.0</ele><time>2026-04-09T08:52:44.544Z</time></trkpt><trkpt lat="46.0955841" lon="12.1690367"><ele>352.0</ele><time>2026-04-09T08:52:45.554Z</time></trkpt><trkpt lat="46.0955314" lon="12.1687973"><ele>352.0</ele><time>2026-04-09T08:52:46.543Z</time></trkpt><trkpt lat="46.0954873" lon="12.1685744"><ele>352.0</ele><time>2026-04-09T08:52:47.554Z</time></trkpt><trkpt lat="46.0954294" lon="12.1683557"><ele>352.0</ele><time>2026-04-09T08:52:48.552Z</time></trkpt><trkpt lat="46.0953709" lon="12.1681357"><ele>352.0</ele><time>2026-04-09T08:52:49.548Z</time></trkpt><trkpt lat="46.0953162" lon="12.1679125"><ele>351.66666666666663</ele><time>2026-04-09T08:52:50.549Z</time></trkpt><trkpt lat="46.095256" lon="12.1676702"><ele>351.3333333333333</ele><time>2026-04-09T08:52:51.541Z</time></trkpt><trkpt lat="46.0952091" lon="12.1674615"><ele>351.0</ele><time>2026-04-09T08:52:52.544Z</time></trkpt><trkpt lat="46.0951572" lon="12.1672625"><ele>350.75</ele><time>2026-04-09T08:52:53.545Z</time></trkpt><trkpt lat="46.0951126" lon="12.1670683"><ele>350.5</ele><time>2026-04-09T08:52:54.55Z</time></trkpt><trkpt lat="46.0950585" lon="12.1669036"><ele>350.25</ele><time>2026-04-09T08:52:55.547Z</time></trkpt><trkpt lat="46.0950013" lon="12.1667307"><ele>350.0</ele><time>2026-04-09T08:52:56.543Z</time></trkpt><trkpt lat="46.0949541" lon="12.1665449"><ele>351.0</ele><time>2026-04-09T08:52:57.551Z</time></trkpt><trkpt lat="46.0949114" lon="12.1663404"><ele>352.0</ele><time>2026-04-09T08:52:58.548Z</time></trkpt><trkpt lat="46.0948536" lon="12.1661279"><ele>353.0</ele><time>2026-04-09T08:52:59.545Z</time></trkpt><trkpt lat="46.0947889" lon="12.1659075"><ele>352.33333333333337</ele><time>2026-04-09T08:53:00.548Z</time></trkpt><trkpt lat="46.0947105" lon="12.1656824"><ele>351.6666666666667</ele><time>2026-04-09T08:53:01.549Z</time></trkpt><trkpt lat="46.0946202" lon="12.1654543"><ele>351.0</ele><time>2026-04-09T08:53:02.546Z</time></trkpt><trkpt lat="46.0945188" lon="12.165215"><ele>351.0</ele><time>2026-04-09T08:53:03.548Z</time></trkpt><trkpt lat="46.0944323" lon="12.1649894"><ele>351.0</ele><time>2026-04-09T08:53:04.542Z</time></trkpt><trkpt lat="46.0943421" lon="12.1647684"><ele>351.0</ele><time>2026-04-09T08:53:05.546Z</time></trkpt><trkpt lat="46.0942594" lon="12.1645506"><ele>350.0</ele><time>2026-04-09T08:53:06.552Z</time></trkpt><trkpt lat="46.0941863" lon="12.1643351"><ele>349.0</ele><time>2026-04-09T08:53:07.55Z</time></trkpt><trkpt lat="46.0941193" lon="12.1641425"><ele>348.0</ele><time>2026-04-09T08:53:08.55Z</time></trkpt><trkpt lat="46.0940463" lon="12.1639499"><ele>346.25</ele><time>2026-04-09T08:53:09.545Z</time></trkpt><trkpt lat="46.0939827" lon="12.1637664"><ele>344.5</ele><time>2026-04-09T08:53:10.554Z</time></trkpt><trkpt lat="46.093921" lon="12.1635924"><ele>342.75</ele><time>2026-04-09T08:53:11.555Z</time></trkpt><trkpt lat="46.0938507" lon="12.1634225"><ele>341.0</ele><time>2026-04-09T08:53:12.55Z</time></trkpt><trkpt lat="46.0937924" lon="12.1632696"><ele>340.4</ele><time>2026-04-09T08:53:13.543Z</time></trkpt><trkpt lat="46.0937492" lon="12.1631452"><ele>339.8</ele><time>2026-04-09T08:53:14.553Z</time></trkpt><trkpt lat="46.093721" lon="12.1630465"><ele>339.2</ele><time>2026-04-09T08:53:15.551Z</time></trkpt><trkpt lat="46.0937104" lon="12.1629447"><ele>338.59999999999997</ele><time>2026-04-09T08:53:17.548Z</time></trkpt><trkpt lat="46.0936434" lon="12.162784"><ele>338.0</ele><time>2026-04-09T08:53:20.549Z</time></trkpt><trkpt lat="46.0935758" lon="12.1626606"><ele>338.0</ele><time>2026-04-09T08:53:21.548Z</time></trkpt><trkpt lat="46.0935228" lon="12.1625283"><ele>338.0</ele><time>2026-04-09T08:53:22.547Z</time></trkpt><trkpt lat="46.0934455" lon="12.1623031"><ele>338.0</ele><time>2026-04-09T08:53:23.549Z</time></trkpt><trkpt lat="46.0933706" lon="12.1620847"><ele>338.0</ele><time>2026-04-09T08:53:24.544Z</time></trkpt><trkpt lat="46.0932803" lon="12.1618712"><ele>338.6666666666667</ele><time>2026-04-09T08:53:25.543Z</time></trkpt><trkpt lat="46.0931948" lon="12.1616345"><ele>339.3333333333333</ele><time>2026-04-09T08:53:26.546Z</time></trkpt><trkpt lat="46.093095" lon="12.1613895"><ele>340.0</ele><time>2026-04-09T08:53:27.545Z</time></trkpt><trkpt lat="46.0929963" lon="12.1611419"><ele>340.0</ele><time>2026-04-09T08:53:28.541Z</time></trkpt><trkpt lat="46.0929" lon="12.1608856"><ele>340.0</ele><time>2026-04-09T08:53:29.549Z</time></trkpt><trkpt lat="46.092804" lon="12.1606344"><ele>340.0</ele><time>2026-04-09T08:53:30.549Z</time></trkpt><trkpt lat="46.0927095" lon="12.1603866"><ele>339.0</ele><time>2026-04-09T08:53:31.545Z</time></trkpt><trkpt lat="46.0926204" lon="12.1601645"><ele>338.0</ele><time>2026-04-09T08:53:32.542Z</time></trkpt><trkpt lat="46.0925389" lon="12.1599459"><ele>337.0</ele><time>2026-04-09T08:53:33.548Z</time></trkpt><trkpt lat="46.0924604" lon="12.1597398"><ele>336.3333333333333</ele><time>2026-04-09T08:53:34.549Z</time></trkpt><trkpt lat="46.0923907" lon="12.1595408"><ele>335.6666666666667</ele><time>2026-04-09T08:53:35.554Z</time></trkpt><trkpt lat="46.0923248" lon="12.1593477"><ele>335.0</ele><time>2026-04-09T08:53:36.55Z</time></trkpt><trkpt lat="46.0922634" lon="12.1591488"><ele>335.0</ele><time>2026-04-09T08:53:37.556Z</time></trkpt><trkpt lat="46.0922231" lon="12.1589329"><ele>335.0</ele><time>2026-04-09T08:53:38.544Z</time></trkpt><trkpt lat="46.0921852" lon="12.1587105"><ele>335.0</ele><time>2026-04-09T08:53:39.542Z</time></trkpt><trkpt lat="46.0921586" lon="12.1585095"><ele>335.0</ele><time>2026-04-09T08:53:40.547Z</time></trkpt><trkpt lat="46.0921467" lon="12.158301"><ele>335.0</ele><time>2026-04-09T08:53:41.541Z</time></trkpt><trkpt lat="46.0921497" lon="12.1580882"><ele>335.0</ele><time>2026-04-09T08:53:42.549Z</time></trkpt><trkpt lat="46.0921728" lon="12.157865"><ele>335.0</ele><time>2026-04-09T08:53:43.549Z</time></trkpt><trkpt lat="46.0921958" lon="12.1576526"><ele>335.0</ele><time>2026-04-09T08:53:44.545Z</time></trkpt><trkpt lat="46.0922141" lon="12.1574235"><ele>335.0</ele><time>2026-04-09T08:53:45.55Z</time></trkpt><trkpt lat="46.0922457" lon="12.1571878"><ele>335.0</ele><time>2026-04-09T08:53:46.552Z</time></trkpt><trkpt lat="46.0922758" lon="12.1569503"><ele>334.75</ele><time>2026-04-09T08:53:47.546Z</time></trkpt><trkpt lat="46.0922522" lon="12.1567381"><ele>334.5</ele><time>2026-04-09T08:53:48.549Z</time></trkpt><trkpt lat="46.0922458" lon="12.1565619"><ele>334.25</ele><time>2026-04-09T08:53:49.551Z</time></trkpt><trkpt lat="46.0922501" lon="12.1563684"><ele>334.0</ele><time>2026-04-09T08:53:50.544Z</time></trkpt><trkpt lat="46.0922378" lon="12.1561481"><ele>333.0</ele><time>2026-04-09T08:53:51.546Z</time></trkpt><trkpt lat="46.0922453" lon="12.15595"><ele>332.0</ele><time>2026-04-09T08:53:52.545Z</time></trkpt><trkpt lat="46.0922053" lon="12.1557282"><ele>331.0</ele><time>2026-04-09T08:53:53.553Z</time></trkpt><trkpt lat="46.0921664" lon="12.1555132"><ele>330.0</ele><time>2026-04-09T08:53:54.55Z</time></trkpt><trkpt lat="46.0921238" lon="12.1552749"><ele>329.0</ele><time>2026-04-09T08:53:55.55Z</time></trkpt><trkpt lat="46.092086" lon="12.1550292"><ele>328.0</ele><time>2026-04-09T08:53:56.547Z</time></trkpt><trkpt lat="46.0920574" lon="12.1547924"><ele>327.3333333333333</ele><time>2026-04-09T08:53:57.551Z</time></trkpt><trkpt lat="46.0920074" lon="12.1545662"><ele>326.6666666666667</ele><time>2026-04-09T08:53:58.552Z</time></trkpt><trkpt lat="46.0919705" lon="12.1543493"><ele>326.0</ele><time>2026-04-09T08:53:59.546Z</time></trkpt><trkpt lat="46.0919357" lon="12.1541403"><ele>324.0</ele><time>2026-04-09T08:54:00.547Z</time></trkpt><trkpt lat="46.0918949" lon="12.1539139"><ele>322.0</ele><time>2026-04-09T08:54:01.549Z</time></trkpt><trkpt lat="46.0918669" lon="12.153686"><ele>320.0</ele><time>2026-04-09T08:54:02.55Z</time></trkpt><trkpt lat="46.0918466" lon="12.1534693"><ele>320.0</ele><time>2026-04-09T08:54:03.55Z</time></trkpt><trkpt lat="46.0918417" lon="12.1532547"><ele>320.0</ele><time>2026-04-09T08:54:04.542Z</time></trkpt><trkpt lat="46.0918586" lon="12.1530504"><ele>320.0</ele><time>2026-04-09T08:54:05.548Z</time></trkpt><trkpt lat="46.091865" lon="12.1528468"><ele>320.0</ele><time>2026-04-09T08:54:06.55Z</time></trkpt><trkpt lat="46.0918833" lon="12.1526491"><ele>318.5</ele><time>2026-04-09T08:54:07.543Z</time></trkpt><trkpt lat="46.0918827" lon="12.1524499"><ele>317.0</ele><time>2026-04-09T08:54:08.538Z</time></trkpt><trkpt lat="46.0918934" lon="12.1522451"><ele>315.5</ele><time>2026-04-09T08:54:09.536Z</time></trkpt><trkpt lat="46.0918967" lon="12.152059"><ele>314.0</ele><time>2026-04-09T08:54:10.546Z</time></trkpt><trkpt lat="46.091886" lon="12.1518693"><ele>313.75</ele><time>2026-04-09T08:54:11.554Z</time></trkpt><trkpt lat="46.0918672" lon="12.1516975"><ele>313.5</ele><time>2026-04-09T08:54:12.546Z</time></trkpt><trkpt lat="46.0918207" lon="12.1515455"><ele>313.25</ele><time>2026-04-09T08:54:13.547Z</time></trkpt><trkpt lat="46.0917604" lon="12.1513901"><ele>313.0</ele><time>2026-04-09T08:54:14.555Z</time></trkpt><trkpt lat="46.0916781" lon="12.1512414"><ele>312.75</ele><time>2026-04-09T08:54:15.551Z</time></trkpt><trkpt lat="46.0915793" lon="12.1511071"><ele>312.5</ele><time>2026-04-09T08:54:16.547Z</time></trkpt><trkpt lat="46.0914839" lon="12.1509733"><ele>312.25</ele><time>2026-04-09T08:54:17.552Z</time></trkpt><trkpt lat="46.0913807" lon="12.1508485"><ele>312.0</ele><time>2026-04-09T08:54:18.543Z</time></trkpt><trkpt lat="46.0912887" lon="12.1507147"><ele>311.3333333333333</ele><time>2026-04-09T08:54:19.544Z</time></trkpt><trkpt lat="46.0911895" lon="12.150575"><ele>310.66666666666663</ele><time>2026-04-09T08:54:20.544Z</time></trkpt><trkpt lat="46.0910566" lon="12.1504265"><ele>310.0</ele><time>2026-04-09T08:54:21.545Z</time></trkpt><trkpt lat="46.0909475" lon="12.15027"><ele>310.0</ele><time>2026-04-09T08:54:22.552Z</time></trkpt><trkpt lat="46.0908395" lon="12.1501223"><ele>310.0</ele><time>2026-04-09T08:54:23.543Z</time></trkpt><trkpt lat="46.0907275" lon="12.149981"><ele>310.0</ele><time>2026-04-09T08:54:24.547Z</time></trkpt><trkpt lat="46.0906" lon="12.1498289"><ele>312.66666666666663</ele><time>2026-04-09T08:54:25.549Z</time></trkpt><trkpt lat="46.0905065" lon="12.1496612"><ele>315.3333333333333</ele><time>2026-04-09T08:54:26.551Z</time></trkpt><trkpt lat="46.0903748" lon="12.149499"><ele>318.0</ele><time>2026-04-09T08:54:27.541Z</time></trkpt><trkpt lat="46.0902796" lon="12.1493216"><ele>318.0</ele><time>2026-04-09T08:54:28.552Z</time></trkpt><trkpt lat="46.0901979" lon="12.1491286"><ele>318.0</ele><time>2026-04-09T08:54:29.545Z</time></trkpt><trkpt lat="46.0901075" lon="12.1489246"><ele>318.0</ele><time>2026-04-09T08:54:30.544Z</time></trkpt><trkpt lat="46.0900252" lon="12.1487311"><ele>318.3333333333333</ele><time>2026-04-09T08:54:31.542Z</time></trkpt><trkpt lat="46.0899518" lon="12.1485299"><ele>318.66666666666663</ele><time>2026-04-09T08:54:32.556Z</time></trkpt><trkpt lat="46.0898584" lon="12.1483419"><ele>319.0</ele><time>2026-04-09T08:54:33.554Z</time></trkpt><trkpt lat="46.0897895" lon="12.1481369"><ele>319.0</ele><time>2026-04-09T08:54:34.545Z</time></trkpt><trkpt lat="46.0897048" lon="12.1479291"><ele>319.0</ele><time>2026-04-09T08:54:35.55Z</time></trkpt><trkpt lat="46.0896377" lon="12.1477342"><ele>319.0</ele><time>2026-04-09T08:54:36.547Z</time></trkpt><trkpt lat="46.0895608" lon="12.1475101"><ele>318.25</ele><time>2026-04-09T08:54:37.552Z</time></trkpt><trkpt lat="46.0894837" lon="12.1473148"><ele>317.5</ele><time>2026-04-09T08:54:38.55Z</time></trkpt><trkpt lat="46.089431" lon="12.1471302"><ele>316.75</ele><time>2026-04-09T08:54:39.543Z</time></trkpt><trkpt lat="46.089378" lon="12.1469293"><ele>316.0</ele><time>2026-04-09T08:54:40.55Z</time></trkpt><trkpt lat="46.089343" lon="12.1467711"><ele>316.0</ele><time>2026-04-09T08:54:41.547Z</time></trkpt><trkpt lat="46.0893069" lon="12.1466352"><ele>316.0</ele><time>2026-04-09T08:54:42.552Z</time></trkpt><trkpt lat="46.0893237" lon="12.1465074"><ele>316.0</ele><time>2026-04-09T08:54:43.552Z</time></trkpt><trkpt lat="46.0893287" lon="12.1463718"><ele>316.0</ele><time>2026-04-09T08:54:44.549Z</time></trkpt><trkpt lat="46.0893588" lon="12.1462138"><ele>316.0</ele><time>2026-04-09T08:54:45.545Z</time></trkpt><trkpt lat="46.0893921" lon="12.1460505"><ele>316.25</ele><time>2026-04-09T08:54:46.543Z</time></trkpt><trkpt lat="46.0894214" lon="12.1458701"><ele>316.5</ele><time>2026-04-09T08:54:47.554Z</time></trkpt><trkpt lat="46.0894532" lon="12.1456962"><ele>316.75</ele><time>2026-04-09T08:54:48.548Z</time></trkpt><trkpt lat="46.0894754" lon="12.1455395"><ele>317.0</ele><time>2026-04-09T08:54:49.544Z</time></trkpt><trkpt lat="46.0894976" lon="12.145391"><ele>317.1666666666667</ele><time>2026-04-09T08:54:50.554Z</time></trkpt><trkpt lat="46.0895279" lon="12.1452692"><ele>317.33333333333337</ele><time>2026-04-09T08:54:51.553Z</time></trkpt><trkpt lat="46.0895505" lon="12.1451549"><ele>317.5</ele><time>2026-04-09T08:54:52.545Z</time></trkpt><trkpt lat="46.089563" lon="12.1450639"><ele>317.6666666666667</ele><time>2026-04-09T08:54:53.544Z</time></trkpt><trkpt lat="46.0895681" lon="12.1449362"><ele>317.8333333333333</ele><time>2026-04-09T08:54:55.544Z</time></trkpt><trkpt lat="46.0896061" lon="12.1448533"><ele>318.0</ele><time>2026-04-09T08:54:57.55Z</time></trkpt><trkpt lat="46.0896806" lon="12.1447724"><ele>318.2</ele><time>2026-04-09T08:54:58.548Z</time></trkpt><trkpt lat="46.0897666" lon="12.1447028"><ele>318.4</ele><time>2026-04-09T08:54:59.546Z</time></trkpt><trkpt lat="46.0898385" lon="12.1446297"><ele>318.59999999999997</ele><time>2026-04-09T08:55:00.551Z</time></trkpt><trkpt lat="46.089898" lon="12.1445409"><ele>318.8</ele><time>2026-04-09T08:55:01.544Z</time></trkpt><trkpt lat="46.0899231" lon="12.1443784"><ele>319.0</ele><time>2026-04-09T08:55:02.554Z</time></trkpt><trkpt lat="46.0899517" lon="12.1442479"><ele>319.2</ele><time>2026-04-09T08:55:03.552Z</time></trkpt><trkpt lat="46.0899803" lon="12.1441212"><ele>319.4</ele><time>2026-04-09T08:55:04.543Z</time></trkpt><trkpt lat="46.089985" lon="12.1439726"><ele>319.6</ele><time>2026-04-09T08:55:05.552Z</time></trkpt><trkpt lat="46.0900019" lon="12.1438357"><ele>319.8</ele><time>2026-04-09T08:55:06.542Z</time></trkpt><trkpt lat="46.0900167" lon="12.1437048"><ele>320.0</ele><time>2026-04-09T08:55:07.54Z</time></trkpt><trkpt lat="46.0900224" lon="12.1435597"><ele>320.0</ele><time>2026-04-09T08:55:08.547Z</time></trkpt><trkpt lat="46.0900175" lon="12.1434003"><ele>320.0</ele><time>2026-04-09T08:55:09.547Z</time></trkpt><trkpt lat="46.0900141" lon="12.1432407"><ele>320.0</ele><time>2026-04-09T08:55:10.549Z</time></trkpt><trkpt lat="46.0900197" lon="12.1430799"><ele>320.0</ele><time>2026-04-09T08:55:11.54Z</time></trkpt><trkpt lat="46.0900177" lon="12.1429273"><ele>320.0</ele><time>2026-04-09T08:55:12.554Z</time></trkpt><trkpt lat="46.0900175" lon="12.1427839"><ele>319.6666666666667</ele><time>2026-04-09T08:55:13.547Z</time></trkpt><trkpt lat="46.0900103" lon="12.1426432"><ele>319.33333333333337</ele><time>2026-04-09T08:55:14.547Z</time></trkpt><trkpt lat="46.0900008" lon="12.1425139"><ele>319.0</ele><time>2026-04-09T08:55:15.552Z</time></trkpt><trkpt lat="46.0899918" lon="12.1423999"><ele>318.6666666666667</ele><time>2026-04-09T08:55:16.545Z</time></trkpt><trkpt lat="46.0899789" lon="12.1422974"><ele>318.3333333333333</ele><time>2026-04-09T08:55:17.556Z</time></trkpt><trkpt lat="46.0899657" lon="12.1421974"><ele>318.0</ele><time>2026-04-09T08:55:18.544Z</time></trkpt><trkpt lat="46.0899588" lon="12.1421026"><ele>318.0</ele><time>2026-04-09T08:55:19.548Z</time></trkpt><trkpt lat="46.089947" lon="12.1420111"><ele>318.0</ele><time>2026-04-09T08:55:20.554Z</time></trkpt><trkpt lat="46.0899382" lon="12.1419196"><ele>318.0</ele><time>2026-04-09T08:55:21.552Z</time></trkpt><trkpt lat="46.0898979" lon="12.1417547"><ele>318.0</ele><time>2026-04-09T08:55:23.544Z</time></trkpt><trkpt lat="46.0898754" lon="12.1415984"><ele>318.0</ele><time>2026-04-09T08:55:25.547Z</time></trkpt><trkpt lat="46.0898573" lon="12.1414803"><ele>318.0</ele><time>2026-04-09T08:55:27.55Z</time></trkpt><trkpt lat="46.0898465" lon="12.141358"><ele>317.6</ele><time>2026-04-09T08:55:29.547Z</time></trkpt><trkpt lat="46.0898216" lon="12.1412311"><ele>317.20000000000005</ele><time>2026-04-09T08:55:31.543Z</time></trkpt><trkpt lat="46.0897955" lon="12.1410944"><ele>316.8</ele><time>2026-04-09T08:55:33.542Z</time></trkpt><trkpt lat="46.0897684" lon="12.1409133"><ele>316.40000000000003</ele><time>2026-04-09T08:55:35.551Z</time></trkpt><trkpt lat="46.089749" lon="12.1408232"><ele>316.0</ele><time>2026-04-09T08:55:36.545Z</time></trkpt><trkpt lat="46.0897368" lon="12.14072"><ele>315.2</ele><time>2026-04-09T08:55:37.546Z</time></trkpt><trkpt lat="46.0897262" lon="12.1406253"><ele>314.40000000000003</ele><time>2026-04-09T08:55:38.536Z</time></trkpt><trkpt lat="46.0897119" lon="12.1405365"><ele>313.6</ele><time>2026-04-09T08:55:39.544Z</time></trkpt><trkpt lat="46.0896936" lon="12.140437"><ele>312.8</ele><time>2026-04-09T08:55:40.547Z</time></trkpt><trkpt lat="46.0896522" lon="12.1402634"><ele>312.0</ele><time>2026-04-09T08:55:42.549Z</time></trkpt><trkpt lat="46.0896004" lon="12.1400847"><ele>312.0</ele><time>2026-04-09T08:55:44.538Z</time></trkpt><trkpt lat="46.0895162" lon="12.1399031"><ele>312.0</ele><time>2026-04-09T08:55:46.541Z</time></trkpt><trkpt lat="46.0894257" lon="12.1396986"><ele>312.0</ele><time>2026-04-09T08:55:48.548Z</time></trkpt><trkpt lat="46.089406" lon="12.1396041"><ele>312.0</ele><time>2026-04-09T08:55:49.547Z</time></trkpt><trkpt lat="46.0893938" lon="12.1394652"><ele>311.4</ele><time>2026-04-09T08:55:51.546Z</time></trkpt><trkpt lat="46.0894868" lon="12.13936"><ele>310.79999999999995</ele><time>2026-04-09T08:55:53.602Z</time></trkpt><trkpt lat="46.0895521" lon="12.1393016"><ele>310.2</ele><time>2026-04-09T08:55:54.547Z</time></trkpt><trkpt lat="46.0896207" lon="12.139243"><ele>309.59999999999997</ele><time>2026-04-09T08:55:55.553Z</time></trkpt><trkpt lat="46.0896756" lon="12.1391757"><ele>309.0</ele><time>2026-04-09T08:55:56.549Z</time></trkpt><trkpt lat="46.0897455" lon="12.1390529"><ele>308.4</ele><time>2026-04-09T08:55:57.543Z</time></trkpt><trkpt lat="46.0898157" lon="12.1389581"><ele>307.79999999999995</ele><time>2026-04-09T08:55:58.553Z</time></trkpt><trkpt lat="46.0898992" lon="12.1388805"><ele>307.20000000000005</ele><time>2026-04-09T08:55:59.553Z</time></trkpt><trkpt lat="46.0899944" lon="12.1388114"><ele>306.6</ele><time>2026-04-09T08:56:00.547Z</time></trkpt><trkpt lat="46.0900808" lon="12.1387212"><ele>306.0</ele><time>2026-04-09T08:56:01.552Z</time></trkpt><trkpt lat="46.0901704" lon="12.1386379"><ele>305.75</ele><time>2026-04-09T08:56:02.546Z</time></trkpt><trkpt lat="46.0902597" lon="12.1385418"><ele>305.5</ele><time>2026-04-09T08:56:03.552Z</time></trkpt><trkpt lat="46.0903812" lon="12.1384525"><ele>305.25</ele><time>2026-04-09T08:56:04.538Z</time></trkpt><trkpt lat="46.0905127" lon="12.1383769"><ele>305.0</ele><time>2026-04-09T08:56:05.537Z</time></trkpt><trkpt lat="46.090631" lon="12.1383269"><ele>305.0</ele><time>2026-04-09T08:56:06.547Z</time></trkpt><trkpt lat="46.0907487" lon="12.1382983"><ele>305.0</ele><time>2026-04-09T08:56:07.552Z</time></trkpt><trkpt lat="46.0908457" lon="12.1382926"><ele>305.0</ele><time>2026-04-09T08:56:08.547Z</time></trkpt><trkpt lat="46.0909451" lon="12.1383142"><ele>305.0</ele><time>2026-04-09T08:56:09.541Z</time></trkpt><trkpt lat="46.0910453" lon="12.1383304"><ele>305.0</ele><time>2026-04-09T08:56:10.549Z</time></trkpt><trkpt lat="46.0911488" lon="12.1383205"><ele>305.0</ele><time>2026-04-09T08:56:11.542Z</time></trkpt><trkpt lat="46.091243" lon="12.1383012"><ele>305.0</ele><time>2026-04-09T08:56:12.551Z</time></trkpt><trkpt lat="46.091333" lon="12.1382738"><ele>305.0</ele><time>2026-04-09T08:56:13.544Z</time></trkpt><trkpt lat="46.0914386" lon="12.1381835"><ele>305.0</ele><time>2026-04-09T08:56:14.551Z</time></trkpt><trkpt lat="46.0915754" lon="12.1380572"><ele>302.6666666666667</ele><time>2026-04-09T08:56:15.544Z</time></trkpt><trkpt lat="46.0917311" lon="12.137931"><ele>300.3333333333333</ele><time>2026-04-09T08:56:16.552Z</time></trkpt><trkpt lat="46.0918637" lon="12.1378161"><ele>298.0</ele><time>2026-04-09T08:56:17.543Z</time></trkpt><trkpt lat="46.0919955" lon="12.1377017"><ele>298.0</ele><time>2026-04-09T08:56:18.552Z</time></trkpt><trkpt lat="46.092123" lon="12.1375922"><ele>298.0</ele><time>2026-04-09T08:56:19.55Z</time></trkpt><trkpt lat="46.092268" lon="12.1375258"><ele>298.0</ele><time>2026-04-09T08:56:20.55Z</time></trkpt><trkpt lat="46.092383" lon="12.1374594"><ele>298.0</ele><time>2026-04-09T08:56:21.542Z</time></trkpt><trkpt lat="46.0924673" lon="12.1373882"><ele>297.6</ele><time>2026-04-09T08:56:22.56Z</time></trkpt><trkpt lat="46.0925369" lon="12.1373232"><ele>297.20000000000005</ele><time>2026-04-09T08:56:23.545Z</time></trkpt><trkpt lat="46.0925808" lon="12.1372209"><ele>296.8</ele><time>2026-04-09T08:56:24.55Z</time></trkpt><trkpt lat="46.0926099" lon="12.1371068"><ele>296.40000000000003</ele><time>2026-04-09T08:56:25.554Z</time></trkpt><trkpt lat="46.0926461" lon="12.1369454"><ele>296.0</ele><time>2026-04-09T08:56:26.547Z</time></trkpt><trkpt lat="46.0926823" lon="12.1368283"><ele>296.0</ele><time>2026-04-09T08:56:27.546Z</time></trkpt><trkpt lat="46.0927345" lon="12.1367372"><ele>296.0</ele><time>2026-04-09T08:56:28.547Z</time></trkpt><trkpt lat="46.0928056" lon="12.1366883"><ele>296.0</ele><time>2026-04-09T08:56:29.552Z</time></trkpt><trkpt lat="46.0928974" lon="12.1366493"><ele>296.0</ele><time>2026-04-09T08:56:30.542Z</time></trkpt><trkpt lat="46.0929959" lon="12.1366149"><ele>296.0</ele><time>2026-04-09T08:56:31.544Z</time></trkpt><trkpt lat="46.0930853" lon="12.1366113"><ele>296.0</ele><time>2026-04-09T08:56:32.545Z</time></trkpt><trkpt lat="46.0931558" lon="12.1365793"><ele>296.0</ele><time>2026-04-09T08:56:33.551Z</time></trkpt><trkpt lat="46.0932083" lon="12.136516"><ele>296.0</ele><time>2026-04-09T08:56:34.542Z</time></trkpt><trkpt lat="46.0932429" lon="12.1364343"><ele>296.0</ele><time>2026-04-09T08:56:35.546Z</time></trkpt><trkpt lat="46.0932524" lon="12.1363266"><ele>296.0</ele><time>2026-04-09T08:56:36.552Z</time></trkpt><trkpt lat="46.0932728" lon="12.1361672"><ele>296.0</ele><time>2026-04-09T08:56:37.543Z</time></trkpt><trkpt lat="46.0932812" lon="12.1360104"><ele>296.0</ele><time>2026-04-09T08:56:38.545Z</time></trkpt><trkpt lat="46.0932877" lon="12.135858"><ele>296.2</ele><time>2026-04-09T08:56:39.544Z</time></trkpt><trkpt lat="46.0932803" lon="12.135697"><ele>296.40000000000003</ele><time>2026-04-09T08:56:40.547Z</time></trkpt><trkpt lat="46.0932677" lon="12.1355202"><ele>296.6</ele><time>2026-04-09T08:56:41.547Z</time></trkpt><trkpt lat="46.0932436" lon="12.135355"><ele>296.8</ele><time>2026-04-09T08:56:42.543Z</time></trkpt><trkpt lat="46.0932349" lon="12.1352204"><ele>297.0</ele><time>2026-04-09T08:56:43.552Z</time></trkpt><trkpt lat="46.0932079" lon="12.1351286"><ele>297.0</ele><time>2026-04-09T08:56:44.539Z</time></trkpt><trkpt lat="46.0931008" lon="12.135092"><ele>297.0</ele><time>2026-04-09T08:56:46.542Z</time></trkpt><trkpt lat="46.092964" lon="12.1351089"><ele>297.0</ele><time>2026-04-09T08:56:48.546Z</time></trkpt><trkpt lat="46.0927656" lon="12.1351617"><ele>297.0</ele><time>2026-04-09T08:56:49.553Z</time></trkpt><trkpt lat="46.092641" lon="12.1351884"><ele>297.0</ele><time>2026-04-09T08:56:50.539Z</time></trkpt><trkpt lat="46.0925343" lon="12.1351855"><ele>297.0</ele><time>2026-04-09T08:56:51.552Z</time></trkpt><trkpt lat="46.0924216" lon="12.1351413"><ele>297.0</ele><time>2026-04-09T08:56:52.549Z</time></trkpt><trkpt lat="46.0923278" lon="12.135062"><ele>297.0</ele><time>2026-04-09T08:56:53.543Z</time></trkpt><trkpt lat="46.0922456" lon="12.13494"><ele>297.5</ele><time>2026-04-09T08:56:54.557Z</time></trkpt><trkpt lat="46.0921565" lon="12.1347625"><ele>298.0</ele><time>2026-04-09T08:56:55.538Z</time></trkpt><trkpt lat="46.0920702" lon="12.1345888"><ele>298.5</ele><time>2026-04-09T08:56:56.55Z</time></trkpt><trkpt lat="46.0919999" lon="12.1344212"><ele>299.0</ele><time>2026-04-09T08:56:57.541Z</time></trkpt><trkpt lat="46.0919378" lon="12.134295"><ele>299.0</ele><time>2026-04-09T08:56:58.555Z</time></trkpt><trkpt lat="46.0918628" lon="12.1341962"><ele>299.0</ele><time>2026-04-09T08:56:59.55Z</time></trkpt><trkpt lat="46.0917842" lon="12.1341509"><ele>299.0</ele><time>2026-04-09T08:57:00.541Z</time></trkpt><trkpt lat="46.0916933" lon="12.1341277"><ele>299.0</ele><time>2026-04-09T08:57:01.553Z</time></trkpt><trkpt lat="46.0915824" lon="12.1341097"><ele>299.0</ele><time>2026-04-09T08:57:02.543Z</time></trkpt><trkpt lat="46.0914974" lon="12.1340962"><ele>299.0</ele><time>2026-04-09T08:57:03.543Z</time></trkpt><trkpt lat="46.0914157" lon="12.1340621"><ele>299.0</ele><time>2026-04-09T08:57:04.538Z</time></trkpt><trkpt lat="46.0913486" lon="12.1340304"><ele>299.0</ele><time>2026-04-09T08:57:05.542Z</time></trkpt><trkpt lat="46.0912634" lon="12.1339231"><ele>299.0</ele><time>2026-04-09T08:57:07.543Z</time></trkpt><trkpt lat="46.0911902" lon="12.1338062"><ele>299.0</ele><time>2026-04-09T08:57:09.553Z</time></trkpt><trkpt lat="46.0911462" lon="12.1337322"><ele>299.0</ele><time>2026-04-09T08:57:10.539Z</time></trkpt><trkpt lat="46.0910637" lon="12.1336399"><ele>298.59999999999997</ele><time>2026-04-09T08:57:12.546Z</time></trkpt><trkpt lat="46.0909367" lon="12.1335439"><ele>298.2</ele><time>2026-04-09T08:57:14.551Z</time></trkpt><trkpt lat="46.0908686" lon="12.1335044"><ele>297.79999999999995</ele><time>2026-04-09T08:57:15.548Z</time></trkpt><trkpt lat="46.0907587" lon="12.1334237"><ele>297.4</ele><time>2026-04-09T08:57:17.546Z</time></trkpt><trkpt lat="46.0906781" lon="12.1333772"><ele>297.0</ele><time>2026-04-09T08:57:18.546Z</time></trkpt><trkpt lat="46.0906187" lon="12.1333387"><ele>297.6666666666667</ele><time>2026-04-09T08:57:19.552Z</time></trkpt><trkpt lat="46.0905546" lon="12.1333013"><ele>298.3333333333333</ele><time>2026-04-09T08:57:20.535Z</time></trkpt><trkpt lat="46.0904787" lon="12.1332803"><ele>299.0</ele><time>2026-04-09T08:57:22.545Z</time></trkpt><trkpt lat="46.0904166" lon="12.1332437"><ele>299.66666666666663</ele><time>2026-04-09T08:57:24.542Z</time></trkpt><trkpt lat="46.0903147" lon="12.1332128"><ele>300.3333333333333</ele><time>2026-04-09T08:57:26.549Z</time></trkpt><trkpt lat="46.090253" lon="12.1331941"><ele>301.0</ele><time>2026-04-09T08:57:27.555Z</time></trkpt><trkpt lat="46.0901559" lon="12.133185"><ele>301.0</ele><time>2026-04-09T08:57:28.541Z</time></trkpt><trkpt lat="46.0900686" lon="12.1331716"><ele>301.0</ele><time>2026-04-09T08:57:29.552Z</time></trkpt><trkpt lat="46.0899783" lon="12.1331521"><ele>301.0</ele><time>2026-04-09T08:57:30.538Z</time></trkpt><trkpt lat="46.0899201" lon="12.133101"><ele>301.0</ele><time>2026-04-09T08:57:31.546Z</time></trkpt><trkpt lat="46.0898523" lon="12.1330617"><ele>301.0</ele><time>2026-04-09T08:57:32.548Z</time></trkpt><trkpt lat="46.0897851" lon="12.133017"><ele>301.0</ele><time>2026-04-09T08:57:33.539Z</time></trkpt><trkpt lat="46.0897112" lon="12.1329658"><ele>301.0</ele><time>2026-04-09T08:57:34.536Z</time></trkpt><trkpt lat="46.0896355" lon="12.1328809"><ele>301.0</ele><time>2026-04-09T08:57:35.551Z</time></trkpt><trkpt lat="46.0895667" lon="12.1328077"><ele>301.0</ele><time>2026-04-09T08:57:36.537Z</time></trkpt><trkpt lat="46.089522" lon="12.1327178"><ele>301.0</ele><time>2026-04-09T08:57:37.538Z</time></trkpt><trkpt lat="46.0894746" lon="12.1326433"><ele>301.0</ele><time>2026-04-09T08:57:38.54Z</time></trkpt><trkpt lat="46.0893991" lon="12.1325879"><ele>301.0</ele><time>2026-04-09T08:57:40.553Z</time></trkpt><trkpt lat="46.0892887" lon="12.1326967"><ele>301.0</ele><time>2026-04-09T08:57:42.557Z</time></trkpt><trkpt lat="46.0892237" lon="12.1328215"><ele>301.0</ele><time>2026-04-09T08:57:43.538Z</time></trkpt><trkpt lat="46.089106" lon="12.1329432"><ele>301.0</ele><time>2026-04-09T08:57:44.549Z</time></trkpt><trkpt lat="46.0889927" lon="12.1330626"><ele>301.0</ele><time>2026-04-09T08:57:45.587Z</time></trkpt><trkpt lat="46.0888183" lon="12.1332606"><ele>301.8</ele><time>2026-04-09T08:57:47.54Z</time></trkpt><trkpt lat="46.0886969" lon="12.1333603"><ele>302.6</ele><time>2026-04-09T08:57:49.552Z</time></trkpt><trkpt lat="46.0886321" lon="12.1333698"><ele>303.4</ele><time>2026-04-09T08:57:50.552Z</time></trkpt><trkpt lat="46.088581" lon="12.133303"><ele>304.2</ele><time>2026-04-09T08:57:51.546Z</time></trkpt><trkpt lat="46.0885216" lon="12.1332542"><ele>305.0</ele><time>2026-04-09T08:57:52.541Z</time></trkpt><trkpt lat="46.0884516" lon="12.1330938"><ele>305.0</ele><time>2026-04-09T08:57:53.55Z</time></trkpt><trkpt lat="46.0884064" lon="12.1329977"><ele>305.0</ele><time>2026-04-09T08:57:54.546Z</time></trkpt><trkpt lat="46.0883589" lon="12.1329069"><ele>305.0</ele><time>2026-04-09T08:57:55.546Z</time></trkpt><trkpt lat="46.0883094" lon="12.1328113"><ele>305.0</ele><time>2026-04-09T08:57:56.531Z</time></trkpt><trkpt lat="46.0882234" lon="12.1326717"><ele>305.0</ele><time>2026-04-09T08:57:58.546Z</time></trkpt><trkpt lat="46.0881801" lon="12.1325797"><ele>305.0</ele><time>2026-04-09T08:57:59.54Z</time></trkpt><trkpt lat="46.088137" lon="12.1324972"><ele>305.2</ele><time>2026-04-09T08:58:00.537Z</time></trkpt><trkpt lat="46.0880891" lon="12.1324145"><ele>305.4</ele><time>2026-04-09T08:58:01.744Z</time></trkpt><trkpt lat="46.08799" lon="12.1322566"><ele>305.6</ele><time>2026-04-09T08:58:03.538Z</time></trkpt><trkpt lat="46.0879284" lon="12.1321838"><ele>305.8</ele><time>2026-04-09T08:58:04.548Z</time></trkpt><trkpt lat="46.0878565" lon="12.1321092"><ele>306.0</ele><time>2026-04-09T08:58:05.538Z</time></trkpt><trkpt lat="46.0877722" lon="12.1320291"><ele>306.0</ele><time>2026-04-09T08:58:06.549Z</time></trkpt><trkpt lat="46.0877029" lon="12.131934"><ele>306.0</ele><time>2026-04-09T08:58:07.56Z</time></trkpt><trkpt lat="46.0876266" lon="12.1318292"><ele>306.0</ele><time>2026-04-09T08:58:08.548Z</time></trkpt><trkpt lat="46.0875445" lon="12.1317217"><ele>306.0</ele><time>2026-04-09T08:58:09.542Z</time></trkpt><trkpt lat="46.0874649" lon="12.131628"><ele>306.0</ele><time>2026-04-09T08:58:10.542Z</time></trkpt><trkpt lat="46.0873996" lon="12.1315203"><ele>306.8</ele><time>2026-04-09T08:58:11.548Z</time></trkpt><trkpt lat="46.0873244" lon="12.1314265"><ele>307.6</ele><time>2026-04-09T08:58:12.554Z</time></trkpt><trkpt lat="46.0872625" lon="12.1313409"><ele>308.4</ele><time>2026-04-09T08:58:13.536Z</time></trkpt><trkpt lat="46.0872042" lon="12.1312608"><ele>309.2</ele><time>2026-04-09T08:58:14.544Z</time></trkpt><trkpt lat="46.0871423" lon="12.1311667"><ele>310.0</ele><time>2026-04-09T08:58:16.554Z</time></trkpt><trkpt lat="46.087026" lon="12.1311203"><ele>310.0</ele><time>2026-04-09T08:58:36.546Z</time></trkpt><trkpt lat="46.0869239" lon="12.1309979"><ele>310.0</ele><time>2026-04-09T08:58:38.539Z</time></trkpt><trkpt lat="46.0868591" lon="12.1309465"><ele>310.0</ele><time>2026-04-09T08:58:39.541Z</time></trkpt><trkpt lat="46.0868027" lon="12.1308903"><ele>310.0</ele><time>2026-04-09T08:58:40.546Z</time></trkpt><trkpt lat="46.0867366" lon="12.1308259"><ele>310.0</ele><time>2026-04-09T08:58:41.55Z</time></trkpt><trkpt lat="46.0866856" lon="12.1307698"><ele>310.0</ele><time>2026-04-09T08:58:42.531Z</time></trkpt><trkpt lat="46.0866173" lon="12.1306241"><ele>310.3333333333333</ele><time>2026-04-09T08:58:44.549Z</time></trkpt><trkpt lat="46.0865811" lon="12.1305421"><ele>310.66666666666663</ele><time>2026-04-09T08:58:45.541Z</time></trkpt><trkpt lat="46.0865221" lon="12.1304747"><ele>311.0</ele><time>2026-04-09T08:58:46.542Z</time></trkpt><trkpt lat="46.0864465" lon="12.1304208"><ele>311.3333333333333</ele><time>2026-04-09T08:58:47.544Z</time></trkpt><trkpt lat="46.0863738" lon="12.1303606"><ele>311.6666666666667</ele><time>2026-04-09T08:58:48.554Z</time></trkpt><trkpt lat="46.0862966" lon="12.130309"><ele>312.0</ele><time>2026-04-09T08:58:49.539Z</time></trkpt><trkpt lat="46.0862198" lon="12.1302551"><ele>312.0</ele><time>2026-04-09T08:58:50.54Z</time></trkpt><trkpt lat="46.0861452" lon="12.1301989"><ele>312.0</ele><time>2026-04-09T08:58:51.547Z</time></trkpt><trkpt lat="46.0860863" lon="12.1301473"><ele>312.0</ele><time>2026-04-09T08:58:52.544Z</time></trkpt><trkpt lat="46.0859934" lon="12.1300446"><ele>312.0</ele><time>2026-04-09T08:58:54.551Z</time></trkpt><trkpt lat="46.0859627" lon="12.1299579"><ele>312.0</ele><time>2026-04-09T08:58:55.539Z</time></trkpt><trkpt lat="46.0859097" lon="12.1298788"><ele>312.0</ele><time>2026-04-09T08:58:56.548Z</time></trkpt><trkpt lat="46.0858487" lon="12.1298226"><ele>311.1666666666667</ele><time>2026-04-09T08:58:57.538Z</time></trkpt><trkpt lat="46.0857737" lon="12.1297786"><ele>310.3333333333333</ele><time>2026-04-09T08:58:58.54Z</time></trkpt><trkpt lat="46.085698" lon="12.1297301"><ele>309.5</ele><time>2026-04-09T08:58:59.553Z</time></trkpt><trkpt lat="46.0856294" lon="12.129674"><ele>308.66666666666663</ele><time>2026-04-09T08:59:00.554Z</time></trkpt><trkpt lat="46.0855739" lon="12.1296007"><ele>307.8333333333333</ele><time>2026-04-09T08:59:01.553Z</time></trkpt><trkpt lat="46.0855279" lon="12.129531"><ele>307.0</ele><time>2026-04-09T08:59:02.538Z</time></trkpt><trkpt lat="46.0855054" lon="12.1294417"><ele>307.0</ele><time>2026-04-09T08:59:04.538Z</time></trkpt><trkpt lat="46.0854633" lon="12.1293714"><ele>307.0</ele><time>2026-04-09T08:59:08.541Z</time></trkpt><trkpt lat="46.0853965" lon="12.1293152"><ele>307.0</ele><time>2026-04-09T08:59:16.542Z</time></trkpt><trkpt lat="46.0853505" lon="12.1292461"><ele>307.0</ele><time>2026-04-09T08:59:17.548Z</time></trkpt><trkpt lat="46.0853041" lon="12.1291773"><ele>307.0</ele><time>2026-04-09T08:59:18.548Z</time></trkpt><trkpt lat="46.0852513" lon="12.1290278"><ele>307.0</ele><time>2026-04-09T08:59:20.546Z</time></trkpt><trkpt lat="46.0851946" lon="12.1288823"><ele>307.0</ele><time>2026-04-09T08:59:22.55Z</time></trkpt><trkpt lat="46.0851499" lon="12.1287879"><ele>307.0</ele><time>2026-04-09T08:59:23.548Z</time></trkpt><trkpt lat="46.0850853" lon="12.128661"><ele>307.0</ele><time>2026-04-09T08:59:25.549Z</time></trkpt><trkpt lat="46.0850974" lon="12.1287532"><ele>307.0</ele><time>2026-04-09T08:59:30.538Z</time></trkpt><trkpt lat="46.0851458" lon="12.1288556"><ele>307.0</ele><time>2026-04-09T08:59:32.547Z</time></trkpt><trkpt lat="46.0852385" lon="12.1290912"><ele>307.0</ele><time>2026-04-09T08:59:33.542Z</time></trkpt><trkpt lat="46.0852934" lon="12.1292121"><ele>307.0</ele><time>2026-04-09T08:59:34.545Z</time></trkpt><trkpt lat="46.0853728" lon="12.1293024"><ele>307.0</ele><time>2026-04-09T08:59:35.537Z</time></trkpt><trkpt lat="46.0854371" lon="12.1293734"><ele>307.0</ele><time>2026-04-09T08:59:36.547Z</time></trkpt><trkpt lat="46.0855027" lon="12.1294322"><ele>307.0</ele><time>2026-04-09T08:59:37.542Z</time></trkpt><trkpt lat="46.0855792" lon="12.1294426"><ele>307.0</ele><time>2026-04-09T08:59:39.545Z</time></trkpt><trkpt lat="46.0856387" lon="12.1293623"><ele>307.0</ele><time>2026-04-09T08:59:40.542Z</time></trkpt><trkpt lat="46.0856914" lon="12.1292626"><ele>307.0</ele><time>2026-04-09T08:59:41.538Z</time></trkpt><trkpt lat="46.0857646" lon="12.1291615"><ele>307.0</ele><time>2026-04-09T08:59:42.539Z</time></trkpt><trkpt lat="46.0858275" lon="12.1290432"><ele>307.0</ele><time>2026-04-09T08:59:43.549Z</time></trkpt><trkpt lat="46.0858939" lon="12.1289133"><ele>307.0</ele><time>2026-04-09T08:59:44.547Z</time></trkpt><trkpt lat="46.0859615" lon="12.128806"><ele>306.4</ele><time>2026-04-09T08:59:45.538Z</time></trkpt><trkpt lat="46.086034" lon="12.1287107"><ele>305.79999999999995</ele><time>2026-04-09T08:59:46.544Z</time></trkpt><trkpt lat="46.0860991" lon="12.1286239"><ele>305.2</ele><time>2026-04-09T08:59:47.557Z</time></trkpt><trkpt lat="46.0861679" lon="12.1285491"><ele>304.59999999999997</ele><time>2026-04-09T08:59:48.566Z</time></trkpt><trkpt lat="46.0862422" lon="12.1284729"><ele>304.0</ele><time>2026-04-09T08:59:49.546Z</time></trkpt><trkpt lat="46.0863281" lon="12.1283998"><ele>304.0</ele><time>2026-04-09T08:59:50.548Z</time></trkpt><trkpt lat="46.0864148" lon="12.1283396"><ele>304.0</ele><time>2026-04-09T08:59:51.54Z</time></trkpt><trkpt lat="46.0865064" lon="12.1282625"><ele>304.0</ele><time>2026-04-09T08:59:52.546Z</time></trkpt><trkpt lat="46.0866069" lon="12.1281734"><ele>304.0</ele><time>2026-04-09T08:59:53.538Z</time></trkpt><trkpt lat="46.0867072" lon="12.1280831"><ele>304.0</ele><time>2026-04-09T08:59:54.53Z</time></trkpt><trkpt lat="46.0868688" lon="12.1279301"><ele>303.3333333333333</ele><time>2026-04-09T08:59:55.548Z</time></trkpt><trkpt lat="46.0870061" lon="12.1278002"><ele>302.6666666666667</ele><time>2026-04-09T08:59:56.541Z</time></trkpt><trkpt lat="46.0871261" lon="12.1276712"><ele>302.0</ele><time>2026-04-09T08:59:57.549Z</time></trkpt><trkpt lat="46.0872706" lon="12.1275988"><ele>302.0</ele><time>2026-04-09T08:59:58.551Z</time></trkpt><trkpt lat="46.0873814" lon="12.1274775"><ele>302.0</ele><time>2026-04-09T08:59:59.543Z</time></trkpt><trkpt lat="46.0875188" lon="12.1273519"><ele>302.0</ele><time>2026-04-09T09:00:00.546Z</time></trkpt><trkpt lat="46.0876666" lon="12.1272221"><ele>300.0</ele><time>2026-04-09T09:00:01.549Z</time></trkpt><trkpt lat="46.0877997" lon="12.1270976"><ele>298.0</ele><time>2026-04-09T09:00:02.55Z</time></trkpt><trkpt lat="46.0880307" lon="12.1268614"><ele>296.0</ele><time>2026-04-09T09:00:04.538Z</time></trkpt><trkpt lat="46.0881246" lon="12.1267609"><ele>296.0</ele><time>2026-04-09T09:00:05.542Z</time></trkpt><trkpt lat="46.0882084" lon="12.1266811"><ele>296.0</ele><time>2026-04-09T09:00:06.549Z</time></trkpt><trkpt lat="46.0883111" lon="12.1265968"><ele>296.0</ele><time>2026-04-09T09:00:07.55Z</time></trkpt><trkpt lat="46.088452" lon="12.1265023"><ele>296.0</ele><time>2026-04-09T09:00:08.548Z</time></trkpt><trkpt lat="46.0885862" lon="12.1264069"><ele>295.5</ele><time>2026-04-09T09:00:09.755Z</time></trkpt><trkpt lat="46.0888664" lon="12.1262186"><ele>295.0</ele><time>2026-04-09T09:00:11.548Z</time></trkpt><trkpt lat="46.0890138" lon="12.1261273"><ele>294.75</ele><time>2026-04-09T09:00:12.551Z</time></trkpt><trkpt lat="46.0891616" lon="12.1260277"><ele>294.5</ele><time>2026-04-09T09:00:13.546Z</time></trkpt><trkpt lat="46.0892847" lon="12.1259156"><ele>294.25</ele><time>2026-04-09T09:00:14.549Z</time></trkpt><trkpt lat="46.0893905" lon="12.1257993"><ele>294.0</ele><time>2026-04-09T09:00:15.542Z</time></trkpt><trkpt lat="46.0894827" lon="12.1257002"><ele>293.8</ele><time>2026-04-09T09:00:16.545Z</time></trkpt><trkpt lat="46.0895734" lon="12.1256248"><ele>293.59999999999997</ele><time>2026-04-09T09:00:17.553Z</time></trkpt><trkpt lat="46.0896556" lon="12.1255442"><ele>293.4</ele><time>2026-04-09T09:00:18.537Z</time></trkpt><trkpt lat="46.0897414" lon="12.1254655"><ele>293.2</ele><time>2026-04-09T09:00:19.548Z</time></trkpt><trkpt lat="46.0898352" lon="12.1253697"><ele>293.0</ele><time>2026-04-09T09:00:20.54Z</time></trkpt><trkpt lat="46.0899156" lon="12.125306"><ele>292.8</ele><time>2026-04-09T09:00:21.539Z</time></trkpt><trkpt lat="46.0899784" lon="12.1252455"><ele>292.6</ele><time>2026-04-09T09:00:22.544Z</time></trkpt><trkpt lat="46.0900641" lon="12.1251411"><ele>292.4</ele><time>2026-04-09T09:00:24.541Z</time></trkpt><trkpt lat="46.090077" lon="12.125026"><ele>292.2</ele><time>2026-04-09T09:00:26.545Z</time></trkpt><trkpt lat="46.0900374" lon="12.1248686"><ele>292.0</ele><time>2026-04-09T09:00:28.543Z</time></trkpt><trkpt lat="46.089965" lon="12.1247072"><ele>291.8333333333333</ele><time>2026-04-09T09:00:30.54Z</time></trkpt><trkpt lat="46.0899328" lon="12.1246116"><ele>291.66666666666663</ele><time>2026-04-09T09:00:31.543Z</time></trkpt><trkpt lat="46.0898898" lon="12.1245112"><ele>291.5</ele><time>2026-04-09T09:00:32.536Z</time></trkpt><trkpt lat="46.0898382" lon="12.1243856"><ele>291.3333333333333</ele><time>2026-04-09T09:00:33.537Z</time></trkpt><trkpt lat="46.0897832" lon="12.1242619"><ele>291.1666666666667</ele><time>2026-04-09T09:00:34.553Z</time></trkpt><trkpt lat="46.0897405" lon="12.1241564"><ele>291.0</ele><time>2026-04-09T09:00:35.543Z</time></trkpt><trkpt lat="46.0897006" lon="12.1240494"><ele>291.0</ele><time>2026-04-09T09:00:36.55Z</time></trkpt><trkpt lat="46.0896618" lon="12.1239581"><ele>291.0</ele><time>2026-04-09T09:00:37.546Z</time></trkpt><trkpt lat="46.0896274" lon="12.1238587"><ele>291.0</ele><time>2026-04-09T09:00:38.54Z</time></trkpt><trkpt lat="46.089577" lon="12.1237755"><ele>291.0</ele><time>2026-04-09T09:00:39.555Z</time></trkpt><trkpt lat="46.0895117" lon="12.123676"><ele>291.0</ele><time>2026-04-09T09:00:40.541Z</time></trkpt><trkpt lat="46.089453" lon="12.123564"><ele>291.0</ele><time>2026-04-09T09:00:41.548Z</time></trkpt><trkpt lat="46.0893947" lon="12.1234748"><ele>291.0</ele><time>2026-04-09T09:00:42.552Z</time></trkpt><trkpt lat="46.0893517" lon="12.123383"><ele>291.0</ele><time>2026-04-09T09:00:43.544Z</time></trkpt><trkpt lat="46.0892932" lon="12.1232681"><ele>291.0</ele><time>2026-04-09T09:00:44.542Z</time></trkpt><trkpt lat="46.089227" lon="12.1231519"><ele>291.0</ele><time>2026-04-09T09:00:45.547Z</time></trkpt><trkpt lat="46.0891691" lon="12.1230565"><ele>291.0</ele><time>2026-04-09T09:00:46.538Z</time></trkpt><trkpt lat="46.0891094" lon="12.122947"><ele>291.3333333333333</ele><time>2026-04-09T09:00:47.544Z</time></trkpt><trkpt lat="46.0890605" lon="12.1228371"><ele>291.6666666666667</ele><time>2026-04-09T09:00:48.545Z</time></trkpt><trkpt lat="46.0890123" lon="12.1227258"><ele>292.0</ele><time>2026-04-09T09:00:49.548Z</time></trkpt><trkpt lat="46.0889837" lon="12.1226255"><ele>292.33333333333337</ele><time>2026-04-09T09:00:50.547Z</time></trkpt><trkpt lat="46.0889288" lon="12.1225334"><ele>292.6666666666667</ele><time>2026-04-09T09:00:53.543Z</time></trkpt><trkpt lat="46.0888437" lon="12.1225723"><ele>293.0</ele><time>2026-04-09T09:00:56.547Z</time></trkpt><trkpt lat="46.0887902" lon="12.1226254"><ele>293.0</ele><time>2026-04-09T09:00:57.566Z</time></trkpt><trkpt lat="46.0887017" lon="12.1227383"><ele>293.0</ele><time>2026-04-09T09:00:59.542Z</time></trkpt><trkpt lat="46.0886392" lon="12.1228147"><ele>293.0</ele><time>2026-04-09T09:01:00.543Z</time></trkpt><trkpt lat="46.0885832" lon="12.1228762"><ele>293.0</ele><time>2026-04-09T09:01:01.55Z</time></trkpt><trkpt lat="46.0884603" lon="12.1230039"><ele>293.0</ele><time>2026-04-09T09:01:03.553Z</time></trkpt><trkpt lat="46.0883833" lon="12.1231057"><ele>293.0</ele><time>2026-04-09T09:01:04.55Z</time></trkpt><trkpt lat="46.088291" lon="12.1231947"><ele>293.0</ele><time>2026-04-09T09:01:05.543Z</time></trkpt><trkpt lat="46.0882373" lon="12.1232616"><ele>293.0</ele><time>2026-04-09T09:01:06.545Z</time></trkpt><trkpt lat="46.0881554" lon="12.1233225"><ele>293.0</ele><time>2026-04-09T09:01:07.569Z</time></trkpt><trkpt lat="46.0880332" lon="12.1234194"><ele>293.0</ele><time>2026-04-09T09:01:09.599Z</time></trkpt><trkpt lat="46.0879732" lon="12.1234822"><ele>293.6666666666667</ele><time>2026-04-09T09:01:10.539Z</time></trkpt><trkpt lat="46.0879042" lon="12.1235595"><ele>294.33333333333337</ele><time>2026-04-09T09:01:11.567Z</time></trkpt><trkpt lat="46.0878369" lon="12.1236488"><ele>295.0</ele><time>2026-04-09T09:01:13.547Z</time></trkpt><trkpt lat="46.0877381" lon="12.1236012"><ele>295.6666666666667</ele><time>2026-04-09T09:01:16.551Z</time></trkpt><trkpt lat="46.0876629" lon="12.1235499"><ele>296.3333333333333</ele><time>2026-04-09T09:01:18.544Z</time></trkpt><trkpt lat="46.0876128" lon="12.1234858"><ele>297.0</ele><time>2026-04-09T09:01:20.54Z</time></trkpt><trkpt lat="46.0875489" lon="12.1234001"><ele>297.0</ele><time>2026-04-09T09:01:23.546Z</time></trkpt><trkpt lat="46.0874964" lon="12.1233024"><ele>297.0</ele><time>2026-04-09T09:01:25.536Z</time></trkpt><trkpt lat="46.0874569" lon="12.1232221"><ele>297.0</ele><time>2026-04-09T09:01:26.552Z</time></trkpt><trkpt lat="46.0874141" lon="12.1231026"><ele>297.0</ele><time>2026-04-09T09:01:28.536Z</time></trkpt><trkpt lat="46.0873968" lon="12.1230095"><ele>297.0</ele><time>2026-04-09T09:01:30.547Z</time></trkpt><trkpt lat="46.0874245" lon="12.1229029"><ele>297.0</ele><time>2026-04-09T09:01:33.539Z</time></trkpt><trkpt lat="46.0875277" lon="12.1227713"><ele>296.8333333333333</ele><time>2026-04-09T09:01:35.536Z</time></trkpt><trkpt lat="46.0875989" lon="12.1226832"><ele>296.6666666666667</ele><time>2026-04-09T09:01:36.534Z</time></trkpt><trkpt lat="46.0876936" lon="12.1225937"><ele>296.5</ele><time>2026-04-09T09:01:37.538Z</time></trkpt><trkpt lat="46.0877789" lon="12.1225249"><ele>296.33333333333337</ele><time>2026-04-09T09:01:38.545Z</time></trkpt><trkpt lat="46.087848" lon="12.1224653"><ele>296.1666666666667</ele><time>2026-04-09T09:01:39.549Z</time></trkpt><trkpt lat="46.0878964" lon="12.1224059"><ele>296.0</ele><time>2026-04-09T09:01:40.548Z</time></trkpt><trkpt lat="46.0879939" lon="12.1223228"><ele>296.0</ele><time>2026-04-09T09:01:42.557Z</time></trkpt><trkpt lat="46.0880548" lon="12.122266"><ele>296.0</ele><time>2026-04-09T09:01:44.543Z</time></trkpt><trkpt lat="46.0881155" lon="12.1222062"><ele>296.0</ele><time>2026-04-09T09:01:52.542Z</time></trkpt><trkpt lat="46.088171" lon="12.1221492"><ele>296.0</ele><time>2026-04-09T09:01:55.541Z</time></trkpt><trkpt lat="46.0882298" lon="12.1220734"><ele>296.0</ele><time>2026-04-09T09:01:57.557Z</time></trkpt><trkpt lat="46.0882382" lon="12.1219715"><ele>296.0</ele><time>2026-04-09T09:01:59.543Z</time></trkpt><trkpt lat="46.0881678" lon="12.1218456"><ele>296.0</ele><time>2026-04-09T09:02:01.539Z</time></trkpt><trkpt lat="46.0881218" lon="12.1216982"><ele>296.0</ele><time>2026-04-09T09:02:03.541Z</time></trkpt><trkpt lat="46.0881172" lon="12.1215533"><ele>296.0</ele><time>2026-04-09T09:02:05.567Z</time></trkpt><trkpt lat="46.0881118" lon="12.121374"><ele>296.0</ele><time>2026-04-09T09:02:07.551Z</time></trkpt><trkpt lat="46.0880855" lon="12.1212845"><ele>296.0</ele><time>2026-04-09T09:02:08.547Z</time></trkpt><trkpt lat="46.0880624" lon="12.1211955"><ele>296.0</ele><time>2026-04-09T09:02:09.54Z</time></trkpt><trkpt lat="46.0880152" lon="12.1210325"><ele>296.0</ele><time>2026-04-09T09:02:11.543Z</time></trkpt><trkpt lat="46.0879772" lon="12.1208824"><ele>296.0</ele><time>2026-04-09T09:02:12.556Z</time></trkpt><trkpt lat="46.0879293" lon="12.1207722"><ele>296.0</ele><time>2026-04-09T09:02:13.543Z</time></trkpt><trkpt lat="46.0878993" lon="12.1206619"><ele>296.0</ele><time>2026-04-09T09:02:14.551Z</time></trkpt><trkpt lat="46.0878599" lon="12.1205279"><ele>296.0</ele><time>2026-04-09T09:02:15.549Z</time></trkpt><trkpt lat="46.087813" lon="12.1203846"><ele>296.0</ele><time>2026-04-09T09:02:16.542Z</time></trkpt><trkpt lat="46.0877759" lon="12.1202819"><ele>296.0</ele><time>2026-04-09T09:02:17.558Z</time></trkpt><trkpt lat="46.0877435" lon="12.1201835"><ele>296.0</ele><time>2026-04-09T09:02:18.55Z</time></trkpt><trkpt lat="46.087717" lon="12.1200949"><ele>296.0</ele><time>2026-04-09T09:02:19.55Z</time></trkpt><trkpt lat="46.0876183" lon="12.1199869"><ele>296.25</ele><time>2026-04-09T09:02:21.537Z</time></trkpt><trkpt lat="46.087595" lon="12.1198086"><ele>296.5</ele><time>2026-04-09T09:02:23.546Z</time></trkpt><trkpt lat="46.0875583" lon="12.1196652"><ele>296.75</ele><time>2026-04-09T09:02:25.544Z</time></trkpt><trkpt lat="46.0874435" lon="12.1195479"><ele>297.0</ele><time>2026-04-09T09:02:27.544Z</time></trkpt><trkpt lat="46.0873782" lon="12.1194851"><ele>297.0</ele><time>2026-04-09T09:02:28.543Z</time></trkpt><trkpt lat="46.0873183" lon="12.1194342"><ele>297.0</ele><time>2026-04-09T09:02:29.545Z</time></trkpt><trkpt lat="46.0872022" lon="12.1193649"><ele>297.0</ele><time>2026-04-09T09:02:31.544Z</time></trkpt><trkpt lat="46.087137" lon="12.1193645"><ele>297.0</ele><time>2026-04-09T09:02:32.539Z</time></trkpt><trkpt lat="46.0870614" lon="12.1193599"><ele>297.0</ele><time>2026-04-09T09:02:34.546Z</time></trkpt><trkpt lat="46.0869984" lon="12.1193651"><ele>297.0</ele><time>2026-04-09T09:02:39.549Z</time></trkpt><trkpt lat="46.0869151" lon="12.119379"><ele>297.0</ele><time>2026-04-09T09:02:42.541Z</time></trkpt><trkpt lat="46.0868359" lon="12.1193797"><ele>297.0</ele><time>2026-04-09T09:02:44.553Z</time></trkpt><trkpt lat="46.086783" lon="12.119455"><ele>297.0</ele><time>2026-04-09T09:02:54.54Z</time></trkpt><trkpt lat="46.0866937" lon="12.1195171"><ele>297.0</ele><time>2026-04-09T09:02:56.545Z</time></trkpt><trkpt lat="46.0866333" lon="12.1195844"><ele>297.0</ele><time>2026-04-09T09:02:58.543Z</time></trkpt><trkpt lat="46.086511" lon="12.1195532"><ele>297.0</ele><time>2026-04-09T09:03:15.543Z</time></trkpt><trkpt lat="46.0864451" lon="12.1195818"><ele>297.0</ele><time>2026-04-09T09:03:19.551Z</time></trkpt><trkpt lat="46.0865185" lon="12.1195728"><ele>297.0</ele><time>2026-04-09T09:03:29.542Z</time></trkpt><trkpt lat="46.086594" lon="12.119603"><ele>297.0</ele><time>2026-04-09T09:03:31.541Z</time></trkpt><trkpt lat="46.0866951" lon="12.1195378"><ele>297.0</ele><time>2026-04-09T09:03:33.544Z</time></trkpt><trkpt lat="46.0867873" lon="12.1194351"><ele>297.0</ele><time>2026-04-09T09:03:35.55Z</time></trkpt><trkpt lat="46.0868641" lon="12.119365"><ele>297.0</ele><time>2026-04-09T09:03:37.54Z</time></trkpt><trkpt lat="46.0870248" lon="12.1193462"><ele>297.0</ele><time>2026-04-09T09:03:43.548Z</time></trkpt><trkpt lat="46.0871103" lon="12.1193444"><ele>297.0</ele><time>2026-04-09T09:03:45.539Z</time></trkpt><trkpt lat="46.0870092" lon="12.1193949"><ele>297.0</ele><time>2026-04-09T09:04:08.542Z</time></trkpt><trkpt lat="46.0869296" lon="12.1193051"><ele>297.0</ele><time>2026-04-09T09:04:12.549Z</time></trkpt><trkpt lat="46.0869263" lon="12.1191947"><ele>297.0</ele><time>2026-04-09T09:04:14.541Z</time></trkpt><trkpt lat="46.0870007" lon="12.1191583"><ele>297.0</ele><time>2026-04-09T09:04:15.54Z</time></trkpt><trkpt lat="46.087067" lon="12.1191466"><ele>297.0</ele><time>2026-04-09T09:04:16.543Z</time></trkpt><trkpt lat="46.0871287" lon="12.1191254"><ele>297.0</ele><time>2026-04-09T09:04:18.538Z</time></trkpt><trkpt lat="46.0871854" lon="12.1190668"><ele>297.0</ele><time>2026-04-09T09:04:44.539Z</time></trkpt><trkpt lat="46.0872179" lon="12.1189818"><ele>297.0</ele><time>2026-04-09T09:04:48.541Z</time></trkpt><trkpt lat="46.0872414" lon="12.1188767"><ele>296.8571428571429</ele><time>2026-04-09T09:04:52.543Z</time></trkpt><trkpt lat="46.0872163" lon="12.1187803"><ele>296.7142857142857</ele><time>2026-04-09T09:04:56.537Z</time></trkpt><trkpt lat="46.0871826" lon="12.1187022"><ele>296.57142857142856</ele><time>2026-04-09T09:04:58.538Z</time></trkpt><trkpt lat="46.0871632" lon="12.1186066"><ele>296.42857142857144</ele><time>2026-04-09T09:05:00.546Z</time></trkpt><trkpt lat="46.0871523" lon="12.1185005"><ele>296.2857142857143</ele><time>2026-04-09T09:05:02.539Z</time></trkpt><trkpt lat="46.0871496" lon="12.1184047"><ele>296.14285714285717</ele><time>2026-04-09T09:05:04.537Z</time></trkpt><trkpt lat="46.0871506" lon="12.1182775"><ele>296.0</ele><time>2026-04-09T09:05:07.529Z</time></trkpt><trkpt lat="46.087148" lon="12.1181629"><ele>295.83333333333337</ele><time>2026-04-09T09:05:09.535Z</time></trkpt><trkpt lat="46.0871001" lon="12.1180697"><ele>295.6666666666667</ele><time>2026-04-09T09:05:21.549Z</time></trkpt><trkpt lat="46.087064" lon="12.1179693"><ele>295.5</ele><time>2026-04-09T09:05:23.539Z</time></trkpt><trkpt lat="46.0870444" lon="12.1178485"><ele>295.3333333333333</ele><time>2026-04-09T09:05:26.536Z</time></trkpt><trkpt lat="46.0870249" lon="12.1177403"><ele>295.16666666666663</ele><time>2026-04-09T09:05:29.661Z</time></trkpt><trkpt lat="46.0870708" lon="12.1178081"><ele>295.0</ele><time>2026-04-09T09:05:32.548Z</time></trkpt><trkpt lat="46.0871214" lon="12.1176645"><ele>295.0</ele><time>2026-04-09T09:05:35.592Z</time></trkpt><trkpt lat="46.0871703" lon="12.1174653"><ele>295.0</ele><time>2026-04-09T09:05:37.537Z</time></trkpt><trkpt lat="46.0872137" lon="12.1173553"><ele>295.0</ele><time>2026-04-09T09:05:38.539Z</time></trkpt><trkpt lat="46.0872791" lon="12.1172397"><ele>295.0</ele><time>2026-04-09T09:05:40.545Z</time></trkpt><trkpt lat="46.0873372" lon="12.1171137"><ele>295.0</ele><time>2026-04-09T09:05:42.541Z</time></trkpt><trkpt lat="46.0873877" lon="12.1170371"><ele>295.0</ele><time>2026-04-09T09:05:43.541Z</time></trkpt><trkpt lat="46.0874597" lon="12.1168962"><ele>295.0</ele><time>2026-04-09T09:05:45.539Z</time></trkpt><trkpt lat="46.0875311" lon="12.1167428"><ele>295.0</ele><time>2026-04-09T09:05:47.538Z</time></trkpt><trkpt lat="46.0875971" lon="12.116668"><ele>295.0</ele><time>2026-04-09T09:05:48.542Z</time></trkpt><trkpt lat="46.0876538" lon="12.116606"><ele>295.0</ele><time>2026-04-09T09:05:49.548Z</time></trkpt><trkpt lat="46.0876988" lon="12.1164789"><ele>295.2</ele><time>2026-04-09T09:05:51.539Z</time></trkpt><trkpt lat="46.0877069" lon="12.1163697"><ele>295.4</ele><time>2026-04-09T09:05:52.537Z</time></trkpt><trkpt lat="46.0877161" lon="12.1162432"><ele>295.6</ele><time>2026-04-09T09:05:53.54Z</time></trkpt><trkpt lat="46.0877183" lon="12.1161096"><ele>295.8</ele><time>2026-04-09T09:05:54.541Z</time></trkpt><trkpt lat="46.0877069" lon="12.1159659"><ele>296.0</ele><time>2026-04-09T09:05:55.539Z</time></trkpt><trkpt lat="46.0876877" lon="12.1158303"><ele>296.0</ele><time>2026-04-09T09:05:56.543Z</time></trkpt><trkpt lat="46.0876609" lon="12.1157339"><ele>296.0</ele><time>2026-04-09T09:05:57.539Z</time></trkpt><trkpt lat="46.0876026" lon="12.1156119"><ele>296.0</ele><time>2026-04-09T09:05:59.539Z</time></trkpt><trkpt lat="46.087508" lon="12.1156068"><ele>296.0</ele><time>2026-04-09T09:06:02.543Z</time></trkpt><trkpt lat="46.0874547" lon="12.1156812"><ele>296.0</ele><time>2026-04-09T09:06:04.549Z</time></trkpt><trkpt lat="46.087422" lon="12.1158714"><ele>298.40000000000003</ele><time>2026-04-09T09:06:06.55Z</time></trkpt><trkpt lat="46.0873766" lon="12.1160079"><ele>300.8</ele><time>2026-04-09T09:06:08.54Z</time></trkpt><trkpt lat="46.0872687" lon="12.1160894"><ele>303.20000000000005</ele><time>2026-04-09T09:06:10.542Z</time></trkpt><trkpt lat="46.0871962" lon="12.1160991"><ele>305.6</ele><time>2026-04-09T09:06:11.553Z</time></trkpt><trkpt lat="46.0871106" lon="12.1160187"><ele>308.0</ele><time>2026-04-09T09:06:13.548Z</time></trkpt><trkpt lat="46.0870631" lon="12.1158821"><ele>308.0</ele><time>2026-04-09T09:06:15.55Z</time></trkpt><trkpt lat="46.0870983" lon="12.1157566"><ele>308.0</ele><time>2026-04-09T09:06:16.552Z</time></trkpt><trkpt lat="46.0871347" lon="12.1156675"><ele>308.0</ele><time>2026-04-09T09:06:17.546Z</time></trkpt><trkpt lat="46.0871422" lon="12.115492"><ele>308.0</ele><time>2026-04-09T09:06:19.543Z</time></trkpt><trkpt lat="46.0870975" lon="12.1153792"><ele>308.0</ele><time>2026-04-09T09:06:21.546Z</time></trkpt><trkpt lat="46.0869838" lon="12.1153538"><ele>308.0</ele><time>2026-04-09T09:06:37.548Z</time></trkpt><trkpt lat="46.0869078" lon="12.1153329"><ele>308.0</ele><time>2026-04-09T09:06:38.537Z</time></trkpt><trkpt lat="46.0868307" lon="12.1153098"><ele>308.0</ele><time>2026-04-09T09:06:39.543Z</time></trkpt><trkpt lat="46.08675" lon="12.115314"><ele>308.0</ele><time>2026-04-09T09:06:40.548Z</time></trkpt><trkpt lat="46.0866688" lon="12.1153008"><ele>308.0</ele><time>2026-04-09T09:06:41.545Z</time></trkpt><trkpt lat="46.0865906" lon="12.1152897"><ele>308.0</ele><time>2026-04-09T09:06:42.535Z</time></trkpt><trkpt lat="46.0864711" lon="12.1152892"><ele>307.8</ele><time>2026-04-09T09:06:44.555Z</time></trkpt><trkpt lat="46.0863503" lon="12.1152637"><ele>307.6</ele><time>2026-04-09T09:06:46.549Z</time></trkpt><trkpt lat="46.0862542" lon="12.1152385"><ele>307.4</ele><time>2026-04-09T09:06:48.54Z</time></trkpt><trkpt lat="46.0861437" lon="12.1151974"><ele>307.2</ele><time>2026-04-09T09:06:50.542Z</time></trkpt><trkpt lat="46.0860555" lon="12.1151805"><ele>307.0</ele><time>2026-04-09T09:06:52.547Z</time></trkpt><trkpt lat="46.0859723" lon="12.1151563"><ele>307.0</ele><time>2026-04-09T09:06:54.546Z</time></trkpt><trkpt lat="46.0858898" lon="12.1151214"><ele>307.0</ele><time>2026-04-09T09:06:57.538Z</time></trkpt><trkpt lat="46.0858195" lon="12.1150779"><ele>307.0</ele><time>2026-04-09T09:06:59.547Z</time></trkpt><trkpt lat="46.0857006" lon="12.1150121"><ele>307.0</ele><time>2026-04-09T09:07:01.536Z</time></trkpt><trkpt lat="46.0856314" lon="12.1149917"><ele>307.0</ele><time>2026-04-09T09:07:02.537Z</time></trkpt><trkpt lat="46.0855626" lon="12.1149752"><ele>307.0</ele><time>2026-04-09T09:07:03.535Z</time></trkpt><trkpt lat="46.0854489" lon="12.1149996"><ele>307.8</ele><time>2026-04-09T09:07:05.538Z</time></trkpt><trkpt lat="46.0853515" lon="12.1151045"><ele>308.6</ele><time>2026-04-09T09:07:07.537Z</time></trkpt><trkpt lat="46.0853018" lon="12.1152048"><ele>309.40000000000003</ele><time>2026-04-09T09:07:08.543Z</time></trkpt><trkpt lat="46.0852594" lon="12.1153112"><ele>310.2</ele><time>2026-04-09T09:07:09.538Z</time></trkpt><trkpt lat="46.0852203" lon="12.1154061"><ele>311.0</ele><time>2026-04-09T09:07:10.535Z</time></trkpt><trkpt lat="46.0851992" lon="12.1155229"><ele>311.0</ele><time>2026-04-09T09:07:11.535Z</time></trkpt><trkpt lat="46.0851815" lon="12.1156498"><ele>311.0</ele><time>2026-04-09T09:07:12.534Z</time></trkpt><trkpt lat="46.0851848" lon="12.1157717"><ele>311.0</ele><time>2026-04-09T09:07:13.538Z</time></trkpt><trkpt lat="46.0851511" lon="12.1158533"><ele>311.0</ele><time>2026-04-09T09:07:14.542Z</time></trkpt><trkpt lat="46.0851077" lon="12.1159301"><ele>311.0</ele><time>2026-04-09T09:07:15.534Z</time></trkpt><trkpt lat="46.0850471" lon="12.1159887"><ele>311.0</ele><time>2026-04-09T09:07:16.538Z</time></trkpt><trkpt lat="46.0849501" lon="12.1160342"><ele>312.5</ele><time>2026-04-09T09:07:17.537Z</time></trkpt><trkpt lat="46.0848563" lon="12.1160834"><ele>314.0</ele><time>2026-04-09T09:07:18.55Z</time></trkpt><trkpt lat="46.0847349" lon="12.1161213"><ele>315.5</ele><time>2026-04-09T09:07:19.548Z</time></trkpt><trkpt lat="46.0846081" lon="12.1161642"><ele>317.0</ele><time>2026-04-09T09:07:20.543Z</time></trkpt><trkpt lat="46.0844822" lon="12.1162176"><ele>317.0</ele><time>2026-04-09T09:07:21.541Z</time></trkpt><trkpt lat="46.084343" lon="12.1162503"><ele>317.0</ele><time>2026-04-09T09:07:22.545Z</time></trkpt><trkpt lat="46.0842321" lon="12.1162844"><ele>317.0</ele><time>2026-04-09T09:07:23.542Z</time></trkpt><trkpt lat="46.0841186" lon="12.1162971"><ele>317.0</ele><time>2026-04-09T09:07:24.546Z</time></trkpt><trkpt lat="46.0840457" lon="12.1163538"><ele>317.6666666666667</ele><time>2026-04-09T09:07:25.543Z</time></trkpt><trkpt lat="46.0839667" lon="12.116369"><ele>318.33333333333337</ele><time>2026-04-09T09:07:26.549Z</time></trkpt><trkpt lat="46.0838892" lon="12.1163803"><ele>319.0</ele><time>2026-04-09T09:07:27.53Z</time></trkpt><trkpt lat="46.0838218" lon="12.1163213"><ele>319.6666666666667</ele><time>2026-04-09T09:07:28.548Z</time></trkpt><trkpt lat="46.0837688" lon="12.1162567"><ele>320.3333333333333</ele><time>2026-04-09T09:07:29.549Z</time></trkpt><trkpt lat="46.0837037" lon="12.1161743"><ele>321.0</ele><time>2026-04-09T09:07:30.548Z</time></trkpt><trkpt lat="46.0836624" lon="12.1160495"><ele>321.0</ele><time>2026-04-09T09:07:31.54Z</time></trkpt><trkpt lat="46.0836209" lon="12.115923"><ele>321.0</ele><time>2026-04-09T09:07:32.546Z</time></trkpt><trkpt lat="46.0835914" lon="12.1157749"><ele>321.0</ele><time>2026-04-09T09:07:33.545Z</time></trkpt><trkpt lat="46.0835698" lon="12.1156162"><ele>321.0</ele><time>2026-04-09T09:07:34.547Z</time></trkpt><trkpt lat="46.0835451" lon="12.1154396"><ele>321.0</ele><time>2026-04-09T09:07:35.544Z</time></trkpt><trkpt lat="46.0835262" lon="12.1152726"><ele>322.0</ele><time>2026-04-09T09:07:36.546Z</time></trkpt><trkpt lat="46.083498" lon="12.1151026"><ele>323.0</ele><time>2026-04-09T09:07:37.735Z</time></trkpt><trkpt lat="46.0833955" lon="12.1147908"><ele>324.0</ele><time>2026-04-09T09:07:39.545Z</time></trkpt><trkpt lat="46.083334" lon="12.1146351"><ele>324.0</ele><time>2026-04-09T09:07:40.546Z</time></trkpt><trkpt lat="46.0832665" lon="12.1144728"><ele>324.0</ele><time>2026-04-09T09:07:41.539Z</time></trkpt><trkpt lat="46.0831875" lon="12.11434"><ele>324.0</ele><time>2026-04-09T09:07:42.543Z</time></trkpt><trkpt lat="46.083113" lon="12.1142089"><ele>324.0</ele><time>2026-04-09T09:07:43.543Z</time></trkpt><trkpt lat="46.0830315" lon="12.1141303"><ele>324.2</ele><time>2026-04-09T09:07:44.541Z</time></trkpt><trkpt lat="46.0829425" lon="12.114065"><ele>324.4</ele><time>2026-04-09T09:07:45.546Z</time></trkpt><trkpt lat="46.0828429" lon="12.1140232"><ele>324.6</ele><time>2026-04-09T09:07:46.545Z</time></trkpt><trkpt lat="46.0827365" lon="12.1139951"><ele>324.8</ele><time>2026-04-09T09:07:47.538Z</time></trkpt><trkpt lat="46.0826259" lon="12.1139819"><ele>325.0</ele><time>2026-04-09T09:07:48.537Z</time></trkpt><trkpt lat="46.0824751" lon="12.1140116"><ele>325.25</ele><time>2026-04-09T09:07:49.54Z</time></trkpt><trkpt lat="46.0823587" lon="12.1140171"><ele>325.5</ele><time>2026-04-09T09:07:50.539Z</time></trkpt><trkpt lat="46.0822396" lon="12.1140349"><ele>325.75</ele><time>2026-04-09T09:07:51.548Z</time></trkpt><trkpt lat="46.0821244" lon="12.1140496"><ele>326.0</ele><time>2026-04-09T09:07:52.54Z</time></trkpt><trkpt lat="46.0820177" lon="12.114044"><ele>326.0</ele><time>2026-04-09T09:07:53.54Z</time></trkpt><trkpt lat="46.0819142" lon="12.1140451"><ele>326.0</ele><time>2026-04-09T09:07:54.542Z</time></trkpt><trkpt lat="46.0818132" lon="12.1140221"><ele>326.0</ele><time>2026-04-09T09:07:55.537Z</time></trkpt><trkpt lat="46.0817109" lon="12.1140023"><ele>326.0</ele><time>2026-04-09T09:07:56.546Z</time></trkpt><trkpt lat="46.081602" lon="12.1139625"><ele>326.0</ele><time>2026-04-09T09:07:57.544Z</time></trkpt><trkpt lat="46.0815063" lon="12.1139344"><ele>326.8</ele><time>2026-04-09T09:07:58.548Z</time></trkpt><trkpt lat="46.0814077" lon="12.113923"><ele>327.6</ele><time>2026-04-09T09:07:59.545Z</time></trkpt><trkpt lat="46.0813088" lon="12.1139366"><ele>328.4</ele><time>2026-04-09T09:08:00.536Z</time></trkpt><trkpt lat="46.0812105" lon="12.1139649"><ele>329.2</ele><time>2026-04-09T09:08:01.54Z</time></trkpt><trkpt lat="46.0811125" lon="12.1140133"><ele>330.0</ele><time>2026-04-09T09:08:02.538Z</time></trkpt><trkpt lat="46.0810167" lon="12.1140607"><ele>329.25</ele><time>2026-04-09T09:08:03.547Z</time></trkpt><trkpt lat="46.0809113" lon="12.1141128"><ele>328.5</ele><time>2026-04-09T09:08:04.547Z</time></trkpt><trkpt lat="46.080801" lon="12.1141486"><ele>327.75</ele><time>2026-04-09T09:08:05.548Z</time></trkpt><trkpt lat="46.0806866" lon="12.1141796"><ele>327.0</ele><time>2026-04-09T09:08:06.529Z</time></trkpt><trkpt lat="46.0805565" lon="12.1141955"><ele>326.5</ele><time>2026-04-09T09:08:07.538Z</time></trkpt><trkpt lat="46.0804272" lon="12.1142208"><ele>326.0</ele><time>2026-04-09T09:08:08.549Z</time></trkpt><trkpt lat="46.0802842" lon="12.1142394"><ele>325.5</ele><time>2026-04-09T09:08:09.548Z</time></trkpt><trkpt lat="46.0801398" lon="12.1142793"><ele>325.0</ele><time>2026-04-09T09:08:10.55Z</time></trkpt><trkpt lat="46.0799942" lon="12.1143379"><ele>326.0</ele><time>2026-04-09T09:08:11.545Z</time></trkpt><trkpt lat="46.0798538" lon="12.1144204"><ele>327.0</ele><time>2026-04-09T09:08:12.544Z</time></trkpt><trkpt lat="46.0797217" lon="12.1145132"><ele>328.0</ele><time>2026-04-09T09:08:13.544Z</time></trkpt><trkpt lat="46.0796021" lon="12.1146123"><ele>329.0</ele><time>2026-04-09T09:08:14.541Z</time></trkpt><trkpt lat="46.0794928" lon="12.1146968"><ele>329.0</ele><time>2026-04-09T09:08:15.55Z</time></trkpt><trkpt lat="46.0793944" lon="12.1147588"><ele>329.0</ele><time>2026-04-09T09:08:16.547Z</time></trkpt><trkpt lat="46.0793028" lon="12.1148088"><ele>329.0</ele><time>2026-04-09T09:08:17.542Z</time></trkpt><trkpt lat="46.0792117" lon="12.1148498"><ele>329.0</ele><time>2026-04-09T09:08:18.545Z</time></trkpt><trkpt lat="46.0791244" lon="12.114885"><ele>329.0</ele><time>2026-04-09T09:08:19.553Z</time></trkpt><trkpt lat="46.0790358" lon="12.1149135"><ele>329.0</ele><time>2026-04-09T09:08:20.542Z</time></trkpt><trkpt lat="46.0789519" lon="12.1149473"><ele>329.0</ele><time>2026-04-09T09:08:21.543Z</time></trkpt><trkpt lat="46.0788849" lon="12.1149661"><ele>329.0</ele><time>2026-04-09T09:08:22.54Z</time></trkpt><trkpt lat="46.0787793" lon="12.114981"><ele>329.0</ele><time>2026-04-09T09:08:24.542Z</time></trkpt><trkpt lat="46.0787148" lon="12.1149447"><ele>329.0</ele><time>2026-04-09T09:08:26.539Z</time></trkpt><trkpt lat="46.078649" lon="12.1149248"><ele>329.0</ele><time>2026-04-09T09:08:27.546Z</time></trkpt><trkpt lat="46.0785823" lon="12.114875"><ele>329.33333333333337</ele><time>2026-04-09T09:08:28.547Z</time></trkpt><trkpt lat="46.0785102" lon="12.1148351"><ele>329.6666666666667</ele><time>2026-04-09T09:08:29.547Z</time></trkpt><trkpt lat="46.0784519" lon="12.1147683"><ele>330.0</ele><time>2026-04-09T09:08:30.546Z</time></trkpt><trkpt lat="46.0783754" lon="12.114662"><ele>330.3333333333333</ele><time>2026-04-09T09:08:32.549Z</time></trkpt><trkpt lat="46.0783093" lon="12.114565"><ele>330.66666666666663</ele><time>2026-04-09T09:08:35.536Z</time></trkpt><trkpt lat="46.0782476" lon="12.1144672"><ele>331.0</ele><time>2026-04-09T09:08:37.543Z</time></trkpt><trkpt lat="46.0782113" lon="12.1143912"><ele>331.66666666666663</ele><time>2026-04-09T09:08:38.547Z</time></trkpt><trkpt lat="46.0781504" lon="12.1143198"><ele>332.3333333333333</ele><time>2026-04-09T09:08:39.547Z</time></trkpt><trkpt lat="46.0780904" lon="12.1142485"><ele>333.0</ele><time>2026-04-09T09:08:40.541Z</time></trkpt><trkpt lat="46.0780255" lon="12.1141585"><ele>333.6666666666667</ele><time>2026-04-09T09:08:41.554Z</time></trkpt><trkpt lat="46.0779583" lon="12.1140621"><ele>334.33333333333337</ele><time>2026-04-09T09:08:42.546Z</time></trkpt><trkpt lat="46.0778821" lon="12.1139663"><ele>335.0</ele><time>2026-04-09T09:08:43.542Z</time></trkpt><trkpt lat="46.0778157" lon="12.1138844"><ele>335.0</ele><time>2026-04-09T09:08:44.548Z</time></trkpt><trkpt lat="46.0777673" lon="12.1138145"><ele>335.0</ele><time>2026-04-09T09:08:45.546Z</time></trkpt><trkpt lat="46.0776931" lon="12.1137363"><ele>335.0</ele><time>2026-04-09T09:08:47.538Z</time></trkpt><trkpt lat="46.0775847" lon="12.1137414"><ele>335.0</ele><time>2026-04-09T09:08:50.553Z</time></trkpt><trkpt lat="46.0774489" lon="12.1137543"><ele>335.0</ele><time>2026-04-09T09:08:52.541Z</time></trkpt><trkpt lat="46.0773506" lon="12.113708"><ele>335.0</ele><time>2026-04-09T09:08:54.535Z</time></trkpt><trkpt lat="46.0772952" lon="12.1136514"><ele>335.0</ele><time>2026-04-09T09:08:55.537Z</time></trkpt><trkpt lat="46.077239" lon="12.1135789"><ele>335.0</ele><time>2026-04-09T09:08:56.536Z</time></trkpt><trkpt lat="46.0771789" lon="12.1134924"><ele>335.0</ele><time>2026-04-09T09:08:57.539Z</time></trkpt><trkpt lat="46.0771323" lon="12.1133731"><ele>335.0</ele><time>2026-04-09T09:08:58.532Z</time></trkpt><trkpt lat="46.0770896" lon="12.1132522"><ele>335.0</ele><time>2026-04-09T09:08:59.538Z</time></trkpt><trkpt lat="46.0770468" lon="12.1131147"><ele>335.6666666666667</ele><time>2026-04-09T09:09:00.534Z</time></trkpt><trkpt lat="46.0770032" lon="12.1129778"><ele>336.33333333333337</ele><time>2026-04-09T09:09:01.538Z</time></trkpt><trkpt lat="46.0769578" lon="12.1128441"><ele>337.0</ele><time>2026-04-09T09:09:02.535Z</time></trkpt><trkpt lat="46.076916" lon="12.1127257"><ele>337.6666666666667</ele><time>2026-04-09T09:09:03.548Z</time></trkpt><trkpt lat="46.0768811" lon="12.1126277"><ele>338.3333333333333</ele><time>2026-04-09T09:09:04.539Z</time></trkpt><trkpt lat="46.0768485" lon="12.112542"><ele>339.0</ele><time>2026-04-09T09:09:05.537Z</time></trkpt><trkpt lat="46.076822" lon="12.1124513"><ele>338.6666666666667</ele><time>2026-04-09T09:09:06.55Z</time></trkpt><trkpt lat="46.0767816" lon="12.1123628"><ele>338.3333333333333</ele><time>2026-04-09T09:09:07.537Z</time></trkpt><trkpt lat="46.0767386" lon="12.112268"><ele>338.0</ele><time>2026-04-09T09:09:08.548Z</time></trkpt><trkpt lat="46.0766934" lon="12.1121788"><ele>337.66666666666663</ele><time>2026-04-09T09:09:09.538Z</time></trkpt><trkpt lat="46.0766473" lon="12.1120948"><ele>337.3333333333333</ele><time>2026-04-09T09:09:10.529Z</time></trkpt><trkpt lat="46.0765788" lon="12.1120286"><ele>337.0</ele><time>2026-04-09T09:09:11.546Z</time></trkpt><trkpt lat="46.0765002" lon="12.1119924"><ele>337.0</ele><time>2026-04-09T09:09:12.538Z</time></trkpt><trkpt lat="46.0764245" lon="12.1119445"><ele>337.0</ele><time>2026-04-09T09:09:13.546Z</time></trkpt><trkpt lat="46.0763539" lon="12.1119021"><ele>337.0</ele><time>2026-04-09T09:09:14.546Z</time></trkpt><trkpt lat="46.0762818" lon="12.1118667"><ele>337.0</ele><time>2026-04-09T09:09:15.538Z</time></trkpt><trkpt lat="46.0762352" lon="12.1117918"><ele>337.0</ele><time>2026-04-09T09:09:16.543Z</time></trkpt><trkpt lat="46.0761711" lon="12.1117293"><ele>337.0</ele><time>2026-04-09T09:09:17.542Z</time></trkpt><trkpt lat="46.0761109" lon="12.1116473"><ele>337.0</ele><time>2026-04-09T09:09:18.537Z</time></trkpt><trkpt lat="46.0760537" lon="12.1115533"><ele>337.0</ele><time>2026-04-09T09:09:19.534Z</time></trkpt><trkpt lat="46.0759954" lon="12.1114664"><ele>337.0</ele><time>2026-04-09T09:09:20.534Z</time></trkpt><trkpt lat="46.0759431" lon="12.1113589"><ele>337.0</ele><time>2026-04-09T09:09:21.539Z</time></trkpt><trkpt lat="46.0758936" lon="12.1112535"><ele>337.0</ele><time>2026-04-09T09:09:22.538Z</time></trkpt><trkpt lat="46.0758538" lon="12.1111471"><ele>337.0</ele><time>2026-04-09T09:09:23.541Z</time></trkpt><trkpt lat="46.0758147" lon="12.1110391"><ele>337.0</ele><time>2026-04-09T09:09:24.537Z</time></trkpt><trkpt lat="46.0757832" lon="12.1109137"><ele>337.0</ele><time>2026-04-09T09:09:25.54Z</time></trkpt><trkpt lat="46.0757411" lon="12.1107778"><ele>337.0</ele><time>2026-04-09T09:09:26.549Z</time></trkpt><trkpt lat="46.0756986" lon="12.110611"><ele>337.0</ele><time>2026-04-09T09:09:27.539Z</time></trkpt><trkpt lat="46.0756452" lon="12.1104648"><ele>337.0</ele><time>2026-04-09T09:09:28.549Z</time></trkpt><trkpt lat="46.0755869" lon="12.1103132"><ele>336.5</ele><time>2026-04-09T09:09:29.55Z</time></trkpt><trkpt lat="46.0755241" lon="12.1101775"><ele>336.0</ele><time>2026-04-09T09:09:30.539Z</time></trkpt><trkpt lat="46.0754559" lon="12.1100405"><ele>335.5</ele><time>2026-04-09T09:09:31.549Z</time></trkpt><trkpt lat="46.0753882" lon="12.109895"><ele>335.0</ele><time>2026-04-09T09:09:32.547Z</time></trkpt><trkpt lat="46.0753088" lon="12.109764"><ele>335.0</ele><time>2026-04-09T09:09:33.55Z</time></trkpt><trkpt lat="46.075227" lon="12.1096301"><ele>335.0</ele><time>2026-04-09T09:09:34.537Z</time></trkpt><trkpt lat="46.0751474" lon="12.1094949"><ele>335.0</ele><time>2026-04-09T09:09:35.537Z</time></trkpt><trkpt lat="46.0750687" lon="12.1093708"><ele>335.0</ele><time>2026-04-09T09:09:36.53Z</time></trkpt><trkpt lat="46.074991" lon="12.1092436"><ele>334.75</ele><time>2026-04-09T09:09:37.542Z</time></trkpt><trkpt lat="46.0748889" lon="12.1091198"><ele>334.5</ele><time>2026-04-09T09:09:38.545Z</time></trkpt><trkpt lat="46.074778" lon="12.1089975"><ele>334.25</ele><time>2026-04-09T09:09:39.548Z</time></trkpt><trkpt lat="46.0746689" lon="12.1088856"><ele>334.0</ele><time>2026-04-09T09:09:40.547Z</time></trkpt><trkpt lat="46.0745674" lon="12.1087621"><ele>334.0</ele><time>2026-04-09T09:09:41.551Z</time></trkpt><trkpt lat="46.074456" lon="12.1086371"><ele>334.0</ele><time>2026-04-09T09:09:42.545Z</time></trkpt><trkpt lat="46.0743766" lon="12.1085245"><ele>334.0</ele><time>2026-04-09T09:09:43.545Z</time></trkpt><trkpt lat="46.0742843" lon="12.1084162"><ele>334.0</ele><time>2026-04-09T09:09:44.544Z</time></trkpt><trkpt lat="46.0742127" lon="12.1083319"><ele>334.0</ele><time>2026-04-09T09:09:45.548Z</time></trkpt><trkpt lat="46.0741548" lon="12.1082514"><ele>334.0</ele><time>2026-04-09T09:09:46.541Z</time></trkpt><trkpt lat="46.0740921" lon="12.1081509"><ele>334.0</ele><time>2026-04-09T09:09:47.541Z</time></trkpt><trkpt lat="46.0740282" lon="12.1080292"><ele>334.0</ele><time>2026-04-09T09:09:48.536Z</time></trkpt><trkpt lat="46.0739671" lon="12.1078871"><ele>334.0</ele><time>2026-04-09T09:09:49.538Z</time></trkpt><trkpt lat="46.0739161" lon="12.1077168"><ele>334.0</ele><time>2026-04-09T09:09:50.539Z</time></trkpt><trkpt lat="46.0738746" lon="12.1075302"><ele>334.0</ele><time>2026-04-09T09:09:51.536Z</time></trkpt><trkpt lat="46.0738281" lon="12.1073285"><ele>334.0</ele><time>2026-04-09T09:09:52.533Z</time></trkpt><trkpt lat="46.0737916" lon="12.1071727"><ele>334.0</ele><time>2026-04-09T09:09:53.541Z</time></trkpt><trkpt lat="46.073777" lon="12.1070714"><ele>334.3333333333333</ele><time>2026-04-09T09:09:54.541Z</time></trkpt><trkpt lat="46.0737138" lon="12.1070741"><ele>334.66666666666663</ele><time>2026-04-09T09:09:58.539Z</time></trkpt><trkpt lat="46.0736479" lon="12.1071043"><ele>335.0</ele><time>2026-04-09T09:10:00.552Z</time></trkpt><trkpt lat="46.0735577" lon="12.1071469"><ele>335.3333333333333</ele><time>2026-04-09T09:10:02.548Z</time></trkpt><trkpt lat="46.0734475" lon="12.1071833"><ele>335.6666666666667</ele><time>2026-04-09T09:10:04.55Z</time></trkpt><trkpt lat="46.073376" lon="12.1072116"><ele>336.0</ele><time>2026-04-09T09:10:05.543Z</time></trkpt><trkpt lat="46.073248" lon="12.1072646"><ele>335.0</ele><time>2026-04-09T09:10:07.537Z</time></trkpt><trkpt lat="46.0731855" lon="12.107279"><ele>334.0</ele><time>2026-04-09T09:10:08.545Z</time></trkpt><trkpt lat="46.0730709" lon="12.1073082"><ele>333.0</ele><time>2026-04-09T09:10:10.541Z</time></trkpt><trkpt lat="46.0729733" lon="12.107373"><ele>332.0</ele><time>2026-04-09T09:10:12.541Z</time></trkpt><trkpt lat="46.0729083" lon="12.1073731"><ele>331.0</ele><time>2026-04-09T09:10:13.539Z</time></trkpt><trkpt lat="46.072798" lon="12.1074014"><ele>331.4</ele><time>2026-04-09T09:10:15.541Z</time></trkpt><trkpt lat="46.0727351" lon="12.1074172"><ele>331.8</ele><time>2026-04-09T09:10:16.538Z</time></trkpt><trkpt lat="46.0726" lon="12.1074495"><ele>332.2</ele><time>2026-04-09T09:10:18.542Z</time></trkpt><trkpt lat="46.0725377" lon="12.1074627"><ele>332.59999999999997</ele><time>2026-04-09T09:10:19.537Z</time></trkpt><trkpt lat="46.0724171" lon="12.1074861"><ele>333.0</ele><time>2026-04-09T09:10:21.542Z</time></trkpt><trkpt lat="46.0723209" lon="12.1074918"><ele>333.59999999999997</ele><time>2026-04-09T09:10:23.538Z</time></trkpt><trkpt lat="46.0722533" lon="12.1074846"><ele>334.2</ele><time>2026-04-09T09:10:25.542Z</time></trkpt><trkpt lat="46.0721639" lon="12.1075396"><ele>334.8</ele><time>2026-04-09T09:10:28.542Z</time></trkpt><trkpt lat="46.0721007" lon="12.1077233"><ele>335.4</ele><time>2026-04-09T09:10:30.542Z</time></trkpt><trkpt lat="46.0720608" lon="12.1078458"><ele>336.0</ele><time>2026-04-09T09:10:31.546Z</time></trkpt><trkpt lat="46.0720154" lon="12.1080206"><ele>336.0</ele><time>2026-04-09T09:10:32.548Z</time></trkpt><trkpt lat="46.0719626" lon="12.1081966"><ele>336.0</ele><time>2026-04-09T09:10:33.535Z</time></trkpt><trkpt lat="46.0719361" lon="12.1083417"><ele>336.0</ele><time>2026-04-09T09:10:34.535Z</time></trkpt><trkpt lat="46.0719006" lon="12.1084706"><ele>336.0</ele><time>2026-04-09T09:10:35.54Z</time></trkpt><trkpt lat="46.0718436" lon="12.108542"><ele>336.0</ele><time>2026-04-09T09:10:37.54Z</time></trkpt><trkpt lat="46.071778" lon="12.1084629"><ele>335.5</ele><time>2026-04-09T09:10:40.54Z</time></trkpt><trkpt lat="46.0717229" lon="12.108393"><ele>335.0</ele><time>2026-04-09T09:10:41.549Z</time></trkpt><trkpt lat="46.0716677" lon="12.1082936"><ele>334.5</ele><time>2026-04-09T09:10:42.537Z</time></trkpt><trkpt lat="46.0715919" lon="12.1081795"><ele>334.0</ele><time>2026-04-09T09:10:44.541Z</time></trkpt><trkpt lat="46.0715653" lon="12.1080936"><ele>333.5</ele><time>2026-04-09T09:10:49.581Z</time></trkpt><trkpt lat="46.0715253" lon="12.107976"><ele>333.0</ele><time>2026-04-09T09:10:53.539Z</time></trkpt><trkpt lat="46.0714949" lon="12.1077876"><ele>333.0</ele><time>2026-04-09T09:10:55.54Z</time></trkpt><trkpt lat="46.0714682" lon="12.1076585"><ele>333.0</ele><time>2026-04-09T09:10:56.538Z</time></trkpt><trkpt lat="46.0714267" lon="12.1075274"><ele>333.0</ele><time>2026-04-09T09:10:57.539Z</time></trkpt><trkpt lat="46.0713783" lon="12.1073993"><ele>333.0</ele><time>2026-04-09T09:10:58.536Z</time></trkpt><trkpt lat="46.0713294" lon="12.1072763"><ele>333.0</ele><time>2026-04-09T09:10:59.526Z</time></trkpt><trkpt lat="46.071276" lon="12.1071489"><ele>333.59999999999997</ele><time>2026-04-09T09:11:00.538Z</time></trkpt><trkpt lat="46.0712151" lon="12.1070084"><ele>334.2</ele><time>2026-04-09T09:11:01.539Z</time></trkpt><trkpt lat="46.071147" lon="12.1068638"><ele>334.8</ele><time>2026-04-09T09:11:02.551Z</time></trkpt><trkpt lat="46.0711202" lon="12.1067134"><ele>335.4</ele><time>2026-04-09T09:11:03.535Z</time></trkpt><trkpt lat="46.0710763" lon="12.1065905"><ele>336.0</ele><time>2026-04-09T09:11:04.534Z</time></trkpt><trkpt lat="46.0710463" lon="12.1064627"><ele>336.0</ele><time>2026-04-09T09:11:05.536Z</time></trkpt><trkpt lat="46.0709994" lon="12.1063467"><ele>336.0</ele><time>2026-04-09T09:11:06.539Z</time></trkpt><trkpt lat="46.0709672" lon="12.1062168"><ele>336.0</ele><time>2026-04-09T09:11:07.548Z</time></trkpt><trkpt lat="46.0709253" lon="12.1060778"><ele>336.0</ele><time>2026-04-09T09:11:08.543Z</time></trkpt><trkpt lat="46.0708802" lon="12.1059351"><ele>336.0</ele><time>2026-04-09T09:11:09.545Z</time></trkpt><trkpt lat="46.0708249" lon="12.1057823"><ele>335.75</ele><time>2026-04-09T09:11:10.548Z</time></trkpt><trkpt lat="46.0707693" lon="12.10563"><ele>335.5</ele><time>2026-04-09T09:11:11.54Z</time></trkpt><trkpt lat="46.0707188" lon="12.1054912"><ele>335.25</ele><time>2026-04-09T09:11:12.547Z</time></trkpt><trkpt lat="46.0706654" lon="12.1053534"><ele>335.0</ele><time>2026-04-09T09:11:13.542Z</time></trkpt><trkpt lat="46.0706165" lon="12.1052041"><ele>335.0</ele><time>2026-04-09T09:11:14.546Z</time></trkpt><trkpt lat="46.0705552" lon="12.1050402"><ele>335.0</ele><time>2026-04-09T09:11:15.539Z</time></trkpt><trkpt lat="46.070483" lon="12.1048638"><ele>335.0</ele><time>2026-04-09T09:11:16.54Z</time></trkpt><trkpt lat="46.0704096" lon="12.1046854"><ele>335.0</ele><time>2026-04-09T09:11:17.54Z</time></trkpt><trkpt lat="46.0703387" lon="12.1044994"><ele>335.0</ele><time>2026-04-09T09:11:18.547Z</time></trkpt><trkpt lat="46.0702624" lon="12.1043048"><ele>335.0</ele><time>2026-04-09T09:11:19.547Z</time></trkpt><trkpt lat="46.0701815" lon="12.104122"><ele>335.0</ele><time>2026-04-09T09:11:20.545Z</time></trkpt><trkpt lat="46.0701173" lon="12.1039348"><ele>334.75</ele><time>2026-04-09T09:11:21.533Z</time></trkpt><trkpt lat="46.0700341" lon="12.1037709"><ele>334.5</ele><time>2026-04-09T09:11:22.548Z</time></trkpt><trkpt lat="46.0699686" lon="12.1036101"><ele>334.25</ele><time>2026-04-09T09:11:23.551Z</time></trkpt><trkpt lat="46.0699096" lon="12.1034348"><ele>334.0</ele><time>2026-04-09T09:11:24.541Z</time></trkpt><trkpt lat="46.0698581" lon="12.1032522"><ele>334.0</ele><time>2026-04-09T09:11:25.536Z</time></trkpt><trkpt lat="46.0697915" lon="12.1030503"><ele>334.0</ele><time>2026-04-09T09:11:26.538Z</time></trkpt><trkpt lat="46.0697392" lon="12.1028396"><ele>334.0</ele><time>2026-04-09T09:11:27.542Z</time></trkpt><trkpt lat="46.069677" lon="12.1026624"><ele>334.0</ele><time>2026-04-09T09:11:28.539Z</time></trkpt><trkpt lat="46.0696439" lon="12.1024883"><ele>334.2</ele><time>2026-04-09T09:11:29.543Z</time></trkpt><trkpt lat="46.0696304" lon="12.1023636"><ele>334.4</ele><time>2026-04-09T09:11:30.546Z</time></trkpt><trkpt lat="46.0696008" lon="12.1021945"><ele>334.6</ele><time>2026-04-09T09:11:32.538Z</time></trkpt><trkpt lat="46.0695684" lon="12.1020002"><ele>334.8</ele><time>2026-04-09T09:11:35.555Z</time></trkpt><trkpt lat="46.069541" lon="12.1018836"><ele>335.0</ele><time>2026-04-09T09:11:36.533Z</time></trkpt><trkpt lat="46.0695155" lon="12.1017529"><ele>335.0</ele><time>2026-04-09T09:11:37.543Z</time></trkpt><trkpt lat="46.069466" lon="12.1016306"><ele>335.0</ele><time>2026-04-09T09:11:38.536Z</time></trkpt><trkpt lat="46.0694066" lon="12.1014609"><ele>335.0</ele><time>2026-04-09T09:11:39.54Z</time></trkpt><trkpt lat="46.0693597" lon="12.1012763"><ele>335.0</ele><time>2026-04-09T09:11:40.537Z</time></trkpt><trkpt lat="46.0693058" lon="12.1010712"><ele>335.75</ele><time>2026-04-09T09:11:41.539Z</time></trkpt><trkpt lat="46.0692747" lon="12.1008754"><ele>336.5</ele><time>2026-04-09T09:11:42.541Z</time></trkpt><trkpt lat="46.0692492" lon="12.1006879"><ele>337.25</ele><time>2026-04-09T09:11:43.554Z</time></trkpt><trkpt lat="46.0692374" lon="12.1005164"><ele>338.0</ele><time>2026-04-09T09:11:44.541Z</time></trkpt><trkpt lat="46.069236" lon="12.1003749"><ele>338.0</ele><time>2026-04-09T09:11:45.532Z</time></trkpt><trkpt lat="46.06925" lon="12.1002315"><ele>338.0</ele><time>2026-04-09T09:11:46.537Z</time></trkpt><trkpt lat="46.0692637" lon="12.1000836"><ele>338.0</ele><time>2026-04-09T09:11:47.534Z</time></trkpt><trkpt lat="46.06928" lon="12.09994"><ele>338.0</ele><time>2026-04-09T09:11:48.535Z</time></trkpt><trkpt lat="46.069282" lon="12.0998278"><ele>338.0</ele><time>2026-04-09T09:11:49.539Z</time></trkpt><trkpt lat="46.0692942" lon="12.0997078"><ele>337.5</ele><time>2026-04-09T09:11:50.537Z</time></trkpt><trkpt lat="46.0692942" lon="12.0995795"><ele>337.0</ele><time>2026-04-09T09:11:51.546Z</time></trkpt><trkpt lat="46.0693153" lon="12.0994738"><ele>336.5</ele><time>2026-04-09T09:11:52.54Z</time></trkpt><trkpt lat="46.0693367" lon="12.0993863"><ele>336.0</ele><time>2026-04-09T09:11:53.536Z</time></trkpt><trkpt lat="46.0693339" lon="12.0992811"><ele>335.5</ele><time>2026-04-09T09:11:55.548Z</time></trkpt><trkpt lat="46.0692246" lon="12.0991937"><ele>335.0</ele><time>2026-04-09T09:11:57.543Z</time></trkpt><trkpt lat="46.0691045" lon="12.0991536"><ele>337.0</ele><time>2026-04-09T09:11:58.543Z</time></trkpt><trkpt lat="46.0689855" lon="12.0990726"><ele>339.0</ele><time>2026-04-09T09:11:59.534Z</time></trkpt><trkpt lat="46.0688734" lon="12.0989777"><ele>341.0</ele><time>2026-04-09T09:12:00.554Z</time></trkpt><trkpt lat="46.0687696" lon="12.0988266"><ele>343.0</ele><time>2026-04-09T09:12:01.537Z</time></trkpt><trkpt lat="46.0686759" lon="12.0986981"><ele>343.0</ele><time>2026-04-09T09:12:02.535Z</time></trkpt><trkpt lat="46.068597" lon="12.098592"><ele>343.0</ele><time>2026-04-09T09:12:03.548Z</time></trkpt><trkpt lat="46.0685173" lon="12.0985074"><ele>343.0</ele><time>2026-04-09T09:12:04.538Z</time></trkpt><trkpt lat="46.06846" lon="12.0984521"><ele>343.0</ele><time>2026-04-09T09:12:05.542Z</time></trkpt><trkpt lat="46.0683961" lon="12.0984084"><ele>343.0</ele><time>2026-04-09T09:12:06.54Z</time></trkpt><trkpt lat="46.0682907" lon="12.0983537"><ele>343.0</ele><time>2026-04-09T09:12:08.54Z</time></trkpt><trkpt lat="46.0681776" lon="12.0983069"><ele>343.0</ele><time>2026-04-09T09:12:10.548Z</time></trkpt><trkpt lat="46.0680791" lon="12.0981988"><ele>343.0</ele><time>2026-04-09T09:12:12.535Z</time></trkpt><trkpt lat="46.0679757" lon="12.0980507"><ele>343.0</ele><time>2026-04-09T09:12:14.546Z</time></trkpt><trkpt lat="46.0679246" lon="12.0979459"><ele>343.0</ele><time>2026-04-09T09:12:15.554Z</time></trkpt><trkpt lat="46.0678911" lon="12.0978422"><ele>343.0</ele><time>2026-04-09T09:12:16.547Z</time></trkpt><trkpt lat="46.0678648" lon="12.0977367"><ele>343.0</ele><time>2026-04-09T09:12:18.546Z</time></trkpt><trkpt lat="46.0678295" lon="12.0976337"><ele>343.0</ele><time>2026-04-09T09:12:20.555Z</time></trkpt><trkpt lat="46.0677858" lon="12.0975464"><ele>343.0</ele><time>2026-04-09T09:12:21.548Z</time></trkpt><trkpt lat="46.0677444" lon="12.0974296"><ele>343.0</ele><time>2026-04-09T09:12:22.539Z</time></trkpt><trkpt lat="46.0676923" lon="12.0973233"><ele>343.16666666666663</ele><time>2026-04-09T09:12:23.539Z</time></trkpt><trkpt lat="46.0676295" lon="12.0972092"><ele>343.3333333333333</ele><time>2026-04-09T09:12:24.546Z</time></trkpt><trkpt lat="46.0675777" lon="12.0970995"><ele>343.5</ele><time>2026-04-09T09:12:25.538Z</time></trkpt><trkpt lat="46.0675298" lon="12.0970016"><ele>343.6666666666667</ele><time>2026-04-09T09:12:26.549Z</time></trkpt><trkpt lat="46.0674862" lon="12.0969088"><ele>343.83333333333337</ele><time>2026-04-09T09:12:27.543Z</time></trkpt><trkpt lat="46.0674631" lon="12.096819"><ele>344.0</ele><time>2026-04-09T09:12:28.55Z</time></trkpt><trkpt lat="46.0674472" lon="12.09673"><ele>343.5</ele><time>2026-04-09T09:12:29.552Z</time></trkpt><trkpt lat="46.067441" lon="12.0966246"><ele>343.0</ele><time>2026-04-09T09:12:30.543Z</time></trkpt><trkpt lat="46.0674309" lon="12.0965118"><ele>342.5</ele><time>2026-04-09T09:12:31.545Z</time></trkpt><trkpt lat="46.0674118" lon="12.0963963"><ele>342.0</ele><time>2026-04-09T09:12:32.539Z</time></trkpt><trkpt lat="46.0673827" lon="12.0962828"><ele>341.5</ele><time>2026-04-09T09:12:33.537Z</time></trkpt><trkpt lat="46.0673452" lon="12.0961705"><ele>341.0</ele><time>2026-04-09T09:12:34.542Z</time></trkpt><trkpt lat="46.0673061" lon="12.0960449"><ele>341.0</ele><time>2026-04-09T09:12:35.539Z</time></trkpt><trkpt lat="46.0672623" lon="12.0959295"><ele>341.0</ele><time>2026-04-09T09:12:36.538Z</time></trkpt><trkpt lat="46.0672195" lon="12.0958111"><ele>341.0</ele><time>2026-04-09T09:12:37.537Z</time></trkpt><trkpt lat="46.0671788" lon="12.0956965"><ele>341.0</ele><time>2026-04-09T09:12:38.539Z</time></trkpt><trkpt lat="46.0671497" lon="12.0955738"><ele>341.0</ele><time>2026-04-09T09:12:39.548Z</time></trkpt><trkpt lat="46.0671304" lon="12.0954224"><ele>341.0</ele><time>2026-04-09T09:12:40.538Z</time></trkpt><trkpt lat="46.0670989" lon="12.0953001"><ele>341.0</ele><time>2026-04-09T09:12:41.547Z</time></trkpt><trkpt lat="46.067064" lon="12.0951854"><ele>341.0</ele><time>2026-04-09T09:12:42.546Z</time></trkpt><trkpt lat="46.0670205" lon="12.0950509"><ele>341.0</ele><time>2026-04-09T09:12:43.543Z</time></trkpt><trkpt lat="46.0669666" lon="12.0949117"><ele>341.0</ele><time>2026-04-09T09:12:44.539Z</time></trkpt><trkpt lat="46.0669403" lon="12.0947587"><ele>341.0</ele><time>2026-04-09T09:12:45.544Z</time></trkpt><trkpt lat="46.0669017" lon="12.0946218"><ele>341.0</ele><time>2026-04-09T09:12:46.546Z</time></trkpt><trkpt lat="46.0668939" lon="12.0944848"><ele>341.0</ele><time>2026-04-09T09:12:47.545Z</time></trkpt><trkpt lat="46.0668945" lon="12.0943775"><ele>341.0</ele><time>2026-04-09T09:12:48.542Z</time></trkpt><trkpt lat="46.0669546" lon="12.0942356"><ele>341.0</ele><time>2026-04-09T09:12:49.537Z</time></trkpt><trkpt lat="46.0670131" lon="12.0940999"><ele>340.0</ele><time>2026-04-09T09:12:50.542Z</time></trkpt><trkpt lat="46.0670407" lon="12.0939749"><ele>339.0</ele><time>2026-04-09T09:12:51.538Z</time></trkpt><trkpt lat="46.0670699" lon="12.0938466"><ele>338.0</ele><time>2026-04-09T09:12:52.539Z</time></trkpt><trkpt lat="46.0670986" lon="12.0937254"><ele>337.0</ele><time>2026-04-09T09:12:53.525Z</time></trkpt><trkpt lat="46.0670142" lon="12.0935945"><ele>336.0</ele><time>2026-04-09T09:12:54.541Z</time></trkpt><trkpt lat="46.0669611" lon="12.0934419"><ele>336.0</ele><time>2026-04-09T09:12:55.547Z</time></trkpt><trkpt lat="46.0669005" lon="12.0932998"><ele>336.0</ele><time>2026-04-09T09:12:56.541Z</time></trkpt><trkpt lat="46.0668464" lon="12.0931597"><ele>336.0</ele><time>2026-04-09T09:12:57.601Z</time></trkpt><trkpt lat="46.066786" lon="12.093025"><ele>336.0</ele><time>2026-04-09T09:12:58.547Z</time></trkpt><trkpt lat="46.0667346" lon="12.0928837"><ele>336.0</ele><time>2026-04-09T09:12:59.538Z</time></trkpt><trkpt lat="46.0666888" lon="12.092749"><ele>335.75</ele><time>2026-04-09T09:13:00.543Z</time></trkpt><trkpt lat="46.0666399" lon="12.0926114"><ele>335.5</ele><time>2026-04-09T09:13:01.556Z</time></trkpt><trkpt lat="46.0665969" lon="12.0924827"><ele>335.25</ele><time>2026-04-09T09:13:02.541Z</time></trkpt><trkpt lat="46.066523" lon="12.092278"><ele>335.0</ele><time>2026-04-09T09:13:04.534Z</time></trkpt><trkpt lat="46.0664637" lon="12.092173"><ele>333.5</ele><time>2026-04-09T09:13:05.537Z</time></trkpt><trkpt lat="46.0663919" lon="12.0920528"><ele>332.0</ele><time>2026-04-09T09:13:06.537Z</time></trkpt><trkpt lat="46.0663163" lon="12.0919239"><ele>330.5</ele><time>2026-04-09T09:13:07.542Z</time></trkpt><trkpt lat="46.0662441" lon="12.0917848"><ele>329.0</ele><time>2026-04-09T09:13:08.535Z</time></trkpt><trkpt lat="46.0661551" lon="12.0916677"><ele>328.25</ele><time>2026-04-09T09:13:09.536Z</time></trkpt><trkpt lat="46.0660766" lon="12.091544"><ele>327.5</ele><time>2026-04-09T09:13:10.534Z</time></trkpt><trkpt lat="46.0659869" lon="12.0913985"><ele>326.75</ele><time>2026-04-09T09:13:11.534Z</time></trkpt><trkpt lat="46.0658858" lon="12.0912483"><ele>326.0</ele><time>2026-04-09T09:13:12.54Z</time></trkpt><trkpt lat="46.0657655" lon="12.0910951"><ele>326.0</ele><time>2026-04-09T09:13:13.545Z</time></trkpt><trkpt lat="46.0656276" lon="12.0909421"><ele>326.0</ele><time>2026-04-09T09:13:14.534Z</time></trkpt><trkpt lat="46.0654796" lon="12.0907805"><ele>326.0</ele><time>2026-04-09T09:13:15.54Z</time></trkpt><trkpt lat="46.0653398" lon="12.0906131"><ele>324.0</ele><time>2026-04-09T09:13:16.543Z</time></trkpt><trkpt lat="46.0652024" lon="12.0904507"><ele>322.0</ele><time>2026-04-09T09:13:17.54Z</time></trkpt><trkpt lat="46.065088" lon="12.0902838"><ele>320.0</ele><time>2026-04-09T09:13:18.539Z</time></trkpt><trkpt lat="46.0649797" lon="12.0901061"><ele>320.0</ele><time>2026-04-09T09:13:19.547Z</time></trkpt><trkpt lat="46.0648814" lon="12.0899186"><ele>320.0</ele><time>2026-04-09T09:13:20.541Z</time></trkpt><trkpt lat="46.0648029" lon="12.0897256"><ele>320.0</ele><time>2026-04-09T09:13:21.538Z</time></trkpt><trkpt lat="46.064723" lon="12.0895438"><ele>320.0</ele><time>2026-04-09T09:13:22.54Z</time></trkpt><trkpt lat="46.0646382" lon="12.0893796"><ele>320.0</ele><time>2026-04-09T09:13:23.537Z</time></trkpt><trkpt lat="46.0645349" lon="12.0892381"><ele>320.0</ele><time>2026-04-09T09:13:24.535Z</time></trkpt><trkpt lat="46.0644399" lon="12.0891121"><ele>320.0</ele><time>2026-04-09T09:13:25.545Z</time></trkpt><trkpt lat="46.0643489" lon="12.0890015"><ele>320.0</ele><time>2026-04-09T09:13:26.542Z</time></trkpt><trkpt lat="46.0642539" lon="12.088896"><ele>320.0</ele><time>2026-04-09T09:13:27.536Z</time></trkpt><trkpt lat="46.0641745" lon="12.0888013"><ele>320.0</ele><time>2026-04-09T09:13:28.541Z</time></trkpt><trkpt lat="46.0641039" lon="12.0887152"><ele>320.0</ele><time>2026-04-09T09:13:29.536Z</time></trkpt><trkpt lat="46.0640456" lon="12.0886386"><ele>320.0</ele><time>2026-04-09T09:13:30.547Z</time></trkpt><trkpt lat="46.064003" lon="12.0885691"><ele>321.2</ele><time>2026-04-09T09:13:31.541Z</time></trkpt><trkpt lat="46.0639617" lon="12.088487"><ele>322.4</ele><time>2026-04-09T09:13:32.556Z</time></trkpt><trkpt lat="46.0639181" lon="12.0883655"><ele>323.6</ele><time>2026-04-09T09:13:33.538Z</time></trkpt><trkpt lat="46.0638887" lon="12.0881775"><ele>324.8</ele><time>2026-04-09T09:13:34.539Z</time></trkpt><trkpt lat="46.0638607" lon="12.0879988"><ele>326.0</ele><time>2026-04-09T09:13:35.538Z</time></trkpt><trkpt lat="46.0638243" lon="12.0878115"><ele>326.0</ele><time>2026-04-09T09:13:36.539Z</time></trkpt><trkpt lat="46.0637867" lon="12.0876176"><ele>326.0</ele><time>2026-04-09T09:13:37.539Z</time></trkpt><trkpt lat="46.06375" lon="12.0874493"><ele>326.0</ele><time>2026-04-09T09:13:38.55Z</time></trkpt><trkpt lat="46.0637123" lon="12.0872904"><ele>326.0</ele><time>2026-04-09T09:13:39.539Z</time></trkpt><trkpt lat="46.0636873" lon="12.0871371"><ele>326.0</ele><time>2026-04-09T09:13:40.542Z</time></trkpt><trkpt lat="46.0636577" lon="12.0869643"><ele>326.0</ele><time>2026-04-09T09:13:41.547Z</time></trkpt><trkpt lat="46.0636243" lon="12.0867816"><ele>326.0</ele><time>2026-04-09T09:13:42.546Z</time></trkpt><trkpt lat="46.0635529" lon="12.0864346"><ele>326.75</ele><time>2026-04-09T09:13:44.538Z</time></trkpt><trkpt lat="46.0635204" lon="12.0862677"><ele>327.5</ele><time>2026-04-09T09:13:45.537Z</time></trkpt><trkpt lat="46.0634813" lon="12.0860935"><ele>328.25</ele><time>2026-04-09T09:13:46.532Z</time></trkpt><trkpt lat="46.0634578" lon="12.0859263"><ele>329.0</ele><time>2026-04-09T09:13:47.548Z</time></trkpt><trkpt lat="46.0634169" lon="12.0857637"><ele>328.0</ele><time>2026-04-09T09:13:48.543Z</time></trkpt><trkpt lat="46.0633757" lon="12.0855723"><ele>327.0</ele><time>2026-04-09T09:13:49.533Z</time></trkpt><trkpt lat="46.0633266" lon="12.0853441"><ele>326.0</ele><time>2026-04-09T09:13:50.539Z</time></trkpt><trkpt lat="46.063271" lon="12.0851237"><ele>328.0</ele><time>2026-04-09T09:13:51.538Z</time></trkpt><trkpt lat="46.0632215" lon="12.0849077"><ele>330.0</ele><time>2026-04-09T09:13:52.541Z</time></trkpt><trkpt lat="46.0631777" lon="12.0846826"><ele>332.0</ele><time>2026-04-09T09:13:53.547Z</time></trkpt><trkpt lat="46.0631295" lon="12.0844927"><ele>332.0</ele><time>2026-04-09T09:13:54.535Z</time></trkpt><trkpt lat="46.0630836" lon="12.0843131"><ele>332.0</ele><time>2026-04-09T09:13:55.537Z</time></trkpt><trkpt lat="46.0630344" lon="12.0841432"><ele>332.0</ele><time>2026-04-09T09:13:56.542Z</time></trkpt><trkpt lat="46.0629875" lon="12.0840063"><ele>332.0</ele><time>2026-04-09T09:13:57.535Z</time></trkpt><trkpt lat="46.062939" lon="12.0838686"><ele>333.25</ele><time>2026-04-09T09:13:58.541Z</time></trkpt><trkpt lat="46.0628974" lon="12.0837159"><ele>334.5</ele><time>2026-04-09T09:13:59.536Z</time></trkpt><trkpt lat="46.0628449" lon="12.083569"><ele>335.75</ele><time>2026-04-09T09:14:00.543Z</time></trkpt><trkpt lat="46.0627894" lon="12.083424"><ele>337.0</ele><time>2026-04-09T09:14:01.547Z</time></trkpt><trkpt lat="46.0627515" lon="12.0832651"><ele>338.40000000000003</ele><time>2026-04-09T09:14:02.546Z</time></trkpt><trkpt lat="46.0626977" lon="12.0831333"><ele>339.8</ele><time>2026-04-09T09:14:03.537Z</time></trkpt><trkpt lat="46.06265" lon="12.0830052"><ele>341.2</ele><time>2026-04-09T09:14:04.538Z</time></trkpt><trkpt lat="46.0626027" lon="12.0828898"><ele>342.6</ele><time>2026-04-09T09:14:05.535Z</time></trkpt><trkpt lat="46.0625479" lon="12.0827858"><ele>344.0</ele><time>2026-04-09T09:14:06.534Z</time></trkpt><trkpt lat="46.0624986" lon="12.0826749"><ele>344.0</ele><time>2026-04-09T09:14:07.542Z</time></trkpt><trkpt lat="46.0624485" lon="12.0825711"><ele>344.0</ele><time>2026-04-09T09:14:08.536Z</time></trkpt><trkpt lat="46.0624014" lon="12.0824527"><ele>344.0</ele><time>2026-04-09T09:14:09.532Z</time></trkpt><trkpt lat="46.0623556" lon="12.0823363"><ele>344.0</ele><time>2026-04-09T09:14:10.534Z</time></trkpt><trkpt lat="46.0623033" lon="12.0822252"><ele>344.0</ele><time>2026-04-09T09:14:11.554Z</time></trkpt><trkpt lat="46.062261" lon="12.0821029"><ele>344.6666666666667</ele><time>2026-04-09T09:14:12.538Z</time></trkpt><trkpt lat="46.0622191" lon="12.0819793"><ele>345.33333333333337</ele><time>2026-04-09T09:14:13.533Z</time></trkpt><trkpt lat="46.0621702" lon="12.0818595"><ele>346.0</ele><time>2026-04-09T09:14:14.54Z</time></trkpt><trkpt lat="46.0621269" lon="12.0817528"><ele>346.6666666666667</ele><time>2026-04-09T09:14:15.538Z</time></trkpt><trkpt lat="46.062094" lon="12.0816361"><ele>347.3333333333333</ele><time>2026-04-09T09:14:16.543Z</time></trkpt><trkpt lat="46.0620653" lon="12.0815426"><ele>348.0</ele><time>2026-04-09T09:14:17.541Z</time></trkpt><trkpt lat="46.0620358" lon="12.0814235"><ele>348.0</ele><time>2026-04-09T09:14:18.54Z</time></trkpt><trkpt lat="46.0620066" lon="12.081318"><ele>348.0</ele><time>2026-04-09T09:14:19.539Z</time></trkpt><trkpt lat="46.061975" lon="12.081224"><ele>348.0</ele><time>2026-04-09T09:14:20.55Z</time></trkpt><trkpt lat="46.0619533" lon="12.0811078"><ele>348.0</ele><time>2026-04-09T09:14:21.544Z</time></trkpt><trkpt lat="46.06193" lon="12.0810107"><ele>348.0</ele><time>2026-04-09T09:14:22.538Z</time></trkpt><trkpt lat="46.061906" lon="12.0809004"><ele>348.0</ele><time>2026-04-09T09:14:23.538Z</time></trkpt><trkpt lat="46.0618782" lon="12.0807346"><ele>348.79999999999995</ele><time>2026-04-09T09:14:25.54Z</time></trkpt><trkpt lat="46.0618744" lon="12.0805827"><ele>349.6</ele><time>2026-04-09T09:14:27.525Z</time></trkpt><trkpt lat="46.0619036" lon="12.0805016"><ele>350.4</ele><time>2026-04-09T09:14:28.549Z</time></trkpt><trkpt lat="46.0619482" lon="12.0803411"><ele>351.20000000000005</ele><time>2026-04-09T09:14:30.542Z</time></trkpt><trkpt lat="46.0619687" lon="12.0802001"><ele>352.0</ele><time>2026-04-09T09:14:32.551Z</time></trkpt><trkpt lat="46.0619684" lon="12.0800949"><ele>351.8333333333333</ele><time>2026-04-09T09:14:34.549Z</time></trkpt><trkpt lat="46.0619707" lon="12.0799282"><ele>351.66666666666663</ele><time>2026-04-09T09:14:36.54Z</time></trkpt><trkpt lat="46.0619805" lon="12.0797918"><ele>351.5</ele><time>2026-04-09T09:14:38.534Z</time></trkpt><trkpt lat="46.0619754" lon="12.0796963"><ele>351.3333333333333</ele><time>2026-04-09T09:14:40.541Z</time></trkpt><trkpt lat="46.0619263" lon="12.0796193"><ele>351.1666666666667</ele><time>2026-04-09T09:14:43.543Z</time></trkpt><trkpt lat="46.0618357" lon="12.0795775"><ele>351.0</ele><time>2026-04-09T09:14:48.537Z</time></trkpt><trkpt lat="46.0617652" lon="12.07948"><ele>351.0</ele><time>2026-04-09T09:14:49.54Z</time></trkpt><trkpt lat="46.0617346" lon="12.0793821"><ele>351.0</ele><time>2026-04-09T09:14:50.541Z</time></trkpt><trkpt lat="46.0617115" lon="12.0792751"><ele>351.0</ele><time>2026-04-09T09:14:51.542Z</time></trkpt><trkpt lat="46.0616883" lon="12.0791474"><ele>351.0</ele><time>2026-04-09T09:14:52.537Z</time></trkpt><trkpt lat="46.0616818" lon="12.0789995"><ele>351.0</ele><time>2026-04-09T09:14:53.551Z</time></trkpt><trkpt lat="46.061701" lon="12.0788506"><ele>350.0</ele><time>2026-04-09T09:14:54.543Z</time></trkpt><trkpt lat="46.0617342" lon="12.0787068"><ele>349.0</ele><time>2026-04-09T09:14:55.551Z</time></trkpt><trkpt lat="46.0617573" lon="12.0785631"><ele>348.0</ele><time>2026-04-09T09:14:56.54Z</time></trkpt><trkpt lat="46.061755" lon="12.0784334"><ele>347.0</ele><time>2026-04-09T09:14:57.546Z</time></trkpt><trkpt lat="46.0617489" lon="12.0782896"><ele>346.0</ele><time>2026-04-09T09:14:58.542Z</time></trkpt><trkpt lat="46.06173" lon="12.0781363"><ele>345.20000000000005</ele><time>2026-04-09T09:14:59.544Z</time></trkpt><trkpt lat="46.0617131" lon="12.077979"><ele>344.40000000000003</ele><time>2026-04-09T09:15:00.547Z</time></trkpt><trkpt lat="46.0616942" lon="12.0778235"><ele>343.6</ele><time>2026-04-09T09:15:01.551Z</time></trkpt><trkpt lat="46.0616824" lon="12.0776728"><ele>342.8</ele><time>2026-04-09T09:15:02.544Z</time></trkpt><trkpt lat="46.0616906" lon="12.0775186"><ele>342.0</ele><time>2026-04-09T09:15:03.547Z</time></trkpt><trkpt lat="46.0616974" lon="12.0773587"><ele>341.0</ele><time>2026-04-09T09:15:04.543Z</time></trkpt><trkpt lat="46.061709" lon="12.0772068"><ele>340.0</ele><time>2026-04-09T09:15:05.655Z</time></trkpt><trkpt lat="46.0617769" lon="12.0768843"><ele>339.0</ele><time>2026-04-09T09:15:07.543Z</time></trkpt><trkpt lat="46.0618114" lon="12.0767113"><ele>337.5</ele><time>2026-04-09T09:15:08.54Z</time></trkpt><trkpt lat="46.0618511" lon="12.0765323"><ele>336.0</ele><time>2026-04-09T09:15:09.546Z</time></trkpt><trkpt lat="46.0618861" lon="12.0763216"><ele>334.5</ele><time>2026-04-09T09:15:10.558Z</time></trkpt><trkpt lat="46.0619385" lon="12.0761129"><ele>333.0</ele><time>2026-04-09T09:15:11.538Z</time></trkpt><trkpt lat="46.0619864" lon="12.0759198"><ele>331.5</ele><time>2026-04-09T09:15:12.542Z</time></trkpt><trkpt lat="46.0620461" lon="12.075746"><ele>330.0</ele><time>2026-04-09T09:15:13.549Z</time></trkpt><trkpt lat="46.0620864" lon="12.0755662"><ele>328.5</ele><time>2026-04-09T09:15:14.535Z</time></trkpt><trkpt lat="46.0621449" lon="12.0754573"><ele>327.0</ele><time>2026-04-09T09:15:15.536Z</time></trkpt><trkpt lat="46.0622838" lon="12.0752945"><ele>327.0</ele><time>2026-04-09T09:15:17.54Z</time></trkpt><trkpt lat="46.0623682" lon="12.0752591"><ele>327.0</ele><time>2026-04-09T09:15:18.542Z</time></trkpt><trkpt lat="46.0624491" lon="12.0752585"><ele>327.0</ele><time>2026-04-09T09:15:19.544Z</time></trkpt><trkpt lat="46.062526" lon="12.0752847"><ele>327.0</ele><time>2026-04-09T09:15:20.545Z</time></trkpt><trkpt lat="46.0625952" lon="12.0753195"><ele>327.0</ele><time>2026-04-09T09:15:21.54Z</time></trkpt><trkpt lat="46.0626668" lon="12.0753744"><ele>327.0</ele><time>2026-04-09T09:15:22.536Z</time></trkpt><trkpt lat="46.0627411" lon="12.0754193"><ele>326.3333333333333</ele><time>2026-04-09T09:15:23.546Z</time></trkpt><trkpt lat="46.0628152" lon="12.0754554"><ele>325.6666666666667</ele><time>2026-04-09T09:15:24.538Z</time></trkpt><trkpt lat="46.0628929" lon="12.0754797"><ele>325.0</ele><time>2026-04-09T09:15:25.548Z</time></trkpt><trkpt lat="46.0629656" lon="12.0755048"><ele>324.33333333333337</ele><time>2026-04-09T09:15:26.534Z</time></trkpt><trkpt lat="46.0629748" lon="12.075397"><ele>323.6666666666667</ele><time>2026-04-09T09:15:29.532Z</time></trkpt><trkpt lat="46.0628604" lon="12.0753979"><ele>323.0</ele><time>2026-04-09T09:15:31.544Z</time></trkpt><trkpt lat="46.0627788" lon="12.075368"><ele>323.0</ele><time>2026-04-09T09:15:32.537Z</time></trkpt><trkpt lat="46.0626913" lon="12.0753118"><ele>323.0</ele><time>2026-04-09T09:15:33.549Z</time></trkpt><trkpt lat="46.0625787" lon="12.0752537"><ele>323.0</ele><time>2026-04-09T09:15:34.542Z</time></trkpt><trkpt lat="46.0624651" lon="12.0752019"><ele>323.0</ele><time>2026-04-09T09:15:35.544Z</time></trkpt><trkpt lat="46.0623522" lon="12.0752144"><ele>323.0</ele><time>2026-04-09T09:15:36.536Z</time></trkpt><trkpt lat="46.0622643" lon="12.0752559"><ele>323.79999999999995</ele><time>2026-04-09T09:15:37.535Z</time></trkpt><trkpt lat="46.0621832" lon="12.0752835"><ele>324.6</ele><time>2026-04-09T09:15:38.533Z</time></trkpt><trkpt lat="46.0621028" lon="12.0753302"><ele>325.4</ele><time>2026-04-09T09:15:39.526Z</time></trkpt><trkpt lat="46.0620659" lon="12.0755274"><ele>326.20000000000005</ele><time>2026-04-09T09:15:40.554Z</time></trkpt><trkpt lat="46.0620174" lon="12.0756379"><ele>327.0</ele><time>2026-04-09T09:15:41.546Z</time></trkpt><trkpt lat="46.0619704" lon="12.075707"><ele>327.0</ele><time>2026-04-09T09:15:42.539Z</time></trkpt><trkpt lat="46.0619626" lon="12.0755746"><ele>327.0</ele><time>2026-04-09T09:15:49.535Z</time></trkpt><trkpt lat="46.0619851" lon="12.0754486"><ele>327.0</ele><time>2026-04-09T09:15:51.533Z</time></trkpt><trkpt lat="46.0620165" lon="12.0752522"><ele>327.0</ele><time>2026-04-09T09:15:53.545Z</time></trkpt><trkpt lat="46.0620327" lon="12.0751393"><ele>327.0</ele><time>2026-04-09T09:15:54.55Z</time></trkpt><trkpt lat="46.0620446" lon="12.0750321"><ele>325.0</ele><time>2026-04-09T09:15:55.527Z</time></trkpt><trkpt lat="46.0620363" lon="12.0748467"><ele>323.0</ele><time>2026-04-09T09:15:56.536Z</time></trkpt><trkpt lat="46.0619734" lon="12.0746211"><ele>321.0</ele><time>2026-04-09T09:15:57.546Z</time></trkpt><trkpt lat="46.0619229" lon="12.0744501"><ele>319.0</ele><time>2026-04-09T09:15:58.538Z</time></trkpt><trkpt lat="46.0619137" lon="12.0742816"><ele>319.0</ele><time>2026-04-09T09:15:59.538Z</time></trkpt><trkpt lat="46.0618679" lon="12.0741186"><ele>319.0</ele><time>2026-04-09T09:16:00.539Z</time></trkpt><trkpt lat="46.0618405" lon="12.073986"><ele>319.0</ele><time>2026-04-09T09:16:01.536Z</time></trkpt><trkpt lat="46.0618302" lon="12.0738542"><ele>319.0</ele><time>2026-04-09T09:16:02.554Z</time></trkpt><trkpt lat="46.0618094" lon="12.073733"><ele>319.0</ele><time>2026-04-09T09:16:03.556Z</time></trkpt><trkpt lat="46.0617754" lon="12.0735918"><ele>317.0</ele><time>2026-04-09T09:16:04.535Z</time></trkpt><trkpt lat="46.0617568" lon="12.0734122"><ele>315.0</ele><time>2026-04-09T09:16:05.535Z</time></trkpt><trkpt lat="46.0617277" lon="12.0732198"><ele>313.0</ele><time>2026-04-09T09:16:06.541Z</time></trkpt><trkpt lat="46.0616989" lon="12.0730388"><ele>311.0</ele><time>2026-04-09T09:16:07.538Z</time></trkpt><trkpt lat="46.0616738" lon="12.0728903"><ele>311.0</ele><time>2026-04-09T09:16:08.547Z</time></trkpt><trkpt lat="46.0616557" lon="12.0727797"><ele>311.0</ele><time>2026-04-09T09:16:09.546Z</time></trkpt><trkpt lat="46.0616331" lon="12.072668"><ele>311.0</ele><time>2026-04-09T09:16:11.536Z</time></trkpt><trkpt lat="46.0616065" lon="12.0725216"><ele>311.0</ele><time>2026-04-09T09:16:27.541Z</time></trkpt><trkpt lat="46.061585" lon="12.0723813"><ele>311.0</ele><time>2026-04-09T09:16:28.535Z</time></trkpt><trkpt lat="46.061545" lon="12.0722219"><ele>309.5</ele><time>2026-04-09T09:16:29.537Z</time></trkpt><trkpt lat="46.0615016" lon="12.0720466"><ele>308.0</ele><time>2026-04-09T09:16:30.546Z</time></trkpt><trkpt lat="46.0614505" lon="12.0718377"><ele>306.5</ele><time>2026-04-09T09:16:31.539Z</time></trkpt><trkpt lat="46.0613966" lon="12.0716526"><ele>305.0</ele><time>2026-04-09T09:16:32.538Z</time></trkpt><trkpt lat="46.0613468" lon="12.0714789"><ele>302.25</ele><time>2026-04-09T09:16:33.54Z</time></trkpt><trkpt lat="46.061296" lon="12.0713145"><ele>299.5</ele><time>2026-04-09T09:16:34.539Z</time></trkpt><trkpt lat="46.0612505" lon="12.0711381"><ele>296.75</ele><time>2026-04-09T09:16:35.547Z</time></trkpt><trkpt lat="46.0612172" lon="12.0709737"><ele>294.0</ele><time>2026-04-09T09:16:36.542Z</time></trkpt><trkpt lat="46.0612133" lon="12.0708248"><ele>291.0</ele><time>2026-04-09T09:16:37.556Z</time></trkpt><trkpt lat="46.0612606" lon="12.0706807"><ele>288.0</ele><time>2026-04-09T09:16:38.542Z</time></trkpt><trkpt lat="46.0613259" lon="12.0705129"><ele>285.0</ele><time>2026-04-09T09:16:39.543Z</time></trkpt><trkpt lat="46.0613936" lon="12.0703724"><ele>282.0</ele><time>2026-04-09T09:16:40.537Z</time></trkpt><trkpt lat="46.0614869" lon="12.0702475"><ele>282.0</ele><time>2026-04-09T09:16:41.54Z</time></trkpt><trkpt lat="46.0615763" lon="12.0701442"><ele>282.0</ele><time>2026-04-09T09:16:42.535Z</time></trkpt><trkpt lat="46.0616981" lon="12.070077"><ele>282.0</ele><time>2026-04-09T09:16:43.538Z</time></trkpt><trkpt lat="46.0618135" lon="12.0700142"><ele>282.0</ele><time>2026-04-09T09:16:44.544Z</time></trkpt><trkpt lat="46.0619113" lon="12.0699643"><ele>281.0</ele><time>2026-04-09T09:16:45.542Z</time></trkpt><trkpt lat="46.0619919" lon="12.0699095"><ele>280.0</ele><time>2026-04-09T09:16:46.54Z</time></trkpt><trkpt lat="46.0620419" lon="12.0698505"><ele>279.0</ele><time>2026-04-09T09:16:47.536Z</time></trkpt><trkpt lat="46.0620182" lon="12.0697199"><ele>278.0</ele><time>2026-04-09T09:16:49.533Z</time></trkpt><trkpt lat="46.0619681" lon="12.069659"><ele>277.0</ele><time>2026-04-09T09:16:50.546Z</time></trkpt><trkpt lat="46.0618852" lon="12.0696513"><ele>276.0</ele><time>2026-04-09T09:16:51.541Z</time></trkpt><trkpt lat="46.0617984" lon="12.0696725"><ele>276.0</ele><time>2026-04-09T09:16:52.679Z</time></trkpt><trkpt lat="46.0616024" lon="12.0698085"><ele>276.0</ele><time>2026-04-09T09:16:54.525Z</time></trkpt><trkpt lat="46.0614836" lon="12.069924"><ele>276.0</ele><time>2026-04-09T09:16:55.533Z</time></trkpt><trkpt lat="46.0613586" lon="12.0700076"><ele>277.2</ele><time>2026-04-09T09:16:56.543Z</time></trkpt><trkpt lat="46.0612565" lon="12.0700922"><ele>278.40000000000003</ele><time>2026-04-09T09:16:57.539Z</time></trkpt><trkpt lat="46.0611474" lon="12.0701445"><ele>279.6</ele><time>2026-04-09T09:16:58.536Z</time></trkpt><trkpt lat="46.0610432" lon="12.070137"><ele>280.8</ele><time>2026-04-09T09:16:59.534Z</time></trkpt><trkpt lat="46.0609442" lon="12.0701134"><ele>282.0</ele><time>2026-04-09T09:17:00.542Z</time></trkpt><trkpt lat="46.0608655" lon="12.0700387"><ele>282.0</ele><time>2026-04-09T09:17:01.536Z</time></trkpt><trkpt lat="46.0608105" lon="12.0699425"><ele>282.0</ele><time>2026-04-09T09:17:02.549Z</time></trkpt><trkpt lat="46.0607661" lon="12.0698262"><ele>282.0</ele><time>2026-04-09T09:17:03.548Z</time></trkpt><trkpt lat="46.0607381" lon="12.069691"><ele>282.0</ele><time>2026-04-09T09:17:04.564Z</time></trkpt><trkpt lat="46.0607121" lon="12.0695405"><ele>282.0</ele><time>2026-04-09T09:17:05.536Z</time></trkpt><trkpt lat="46.0607144" lon="12.0694004"><ele>280.25</ele><time>2026-04-09T09:17:06.535Z</time></trkpt><trkpt lat="46.0607224" lon="12.069251"><ele>278.5</ele><time>2026-04-09T09:17:07.542Z</time></trkpt><trkpt lat="46.0607429" lon="12.0690847"><ele>276.75</ele><time>2026-04-09T09:17:08.538Z</time></trkpt><trkpt lat="46.0607562" lon="12.0689038"><ele>275.0</ele><time>2026-04-09T09:17:09.535Z</time></trkpt><trkpt lat="46.0607763" lon="12.0687041"><ele>275.33333333333337</ele><time>2026-04-09T09:17:10.533Z</time></trkpt><trkpt lat="46.0607898" lon="12.0684822"><ele>275.6666666666667</ele><time>2026-04-09T09:17:11.538Z</time></trkpt><trkpt lat="46.0608063" lon="12.0682648"><ele>276.0</ele><time>2026-04-09T09:17:12.536Z</time></trkpt><trkpt lat="46.060819" lon="12.0680324"><ele>276.3333333333333</ele><time>2026-04-09T09:17:13.541Z</time></trkpt><trkpt lat="46.0608377" lon="12.0677907"><ele>276.66666666666663</ele><time>2026-04-09T09:17:14.539Z</time></trkpt><trkpt lat="46.0608507" lon="12.0675579"><ele>277.0</ele><time>2026-04-09T09:17:15.545Z</time></trkpt><trkpt lat="46.0608637" lon="12.0673257"><ele>277.0</ele><time>2026-04-09T09:17:16.547Z</time></trkpt><trkpt lat="46.0608709" lon="12.0671129"><ele>277.0</ele><time>2026-04-09T09:17:17.538Z</time></trkpt><trkpt lat="46.0608652" lon="12.0669269"><ele>277.0</ele><time>2026-04-09T09:17:18.537Z</time></trkpt><trkpt lat="46.0608359" lon="12.0667795"><ele>277.0</ele><time>2026-04-09T09:17:19.543Z</time></trkpt><trkpt lat="46.0607773" lon="12.0666446"><ele>278.5</ele><time>2026-04-09T09:17:20.54Z</time></trkpt><trkpt lat="46.0606853" lon="12.0665116"><ele>280.0</ele><time>2026-04-09T09:17:21.537Z</time></trkpt><trkpt lat="46.0605754" lon="12.0663866"><ele>281.5</ele><time>2026-04-09T09:17:22.539Z</time></trkpt><trkpt lat="46.0604524" lon="12.066247"><ele>283.0</ele><time>2026-04-09T09:17:23.537Z</time></trkpt><trkpt lat="46.0603298" lon="12.0661118"><ele>283.0</ele><time>2026-04-09T09:17:24.531Z</time></trkpt><trkpt lat="46.0602149" lon="12.066003"><ele>283.0</ele><time>2026-04-09T09:17:25.534Z</time></trkpt><trkpt lat="46.0600927" lon="12.0659677"><ele>283.0</ele><time>2026-04-09T09:17:26.536Z</time></trkpt><trkpt lat="46.0599575" lon="12.0659535"><ele>283.0</ele><time>2026-04-09T09:17:27.555Z</time></trkpt><trkpt lat="46.0598183" lon="12.0659484"><ele>284.75</ele><time>2026-04-09T09:17:28.54Z</time></trkpt><trkpt lat="46.0596821" lon="12.0659578"><ele>286.5</ele><time>2026-04-09T09:17:29.533Z</time></trkpt><trkpt lat="46.0595369" lon="12.0659993"><ele>288.25</ele><time>2026-04-09T09:17:30.537Z</time></trkpt><trkpt lat="46.059418" lon="12.0660016"><ele>290.0</ele><time>2026-04-09T09:17:31.544Z</time></trkpt><trkpt lat="46.0592967" lon="12.0659705"><ele>290.0</ele><time>2026-04-09T09:17:32.535Z</time></trkpt><trkpt lat="46.0591858" lon="12.0659352"><ele>290.0</ele><time>2026-04-09T09:17:33.544Z</time></trkpt><trkpt lat="46.0590858" lon="12.0658581"><ele>290.0</ele><time>2026-04-09T09:17:34.535Z</time></trkpt><trkpt lat="46.0589975" lon="12.0657669"><ele>290.0</ele><time>2026-04-09T09:17:35.536Z</time></trkpt><trkpt lat="46.0588901" lon="12.0656653"><ele>290.75</ele><time>2026-04-09T09:17:36.541Z</time></trkpt><trkpt lat="46.0587788" lon="12.0655524"><ele>291.5</ele><time>2026-04-09T09:17:37.534Z</time></trkpt><trkpt lat="46.0586611" lon="12.0654284"><ele>292.25</ele><time>2026-04-09T09:17:38.531Z</time></trkpt><trkpt lat="46.0585522" lon="12.0652956"><ele>293.0</ele><time>2026-04-09T09:17:39.543Z</time></trkpt><trkpt lat="46.058461" lon="12.0651263"><ele>293.0</ele><time>2026-04-09T09:17:40.538Z</time></trkpt><trkpt lat="46.058347" lon="12.06495"><ele>293.0</ele><time>2026-04-09T09:17:41.544Z</time></trkpt><trkpt lat="46.0582672" lon="12.064728"><ele>293.0</ele><time>2026-04-09T09:17:42.541Z</time></trkpt><trkpt lat="46.0581779" lon="12.0644976"><ele>293.0</ele><time>2026-04-09T09:17:43.546Z</time></trkpt><trkpt lat="46.058086" lon="12.0642824"><ele>293.0</ele><time>2026-04-09T09:17:44.541Z</time></trkpt><trkpt lat="46.0579936" lon="12.0640628"><ele>293.0</ele><time>2026-04-09T09:17:45.542Z</time></trkpt><trkpt lat="46.05789" lon="12.0638404"><ele>293.0</ele><time>2026-04-09T09:17:46.544Z</time></trkpt><trkpt lat="46.05779" lon="12.0636112"><ele>293.0</ele><time>2026-04-09T09:17:47.542Z</time></trkpt><trkpt lat="46.0576838" lon="12.0633914"><ele>293.0</ele><time>2026-04-09T09:17:48.55Z</time></trkpt><trkpt lat="46.0575872" lon="12.0631621"><ele>292.6666666666667</ele><time>2026-04-09T09:17:49.533Z</time></trkpt><trkpt lat="46.0575075" lon="12.0629239"><ele>292.3333333333333</ele><time>2026-04-09T09:17:50.537Z</time></trkpt><trkpt lat="46.0574446" lon="12.0626853"><ele>292.0</ele><time>2026-04-09T09:17:51.547Z</time></trkpt><trkpt lat="46.0574035" lon="12.0624318"><ele>292.66666666666663</ele><time>2026-04-09T09:17:52.545Z</time></trkpt><trkpt lat="46.0573469" lon="12.0621596"><ele>293.3333333333333</ele><time>2026-04-09T09:17:53.54Z</time></trkpt><trkpt lat="46.0572957" lon="12.0618905"><ele>294.0</ele><time>2026-04-09T09:17:54.548Z</time></trkpt><trkpt lat="46.0572359" lon="12.06162"><ele>293.3333333333333</ele><time>2026-04-09T09:17:55.536Z</time></trkpt><trkpt lat="46.0571771" lon="12.0613486"><ele>292.66666666666663</ele><time>2026-04-09T09:17:56.541Z</time></trkpt><trkpt lat="46.0571306" lon="12.0610743"><ele>292.0</ele><time>2026-04-09T09:17:57.535Z</time></trkpt><trkpt lat="46.0570791" lon="12.060818"><ele>292.3333333333333</ele><time>2026-04-09T09:17:58.535Z</time></trkpt><trkpt lat="46.0570316" lon="12.0605591"><ele>292.6666666666667</ele><time>2026-04-09T09:17:59.534Z</time></trkpt><trkpt lat="46.0569803" lon="12.0603344"><ele>293.0</ele><time>2026-04-09T09:18:00.54Z</time></trkpt><trkpt lat="46.0569089" lon="12.060124"><ele>293.0</ele><time>2026-04-09T09:18:01.54Z</time></trkpt><trkpt lat="46.0568372" lon="12.0599308"><ele>293.0</ele><time>2026-04-09T09:18:02.54Z</time></trkpt><trkpt lat="46.0567307" lon="12.059795"><ele>293.0</ele><time>2026-04-09T09:18:03.551Z</time></trkpt><trkpt lat="46.0566136" lon="12.0596689"><ele>293.0</ele><time>2026-04-09T09:18:04.534Z</time></trkpt><trkpt lat="46.0564667" lon="12.0595957"><ele>294.33333333333337</ele><time>2026-04-09T09:18:05.533Z</time></trkpt><trkpt lat="46.0563066" lon="12.0595473"><ele>295.6666666666667</ele><time>2026-04-09T09:18:06.547Z</time></trkpt><trkpt lat="46.0561531" lon="12.0594929"><ele>297.0</ele><time>2026-04-09T09:18:07.543Z</time></trkpt><trkpt lat="46.0559907" lon="12.0594145"><ele>297.0</ele><time>2026-04-09T09:18:08.539Z</time></trkpt><trkpt lat="46.0558445" lon="12.0593179"><ele>297.0</ele><time>2026-04-09T09:18:09.545Z</time></trkpt><trkpt lat="46.0557159" lon="12.05918"><ele>297.0</ele><time>2026-04-09T09:18:10.546Z</time></trkpt><trkpt lat="46.0555874" lon="12.059029"><ele>296.3333333333333</ele><time>2026-04-09T09:18:11.537Z</time></trkpt><trkpt lat="46.0554658" lon="12.0588452"><ele>295.66666666666663</ele><time>2026-04-09T09:18:12.536Z</time></trkpt><trkpt lat="46.0553607" lon="12.0586425"><ele>295.0</ele><time>2026-04-09T09:18:13.537Z</time></trkpt><trkpt lat="46.0552693" lon="12.0584022"><ele>295.0</ele><time>2026-04-09T09:18:14.536Z</time></trkpt><trkpt lat="46.0551629" lon="12.0581698"><ele>295.0</ele><time>2026-04-09T09:18:15.542Z</time></trkpt><trkpt lat="46.0550543" lon="12.0579352"><ele>295.0</ele><time>2026-04-09T09:18:16.542Z</time></trkpt><trkpt lat="46.054925" lon="12.057703"><ele>294.3333333333333</ele><time>2026-04-09T09:18:17.536Z</time></trkpt><trkpt lat="46.0548129" lon="12.0574823"><ele>293.6666666666667</ele><time>2026-04-09T09:18:18.536Z</time></trkpt><trkpt lat="46.0547001" lon="12.0572615"><ele>293.0</ele><time>2026-04-09T09:18:19.547Z</time></trkpt><trkpt lat="46.0545924" lon="12.0570536"><ele>293.0</ele><time>2026-04-09T09:18:20.541Z</time></trkpt><trkpt lat="46.0544973" lon="12.0568553"><ele>293.0</ele><time>2026-04-09T09:18:21.541Z</time></trkpt><trkpt lat="46.0544031" lon="12.0566667"><ele>293.0</ele><time>2026-04-09T09:18:22.539Z</time></trkpt><trkpt lat="46.0543191" lon="12.0564858"><ele>293.0</ele><time>2026-04-09T09:18:23.54Z</time></trkpt><trkpt lat="46.054237" lon="12.0563149"><ele>293.0</ele><time>2026-04-09T09:18:24.539Z</time></trkpt><trkpt lat="46.0541506" lon="12.0561416"><ele>293.0</ele><time>2026-04-09T09:18:25.537Z</time></trkpt><trkpt lat="46.0540596" lon="12.0559519"><ele>293.33333333333337</ele><time>2026-04-09T09:18:26.538Z</time></trkpt><trkpt lat="46.0539657" lon="12.0557347"><ele>293.6666666666667</ele><time>2026-04-09T09:18:27.545Z</time></trkpt><trkpt lat="46.0538651" lon="12.055527"><ele>294.0</ele><time>2026-04-09T09:18:28.542Z</time></trkpt><trkpt lat="46.0537541" lon="12.0553015"><ele>294.0</ele><time>2026-04-09T09:18:29.551Z</time></trkpt><trkpt lat="46.0536452" lon="12.0550791"><ele>294.0</ele><time>2026-04-09T09:18:30.538Z</time></trkpt><trkpt lat="46.0535283" lon="12.0548452"><ele>294.0</ele><time>2026-04-09T09:18:31.542Z</time></trkpt><trkpt lat="46.05341" lon="12.0546106"><ele>294.0</ele><time>2026-04-09T09:18:32.542Z</time></trkpt><trkpt lat="46.0532929" lon="12.0543923"><ele>294.0</ele><time>2026-04-09T09:18:33.538Z</time></trkpt><trkpt lat="46.0531876" lon="12.054183"><ele>294.0</ele><time>2026-04-09T09:18:34.544Z</time></trkpt><trkpt lat="46.0530789" lon="12.0539958"><ele>295.6666666666667</ele><time>2026-04-09T09:18:35.537Z</time></trkpt><trkpt lat="46.0529703" lon="12.0538265"><ele>297.33333333333337</ele><time>2026-04-09T09:18:36.534Z</time></trkpt><trkpt lat="46.0528577" lon="12.0536646"><ele>299.0</ele><time>2026-04-09T09:18:37.551Z</time></trkpt><trkpt lat="46.0527003" lon="12.0534923"><ele>299.0</ele><time>2026-04-09T09:18:38.535Z</time></trkpt><trkpt lat="46.0525659" lon="12.053321"><ele>299.0</ele><time>2026-04-09T09:18:39.538Z</time></trkpt><trkpt lat="46.0524357" lon="12.0531843"><ele>299.0</ele><time>2026-04-09T09:18:40.536Z</time></trkpt><trkpt lat="46.0523212" lon="12.0530428"><ele>298.75</ele><time>2026-04-09T09:18:41.536Z</time></trkpt><trkpt lat="46.052213" lon="12.052906"><ele>298.5</ele><time>2026-04-09T09:18:42.536Z</time></trkpt><trkpt lat="46.0521129" lon="12.0527628"><ele>298.25</ele><time>2026-04-09T09:18:43.536Z</time></trkpt><trkpt lat="46.0520208" lon="12.0525882"><ele>298.0</ele><time>2026-04-09T09:18:44.543Z</time></trkpt><trkpt lat="46.051935" lon="12.0523925"><ele>299.0</ele><time>2026-04-09T09:18:45.541Z</time></trkpt><trkpt lat="46.0518389" lon="12.0521777"><ele>300.0</ele><time>2026-04-09T09:18:46.535Z</time></trkpt><trkpt lat="46.0517464" lon="12.0519531"><ele>301.0</ele><time>2026-04-09T09:18:47.553Z</time></trkpt><trkpt lat="46.0516539" lon="12.05174"><ele>301.0</ele><time>2026-04-09T09:18:48.544Z</time></trkpt><trkpt lat="46.0515477" lon="12.0515285"><ele>301.0</ele><time>2026-04-09T09:18:49.536Z</time></trkpt><trkpt lat="46.0514341" lon="12.0513432"><ele>301.0</ele><time>2026-04-09T09:18:50.547Z</time></trkpt><trkpt lat="46.0513138" lon="12.0511693"><ele>301.0</ele><time>2026-04-09T09:18:51.539Z</time></trkpt><trkpt lat="46.0511443" lon="12.0510193"><ele>301.0</ele><time>2026-04-09T09:18:52.54Z</time></trkpt><trkpt lat="46.0509698" lon="12.0508867"><ele>301.0</ele><time>2026-04-09T09:18:53.532Z</time></trkpt><trkpt lat="46.0508063" lon="12.0507715"><ele>302.66666666666663</ele><time>2026-04-09T09:18:54.54Z</time></trkpt><trkpt lat="46.050632" lon="12.0506792"><ele>304.3333333333333</ele><time>2026-04-09T09:18:55.544Z</time></trkpt><trkpt lat="46.0504442" lon="12.0506284"><ele>306.0</ele><time>2026-04-09T09:18:56.534Z</time></trkpt><trkpt lat="46.0502569" lon="12.0505601"><ele>306.0</ele><time>2026-04-09T09:18:57.54Z</time></trkpt><trkpt lat="46.0500838" lon="12.0505133"><ele>306.0</ele><time>2026-04-09T09:18:58.537Z</time></trkpt><trkpt lat="46.0499352" lon="12.0504665"><ele>306.0</ele><time>2026-04-09T09:18:59.538Z</time></trkpt><trkpt lat="46.0497862" lon="12.0504193"><ele>304.5</ele><time>2026-04-09T09:19:00.617Z</time></trkpt><trkpt lat="46.0496845" lon="12.0503476"><ele>303.0</ele><time>2026-04-09T09:19:01.538Z</time></trkpt><trkpt lat="46.0495827" lon="12.0502472"><ele>301.5</ele><time>2026-04-09T09:19:02.541Z</time></trkpt><trkpt lat="46.0494958" lon="12.0501281"><ele>300.0</ele><time>2026-04-09T09:19:03.534Z</time></trkpt><trkpt lat="46.0494081" lon="12.0500007"><ele>299.8</ele><time>2026-04-09T09:19:04.536Z</time></trkpt><trkpt lat="46.0493248" lon="12.0498398"><ele>299.6</ele><time>2026-04-09T09:19:05.536Z</time></trkpt><trkpt lat="46.0492551" lon="12.0497011"><ele>299.4</ele><time>2026-04-09T09:19:06.543Z</time></trkpt><trkpt lat="46.0491983" lon="12.0495931"><ele>299.2</ele><time>2026-04-09T09:19:07.539Z</time></trkpt><trkpt lat="46.0491604" lon="12.04952"><ele>299.0</ele><time>2026-04-09T09:19:08.54Z</time></trkpt><trkpt lat="46.0491286" lon="12.0493679"><ele>299.0</ele><time>2026-04-09T09:19:10.543Z</time></trkpt><trkpt lat="46.0491342" lon="12.0492534"><ele>299.0</ele><time>2026-04-09T09:19:11.541Z</time></trkpt><trkpt lat="46.049166" lon="12.0490777"><ele>299.0</ele><time>2026-04-09T09:19:12.541Z</time></trkpt><trkpt lat="46.049205" lon="12.0488816"><ele>299.0</ele><time>2026-04-09T09:19:13.542Z</time></trkpt><trkpt lat="46.0492582" lon="12.0486612"><ele>298.33333333333337</ele><time>2026-04-09T09:19:14.546Z</time></trkpt><trkpt lat="46.0493099" lon="12.0484205"><ele>297.6666666666667</ele><time>2026-04-09T09:19:15.545Z</time></trkpt><trkpt lat="46.0493638" lon="12.048173"><ele>297.0</ele><time>2026-04-09T09:19:16.542Z</time></trkpt><trkpt lat="46.0494255" lon="12.0479027"><ele>296.0</ele><time>2026-04-09T09:19:17.546Z</time></trkpt><trkpt lat="46.0494926" lon="12.0476153"><ele>295.0</ele><time>2026-04-09T09:19:18.542Z</time></trkpt><trkpt lat="46.0495558" lon="12.0473359"><ele>294.0</ele><time>2026-04-09T09:19:19.537Z</time></trkpt><trkpt lat="46.0496021" lon="12.0470488"><ele>293.6666666666667</ele><time>2026-04-09T09:19:20.541Z</time></trkpt><trkpt lat="46.0496471" lon="12.0467686"><ele>293.33333333333337</ele><time>2026-04-09T09:19:21.529Z</time></trkpt><trkpt lat="46.0496853" lon="12.0464839"><ele>293.0</ele><time>2026-04-09T09:19:22.526Z</time></trkpt><trkpt lat="46.0497018" lon="12.0461948"><ele>292.33333333333337</ele><time>2026-04-09T09:19:23.544Z</time></trkpt><trkpt lat="46.0496937" lon="12.045914"><ele>291.6666666666667</ele><time>2026-04-09T09:19:24.539Z</time></trkpt><trkpt lat="46.0496928" lon="12.0456257"><ele>291.0</ele><time>2026-04-09T09:19:25.546Z</time></trkpt><trkpt lat="46.0497029" lon="12.0453504"><ele>290.3333333333333</ele><time>2026-04-09T09:19:26.54Z</time></trkpt><trkpt lat="46.0496932" lon="12.0450455"><ele>289.66666666666663</ele><time>2026-04-09T09:19:27.537Z</time></trkpt><trkpt lat="46.0496866" lon="12.0447423"><ele>289.0</ele><time>2026-04-09T09:19:28.546Z</time></trkpt><trkpt lat="46.0496731" lon="12.0444319"><ele>288.3333333333333</ele><time>2026-04-09T09:19:29.536Z</time></trkpt><trkpt lat="46.0496587" lon="12.0441545"><ele>287.6666666666667</ele><time>2026-04-09T09:19:30.535Z</time></trkpt><trkpt lat="46.0496419" lon="12.0438885"><ele>287.0</ele><time>2026-04-09T09:19:31.537Z</time></trkpt><trkpt lat="46.0496266" lon="12.0436327"><ele>285.6666666666667</ele><time>2026-04-09T09:19:32.538Z</time></trkpt><trkpt lat="46.0496081" lon="12.0433976"><ele>284.3333333333333</ele><time>2026-04-09T09:19:33.541Z</time></trkpt><trkpt lat="46.0495858" lon="12.0431666"><ele>283.0</ele><time>2026-04-09T09:19:34.535Z</time></trkpt><trkpt lat="46.0495468" lon="12.0429193"><ele>283.0</ele><time>2026-04-09T09:19:35.536Z</time></trkpt><trkpt lat="46.0495225" lon="12.0426765"><ele>283.0</ele><time>2026-04-09T09:19:36.531Z</time></trkpt><trkpt lat="46.0494845" lon="12.0424185"><ele>283.0</ele><time>2026-04-09T09:19:37.537Z</time></trkpt><trkpt lat="46.0494384" lon="12.0421668"><ele>283.66666666666663</ele><time>2026-04-09T09:19:38.538Z</time></trkpt><trkpt lat="46.0493865" lon="12.0419249"><ele>284.3333333333333</ele><time>2026-04-09T09:19:39.537Z</time></trkpt><trkpt lat="46.0493315" lon="12.0416842"><ele>285.0</ele><time>2026-04-09T09:19:40.538Z</time></trkpt><trkpt lat="46.0492666" lon="12.0414503"><ele>285.3333333333333</ele><time>2026-04-09T09:19:41.538Z</time></trkpt><trkpt lat="46.0492054" lon="12.0412093"><ele>285.66666666666663</ele><time>2026-04-09T09:19:42.546Z</time></trkpt><trkpt lat="46.0491523" lon="12.0409701"><ele>286.0</ele><time>2026-04-09T09:19:43.538Z</time></trkpt><trkpt lat="46.0490995" lon="12.0407371"><ele>284.75</ele><time>2026-04-09T09:19:44.542Z</time></trkpt><trkpt lat="46.0490511" lon="12.0405229"><ele>283.5</ele><time>2026-04-09T09:19:45.54Z</time></trkpt><trkpt lat="46.0490123" lon="12.0403236"><ele>282.25</ele><time>2026-04-09T09:19:46.541Z</time></trkpt><trkpt lat="46.0489739" lon="12.0401518"><ele>281.0</ele><time>2026-04-09T09:19:47.547Z</time></trkpt><trkpt lat="46.0489588" lon="12.039991"><ele>281.0</ele><time>2026-04-09T09:19:48.539Z</time></trkpt><trkpt lat="46.048959" lon="12.0398348"><ele>281.0</ele><time>2026-04-09T09:19:49.541Z</time></trkpt><trkpt lat="46.0489679" lon="12.0397045"><ele>281.0</ele><time>2026-04-09T09:19:50.537Z</time></trkpt><trkpt lat="46.0489717" lon="12.0395857"><ele>281.0</ele><time>2026-04-09T09:19:51.541Z</time></trkpt><trkpt lat="46.0489309" lon="12.0394161"><ele>281.0</ele><time>2026-04-09T09:19:53.547Z</time></trkpt><trkpt lat="46.0488426" lon="12.0393713"><ele>281.0</ele><time>2026-04-09T09:19:55.538Z</time></trkpt><trkpt lat="46.0487511" lon="12.0395013"><ele>281.0</ele><time>2026-04-09T09:19:57.537Z</time></trkpt><trkpt lat="46.0487129" lon="12.0395791"><ele>281.0</ele><time>2026-04-09T09:19:58.546Z</time></trkpt><trkpt lat="46.0487397" lon="12.0397065"><ele>281.0</ele><time>2026-04-09T09:19:59.542Z</time></trkpt><trkpt lat="46.0487958" lon="12.0398491"><ele>281.0</ele><time>2026-04-09T09:20:00.537Z</time></trkpt><trkpt lat="46.0488423" lon="12.0400018"><ele>281.0</ele><time>2026-04-09T09:20:01.537Z</time></trkpt><trkpt lat="46.048873" lon="12.0401531"><ele>281.0</ele><time>2026-04-09T09:20:02.533Z</time></trkpt><trkpt lat="46.0489099" lon="12.0403145"><ele>281.0</ele><time>2026-04-09T09:20:03.543Z</time></trkpt><trkpt lat="46.048943" lon="12.0404806"><ele>281.0</ele><time>2026-04-09T09:20:04.536Z</time></trkpt><trkpt lat="46.0489454" lon="12.0406395"><ele>281.0</ele><time>2026-04-09T09:20:05.546Z</time></trkpt><trkpt lat="46.0489904" lon="12.0407922"><ele>281.0</ele><time>2026-04-09T09:20:06.538Z</time></trkpt><trkpt lat="46.0490272" lon="12.0409485"><ele>281.0</ele><time>2026-04-09T09:20:07.537Z</time></trkpt><trkpt lat="46.0490628" lon="12.041118"><ele>281.0</ele><time>2026-04-09T09:20:08.537Z</time></trkpt><trkpt lat="46.049094" lon="12.0412996"><ele>282.0</ele><time>2026-04-09T09:20:09.548Z</time></trkpt><trkpt lat="46.049142" lon="12.0414966"><ele>283.0</ele><time>2026-04-09T09:20:10.545Z</time></trkpt><trkpt lat="46.0491839" lon="12.0416875"><ele>284.0</ele><time>2026-04-09T09:20:11.539Z</time></trkpt><trkpt lat="46.0492286" lon="12.0418706"><ele>285.0</ele><time>2026-04-09T09:20:12.536Z</time></trkpt><trkpt lat="46.0492642" lon="12.04205"><ele>285.0</ele><time>2026-04-09T09:20:13.536Z</time></trkpt><trkpt lat="46.0493088" lon="12.0422342"><ele>285.0</ele><time>2026-04-09T09:20:14.54Z</time></trkpt><trkpt lat="46.0493452" lon="12.042422"><ele>285.0</ele><time>2026-04-09T09:20:15.542Z</time></trkpt><trkpt lat="46.0493774" lon="12.0426198"><ele>285.0</ele><time>2026-04-09T09:20:16.543Z</time></trkpt><trkpt lat="46.0494104" lon="12.0428246"><ele>284.5</ele><time>2026-04-09T09:20:17.539Z</time></trkpt><trkpt lat="46.0494424" lon="12.0430146"><ele>284.0</ele><time>2026-04-09T09:20:18.538Z</time></trkpt><trkpt lat="46.049477" lon="12.0431824"><ele>283.5</ele><time>2026-04-09T09:20:19.542Z</time></trkpt><trkpt lat="46.0494931" lon="12.0433392"><ele>283.0</ele><time>2026-04-09T09:20:20.542Z</time></trkpt><trkpt lat="46.0495117" lon="12.0434866"><ele>283.0</ele><time>2026-04-09T09:20:21.538Z</time></trkpt><trkpt lat="46.0495214" lon="12.043623"><ele>283.0</ele><time>2026-04-09T09:20:22.537Z</time></trkpt><trkpt lat="46.0495324" lon="12.0437492"><ele>283.0</ele><time>2026-04-09T09:20:23.537Z</time></trkpt><trkpt lat="46.0495416" lon="12.0438552"><ele>283.0</ele><time>2026-04-09T09:20:24.537Z</time></trkpt><trkpt lat="46.0495552" lon="12.0439558"><ele>283.0</ele><time>2026-04-09T09:20:25.535Z</time></trkpt><trkpt lat="46.0495629" lon="12.0440914"><ele>283.0</ele><time>2026-04-09T09:20:27.536Z</time></trkpt><trkpt lat="46.0495678" lon="12.0442049"><ele>283.0</ele><time>2026-04-09T09:20:29.542Z</time></trkpt><trkpt lat="46.0495806" lon="12.0440367"><ele>283.0</ele><time>2026-04-09T09:20:49.536Z</time></trkpt><trkpt lat="46.049559" lon="12.0439273"><ele>283.0</ele><time>2026-04-09T09:20:51.523Z</time></trkpt><trkpt lat="46.0495372" lon="12.0438018"><ele>283.0</ele><time>2026-04-09T09:20:53.53Z</time></trkpt><trkpt lat="46.0495163" lon="12.0436505"><ele>283.0</ele><time>2026-04-09T09:20:55.535Z</time></trkpt><trkpt lat="46.0495089" lon="12.0434675"><ele>283.0</ele><time>2026-04-09T09:20:57.526Z</time></trkpt><trkpt lat="46.049498" lon="12.0433556"><ele>283.0</ele><time>2026-04-09T09:20:58.547Z</time></trkpt><trkpt lat="46.049483" lon="12.0432481"><ele>283.0</ele><time>2026-04-09T09:20:59.541Z</time></trkpt><trkpt lat="46.0494712" lon="12.0431304"><ele>283.0</ele><time>2026-04-09T09:21:00.544Z</time></trkpt><trkpt lat="46.0494507" lon="12.043"><ele>283.0</ele><time>2026-04-09T09:21:01.539Z</time></trkpt><trkpt lat="46.0494238" lon="12.0428605"><ele>283.0</ele><time>2026-04-09T09:21:02.536Z</time></trkpt><trkpt lat="46.0493857" lon="12.042709"><ele>283.0</ele><time>2026-04-09T09:21:03.533Z</time></trkpt><trkpt lat="46.0493588" lon="12.0425513"><ele>283.0</ele><time>2026-04-09T09:21:04.542Z</time></trkpt><trkpt lat="46.049325" lon="12.0423767"><ele>283.0</ele><time>2026-04-09T09:21:05.54Z</time></trkpt><trkpt lat="46.0492841" lon="12.0422034"><ele>283.0</ele><time>2026-04-09T09:21:06.538Z</time></trkpt><trkpt lat="46.0492523" lon="12.0420221"><ele>283.66666666666663</ele><time>2026-04-09T09:21:07.535Z</time></trkpt><trkpt lat="46.0492057" lon="12.0418537"><ele>284.3333333333333</ele><time>2026-04-09T09:21:08.678Z</time></trkpt><trkpt lat="46.0491263" lon="12.0415224"><ele>285.0</ele><time>2026-04-09T09:21:10.534Z</time></trkpt><trkpt lat="46.0490882" lon="12.0413647"><ele>284.0</ele><time>2026-04-09T09:21:11.55Z</time></trkpt><trkpt lat="46.0490467" lon="12.0412172"><ele>283.0</ele><time>2026-04-09T09:21:12.535Z</time></trkpt><trkpt lat="46.0490028" lon="12.0410676"><ele>282.0</ele><time>2026-04-09T09:21:13.539Z</time></trkpt><trkpt lat="46.048958" lon="12.0409073"><ele>281.0</ele><time>2026-04-09T09:21:14.55Z</time></trkpt><trkpt lat="46.0489162" lon="12.0407593"><ele>281.0</ele><time>2026-04-09T09:21:15.562Z</time></trkpt><trkpt lat="46.048878" lon="12.0406014"><ele>281.0</ele><time>2026-04-09T09:21:16.544Z</time></trkpt><trkpt lat="46.0488395" lon="12.040427"><ele>281.0</ele><time>2026-04-09T09:21:17.538Z</time></trkpt><trkpt lat="46.048816" lon="12.0402516"><ele>281.0</ele><time>2026-04-09T09:21:18.569Z</time></trkpt><trkpt lat="46.0487838" lon="12.0400866"><ele>281.0</ele><time>2026-04-09T09:21:19.542Z</time></trkpt><trkpt lat="46.0487505" lon="12.0399566"><ele>281.0</ele><time>2026-04-09T09:21:20.532Z</time></trkpt><trkpt lat="46.0487129" lon="12.039842"><ele>281.0</ele><time>2026-04-09T09:21:21.54Z</time></trkpt><trkpt lat="46.0486719" lon="12.0397544"><ele>281.0</ele><time>2026-04-09T09:21:22.537Z</time></trkpt><trkpt lat="46.0486193" lon="12.0396802"><ele>281.0</ele><time>2026-04-09T09:21:23.546Z</time></trkpt><trkpt lat="46.0485746" lon="12.0396053"><ele>281.0</ele><time>2026-04-09T09:21:24.534Z</time></trkpt><trkpt lat="46.0485308" lon="12.0395305"><ele>281.0</ele><time>2026-04-09T09:21:25.535Z</time></trkpt><trkpt lat="46.0485024" lon="12.0394367"><ele>281.0</ele><time>2026-04-09T09:21:26.539Z</time></trkpt><trkpt lat="46.0484793" lon="12.0393188"><ele>281.0</ele><time>2026-04-09T09:21:27.538Z</time></trkpt><trkpt lat="46.0484668" lon="12.0391844"><ele>281.0</ele><time>2026-04-09T09:21:28.534Z</time></trkpt><trkpt lat="46.0484695" lon="12.0390305"><ele>281.0</ele><time>2026-04-09T09:21:29.545Z</time></trkpt><trkpt lat="46.04847" lon="12.0388895"><ele>281.0</ele><time>2026-04-09T09:21:30.544Z</time></trkpt><trkpt lat="46.0484635" lon="12.0387631"><ele>281.0</ele><time>2026-04-09T09:21:31.531Z</time></trkpt><trkpt lat="46.0484302" lon="12.0386145"><ele>281.0</ele><time>2026-04-09T09:21:32.555Z</time></trkpt><trkpt lat="46.0483999" lon="12.0384508"><ele>281.0</ele><time>2026-04-09T09:21:33.548Z</time></trkpt><trkpt lat="46.048368" lon="12.038335"><ele>281.0</ele><time>2026-04-09T09:21:34.535Z</time></trkpt><trkpt lat="46.0483595" lon="12.0382398"><ele>281.6</ele><time>2026-04-09T09:21:35.552Z</time></trkpt><trkpt lat="46.0483555" lon="12.0381369"><ele>282.20000000000005</ele><time>2026-04-09T09:21:37.546Z</time></trkpt><trkpt lat="46.0483369" lon="12.0380029"><ele>282.79999999999995</ele><time>2026-04-09T09:21:39.542Z</time></trkpt><trkpt lat="46.0482991" lon="12.0378809"><ele>283.4</ele><time>2026-04-09T09:21:40.539Z</time></trkpt><trkpt lat="46.0482368" lon="12.0377393"><ele>284.0</ele><time>2026-04-09T09:21:41.54Z</time></trkpt><trkpt lat="46.0481713" lon="12.0375698"><ele>283.0</ele><time>2026-04-09T09:21:42.544Z</time></trkpt><trkpt lat="46.0480931" lon="12.0373754"><ele>282.0</ele><time>2026-04-09T09:21:43.539Z</time></trkpt><trkpt lat="46.0479946" lon="12.0371647"><ele>281.0</ele><time>2026-04-09T09:21:44.541Z</time></trkpt><trkpt lat="46.0478948" lon="12.0369388"><ele>281.0</ele><time>2026-04-09T09:21:45.527Z</time></trkpt><trkpt lat="46.0477853" lon="12.0367142"><ele>281.0</ele><time>2026-04-09T09:21:46.523Z</time></trkpt><trkpt lat="46.0476718" lon="12.0364283"><ele>281.0</ele><time>2026-04-09T09:21:47.55Z</time></trkpt><trkpt lat="46.0475679" lon="12.0361806"><ele>280.6666666666667</ele><time>2026-04-09T09:21:48.531Z</time></trkpt><trkpt lat="46.047471" lon="12.0359474"><ele>280.3333333333333</ele><time>2026-04-09T09:21:49.538Z</time></trkpt><trkpt lat="46.0473738" lon="12.035727"><ele>280.0</ele><time>2026-04-09T09:21:50.536Z</time></trkpt><trkpt lat="46.0472856" lon="12.0355068"><ele>279.3333333333333</ele><time>2026-04-09T09:21:51.533Z</time></trkpt><trkpt lat="46.0472042" lon="12.0353002"><ele>278.6666666666667</ele><time>2026-04-09T09:21:52.542Z</time></trkpt><trkpt lat="46.0471403" lon="12.0350906"><ele>278.0</ele><time>2026-04-09T09:21:53.542Z</time></trkpt><trkpt lat="46.0470835" lon="12.0348794"><ele>278.0</ele><time>2026-04-09T09:21:54.54Z</time></trkpt><trkpt lat="46.04705" lon="12.0346723"><ele>278.0</ele><time>2026-04-09T09:21:55.542Z</time></trkpt><trkpt lat="46.0470351" lon="12.0344775"><ele>278.0</ele><time>2026-04-09T09:21:56.533Z</time></trkpt><trkpt lat="46.0470202" lon="12.0342837"><ele>278.0</ele><time>2026-04-09T09:21:57.535Z</time></trkpt><trkpt lat="46.0470067" lon="12.0340844"><ele>278.0</ele><time>2026-04-09T09:21:58.531Z</time></trkpt><trkpt lat="46.0469927" lon="12.0338643"><ele>278.0</ele><time>2026-04-09T09:21:59.539Z</time></trkpt><trkpt lat="46.046979" lon="12.033621"><ele>278.0</ele><time>2026-04-09T09:22:00.558Z</time></trkpt><trkpt lat="46.0469605" lon="12.0333584"><ele>278.33333333333337</ele><time>2026-04-09T09:22:01.554Z</time></trkpt><trkpt lat="46.0469415" lon="12.0330752"><ele>278.6666666666667</ele><time>2026-04-09T09:22:02.542Z</time></trkpt><trkpt lat="46.046922" lon="12.0327852"><ele>279.0</ele><time>2026-04-09T09:22:03.541Z</time></trkpt><trkpt lat="46.0469022" lon="12.0325185"><ele>279.0</ele><time>2026-04-09T09:22:04.541Z</time></trkpt><trkpt lat="46.0468884" lon="12.0322797"><ele>279.0</ele><time>2026-04-09T09:22:05.544Z</time></trkpt><trkpt lat="46.0468462" lon="12.0320549"><ele>279.0</ele><time>2026-04-09T09:22:06.537Z</time></trkpt><trkpt lat="46.0467861" lon="12.0318684"><ele>279.0</ele><time>2026-04-09T09:22:07.552Z</time></trkpt><trkpt lat="46.0467146" lon="12.0317013"><ele>279.0</ele><time>2026-04-09T09:22:08.548Z</time></trkpt><trkpt lat="46.0466052" lon="12.0315785"><ele>279.0</ele><time>2026-04-09T09:22:09.546Z</time></trkpt><trkpt lat="46.0464769" lon="12.0314666"><ele>279.0</ele><time>2026-04-09T09:22:10.549Z</time></trkpt><trkpt lat="46.0463117" lon="12.0313653"><ele>277.6666666666667</ele><time>2026-04-09T09:22:11.551Z</time></trkpt><trkpt lat="46.0461359" lon="12.0312666"><ele>276.33333333333337</ele><time>2026-04-09T09:22:12.558Z</time></trkpt><trkpt lat="46.0459492" lon="12.0311589"><ele>275.0</ele><time>2026-04-09T09:22:13.537Z</time></trkpt><trkpt lat="46.0457747" lon="12.0310633"><ele>273.75</ele><time>2026-04-09T09:22:14.537Z</time></trkpt><trkpt lat="46.0456339" lon="12.0309816"><ele>272.5</ele><time>2026-04-09T09:22:15.541Z</time></trkpt><trkpt lat="46.045515" lon="12.0309032"><ele>271.25</ele><time>2026-04-09T09:22:16.534Z</time></trkpt><trkpt lat="46.0454113" lon="12.0308112"><ele>270.0</ele><time>2026-04-09T09:22:17.534Z</time></trkpt><trkpt lat="46.0453123" lon="12.0307064"><ele>269.5</ele><time>2026-04-09T09:22:18.539Z</time></trkpt><trkpt lat="46.045252" lon="12.0305594"><ele>269.0</ele><time>2026-04-09T09:22:19.544Z</time></trkpt><trkpt lat="46.0451842" lon="12.0303925"><ele>268.5</ele><time>2026-04-09T09:22:20.544Z</time></trkpt><trkpt lat="46.045144" lon="12.0302259"><ele>268.0</ele><time>2026-04-09T09:22:21.544Z</time></trkpt><trkpt lat="46.0451313" lon="12.030043"><ele>267.4</ele><time>2026-04-09T09:22:22.538Z</time></trkpt><trkpt lat="46.0451347" lon="12.0298862"><ele>266.8</ele><time>2026-04-09T09:22:23.55Z</time></trkpt><trkpt lat="46.0451417" lon="12.0297501"><ele>266.2</ele><time>2026-04-09T09:22:24.545Z</time></trkpt><trkpt lat="46.0451627" lon="12.0296034"><ele>265.6</ele><time>2026-04-09T09:22:25.545Z</time></trkpt><trkpt lat="46.0451826" lon="12.0294409"><ele>265.0</ele><time>2026-04-09T09:22:26.544Z</time></trkpt><trkpt lat="46.0452064" lon="12.0292607"><ele>264.75</ele><time>2026-04-09T09:22:27.542Z</time></trkpt><trkpt lat="46.0452248" lon="12.0290708"><ele>264.5</ele><time>2026-04-09T09:22:28.53Z</time></trkpt><trkpt lat="46.0452448" lon="12.0288766"><ele>264.25</ele><time>2026-04-09T09:22:29.532Z</time></trkpt><trkpt lat="46.0452701" lon="12.0286695"><ele>264.0</ele><time>2026-04-09T09:22:30.533Z</time></trkpt><trkpt lat="46.0452924" lon="12.0284785"><ele>264.0</ele><time>2026-04-09T09:22:31.534Z</time></trkpt><trkpt lat="46.0453154" lon="12.0282938"><ele>264.0</ele><time>2026-04-09T09:22:32.56Z</time></trkpt><trkpt lat="46.0453315" lon="12.0281256"><ele>264.0</ele><time>2026-04-09T09:22:33.54Z</time></trkpt><trkpt lat="46.0453606" lon="12.0279733"><ele>264.0</ele><time>2026-04-09T09:22:34.537Z</time></trkpt><trkpt lat="46.0453492" lon="12.027795"><ele>264.0</ele><time>2026-04-09T09:22:35.543Z</time></trkpt><trkpt lat="46.0453328" lon="12.0276097"><ele>264.0</ele><time>2026-04-09T09:22:36.535Z</time></trkpt><trkpt lat="46.0452921" lon="12.0274205"><ele>264.0</ele><time>2026-04-09T09:22:37.537Z</time></trkpt><trkpt lat="46.0452617" lon="12.0272539"><ele>264.0</ele><time>2026-04-09T09:22:38.54Z</time></trkpt><trkpt lat="46.0452366" lon="12.0271181"><ele>264.0</ele><time>2026-04-09T09:22:39.545Z</time></trkpt><trkpt lat="46.0452376" lon="12.0270138"><ele>264.0</ele><time>2026-04-09T09:22:40.542Z</time></trkpt><trkpt lat="46.0452684" lon="12.0268534"><ele>264.0</ele><time>2026-04-09T09:22:42.541Z</time></trkpt><trkpt lat="46.0453282" lon="12.0267867"><ele>264.0</ele><time>2026-04-09T09:22:43.535Z</time></trkpt><trkpt lat="46.0454142" lon="12.0267129"><ele>264.0</ele><time>2026-04-09T09:22:44.538Z</time></trkpt><trkpt lat="46.045508" lon="12.0266422"><ele>264.0</ele><time>2026-04-09T09:22:45.538Z</time></trkpt><trkpt lat="46.0456218" lon="12.0265743"><ele>264.0</ele><time>2026-04-09T09:22:46.536Z</time></trkpt><trkpt lat="46.0457464" lon="12.0265082"><ele>264.0</ele><time>2026-04-09T09:22:47.544Z</time></trkpt><trkpt lat="46.0458694" lon="12.026446"><ele>264.0</ele><time>2026-04-09T09:22:48.536Z</time></trkpt><trkpt lat="46.0459818" lon="12.02639"><ele>263.59999999999997</ele><time>2026-04-09T09:22:49.535Z</time></trkpt><trkpt lat="46.0460795" lon="12.026336"><ele>263.2</ele><time>2026-04-09T09:22:50.539Z</time></trkpt><trkpt lat="46.0461722" lon="12.0262768"><ele>262.79999999999995</ele><time>2026-04-09T09:22:51.543Z</time></trkpt><trkpt lat="46.0462512" lon="12.0262346"><ele>262.4</ele><time>2026-04-09T09:22:52.537Z</time></trkpt><trkpt lat="46.0463222" lon="12.026195"><ele>262.0</ele><time>2026-04-09T09:22:53.546Z</time></trkpt><trkpt lat="46.0463945" lon="12.0260788"><ele>262.0</ele><time>2026-04-09T09:22:55.533Z</time></trkpt><trkpt lat="46.0464139" lon="12.0259405"><ele>262.0</ele><time>2026-04-09T09:22:57.544Z</time></trkpt><trkpt lat="46.0463984" lon="12.0258059"><ele>262.0</ele><time>2026-04-09T09:22:58.535Z</time></trkpt><trkpt lat="46.0463768" lon="12.0256888"><ele>262.0</ele><time>2026-04-09T09:22:59.545Z</time></trkpt><trkpt lat="46.0463588" lon="12.0255666"><ele>262.0</ele><time>2026-04-09T09:23:00.539Z</time></trkpt><trkpt lat="46.046335" lon="12.0254333"><ele>262.4</ele><time>2026-04-09T09:23:01.536Z</time></trkpt><trkpt lat="46.0463469" lon="12.0253054"><ele>262.79999999999995</ele><time>2026-04-09T09:23:02.539Z</time></trkpt><trkpt lat="46.0464003" lon="12.0251783"><ele>263.2</ele><time>2026-04-09T09:23:03.546Z</time></trkpt><trkpt lat="46.0464658" lon="12.0250515"><ele>263.59999999999997</ele><time>2026-04-09T09:23:04.536Z</time></trkpt><trkpt lat="46.0465314" lon="12.0249068"><ele>264.0</ele><time>2026-04-09T09:23:05.537Z</time></trkpt><trkpt lat="46.0466011" lon="12.024758"><ele>263.25</ele><time>2026-04-09T09:23:06.539Z</time></trkpt><trkpt lat="46.0466964" lon="12.0246037"><ele>262.5</ele><time>2026-04-09T09:23:07.538Z</time></trkpt><trkpt lat="46.0467717" lon="12.0244457"><ele>261.75</ele><time>2026-04-09T09:23:08.541Z</time></trkpt><trkpt lat="46.0468634" lon="12.0242901"><ele>261.0</ele><time>2026-04-09T09:23:09.535Z</time></trkpt><trkpt lat="46.0469501" lon="12.0241453"><ele>260.8333333333333</ele><time>2026-04-09T09:23:10.541Z</time></trkpt><trkpt lat="46.0470203" lon="12.0240339"><ele>260.6666666666667</ele><time>2026-04-09T09:23:11.53Z</time></trkpt><trkpt lat="46.0470796" lon="12.0239337"><ele>260.5</ele><time>2026-04-09T09:23:12.537Z</time></trkpt><trkpt lat="46.0471309" lon="12.0238481"><ele>260.33333333333337</ele><time>2026-04-09T09:23:13.541Z</time></trkpt><trkpt lat="46.0471808" lon="12.0237681"><ele>260.1666666666667</ele><time>2026-04-09T09:23:14.538Z</time></trkpt><trkpt lat="46.0472352" lon="12.023688"><ele>260.0</ele><time>2026-04-09T09:23:16.679Z</time></trkpt><trkpt lat="46.0471215" lon="12.0237717"><ele>260.0</ele><time>2026-04-09T09:23:21.53Z</time></trkpt><trkpt lat="46.0470734" lon="12.0238738"><ele>260.0</ele><time>2026-04-09T09:23:22.542Z</time></trkpt><trkpt lat="46.0470189" lon="12.0239681"><ele>260.0</ele><time>2026-04-09T09:23:23.539Z</time></trkpt><trkpt lat="46.0469453" lon="12.0240186"><ele>260.0</ele><time>2026-04-09T09:23:25.535Z</time></trkpt><trkpt lat="46.0468901" lon="12.023881"><ele>260.0</ele><time>2026-04-09T09:23:28.537Z</time></trkpt><trkpt lat="46.0468663" lon="12.0237775"><ele>260.0</ele><time>2026-04-09T09:23:29.541Z</time></trkpt><trkpt lat="46.0468172" lon="12.0236218"><ele>260.0</ele><time>2026-04-09T09:23:31.541Z</time></trkpt><trkpt lat="46.0467705" lon="12.0234936"><ele>260.0</ele><time>2026-04-09T09:23:33.542Z</time></trkpt><trkpt lat="46.0467226" lon="12.023388"><ele>260.0</ele><time>2026-04-09T09:23:35.522Z</time></trkpt><trkpt lat="46.0466556" lon="12.0232648"><ele>260.0</ele><time>2026-04-09T09:23:37.541Z</time></trkpt><trkpt lat="46.0466205" lon="12.0231657"><ele>260.0</ele><time>2026-04-09T09:23:40.541Z</time></trkpt><trkpt lat="46.0466752" lon="12.0230958"><ele>260.0</ele><time>2026-04-09T09:23:42.54Z</time></trkpt><trkpt lat="46.0467683" lon="12.0230276"><ele>259.83333333333337</ele><time>2026-04-09T09:23:44.543Z</time></trkpt><trkpt lat="46.0468292" lon="12.0229672"><ele>259.6666666666667</ele><time>2026-04-09T09:23:45.544Z</time></trkpt><trkpt lat="46.0468922" lon="12.0229093"><ele>259.5</ele><time>2026-04-09T09:23:46.536Z</time></trkpt><trkpt lat="46.0469528" lon="12.0228222"><ele>259.3333333333333</ele><time>2026-04-09T09:23:47.537Z</time></trkpt><trkpt lat="46.0470125" lon="12.0227132"><ele>259.16666666666663</ele><time>2026-04-09T09:23:48.528Z</time></trkpt><trkpt lat="46.0470682" lon="12.0225987"><ele>259.0</ele><time>2026-04-09T09:23:49.545Z</time></trkpt><trkpt lat="46.0471216" lon="12.0225032"><ele>259.0</ele><time>2026-04-09T09:23:50.542Z</time></trkpt><trkpt lat="46.0471669" lon="12.0224148"><ele>259.0</ele><time>2026-04-09T09:23:51.543Z</time></trkpt><trkpt lat="46.0472197" lon="12.0223642"><ele>259.0</ele><time>2026-04-09T09:23:52.545Z</time></trkpt><trkpt lat="46.0472668" lon="12.0222916"><ele>259.0</ele><time>2026-04-09T09:23:54.537Z</time></trkpt><trkpt lat="46.0473617" lon="12.0221834"><ele>259.0</ele><time>2026-04-09T09:23:56.532Z</time></trkpt><trkpt lat="46.0474094" lon="12.0221106"><ele>259.0</ele><time>2026-04-09T09:23:57.536Z</time></trkpt><trkpt lat="46.0474554" lon="12.0220381"><ele>258.8333333333333</ele><time>2026-04-09T09:23:58.538Z</time></trkpt><trkpt lat="46.0475373" lon="12.021881"><ele>258.66666666666663</ele><time>2026-04-09T09:24:00.552Z</time></trkpt><trkpt lat="46.0475997" lon="12.0218041"><ele>258.5</ele><time>2026-04-09T09:24:01.543Z</time></trkpt><trkpt lat="46.0476667" lon="12.0217421"><ele>258.3333333333333</ele><time>2026-04-09T09:24:02.536Z</time></trkpt><trkpt lat="46.0477244" lon="12.0216894"><ele>258.1666666666667</ele><time>2026-04-09T09:24:03.542Z</time></trkpt><trkpt lat="46.0477871" lon="12.0216578"><ele>258.0</ele><time>2026-04-09T09:24:04.544Z</time></trkpt><trkpt lat="46.0478913" lon="12.0216064"><ele>258.0</ele><time>2026-04-09T09:24:06.538Z</time></trkpt><trkpt lat="46.0479442" lon="12.0215455"><ele>258.0</ele><time>2026-04-09T09:24:09.54Z</time></trkpt><trkpt lat="46.0478348" lon="12.0215925"><ele>258.0</ele><time>2026-04-09T09:24:13.543Z</time></trkpt><trkpt lat="46.0477649" lon="12.0216502"><ele>258.0</ele><time>2026-04-09T09:24:14.537Z</time></trkpt><trkpt lat="46.0476812" lon="12.0216979"><ele>258.0</ele><time>2026-04-09T09:24:15.538Z</time></trkpt><trkpt lat="46.0475876" lon="12.0217821"><ele>258.0</ele><time>2026-04-09T09:24:16.555Z</time></trkpt><trkpt lat="46.0475058" lon="12.0218805"><ele>258.0</ele><time>2026-04-09T09:24:17.537Z</time></trkpt><trkpt lat="46.0474362" lon="12.0220415"><ele>258.0</ele><time>2026-04-09T09:24:18.54Z</time></trkpt><trkpt lat="46.0473801" lon="12.0221665"><ele>258.0</ele><time>2026-04-09T09:24:19.549Z</time></trkpt><trkpt lat="46.047323" lon="12.0222607"><ele>258.0</ele><time>2026-04-09T09:24:20.553Z</time></trkpt><trkpt lat="46.0472706" lon="12.0223226"><ele>258.2</ele><time>2026-04-09T09:24:21.537Z</time></trkpt><trkpt lat="46.0472493" lon="12.0222142"><ele>258.4</ele><time>2026-04-09T09:24:24.526Z</time></trkpt><trkpt lat="46.0472904" lon="12.0221211"><ele>258.59999999999997</ele><time>2026-04-09T09:24:25.543Z</time></trkpt><trkpt lat="46.0473163" lon="12.0219616"><ele>258.8</ele><time>2026-04-09T09:24:26.546Z</time></trkpt><trkpt lat="46.047337" lon="12.0218324"><ele>259.0</ele><time>2026-04-09T09:24:27.524Z</time></trkpt><trkpt lat="46.0473493" lon="12.0216676"><ele>258.75</ele><time>2026-04-09T09:24:28.531Z</time></trkpt><trkpt lat="46.0473552" lon="12.0215087"><ele>258.5</ele><time>2026-04-09T09:24:29.543Z</time></trkpt><trkpt lat="46.0473729" lon="12.0213369"><ele>258.25</ele><time>2026-04-09T09:24:30.54Z</time></trkpt><trkpt lat="46.0473788" lon="12.0211652"><ele>258.0</ele><time>2026-04-09T09:24:31.538Z</time></trkpt><trkpt lat="46.0473775" lon="12.0209932"><ele>258.0</ele><time>2026-04-09T09:24:32.556Z</time></trkpt><trkpt lat="46.0473757" lon="12.0208305"><ele>258.0</ele><time>2026-04-09T09:24:33.544Z</time></trkpt><trkpt lat="46.0474034" lon="12.0206526"><ele>258.0</ele><time>2026-04-09T09:24:34.544Z</time></trkpt><trkpt lat="46.0474426" lon="12.0204755"><ele>258.0</ele><time>2026-04-09T09:24:35.53Z</time></trkpt><trkpt lat="46.0474892" lon="12.020283"><ele>257.25</ele><time>2026-04-09T09:24:36.529Z</time></trkpt><trkpt lat="46.0475335" lon="12.0200827"><ele>256.5</ele><time>2026-04-09T09:24:37.538Z</time></trkpt><trkpt lat="46.0475689" lon="12.0198853"><ele>255.75</ele><time>2026-04-09T09:24:38.534Z</time></trkpt><trkpt lat="46.0476137" lon="12.0196799"><ele>255.0</ele><time>2026-04-09T09:24:39.529Z</time></trkpt><trkpt lat="46.0476466" lon="12.0194802"><ele>254.8</ele><time>2026-04-09T09:24:40.542Z</time></trkpt><trkpt lat="46.0476868" lon="12.0193272"><ele>254.6</ele><time>2026-04-09T09:24:41.534Z</time></trkpt><trkpt lat="46.0477185" lon="12.0192176"><ele>254.39999999999998</ele><time>2026-04-09T09:24:42.544Z</time></trkpt><trkpt lat="46.047752" lon="12.0191125"><ele>254.2</ele><time>2026-04-09T09:24:43.538Z</time></trkpt><trkpt lat="46.0477772" lon="12.0189691"><ele>254.0</ele><time>2026-04-09T09:24:45.537Z</time></trkpt><trkpt lat="46.047869" lon="12.0188078"><ele>253.79999999999998</ele><time>2026-04-09T09:24:47.532Z</time></trkpt><trkpt lat="46.0479421" lon="12.0187083"><ele>253.59999999999997</ele><time>2026-04-09T09:24:48.535Z</time></trkpt><trkpt lat="46.0480008" lon="12.0185987"><ele>253.4</ele><time>2026-04-09T09:24:49.53Z</time></trkpt><trkpt lat="46.0480583" lon="12.0184902"><ele>253.2</ele><time>2026-04-09T09:24:50.53Z</time></trkpt><trkpt lat="46.0481093" lon="12.0183782"><ele>253.0</ele><time>2026-04-09T09:24:51.53Z</time></trkpt><trkpt lat="46.0481646" lon="12.0182731"><ele>252.99999999999997</ele><time>2026-04-09T09:24:52.536Z</time></trkpt><trkpt lat="46.0482202" lon="12.0181806"><ele>253.0</ele><time>2026-04-09T09:24:53.531Z</time></trkpt><trkpt lat="46.0482494" lon="12.0180848"><ele>253.0</ele><time>2026-04-09T09:24:54.536Z</time></trkpt><trkpt lat="46.0482756" lon="12.017972"><ele>253.0</ele><time>2026-04-09T09:24:55.543Z</time></trkpt><trkpt lat="46.0482949" lon="12.0178806"><ele>252.99999999999997</ele><time>2026-04-09T09:24:56.537Z</time></trkpt><trkpt lat="46.0483081" lon="12.0177774"><ele>253.0</ele><time>2026-04-09T09:24:57.533Z</time></trkpt><trkpt lat="46.048322" lon="12.0176744"><ele>252.2</ele><time>2026-04-09T09:24:58.533Z</time></trkpt><trkpt lat="46.0483452" lon="12.0174951"><ele>251.4</ele><time>2026-04-09T09:25:00.536Z</time></trkpt><trkpt lat="46.0483576" lon="12.0173994"><ele>250.59999999999997</ele><time>2026-04-09T09:25:01.522Z</time></trkpt><trkpt lat="46.0484387" lon="12.0172391"><ele>249.79999999999998</ele><time>2026-04-09T09:25:03.544Z</time></trkpt><trkpt lat="46.0484605" lon="12.0171421"><ele>249.0</ele><time>2026-04-09T09:25:04.543Z</time></trkpt><trkpt lat="46.0484702" lon="12.0170458"><ele>249.0</ele><time>2026-04-09T09:25:05.539Z</time></trkpt><trkpt lat="46.0484554" lon="12.0169432"><ele>248.99999999999997</ele><time>2026-04-09T09:25:06.535Z</time></trkpt><trkpt lat="46.0484167" lon="12.016827"><ele>248.99999999999997</ele><time>2026-04-09T09:25:07.544Z</time></trkpt><trkpt lat="46.0483801" lon="12.0166734"><ele>249.0</ele><time>2026-04-09T09:25:08.544Z</time></trkpt><trkpt lat="46.0483324" lon="12.0165431"><ele>249.0</ele><time>2026-04-09T09:25:09.543Z</time></trkpt><trkpt lat="46.0482727" lon="12.0164165"><ele>249.0</ele><time>2026-04-09T09:25:10.536Z</time></trkpt><trkpt lat="46.0482149" lon="12.0163084"><ele>248.99999999999997</ele><time>2026-04-09T09:25:11.537Z</time></trkpt><trkpt lat="46.0481664" lon="12.0161833"><ele>248.99999999999997</ele><time>2026-04-09T09:25:12.542Z</time></trkpt><trkpt lat="46.0481121" lon="12.0160678"><ele>249.0</ele><time>2026-04-09T09:25:13.537Z</time></trkpt><trkpt lat="46.0480841" lon="12.0159478"><ele>249.0</ele><time>2026-04-09T09:25:14.544Z</time></trkpt><trkpt lat="46.0480067" lon="12.0156374"><ele>249.33333333333331</ele><time>2026-04-09T09:25:16.523Z</time></trkpt><trkpt lat="46.0479684" lon="12.015467"><ele>249.66666666666666</ele><time>2026-04-09T09:25:17.544Z</time></trkpt><trkpt lat="46.047876" lon="12.0150751"><ele>250.0</ele><time>2026-04-09T09:25:19.547Z</time></trkpt><trkpt lat="46.0477979" lon="12.0148405"><ele>248.0</ele><time>2026-04-09T09:25:20.537Z</time></trkpt><trkpt lat="46.0477047" lon="12.0145876"><ele>246.0</ele><time>2026-04-09T09:25:21.534Z</time></trkpt><trkpt lat="46.0474861" lon="12.0141139"><ele>246.66666666666669</ele><time>2026-04-09T09:25:23.539Z</time></trkpt><trkpt lat="46.0473885" lon="12.0138201"><ele>247.33333333333334</ele><time>2026-04-09T09:25:24.648Z</time></trkpt><trkpt lat="46.0473157" lon="12.0135722"><ele>248.0</ele><time>2026-04-09T09:25:25.548Z</time></trkpt><trkpt lat="46.0472198" lon="12.0133284"><ele>246.66666666666669</ele><time>2026-04-09T09:25:26.537Z</time></trkpt><trkpt lat="46.0471426" lon="12.0131036"><ele>245.33333333333331</ele><time>2026-04-09T09:25:27.55Z</time></trkpt><trkpt lat="46.0470273" lon="12.0128854"><ele>244.0</ele><time>2026-04-09T09:25:28.544Z</time></trkpt><trkpt lat="46.0469067" lon="12.0126588"><ele>243.66666666666666</ele><time>2026-04-09T09:25:29.541Z</time></trkpt><trkpt lat="46.0468178" lon="12.0124418"><ele>243.33333333333331</ele><time>2026-04-09T09:25:30.556Z</time></trkpt><trkpt lat="46.0467231" lon="12.0122385"><ele>243.0</ele><time>2026-04-09T09:25:31.539Z</time></trkpt><trkpt lat="46.0466464" lon="12.012056"><ele>243.0</ele><time>2026-04-09T09:25:32.535Z</time></trkpt><trkpt lat="46.0465698" lon="12.0118868"><ele>243.0</ele><time>2026-04-09T09:25:33.548Z</time></trkpt><trkpt lat="46.0465064" lon="12.011746"><ele>243.0</ele><time>2026-04-09T09:25:34.545Z</time></trkpt><trkpt lat="46.0464604" lon="12.011625"><ele>243.0</ele><time>2026-04-09T09:25:35.539Z</time></trkpt><trkpt lat="46.0464135" lon="12.011516"><ele>243.0</ele><time>2026-04-09T09:25:36.539Z</time></trkpt><trkpt lat="46.0463522" lon="12.0114033"><ele>243.0</ele><time>2026-04-09T09:25:37.544Z</time></trkpt><trkpt lat="46.0462824" lon="12.0113043"><ele>243.0</ele><time>2026-04-09T09:25:38.54Z</time></trkpt><trkpt lat="46.0462243" lon="12.0112219"><ele>243.0</ele><time>2026-04-09T09:25:39.545Z</time></trkpt><trkpt lat="46.0461714" lon="12.0110986"><ele>243.0</ele><time>2026-04-09T09:25:41.54Z</time></trkpt><trkpt lat="46.0462163" lon="12.0109898"><ele>243.0</ele><time>2026-04-09T09:25:43.544Z</time></trkpt><trkpt lat="46.0462907" lon="12.010908"><ele>243.0</ele><time>2026-04-09T09:25:45.523Z</time></trkpt><trkpt lat="46.0463542" lon="12.0108578"><ele>243.0</ele><time>2026-04-09T09:25:47.537Z</time></trkpt><trkpt lat="46.04641" lon="12.0107352"><ele>243.0</ele><time>2026-04-09T09:25:50.538Z</time></trkpt><trkpt lat="46.0464443" lon="12.0106547"><ele>243.0</ele><time>2026-04-09T09:25:51.542Z</time></trkpt><trkpt lat="46.0464861" lon="12.0105129"><ele>243.0</ele><time>2026-04-09T09:25:52.537Z</time></trkpt><trkpt lat="46.0465177" lon="12.0103691"><ele>242.83333333333334</ele><time>2026-04-09T09:25:53.536Z</time></trkpt><trkpt lat="46.0465535" lon="12.0102252"><ele>242.66666666666669</ele><time>2026-04-09T09:25:54.539Z</time></trkpt><trkpt lat="46.04659" lon="12.0100882"><ele>242.5</ele><time>2026-04-09T09:25:55.539Z</time></trkpt><trkpt lat="46.0466213" lon="12.0099742"><ele>242.33333333333334</ele><time>2026-04-09T09:25:56.536Z</time></trkpt><trkpt lat="46.0466386" lon="12.0098829"><ele>242.16666666666669</ele><time>2026-04-09T09:25:57.537Z</time></trkpt><trkpt lat="46.0466435" lon="12.0097869"><ele>242.0</ele><time>2026-04-09T09:25:58.546Z</time></trkpt><trkpt lat="46.0466424" lon="12.0096232"><ele>242.00000000000003</ele><time>2026-04-09T09:26:00.541Z</time></trkpt><trkpt lat="46.0465895" lon="12.0094582"><ele>242.0</ele><time>2026-04-09T09:26:02.544Z</time></trkpt><trkpt lat="46.0465591" lon="12.0093584"><ele>242.0</ele><time>2026-04-09T09:26:03.535Z</time></trkpt><trkpt lat="46.0465319" lon="12.0092485"><ele>242.0</ele><time>2026-04-09T09:26:04.528Z</time></trkpt><trkpt lat="46.0464992" lon="12.0091421"><ele>242.00000000000003</ele><time>2026-04-09T09:26:05.535Z</time></trkpt><trkpt lat="46.0464655" lon="12.0090299"><ele>242.0</ele><time>2026-04-09T09:26:06.538Z</time></trkpt><trkpt lat="46.0464132" lon="12.0089144"><ele>242.0</ele><time>2026-04-09T09:26:07.536Z</time></trkpt><trkpt lat="46.0463679" lon="12.0088068"><ele>242.0</ele><time>2026-04-09T09:26:08.523Z</time></trkpt><trkpt lat="46.0463073" lon="12.0087073"><ele>242.0</ele><time>2026-04-09T09:26:09.541Z</time></trkpt><trkpt lat="46.0462604" lon="12.0085979"><ele>242.0</ele><time>2026-04-09T09:26:10.54Z</time></trkpt><trkpt lat="46.0462126" lon="12.0084931"><ele>242.0</ele><time>2026-04-09T09:26:11.54Z</time></trkpt><trkpt lat="46.0461379" lon="12.0083934"><ele>242.0</ele><time>2026-04-09T09:26:12.539Z</time></trkpt><trkpt lat="46.0461084" lon="12.0082804"><ele>242.0</ele><time>2026-04-09T09:26:13.539Z</time></trkpt><trkpt lat="46.046082" lon="12.0081496"><ele>242.0</ele><time>2026-04-09T09:26:14.536Z</time></trkpt><trkpt lat="46.0460491" lon="12.0080133"><ele>242.0</ele><time>2026-04-09T09:26:15.537Z</time></trkpt><trkpt lat="46.046016" lon="12.0078907"><ele>242.0</ele><time>2026-04-09T09:26:16.539Z</time></trkpt><trkpt lat="46.0459776" lon="12.0077681"><ele>242.0</ele><time>2026-04-09T09:26:17.536Z</time></trkpt><trkpt lat="46.0459391" lon="12.0076174"><ele>242.0</ele><time>2026-04-09T09:26:18.536Z</time></trkpt><trkpt lat="46.0459301" lon="12.0074939"><ele>242.0</ele><time>2026-04-09T09:26:19.54Z</time></trkpt><trkpt lat="46.0458845" lon="12.0073895"><ele>242.0</ele><time>2026-04-09T09:26:20.543Z</time></trkpt><trkpt lat="46.0458395" lon="12.0073037"><ele>242.0</ele><time>2026-04-09T09:26:21.541Z</time></trkpt><trkpt lat="46.0457443" lon="12.0071715"><ele>242.00000000000003</ele><time>2026-04-09T09:26:23.545Z</time></trkpt><trkpt lat="46.0456846" lon="12.0071183"><ele>242.0</ele><time>2026-04-09T09:26:24.546Z</time></trkpt><trkpt lat="46.0456283" lon="12.0070608"><ele>242.0</ele><time>2026-04-09T09:26:25.535Z</time></trkpt><trkpt lat="46.0455803" lon="12.0069985"><ele>242.0</ele><time>2026-04-09T09:26:26.537Z</time></trkpt><trkpt lat="46.0455204" lon="12.0069231"><ele>242.00000000000003</ele><time>2026-04-09T09:26:27.538Z</time></trkpt><trkpt lat="46.0454733" lon="12.0068525"><ele>242.0</ele><time>2026-04-09T09:26:28.56Z</time></trkpt><trkpt lat="46.0453917" lon="12.0067328"><ele>241.8</ele><time>2026-04-09T09:26:30.533Z</time></trkpt><trkpt lat="46.0453252" lon="12.0066095"><ele>241.6</ele><time>2026-04-09T09:26:32.555Z</time></trkpt><trkpt lat="46.0452787" lon="12.0065016"><ele>241.40000000000003</ele><time>2026-04-09T09:26:34.535Z</time></trkpt><trkpt lat="46.0452216" lon="12.006383"><ele>241.20000000000002</ele><time>2026-04-09T09:26:36.55Z</time></trkpt><trkpt lat="46.0451645" lon="12.006266"><ele>241.0</ele><time>2026-04-09T09:26:38.557Z</time></trkpt><trkpt lat="46.0451081" lon="12.0061494"><ele>240.99999999999997</ele><time>2026-04-09T09:26:40.533Z</time></trkpt><trkpt lat="46.0450614" lon="12.0060653"><ele>241.0</ele><time>2026-04-09T09:26:42.548Z</time></trkpt><trkpt lat="46.0450897" lon="12.0059497"><ele>241.0</ele><time>2026-04-09T09:26:45.545Z</time></trkpt><trkpt lat="46.0451784" lon="12.0058862"><ele>241.0</ele><time>2026-04-09T09:26:47.533Z</time></trkpt><trkpt lat="46.0452634" lon="12.0058157"><ele>240.99999999999997</ele><time>2026-04-09T09:26:49.535Z</time></trkpt><trkpt lat="46.0452788" lon="12.0057013"><ele>241.0</ele><time>2026-04-09T09:26:51.537Z</time></trkpt><trkpt lat="46.0452389" lon="12.0056208"><ele>240.8</ele><time>2026-04-09T09:26:52.533Z</time></trkpt><trkpt lat="46.0451877" lon="12.0055366"><ele>240.60000000000002</ele><time>2026-04-09T09:26:53.538Z</time></trkpt><trkpt lat="46.0451312" lon="12.0054065"><ele>240.4</ele><time>2026-04-09T09:26:54.535Z</time></trkpt><trkpt lat="46.0450774" lon="12.0052742"><ele>240.2</ele><time>2026-04-09T09:26:55.53Z</time></trkpt><trkpt lat="46.0449957" lon="12.0051189"><ele>240.0</ele><time>2026-04-09T09:26:56.535Z</time></trkpt><trkpt lat="46.0449285" lon="12.0049531"><ele>239.75</ele><time>2026-04-09T09:26:57.538Z</time></trkpt><trkpt lat="46.0448598" lon="12.0047799"><ele>239.5</ele><time>2026-04-09T09:26:58.545Z</time></trkpt><trkpt lat="46.0448016" lon="12.0046058"><ele>239.25</ele><time>2026-04-09T09:26:59.541Z</time></trkpt><trkpt lat="46.0447587" lon="12.0044225"><ele>239.0</ele><time>2026-04-09T09:27:00.533Z</time></trkpt><trkpt lat="46.0447193" lon="12.0042445"><ele>238.83333333333334</ele><time>2026-04-09T09:27:01.552Z</time></trkpt><trkpt lat="46.0447011" lon="12.0040893"><ele>238.66666666666669</ele><time>2026-04-09T09:27:02.532Z</time></trkpt><trkpt lat="46.0446853" lon="12.0039596"><ele>238.5</ele><time>2026-04-09T09:27:03.535Z</time></trkpt><trkpt lat="46.0446472" lon="12.0038653"><ele>238.33333333333331</ele><time>2026-04-09T09:27:04.54Z</time></trkpt><trkpt lat="46.0445939" lon="12.0037961"><ele>238.16666666666666</ele><time>2026-04-09T09:27:05.532Z</time></trkpt><trkpt lat="46.0445434" lon="12.0037167"><ele>238.0</ele><time>2026-04-09T09:27:06.522Z</time></trkpt><trkpt lat="46.044424" lon="12.0036145"><ele>238.0</ele><time>2026-04-09T09:27:07.542Z</time></trkpt><trkpt lat="46.0443252" lon="12.0034914"><ele>238.0</ele><time>2026-04-09T09:27:08.542Z</time></trkpt><trkpt lat="46.0442197" lon="12.0033577"><ele>238.0</ele><time>2026-04-09T09:27:09.535Z</time></trkpt><trkpt lat="46.0441297" lon="12.0032253"><ele>238.0</ele><time>2026-04-09T09:27:10.536Z</time></trkpt><trkpt lat="46.0440412" lon="12.0030964"><ele>238.0</ele><time>2026-04-09T09:27:11.538Z</time></trkpt><trkpt lat="46.0439636" lon="12.0029633"><ele>238.0</ele><time>2026-04-09T09:27:12.534Z</time></trkpt><trkpt lat="46.0438715" lon="12.0028495"><ele>238.0</ele><time>2026-04-09T09:27:13.537Z</time></trkpt><trkpt lat="46.0437879" lon="12.0027482"><ele>238.0</ele><time>2026-04-09T09:27:14.542Z</time></trkpt><trkpt lat="46.0436996" lon="12.0026617"><ele>238.0</ele><time>2026-04-09T09:27:15.535Z</time></trkpt><trkpt lat="46.0436052" lon="12.0026066"><ele>238.0</ele><time>2026-04-09T09:27:16.536Z</time></trkpt><trkpt lat="46.043511" lon="12.0025613"><ele>238.0</ele><time>2026-04-09T09:27:17.538Z</time></trkpt><trkpt lat="46.0434314" lon="12.0025274"><ele>238.0</ele><time>2026-04-09T09:27:18.541Z</time></trkpt><trkpt lat="46.0433492" lon="12.0024794"><ele>238.0</ele><time>2026-04-09T09:27:19.544Z</time></trkpt><trkpt lat="46.0432782" lon="12.0024166"><ele>238.0</ele><time>2026-04-09T09:27:20.536Z</time></trkpt><trkpt lat="46.0432134" lon="12.0023614"><ele>238.0</ele><time>2026-04-09T09:27:21.539Z</time></trkpt><trkpt lat="46.0431472" lon="12.0022747"><ele>238.0</ele><time>2026-04-09T09:27:22.536Z</time></trkpt><trkpt lat="46.0430802" lon="12.0021793"><ele>238.0</ele><time>2026-04-09T09:27:23.544Z</time></trkpt><trkpt lat="46.0430052" lon="12.0020535"><ele>238.0</ele><time>2026-04-09T09:27:24.536Z</time></trkpt><trkpt lat="46.0429297" lon="12.0019433"><ele>238.0</ele><time>2026-04-09T09:27:25.536Z</time></trkpt><trkpt lat="46.0428597" lon="12.0018437"><ele>238.0</ele><time>2026-04-09T09:27:26.546Z</time></trkpt><trkpt lat="46.0427812" lon="12.0017219"><ele>238.0</ele><time>2026-04-09T09:27:27.532Z</time></trkpt><trkpt lat="46.0427004" lon="12.0015998"><ele>238.0</ele><time>2026-04-09T09:27:28.537Z</time></trkpt><trkpt lat="46.0426034" lon="12.0014868"><ele>238.0</ele><time>2026-04-09T09:27:29.534Z</time></trkpt><trkpt lat="46.0425285" lon="12.0013795"><ele>238.0</ele><time>2026-04-09T09:27:30.537Z</time></trkpt><trkpt lat="46.0424402" lon="12.0012479"><ele>238.0</ele><time>2026-04-09T09:27:31.535Z</time></trkpt><trkpt lat="46.0423564" lon="12.0011218"><ele>238.0</ele><time>2026-04-09T09:27:32.641Z</time></trkpt><trkpt lat="46.0422786" lon="12.0009896"><ele>237.75</ele><time>2026-04-09T09:27:33.544Z</time></trkpt><trkpt lat="46.0421945" lon="12.0008738"><ele>237.5</ele><time>2026-04-09T09:27:34.537Z</time></trkpt><trkpt lat="46.0420952" lon="12.0007521"><ele>237.25</ele><time>2026-04-09T09:27:35.537Z</time></trkpt><trkpt lat="46.0419976" lon="12.0006368"><ele>237.0</ele><time>2026-04-09T09:27:36.543Z</time></trkpt><trkpt lat="46.0419249" lon="12.0005143"><ele>236.75</ele><time>2026-04-09T09:27:37.55Z</time></trkpt><trkpt lat="46.0418626" lon="12.0003853"><ele>236.5</ele><time>2026-04-09T09:27:38.539Z</time></trkpt><trkpt lat="46.0418097" lon="12.0002225"><ele>236.25</ele><time>2026-04-09T09:27:39.535Z</time></trkpt><trkpt lat="46.0417674" lon="12.000039"><ele>236.0</ele><time>2026-04-09T09:27:40.549Z</time></trkpt><trkpt lat="46.0417035" lon="11.9998663"><ele>236.75</ele><time>2026-04-09T09:27:41.54Z</time></trkpt><trkpt lat="46.0416271" lon="11.9997036"><ele>237.5</ele><time>2026-04-09T09:27:42.538Z</time></trkpt><trkpt lat="46.0415485" lon="11.999553"><ele>238.25</ele><time>2026-04-09T09:27:43.547Z</time></trkpt><trkpt lat="46.0414787" lon="11.9994182"><ele>239.0</ele><time>2026-04-09T09:27:44.537Z</time></trkpt><trkpt lat="46.0414197" lon="11.9993074"><ele>239.0</ele><time>2026-04-09T09:27:45.541Z</time></trkpt><trkpt lat="46.0413533" lon="11.9992476"><ele>239.0</ele><time>2026-04-09T09:27:46.536Z</time></trkpt><trkpt lat="46.0412026" lon="11.9991839"><ele>239.0</ele><time>2026-04-09T09:27:48.534Z</time></trkpt><trkpt lat="46.0410077" lon="11.9991926"><ele>239.0</ele><time>2026-04-09T09:27:50.537Z</time></trkpt><trkpt lat="46.0409306" lon="11.9991473"><ele>239.0</ele><time>2026-04-09T09:27:51.544Z</time></trkpt><trkpt lat="46.0408713" lon="11.9990889"><ele>238.99999999999997</ele><time>2026-04-09T09:27:52.537Z</time></trkpt><trkpt lat="46.0407877" lon="11.9989689"><ele>238.99999999999997</ele><time>2026-04-09T09:27:53.541Z</time></trkpt><trkpt lat="46.0406993" lon="11.9988719"><ele>239.0</ele><time>2026-04-09T09:27:54.534Z</time></trkpt><trkpt lat="46.0406082" lon="11.9987788"><ele>239.0</ele><time>2026-04-09T09:27:55.533Z</time></trkpt><trkpt lat="46.0405256" lon="11.9987019"><ele>239.00000000000003</ele><time>2026-04-09T09:27:56.533Z</time></trkpt><trkpt lat="46.0404528" lon="11.9986304"><ele>239.0</ele><time>2026-04-09T09:27:57.55Z</time></trkpt><trkpt lat="46.0403925" lon="11.9985572"><ele>239.0</ele><time>2026-04-09T09:27:58.544Z</time></trkpt><trkpt lat="46.0403301" lon="11.9984582"><ele>239.0</ele><time>2026-04-09T09:28:00.534Z</time></trkpt><trkpt lat="46.0403452" lon="11.9983553"><ele>239.00000000000003</ele><time>2026-04-09T09:28:02.534Z</time></trkpt><trkpt lat="46.0403935" lon="11.9982902"><ele>239.0</ele><time>2026-04-09T09:28:03.541Z</time></trkpt><trkpt lat="46.0404499" lon="11.9982103"><ele>238.75</ele><time>2026-04-09T09:28:04.541Z</time></trkpt><trkpt lat="46.0405264" lon="11.9981003"><ele>238.5</ele><time>2026-04-09T09:28:05.535Z</time></trkpt><trkpt lat="46.0405872" lon="11.9979802"><ele>238.25</ele><time>2026-04-09T09:28:06.534Z</time></trkpt><trkpt lat="46.0406505" lon="11.9978037"><ele>238.0</ele><time>2026-04-09T09:28:07.536Z</time></trkpt><trkpt lat="46.0406918" lon="11.9976523"><ele>238.0</ele><time>2026-04-09T09:28:08.545Z</time></trkpt><trkpt lat="46.0407214" lon="11.9975104"><ele>238.0</ele><time>2026-04-09T09:28:09.528Z</time></trkpt><trkpt lat="46.0407448" lon="11.9973859"><ele>238.0</ele><time>2026-04-09T09:28:10.528Z</time></trkpt><trkpt lat="46.0407706" lon="11.9972434"><ele>238.0</ele><time>2026-04-09T09:28:11.54Z</time></trkpt><trkpt lat="46.0407926" lon="11.9971162"><ele>238.0</ele><time>2026-04-09T09:28:12.531Z</time></trkpt><trkpt lat="46.0408096" lon="11.9969943"><ele>237.83333333333331</ele><time>2026-04-09T09:28:13.528Z</time></trkpt><trkpt lat="46.0408412" lon="11.9968753"><ele>237.66666666666666</ele><time>2026-04-09T09:28:14.552Z</time></trkpt><trkpt lat="46.0408582" lon="11.9967697"><ele>237.5</ele><time>2026-04-09T09:28:15.536Z</time></trkpt><trkpt lat="46.0408788" lon="11.9966767"><ele>237.33333333333331</ele><time>2026-04-09T09:28:16.548Z</time></trkpt><trkpt lat="46.0409171" lon="11.9965928"><ele>237.16666666666666</ele><time>2026-04-09T09:28:17.549Z</time></trkpt><trkpt lat="46.0409617" lon="11.9965246"><ele>237.0</ele><time>2026-04-09T09:28:18.535Z</time></trkpt><trkpt lat="46.0410471" lon="11.9964356"><ele>237.0</ele><time>2026-04-09T09:28:20.538Z</time></trkpt><trkpt lat="46.0411288" lon="11.9963248"><ele>237.0</ele><time>2026-04-09T09:28:22.546Z</time></trkpt><trkpt lat="46.0411835" lon="11.9962131"><ele>237.0</ele><time>2026-04-09T09:28:24.534Z</time></trkpt><trkpt lat="46.0411777" lon="11.9960847"><ele>237.0</ele><time>2026-04-09T09:28:26.545Z</time></trkpt><trkpt lat="46.0411562" lon="11.995925"><ele>237.0</ele><time>2026-04-09T09:28:28.539Z</time></trkpt><trkpt lat="46.0411206" lon="11.9957885"><ele>237.0</ele><time>2026-04-09T09:28:30.531Z</time></trkpt><trkpt lat="46.0410955" lon="11.9956728"><ele>237.0</ele><time>2026-04-09T09:28:32.536Z</time></trkpt><trkpt lat="46.0410697" lon="11.9955684"><ele>237.0</ele><time>2026-04-09T09:28:34.537Z</time></trkpt><trkpt lat="46.0410258" lon="11.9954831"><ele>237.0</ele><time>2026-04-09T09:28:36.647Z</time></trkpt><trkpt lat="46.0409682" lon="11.9953878"><ele>237.0</ele><time>2026-04-09T09:28:38.534Z</time></trkpt><trkpt lat="46.0408792" lon="11.9952942"><ele>237.0</ele><time>2026-04-09T09:28:40.538Z</time></trkpt><trkpt lat="46.0407838" lon="11.995155"><ele>236.8</ele><time>2026-04-09T09:28:42.543Z</time></trkpt><trkpt lat="46.0407281" lon="11.9950421"><ele>236.6</ele><time>2026-04-09T09:28:43.541Z</time></trkpt><trkpt lat="46.0406486" lon="11.994938"><ele>236.40000000000003</ele><time>2026-04-09T09:28:44.542Z</time></trkpt><trkpt lat="46.0405559" lon="11.9948248"><ele>236.20000000000002</ele><time>2026-04-09T09:28:45.551Z</time></trkpt><trkpt lat="46.0404669" lon="11.9947005"><ele>236.0</ele><time>2026-04-09T09:28:46.542Z</time></trkpt><trkpt lat="46.0403794" lon="11.9945827"><ele>236.0</ele><time>2026-04-09T09:28:47.539Z</time></trkpt><trkpt lat="46.0403152" lon="11.9944638"><ele>236.00000000000003</ele><time>2026-04-09T09:28:48.53Z</time></trkpt><trkpt lat="46.0402446" lon="11.9943541"><ele>236.00000000000003</ele><time>2026-04-09T09:28:49.534Z</time></trkpt><trkpt lat="46.0401786" lon="11.9942589"><ele>236.0</ele><time>2026-04-09T09:28:50.544Z</time></trkpt><trkpt lat="46.0401383" lon="11.9941547"><ele>236.0</ele><time>2026-04-09T09:28:51.542Z</time></trkpt><trkpt lat="46.0400817" lon="11.9940477"><ele>236.20000000000002</ele><time>2026-04-09T09:28:52.545Z</time></trkpt><trkpt lat="46.0400469" lon="11.9939355"><ele>236.40000000000003</ele><time>2026-04-09T09:28:53.553Z</time></trkpt><trkpt lat="46.040005" lon="11.9938447"><ele>236.6</ele><time>2026-04-09T09:28:54.54Z</time></trkpt><trkpt lat="46.0399087" lon="11.9937337"><ele>236.8</ele><time>2026-04-09T09:28:56.548Z</time></trkpt><trkpt lat="46.0398043" lon="11.9936698"><ele>237.0</ele><time>2026-04-09T09:28:57.534Z</time></trkpt><trkpt lat="46.0397147" lon="11.9936045"><ele>237.0</ele><time>2026-04-09T09:28:58.54Z</time></trkpt><trkpt lat="46.0396278" lon="11.9935381"><ele>237.0</ele><time>2026-04-09T09:28:59.543Z</time></trkpt><trkpt lat="46.0395402" lon="11.9934672"><ele>237.0</ele><time>2026-04-09T09:29:00.535Z</time></trkpt><trkpt lat="46.0394628" lon="11.9933931"><ele>237.0</ele><time>2026-04-09T09:29:01.545Z</time></trkpt><trkpt lat="46.0393853" lon="11.9932993"><ele>237.0</ele><time>2026-04-09T09:29:02.543Z</time></trkpt><trkpt lat="46.0393176" lon="11.9932349"><ele>237.16666666666666</ele><time>2026-04-09T09:29:03.543Z</time></trkpt><trkpt lat="46.0392535" lon="11.9931879"><ele>237.33333333333331</ele><time>2026-04-09T09:29:04.541Z</time></trkpt><trkpt lat="46.0391917" lon="11.9931598"><ele>237.5</ele><time>2026-04-09T09:29:05.542Z</time></trkpt><trkpt lat="46.0391" lon="11.993162"><ele>237.66666666666666</ele><time>2026-04-09T09:29:07.545Z</time></trkpt><trkpt lat="46.0390186" lon="11.993146"><ele>237.83333333333331</ele><time>2026-04-09T09:29:08.541Z</time></trkpt><trkpt lat="46.0389452" lon="11.9931439"><ele>238.0</ele><time>2026-04-09T09:29:09.556Z</time></trkpt><trkpt lat="46.0388752" lon="11.993147"><ele>238.4</ele><time>2026-04-09T09:29:10.532Z</time></trkpt><trkpt lat="46.0388151" lon="11.992998"><ele>238.8</ele><time>2026-04-09T09:29:14.535Z</time></trkpt><trkpt lat="46.0387842" lon="11.9928979"><ele>239.2</ele><time>2026-04-09T09:29:15.546Z</time></trkpt><trkpt lat="46.0387526" lon="11.992773"><ele>239.6</ele><time>2026-04-09T09:29:16.536Z</time></trkpt><trkpt lat="46.0387255" lon="11.9926371"><ele>240.0</ele><time>2026-04-09T09:29:17.54Z</time></trkpt><trkpt lat="46.0387031" lon="11.9925147"><ele>240.16666666666666</ele><time>2026-04-09T09:29:18.546Z</time></trkpt><trkpt lat="46.0386823" lon="11.9923957"><ele>240.33333333333331</ele><time>2026-04-09T09:29:19.53Z</time></trkpt><trkpt lat="46.0386487" lon="11.9922776"><ele>240.5</ele><time>2026-04-09T09:29:20.531Z</time></trkpt><trkpt lat="46.0386199" lon="11.9921561"><ele>240.66666666666666</ele><time>2026-04-09T09:29:21.536Z</time></trkpt><trkpt lat="46.0385923" lon="11.9920436"><ele>240.83333333333331</ele><time>2026-04-09T09:29:22.543Z</time></trkpt><trkpt lat="46.038557" lon="11.9919104"><ele>241.0</ele><time>2026-04-09T09:29:23.541Z</time></trkpt><trkpt lat="46.0385071" lon="11.9917627"><ele>241.0</ele><time>2026-04-09T09:29:24.529Z</time></trkpt><trkpt lat="46.0384494" lon="11.9916307"><ele>241.00000000000003</ele><time>2026-04-09T09:29:25.542Z</time></trkpt><trkpt lat="46.0383981" lon="11.9915204"><ele>241.00000000000003</ele><time>2026-04-09T09:29:26.546Z</time></trkpt><trkpt lat="46.0383478" lon="11.9914317"><ele>241.0</ele><time>2026-04-09T09:29:27.537Z</time></trkpt><trkpt lat="46.0382844" lon="11.9913233"><ele>241.0</ele><time>2026-04-09T09:29:29.546Z</time></trkpt><trkpt lat="46.0381906" lon="11.9912317"><ele>240.8</ele><time>2026-04-09T09:29:33.539Z</time></trkpt><trkpt lat="46.0381076" lon="11.9910698"><ele>240.60000000000002</ele><time>2026-04-09T09:29:35.542Z</time></trkpt><trkpt lat="46.0380652" lon="11.9909676"><ele>240.4</ele><time>2026-04-09T09:29:36.54Z</time></trkpt><trkpt lat="46.0380157" lon="11.9908596"><ele>240.2</ele><time>2026-04-09T09:29:37.536Z</time></trkpt><trkpt lat="46.0379666" lon="11.9907439"><ele>240.0</ele><time>2026-04-09T09:29:38.521Z</time></trkpt><trkpt lat="46.0379002" lon="11.9906121"><ele>240.0</ele><time>2026-04-09T09:29:39.54Z</time></trkpt><trkpt lat="46.037853" lon="11.9904824"><ele>240.0</ele><time>2026-04-09T09:29:40.539Z</time></trkpt><trkpt lat="46.0378088" lon="11.990344"><ele>240.0</ele><time>2026-04-09T09:29:41.536Z</time></trkpt><trkpt lat="46.0377706" lon="11.9902171"><ele>240.0</ele><time>2026-04-09T09:29:42.543Z</time></trkpt><trkpt lat="46.0377366" lon="11.990104"><ele>240.0</ele><time>2026-04-09T09:29:43.544Z</time></trkpt><trkpt lat="46.0377034" lon="11.9899957"><ele>239.83333333333334</ele><time>2026-04-09T09:29:44.54Z</time></trkpt><trkpt lat="46.0376805" lon="11.9899038"><ele>239.66666666666669</ele><time>2026-04-09T09:29:45.535Z</time></trkpt><trkpt lat="46.0376548" lon="11.9898143"><ele>239.5</ele><time>2026-04-09T09:29:46.542Z</time></trkpt><trkpt lat="46.0376242" lon="11.989704"><ele>239.33333333333334</ele><time>2026-04-09T09:29:48.552Z</time></trkpt><trkpt lat="46.0375994" lon="11.989604"><ele>239.16666666666669</ele><time>2026-04-09T09:29:50.543Z</time></trkpt><trkpt lat="46.0375932" lon="11.9895033"><ele>239.0</ele><time>2026-04-09T09:29:52.537Z</time></trkpt><trkpt lat="46.0376169" lon="11.9893393"><ele>239.0</ele><time>2026-04-09T09:29:54.533Z</time></trkpt><trkpt lat="46.0376286" lon="11.9892077"><ele>238.99999999999997</ele><time>2026-04-09T09:29:55.535Z</time></trkpt><trkpt lat="46.0376365" lon="11.9890541"><ele>238.99999999999997</ele><time>2026-04-09T09:29:56.532Z</time></trkpt><trkpt lat="46.0376417" lon="11.988882"><ele>239.0</ele><time>2026-04-09T09:29:57.535Z</time></trkpt><trkpt lat="46.0376445" lon="11.9887058"><ele>239.0</ele><time>2026-04-09T09:29:58.545Z</time></trkpt><trkpt lat="46.0376468" lon="11.9885244"><ele>237.75</ele><time>2026-04-09T09:29:59.537Z</time></trkpt><trkpt lat="46.0376442" lon="11.9883176"><ele>236.5</ele><time>2026-04-09T09:30:00.532Z</time></trkpt><trkpt lat="46.0376487" lon="11.9881092"><ele>235.25</ele><time>2026-04-09T09:30:01.537Z</time></trkpt><trkpt lat="46.0376703" lon="11.9878954"><ele>234.0</ele><time>2026-04-09T09:30:02.544Z</time></trkpt><trkpt lat="46.0376791" lon="11.9876716"><ele>233.33333333333331</ele><time>2026-04-09T09:30:03.539Z</time></trkpt><trkpt lat="46.0376903" lon="11.9874354"><ele>232.66666666666666</ele><time>2026-04-09T09:30:04.536Z</time></trkpt><trkpt lat="46.0376999" lon="11.9872134"><ele>232.0</ele><time>2026-04-09T09:30:05.538Z</time></trkpt><trkpt lat="46.0377053" lon="11.9869972"><ele>232.0</ele><time>2026-04-09T09:30:06.534Z</time></trkpt><trkpt lat="46.0377118" lon="11.9867791"><ele>232.0</ele><time>2026-04-09T09:30:07.53Z</time></trkpt><trkpt lat="46.0377193" lon="11.9865739"><ele>232.0</ele><time>2026-04-09T09:30:08.541Z</time></trkpt><trkpt lat="46.0377197" lon="11.9863776"><ele>232.0</ele><time>2026-04-09T09:30:09.539Z</time></trkpt><trkpt lat="46.0377311" lon="11.986214"><ele>232.25</ele><time>2026-04-09T09:30:10.538Z</time></trkpt><trkpt lat="46.037733" lon="11.9860438"><ele>232.5</ele><time>2026-04-09T09:30:11.529Z</time></trkpt><trkpt lat="46.037746" lon="11.9858839"><ele>232.75</ele><time>2026-04-09T09:30:12.523Z</time></trkpt><trkpt lat="46.0378067" lon="11.9857036"><ele>233.0</ele><time>2026-04-09T09:30:14.543Z</time></trkpt><trkpt lat="46.0378699" lon="11.9856091"><ele>233.33333333333334</ele><time>2026-04-09T09:30:15.535Z</time></trkpt><trkpt lat="46.037956" lon="11.9855185"><ele>233.66666666666669</ele><time>2026-04-09T09:30:16.546Z</time></trkpt><trkpt lat="46.0380329" lon="11.9854419"><ele>234.0</ele><time>2026-04-09T09:30:17.54Z</time></trkpt><trkpt lat="46.0380946" lon="11.9853845"><ele>234.33333333333331</ele><time>2026-04-09T09:30:18.537Z</time></trkpt><trkpt lat="46.0381589" lon="11.9853163"><ele>234.66666666666666</ele><time>2026-04-09T09:30:20.538Z</time></trkpt><trkpt lat="46.0382084" lon="11.9852564"><ele>235.0</ele><time>2026-04-09T09:30:23.529Z</time></trkpt><trkpt lat="46.0383105" lon="11.9851175"><ele>236.25</ele><time>2026-04-09T09:30:25.536Z</time></trkpt><trkpt lat="46.038372" lon="11.9850055"><ele>237.5</ele><time>2026-04-09T09:30:26.529Z</time></trkpt><trkpt lat="46.0384313" lon="11.9848669"><ele>238.75</ele><time>2026-04-09T09:30:27.537Z</time></trkpt><trkpt lat="46.0384962" lon="11.9847119"><ele>240.0</ele><time>2026-04-09T09:30:28.541Z</time></trkpt><trkpt lat="46.0385627" lon="11.984536"><ele>240.0</ele><time>2026-04-09T09:30:29.534Z</time></trkpt><trkpt lat="46.0386231" lon="11.9843792"><ele>240.0</ele><time>2026-04-09T09:30:30.56Z</time></trkpt><trkpt lat="46.0386714" lon="11.9842062"><ele>240.0</ele><time>2026-04-09T09:30:31.532Z</time></trkpt><trkpt lat="46.0387218" lon="11.9840371"><ele>240.0</ele><time>2026-04-09T09:30:32.538Z</time></trkpt><trkpt lat="46.03875" lon="11.9838707"><ele>241.0</ele><time>2026-04-09T09:30:33.536Z</time></trkpt><trkpt lat="46.0387722" lon="11.9837018"><ele>242.0</ele><time>2026-04-09T09:30:34.521Z</time></trkpt><trkpt lat="46.0387828" lon="11.9835824"><ele>243.0</ele><time>2026-04-09T09:30:35.536Z</time></trkpt><trkpt lat="46.0388059" lon="11.9834751"><ele>244.0</ele><time>2026-04-09T09:30:36.533Z</time></trkpt><trkpt lat="46.0388389" lon="11.9833751"><ele>245.0</ele><time>2026-04-09T09:30:37.546Z</time></trkpt><trkpt lat="46.0388723" lon="11.9832779"><ele>246.0</ele><time>2026-04-09T09:30:38.536Z</time></trkpt><trkpt lat="46.0389049" lon="11.9831762"><ele>246.0</ele><time>2026-04-09T09:30:39.538Z</time></trkpt><trkpt lat="46.0389169" lon="11.9830749"><ele>246.00000000000003</ele><time>2026-04-09T09:30:40.538Z</time></trkpt><trkpt lat="46.0388894" lon="11.9828989"><ele>246.00000000000003</ele><time>2026-04-09T09:30:42.528Z</time></trkpt><trkpt lat="46.038838" lon="11.9828077"><ele>246.0</ele><time>2026-04-09T09:30:43.536Z</time></trkpt><trkpt lat="46.0387663" lon="11.982714"><ele>246.0</ele><time>2026-04-09T09:30:44.535Z</time></trkpt><trkpt lat="46.0386888" lon="11.9826098"><ele>245.75</ele><time>2026-04-09T09:30:45.536Z</time></trkpt><trkpt lat="46.0386128" lon="11.9824892"><ele>245.5</ele><time>2026-04-09T09:30:46.538Z</time></trkpt><trkpt lat="46.0385401" lon="11.9823616"><ele>245.25</ele><time>2026-04-09T09:30:47.541Z</time></trkpt><trkpt lat="46.0384653" lon="11.9822103"><ele>245.0</ele><time>2026-04-09T09:30:48.532Z</time></trkpt><trkpt lat="46.0383981" lon="11.9820651"><ele>245.0</ele><time>2026-04-09T09:30:49.54Z</time></trkpt><trkpt lat="46.0383352" lon="11.9819335"><ele>245.0</ele><time>2026-04-09T09:30:50.536Z</time></trkpt><trkpt lat="46.0382761" lon="11.9818028"><ele>245.0</ele><time>2026-04-09T09:30:51.537Z</time></trkpt><trkpt lat="46.0382103" lon="11.9816734"><ele>245.0</ele><time>2026-04-09T09:30:52.535Z</time></trkpt><trkpt lat="46.0381561" lon="11.9815494"><ele>245.0</ele><time>2026-04-09T09:30:53.536Z</time></trkpt><trkpt lat="46.0381038" lon="11.9814204"><ele>245.4</ele><time>2026-04-09T09:30:54.534Z</time></trkpt><trkpt lat="46.038046" lon="11.9812794"><ele>245.8</ele><time>2026-04-09T09:30:55.537Z</time></trkpt><trkpt lat="46.0379806" lon="11.9811488"><ele>246.2</ele><time>2026-04-09T09:30:56.535Z</time></trkpt><trkpt lat="46.0379281" lon="11.9810244"><ele>246.6</ele><time>2026-04-09T09:30:57.536Z</time></trkpt><trkpt lat="46.0378729" lon="11.9808931"><ele>247.0</ele><time>2026-04-09T09:30:58.537Z</time></trkpt><trkpt lat="46.0378144" lon="11.9807567"><ele>247.0</ele><time>2026-04-09T09:30:59.52Z</time></trkpt><trkpt lat="46.0377544" lon="11.9805573"><ele>247.0</ele><time>2026-04-09T09:31:00.538Z</time></trkpt><trkpt lat="46.0376896" lon="11.980397"><ele>247.0</ele><time>2026-04-09T09:31:01.529Z</time></trkpt><trkpt lat="46.0376195" lon="11.9802312"><ele>247.0</ele><time>2026-04-09T09:31:02.544Z</time></trkpt><trkpt lat="46.0375471" lon="11.9800488"><ele>247.66666666666666</ele><time>2026-04-09T09:31:03.545Z</time></trkpt><trkpt lat="46.0374696" lon="11.9798541"><ele>248.33333333333331</ele><time>2026-04-09T09:31:04.539Z</time></trkpt><trkpt lat="46.037386" lon="11.9796524"><ele>249.0</ele><time>2026-04-09T09:31:05.545Z</time></trkpt><trkpt lat="46.0373048" lon="11.9794393"><ele>251.0</ele><time>2026-04-09T09:31:06.534Z</time></trkpt><trkpt lat="46.0372174" lon="11.9792105"><ele>253.0</ele><time>2026-04-09T09:31:07.542Z</time></trkpt><trkpt lat="46.0371224" lon="11.978984"><ele>255.0</ele><time>2026-04-09T09:31:08.54Z</time></trkpt><trkpt lat="46.0370296" lon="11.9787581"><ele>255.66666666666669</ele><time>2026-04-09T09:31:09.538Z</time></trkpt><trkpt lat="46.0369307" lon="11.9785282"><ele>256.33333333333337</ele><time>2026-04-09T09:31:10.535Z</time></trkpt><trkpt lat="46.0368307" lon="11.9782916"><ele>257.0</ele><time>2026-04-09T09:31:11.537Z</time></trkpt><trkpt lat="46.0367312" lon="11.9780504"><ele>257.6666666666667</ele><time>2026-04-09T09:31:12.551Z</time></trkpt><trkpt lat="46.0366275" lon="11.9778083"><ele>258.3333333333333</ele><time>2026-04-09T09:31:13.534Z</time></trkpt><trkpt lat="46.0365301" lon="11.9775658"><ele>259.0</ele><time>2026-04-09T09:31:14.546Z</time></trkpt><trkpt lat="46.0364326" lon="11.9773282"><ele>259.0</ele><time>2026-04-09T09:31:15.544Z</time></trkpt><trkpt lat="46.0363333" lon="11.9770879"><ele>259.0</ele><time>2026-04-09T09:31:16.536Z</time></trkpt><trkpt lat="46.0362377" lon="11.9768516"><ele>259.0</ele><time>2026-04-09T09:31:17.54Z</time></trkpt><trkpt lat="46.0361379" lon="11.9766172"><ele>258.3333333333333</ele><time>2026-04-09T09:31:18.538Z</time></trkpt><trkpt lat="46.0360451" lon="11.9763795"><ele>257.6666666666667</ele><time>2026-04-09T09:31:19.536Z</time></trkpt><trkpt lat="46.0359394" lon="11.9761417"><ele>257.0</ele><time>2026-04-09T09:31:20.534Z</time></trkpt><trkpt lat="46.0358396" lon="11.975907"><ele>258.6666666666667</ele><time>2026-04-09T09:31:21.527Z</time></trkpt><trkpt lat="46.0357434" lon="11.9756645"><ele>260.3333333333333</ele><time>2026-04-09T09:31:22.535Z</time></trkpt><trkpt lat="46.0356485" lon="11.975423"><ele>262.0</ele><time>2026-04-09T09:31:23.537Z</time></trkpt><trkpt lat="46.0355504" lon="11.9751894"><ele>262.0</ele><time>2026-04-09T09:31:24.535Z</time></trkpt><trkpt lat="46.0354662" lon="11.9749564"><ele>262.0</ele><time>2026-04-09T09:31:25.534Z</time></trkpt><trkpt lat="46.0353593" lon="11.9747213"><ele>262.0</ele><time>2026-04-09T09:31:26.534Z</time></trkpt><trkpt lat="46.035265" lon="11.9744834"><ele>262.0</ele><time>2026-04-09T09:31:27.54Z</time></trkpt><trkpt lat="46.0351735" lon="11.9742491"><ele>262.0</ele><time>2026-04-09T09:31:28.535Z</time></trkpt><trkpt lat="46.035088" lon="11.9739965"><ele>262.0</ele><time>2026-04-09T09:31:29.545Z</time></trkpt><trkpt lat="46.0349791" lon="11.973774"><ele>262.66666666666663</ele><time>2026-04-09T09:31:30.532Z</time></trkpt><trkpt lat="46.034891" lon="11.9735561"><ele>263.3333333333333</ele><time>2026-04-09T09:31:31.54Z</time></trkpt><trkpt lat="46.0347919" lon="11.973338"><ele>264.0</ele><time>2026-04-09T09:31:32.536Z</time></trkpt><trkpt lat="46.034702" lon="11.9731283"><ele>264.0</ele><time>2026-04-09T09:31:33.527Z</time></trkpt><trkpt lat="46.0346046" lon="11.9729145"><ele>264.0</ele><time>2026-04-09T09:31:34.534Z</time></trkpt><trkpt lat="46.0345148" lon="11.9726918"><ele>264.0</ele><time>2026-04-09T09:31:35.521Z</time></trkpt><trkpt lat="46.0344258" lon="11.9724434"><ele>264.3333333333333</ele><time>2026-04-09T09:31:36.534Z</time></trkpt><trkpt lat="46.0343295" lon="11.9721875"><ele>264.66666666666663</ele><time>2026-04-09T09:31:37.543Z</time></trkpt><trkpt lat="46.0342363" lon="11.971929"><ele>265.0</ele><time>2026-04-09T09:31:38.539Z</time></trkpt><trkpt lat="46.0341392" lon="11.9716729"><ele>264.0</ele><time>2026-04-09T09:31:39.533Z</time></trkpt><trkpt lat="46.0340459" lon="11.971431"><ele>263.0</ele><time>2026-04-09T09:31:40.544Z</time></trkpt><trkpt lat="46.033959" lon="11.971197"><ele>262.0</ele><time>2026-04-09T09:31:41.535Z</time></trkpt><trkpt lat="46.0338773" lon="11.9709638"><ele>262.3333333333333</ele><time>2026-04-09T09:31:42.536Z</time></trkpt><trkpt lat="46.0337962" lon="11.9707349"><ele>262.6666666666667</ele><time>2026-04-09T09:31:43.544Z</time></trkpt><trkpt lat="46.0337211" lon="11.9705048"><ele>263.0</ele><time>2026-04-09T09:31:44.548Z</time></trkpt><trkpt lat="46.0336447" lon="11.9702752"><ele>263.0</ele><time>2026-04-09T09:31:45.539Z</time></trkpt><trkpt lat="46.0335788" lon="11.970037"><ele>263.0</ele><time>2026-04-09T09:31:46.538Z</time></trkpt><trkpt lat="46.0335359" lon="11.9697845"><ele>263.0</ele><time>2026-04-09T09:31:47.541Z</time></trkpt><trkpt lat="46.0335034" lon="11.9695328"><ele>263.6666666666667</ele><time>2026-04-09T09:31:48.608Z</time></trkpt><trkpt lat="46.0335011" lon="11.9692683"><ele>264.3333333333333</ele><time>2026-04-09T09:31:49.537Z</time></trkpt><trkpt lat="46.0334994" lon="11.9690124"><ele>265.0</ele><time>2026-04-09T09:31:50.543Z</time></trkpt><trkpt lat="46.0334932" lon="11.9687972"><ele>265.0</ele><time>2026-04-09T09:31:51.532Z</time></trkpt><trkpt lat="46.0334986" lon="11.968577"><ele>265.0</ele><time>2026-04-09T09:31:52.541Z</time></trkpt><trkpt lat="46.0335003" lon="11.9683513"><ele>265.0</ele><time>2026-04-09T09:31:53.536Z</time></trkpt><trkpt lat="46.033502" lon="11.9681191"><ele>265.3333333333333</ele><time>2026-04-09T09:31:54.535Z</time></trkpt><trkpt lat="46.0335064" lon="11.9678807"><ele>265.6666666666667</ele><time>2026-04-09T09:31:55.528Z</time></trkpt><trkpt lat="46.0335199" lon="11.9676261"><ele>266.0</ele><time>2026-04-09T09:31:56.534Z</time></trkpt><trkpt lat="46.0335188" lon="11.9673722"><ele>267.6666666666667</ele><time>2026-04-09T09:31:57.535Z</time></trkpt><trkpt lat="46.0335154" lon="11.9671132"><ele>269.3333333333333</ele><time>2026-04-09T09:31:58.55Z</time></trkpt><trkpt lat="46.0335055" lon="11.9668525"><ele>271.0</ele><time>2026-04-09T09:31:59.531Z</time></trkpt><trkpt lat="46.0334866" lon="11.9665942"><ele>272.3333333333333</ele><time>2026-04-09T09:32:00.534Z</time></trkpt><trkpt lat="46.0334375" lon="11.9663316"><ele>273.6666666666667</ele><time>2026-04-09T09:32:01.536Z</time></trkpt><trkpt lat="46.0333855" lon="11.9660735"><ele>275.0</ele><time>2026-04-09T09:32:02.536Z</time></trkpt><trkpt lat="46.0333139" lon="11.9658167"><ele>274.33333333333337</ele><time>2026-04-09T09:32:03.549Z</time></trkpt><trkpt lat="46.0332371" lon="11.9655557"><ele>273.6666666666667</ele><time>2026-04-09T09:32:04.545Z</time></trkpt><trkpt lat="46.0331337" lon="11.9653178"><ele>273.0</ele><time>2026-04-09T09:32:05.535Z</time></trkpt><trkpt lat="46.0330551" lon="11.9650513"><ele>273.6666666666667</ele><time>2026-04-09T09:32:06.531Z</time></trkpt><trkpt lat="46.0329713" lon="11.9647987"><ele>274.33333333333337</ele><time>2026-04-09T09:32:07.525Z</time></trkpt><trkpt lat="46.032883" lon="11.9645255"><ele>275.0</ele><time>2026-04-09T09:32:08.535Z</time></trkpt><trkpt lat="46.0327664" lon="11.964295"><ele>276.6666666666667</ele><time>2026-04-09T09:32:09.529Z</time></trkpt><trkpt lat="46.0326413" lon="11.9640605"><ele>278.3333333333333</ele><time>2026-04-09T09:32:10.545Z</time></trkpt><trkpt lat="46.032514" lon="11.963823"><ele>280.0</ele><time>2026-04-09T09:32:11.536Z</time></trkpt><trkpt lat="46.0323838" lon="11.9635996"><ele>281.3333333333333</ele><time>2026-04-09T09:32:12.532Z</time></trkpt><trkpt lat="46.0322562" lon="11.9633998"><ele>282.6666666666667</ele><time>2026-04-09T09:32:13.533Z</time></trkpt><trkpt lat="46.0321431" lon="11.9632131"><ele>284.0</ele><time>2026-04-09T09:32:14.531Z</time></trkpt><trkpt lat="46.0320372" lon="11.9630378"><ele>284.5</ele><time>2026-04-09T09:32:15.54Z</time></trkpt><trkpt lat="46.0319507" lon="11.962881"><ele>285.0</ele><time>2026-04-09T09:32:16.543Z</time></trkpt><trkpt lat="46.0318749" lon="11.9627341"><ele>285.5</ele><time>2026-04-09T09:32:17.539Z</time></trkpt><trkpt lat="46.0318" lon="11.9625855"><ele>286.0</ele><time>2026-04-09T09:32:18.542Z</time></trkpt><trkpt lat="46.0317302" lon="11.9624156"><ele>286.0</ele><time>2026-04-09T09:32:19.534Z</time></trkpt><trkpt lat="46.0316747" lon="11.9622135"><ele>286.0</ele><time>2026-04-09T09:32:20.53Z</time></trkpt><trkpt lat="46.0316243" lon="11.9620079"><ele>286.0</ele><time>2026-04-09T09:32:21.547Z</time></trkpt><trkpt lat="46.0315909" lon="11.9617985"><ele>285.75</ele><time>2026-04-09T09:32:22.545Z</time></trkpt><trkpt lat="46.0315705" lon="11.9615864"><ele>285.5</ele><time>2026-04-09T09:32:23.543Z</time></trkpt><trkpt lat="46.0315551" lon="11.9613943"><ele>285.25</ele><time>2026-04-09T09:32:24.538Z</time></trkpt><trkpt lat="46.0315284" lon="11.9612103"><ele>285.0</ele><time>2026-04-09T09:32:25.537Z</time></trkpt><trkpt lat="46.0315199" lon="11.9610289"><ele>285.5</ele><time>2026-04-09T09:32:26.538Z</time></trkpt><trkpt lat="46.0314993" lon="11.9608597"><ele>286.0</ele><time>2026-04-09T09:32:27.54Z</time></trkpt><trkpt lat="46.0314827" lon="11.9606948"><ele>286.5</ele><time>2026-04-09T09:32:28.537Z</time></trkpt><trkpt lat="46.0314674" lon="11.960535"><ele>287.0</ele><time>2026-04-09T09:32:29.535Z</time></trkpt><trkpt lat="46.0314528" lon="11.9603868"><ele>287.0</ele><time>2026-04-09T09:32:30.537Z</time></trkpt><trkpt lat="46.0314408" lon="11.9602577"><ele>287.0</ele><time>2026-04-09T09:32:31.538Z</time></trkpt><trkpt lat="46.0314383" lon="11.9601454"><ele>287.0</ele><time>2026-04-09T09:32:32.534Z</time></trkpt><trkpt lat="46.0314383" lon="11.9600341"><ele>287.0</ele><time>2026-04-09T09:32:33.535Z</time></trkpt><trkpt lat="46.0314289" lon="11.9599399"><ele>287.0</ele><time>2026-04-09T09:32:34.537Z</time></trkpt><trkpt lat="46.0313364" lon="11.9598623"><ele>287.0</ele><time>2026-04-09T09:32:36.54Z</time></trkpt><trkpt lat="46.0312661" lon="11.9598907"><ele>287.0</ele><time>2026-04-09T09:32:37.532Z</time></trkpt><trkpt lat="46.0311971" lon="11.9599562"><ele>287.0</ele><time>2026-04-09T09:32:38.534Z</time></trkpt><trkpt lat="46.0311212" lon="11.9600364"><ele>287.0</ele><time>2026-04-09T09:32:39.542Z</time></trkpt><trkpt lat="46.0310589" lon="11.9601498"><ele>287.0</ele><time>2026-04-09T09:32:40.54Z</time></trkpt><trkpt lat="46.0310015" lon="11.9602859"><ele>287.0</ele><time>2026-04-09T09:32:41.538Z</time></trkpt><trkpt lat="46.0309496" lon="11.9604603"><ele>287.0</ele><time>2026-04-09T09:32:42.537Z</time></trkpt><trkpt lat="46.0308811" lon="11.9606356"><ele>287.0</ele><time>2026-04-09T09:32:43.526Z</time></trkpt><trkpt lat="46.0308197" lon="11.9607908"><ele>287.0</ele><time>2026-04-09T09:32:44.537Z</time></trkpt><trkpt lat="46.030769" lon="11.9609359"><ele>287.0</ele><time>2026-04-09T09:32:45.53Z</time></trkpt><trkpt lat="46.0307121" lon="11.9610784"><ele>286.8</ele><time>2026-04-09T09:32:46.528Z</time></trkpt><trkpt lat="46.0306634" lon="11.9612143"><ele>286.6</ele><time>2026-04-09T09:32:47.537Z</time></trkpt><trkpt lat="46.03061" lon="11.9613448"><ele>286.40000000000003</ele><time>2026-04-09T09:32:48.533Z</time></trkpt><trkpt lat="46.0305544" lon="11.9614703"><ele>286.2</ele><time>2026-04-09T09:32:49.532Z</time></trkpt><trkpt lat="46.0305136" lon="11.9616103"><ele>286.0</ele><time>2026-04-09T09:32:50.546Z</time></trkpt><trkpt lat="46.0304662" lon="11.9617593"><ele>284.75</ele><time>2026-04-09T09:32:51.543Z</time></trkpt><trkpt lat="46.030422" lon="11.9618991"><ele>283.5</ele><time>2026-04-09T09:32:52.62Z</time></trkpt><trkpt lat="46.0303799" lon="11.962056"><ele>282.25</ele><time>2026-04-09T09:32:53.527Z</time></trkpt><trkpt lat="46.0303441" lon="11.9622265"><ele>281.0</ele><time>2026-04-09T09:32:54.534Z</time></trkpt><trkpt lat="46.0303135" lon="11.9623908"><ele>279.8</ele><time>2026-04-09T09:32:55.545Z</time></trkpt><trkpt lat="46.0302805" lon="11.9625475"><ele>278.6</ele><time>2026-04-09T09:32:56.542Z</time></trkpt><trkpt lat="46.0302583" lon="11.9626965"><ele>277.4</ele><time>2026-04-09T09:32:57.536Z</time></trkpt><trkpt lat="46.0302335" lon="11.9628449"><ele>276.2</ele><time>2026-04-09T09:32:58.533Z</time></trkpt><trkpt lat="46.0302063" lon="11.9629814"><ele>275.0</ele><time>2026-04-09T09:32:59.534Z</time></trkpt><trkpt lat="46.0301881" lon="11.963109"><ele>275.0</ele><time>2026-04-09T09:33:00.531Z</time></trkpt><trkpt lat="46.0301537" lon="11.963197"><ele>275.0</ele><time>2026-04-09T09:33:01.539Z</time></trkpt><trkpt lat="46.0301363" lon="11.9633603"><ele>275.0</ele><time>2026-04-09T09:33:21.53Z</time></trkpt><trkpt lat="46.0301423" lon="11.9634719"><ele>275.0</ele><time>2026-04-09T09:33:22.531Z</time></trkpt><trkpt lat="46.0301485" lon="11.9635958"><ele>275.0</ele><time>2026-04-09T09:33:23.533Z</time></trkpt><trkpt lat="46.0301621" lon="11.9637188"><ele>275.0</ele><time>2026-04-09T09:33:24.53Z</time></trkpt><trkpt lat="46.030175" lon="11.963846"><ele>274.8</ele><time>2026-04-09T09:33:25.561Z</time></trkpt><trkpt lat="46.0301718" lon="11.9639871"><ele>274.6</ele><time>2026-04-09T09:33:26.54Z</time></trkpt><trkpt lat="46.0301551" lon="11.9641177"><ele>274.4</ele><time>2026-04-09T09:33:27.541Z</time></trkpt><trkpt lat="46.0301199" lon="11.9642339"><ele>274.2</ele><time>2026-04-09T09:33:28.539Z</time></trkpt><trkpt lat="46.0300782" lon="11.9643531"><ele>274.0</ele><time>2026-04-09T09:33:29.534Z</time></trkpt><trkpt lat="46.0299908" lon="11.9644325"><ele>272.0</ele><time>2026-04-09T09:33:30.535Z</time></trkpt><trkpt lat="46.0299131" lon="11.9645208"><ele>270.0</ele><time>2026-04-09T09:33:31.544Z</time></trkpt><trkpt lat="46.0298545" lon="11.9646166"><ele>268.0</ele><time>2026-04-09T09:33:32.537Z</time></trkpt><trkpt lat="46.0297954" lon="11.9647283"><ele>266.0</ele><time>2026-04-09T09:33:33.535Z</time></trkpt><trkpt lat="46.0297349" lon="11.9648784"><ele>264.0</ele><time>2026-04-09T09:33:34.54Z</time></trkpt><trkpt lat="46.0297084" lon="11.9650444"><ele>262.75</ele><time>2026-04-09T09:33:35.536Z</time></trkpt><trkpt lat="46.0297019" lon="11.9652359"><ele>261.5</ele><time>2026-04-09T09:33:36.536Z</time></trkpt><trkpt lat="46.029689" lon="11.9654264"><ele>260.25</ele><time>2026-04-09T09:33:37.538Z</time></trkpt><trkpt lat="46.0296767" lon="11.965608"><ele>259.0</ele><time>2026-04-09T09:33:38.545Z</time></trkpt><trkpt lat="46.0296584" lon="11.9657773"><ele>258.0</ele><time>2026-04-09T09:33:39.544Z</time></trkpt><trkpt lat="46.029601" lon="11.9659358"><ele>257.0</ele><time>2026-04-09T09:33:40.535Z</time></trkpt><trkpt lat="46.0295512" lon="11.9660843"><ele>256.0</ele><time>2026-04-09T09:33:41.542Z</time></trkpt><trkpt lat="46.0295147" lon="11.9662389"><ele>255.0</ele><time>2026-04-09T09:33:42.551Z</time></trkpt><trkpt lat="46.0294827" lon="11.96639"><ele>255.0</ele><time>2026-04-09T09:33:43.536Z</time></trkpt><trkpt lat="46.0294551" lon="11.9665202"><ele>255.0</ele><time>2026-04-09T09:33:44.535Z</time></trkpt><trkpt lat="46.0294275" lon="11.9666283"><ele>255.0</ele><time>2026-04-09T09:33:45.546Z</time></trkpt><trkpt lat="46.0293971" lon="11.9667225"><ele>255.0</ele><time>2026-04-09T09:33:46.538Z</time></trkpt><trkpt lat="46.0293318" lon="11.9667838"><ele>255.0</ele><time>2026-04-09T09:33:47.54Z</time></trkpt><trkpt lat="46.0292636" lon="11.9668156"><ele>255.0</ele><time>2026-04-09T09:33:48.547Z</time></trkpt><trkpt lat="46.0291999" lon="11.9668219"><ele>254.2</ele><time>2026-04-09T09:33:49.529Z</time></trkpt><trkpt lat="46.0290913" lon="11.966827"><ele>253.4</ele><time>2026-04-09T09:33:51.542Z</time></trkpt><trkpt lat="46.0290236" lon="11.9668431"><ele>252.60000000000002</ele><time>2026-04-09T09:33:52.532Z</time></trkpt><trkpt lat="46.0289237" lon="11.9668532"><ele>251.8</ele><time>2026-04-09T09:33:53.531Z</time></trkpt><trkpt lat="46.0288283" lon="11.9668939"><ele>251.0</ele><time>2026-04-09T09:33:54.535Z</time></trkpt><trkpt lat="46.0287246" lon="11.9669521"><ele>251.0</ele><time>2026-04-09T09:33:55.531Z</time></trkpt><trkpt lat="46.0286453" lon="11.9670813"><ele>251.0</ele><time>2026-04-09T09:33:56.537Z</time></trkpt><trkpt lat="46.0285671" lon="11.9671999"><ele>251.0</ele><time>2026-04-09T09:33:57.536Z</time></trkpt><trkpt lat="46.028499" lon="11.9673438"><ele>251.0</ele><time>2026-04-09T09:33:58.53Z</time></trkpt><trkpt lat="46.0284292" lon="11.9675278"><ele>251.0</ele><time>2026-04-09T09:33:59.534Z</time></trkpt><trkpt lat="46.0283712" lon="11.9676979"><ele>251.0</ele><time>2026-04-09T09:34:00.535Z</time></trkpt><trkpt lat="46.0283142" lon="11.9678829"><ele>251.0</ele><time>2026-04-09T09:34:01.538Z</time></trkpt><trkpt lat="46.028238" lon="11.9680682"><ele>251.0</ele><time>2026-04-09T09:34:02.532Z</time></trkpt><trkpt lat="46.0281717" lon="11.9682722"><ele>251.0</ele><time>2026-04-09T09:34:03.54Z</time></trkpt><trkpt lat="46.0280975" lon="11.9684769"><ele>251.0</ele><time>2026-04-09T09:34:04.537Z</time></trkpt><trkpt lat="46.0280219" lon="11.96868"><ele>251.0</ele><time>2026-04-09T09:34:05.535Z</time></trkpt><trkpt lat="46.0279617" lon="11.9688795"><ele>251.0</ele><time>2026-04-09T09:34:06.532Z</time></trkpt><trkpt lat="46.0279298" lon="11.9690715"><ele>251.0</ele><time>2026-04-09T09:34:07.527Z</time></trkpt><trkpt lat="46.0278899" lon="11.9692818"><ele>251.0</ele><time>2026-04-09T09:34:08.532Z</time></trkpt><trkpt lat="46.0278568" lon="11.9695036"><ele>251.0</ele><time>2026-04-09T09:34:09.535Z</time></trkpt><trkpt lat="46.0278418" lon="11.9697375"><ele>251.5</ele><time>2026-04-09T09:34:10.531Z</time></trkpt><trkpt lat="46.0278281" lon="11.9699699"><ele>252.0</ele><time>2026-04-09T09:34:11.521Z</time></trkpt><trkpt lat="46.0278257" lon="11.9701395"><ele>252.5</ele><time>2026-04-09T09:34:12.545Z</time></trkpt><trkpt lat="46.0278163" lon="11.9702992"><ele>253.0</ele><time>2026-04-09T09:34:13.539Z</time></trkpt><trkpt lat="46.0277922" lon="11.970403"><ele>253.0</ele><time>2026-04-09T09:34:14.54Z</time></trkpt><trkpt lat="46.0277313" lon="11.9705229"><ele>253.0</ele><time>2026-04-09T09:34:16.535Z</time></trkpt><trkpt lat="46.0275846" lon="11.9705547"><ele>253.0</ele><time>2026-04-09T09:34:18.538Z</time></trkpt><trkpt lat="46.027479" lon="11.970555"><ele>253.0</ele><time>2026-04-09T09:34:19.539Z</time></trkpt><trkpt lat="46.0273538" lon="11.9705529"><ele>253.0</ele><time>2026-04-09T09:34:20.542Z</time></trkpt><trkpt lat="46.0272246" lon="11.9705583"><ele>253.0</ele><time>2026-04-09T09:34:21.541Z</time></trkpt><trkpt lat="46.0270791" lon="11.9705674"><ele>253.0</ele><time>2026-04-09T09:34:22.538Z</time></trkpt><trkpt lat="46.0269277" lon="11.9705626"><ele>253.0</ele><time>2026-04-09T09:34:23.535Z</time></trkpt><trkpt lat="46.0267701" lon="11.9705438"><ele>252.33333333333331</ele><time>2026-04-09T09:34:24.545Z</time></trkpt><trkpt lat="46.026611" lon="11.9705109"><ele>251.66666666666669</ele><time>2026-04-09T09:34:25.537Z</time></trkpt><trkpt lat="46.0264376" lon="11.9704676"><ele>251.0</ele><time>2026-04-09T09:34:26.537Z</time></trkpt><trkpt lat="46.0262646" lon="11.9704153"><ele>251.0</ele><time>2026-04-09T09:34:27.537Z</time></trkpt><trkpt lat="46.0260815" lon="11.9703572"><ele>251.0</ele><time>2026-04-09T09:34:28.536Z</time></trkpt><trkpt lat="46.0259124" lon="11.9702812"><ele>251.0</ele><time>2026-04-09T09:34:29.532Z</time></trkpt><trkpt lat="46.0257474" lon="11.9702292"><ele>250.25</ele><time>2026-04-09T09:34:30.534Z</time></trkpt><trkpt lat="46.0255828" lon="11.9701725"><ele>249.5</ele><time>2026-04-09T09:34:31.534Z</time></trkpt><trkpt lat="46.0254436" lon="11.9701268"><ele>248.75</ele><time>2026-04-09T09:34:32.535Z</time></trkpt><trkpt lat="46.0253286" lon="11.9700765"><ele>248.0</ele><time>2026-04-09T09:34:33.534Z</time></trkpt><trkpt lat="46.0252213" lon="11.9700003"><ele>248.0</ele><time>2026-04-09T09:34:34.533Z</time></trkpt><trkpt lat="46.025127" lon="11.969928"><ele>248.0</ele><time>2026-04-09T09:34:35.527Z</time></trkpt><trkpt lat="46.0250553" lon="11.9698343"><ele>248.0</ele><time>2026-04-09T09:34:36.539Z</time></trkpt><trkpt lat="46.0249849" lon="11.9696761"><ele>248.0</ele><time>2026-04-09T09:34:37.535Z</time></trkpt><trkpt lat="46.0249205" lon="11.9695102"><ele>247.33333333333334</ele><time>2026-04-09T09:34:38.532Z</time></trkpt><trkpt lat="46.024852" lon="11.9693234"><ele>246.66666666666669</ele><time>2026-04-09T09:34:39.542Z</time></trkpt><trkpt lat="46.0247826" lon="11.9691058"><ele>246.0</ele><time>2026-04-09T09:34:40.534Z</time></trkpt><trkpt lat="46.0247139" lon="11.9688818"><ele>246.0</ele><time>2026-04-09T09:34:41.53Z</time></trkpt><trkpt lat="46.0246338" lon="11.9686564"><ele>246.0</ele><time>2026-04-09T09:34:42.537Z</time></trkpt><trkpt lat="46.0245549" lon="11.9684196"><ele>246.0</ele><time>2026-04-09T09:34:43.531Z</time></trkpt><trkpt lat="46.0244727" lon="11.9681788"><ele>247.0</ele><time>2026-04-09T09:34:44.528Z</time></trkpt><trkpt lat="46.0243832" lon="11.9679357"><ele>248.0</ele><time>2026-04-09T09:34:45.54Z</time></trkpt><trkpt lat="46.0242739" lon="11.9677113"><ele>249.0</ele><time>2026-04-09T09:34:46.54Z</time></trkpt><trkpt lat="46.0241518" lon="11.9675005"><ele>247.66666666666669</ele><time>2026-04-09T09:34:47.538Z</time></trkpt><trkpt lat="46.0240068" lon="11.9672879"><ele>246.33333333333334</ele><time>2026-04-09T09:34:48.531Z</time></trkpt><trkpt lat="46.0238589" lon="11.9671013"><ele>245.0</ele><time>2026-04-09T09:34:49.543Z</time></trkpt><trkpt lat="46.0237258" lon="11.9669301"><ele>245.0</ele><time>2026-04-09T09:34:50.534Z</time></trkpt><trkpt lat="46.0236066" lon="11.9667551"><ele>245.0</ele><time>2026-04-09T09:34:51.533Z</time></trkpt><trkpt lat="46.0235056" lon="11.9665709"><ele>245.0</ele><time>2026-04-09T09:34:52.542Z</time></trkpt><trkpt lat="46.0234462" lon="11.966345"><ele>244.66666666666669</ele><time>2026-04-09T09:34:53.534Z</time></trkpt><trkpt lat="46.0233609" lon="11.9660848"><ele>244.33333333333331</ele><time>2026-04-09T09:34:54.535Z</time></trkpt><trkpt lat="46.0232708" lon="11.9658131"><ele>244.0</ele><time>2026-04-09T09:34:55.535Z</time></trkpt><trkpt lat="46.0231823" lon="11.9655164"><ele>244.0</ele><time>2026-04-09T09:34:56.539Z</time></trkpt><trkpt lat="46.0230971" lon="11.965223"><ele>244.0</ele><time>2026-04-09T09:34:57.547Z</time></trkpt><trkpt lat="46.0230248" lon="11.9649646"><ele>244.0</ele><time>2026-04-09T09:34:58.543Z</time></trkpt><trkpt lat="46.0229483" lon="11.9646941"><ele>244.33333333333331</ele><time>2026-04-09T09:34:59.521Z</time></trkpt><trkpt lat="46.0228912" lon="11.9644233"><ele>244.66666666666669</ele><time>2026-04-09T09:35:00.54Z</time></trkpt><trkpt lat="46.0228304" lon="11.964122"><ele>245.0</ele><time>2026-04-09T09:35:01.534Z</time></trkpt><trkpt lat="46.0227554" lon="11.9638214"><ele>246.66666666666669</ele><time>2026-04-09T09:35:02.541Z</time></trkpt><trkpt lat="46.0226909" lon="11.9635155"><ele>248.33333333333331</ele><time>2026-04-09T09:35:03.534Z</time></trkpt><trkpt lat="46.0226291" lon="11.963212"><ele>250.0</ele><time>2026-04-09T09:35:04.54Z</time></trkpt><trkpt lat="46.0225561" lon="11.9628975"><ele>251.5</ele><time>2026-04-09T09:35:05.535Z</time></trkpt><trkpt lat="46.022496" lon="11.9625595"><ele>253.0</ele><time>2026-04-09T09:35:06.533Z</time></trkpt><trkpt lat="46.0224464" lon="11.9622274"><ele>248.0</ele><time>2026-04-09T09:35:07.535Z</time></trkpt><trkpt lat="46.022404" lon="11.9618911"><ele>243.0</ele><time>2026-04-09T09:35:08.532Z</time></trkpt><trkpt lat="46.0223512" lon="11.9615913"><ele>243.0</ele><time>2026-04-09T09:35:09.541Z</time></trkpt><trkpt lat="46.0222995" lon="11.9613189"><ele>243.0</ele><time>2026-04-09T09:35:10.532Z</time></trkpt><trkpt lat="46.0222535" lon="11.9610524"><ele>243.0</ele><time>2026-04-09T09:35:11.535Z</time></trkpt><trkpt lat="46.0222036" lon="11.9607952"><ele>243.0</ele><time>2026-04-09T09:35:12.534Z</time></trkpt><trkpt lat="46.0221466" lon="11.9605751"><ele>243.0</ele><time>2026-04-09T09:35:13.543Z</time></trkpt><trkpt lat="46.0220954" lon="11.960371"><ele>243.0</ele><time>2026-04-09T09:35:14.544Z</time></trkpt><trkpt lat="46.0220371" lon="11.9601773"><ele>243.25</ele><time>2026-04-09T09:35:15.538Z</time></trkpt><trkpt lat="46.0219806" lon="11.9600122"><ele>243.5</ele><time>2026-04-09T09:35:16.531Z</time></trkpt><trkpt lat="46.0219162" lon="11.9598604"><ele>243.75</ele><time>2026-04-09T09:35:17.546Z</time></trkpt><trkpt lat="46.0218571" lon="11.9597228"><ele>244.0</ele><time>2026-04-09T09:35:18.534Z</time></trkpt><trkpt lat="46.021804" lon="11.9595921"><ele>243.99999999999997</ele><time>2026-04-09T09:35:19.52Z</time></trkpt><trkpt lat="46.0217549" lon="11.9595162"><ele>244.0</ele><time>2026-04-09T09:35:20.535Z</time></trkpt><trkpt lat="46.0217224" lon="11.959412"><ele>244.0</ele><time>2026-04-09T09:35:21.542Z</time></trkpt><trkpt lat="46.021703" lon="11.9593047"><ele>244.0</ele><time>2026-04-09T09:35:22.543Z</time></trkpt><trkpt lat="46.0216861" lon="11.9592037"><ele>243.99999999999997</ele><time>2026-04-09T09:35:23.535Z</time></trkpt><trkpt lat="46.0216648" lon="11.9590912"><ele>244.0</ele><time>2026-04-09T09:35:24.532Z</time></trkpt><trkpt lat="46.0216376" lon="11.9589616"><ele>242.6</ele><time>2026-04-09T09:35:25.536Z</time></trkpt><trkpt lat="46.0216221" lon="11.9588193"><ele>241.2</ele><time>2026-04-09T09:35:26.544Z</time></trkpt><trkpt lat="46.0215999" lon="11.9586692"><ele>239.79999999999998</ele><time>2026-04-09T09:35:27.54Z</time></trkpt><trkpt lat="46.0215735" lon="11.9585108"><ele>238.39999999999998</ele><time>2026-04-09T09:35:28.536Z</time></trkpt><trkpt lat="46.0215425" lon="11.9583643"><ele>237.0</ele><time>2026-04-09T09:35:29.534Z</time></trkpt><trkpt lat="46.0215237" lon="11.9582167"><ele>237.0</ele><time>2026-04-09T09:35:30.539Z</time></trkpt><trkpt lat="46.0214986" lon="11.9580744"><ele>237.0</ele><time>2026-04-09T09:35:31.545Z</time></trkpt><trkpt lat="46.0214695" lon="11.957932"><ele>237.0</ele><time>2026-04-09T09:35:32.548Z</time></trkpt><trkpt lat="46.0214326" lon="11.9577924"><ele>237.0</ele><time>2026-04-09T09:35:33.546Z</time></trkpt><trkpt lat="46.0213939" lon="11.9576589"><ele>237.0</ele><time>2026-04-09T09:35:34.534Z</time></trkpt><trkpt lat="46.0213719" lon="11.9575217"><ele>237.8</ele><time>2026-04-09T09:35:35.538Z</time></trkpt><trkpt lat="46.0213515" lon="11.9573714"><ele>238.6</ele><time>2026-04-09T09:35:36.541Z</time></trkpt><trkpt lat="46.0213315" lon="11.9572271"><ele>239.40000000000003</ele><time>2026-04-09T09:35:37.541Z</time></trkpt><trkpt lat="46.0213193" lon="11.9570767"><ele>240.20000000000002</ele><time>2026-04-09T09:35:38.539Z</time></trkpt><trkpt lat="46.0213117" lon="11.9569379"><ele>241.0</ele><time>2026-04-09T09:35:39.534Z</time></trkpt><trkpt lat="46.021297" lon="11.9568092"><ele>241.0</ele><time>2026-04-09T09:35:40.544Z</time></trkpt><trkpt lat="46.0212771" lon="11.9566801"><ele>241.00000000000003</ele><time>2026-04-09T09:35:41.532Z</time></trkpt><trkpt lat="46.0212407" lon="11.9565462"><ele>241.00000000000003</ele><time>2026-04-09T09:35:42.537Z</time></trkpt><trkpt lat="46.0212048" lon="11.9564132"><ele>241.0</ele><time>2026-04-09T09:35:43.533Z</time></trkpt><trkpt lat="46.021175" lon="11.9562903"><ele>241.0</ele><time>2026-04-09T09:35:44.536Z</time></trkpt><trkpt lat="46.0211213" lon="11.9561528"><ele>241.0</ele><time>2026-04-09T09:35:45.539Z</time></trkpt><trkpt lat="46.0210571" lon="11.9560244"><ele>241.0</ele><time>2026-04-09T09:35:46.528Z</time></trkpt><trkpt lat="46.0209804" lon="11.9558958"><ele>241.0</ele><time>2026-04-09T09:35:47.537Z</time></trkpt><trkpt lat="46.0209001" lon="11.9557539"><ele>241.0</ele><time>2026-04-09T09:35:48.544Z</time></trkpt><trkpt lat="46.0208077" lon="11.9556037"><ele>240.0</ele><time>2026-04-09T09:35:49.54Z</time></trkpt><trkpt lat="46.0207161" lon="11.9554448"><ele>239.0</ele><time>2026-04-09T09:35:50.548Z</time></trkpt><trkpt lat="46.020632" lon="11.9552862"><ele>238.0</ele><time>2026-04-09T09:35:51.539Z</time></trkpt><trkpt lat="46.0205385" lon="11.9551408"><ele>237.0</ele><time>2026-04-09T09:35:52.536Z</time></trkpt><trkpt lat="46.0204504" lon="11.9549861"><ele>237.0</ele><time>2026-04-09T09:35:53.542Z</time></trkpt><trkpt lat="46.0203659" lon="11.9548274"><ele>237.0</ele><time>2026-04-09T09:35:54.544Z</time></trkpt><trkpt lat="46.0202877" lon="11.9546655"><ele>237.0</ele><time>2026-04-09T09:35:55.542Z</time></trkpt><trkpt lat="46.0202067" lon="11.9545029"><ele>237.0</ele><time>2026-04-09T09:35:56.543Z</time></trkpt><trkpt lat="46.0201418" lon="11.9543319"><ele>236.5</ele><time>2026-04-09T09:35:57.544Z</time></trkpt><trkpt lat="46.0200622" lon="11.9541613"><ele>236.0</ele><time>2026-04-09T09:35:58.534Z</time></trkpt><trkpt lat="46.0199848" lon="11.9539959"><ele>235.5</ele><time>2026-04-09T09:35:59.535Z</time></trkpt><trkpt lat="46.0199246" lon="11.9538177"><ele>235.0</ele><time>2026-04-09T09:36:00.536Z</time></trkpt><trkpt lat="46.0198578" lon="11.953648"><ele>235.0</ele><time>2026-04-09T09:36:01.535Z</time></trkpt><trkpt lat="46.0197899" lon="11.9534694"><ele>235.0</ele><time>2026-04-09T09:36:02.535Z</time></trkpt><trkpt lat="46.0197277" lon="11.9532823"><ele>235.0</ele><time>2026-04-09T09:36:03.519Z</time></trkpt><trkpt lat="46.0196547" lon="11.9530732"><ele>235.0</ele><time>2026-04-09T09:36:04.645Z</time></trkpt><trkpt lat="46.0195178" lon="11.9526413"><ele>234.33333333333331</ele><time>2026-04-09T09:36:06.536Z</time></trkpt><trkpt lat="46.0194408" lon="11.9524314"><ele>233.66666666666669</ele><time>2026-04-09T09:36:07.538Z</time></trkpt><trkpt lat="46.0193573" lon="11.9522295"><ele>233.0</ele><time>2026-04-09T09:36:08.535Z</time></trkpt><trkpt lat="46.0192593" lon="11.9520358"><ele>233.0</ele><time>2026-04-09T09:36:09.54Z</time></trkpt><trkpt lat="46.0191579" lon="11.951845"><ele>233.0</ele><time>2026-04-09T09:36:10.535Z</time></trkpt><trkpt lat="46.0190425" lon="11.9516722"><ele>233.0</ele><time>2026-04-09T09:36:11.535Z</time></trkpt><trkpt lat="46.0189182" lon="11.951501"><ele>233.0</ele><time>2026-04-09T09:36:12.536Z</time></trkpt><trkpt lat="46.0187923" lon="11.9513327"><ele>233.0</ele><time>2026-04-09T09:36:13.546Z</time></trkpt><trkpt lat="46.018656" lon="11.9511749"><ele>233.0</ele><time>2026-04-09T09:36:14.539Z</time></trkpt><trkpt lat="46.0185196" lon="11.9510236"><ele>232.66666666666669</ele><time>2026-04-09T09:36:15.535Z</time></trkpt><trkpt lat="46.0183842" lon="11.9508608"><ele>232.33333333333331</ele><time>2026-04-09T09:36:16.544Z</time></trkpt><trkpt lat="46.018264" lon="11.9506805"><ele>232.0</ele><time>2026-04-09T09:36:17.55Z</time></trkpt><trkpt lat="46.0181473" lon="11.9504788"><ele>232.0</ele><time>2026-04-09T09:36:18.537Z</time></trkpt><trkpt lat="46.0180223" lon="11.9502837"><ele>232.0</ele><time>2026-04-09T09:36:19.536Z</time></trkpt><trkpt lat="46.0178962" lon="11.9500869"><ele>232.0</ele><time>2026-04-09T09:36:20.54Z</time></trkpt><trkpt lat="46.0177646" lon="11.9498897"><ele>233.33333333333331</ele><time>2026-04-09T09:36:21.538Z</time></trkpt><trkpt lat="46.0176318" lon="11.94969"><ele>234.66666666666669</ele><time>2026-04-09T09:36:22.548Z</time></trkpt><trkpt lat="46.0175012" lon="11.9494946"><ele>236.0</ele><time>2026-04-09T09:36:23.535Z</time></trkpt><trkpt lat="46.0173759" lon="11.9492929"><ele>234.0</ele><time>2026-04-09T09:36:24.539Z</time></trkpt><trkpt lat="46.0172448" lon="11.9490802"><ele>232.0</ele><time>2026-04-09T09:36:25.537Z</time></trkpt><trkpt lat="46.0171169" lon="11.9488711"><ele>230.0</ele><time>2026-04-09T09:36:26.534Z</time></trkpt><trkpt lat="46.0170005" lon="11.9486544"><ele>230.0</ele><time>2026-04-09T09:36:27.533Z</time></trkpt><trkpt lat="46.0168761" lon="11.948431"><ele>230.0</ele><time>2026-04-09T09:36:28.538Z</time></trkpt><trkpt lat="46.0167481" lon="11.94821"><ele>230.0</ele><time>2026-04-09T09:36:29.54Z</time></trkpt><trkpt lat="46.0166085" lon="11.9480045"><ele>230.33333333333334</ele><time>2026-04-09T09:36:30.533Z</time></trkpt><trkpt lat="46.0164659" lon="11.9478146"><ele>230.66666666666669</ele><time>2026-04-09T09:36:31.537Z</time></trkpt><trkpt lat="46.0163049" lon="11.9476499"><ele>231.0</ele><time>2026-04-09T09:36:32.535Z</time></trkpt><trkpt lat="46.0161354" lon="11.9475058"><ele>231.0</ele><time>2026-04-09T09:36:33.538Z</time></trkpt><trkpt lat="46.0159614" lon="11.9473792"><ele>231.0</ele><time>2026-04-09T09:36:34.541Z</time></trkpt><trkpt lat="46.0157932" lon="11.94725"><ele>231.0</ele><time>2026-04-09T09:36:35.546Z</time></trkpt><trkpt lat="46.0156112" lon="11.9471091"><ele>230.66666666666669</ele><time>2026-04-09T09:36:36.535Z</time></trkpt><trkpt lat="46.0154447" lon="11.9469518"><ele>230.33333333333334</ele><time>2026-04-09T09:36:37.537Z</time></trkpt><trkpt lat="46.015279" lon="11.9467928"><ele>230.0</ele><time>2026-04-09T09:36:38.533Z</time></trkpt><trkpt lat="46.0151207" lon="11.9466589"><ele>230.0</ele><time>2026-04-09T09:36:39.54Z</time></trkpt><trkpt lat="46.0149531" lon="11.9465602"><ele>230.0</ele><time>2026-04-09T09:36:40.539Z</time></trkpt><trkpt lat="46.0147995" lon="11.9464665"><ele>230.0</ele><time>2026-04-09T09:36:41.535Z</time></trkpt><trkpt lat="46.0146528" lon="11.9463655"><ele>230.0</ele><time>2026-04-09T09:36:42.542Z</time></trkpt><trkpt lat="46.0145172" lon="11.9462332"><ele>230.0</ele><time>2026-04-09T09:36:43.531Z</time></trkpt><trkpt lat="46.0144117" lon="11.9460526"><ele>230.0</ele><time>2026-04-09T09:36:44.532Z</time></trkpt><trkpt lat="46.0142895" lon="11.9458539"><ele>229.66666666666669</ele><time>2026-04-09T09:36:45.53Z</time></trkpt><trkpt lat="46.0141507" lon="11.9456429"><ele>229.33333333333331</ele><time>2026-04-09T09:36:46.531Z</time></trkpt><trkpt lat="46.0140056" lon="11.9454456"><ele>229.0</ele><time>2026-04-09T09:36:47.535Z</time></trkpt><trkpt lat="46.013848" lon="11.9452375"><ele>231.0</ele><time>2026-04-09T09:36:48.534Z</time></trkpt><trkpt lat="46.0136938" lon="11.9450387"><ele>233.0</ele><time>2026-04-09T09:36:49.532Z</time></trkpt><trkpt lat="46.0135535" lon="11.9448318"><ele>235.0</ele><time>2026-04-09T09:36:50.53Z</time></trkpt><trkpt lat="46.0133945" lon="11.944629"><ele>234.66666666666666</ele><time>2026-04-09T09:36:51.531Z</time></trkpt><trkpt lat="46.0132404" lon="11.9444226"><ele>234.33333333333331</ele><time>2026-04-09T09:36:52.534Z</time></trkpt><trkpt lat="46.0130838" lon="11.9442082"><ele>234.0</ele><time>2026-04-09T09:36:53.531Z</time></trkpt><trkpt lat="46.0129387" lon="11.9439931"><ele>234.0</ele><time>2026-04-09T09:36:54.531Z</time></trkpt><trkpt lat="46.0128095" lon="11.9437934"><ele>234.0</ele><time>2026-04-09T09:36:55.531Z</time></trkpt><trkpt lat="46.0126731" lon="11.9436015"><ele>234.0</ele><time>2026-04-09T09:36:56.53Z</time></trkpt><trkpt lat="46.0125453" lon="11.9434344"><ele>235.0</ele><time>2026-04-09T09:36:57.532Z</time></trkpt><trkpt lat="46.0124338" lon="11.9432762"><ele>236.0</ele><time>2026-04-09T09:36:58.531Z</time></trkpt><trkpt lat="46.0123179" lon="11.9431237"><ele>237.0</ele><time>2026-04-09T09:36:59.534Z</time></trkpt><trkpt lat="46.0122004" lon="11.9429852"><ele>237.0</ele><time>2026-04-09T09:37:00.537Z</time></trkpt><trkpt lat="46.0120848" lon="11.9428399"><ele>237.0</ele><time>2026-04-09T09:37:01.532Z</time></trkpt><trkpt lat="46.0120248" lon="11.9426651"><ele>237.0</ele><time>2026-04-09T09:37:02.529Z</time></trkpt><trkpt lat="46.011951" lon="11.9424817"><ele>237.0</ele><time>2026-04-09T09:37:03.54Z</time></trkpt><trkpt lat="46.0118964" lon="11.9422585"><ele>237.33333333333331</ele><time>2026-04-09T09:37:04.538Z</time></trkpt><trkpt lat="46.0118349" lon="11.9420391"><ele>237.66666666666666</ele><time>2026-04-09T09:37:05.563Z</time></trkpt><trkpt lat="46.0117634" lon="11.9418116"><ele>238.0</ele><time>2026-04-09T09:37:06.528Z</time></trkpt><trkpt lat="46.0116816" lon="11.9415802"><ele>238.33333333333331</ele><time>2026-04-09T09:37:07.526Z</time></trkpt><trkpt lat="46.0115963" lon="11.941345"><ele>238.66666666666669</ele><time>2026-04-09T09:37:08.531Z</time></trkpt><trkpt lat="46.0115028" lon="11.9410938"><ele>239.0</ele><time>2026-04-09T09:37:09.53Z</time></trkpt><trkpt lat="46.0114111" lon="11.9408453"><ele>239.33333333333334</ele><time>2026-04-09T09:37:10.53Z</time></trkpt><trkpt lat="46.011317" lon="11.9405966"><ele>239.66666666666669</ele><time>2026-04-09T09:37:11.54Z</time></trkpt><trkpt lat="46.0112184" lon="11.9403436"><ele>240.0</ele><time>2026-04-09T09:37:12.533Z</time></trkpt><trkpt lat="46.0111144" lon="11.9400858"><ele>239.33333333333331</ele><time>2026-04-09T09:37:13.526Z</time></trkpt><trkpt lat="46.0109995" lon="11.939831"><ele>238.66666666666666</ele><time>2026-04-09T09:37:14.539Z</time></trkpt><trkpt lat="46.0108786" lon="11.9395808"><ele>238.0</ele><time>2026-04-09T09:37:15.527Z</time></trkpt><trkpt lat="46.0107525" lon="11.9393287"><ele>237.0</ele><time>2026-04-09T09:37:16.534Z</time></trkpt><trkpt lat="46.01063" lon="11.9390764"><ele>236.0</ele><time>2026-04-09T09:37:17.536Z</time></trkpt><trkpt lat="46.0105168" lon="11.9388234"><ele>235.0</ele><time>2026-04-09T09:37:18.535Z</time></trkpt><trkpt lat="46.0104157" lon="11.9385993"><ele>236.0</ele><time>2026-04-09T09:37:19.534Z</time></trkpt><trkpt lat="46.0103298" lon="11.9383758"><ele>237.0</ele><time>2026-04-09T09:37:20.547Z</time></trkpt><trkpt lat="46.0102422" lon="11.9381653"><ele>238.0</ele><time>2026-04-09T09:37:21.532Z</time></trkpt><trkpt lat="46.0101697" lon="11.9379465"><ele>238.0</ele><time>2026-04-09T09:37:22.531Z</time></trkpt><trkpt lat="46.0101194" lon="11.9377177"><ele>238.0</ele><time>2026-04-09T09:37:23.545Z</time></trkpt><trkpt lat="46.0100739" lon="11.937486"><ele>238.0</ele><time>2026-04-09T09:37:24.533Z</time></trkpt><trkpt lat="46.0100303" lon="11.9372503"><ele>237.66666666666666</ele><time>2026-04-09T09:37:25.531Z</time></trkpt><trkpt lat="46.0099913" lon="11.9370181"><ele>237.33333333333331</ele><time>2026-04-09T09:37:26.537Z</time></trkpt><trkpt lat="46.0099446" lon="11.9367879"><ele>237.0</ele><time>2026-04-09T09:37:27.546Z</time></trkpt><trkpt lat="46.0098888" lon="11.93656"><ele>237.0</ele><time>2026-04-09T09:37:28.554Z</time></trkpt><trkpt lat="46.0098157" lon="11.9363381"><ele>237.0</ele><time>2026-04-09T09:37:29.534Z</time></trkpt><trkpt lat="46.0097354" lon="11.9361121"><ele>237.0</ele><time>2026-04-09T09:37:30.535Z</time></trkpt><trkpt lat="46.009654" lon="11.9358715"><ele>237.33333333333331</ele><time>2026-04-09T09:37:31.532Z</time></trkpt><trkpt lat="46.0095748" lon="11.935629"><ele>237.66666666666666</ele><time>2026-04-09T09:37:32.531Z</time></trkpt><trkpt lat="46.0094839" lon="11.9353836"><ele>238.0</ele><time>2026-04-09T09:37:33.527Z</time></trkpt><trkpt lat="46.0093945" lon="11.9351394"><ele>238.0</ele><time>2026-04-09T09:37:34.534Z</time></trkpt><trkpt lat="46.0093058" lon="11.9348884"><ele>238.0</ele><time>2026-04-09T09:37:35.54Z</time></trkpt><trkpt lat="46.0092229" lon="11.9346426"><ele>238.0</ele><time>2026-04-09T09:37:36.536Z</time></trkpt><trkpt lat="46.0091432" lon="11.9344103"><ele>237.66666666666666</ele><time>2026-04-09T09:37:37.537Z</time></trkpt><trkpt lat="46.0090701" lon="11.9341964"><ele>237.33333333333331</ele><time>2026-04-09T09:37:38.533Z</time></trkpt><trkpt lat="46.0090024" lon="11.9339937"><ele>237.0</ele><time>2026-04-09T09:37:39.543Z</time></trkpt><trkpt lat="46.008942" lon="11.933804"><ele>237.0</ele><time>2026-04-09T09:37:40.527Z</time></trkpt><trkpt lat="46.0088818" lon="11.9336261"><ele>237.0</ele><time>2026-04-09T09:37:41.535Z</time></trkpt><trkpt lat="46.0088307" lon="11.9334603"><ele>237.0</ele><time>2026-04-09T09:37:42.542Z</time></trkpt><trkpt lat="46.0087852" lon="11.9333151"><ele>237.0</ele><time>2026-04-09T09:37:43.538Z</time></trkpt><trkpt lat="46.0087513" lon="11.9331818"><ele>236.8</ele><time>2026-04-09T09:37:44.535Z</time></trkpt><trkpt lat="46.0087424" lon="11.9330476"><ele>236.6</ele><time>2026-04-09T09:37:45.534Z</time></trkpt><trkpt lat="46.0087461" lon="11.9329271"><ele>236.40000000000003</ele><time>2026-04-09T09:37:46.534Z</time></trkpt><trkpt lat="46.0087868" lon="11.9328147"><ele>236.20000000000002</ele><time>2026-04-09T09:37:47.528Z</time></trkpt><trkpt lat="46.008856" lon="11.9326959"><ele>236.0</ele><time>2026-04-09T09:37:48.537Z</time></trkpt><trkpt lat="46.0089385" lon="11.9325664"><ele>235.75</ele><time>2026-04-09T09:37:49.535Z</time></trkpt><trkpt lat="46.0090324" lon="11.9324202"><ele>235.5</ele><time>2026-04-09T09:37:50.533Z</time></trkpt><trkpt lat="46.009127" lon="11.9322578"><ele>235.25</ele><time>2026-04-09T09:37:51.548Z</time></trkpt><trkpt lat="46.0092194" lon="11.9320733"><ele>235.0</ele><time>2026-04-09T09:37:52.53Z</time></trkpt><trkpt lat="46.0093048" lon="11.9318679"><ele>236.0</ele><time>2026-04-09T09:37:53.535Z</time></trkpt><trkpt lat="46.0093691" lon="11.9316389"><ele>237.0</ele><time>2026-04-09T09:37:54.527Z</time></trkpt><trkpt lat="46.0094185" lon="11.9314157"><ele>238.0</ele><time>2026-04-09T09:37:55.53Z</time></trkpt><trkpt lat="46.0094301" lon="11.9312137"><ele>238.0</ele><time>2026-04-09T09:37:56.529Z</time></trkpt><trkpt lat="46.0094311" lon="11.9310142"><ele>238.0</ele><time>2026-04-09T09:37:57.585Z</time></trkpt><trkpt lat="46.009383" lon="11.9308836"><ele>238.0</ele><time>2026-04-09T09:37:58.534Z</time></trkpt><trkpt lat="46.0093422" lon="11.9307555"><ele>238.0</ele><time>2026-04-09T09:37:59.534Z</time></trkpt><trkpt lat="46.0093289" lon="11.9306318"><ele>238.0</ele><time>2026-04-09T09:38:00.533Z</time></trkpt><trkpt lat="46.0093342" lon="11.930536"><ele>237.75</ele><time>2026-04-09T09:38:01.533Z</time></trkpt><trkpt lat="46.0093954" lon="11.9303796"><ele>237.5</ele><time>2026-04-09T09:38:03.535Z</time></trkpt><trkpt lat="46.0094433" lon="11.9302644"><ele>237.25</ele><time>2026-04-09T09:38:04.533Z</time></trkpt><trkpt lat="46.0094991" lon="11.9301295"><ele>237.0</ele><time>2026-04-09T09:38:05.543Z</time></trkpt><trkpt lat="46.0095399" lon="11.9299573"><ele>237.5</ele><time>2026-04-09T09:38:06.535Z</time></trkpt><trkpt lat="46.0095905" lon="11.9298023"><ele>238.0</ele><time>2026-04-09T09:38:07.537Z</time></trkpt><trkpt lat="46.0096402" lon="11.9296478"><ele>238.5</ele><time>2026-04-09T09:38:08.528Z</time></trkpt><trkpt lat="46.0096951" lon="11.9295"><ele>239.0</ele><time>2026-04-09T09:38:09.537Z</time></trkpt><trkpt lat="46.009766" lon="11.9293682"><ele>239.0</ele><time>2026-04-09T09:38:10.535Z</time></trkpt><trkpt lat="46.0098594" lon="11.9292314"><ele>239.0</ele><time>2026-04-09T09:38:11.534Z</time></trkpt><trkpt lat="46.0099611" lon="11.9291031"><ele>239.0</ele><time>2026-04-09T09:38:12.654Z</time></trkpt><trkpt lat="46.0101309" lon="11.9288574"><ele>238.75</ele><time>2026-04-09T09:38:14.536Z</time></trkpt><trkpt lat="46.0101837" lon="11.9287342"><ele>238.5</ele><time>2026-04-09T09:38:15.542Z</time></trkpt><trkpt lat="46.0102129" lon="11.9285718"><ele>238.25</ele><time>2026-04-09T09:38:16.535Z</time></trkpt><trkpt lat="46.0102312" lon="11.9284052"><ele>238.0</ele><time>2026-04-09T09:38:17.533Z</time></trkpt><trkpt lat="46.0102408" lon="11.9282123"><ele>239.0</ele><time>2026-04-09T09:38:18.535Z</time></trkpt><trkpt lat="46.0102448" lon="11.9279917"><ele>240.0</ele><time>2026-04-09T09:38:19.537Z</time></trkpt><trkpt lat="46.0102516" lon="11.9277271"><ele>241.0</ele><time>2026-04-09T09:38:20.533Z</time></trkpt><trkpt lat="46.0102796" lon="11.9274386"><ele>242.0</ele><time>2026-04-09T09:38:21.531Z</time></trkpt><trkpt lat="46.0103166" lon="11.9271271"><ele>243.0</ele><time>2026-04-09T09:38:22.537Z</time></trkpt><trkpt lat="46.0103541" lon="11.9267872"><ele>242.5</ele><time>2026-04-09T09:38:23.528Z</time></trkpt><trkpt lat="46.010403" lon="11.926444"><ele>242.0</ele><time>2026-04-09T09:38:24.547Z</time></trkpt><trkpt lat="46.0104614" lon="11.9261269"><ele>241.66666666666669</ele><time>2026-04-09T09:38:25.532Z</time></trkpt><trkpt lat="46.0105245" lon="11.9258253"><ele>241.33333333333331</ele><time>2026-04-09T09:38:26.541Z</time></trkpt><trkpt lat="46.0106185" lon="11.92557"><ele>241.0</ele><time>2026-04-09T09:38:27.538Z</time></trkpt><trkpt lat="46.0107099" lon="11.925322"><ele>241.0</ele><time>2026-04-09T09:38:28.539Z</time></trkpt><trkpt lat="46.0108014" lon="11.9251149"><ele>241.0</ele><time>2026-04-09T09:38:29.545Z</time></trkpt><trkpt lat="46.0109107" lon="11.9249208"><ele>241.0</ele><time>2026-04-09T09:38:30.533Z</time></trkpt><trkpt lat="46.011021" lon="11.9247462"><ele>241.66666666666666</ele><time>2026-04-09T09:38:31.533Z</time></trkpt><trkpt lat="46.0111344" lon="11.9245611"><ele>242.33333333333331</ele><time>2026-04-09T09:38:32.545Z</time></trkpt><trkpt lat="46.0112381" lon="11.9243995"><ele>243.0</ele><time>2026-04-09T09:38:33.534Z</time></trkpt><trkpt lat="46.0113392" lon="11.9242639"><ele>242.33333333333331</ele><time>2026-04-09T09:38:34.54Z</time></trkpt><trkpt lat="46.011456" lon="11.9241465"><ele>241.66666666666666</ele><time>2026-04-09T09:38:35.539Z</time></trkpt><trkpt lat="46.0115766" lon="11.924013"><ele>241.0</ele><time>2026-04-09T09:38:36.53Z</time></trkpt><trkpt lat="46.0117142" lon="11.9238837"><ele>243.0</ele><time>2026-04-09T09:38:37.535Z</time></trkpt><trkpt lat="46.0118521" lon="11.9237588"><ele>245.0</ele><time>2026-04-09T09:38:38.532Z</time></trkpt><trkpt lat="46.0119841" lon="11.9236268"><ele>247.0</ele><time>2026-04-09T09:38:39.534Z</time></trkpt><trkpt lat="46.0120976" lon="11.9235221"><ele>246.99999999999997</ele><time>2026-04-09T09:38:40.543Z</time></trkpt><trkpt lat="46.0121667" lon="11.9234267"><ele>247.0</ele><time>2026-04-09T09:38:41.534Z</time></trkpt><trkpt lat="46.0122255" lon="11.9233344"><ele>247.0</ele><time>2026-04-09T09:38:42.539Z</time></trkpt><trkpt lat="46.0122478" lon="11.9232281"><ele>247.0</ele><time>2026-04-09T09:38:43.533Z</time></trkpt><trkpt lat="46.0122538" lon="11.9230899"><ele>246.99999999999997</ele><time>2026-04-09T09:38:44.534Z</time></trkpt><trkpt lat="46.0122356" lon="11.9229845"><ele>247.0</ele><time>2026-04-09T09:38:45.533Z</time></trkpt><trkpt lat="46.012224" lon="11.9228821"><ele>246.16666666666666</ele><time>2026-04-09T09:38:46.53Z</time></trkpt><trkpt lat="46.0122112" lon="11.9227897"><ele>245.33333333333331</ele><time>2026-04-09T09:38:47.539Z</time></trkpt><trkpt lat="46.0121758" lon="11.9226901"><ele>244.5</ele><time>2026-04-09T09:38:48.528Z</time></trkpt><trkpt lat="46.0121184" lon="11.9226129"><ele>243.66666666666669</ele><time>2026-04-09T09:38:49.532Z</time></trkpt><trkpt lat="46.0120331" lon="11.9225591"><ele>242.83333333333334</ele><time>2026-04-09T09:38:50.536Z</time></trkpt><trkpt lat="46.0119437" lon="11.9225149"><ele>242.0</ele><time>2026-04-09T09:38:51.54Z</time></trkpt><trkpt lat="46.0118105" lon="11.9224709"><ele>242.0</ele><time>2026-04-09T09:38:52.533Z</time></trkpt><trkpt lat="46.0116759" lon="11.9224127"><ele>242.0</ele><time>2026-04-09T09:38:53.543Z</time></trkpt><trkpt lat="46.0115234" lon="11.9223266"><ele>242.0</ele><time>2026-04-09T09:38:54.543Z</time></trkpt><trkpt lat="46.0113852" lon="11.9222424"><ele>242.0</ele><time>2026-04-09T09:38:55.543Z</time></trkpt><trkpt lat="46.0112468" lon="11.922154"><ele>242.0</ele><time>2026-04-09T09:38:56.521Z</time></trkpt><trkpt lat="46.0110692" lon="11.9220757"><ele>242.0</ele><time>2026-04-09T09:38:57.547Z</time></trkpt><trkpt lat="46.0109162" lon="11.9219839"><ele>242.0</ele><time>2026-04-09T09:38:58.533Z</time></trkpt><trkpt lat="46.0107635" lon="11.9218773"><ele>242.0</ele><time>2026-04-09T09:38:59.536Z</time></trkpt><trkpt lat="46.0106062" lon="11.9217532"><ele>242.0</ele><time>2026-04-09T09:39:00.534Z</time></trkpt><trkpt lat="46.0104351" lon="11.9216349"><ele>241.33333333333334</ele><time>2026-04-09T09:39:01.541Z</time></trkpt><trkpt lat="46.0102955" lon="11.9215101"><ele>240.66666666666669</ele><time>2026-04-09T09:39:02.534Z</time></trkpt><trkpt lat="46.0101498" lon="11.9213792"><ele>240.0</ele><time>2026-04-09T09:39:03.536Z</time></trkpt><trkpt lat="46.0100319" lon="11.9212548"><ele>240.0</ele><time>2026-04-09T09:39:04.53Z</time></trkpt><trkpt lat="46.0099229" lon="11.9211292"><ele>240.0</ele><time>2026-04-09T09:39:05.533Z</time></trkpt><trkpt lat="46.0098399" lon="11.9209752"><ele>240.0</ele><time>2026-04-09T09:39:06.548Z</time></trkpt><trkpt lat="46.009776" lon="11.9208063"><ele>240.0</ele><time>2026-04-09T09:39:07.53Z</time></trkpt><trkpt lat="46.0096899" lon="11.9206406"><ele>240.25</ele><time>2026-04-09T09:39:08.53Z</time></trkpt><trkpt lat="46.0095905" lon="11.9205167"><ele>240.5</ele><time>2026-04-09T09:39:09.535Z</time></trkpt><trkpt lat="46.0094725" lon="11.9204226"><ele>240.75</ele><time>2026-04-09T09:39:10.535Z</time></trkpt><trkpt lat="46.0093369" lon="11.9203407"><ele>241.0</ele><time>2026-04-09T09:39:11.533Z</time></trkpt><trkpt lat="46.0091799" lon="11.9202923"><ele>241.66666666666666</ele><time>2026-04-09T09:39:12.531Z</time></trkpt><trkpt lat="46.0089803" lon="11.9202857"><ele>242.33333333333331</ele><time>2026-04-09T09:39:13.533Z</time></trkpt><trkpt lat="46.0087648" lon="11.9202711"><ele>243.0</ele><time>2026-04-09T09:39:14.533Z</time></trkpt><trkpt lat="46.0085537" lon="11.9202301"><ele>243.0</ele><time>2026-04-09T09:39:15.535Z</time></trkpt><trkpt lat="46.0083494" lon="11.9202404"><ele>243.0</ele><time>2026-04-09T09:39:16.531Z</time></trkpt><trkpt lat="46.008142" lon="11.9202691"><ele>243.0</ele><time>2026-04-09T09:39:17.517Z</time></trkpt><trkpt lat="46.0079471" lon="11.9204112"><ele>243.66666666666669</ele><time>2026-04-09T09:39:18.538Z</time></trkpt><trkpt lat="46.0077572" lon="11.9205122"><ele>244.33333333333334</ele><time>2026-04-09T09:39:19.534Z</time></trkpt><trkpt lat="46.0075875" lon="11.9205989"><ele>245.0</ele><time>2026-04-09T09:39:20.543Z</time></trkpt><trkpt lat="46.00743" lon="11.9206517"><ele>245.0</ele><time>2026-04-09T09:39:21.534Z</time></trkpt><trkpt lat="46.0072682" lon="11.9206874"><ele>245.0</ele><time>2026-04-09T09:39:22.539Z</time></trkpt><trkpt lat="46.0071523" lon="11.9207011"><ele>245.0</ele><time>2026-04-09T09:39:23.574Z</time></trkpt><trkpt lat="46.0070791" lon="11.9207103"><ele>245.0</ele><time>2026-04-09T09:39:24.527Z</time></trkpt><trkpt lat="46.0070105" lon="11.9207264"><ele>245.0</ele><time>2026-04-09T09:39:27.541Z</time></trkpt><trkpt lat="46.0069213" lon="11.9207764"><ele>245.00000000000003</ele><time>2026-04-09T09:40:14.533Z</time></trkpt><trkpt lat="46.0068396" lon="11.9207887"><ele>245.0</ele><time>2026-04-09T09:40:15.529Z</time></trkpt><trkpt lat="46.0067521" lon="11.920797"><ele>245.0</ele><time>2026-04-09T09:40:16.531Z</time></trkpt><trkpt lat="46.00667" lon="11.9207977"><ele>245.0</ele><time>2026-04-09T09:40:17.529Z</time></trkpt><trkpt lat="46.0065944" lon="11.9208162"><ele>245.00000000000003</ele><time>2026-04-09T09:40:18.54Z</time></trkpt><trkpt lat="46.0065201" lon="11.9208384"><ele>245.0</ele><time>2026-04-09T09:40:19.535Z</time></trkpt><trkpt lat="46.0063988" lon="11.9208473"><ele>245.50000000000003</ele><time>2026-04-09T09:40:21.519Z</time></trkpt><trkpt lat="46.0063099" lon="11.9208767"><ele>246.0</ele><time>2026-04-09T09:40:22.532Z</time></trkpt><trkpt lat="46.0062169" lon="11.9209128"><ele>246.5</ele><time>2026-04-09T09:40:23.53Z</time></trkpt><trkpt lat="46.0061356" lon="11.920943"><ele>247.0</ele><time>2026-04-09T09:40:24.541Z</time></trkpt><trkpt lat="46.0060756" lon="11.9210176"><ele>247.50000000000003</ele><time>2026-04-09T09:40:25.535Z</time></trkpt><trkpt lat="46.006024" lon="11.921113"><ele>248.0</ele><time>2026-04-09T09:40:26.532Z</time></trkpt><trkpt lat="46.0059685" lon="11.9211909"><ele>248.0</ele><time>2026-04-09T09:40:27.541Z</time></trkpt><trkpt lat="46.0059343" lon="11.9212765"><ele>248.0</ele><time>2026-04-09T09:40:28.533Z</time></trkpt><trkpt lat="46.0058962" lon="11.9213686"><ele>248.0</ele><time>2026-04-09T09:40:29.532Z</time></trkpt><trkpt lat="46.0058455" lon="11.9214744"><ele>248.0</ele><time>2026-04-09T09:40:30.531Z</time></trkpt><trkpt lat="46.0057762" lon="11.9215941"><ele>248.0</ele><time>2026-04-09T09:40:31.534Z</time></trkpt><trkpt lat="46.0056954" lon="11.9217031"><ele>248.75</ele><time>2026-04-09T09:40:32.545Z</time></trkpt><trkpt lat="46.0056056" lon="11.9217979"><ele>249.5</ele><time>2026-04-09T09:40:33.533Z</time></trkpt><trkpt lat="46.0055019" lon="11.9218882"><ele>250.25</ele><time>2026-04-09T09:40:34.542Z</time></trkpt><trkpt lat="46.005396" lon="11.9219804"><ele>251.0</ele><time>2026-04-09T09:40:35.536Z</time></trkpt><trkpt lat="46.0052776" lon="11.922067"><ele>251.0</ele><time>2026-04-09T09:40:36.538Z</time></trkpt><trkpt lat="46.0051433" lon="11.9221414"><ele>251.0</ele><time>2026-04-09T09:40:37.536Z</time></trkpt><trkpt lat="46.0050052" lon="11.9222134"><ele>251.0</ele><time>2026-04-09T09:40:38.528Z</time></trkpt><trkpt lat="46.0048487" lon="11.9222815"><ele>258.0</ele><time>2026-04-09T09:40:39.528Z</time></trkpt><trkpt lat="46.004571" lon="11.9223733"><ele>265.0</ele><time>2026-04-09T09:40:40.533Z</time></trkpt><trkpt lat="46.0043563" lon="11.9224619"><ele>265.3333333333333</ele><time>2026-04-09T09:40:41.528Z</time></trkpt><trkpt lat="46.00416" lon="11.9225384"><ele>265.6666666666667</ele><time>2026-04-09T09:40:42.535Z</time></trkpt><trkpt lat="46.0039709" lon="11.9226188"><ele>266.0</ele><time>2026-04-09T09:40:43.53Z</time></trkpt><trkpt lat="46.003861" lon="11.9226691"><ele>266.0</ele><time>2026-04-09T09:40:44.531Z</time></trkpt><trkpt lat="46.003721" lon="11.922727"><ele>266.0</ele><time>2026-04-09T09:40:45.53Z</time></trkpt><trkpt lat="46.0036134" lon="11.9227755"><ele>266.0</ele><time>2026-04-09T09:40:46.534Z</time></trkpt><trkpt lat="46.0035176" lon="11.9228128"><ele>266.0</ele><time>2026-04-09T09:40:47.537Z</time></trkpt><trkpt lat="46.0034165" lon="11.9228329"><ele>266.0</ele><time>2026-04-09T09:40:48.534Z</time></trkpt><trkpt lat="46.0033411" lon="11.9228056"><ele>266.0</ele><time>2026-04-09T09:40:49.53Z</time></trkpt><trkpt lat="46.0032985" lon="11.922729"><ele>266.0</ele><time>2026-04-09T09:40:50.536Z</time></trkpt><trkpt lat="46.0032856" lon="11.9226165"><ele>266.0</ele><time>2026-04-09T09:40:51.531Z</time></trkpt><trkpt lat="46.003305" lon="11.9224669"><ele>266.0</ele><time>2026-04-09T09:40:52.538Z</time></trkpt><trkpt lat="46.0033332" lon="11.92229"><ele>267.5</ele><time>2026-04-09T09:40:53.536Z</time></trkpt><trkpt lat="46.003383" lon="11.9221153"><ele>269.0</ele><time>2026-04-09T09:40:54.534Z</time></trkpt><trkpt lat="46.0034476" lon="11.9219392"><ele>270.5</ele><time>2026-04-09T09:40:55.529Z</time></trkpt><trkpt lat="46.0035088" lon="11.9217533"><ele>272.0</ele><time>2026-04-09T09:40:56.534Z</time></trkpt><trkpt lat="46.0035527" lon="11.9215589"><ele>274.5</ele><time>2026-04-09T09:40:57.533Z</time></trkpt><trkpt lat="46.003574" lon="11.9213716"><ele>277.0</ele><time>2026-04-09T09:40:58.53Z</time></trkpt><trkpt lat="46.0035517" lon="11.9211635"><ele>279.5</ele><time>2026-04-09T09:40:59.53Z</time></trkpt><trkpt lat="46.0035268" lon="11.9209458"><ele>282.0</ele><time>2026-04-09T09:41:00.529Z</time></trkpt><trkpt lat="46.0035085" lon="11.9207464"><ele>283.5</ele><time>2026-04-09T09:41:01.533Z</time></trkpt><trkpt lat="46.0034746" lon="11.9205395"><ele>285.0</ele><time>2026-04-09T09:41:02.533Z</time></trkpt><trkpt lat="46.0034621" lon="11.9203577"><ele>286.5</ele><time>2026-04-09T09:41:03.531Z</time></trkpt><trkpt lat="46.0034573" lon="11.9201519"><ele>288.0</ele><time>2026-04-09T09:41:04.53Z</time></trkpt><trkpt lat="46.0034574" lon="11.9199518"><ele>288.75</ele><time>2026-04-09T09:41:05.529Z</time></trkpt><trkpt lat="46.00347" lon="11.9197475"><ele>289.5</ele><time>2026-04-09T09:41:06.53Z</time></trkpt><trkpt lat="46.00348" lon="11.9195378"><ele>290.25</ele><time>2026-04-09T09:41:07.531Z</time></trkpt><trkpt lat="46.0035007" lon="11.919339"><ele>291.0</ele><time>2026-04-09T09:41:08.53Z</time></trkpt><trkpt lat="46.0035285" lon="11.9191376"><ele>291.0</ele><time>2026-04-09T09:41:09.53Z</time></trkpt><trkpt lat="46.0035513" lon="11.9189281"><ele>291.0</ele><time>2026-04-09T09:41:10.533Z</time></trkpt><trkpt lat="46.0035687" lon="11.9187133"><ele>291.0</ele><time>2026-04-09T09:41:11.535Z</time></trkpt><trkpt lat="46.003595" lon="11.9185027"><ele>291.0</ele><time>2026-04-09T09:41:12.534Z</time></trkpt><trkpt lat="46.0036284" lon="11.9183089"><ele>292.0</ele><time>2026-04-09T09:41:13.532Z</time></trkpt><trkpt lat="46.0036502" lon="11.9181361"><ele>293.0</ele><time>2026-04-09T09:41:14.532Z</time></trkpt><trkpt lat="46.003675" lon="11.917973"><ele>294.0</ele><time>2026-04-09T09:41:15.535Z</time></trkpt><trkpt lat="46.0037016" lon="11.9178014"><ele>295.0</ele><time>2026-04-09T09:41:16.53Z</time></trkpt><trkpt lat="46.0037249" lon="11.9176076"><ele>296.0</ele><time>2026-04-09T09:41:17.531Z</time></trkpt><trkpt lat="46.003753" lon="11.9174004"><ele>297.0</ele><time>2026-04-09T09:41:18.527Z</time></trkpt><trkpt lat="46.0037746" lon="11.9171945"><ele>298.0</ele><time>2026-04-09T09:41:19.536Z</time></trkpt><trkpt lat="46.0037977" lon="11.9169888"><ele>299.0</ele><time>2026-04-09T09:41:20.529Z</time></trkpt><trkpt lat="46.0038287" lon="11.9167701"><ele>301.0</ele><time>2026-04-09T09:41:21.533Z</time></trkpt><trkpt lat="46.0038714" lon="11.9165529"><ele>303.0</ele><time>2026-04-09T09:41:22.536Z</time></trkpt><trkpt lat="46.0039145" lon="11.9163458"><ele>305.0</ele><time>2026-04-09T09:41:23.532Z</time></trkpt><trkpt lat="46.0039749" lon="11.9161728"><ele>307.0</ele><time>2026-04-09T09:41:24.533Z</time></trkpt><trkpt lat="46.0040498" lon="11.9160042"><ele>308.75</ele><time>2026-04-09T09:41:25.536Z</time></trkpt><trkpt lat="46.0041291" lon="11.9158589"><ele>310.5</ele><time>2026-04-09T09:41:26.531Z</time></trkpt><trkpt lat="46.0042046" lon="11.9157099"><ele>312.25</ele><time>2026-04-09T09:41:27.53Z</time></trkpt><trkpt lat="46.004287" lon="11.9155581"><ele>314.0</ele><time>2026-04-09T09:41:28.53Z</time></trkpt><trkpt lat="46.0043649" lon="11.9154074"><ele>309.75</ele><time>2026-04-09T09:41:29.535Z</time></trkpt><trkpt lat="46.0044524" lon="11.9152444"><ele>305.5</ele><time>2026-04-09T09:41:30.531Z</time></trkpt><trkpt lat="46.0045341" lon="11.9150668"><ele>301.25</ele><time>2026-04-09T09:41:31.531Z</time></trkpt><trkpt lat="46.0046103" lon="11.9148868"><ele>297.0</ele><time>2026-04-09T09:41:32.539Z</time></trkpt><trkpt lat="46.0046889" lon="11.9146932"><ele>297.0</ele><time>2026-04-09T09:41:33.531Z</time></trkpt><trkpt lat="46.0047724" lon="11.9145108"><ele>297.0</ele><time>2026-04-09T09:41:34.53Z</time></trkpt><trkpt lat="46.0048495" lon="11.9143071"><ele>297.0</ele><time>2026-04-09T09:41:35.532Z</time></trkpt><trkpt lat="46.0049154" lon="11.9141041"><ele>292.6666666666667</ele><time>2026-04-09T09:41:36.533Z</time></trkpt><trkpt lat="46.0049985" lon="11.9138945"><ele>288.33333333333337</ele><time>2026-04-09T09:41:37.535Z</time></trkpt><trkpt lat="46.0050817" lon="11.9136827"><ele>284.0</ele><time>2026-04-09T09:41:38.53Z</time></trkpt><trkpt lat="46.0051659" lon="11.9134636"><ele>286.0</ele><time>2026-04-09T09:41:39.529Z</time></trkpt><trkpt lat="46.0052361" lon="11.9132615"><ele>288.0</ele><time>2026-04-09T09:41:40.535Z</time></trkpt><trkpt lat="46.0053106" lon="11.9130573"><ele>290.0</ele><time>2026-04-09T09:41:41.537Z</time></trkpt><trkpt lat="46.0053886" lon="11.9128617"><ele>290.0</ele><time>2026-04-09T09:41:42.534Z</time></trkpt><trkpt lat="46.0054638" lon="11.9126924"><ele>290.0</ele><time>2026-04-09T09:41:43.531Z</time></trkpt><trkpt lat="46.0055286" lon="11.9125174"><ele>290.0</ele><time>2026-04-09T09:41:44.538Z</time></trkpt><trkpt lat="46.0055905" lon="11.9123462"><ele>290.0</ele><time>2026-04-09T09:41:45.532Z</time></trkpt><trkpt lat="46.0056572" lon="11.9121709"><ele>291.0</ele><time>2026-04-09T09:41:46.533Z</time></trkpt><trkpt lat="46.0057329" lon="11.9120067"><ele>292.0</ele><time>2026-04-09T09:41:47.533Z</time></trkpt><trkpt lat="46.0058147" lon="11.9118345"><ele>293.0</ele><time>2026-04-09T09:41:48.532Z</time></trkpt><trkpt lat="46.005894" lon="11.9116709"><ele>294.0</ele><time>2026-04-09T09:41:49.529Z</time></trkpt><trkpt lat="46.0059643" lon="11.9115488"><ele>292.1666666666667</ele><time>2026-04-09T09:41:50.533Z</time></trkpt><trkpt lat="46.0060143" lon="11.9114547"><ele>290.3333333333333</ele><time>2026-04-09T09:41:51.534Z</time></trkpt><trkpt lat="46.0060629" lon="11.9113739"><ele>288.5</ele><time>2026-04-09T09:41:52.533Z</time></trkpt><trkpt lat="46.0061465" lon="11.9113899"><ele>286.66666666666663</ele><time>2026-04-09T09:41:54.549Z</time></trkpt><trkpt lat="46.0062664" lon="11.9114973"><ele>284.8333333333333</ele><time>2026-04-09T09:41:56.533Z</time></trkpt><trkpt lat="46.0063137" lon="11.9115627"><ele>283.0</ele><time>2026-04-09T09:41:57.534Z</time></trkpt><trkpt lat="46.0063737" lon="11.9117156"><ele>283.4</ele><time>2026-04-09T09:41:59.532Z</time></trkpt><trkpt lat="46.0063994" lon="11.9117987"><ele>283.8</ele><time>2026-04-09T09:42:00.527Z</time></trkpt><trkpt lat="46.0064372" lon="11.9118896"><ele>284.2</ele><time>2026-04-09T09:42:01.53Z</time></trkpt><trkpt lat="46.0064731" lon="11.9119761"><ele>284.6</ele><time>2026-04-09T09:42:02.529Z</time></trkpt><trkpt lat="46.0065594" lon="11.9120963"><ele>285.0</ele><time>2026-04-09T09:42:04.541Z</time></trkpt><trkpt lat="46.0067028" lon="11.9121476"><ele>282.6666666666667</ele><time>2026-04-09T09:42:06.532Z</time></trkpt><trkpt lat="46.006777" lon="11.9121566"><ele>280.3333333333333</ele><time>2026-04-09T09:42:07.543Z</time></trkpt><trkpt lat="46.0068506" lon="11.9121665"><ele>278.0</ele><time>2026-04-09T09:42:08.532Z</time></trkpt><trkpt lat="46.0069305" lon="11.912164"><ele>275.66666666666663</ele><time>2026-04-09T09:42:10.533Z</time></trkpt><trkpt lat="46.0070146" lon="11.9120863"><ele>273.3333333333333</ele><time>2026-04-09T09:42:12.533Z</time></trkpt><trkpt lat="46.0070676" lon="11.9119667"><ele>271.0</ele><time>2026-04-09T09:42:13.538Z</time></trkpt><trkpt lat="46.0071118" lon="11.9118088"><ele>271.6</ele><time>2026-04-09T09:42:14.537Z</time></trkpt><trkpt lat="46.0071549" lon="11.9116548"><ele>272.20000000000005</ele><time>2026-04-09T09:42:15.531Z</time></trkpt><trkpt lat="46.007194" lon="11.9114998"><ele>272.79999999999995</ele><time>2026-04-09T09:42:16.53Z</time></trkpt><trkpt lat="46.0072376" lon="11.9114002"><ele>273.4</ele><time>2026-04-09T09:42:17.532Z</time></trkpt><trkpt lat="46.0072907" lon="11.911322"><ele>274.0</ele><time>2026-04-09T09:42:18.532Z</time></trkpt><trkpt lat="46.0074202" lon="11.9113181"><ele>274.0</ele><time>2026-04-09T09:42:20.531Z</time></trkpt><trkpt lat="46.0074889" lon="11.9113536"><ele>274.0</ele><time>2026-04-09T09:42:21.527Z</time></trkpt><trkpt lat="46.0075486" lon="11.911428"><ele>274.0</ele><time>2026-04-09T09:42:22.531Z</time></trkpt><trkpt lat="46.0075968" lon="11.9115004"><ele>274.0</ele><time>2026-04-09T09:42:23.531Z</time></trkpt><trkpt lat="46.0075653" lon="11.911743"><ele>274.0</ele><time>2026-04-09T09:42:25.532Z</time></trkpt><trkpt lat="46.0075128" lon="11.9118605"><ele>273.4</ele><time>2026-04-09T09:42:26.53Z</time></trkpt><trkpt lat="46.007459" lon="11.911985"><ele>272.79999999999995</ele><time>2026-04-09T09:42:27.53Z</time></trkpt><trkpt lat="46.0074286" lon="11.9120917"><ele>272.20000000000005</ele><time>2026-04-09T09:42:28.661Z</time></trkpt><trkpt lat="46.007411" lon="11.912276"><ele>271.6</ele><time>2026-04-09T09:42:30.531Z</time></trkpt><trkpt lat="46.0074833" lon="11.9123706"><ele>271.0</ele><time>2026-04-09T09:42:32.528Z</time></trkpt><trkpt lat="46.007548" lon="11.9124027"><ele>271.0</ele><time>2026-04-09T09:42:33.54Z</time></trkpt><trkpt lat="46.0076085" lon="11.9124536"><ele>271.0</ele><time>2026-04-09T09:42:34.531Z</time></trkpt><trkpt lat="46.0076616" lon="11.9125312"><ele>271.0</ele><time>2026-04-09T09:42:35.529Z</time></trkpt><trkpt lat="46.0076943" lon="11.9126269"><ele>271.0</ele><time>2026-04-09T09:42:36.552Z</time></trkpt><trkpt lat="46.0077178" lon="11.9127376"><ele>271.0</ele><time>2026-04-09T09:42:37.529Z</time></trkpt><trkpt lat="46.0077351" lon="11.9128671"><ele>271.0</ele><time>2026-04-09T09:42:38.527Z</time></trkpt><trkpt lat="46.0077599" lon="11.9130002"><ele>271.0</ele><time>2026-04-09T09:42:39.536Z</time></trkpt><trkpt lat="46.0077841" lon="11.9131236"><ele>271.0</ele><time>2026-04-09T09:42:40.535Z</time></trkpt><trkpt lat="46.0078118" lon="11.9132422"><ele>271.0</ele><time>2026-04-09T09:42:41.534Z</time></trkpt><trkpt lat="46.007822" lon="11.9133721"><ele>271.0</ele><time>2026-04-09T09:42:42.536Z</time></trkpt><trkpt lat="46.0078439" lon="11.9134928"><ele>271.0</ele><time>2026-04-09T09:42:43.553Z</time></trkpt><trkpt lat="46.007859" lon="11.9136003"><ele>271.0</ele><time>2026-04-09T09:42:44.527Z</time></trkpt><trkpt lat="46.0078587" lon="11.9137143"><ele>271.5</ele><time>2026-04-09T09:42:45.563Z</time></trkpt><trkpt lat="46.0078628" lon="11.9138291"><ele>272.0</ele><time>2026-04-09T09:42:46.533Z</time></trkpt><trkpt lat="46.0078507" lon="11.9139396"><ele>272.5</ele><time>2026-04-09T09:42:47.532Z</time></trkpt><trkpt lat="46.0078359" lon="11.9140554"><ele>273.0</ele><time>2026-04-09T09:42:48.541Z</time></trkpt><trkpt lat="46.0078252" lon="11.9141615"><ele>273.5</ele><time>2026-04-09T09:42:49.53Z</time></trkpt><trkpt lat="46.0078154" lon="11.9142721"><ele>274.0</ele><time>2026-04-09T09:42:50.553Z</time></trkpt><trkpt lat="46.0078084" lon="11.9143672"><ele>275.25</ele><time>2026-04-09T09:42:51.533Z</time></trkpt><trkpt lat="46.00781" lon="11.9144861"><ele>276.5</ele><time>2026-04-09T09:42:53.539Z</time></trkpt><trkpt lat="46.0079326" lon="11.9145439"><ele>277.75</ele><time>2026-04-09T09:42:56.525Z</time></trkpt><trkpt lat="46.0080446" lon="11.9145718"><ele>279.0</ele><time>2026-04-09T09:42:58.534Z</time></trkpt><trkpt lat="46.0081719" lon="11.9145816"><ele>279.0</ele><time>2026-04-09T09:43:00.538Z</time></trkpt><trkpt lat="46.0082514" lon="11.9145928"><ele>279.0</ele><time>2026-04-09T09:43:01.533Z</time></trkpt><trkpt lat="46.0083331" lon="11.9146074"><ele>279.0</ele><time>2026-04-09T09:43:02.535Z</time></trkpt><trkpt lat="46.0084522" lon="11.9146308"><ele>279.0</ele><time>2026-04-09T09:43:04.534Z</time></trkpt><trkpt lat="46.0085134" lon="11.9145948"><ele>279.0</ele><time>2026-04-09T09:43:09.54Z</time></trkpt><trkpt lat="46.0084416" lon="11.9145596"><ele>279.0</ele><time>2026-04-09T09:43:12.543Z</time></trkpt><trkpt lat="46.0082667" lon="11.9144964"><ele>279.0</ele><time>2026-04-09T09:43:14.536Z</time></trkpt><trkpt lat="46.0081514" lon="11.9144969"><ele>279.0</ele><time>2026-04-09T09:43:15.534Z</time></trkpt><trkpt lat="46.0080663" lon="11.914498"><ele>279.0</ele><time>2026-04-09T09:43:16.535Z</time></trkpt><trkpt lat="46.0079841" lon="11.9144936"><ele>279.0</ele><time>2026-04-09T09:43:17.537Z</time></trkpt><trkpt lat="46.007914" lon="11.9144769"><ele>279.0</ele><time>2026-04-09T09:43:18.535Z</time></trkpt><trkpt lat="46.0078312" lon="11.9144053"><ele>279.0</ele><time>2026-04-09T09:43:20.532Z</time></trkpt><trkpt lat="46.007833" lon="11.9142443"><ele>279.0</ele><time>2026-04-09T09:43:22.543Z</time></trkpt><trkpt lat="46.0078382" lon="11.914111"><ele>279.0</ele><time>2026-04-09T09:43:23.536Z</time></trkpt><trkpt lat="46.0078456" lon="11.9139627"><ele>279.0</ele><time>2026-04-09T09:43:24.53Z</time></trkpt><trkpt lat="46.0078559" lon="11.9138059"><ele>279.0</ele><time>2026-04-09T09:43:25.526Z</time></trkpt><trkpt lat="46.0078597" lon="11.9136403"><ele>277.75</ele><time>2026-04-09T09:43:26.532Z</time></trkpt><trkpt lat="46.0078458" lon="11.9134628"><ele>276.5</ele><time>2026-04-09T09:43:27.544Z</time></trkpt><trkpt lat="46.0078223" lon="11.9132837"><ele>275.25</ele><time>2026-04-09T09:43:28.544Z</time></trkpt><trkpt lat="46.0077953" lon="11.9131049"><ele>274.0</ele><time>2026-04-09T09:43:29.539Z</time></trkpt><trkpt lat="46.0077557" lon="11.9129338"><ele>273.5</ele><time>2026-04-09T09:43:30.536Z</time></trkpt><trkpt lat="46.0077209" lon="11.9127736"><ele>273.0</ele><time>2026-04-09T09:43:31.545Z</time></trkpt><trkpt lat="46.0076931" lon="11.9126355"><ele>272.5</ele><time>2026-04-09T09:43:32.641Z</time></trkpt><trkpt lat="46.0076615" lon="11.9125229"><ele>272.0</ele><time>2026-04-09T09:43:33.526Z</time></trkpt><trkpt lat="46.0076234" lon="11.9124334"><ele>271.5</ele><time>2026-04-09T09:43:34.535Z</time></trkpt><trkpt lat="46.0075722" lon="11.9123733"><ele>271.0</ele><time>2026-04-09T09:43:35.535Z</time></trkpt><trkpt lat="46.0075105" lon="11.9123355"><ele>271.0</ele><time>2026-04-09T09:43:36.534Z</time></trkpt><trkpt lat="46.0074289" lon="11.9122363"><ele>271.0</ele><time>2026-04-09T09:43:38.539Z</time></trkpt><trkpt lat="46.0074381" lon="11.9120609"><ele>271.0</ele><time>2026-04-09T09:43:40.539Z</time></trkpt><trkpt lat="46.0074768" lon="11.9119225"><ele>271.0</ele><time>2026-04-09T09:43:41.532Z</time></trkpt><trkpt lat="46.0075197" lon="11.9117702"><ele>271.0</ele><time>2026-04-09T09:43:42.535Z</time></trkpt><trkpt lat="46.0075583" lon="11.9116408"><ele>271.0</ele><time>2026-04-09T09:43:43.531Z</time></trkpt><trkpt lat="46.00756" lon="11.9115251"><ele>271.0</ele><time>2026-04-09T09:43:44.54Z</time></trkpt><trkpt lat="46.007533" lon="11.9114408"><ele>271.0</ele><time>2026-04-09T09:43:45.545Z</time></trkpt><trkpt lat="46.0074832" lon="11.9113554"><ele>271.0</ele><time>2026-04-09T09:43:46.541Z</time></trkpt><trkpt lat="46.0074282" lon="11.911287"><ele>271.0</ele><time>2026-04-09T09:43:47.537Z</time></trkpt><trkpt lat="46.0073512" lon="11.9112688"><ele>271.0</ele><time>2026-04-09T09:43:48.536Z</time></trkpt><trkpt lat="46.0072817" lon="11.9112918"><ele>271.0</ele><time>2026-04-09T09:43:49.533Z</time></trkpt><trkpt lat="46.0071833" lon="11.9114452"><ele>271.0</ele><time>2026-04-09T09:43:51.533Z</time></trkpt><trkpt lat="46.0071577" lon="11.9115604"><ele>271.0</ele><time>2026-04-09T09:43:52.535Z</time></trkpt><trkpt lat="46.0071268" lon="11.9117023"><ele>271.0</ele><time>2026-04-09T09:43:53.531Z</time></trkpt><trkpt lat="46.0070906" lon="11.9118401"><ele>271.0</ele><time>2026-04-09T09:43:54.535Z</time></trkpt><trkpt lat="46.0070529" lon="11.9119585"><ele>271.0</ele><time>2026-04-09T09:43:55.533Z</time></trkpt><trkpt lat="46.0070057" lon="11.9120554"><ele>271.0</ele><time>2026-04-09T09:43:56.534Z</time></trkpt><trkpt lat="46.006953" lon="11.9121151"><ele>271.0</ele><time>2026-04-09T09:43:57.535Z</time></trkpt><trkpt lat="46.0068821" lon="11.9121426"><ele>271.0</ele><time>2026-04-09T09:43:58.532Z</time></trkpt><trkpt lat="46.006801" lon="11.9121427"><ele>271.0</ele><time>2026-04-09T09:43:59.523Z</time></trkpt><trkpt lat="46.00672" lon="11.9121404"><ele>271.0</ele><time>2026-04-09T09:44:00.537Z</time></trkpt><trkpt lat="46.0065992" lon="11.9121053"><ele>271.0</ele><time>2026-04-09T09:44:02.531Z</time></trkpt><trkpt lat="46.0065256" lon="11.912055"><ele>273.0</ele><time>2026-04-09T09:44:04.529Z</time></trkpt><trkpt lat="46.0064711" lon="11.912009"><ele>275.0</ele><time>2026-04-09T09:44:06.532Z</time></trkpt><trkpt lat="46.0064108" lon="11.9118884"><ele>277.0</ele><time>2026-04-09T09:44:08.531Z</time></trkpt><trkpt lat="46.0063785" lon="11.9117979"><ele>279.0</ele><time>2026-04-09T09:44:09.529Z</time></trkpt><trkpt lat="46.0063417" lon="11.9117046"><ele>281.0</ele><time>2026-04-09T09:44:10.53Z</time></trkpt><trkpt lat="46.0062992" lon="11.9116179"><ele>283.0</ele><time>2026-04-09T09:44:11.53Z</time></trkpt><trkpt lat="46.0062487" lon="11.9115343"><ele>283.0</ele><time>2026-04-09T09:44:12.535Z</time></trkpt><trkpt lat="46.0061923" lon="11.9114452"><ele>283.0</ele><time>2026-04-09T09:44:13.532Z</time></trkpt><trkpt lat="46.006152" lon="11.911361"><ele>283.0</ele><time>2026-04-09T09:44:14.534Z</time></trkpt><trkpt lat="46.0061586" lon="11.9112354"><ele>283.0</ele><time>2026-04-09T09:44:16.542Z</time></trkpt><trkpt lat="46.0062317" lon="11.9110344"><ele>283.0</ele><time>2026-04-09T09:44:18.538Z</time></trkpt><trkpt lat="46.0062888" lon="11.9109115"><ele>282.5</ele><time>2026-04-09T09:44:19.529Z</time></trkpt><trkpt lat="46.0063489" lon="11.9107643"><ele>282.0</ele><time>2026-04-09T09:44:20.533Z</time></trkpt><trkpt lat="46.0064284" lon="11.9106086"><ele>281.5</ele><time>2026-04-09T09:44:21.537Z</time></trkpt><trkpt lat="46.0065082" lon="11.9104413"><ele>281.0</ele><time>2026-04-09T09:44:22.534Z</time></trkpt><trkpt lat="46.0065986" lon="11.9102469"><ele>279.6666666666667</ele><time>2026-04-09T09:44:23.545Z</time></trkpt><trkpt lat="46.0066951" lon="11.9100424"><ele>278.3333333333333</ele><time>2026-04-09T09:44:24.53Z</time></trkpt><trkpt lat="46.0067987" lon="11.9098363"><ele>277.0</ele><time>2026-04-09T09:44:25.528Z</time></trkpt><trkpt lat="46.0069073" lon="11.9096144"><ele>277.0</ele><time>2026-04-09T09:44:26.529Z</time></trkpt><trkpt lat="46.007028" lon="11.9093804"><ele>277.0</ele><time>2026-04-09T09:44:27.535Z</time></trkpt><trkpt lat="46.0071471" lon="11.9091399"><ele>277.0</ele><time>2026-04-09T09:44:28.536Z</time></trkpt><trkpt lat="46.0072583" lon="11.9089035"><ele>278.66666666666663</ele><time>2026-04-09T09:44:29.539Z</time></trkpt><trkpt lat="46.0073716" lon="11.9086847"><ele>280.3333333333333</ele><time>2026-04-09T09:44:30.538Z</time></trkpt><trkpt lat="46.0074605" lon="11.9084841"><ele>282.0</ele><time>2026-04-09T09:44:31.542Z</time></trkpt><trkpt lat="46.0075496" lon="11.9083018"><ele>285.3333333333333</ele><time>2026-04-09T09:44:32.535Z</time></trkpt><trkpt lat="46.0076258" lon="11.9081271"><ele>288.66666666666663</ele><time>2026-04-09T09:44:33.538Z</time></trkpt><trkpt lat="46.0076934" lon="11.9079348"><ele>292.0</ele><time>2026-04-09T09:44:34.541Z</time></trkpt><trkpt lat="46.007758" lon="11.9077292"><ele>293.5</ele><time>2026-04-09T09:44:35.532Z</time></trkpt><trkpt lat="46.007807" lon="11.9075377"><ele>295.0</ele><time>2026-04-09T09:44:36.539Z</time></trkpt><trkpt lat="46.0078434" lon="11.9073565"><ele>296.5</ele><time>2026-04-09T09:44:37.535Z</time></trkpt><trkpt lat="46.0078642" lon="11.907189"><ele>298.0</ele><time>2026-04-09T09:44:38.536Z</time></trkpt><trkpt lat="46.0078717" lon="11.9070277"><ele>298.0</ele><time>2026-04-09T09:44:39.523Z</time></trkpt><trkpt lat="46.0078788" lon="11.9068657"><ele>298.0</ele><time>2026-04-09T09:44:40.533Z</time></trkpt><trkpt lat="46.0078728" lon="11.9066977"><ele>298.0</ele><time>2026-04-09T09:44:41.541Z</time></trkpt><trkpt lat="46.0078633" lon="11.9065406"><ele>298.0</ele><time>2026-04-09T09:44:42.535Z</time></trkpt><trkpt lat="46.0078535" lon="11.9064259"><ele>298.0</ele><time>2026-04-09T09:44:43.536Z</time></trkpt><trkpt lat="46.0078309" lon="11.9063136"><ele>298.0</ele><time>2026-04-09T09:44:45.535Z</time></trkpt><trkpt lat="46.0077161" lon="11.9063308"><ele>298.0</ele><time>2026-04-09T09:44:47.546Z</time></trkpt><trkpt lat="46.0076157" lon="11.9062769"><ele>298.0</ele><time>2026-04-09T09:44:49.532Z</time></trkpt><trkpt lat="46.0075866" lon="11.9061646"><ele>298.0</ele><time>2026-04-09T09:44:50.533Z</time></trkpt><trkpt lat="46.0075644" lon="11.9060404"><ele>298.0</ele><time>2026-04-09T09:44:51.531Z</time></trkpt><trkpt lat="46.0075364" lon="11.9058842"><ele>298.0</ele><time>2026-04-09T09:44:52.533Z</time></trkpt><trkpt lat="46.0074988" lon="11.9057153"><ele>298.0</ele><time>2026-04-09T09:44:53.526Z</time></trkpt><trkpt lat="46.007451" lon="11.9055373"><ele>298.0</ele><time>2026-04-09T09:44:54.531Z</time></trkpt><trkpt lat="46.0073913" lon="11.9053752"><ele>298.0</ele><time>2026-04-09T09:44:55.53Z</time></trkpt><trkpt lat="46.0073379" lon="11.9052027"><ele>299.3333333333333</ele><time>2026-04-09T09:44:56.532Z</time></trkpt><trkpt lat="46.0072645" lon="11.9050098"><ele>300.6666666666667</ele><time>2026-04-09T09:44:57.534Z</time></trkpt><trkpt lat="46.0071986" lon="11.9047943"><ele>302.0</ele><time>2026-04-09T09:44:58.531Z</time></trkpt><trkpt lat="46.0071296" lon="11.904589"><ele>302.0</ele><time>2026-04-09T09:44:59.518Z</time></trkpt><trkpt lat="46.0070586" lon="11.9043745"><ele>302.0</ele><time>2026-04-09T09:45:00.53Z</time></trkpt><trkpt lat="46.0069875" lon="11.9041462"><ele>302.0</ele><time>2026-04-09T09:45:01.533Z</time></trkpt><trkpt lat="46.0069024" lon="11.903937"><ele>302.33333333333337</ele><time>2026-04-09T09:45:02.524Z</time></trkpt><trkpt lat="46.006837" lon="11.9037102"><ele>302.6666666666667</ele><time>2026-04-09T09:45:03.532Z</time></trkpt><trkpt lat="46.0067539" lon="11.9034723"><ele>303.0</ele><time>2026-04-09T09:45:04.541Z</time></trkpt><trkpt lat="46.0066781" lon="11.9032497"><ele>305.0</ele><time>2026-04-09T09:45:05.534Z</time></trkpt><trkpt lat="46.0065901" lon="11.9030578"><ele>307.0</ele><time>2026-04-09T09:45:06.543Z</time></trkpt><trkpt lat="46.0064785" lon="11.9028688"><ele>309.0</ele><time>2026-04-09T09:45:07.54Z</time></trkpt><trkpt lat="46.0063586" lon="11.9026994"><ele>310.3333333333333</ele><time>2026-04-09T09:45:08.532Z</time></trkpt><trkpt lat="46.0062095" lon="11.9025387"><ele>311.66666666666663</ele><time>2026-04-09T09:45:09.534Z</time></trkpt><trkpt lat="46.0060743" lon="11.9024088"><ele>313.0</ele><time>2026-04-09T09:45:10.544Z</time></trkpt><trkpt lat="46.0059464" lon="11.9023062"><ele>313.0</ele><time>2026-04-09T09:45:11.534Z</time></trkpt><trkpt lat="46.0058356" lon="11.902227"><ele>313.0</ele><time>2026-04-09T09:45:12.547Z</time></trkpt><trkpt lat="46.0057584" lon="11.902138"><ele>313.0</ele><time>2026-04-09T09:45:13.539Z</time></trkpt><trkpt lat="46.0056824" lon="11.902052"><ele>313.0</ele><time>2026-04-09T09:45:14.539Z</time></trkpt><trkpt lat="46.0056233" lon="11.9019567"><ele>313.0</ele><time>2026-04-09T09:45:15.544Z</time></trkpt><trkpt lat="46.0056247" lon="11.9018177"><ele>314.8</ele><time>2026-04-09T09:45:16.533Z</time></trkpt><trkpt lat="46.0056269" lon="11.9016799"><ele>316.6</ele><time>2026-04-09T09:45:17.533Z</time></trkpt><trkpt lat="46.0056207" lon="11.9015422"><ele>318.40000000000003</ele><time>2026-04-09T09:45:18.533Z</time></trkpt><trkpt lat="46.0055962" lon="11.9014249"><ele>320.20000000000005</ele><time>2026-04-09T09:45:19.536Z</time></trkpt><trkpt lat="46.0055304" lon="11.9013362"><ele>322.0</ele><time>2026-04-09T09:45:20.533Z</time></trkpt><trkpt lat="46.0054363" lon="11.9012576"><ele>322.0</ele><time>2026-04-09T09:45:21.536Z</time></trkpt><trkpt lat="46.0053368" lon="11.9011909"><ele>322.0</ele><time>2026-04-09T09:45:22.54Z</time></trkpt><trkpt lat="46.0052445" lon="11.9011408"><ele>322.0</ele><time>2026-04-09T09:45:23.535Z</time></trkpt><trkpt lat="46.0051636" lon="11.9010699"><ele>322.0</ele><time>2026-04-09T09:45:24.536Z</time></trkpt><trkpt lat="46.0050914" lon="11.9009893"><ele>322.0</ele><time>2026-04-09T09:45:25.541Z</time></trkpt><trkpt lat="46.0050235" lon="11.9008785"><ele>322.75</ele><time>2026-04-09T09:45:26.537Z</time></trkpt><trkpt lat="46.0049638" lon="11.9007646"><ele>323.5</ele><time>2026-04-09T09:45:27.53Z</time></trkpt><trkpt lat="46.0049113" lon="11.9006473"><ele>324.25</ele><time>2026-04-09T09:45:28.517Z</time></trkpt><trkpt lat="46.0048267" lon="11.9004057"><ele>325.0</ele><time>2026-04-09T09:45:29.53Z</time></trkpt><trkpt lat="46.0047906" lon="11.9002059"><ele>326.5</ele><time>2026-04-09T09:45:30.529Z</time></trkpt><trkpt lat="46.0047783" lon="11.9000057"><ele>328.0</ele><time>2026-04-09T09:45:31.531Z</time></trkpt><trkpt lat="46.0047631" lon="11.8997953"><ele>329.5</ele><time>2026-04-09T09:45:32.531Z</time></trkpt><trkpt lat="46.0047459" lon="11.8995968"><ele>331.0</ele><time>2026-04-09T09:45:33.535Z</time></trkpt><trkpt lat="46.0047229" lon="11.8993986"><ele>333.0</ele><time>2026-04-09T09:45:34.528Z</time></trkpt><trkpt lat="46.0047032" lon="11.8992177"><ele>335.0</ele><time>2026-04-09T09:45:35.528Z</time></trkpt><trkpt lat="46.0046648" lon="11.8990536"><ele>337.0</ele><time>2026-04-09T09:45:36.532Z</time></trkpt><trkpt lat="46.0046153" lon="11.8988898"><ele>339.0</ele><time>2026-04-09T09:45:37.527Z</time></trkpt><trkpt lat="46.0045633" lon="11.8987302"><ele>339.0</ele><time>2026-04-09T09:45:38.516Z</time></trkpt><trkpt lat="46.0045095" lon="11.8986102"><ele>339.0</ele><time>2026-04-09T09:45:39.533Z</time></trkpt><trkpt lat="46.0044725" lon="11.8984728"><ele>339.0</ele><time>2026-04-09T09:45:40.531Z</time></trkpt><trkpt lat="46.004444" lon="11.8983128"><ele>339.0</ele><time>2026-04-09T09:45:41.535Z</time></trkpt><trkpt lat="46.0044491" lon="11.8981447"><ele>339.0</ele><time>2026-04-09T09:45:42.534Z</time></trkpt><trkpt lat="46.0044721" lon="11.8979717"><ele>340.5</ele><time>2026-04-09T09:45:43.54Z</time></trkpt><trkpt lat="46.0045102" lon="11.89779"><ele>342.0</ele><time>2026-04-09T09:45:44.533Z</time></trkpt><trkpt lat="46.0045574" lon="11.8975749"><ele>343.5</ele><time>2026-04-09T09:45:45.54Z</time></trkpt><trkpt lat="46.004604" lon="11.8973694"><ele>345.0</ele><time>2026-04-09T09:45:46.545Z</time></trkpt><trkpt lat="46.0046389" lon="11.8971923"><ele>345.8</ele><time>2026-04-09T09:45:47.538Z</time></trkpt><trkpt lat="46.0046706" lon="11.8970205"><ele>346.6</ele><time>2026-04-09T09:45:48.546Z</time></trkpt><trkpt lat="46.0046763" lon="11.8968636"><ele>347.4</ele><time>2026-04-09T09:45:49.535Z</time></trkpt><trkpt lat="46.0046698" lon="11.8967157"><ele>348.2</ele><time>2026-04-09T09:45:50.524Z</time></trkpt><trkpt lat="46.004649" lon="11.8965666"><ele>349.0</ele><time>2026-04-09T09:45:51.536Z</time></trkpt><trkpt lat="46.0046227" lon="11.8964109"><ele>350.2</ele><time>2026-04-09T09:45:52.542Z</time></trkpt><trkpt lat="46.0045887" lon="11.8962542"><ele>351.4</ele><time>2026-04-09T09:45:53.539Z</time></trkpt><trkpt lat="46.0045575" lon="11.8960939"><ele>352.6</ele><time>2026-04-09T09:45:54.531Z</time></trkpt><trkpt lat="46.0045309" lon="11.895952"><ele>353.8</ele><time>2026-04-09T09:45:55.53Z</time></trkpt><trkpt lat="46.004507" lon="11.8957942"><ele>355.0</ele><time>2026-04-09T09:45:56.527Z</time></trkpt><trkpt lat="46.0044902" lon="11.8956682"><ele>355.6</ele><time>2026-04-09T09:45:57.539Z</time></trkpt><trkpt lat="46.0044644" lon="11.8955326"><ele>356.2</ele><time>2026-04-09T09:45:58.53Z</time></trkpt><trkpt lat="46.0044533" lon="11.8953931"><ele>356.79999999999995</ele><time>2026-04-09T09:45:59.532Z</time></trkpt><trkpt lat="46.0044506" lon="11.8952397"><ele>357.4</ele><time>2026-04-09T09:46:00.536Z</time></trkpt><trkpt lat="46.00445" lon="11.8950877"><ele>358.0</ele><time>2026-04-09T09:46:01.534Z</time></trkpt><trkpt lat="46.0044436" lon="11.8949356"><ele>358.59999999999997</ele><time>2026-04-09T09:46:02.549Z</time></trkpt><trkpt lat="46.0044269" lon="11.8947744"><ele>359.2</ele><time>2026-04-09T09:46:03.528Z</time></trkpt><trkpt lat="46.0044072" lon="11.8946123"><ele>359.8</ele><time>2026-04-09T09:46:04.534Z</time></trkpt><trkpt lat="46.0043786" lon="11.8944689"><ele>360.4</ele><time>2026-04-09T09:46:05.526Z</time></trkpt><trkpt lat="46.0043504" lon="11.8943425"><ele>361.0</ele><time>2026-04-09T09:46:06.544Z</time></trkpt><trkpt lat="46.0043254" lon="11.894259"><ele>361.16666666666663</ele><time>2026-04-09T09:46:07.546Z</time></trkpt><trkpt lat="46.0042904" lon="11.8941775"><ele>361.3333333333333</ele><time>2026-04-09T09:46:09.535Z</time></trkpt><trkpt lat="46.0041766" lon="11.8940897"><ele>361.5</ele><time>2026-04-09T09:46:11.54Z</time></trkpt><trkpt lat="46.0041088" lon="11.894037"><ele>361.6666666666667</ele><time>2026-04-09T09:46:12.539Z</time></trkpt><trkpt lat="46.0040352" lon="11.8939693"><ele>361.83333333333337</ele><time>2026-04-09T09:46:13.542Z</time></trkpt><trkpt lat="46.0039781" lon="11.8938948"><ele>362.0</ele><time>2026-04-09T09:46:14.542Z</time></trkpt><trkpt lat="46.0039166" lon="11.8938249"><ele>362.0</ele><time>2026-04-09T09:46:15.538Z</time></trkpt><trkpt lat="46.0038574" lon="11.893781"><ele>362.0</ele><time>2026-04-09T09:46:16.532Z</time></trkpt><trkpt lat="46.0037134" lon="11.8937337"><ele>362.0</ele><time>2026-04-09T09:46:18.534Z</time></trkpt><trkpt lat="46.0036417" lon="11.8937177"><ele>362.0</ele><time>2026-04-09T09:46:19.537Z</time></trkpt><trkpt lat="46.0035656" lon="11.8936884"><ele>362.0</ele><time>2026-04-09T09:46:20.541Z</time></trkpt><trkpt lat="46.0034729" lon="11.8936729"><ele>362.0</ele><time>2026-04-09T09:46:21.533Z</time></trkpt><trkpt lat="46.0033976" lon="11.8936188"><ele>362.0</ele><time>2026-04-09T09:46:22.545Z</time></trkpt><trkpt lat="46.0033085" lon="11.8935597"><ele>362.0</ele><time>2026-04-09T09:46:23.53Z</time></trkpt><trkpt lat="46.0032293" lon="11.8934735"><ele>362.0</ele><time>2026-04-09T09:46:24.531Z</time></trkpt><trkpt lat="46.0031424" lon="11.8933804"><ele>362.0</ele><time>2026-04-09T09:46:25.539Z</time></trkpt><trkpt lat="46.003079" lon="11.8932817"><ele>362.33333333333337</ele><time>2026-04-09T09:46:26.532Z</time></trkpt><trkpt lat="46.0030363" lon="11.8931578"><ele>362.6666666666667</ele><time>2026-04-09T09:46:27.545Z</time></trkpt><trkpt lat="46.0030024" lon="11.8930395"><ele>363.0</ele><time>2026-04-09T09:46:28.544Z</time></trkpt><trkpt lat="46.002978" lon="11.8929337"><ele>363.3333333333333</ele><time>2026-04-09T09:46:29.535Z</time></trkpt><trkpt lat="46.0029428" lon="11.8928355"><ele>363.66666666666663</ele><time>2026-04-09T09:46:30.541Z</time></trkpt><trkpt lat="46.0029239" lon="11.8927125"><ele>364.0</ele><time>2026-04-09T09:46:31.532Z</time></trkpt><trkpt lat="46.0029085" lon="11.8925854"><ele>364.0</ele><time>2026-04-09T09:46:32.534Z</time></trkpt><trkpt lat="46.002892" lon="11.8924558"><ele>364.0</ele><time>2026-04-09T09:46:33.533Z</time></trkpt><trkpt lat="46.0028739" lon="11.8923382"><ele>364.0</ele><time>2026-04-09T09:46:34.546Z</time></trkpt><trkpt lat="46.0028379" lon="11.8922379"><ele>364.0</ele><time>2026-04-09T09:46:35.535Z</time></trkpt><trkpt lat="46.0028005" lon="11.8921642"><ele>364.0</ele><time>2026-04-09T09:46:36.534Z</time></trkpt><trkpt lat="46.0027433" lon="11.892096"><ele>364.0</ele><time>2026-04-09T09:46:38.543Z</time></trkpt><trkpt lat="46.0026769" lon="11.8920197"><ele>364.0</ele><time>2026-04-09T09:46:41.533Z</time></trkpt><trkpt lat="46.002577" lon="11.891956"><ele>364.0</ele><time>2026-04-09T09:46:43.537Z</time></trkpt><trkpt lat="46.0025153" lon="11.8919129"><ele>364.0</ele><time>2026-04-09T09:46:44.594Z</time></trkpt><trkpt lat="46.0024368" lon="11.8918828"><ele>364.0</ele><time>2026-04-09T09:46:45.539Z</time></trkpt><trkpt lat="46.0023708" lon="11.8918589"><ele>364.0</ele><time>2026-04-09T09:46:46.534Z</time></trkpt><trkpt lat="46.0023039" lon="11.8918388"><ele>364.0</ele><time>2026-04-09T09:46:47.549Z</time></trkpt><trkpt lat="46.0021829" lon="11.891817"><ele>364.0</ele><time>2026-04-09T09:46:49.533Z</time></trkpt><trkpt lat="46.0021168" lon="11.891793"><ele>364.0</ele><time>2026-04-09T09:46:50.532Z</time></trkpt><trkpt lat="46.0020533" lon="11.8917624"><ele>364.0</ele><time>2026-04-09T09:46:51.533Z</time></trkpt><trkpt lat="46.0019735" lon="11.8917271"><ele>364.0</ele><time>2026-04-09T09:46:52.531Z</time></trkpt><trkpt lat="46.0018869" lon="11.8916825"><ele>364.0</ele><time>2026-04-09T09:46:53.535Z</time></trkpt><trkpt lat="46.0017953" lon="11.8916447"><ele>364.0</ele><time>2026-04-09T09:46:54.538Z</time></trkpt><trkpt lat="46.0017021" lon="11.8916139"><ele>366.16666666666663</ele><time>2026-04-09T09:46:55.542Z</time></trkpt><trkpt lat="46.001607" lon="11.8916073"><ele>368.3333333333333</ele><time>2026-04-09T09:46:56.535Z</time></trkpt><trkpt lat="46.0015036" lon="11.8915991"><ele>370.5</ele><time>2026-04-09T09:46:57.548Z</time></trkpt><trkpt lat="46.001404" lon="11.8916001"><ele>372.6666666666667</ele><time>2026-04-09T09:46:58.533Z</time></trkpt><trkpt lat="46.0013381" lon="11.8915919"><ele>374.83333333333337</ele><time>2026-04-09T09:46:59.539Z</time></trkpt><trkpt lat="46.0012654" lon="11.8915695"><ele>377.0</ele><time>2026-04-09T09:47:00.535Z</time></trkpt><trkpt lat="46.0011866" lon="11.8915207"><ele>377.0</ele><time>2026-04-09T09:47:01.532Z</time></trkpt><trkpt lat="46.0011034" lon="11.8914362"><ele>377.0</ele><time>2026-04-09T09:47:02.539Z</time></trkpt><trkpt lat="46.001012" lon="11.8913465"><ele>377.0</ele><time>2026-04-09T09:47:03.533Z</time></trkpt><trkpt lat="46.0009069" lon="11.8912505"><ele>377.0</ele><time>2026-04-09T09:47:04.524Z</time></trkpt><trkpt lat="46.0008107" lon="11.8911564"><ele>382.75</ele><time>2026-04-09T09:47:05.532Z</time></trkpt><trkpt lat="46.0007253" lon="11.8910236"><ele>388.5</ele><time>2026-04-09T09:47:06.54Z</time></trkpt><trkpt lat="46.0006539" lon="11.8908654"><ele>394.25</ele><time>2026-04-09T09:47:07.531Z</time></trkpt><trkpt lat="46.0005972" lon="11.8906945"><ele>400.0</ele><time>2026-04-09T09:47:08.529Z</time></trkpt><trkpt lat="46.0005443" lon="11.8905006"><ele>400.0</ele><time>2026-04-09T09:47:09.528Z</time></trkpt><trkpt lat="46.0004937" lon="11.8903138"><ele>400.0</ele><time>2026-04-09T09:47:10.532Z</time></trkpt><trkpt lat="46.0004455" lon="11.8901454"><ele>400.0</ele><time>2026-04-09T09:47:11.535Z</time></trkpt><trkpt lat="46.0003977" lon="11.8899685"><ele>400.0</ele><time>2026-04-09T09:47:12.534Z</time></trkpt><trkpt lat="46.0003469" lon="11.8898175"><ele>399.4</ele><time>2026-04-09T09:47:13.534Z</time></trkpt><trkpt lat="46.0002957" lon="11.8896837"><ele>398.8</ele><time>2026-04-09T09:47:14.536Z</time></trkpt><trkpt lat="46.000237" lon="11.8895613"><ele>398.20000000000005</ele><time>2026-04-09T09:47:15.527Z</time></trkpt><trkpt lat="46.0001729" lon="11.8894739"><ele>397.6</ele><time>2026-04-09T09:47:16.53Z</time></trkpt><trkpt lat="46.0000994" lon="11.8894142"><ele>397.0</ele><time>2026-04-09T09:47:17.53Z</time></trkpt><trkpt lat="46.0000262" lon="11.8893537"><ele>397.0</ele><time>2026-04-09T09:47:18.523Z</time></trkpt><trkpt lat="45.9999334" lon="11.8892798"><ele>397.0</ele><time>2026-04-09T09:47:19.533Z</time></trkpt><trkpt lat="45.9998606" lon="11.8891782"><ele>397.0</ele><time>2026-04-09T09:47:20.53Z</time></trkpt><trkpt lat="45.9998042" lon="11.8891245"><ele>397.0</ele><time>2026-04-09T09:47:21.537Z</time></trkpt><trkpt lat="45.9997314" lon="11.889133"><ele>397.0</ele><time>2026-04-09T09:47:23.532Z</time></trkpt><trkpt lat="45.9996955" lon="11.889331"><ele>397.0</ele><time>2026-04-09T09:47:25.531Z</time></trkpt><trkpt lat="45.999686" lon="11.889453"><ele>397.0</ele><time>2026-04-09T09:47:26.531Z</time></trkpt><trkpt lat="45.9996619" lon="11.8895866"><ele>397.0</ele><time>2026-04-09T09:47:27.539Z</time></trkpt><trkpt lat="45.9996211" lon="11.8897429"><ele>397.0</ele><time>2026-04-09T09:47:28.535Z</time></trkpt><trkpt lat="45.9995731" lon="11.8899092"><ele>397.0</ele><time>2026-04-09T09:47:29.53Z</time></trkpt><trkpt lat="45.9995262" lon="11.8900919"><ele>397.6</ele><time>2026-04-09T09:47:30.532Z</time></trkpt><trkpt lat="45.9994839" lon="11.8902671"><ele>398.20000000000005</ele><time>2026-04-09T09:47:31.541Z</time></trkpt><trkpt lat="45.999452" lon="11.8904395"><ele>398.8</ele><time>2026-04-09T09:47:32.517Z</time></trkpt><trkpt lat="45.9994521" lon="11.8905583"><ele>399.4</ele><time>2026-04-09T09:47:33.531Z</time></trkpt><trkpt lat="45.9993438" lon="11.8906096"><ele>400.0</ele><time>2026-04-09T09:47:36.533Z</time></trkpt><trkpt lat="45.9992657" lon="11.8905003"><ele>400.0</ele><time>2026-04-09T09:47:37.536Z</time></trkpt><trkpt lat="45.9991965" lon="11.8904235"><ele>400.0</ele><time>2026-04-09T09:47:38.517Z</time></trkpt><trkpt lat="45.9990707" lon="11.8902794"><ele>400.0</ele><time>2026-04-09T09:47:39.539Z</time></trkpt><trkpt lat="45.9989565" lon="11.8901687"><ele>400.0</ele><time>2026-04-09T09:47:40.533Z</time></trkpt><trkpt lat="45.9988549" lon="11.8900692"><ele>403.0</ele><time>2026-04-09T09:47:41.528Z</time></trkpt><trkpt lat="45.9987646" lon="11.889984"><ele>406.0</ele><time>2026-04-09T09:47:42.532Z</time></trkpt><trkpt lat="45.9986695" lon="11.8899216"><ele>409.0</ele><time>2026-04-09T09:47:43.535Z</time></trkpt><trkpt lat="45.9985688" lon="11.889895"><ele>412.0</ele><time>2026-04-09T09:47:44.533Z</time></trkpt><trkpt lat="45.998471" lon="11.8898657"><ele>415.0</ele><time>2026-04-09T09:47:45.53Z</time></trkpt><trkpt lat="45.9983602" lon="11.8898546"><ele>419.25</ele><time>2026-04-09T09:47:46.531Z</time></trkpt><trkpt lat="45.9982302" lon="11.8898329"><ele>423.5</ele><time>2026-04-09T09:47:47.539Z</time></trkpt><trkpt lat="45.9981207" lon="11.8898088"><ele>427.75</ele><time>2026-04-09T09:47:48.647Z</time></trkpt><trkpt lat="45.9979265" lon="11.8897367"><ele>432.0</ele><time>2026-04-09T09:47:50.529Z</time></trkpt><trkpt lat="45.9978596" lon="11.8896696"><ele>432.0</ele><time>2026-04-09T09:47:51.533Z</time></trkpt><trkpt lat="45.9977902" lon="11.8895815"><ele>432.00000000000006</ele><time>2026-04-09T09:47:53.529Z</time></trkpt><trkpt lat="45.9977124" lon="11.8896959"><ele>432.00000000000006</ele><time>2026-04-09T09:47:56.539Z</time></trkpt><trkpt lat="45.9976618" lon="11.8897895"><ele>432.0</ele><time>2026-04-09T09:47:57.545Z</time></trkpt><trkpt lat="45.9975948" lon="11.8899133"><ele>432.0</ele><time>2026-04-09T09:47:58.532Z</time></trkpt><trkpt lat="45.9975725" lon="11.8900107"><ele>435.1666666666667</ele><time>2026-04-09T09:47:59.53Z</time></trkpt><trkpt lat="45.9974914" lon="11.8901381"><ele>438.33333333333337</ele><time>2026-04-09T09:48:01.531Z</time></trkpt><trkpt lat="45.997423" lon="11.8902188"><ele>441.5</ele><time>2026-04-09T09:48:03.535Z</time></trkpt><trkpt lat="45.9973805" lon="11.8903313"><ele>444.6666666666667</ele><time>2026-04-09T09:48:07.533Z</time></trkpt><trkpt lat="45.9973559" lon="11.8904191"><ele>447.83333333333337</ele><time>2026-04-09T09:48:09.53Z</time></trkpt><trkpt lat="45.997333" lon="11.8905275"><ele>451.0</ele><time>2026-04-09T09:48:11.529Z</time></trkpt><trkpt lat="45.9973228" lon="11.8906292"><ele>451.00000000000006</ele><time>2026-04-09T09:48:13.526Z</time></trkpt><trkpt lat="45.9973524" lon="11.8905235"><ele>451.0</ele><time>2026-04-09T09:48:24.55Z</time></trkpt><trkpt lat="45.9973682" lon="11.8904317"><ele>451.0</ele><time>2026-04-09T09:48:26.531Z</time></trkpt><trkpt lat="45.9974184" lon="11.8903471"><ele>451.0</ele><time>2026-04-09T09:48:28.525Z</time></trkpt><trkpt lat="45.9974495" lon="11.8902556"><ele>451.00000000000006</ele><time>2026-04-09T09:48:32.527Z</time></trkpt><trkpt lat="45.9973959" lon="11.8901403"><ele>451.0</ele><time>2026-04-09T09:48:34.533Z</time></trkpt><trkpt lat="45.9973207" lon="11.8900616"><ele>451.20000000000005</ele><time>2026-04-09T09:48:36.538Z</time></trkpt><trkpt lat="45.9972252" lon="11.8899782"><ele>451.40000000000003</ele><time>2026-04-09T09:48:38.538Z</time></trkpt><trkpt lat="45.9971265" lon="11.8899357"><ele>451.6</ele><time>2026-04-09T09:48:40.531Z</time></trkpt><trkpt lat="45.9970241" lon="11.8899746"><ele>451.8</ele><time>2026-04-09T09:48:42.528Z</time></trkpt><trkpt lat="45.9969095" lon="11.8899708"><ele>452.0</ele><time>2026-04-09T09:48:44.542Z</time></trkpt><trkpt lat="45.996838" lon="11.8899621"><ele>452.0</ele><time>2026-04-09T09:48:45.539Z</time></trkpt><trkpt lat="45.9967652" lon="11.8899502"><ele>452.00000000000006</ele><time>2026-04-09T09:48:46.537Z</time></trkpt><trkpt lat="45.9966999" lon="11.889944"><ele>452.00000000000006</ele><time>2026-04-09T09:48:47.541Z</time></trkpt><trkpt lat="45.996584" lon="11.889883"><ele>452.0</ele><time>2026-04-09T09:48:49.54Z</time></trkpt><trkpt lat="45.996492" lon="11.8897977"><ele>452.0</ele><time>2026-04-09T09:48:51.53Z</time></trkpt><trkpt lat="45.9963873" lon="11.8896995"><ele>456.8</ele><time>2026-04-09T09:48:53.557Z</time></trkpt><trkpt lat="45.99633" lon="11.8896576"><ele>461.6</ele><time>2026-04-09T09:48:54.539Z</time></trkpt><trkpt lat="45.9962135" lon="11.8895976"><ele>466.40000000000003</ele><time>2026-04-09T09:48:56.533Z</time></trkpt><trkpt lat="45.9960857" lon="11.8895871"><ele>471.20000000000005</ele><time>2026-04-09T09:48:58.542Z</time></trkpt><trkpt lat="45.9960101" lon="11.8895869"><ele>476.0</ele><time>2026-04-09T09:48:59.523Z</time></trkpt><trkpt lat="45.9959484" lon="11.8895425"><ele>476.0</ele><time>2026-04-09T09:49:01.541Z</time></trkpt><trkpt lat="45.9958598" lon="11.8894229"><ele>476.0</ele><time>2026-04-09T09:49:03.541Z</time></trkpt><trkpt lat="45.9958007" lon="11.8892992"><ele>476.0</ele><time>2026-04-09T09:49:05.535Z</time></trkpt><trkpt lat="45.9957711" lon="11.8892157"><ele>476.0</ele><time>2026-04-09T09:49:06.535Z</time></trkpt><trkpt lat="45.9956592" lon="11.8891176"><ele>476.0</ele><time>2026-04-09T09:49:08.545Z</time></trkpt><trkpt lat="45.9955456" lon="11.8890668"><ele>479.99999999999994</ele><time>2026-04-09T09:49:10.536Z</time></trkpt><trkpt lat="45.9954669" lon="11.888988"><ele>484.0</ele><time>2026-04-09T09:49:12.528Z</time></trkpt><trkpt lat="45.9954171" lon="11.8888633"><ele>488.0</ele><time>2026-04-09T09:49:14.538Z</time></trkpt><trkpt lat="45.9954053" lon="11.8887553"><ele>492.0</ele><time>2026-04-09T09:49:15.542Z</time></trkpt><trkpt lat="45.9953979" lon="11.8886396"><ele>495.99999999999994</ele><time>2026-04-09T09:49:16.536Z</time></trkpt><trkpt lat="45.9953737" lon="11.8885162"><ele>500.0</ele><time>2026-04-09T09:49:17.541Z</time></trkpt><trkpt lat="45.9953375" lon="11.8884359"><ele>500.0</ele><time>2026-04-09T09:49:18.535Z</time></trkpt><trkpt lat="45.9952878" lon="11.8883448"><ele>500.0</ele><time>2026-04-09T09:49:20.53Z</time></trkpt><trkpt lat="45.9951951" lon="11.8883574"><ele>500.0</ele><time>2026-04-09T09:49:24.53Z</time></trkpt><trkpt lat="45.9951192" lon="11.8884645"><ele>500.0</ele><time>2026-04-09T09:49:26.534Z</time></trkpt><trkpt lat="45.9950491" lon="11.8886102"><ele>500.0</ele><time>2026-04-09T09:49:28.541Z</time></trkpt><trkpt lat="45.9950038" lon="11.888756"><ele>505.3333333333333</ele><time>2026-04-09T09:49:30.539Z</time></trkpt><trkpt lat="45.9949405" lon="11.8888587"><ele>510.66666666666663</ele><time>2026-04-09T09:49:32.542Z</time></trkpt><trkpt lat="45.9948997" lon="11.8889421"><ele>516.0</ele><time>2026-04-09T09:49:34.538Z</time></trkpt><trkpt lat="45.99489" lon="11.8890516"><ele>521.3333333333334</ele><time>2026-04-09T09:49:36.534Z</time></trkpt><trkpt lat="45.9948908" lon="11.889145"><ele>526.6666666666667</ele><time>2026-04-09T09:49:38.535Z</time></trkpt><trkpt lat="45.9949014" lon="11.8890437"><ele>532.0</ele><time>2026-04-09T09:49:53.531Z</time></trkpt><trkpt lat="45.9949388" lon="11.8889501"><ele>532.0</ele><time>2026-04-09T09:49:54.538Z</time></trkpt><trkpt lat="45.9949771" lon="11.8888351"><ele>532.0</ele><time>2026-04-09T09:49:56.617Z</time></trkpt><trkpt lat="45.9950302" lon="11.8887693"><ele>532.0</ele><time>2026-04-09T09:49:58.539Z</time></trkpt><trkpt lat="45.9950663" lon="11.8886493"><ele>532.0</ele><time>2026-04-09T09:50:05.531Z</time></trkpt><trkpt lat="45.9950893" lon="11.8885552"><ele>532.0</ele><time>2026-04-09T09:50:08.528Z</time></trkpt><trkpt lat="45.9951431" lon="11.8884406"><ele>532.0</ele><time>2026-04-09T09:50:11.54Z</time></trkpt><trkpt lat="45.9951947" lon="11.8883699"><ele>526.6666666666667</ele><time>2026-04-09T09:50:15.531Z</time></trkpt><trkpt lat="45.9952683" lon="11.8883391"><ele>521.3333333333334</ele><time>2026-04-09T09:50:37.548Z</time></trkpt><trkpt lat="45.9953028" lon="11.8884348"><ele>516.0</ele><time>2026-04-09T09:50:39.533Z</time></trkpt><trkpt lat="45.9953289" lon="11.888539"><ele>510.66666666666663</ele><time>2026-04-09T09:50:41.534Z</time></trkpt><trkpt lat="45.9953607" lon="11.8886279"><ele>505.3333333333333</ele><time>2026-04-09T09:50:43.53Z</time></trkpt><trkpt lat="45.9953861" lon="11.888739"><ele>500.0</ele><time>2026-04-09T09:50:45.527Z</time></trkpt><trkpt lat="45.9954095" lon="11.8888402"><ele>500.0</ele><time>2026-04-09T09:50:47.536Z</time></trkpt><trkpt lat="45.9954381" lon="11.8889316"><ele>500.0</ele><time>2026-04-09T09:50:49.53Z</time></trkpt><trkpt lat="45.9954607" lon="11.8887028"><ele>500.0</ele><time>2026-04-09T09:53:11.522Z</time></trkpt><trkpt lat="45.9954345" lon="11.8885776"><ele>500.0</ele><time>2026-04-09T09:53:13.546Z</time></trkpt><trkpt lat="45.9953797" lon="11.8884696"><ele>500.0</ele><time>2026-04-09T09:53:15.543Z</time></trkpt><trkpt lat="45.9953104" lon="11.8884063"><ele>500.0</ele><time>2026-04-09T09:53:17.526Z</time></trkpt><trkpt lat="45.9951947" lon="11.8884975"><ele>500.0</ele><time>2026-04-09T09:53:20.545Z</time></trkpt><trkpt lat="45.9951157" lon="11.8885999"><ele>500.0</ele><time>2026-04-09T09:53:22.532Z</time></trkpt><trkpt lat="45.9950801" lon="11.8887112"><ele>500.0</ele><time>2026-04-09T09:53:24.537Z</time></trkpt><trkpt lat="45.99503" lon="11.8887924"><ele>500.0</ele><time>2026-04-09T09:53:26.531Z</time></trkpt><trkpt lat="45.9949828" lon="11.8888729"><ele>499.99999999999994</ele><time>2026-04-09T09:53:30.527Z</time></trkpt><trkpt lat="45.9949399" lon="11.8889737"><ele>500.0</ele><time>2026-04-09T09:53:34.527Z</time></trkpt><trkpt lat="45.9949267" lon="11.8890721"><ele>500.0</ele><time>2026-04-09T09:53:36.527Z</time></trkpt><trkpt lat="45.9949262" lon="11.8891865"><ele>500.0</ele><time>2026-04-09T09:53:39.536Z</time></trkpt><trkpt lat="45.9949367" lon="11.8890635"><ele>499.99999999999994</ele><time>2026-04-09T09:54:44.533Z</time></trkpt><trkpt lat="45.9949609" lon="11.8889773"><ele>500.0</ele><time>2026-04-09T09:54:48.531Z</time></trkpt><trkpt lat="45.995012" lon="11.8888715"><ele>499.99999999999994</ele><time>2026-04-09T09:54:54.532Z</time></trkpt><trkpt lat="45.9950628" lon="11.8887701"><ele>500.0</ele><time>2026-04-09T09:54:56.528Z</time></trkpt><trkpt lat="45.9950868" lon="11.8886723"><ele>500.0</ele><time>2026-04-09T09:54:58.543Z</time></trkpt><trkpt lat="45.9950999" lon="11.8885394"><ele>500.0</ele><time>2026-04-09T09:55:01.529Z</time></trkpt><trkpt lat="45.9951361" lon="11.8884595"><ele>499.99999999999994</ele><time>2026-04-09T09:55:03.529Z</time></trkpt><trkpt lat="45.9951962" lon="11.8883789"><ele>500.0</ele><time>2026-04-09T09:55:06.535Z</time></trkpt><trkpt lat="45.9952595" lon="11.8883469"><ele>500.0</ele><time>2026-04-09T09:55:10.531Z</time></trkpt><trkpt lat="45.9953256" lon="11.8883584"><ele>500.0</ele><time>2026-04-09T09:55:19.536Z</time></trkpt><trkpt lat="45.9953458" lon="11.8884443"><ele>500.0</ele><time>2026-04-09T09:55:21.53Z</time></trkpt><trkpt lat="45.9953686" lon="11.8885419"><ele>500.0</ele><time>2026-04-09T09:55:25.531Z</time></trkpt><trkpt lat="45.9953884" lon="11.8886378"><ele>500.0</ele><time>2026-04-09T09:55:31.532Z</time></trkpt><trkpt lat="45.9954108" lon="11.8887352"><ele>500.0</ele><time>2026-04-09T09:55:33.533Z</time></trkpt><trkpt lat="45.9954316" lon="11.8888405"><ele>500.0</ele><time>2026-04-09T09:55:36.538Z</time></trkpt><trkpt lat="45.9954622" lon="11.8889484"><ele>500.0</ele><time>2026-04-09T09:55:39.529Z</time></trkpt><trkpt lat="45.9955224" lon="11.8889113"><ele>500.0</ele><time>2026-04-09T09:56:03.538Z</time></trkpt></trkseg><trkseg><trkpt lat="45.9972205" lon="11.8927724"><ele>497.0</ele><time>2026-04-09T10:09:32.53Z</time></trkpt><trkpt lat="45.9964379" lon="11.891898"><ele>496.99999999999994</ele><time>2026-04-09T10:10:10.525Z</time></trkpt><trkpt lat="45.9963832" lon="11.8918152"><ele>497.0</ele><time>2026-04-09T10:10:11.523Z</time></trkpt><trkpt lat="45.9963271" lon="11.8917569"><ele>497.0</ele><time>2026-04-09T10:10:12.527Z</time></trkpt><trkpt lat="45.9962309" lon="11.8917248"><ele>497.0</ele><time>2026-04-09T10:10:13.526Z</time></trkpt><trkpt lat="45.9961459" lon="11.8917137"><ele>496.99999999999994</ele><time>2026-04-09T10:10:16.521Z</time></trkpt><trkpt lat="45.9962042" lon="11.891847"><ele>497.0</ele><time>2026-04-09T10:10:18.536Z</time></trkpt><trkpt lat="45.9961789" lon="11.891945"><ele>497.0</ele><time>2026-04-09T10:10:20.516Z</time></trkpt><trkpt lat="45.9961339" lon="11.8921816"><ele>497.0</ele><time>2026-04-09T10:10:22.554Z</time></trkpt><trkpt lat="45.996067" lon="11.8924084"><ele>497.0</ele><time>2026-04-09T10:10:23.523Z</time></trkpt><trkpt lat="45.9960372" lon="11.8925067"><ele>497.0</ele><time>2026-04-09T10:10:24.536Z</time></trkpt><trkpt lat="45.9960174" lon="11.8926447"><ele>497.40000000000003</ele><time>2026-04-09T10:10:25.531Z</time></trkpt><trkpt lat="45.9959473" lon="11.8927884"><ele>497.80000000000007</ele><time>2026-04-09T10:10:27.52Z</time></trkpt><trkpt lat="45.9958921" lon="11.8928921"><ele>498.2</ele><time>2026-04-09T10:10:28.523Z</time></trkpt><trkpt lat="45.9958104" lon="11.8930032"><ele>498.6</ele><time>2026-04-09T10:10:29.542Z</time></trkpt><trkpt lat="45.9957988" lon="11.8931488"><ele>499.0</ele><time>2026-04-09T10:10:30.526Z</time></trkpt><trkpt lat="45.9957662" lon="11.8932421"><ele>506.2</ele><time>2026-04-09T10:10:31.52Z</time></trkpt><trkpt lat="45.9957868" lon="11.8933903"><ele>513.4</ele><time>2026-04-09T10:10:32.522Z</time></trkpt><trkpt lat="45.995749" lon="11.8935188"><ele>520.6</ele><time>2026-04-09T10:10:33.534Z</time></trkpt><trkpt lat="45.995749" lon="11.8936446"><ele>527.8</ele><time>2026-04-09T10:10:34.547Z</time></trkpt><trkpt lat="45.9957761" lon="11.893769"><ele>535.0</ele><time>2026-04-09T10:10:35.517Z</time></trkpt><trkpt lat="45.995709" lon="11.8938953"><ele>536.8</ele><time>2026-04-09T10:10:36.521Z</time></trkpt><trkpt lat="45.9957355" lon="11.8940381"><ele>538.6</ele><time>2026-04-09T10:10:37.524Z</time></trkpt><trkpt lat="45.9956986" lon="11.8941325"><ele>540.4</ele><time>2026-04-09T10:10:38.544Z</time></trkpt><trkpt lat="45.9957905" lon="11.8942278"><ele>542.2</ele><time>2026-04-09T10:10:39.519Z</time></trkpt><trkpt lat="45.9958169" lon="11.8943895"><ele>544.0</ele><time>2026-04-09T10:10:41.525Z</time></trkpt><trkpt lat="45.9958418" lon="11.8945205"><ele>546.0</ele><time>2026-04-09T10:10:42.526Z</time></trkpt><trkpt lat="45.9958671" lon="11.8946337"><ele>548.0</ele><time>2026-04-09T10:10:43.542Z</time></trkpt><trkpt lat="45.99585" lon="11.8947471"><ele>550.0</ele><time>2026-04-09T10:10:44.52Z</time></trkpt><trkpt lat="45.9958286" lon="11.894861"><ele>552.0</ele><time>2026-04-09T10:10:45.522Z</time></trkpt><trkpt lat="45.9957992" lon="11.8949552"><ele>554.0</ele><time>2026-04-09T10:10:46.528Z</time></trkpt><trkpt lat="45.9957564" lon="11.8950919"><ele>556.0</ele><time>2026-04-09T10:10:48.526Z</time></trkpt><trkpt lat="45.9956856" lon="11.8952132"><ele>559.2</ele><time>2026-04-09T10:10:51.525Z</time></trkpt><trkpt lat="45.9957702" lon="11.8952624"><ele>562.4000000000001</ele><time>2026-04-09T10:10:53.518Z</time></trkpt><trkpt lat="45.9958663" lon="11.8953599"><ele>565.6</ele><time>2026-04-09T10:10:54.522Z</time></trkpt><trkpt lat="45.9959441" lon="11.8954302"><ele>568.8000000000001</ele><time>2026-04-09T10:10:55.523Z</time></trkpt><trkpt lat="45.9959475" lon="11.8955842"><ele>572.0</ele><time>2026-04-09T10:10:56.533Z</time></trkpt><trkpt lat="45.9959566" lon="11.8957105"><ele>565.2</ele><time>2026-04-09T10:10:57.527Z</time></trkpt><trkpt lat="45.9959708" lon="11.8958526"><ele>558.4000000000001</ele><time>2026-04-09T10:10:58.524Z</time></trkpt><trkpt lat="45.9960231" lon="11.8960049"><ele>551.5999999999999</ele><time>2026-04-09T10:10:59.529Z</time></trkpt><trkpt lat="45.9960379" lon="11.8961494"><ele>544.8</ele><time>2026-04-09T10:11:00.524Z</time></trkpt><trkpt lat="45.9960498" lon="11.8962649"><ele>538.0</ele><time>2026-04-09T10:11:01.535Z</time></trkpt><trkpt lat="45.9960935" lon="11.8963769"><ele>538.0</ele><time>2026-04-09T10:11:02.532Z</time></trkpt><trkpt lat="45.9960954" lon="11.8964913"><ele>538.0</ele><time>2026-04-09T10:11:03.524Z</time></trkpt><trkpt lat="45.9960871" lon="11.8967965"><ele>538.0</ele><time>2026-04-09T10:11:05.519Z</time></trkpt><trkpt lat="45.9960889" lon="11.8969472"><ele>538.0</ele><time>2026-04-09T10:11:06.574Z</time></trkpt><trkpt lat="45.9960735" lon="11.8972273"><ele>539.6</ele><time>2026-04-09T10:11:08.519Z</time></trkpt><trkpt lat="45.9961127" lon="11.8973829"><ele>541.1999999999999</ele><time>2026-04-09T10:11:09.523Z</time></trkpt><trkpt lat="45.9960761" lon="11.8975177"><ele>542.8</ele><time>2026-04-09T10:11:10.53Z</time></trkpt><trkpt lat="45.996101" lon="11.8976143"><ele>544.4</ele><time>2026-04-09T10:11:11.524Z</time></trkpt><trkpt lat="45.9960856" lon="11.8977278"><ele>546.0</ele><time>2026-04-09T10:11:12.53Z</time></trkpt><trkpt lat="45.9960255" lon="11.8978416"><ele>546.0</ele><time>2026-04-09T10:11:13.527Z</time></trkpt><trkpt lat="45.9960126" lon="11.8979612"><ele>546.0</ele><time>2026-04-09T10:11:14.522Z</time></trkpt><trkpt lat="45.9959495" lon="11.8980541"><ele>546.0</ele><time>2026-04-09T10:11:15.532Z</time></trkpt><trkpt lat="45.9959221" lon="11.8981478"><ele>546.0</ele><time>2026-04-09T10:11:16.521Z</time></trkpt><trkpt lat="45.9959038" lon="11.8982362"><ele>546.0</ele><time>2026-04-09T10:11:17.524Z</time></trkpt><trkpt lat="45.9958435" lon="11.8982893"><ele>546.0</ele><time>2026-04-09T10:11:19.53Z</time></trkpt><trkpt lat="45.9958609" lon="11.8981301"><ele>546.0</ele><time>2026-04-09T10:11:22.531Z</time></trkpt><trkpt lat="45.9958664" lon="11.8980396"><ele>546.0</ele><time>2026-04-09T10:11:23.52Z</time></trkpt><trkpt lat="45.9958538" lon="11.8979409"><ele>546.0</ele><time>2026-04-09T10:11:24.528Z</time></trkpt><trkpt lat="45.9958535" lon="11.8978446"><ele>546.0</ele><time>2026-04-09T10:11:25.526Z</time></trkpt><trkpt lat="45.9957654" lon="11.8976779"><ele>546.0</ele><time>2026-04-09T10:11:26.523Z</time></trkpt><trkpt lat="45.9957413" lon="11.8975709"><ele>546.0</ele><time>2026-04-09T10:11:27.534Z</time></trkpt><trkpt lat="45.9957005" lon="11.8974517"><ele>556.6</ele><time>2026-04-09T10:11:28.528Z</time></trkpt><trkpt lat="45.9956321" lon="11.8974203"><ele>567.2</ele><time>2026-04-09T10:11:29.528Z</time></trkpt><trkpt lat="45.9955707" lon="11.8972971"><ele>577.8</ele><time>2026-04-09T10:11:31.529Z</time></trkpt><trkpt lat="45.9955644" lon="11.8971887"><ele>588.4</ele><time>2026-04-09T10:11:32.539Z</time></trkpt><trkpt lat="45.9955762" lon="11.8969771"><ele>599.0</ele><time>2026-04-09T10:11:34.52Z</time></trkpt><trkpt lat="45.9955776" lon="11.8968845"><ele>597.8</ele><time>2026-04-09T10:11:35.54Z</time></trkpt><trkpt lat="45.9954991" lon="11.8967404"><ele>596.5999999999999</ele><time>2026-04-09T10:11:38.523Z</time></trkpt><trkpt lat="45.9954234" lon="11.8966717"><ele>595.4</ele><time>2026-04-09T10:11:39.523Z</time></trkpt><trkpt lat="45.9953702" lon="11.8965955"><ele>594.1999999999999</ele><time>2026-04-09T10:11:40.523Z</time></trkpt><trkpt lat="45.995321" lon="11.8964787"><ele>593.0</ele><time>2026-04-09T10:11:41.531Z</time></trkpt><trkpt lat="45.9952502" lon="11.8963653"><ele>593.0</ele><time>2026-04-09T10:11:42.523Z</time></trkpt><trkpt lat="45.99522" lon="11.8962535"><ele>593.0</ele><time>2026-04-09T10:11:43.525Z</time></trkpt><trkpt lat="45.9951549" lon="11.8961373"><ele>593.0</ele><time>2026-04-09T10:11:44.527Z</time></trkpt><trkpt lat="45.9950842" lon="11.89603"><ele>593.0</ele><time>2026-04-09T10:11:45.532Z</time></trkpt><trkpt lat="45.9950365" lon="11.8959503"><ele>593.0</ele><time>2026-04-09T10:11:46.527Z</time></trkpt><trkpt lat="45.9949537" lon="11.8958881"><ele>597.5</ele><time>2026-04-09T10:11:47.525Z</time></trkpt><trkpt lat="45.9948768" lon="11.8959015"><ele>602.0</ele><time>2026-04-09T10:11:48.525Z</time></trkpt><trkpt lat="45.9947966" lon="11.8958386"><ele>606.5</ele><time>2026-04-09T10:11:50.521Z</time></trkpt><trkpt lat="45.9947564" lon="11.8957665"><ele>611.0</ele><time>2026-04-09T10:11:51.533Z</time></trkpt><trkpt lat="45.9946614" lon="11.8956444"><ele>615.5</ele><time>2026-04-09T10:11:53.533Z</time></trkpt><trkpt lat="45.9946328" lon="11.895561"><ele>620.0</ele><time>2026-04-09T10:11:54.525Z</time></trkpt><trkpt lat="45.9946435" lon="11.8954401"><ele>620.0</ele><time>2026-04-09T10:11:55.526Z</time></trkpt><trkpt lat="45.9946489" lon="11.8953351"><ele>620.0</ele><time>2026-04-09T10:11:56.536Z</time></trkpt><trkpt lat="45.9944575" lon="11.8953799"><ele>620.0</ele><time>2026-04-09T10:11:58.531Z</time></trkpt><trkpt lat="45.9944233" lon="11.8952311"><ele>620.0</ele><time>2026-04-09T10:12:00.519Z</time></trkpt><trkpt lat="45.9943584" lon="11.8950876"><ele>615.2</ele><time>2026-04-09T10:12:02.519Z</time></trkpt><trkpt lat="45.9943184" lon="11.894965"><ele>610.4</ele><time>2026-04-09T10:12:03.528Z</time></trkpt><trkpt lat="45.9943236" lon="11.8947881"><ele>605.6</ele><time>2026-04-09T10:12:04.524Z</time></trkpt><trkpt lat="45.9943259" lon="11.8946584"><ele>600.8</ele><time>2026-04-09T10:12:05.54Z</time></trkpt><trkpt lat="45.9942748" lon="11.8945136"><ele>596.0</ele><time>2026-04-09T10:12:06.541Z</time></trkpt><trkpt lat="45.9942079" lon="11.8943979"><ele>606.8</ele><time>2026-04-09T10:12:07.529Z</time></trkpt><trkpt lat="45.9940921" lon="11.8943081"><ele>617.6</ele><time>2026-04-09T10:12:08.525Z</time></trkpt><trkpt lat="45.9940219" lon="11.8942131"><ele>628.4</ele><time>2026-04-09T10:12:09.525Z</time></trkpt><trkpt lat="45.9939831" lon="11.8941326"><ele>639.2</ele><time>2026-04-09T10:12:10.534Z</time></trkpt><trkpt lat="45.9939215" lon="11.8939748"><ele>650.0</ele><time>2026-04-09T10:12:11.518Z</time></trkpt><trkpt lat="45.9938845" lon="11.8938408"><ele>650.0</ele><time>2026-04-09T10:12:12.523Z</time></trkpt><trkpt lat="45.9938149" lon="11.8937326"><ele>650.0</ele><time>2026-04-09T10:12:13.519Z</time></trkpt><trkpt lat="45.9937653" lon="11.8936408"><ele>650.0</ele><time>2026-04-09T10:12:14.529Z</time></trkpt><trkpt lat="45.9937095" lon="11.8935051"><ele>650.0</ele><time>2026-04-09T10:12:15.524Z</time></trkpt><trkpt lat="45.9936643" lon="11.89337"><ele>650.0</ele><time>2026-04-09T10:12:16.542Z</time></trkpt><trkpt lat="45.9936055" lon="11.8932581"><ele>648.0</ele><time>2026-04-09T10:12:17.524Z</time></trkpt><trkpt lat="45.9935748" lon="11.8931168"><ele>646.0</ele><time>2026-04-09T10:12:18.52Z</time></trkpt><trkpt lat="45.9935342" lon="11.8929428"><ele>644.0</ele><time>2026-04-09T10:12:19.521Z</time></trkpt><trkpt lat="45.9934909" lon="11.8928293"><ele>642.0</ele><time>2026-04-09T10:12:20.549Z</time></trkpt><trkpt lat="45.9933934" lon="11.8928393"><ele>640.0</ele><time>2026-04-09T10:12:22.52Z</time></trkpt><trkpt lat="45.9933168" lon="11.8929819"><ele>640.0</ele><time>2026-04-09T10:12:26.532Z</time></trkpt><trkpt lat="45.9933637" lon="11.8930576"><ele>640.0</ele><time>2026-04-09T10:12:27.525Z</time></trkpt><trkpt lat="45.9933203" lon="11.8931995"><ele>640.0</ele><time>2026-04-09T10:12:28.518Z</time></trkpt><trkpt lat="45.9933438" lon="11.8933731"><ele>640.0</ele><time>2026-04-09T10:12:29.537Z</time></trkpt><trkpt lat="45.9933965" lon="11.8935371"><ele>640.0</ele><time>2026-04-09T10:12:30.521Z</time></trkpt><trkpt lat="45.9934165" lon="11.8936922"><ele>643.3333333333334</ele><time>2026-04-09T10:12:32.515Z</time></trkpt><trkpt lat="45.9934571" lon="11.8938139"><ele>646.6666666666666</ele><time>2026-04-09T10:12:33.544Z</time></trkpt><trkpt lat="45.9935849" lon="11.8942613"><ele>650.0</ele><time>2026-04-09T10:12:36.563Z</time></trkpt><trkpt lat="45.9936303" lon="11.8944228"><ele>651.4</ele><time>2026-04-09T10:12:37.532Z</time></trkpt><trkpt lat="45.9937038" lon="11.8945441"><ele>652.8</ele><time>2026-04-09T10:12:38.543Z</time></trkpt><trkpt lat="45.9937113" lon="11.894685"><ele>654.2</ele><time>2026-04-09T10:12:39.538Z</time></trkpt><trkpt lat="45.9936624" lon="11.894826"><ele>655.6</ele><time>2026-04-09T10:12:40.524Z</time></trkpt><trkpt lat="45.9936275" lon="11.8949397"><ele>657.0</ele><time>2026-04-09T10:12:42.537Z</time></trkpt><trkpt lat="45.9935626" lon="11.8949891"><ele>657.0</ele><time>2026-04-09T10:12:45.523Z</time></trkpt><trkpt lat="45.9935171" lon="11.8949143"><ele>657.0</ele><time>2026-04-09T10:12:46.545Z</time></trkpt><trkpt lat="45.9935168" lon="11.8948224"><ele>657.0</ele><time>2026-04-09T10:12:47.524Z</time></trkpt><trkpt lat="45.9934581" lon="11.8947186"><ele>657.0</ele><time>2026-04-09T10:12:48.525Z</time></trkpt><trkpt lat="45.9934076" lon="11.8945914"><ele>657.0</ele><time>2026-04-09T10:12:50.52Z</time></trkpt><trkpt lat="45.9933496" lon="11.8946318"><ele>657.0</ele><time>2026-04-09T10:12:51.52Z</time></trkpt><trkpt lat="45.9933786" lon="11.8947295"><ele>657.0</ele><time>2026-04-09T10:12:54.525Z</time></trkpt><trkpt lat="45.9933668" lon="11.8948845"><ele>657.0</ele><time>2026-04-09T10:12:56.545Z</time></trkpt><trkpt lat="45.9933079" lon="11.8950192"><ele>657.0</ele><time>2026-04-09T10:12:58.557Z</time></trkpt><trkpt lat="45.993174" lon="11.8951109"><ele>657.0</ele><time>2026-04-09T10:13:00.533Z</time></trkpt><trkpt lat="45.993085" lon="11.8951435"><ele>677.25</ele><time>2026-04-09T10:13:01.521Z</time></trkpt><trkpt lat="45.9929909" lon="11.8951876"><ele>697.5</ele><time>2026-04-09T10:13:02.532Z</time></trkpt><trkpt lat="45.9930946" lon="11.8954519"><ele>717.75</ele><time>2026-04-09T10:13:06.521Z</time></trkpt><trkpt lat="45.9931466" lon="11.8955833"><ele>738.0</ele><time>2026-04-09T10:13:07.525Z</time></trkpt><trkpt lat="45.993199" lon="11.8956764"><ele>738.0</ele><time>2026-04-09T10:13:08.52Z</time></trkpt><trkpt lat="45.9932444" lon="11.8957792"><ele>738.0</ele><time>2026-04-09T10:13:09.536Z</time></trkpt><trkpt lat="45.9932373" lon="11.8959619"><ele>738.0</ele><time>2026-04-09T10:13:10.525Z</time></trkpt><trkpt lat="45.9932268" lon="11.8960615"><ele>738.0</ele><time>2026-04-09T10:13:11.538Z</time></trkpt><trkpt lat="45.9931712" lon="11.8961807"><ele>738.0</ele><time>2026-04-09T10:13:12.531Z</time></trkpt><trkpt lat="45.9931736" lon="11.8963224"><ele>742.0</ele><time>2026-04-09T10:13:14.52Z</time></trkpt><trkpt lat="45.9932157" lon="11.8965162"><ele>746.0</ele><time>2026-04-09T10:13:16.527Z</time></trkpt><trkpt lat="45.9933012" lon="11.8966556"><ele>750.0</ele><time>2026-04-09T10:13:17.52Z</time></trkpt><trkpt lat="45.9933487" lon="11.8968362"><ele>754.0</ele><time>2026-04-09T10:13:18.534Z</time></trkpt><trkpt lat="45.993393" lon="11.8969441"><ele>746.0</ele><time>2026-04-09T10:13:19.521Z</time></trkpt><trkpt lat="45.9934129" lon="11.8970585"><ele>738.0</ele><time>2026-04-09T10:13:20.524Z</time></trkpt><trkpt lat="45.9934586" lon="11.8971612"><ele>730.0</ele><time>2026-04-09T10:13:21.529Z</time></trkpt><trkpt lat="45.993436" lon="11.8972875"><ele>722.0</ele><time>2026-04-09T10:13:22.524Z</time></trkpt><trkpt lat="45.9934691" lon="11.8974237"><ele>714.0</ele><time>2026-04-09T10:13:23.53Z</time></trkpt><trkpt lat="45.9934571" lon="11.8975436"><ele>706.0</ele><time>2026-04-09T10:13:24.673Z</time></trkpt><trkpt lat="45.9934646" lon="11.8976391"><ele>706.0</ele><time>2026-04-09T10:13:27.533Z</time></trkpt><trkpt lat="45.9933919" lon="11.8976444"><ele>706.0</ele><time>2026-04-09T10:13:29.524Z</time></trkpt><trkpt lat="45.9933821" lon="11.8975248"><ele>706.0</ele><time>2026-04-09T10:13:32.53Z</time></trkpt><trkpt lat="45.9932693" lon="11.8972787"><ele>706.0</ele><time>2026-04-09T10:13:34.527Z</time></trkpt><trkpt lat="45.9932434" lon="11.8971683"><ele>706.0</ele><time>2026-04-09T10:13:35.523Z</time></trkpt><trkpt lat="45.9931996" lon="11.897051"><ele>715.5999999999999</ele><time>2026-04-09T10:13:36.526Z</time></trkpt><trkpt lat="45.993158" lon="11.8969546"><ele>725.2</ele><time>2026-04-09T10:13:37.53Z</time></trkpt><trkpt lat="45.9930861" lon="11.8968574"><ele>734.8</ele><time>2026-04-09T10:13:38.525Z</time></trkpt><trkpt lat="45.9930319" lon="11.8967919"><ele>744.4000000000001</ele><time>2026-04-09T10:13:39.524Z</time></trkpt><trkpt lat="45.9929049" lon="11.896701"><ele>754.0</ele><time>2026-04-09T10:13:40.528Z</time></trkpt><trkpt lat="45.9927568" lon="11.8967213"><ele>754.0</ele><time>2026-04-09T10:13:41.521Z</time></trkpt><trkpt lat="45.9927004" lon="11.8967971"><ele>754.0</ele><time>2026-04-09T10:13:42.523Z</time></trkpt><trkpt lat="45.9926454" lon="11.8967046"><ele>754.0</ele><time>2026-04-09T10:13:43.515Z</time></trkpt><trkpt lat="45.9926276" lon="11.8964447"><ele>754.0</ele><time>2026-04-09T10:13:44.523Z</time></trkpt><trkpt lat="45.9925678" lon="11.8963727"><ele>754.0</ele><time>2026-04-09T10:13:45.54Z</time></trkpt><trkpt lat="45.9925974" lon="11.896276"><ele>754.0</ele><time>2026-04-09T10:13:46.523Z</time></trkpt><trkpt lat="45.9925274" lon="11.896224"><ele>754.0</ele><time>2026-04-09T10:13:47.519Z</time></trkpt><trkpt lat="45.9924265" lon="11.8962131"><ele>754.0</ele><time>2026-04-09T10:13:48.526Z</time></trkpt><trkpt lat="45.9924356" lon="11.8963431"><ele>754.0</ele><time>2026-04-09T10:13:49.529Z</time></trkpt><trkpt lat="45.9923689" lon="11.8964494"><ele>754.0</ele><time>2026-04-09T10:13:51.53Z</time></trkpt><trkpt lat="45.9924148" lon="11.8966284"><ele>755.6666666666667</ele><time>2026-04-09T10:13:53.527Z</time></trkpt><trkpt lat="45.9923813" lon="11.896727"><ele>757.3333333333334</ele><time>2026-04-09T10:13:54.526Z</time></trkpt><trkpt lat="45.9924195" lon="11.8968104"><ele>759.0</ele><time>2026-04-09T10:13:55.529Z</time></trkpt><trkpt lat="45.9924805" lon="11.8969207"><ele>760.6666666666666</ele><time>2026-04-09T10:13:56.522Z</time></trkpt><trkpt lat="45.9925491" lon="11.8970219"><ele>762.3333333333333</ele><time>2026-04-09T10:13:57.527Z</time></trkpt><trkpt lat="45.9926095" lon="11.8971267"><ele>764.0</ele><time>2026-04-09T10:13:58.519Z</time></trkpt><trkpt lat="45.9926723" lon="11.8972089"><ele>764.0</ele><time>2026-04-09T10:13:59.532Z</time></trkpt><trkpt lat="45.9927996" lon="11.8973182"><ele>764.0</ele><time>2026-04-09T10:14:01.526Z</time></trkpt><trkpt lat="45.9927442" lon="11.8974301"><ele>764.0</ele><time>2026-04-09T10:14:03.523Z</time></trkpt><trkpt lat="45.9926793" lon="11.8975613"><ele>764.0</ele><time>2026-04-09T10:14:05.529Z</time></trkpt><trkpt lat="45.9925996" lon="11.8976401"><ele>760.6</ele><time>2026-04-09T10:14:06.525Z</time></trkpt><trkpt lat="45.9925197" lon="11.8977222"><ele>757.2</ele><time>2026-04-09T10:14:07.527Z</time></trkpt><trkpt lat="45.9924742" lon="11.8978855"><ele>753.8000000000001</ele><time>2026-04-09T10:14:09.523Z</time></trkpt><trkpt lat="45.9924051" lon="11.8979706"><ele>750.4000000000001</ele><time>2026-04-09T10:14:10.514Z</time></trkpt><trkpt lat="45.9923187" lon="11.8980287"><ele>747.0</ele><time>2026-04-09T10:14:12.563Z</time></trkpt><trkpt lat="45.9922546" lon="11.8980243"><ele>753.25</ele><time>2026-04-09T10:14:14.526Z</time></trkpt><trkpt lat="45.9921768" lon="11.8981428"><ele>759.5</ele><time>2026-04-09T10:14:16.53Z</time></trkpt><trkpt lat="45.9920832" lon="11.8983822"><ele>765.75</ele><time>2026-04-09T10:14:18.53Z</time></trkpt><trkpt lat="45.991985" lon="11.8984638"><ele>772.0</ele><time>2026-04-09T10:14:20.52Z</time></trkpt><trkpt lat="45.9918928" lon="11.898479"><ele>772.0</ele><time>2026-04-09T10:14:21.526Z</time></trkpt><trkpt lat="45.991778" lon="11.8985419"><ele>772.0</ele><time>2026-04-09T10:14:23.517Z</time></trkpt><trkpt lat="45.9916651" lon="11.898593"><ele>772.0</ele><time>2026-04-09T10:14:25.524Z</time></trkpt><trkpt lat="45.9916569" lon="11.8987024"><ele>772.0</ele><time>2026-04-09T10:14:26.532Z</time></trkpt><trkpt lat="45.9916183" lon="11.898807"><ele>772.0</ele><time>2026-04-09T10:14:27.522Z</time></trkpt><trkpt lat="45.9916142" lon="11.8989409"><ele>781.1666666666666</ele><time>2026-04-09T10:14:28.529Z</time></trkpt><trkpt lat="45.9915698" lon="11.8990443"><ele>790.3333333333333</ele><time>2026-04-09T10:14:29.522Z</time></trkpt><trkpt lat="45.9915074" lon="11.899111"><ele>799.5</ele><time>2026-04-09T10:14:30.526Z</time></trkpt><trkpt lat="45.9914582" lon="11.8991942"><ele>808.6666666666667</ele><time>2026-04-09T10:14:31.523Z</time></trkpt><trkpt lat="45.9914058" lon="11.8993628"><ele>817.8333333333334</ele><time>2026-04-09T10:14:33.53Z</time></trkpt><trkpt lat="45.991381" lon="11.8994607"><ele>827.0</ele><time>2026-04-09T10:14:34.526Z</time></trkpt><trkpt lat="45.991334" lon="11.8995942"><ele>828.5000000000001</ele><time>2026-04-09T10:14:36.558Z</time></trkpt><trkpt lat="45.9912906" lon="11.8996881"><ele>830.0</ele><time>2026-04-09T10:14:38.521Z</time></trkpt><trkpt lat="45.9912818" lon="11.899819"><ele>831.5</ele><time>2026-04-09T10:14:40.514Z</time></trkpt><trkpt lat="45.9913196" lon="11.8999182"><ele>833.0</ele><time>2026-04-09T10:14:42.523Z</time></trkpt><trkpt lat="45.9913885" lon="11.8999535"><ele>834.5000000000001</ele><time>2026-04-09T10:14:43.525Z</time></trkpt><trkpt lat="45.9914769" lon="11.8999648"><ele>836.0</ele><time>2026-04-09T10:14:44.525Z</time></trkpt><trkpt lat="45.9917571" lon="11.9000111"><ele>836.75</ele><time>2026-04-09T10:14:47.522Z</time></trkpt><trkpt lat="45.9919059" lon="11.8999838"><ele>837.5</ele><time>2026-04-09T10:14:48.523Z</time></trkpt><trkpt lat="45.9920253" lon="11.9000055"><ele>838.25</ele><time>2026-04-09T10:14:49.525Z</time></trkpt><trkpt lat="45.9921052" lon="11.9001598"><ele>839.0</ele><time>2026-04-09T10:14:50.528Z</time></trkpt><trkpt lat="45.9922319" lon="11.9002234"><ele>839.0</ele><time>2026-04-09T10:14:51.531Z</time></trkpt><trkpt lat="45.9922748" lon="11.9003422"><ele>839.0</ele><time>2026-04-09T10:14:52.525Z</time></trkpt><trkpt lat="45.9923943" lon="11.9004117"><ele>839.0</ele><time>2026-04-09T10:14:54.522Z</time></trkpt><trkpt lat="45.9924745" lon="11.9004332"><ele>839.0</ele><time>2026-04-09T10:14:55.525Z</time></trkpt><trkpt lat="45.9925097" lon="11.9005206"><ele>839.0</ele><time>2026-04-09T10:14:56.53Z</time></trkpt><trkpt lat="45.9925914" lon="11.9005345"><ele>835.8000000000001</ele><time>2026-04-09T10:14:57.528Z</time></trkpt><trkpt lat="45.9926497" lon="11.9006028"><ele>832.6</ele><time>2026-04-09T10:14:58.526Z</time></trkpt><trkpt lat="45.9927505" lon="11.9006631"><ele>829.4</ele><time>2026-04-09T10:14:59.524Z</time></trkpt><trkpt lat="45.9928592" lon="11.9007801"><ele>826.2</ele><time>2026-04-09T10:15:00.521Z</time></trkpt><trkpt lat="45.9929483" lon="11.9008729"><ele>823.0</ele><time>2026-04-09T10:15:01.521Z</time></trkpt><trkpt lat="45.9930075" lon="11.9009374"><ele>822.9999999999999</ele><time>2026-04-09T10:15:02.522Z</time></trkpt><trkpt lat="45.9930742" lon="11.9009843"><ele>823.0</ele><time>2026-04-09T10:15:03.526Z</time></trkpt><trkpt lat="45.9930909" lon="11.9011105"><ele>823.0</ele><time>2026-04-09T10:15:05.52Z</time></trkpt><trkpt lat="45.9930878" lon="11.9012031"><ele>823.0</ele><time>2026-04-09T10:15:06.513Z</time></trkpt><trkpt lat="45.9930666" lon="11.9013716"><ele>822.9999999999999</ele><time>2026-04-09T10:15:08.525Z</time></trkpt><trkpt lat="45.9930422" lon="11.901484"><ele>823.0</ele><time>2026-04-09T10:15:09.531Z</time></trkpt><trkpt lat="45.9930022" lon="11.9016069"><ele>822.9999999999999</ele><time>2026-04-09T10:15:10.519Z</time></trkpt><trkpt lat="45.9929573" lon="11.9016952"><ele>823.0</ele><time>2026-04-09T10:15:11.525Z</time></trkpt><trkpt lat="45.9929632" lon="11.9017882"><ele>823.0</ele><time>2026-04-09T10:15:12.525Z</time></trkpt><trkpt lat="45.9929942" lon="11.9019244"><ele>823.0</ele><time>2026-04-09T10:15:13.525Z</time></trkpt><trkpt lat="45.9930248" lon="11.9020677"><ele>822.9999999999999</ele><time>2026-04-09T10:15:14.528Z</time></trkpt><trkpt lat="45.9930569" lon="11.902199"><ele>823.0</ele><time>2026-04-09T10:15:15.534Z</time></trkpt><trkpt lat="45.9930637" lon="11.9023057"><ele>824.3333333333333</ele><time>2026-04-09T10:15:16.524Z</time></trkpt><trkpt lat="45.9930769" lon="11.9024221"><ele>825.6666666666666</ele><time>2026-04-09T10:15:17.529Z</time></trkpt><trkpt lat="45.9930551" lon="11.9025858"><ele>827.0</ele><time>2026-04-09T10:15:18.537Z</time></trkpt><trkpt lat="45.9930342" lon="11.9026901"><ele>828.3333333333333</ele><time>2026-04-09T10:15:19.526Z</time></trkpt><trkpt lat="45.9930358" lon="11.9027873"><ele>829.6666666666666</ele><time>2026-04-09T10:15:20.525Z</time></trkpt><trkpt lat="45.9929967" lon="11.9028751"><ele>831.0</ele><time>2026-04-09T10:15:21.524Z</time></trkpt><trkpt lat="45.9929539" lon="11.9029792"><ele>831.0</ele><time>2026-04-09T10:15:22.523Z</time></trkpt><trkpt lat="45.9929344" lon="11.9031195"><ele>831.0</ele><time>2026-04-09T10:15:24.536Z</time></trkpt><trkpt lat="45.9929594" lon="11.9032445"><ele>831.0</ele><time>2026-04-09T10:15:26.527Z</time></trkpt><trkpt lat="45.9929135" lon="11.9033224"><ele>831.0</ele><time>2026-04-09T10:15:28.53Z</time></trkpt><trkpt lat="45.9928295" lon="11.9033681"><ele>831.0</ele><time>2026-04-09T10:15:30.521Z</time></trkpt><trkpt lat="45.992712" lon="11.9033752"><ele>831.0</ele><time>2026-04-09T10:15:35.523Z</time></trkpt><trkpt lat="45.9927656" lon="11.9034526"><ele>831.0</ele><time>2026-04-09T10:15:57.533Z</time></trkpt><trkpt lat="45.9928399" lon="11.9034842"><ele>831.0</ele><time>2026-04-09T10:16:01.524Z</time></trkpt><trkpt lat="45.9928662" lon="11.9033473"><ele>831.0</ele><time>2026-04-09T10:18:58.511Z</time></trkpt><trkpt lat="45.9929221" lon="11.9032064"><ele>831.0</ele><time>2026-04-09T10:19:00.521Z</time></trkpt><trkpt lat="45.9929288" lon="11.9030357"><ele>831.0</ele><time>2026-04-09T10:19:01.522Z</time></trkpt><trkpt lat="45.9929836" lon="11.9028827"><ele>831.0</ele><time>2026-04-09T10:19:03.518Z</time></trkpt><trkpt lat="45.9930124" lon="11.9027966"><ele>831.0</ele><time>2026-04-09T10:19:04.522Z</time></trkpt><trkpt lat="45.992991" lon="11.902545"><ele>831.0</ele><time>2026-04-09T10:19:06.527Z</time></trkpt><trkpt lat="45.9930091" lon="11.9024048"><ele>831.6666666666666</ele><time>2026-04-09T10:19:07.522Z</time></trkpt><trkpt lat="45.9930642" lon="11.9023255"><ele>832.3333333333333</ele><time>2026-04-09T10:19:08.532Z</time></trkpt><trkpt lat="45.9930398" lon="11.9022331"><ele>833.0</ele><time>2026-04-09T10:19:09.516Z</time></trkpt><trkpt lat="45.9930009" lon="11.9020449"><ele>833.6666666666666</ele><time>2026-04-09T10:19:11.513Z</time></trkpt><trkpt lat="45.9930124" lon="11.9019448"><ele>834.3333333333333</ele><time>2026-04-09T10:19:12.528Z</time></trkpt><trkpt lat="45.9930174" lon="11.9018323"><ele>835.0</ele><time>2026-04-09T10:19:13.512Z</time></trkpt><trkpt lat="45.9930405" lon="11.9017078"><ele>831.0</ele><time>2026-04-09T10:19:14.519Z</time></trkpt><trkpt lat="45.9930524" lon="11.9015647"><ele>827.0</ele><time>2026-04-09T10:19:15.516Z</time></trkpt><trkpt lat="45.9931397" lon="11.9011914"><ele>823.0</ele><time>2026-04-09T10:19:18.516Z</time></trkpt><trkpt lat="45.9931993" lon="11.9011181"><ele>823.0</ele><time>2026-04-09T10:19:19.534Z</time></trkpt><trkpt lat="45.9932116" lon="11.9010159"><ele>823.0</ele><time>2026-04-09T10:19:20.516Z</time></trkpt><trkpt lat="45.9932218" lon="11.9008291"><ele>823.0</ele><time>2026-04-09T10:19:22.528Z</time></trkpt><trkpt lat="45.993197" lon="11.9007426"><ele>823.0</ele><time>2026-04-09T10:19:23.514Z</time></trkpt><trkpt lat="45.9930877" lon="11.9006989"><ele>823.0</ele><time>2026-04-09T10:19:24.521Z</time></trkpt><trkpt lat="45.9928221" lon="11.9006353"><ele>820.5999999999999</ele><time>2026-04-09T10:19:26.538Z</time></trkpt><trkpt lat="45.9927411" lon="11.9005316"><ele>818.1999999999999</ele><time>2026-04-09T10:19:27.532Z</time></trkpt><trkpt lat="45.9926777" lon="11.9005236"><ele>815.8</ele><time>2026-04-09T10:19:28.519Z</time></trkpt><trkpt lat="45.9925493" lon="11.9005404"><ele>813.4</ele><time>2026-04-09T10:19:30.516Z</time></trkpt><trkpt lat="45.992423" lon="11.9004604"><ele>811.0</ele><time>2026-04-09T10:19:32.529Z</time></trkpt><trkpt lat="45.9923248" lon="11.9004035"><ele>816.5999999999999</ele><time>2026-04-09T10:19:33.525Z</time></trkpt><trkpt lat="45.9922271" lon="11.9003398"><ele>822.2</ele><time>2026-04-09T10:19:34.518Z</time></trkpt><trkpt lat="45.992163" lon="11.900269"><ele>827.8</ele><time>2026-04-09T10:19:35.522Z</time></trkpt><trkpt lat="45.9920817" lon="11.9002168"><ele>833.4000000000001</ele><time>2026-04-09T10:19:36.521Z</time></trkpt><trkpt lat="45.9920022" lon="11.9001942"><ele>839.0</ele><time>2026-04-09T10:19:37.525Z</time></trkpt><trkpt lat="45.9918713" lon="11.900119"><ele>839.0</ele><time>2026-04-09T10:19:39.523Z</time></trkpt><trkpt lat="45.9917737" lon="11.9000843"><ele>839.0</ele><time>2026-04-09T10:19:40.537Z</time></trkpt><trkpt lat="45.9916855" lon="11.9000709"><ele>839.0</ele><time>2026-04-09T10:19:41.522Z</time></trkpt><trkpt lat="45.9916254" lon="11.9000437"><ele>839.0</ele><time>2026-04-09T10:19:42.54Z</time></trkpt><trkpt lat="45.9915455" lon="11.8999411"><ele>839.0</ele><time>2026-04-09T10:19:44.549Z</time></trkpt><trkpt lat="45.9914949" lon="11.8997521"><ele>838.25</ele><time>2026-04-09T10:19:46.516Z</time></trkpt><trkpt lat="45.9914829" lon="11.8995973"><ele>837.5</ele><time>2026-04-09T10:19:48.671Z</time></trkpt><trkpt lat="45.9915371" lon="11.8994724"><ele>836.75</ele><time>2026-04-09T10:19:50.513Z</time></trkpt><trkpt lat="45.9915893" lon="11.8993013"><ele>836.0</ele><time>2026-04-09T10:19:51.522Z</time></trkpt><trkpt lat="45.991659" lon="11.8990988"><ele>825.3333333333334</ele><time>2026-04-09T10:19:52.522Z</time></trkpt><trkpt lat="45.9917006" lon="11.8989786"><ele>814.6666666666667</ele><time>2026-04-09T10:19:53.524Z</time></trkpt><trkpt lat="45.9917681" lon="11.8989411"><ele>804.0</ele><time>2026-04-09T10:19:54.521Z</time></trkpt><trkpt lat="45.9918181" lon="11.8988361"><ele>793.3333333333333</ele><time>2026-04-09T10:19:55.523Z</time></trkpt><trkpt lat="45.9918951" lon="11.8987745"><ele>782.6666666666666</ele><time>2026-04-09T10:19:56.521Z</time></trkpt><trkpt lat="45.9919399" lon="11.8987085"><ele>772.0</ele><time>2026-04-09T10:19:57.529Z</time></trkpt><trkpt lat="45.992014" lon="11.8986704"><ele>772.0</ele><time>2026-04-09T10:19:58.534Z</time></trkpt><trkpt lat="45.9920976" lon="11.8986506"><ele>772.0</ele><time>2026-04-09T10:19:59.523Z</time></trkpt><trkpt lat="45.9922698" lon="11.8983778"><ele>772.0</ele><time>2026-04-09T10:20:03.519Z</time></trkpt><trkpt lat="45.9923284" lon="11.8982859"><ele>772.0</ele><time>2026-04-09T10:20:04.529Z</time></trkpt><trkpt lat="45.9924028" lon="11.8982049"><ele>765.75</ele><time>2026-04-09T10:20:06.524Z</time></trkpt><trkpt lat="45.9924834" lon="11.8982119"><ele>759.5</ele><time>2026-04-09T10:20:08.53Z</time></trkpt><trkpt lat="45.9925951" lon="11.8982053"><ele>753.25</ele><time>2026-04-09T10:20:10.517Z</time></trkpt><trkpt lat="45.9926727" lon="11.8980721"><ele>747.0</ele><time>2026-04-09T10:20:11.512Z</time></trkpt><trkpt lat="45.992739" lon="11.897856"><ele>747.0</ele><time>2026-04-09T10:20:13.519Z</time></trkpt><trkpt lat="45.9927771" lon="11.8977147"><ele>747.0</ele><time>2026-04-09T10:20:14.519Z</time></trkpt><trkpt lat="45.9928672" lon="11.8976209"><ele>747.0</ele><time>2026-04-09T10:20:15.522Z</time></trkpt><trkpt lat="45.9929214" lon="11.8975074"><ele>747.0</ele><time>2026-04-09T10:20:16.526Z</time></trkpt><trkpt lat="45.9930053" lon="11.8974476"><ele>747.0</ele><time>2026-04-09T10:20:17.527Z</time></trkpt><trkpt lat="45.9930642" lon="11.8973368"><ele>748.1666666666666</ele><time>2026-04-09T10:20:18.517Z</time></trkpt><trkpt lat="45.9930639" lon="11.8972366"><ele>749.3333333333334</ele><time>2026-04-09T10:20:19.524Z</time></trkpt><trkpt lat="45.9930406" lon="11.8971237"><ele>750.5</ele><time>2026-04-09T10:20:20.521Z</time></trkpt><trkpt lat="45.9930115" lon="11.8970254"><ele>751.6666666666667</ele><time>2026-04-09T10:20:21.526Z</time></trkpt><trkpt lat="45.9930094" lon="11.8969021"><ele>752.8333333333334</ele><time>2026-04-09T10:20:22.538Z</time></trkpt><trkpt lat="45.9929412" lon="11.8967883"><ele>754.0</ele><time>2026-04-09T10:20:23.52Z</time></trkpt><trkpt lat="45.9929149" lon="11.8966483"><ele>754.0</ele><time>2026-04-09T10:20:24.521Z</time></trkpt><trkpt lat="45.9928617" lon="11.8965398"><ele>754.0</ele><time>2026-04-09T10:20:25.53Z</time></trkpt><trkpt lat="45.9928106" lon="11.8964178"><ele>754.0</ele><time>2026-04-09T10:20:27.525Z</time></trkpt><trkpt lat="45.9928756" lon="11.896281"><ele>754.0</ele><time>2026-04-09T10:20:29.521Z</time></trkpt><trkpt lat="45.9929016" lon="11.8960863"><ele>754.0</ele><time>2026-04-09T10:20:31.527Z</time></trkpt><trkpt lat="45.9929681" lon="11.8960174"><ele>754.0</ele><time>2026-04-09T10:20:34.526Z</time></trkpt><trkpt lat="45.992986" lon="11.8961509"><ele>754.0</ele><time>2026-04-09T10:20:36.535Z</time></trkpt><trkpt lat="45.9930148" lon="11.8963249"><ele>754.0</ele><time>2026-04-09T10:20:39.514Z</time></trkpt><trkpt lat="45.9931141" lon="11.8964394"><ele>754.0</ele><time>2026-04-09T10:20:41.516Z</time></trkpt><trkpt lat="45.9932927" lon="11.8965438"><ele>746.0</ele><time>2026-04-09T10:20:43.518Z</time></trkpt><trkpt lat="45.9933896" lon="11.8965632"><ele>738.0</ele><time>2026-04-09T10:20:44.517Z</time></trkpt><trkpt lat="45.9934568" lon="11.8966144"><ele>730.0</ele><time>2026-04-09T10:20:45.519Z</time></trkpt><trkpt lat="45.993518" lon="11.8966844"><ele>722.0</ele><time>2026-04-09T10:20:46.526Z</time></trkpt><trkpt lat="45.9936045" lon="11.8967356"><ele>714.0</ele><time>2026-04-09T10:20:47.526Z</time></trkpt><trkpt lat="45.9936419" lon="11.8968173"><ele>706.0</ele><time>2026-04-09T10:20:48.523Z</time></trkpt><trkpt lat="45.9936851" lon="11.8969052"><ele>706.0</ele><time>2026-04-09T10:20:49.521Z</time></trkpt><trkpt lat="45.9936878" lon="11.8970695"><ele>706.0</ele><time>2026-04-09T10:20:50.521Z</time></trkpt><trkpt lat="45.9936716" lon="11.8971988"><ele>706.0</ele><time>2026-04-09T10:20:51.529Z</time></trkpt><trkpt lat="45.9936652" lon="11.8973093"><ele>706.0</ele><time>2026-04-09T10:20:52.526Z</time></trkpt><trkpt lat="45.9937" lon="11.8974036"><ele>706.0</ele><time>2026-04-09T10:20:55.519Z</time></trkpt><trkpt lat="45.99372" lon="11.8973155"><ele>706.0</ele><time>2026-04-09T10:20:57.523Z</time></trkpt><trkpt lat="45.9937048" lon="11.8971621"><ele>706.0</ele><time>2026-04-09T10:20:58.522Z</time></trkpt><trkpt lat="45.9937035" lon="11.89702"><ele>706.0</ele><time>2026-04-09T10:20:59.52Z</time></trkpt><trkpt lat="45.9936746" lon="11.8968909"><ele>706.0</ele><time>2026-04-09T10:21:00.52Z</time></trkpt><trkpt lat="45.9936221" lon="11.8967705"><ele>706.0</ele><time>2026-04-09T10:21:01.522Z</time></trkpt><trkpt lat="45.9936004" lon="11.8966366"><ele>706.0</ele><time>2026-04-09T10:21:02.53Z</time></trkpt><trkpt lat="45.9935695" lon="11.8965153"><ele>704.75</ele><time>2026-04-09T10:21:03.521Z</time></trkpt><trkpt lat="45.9935489" lon="11.8963857"><ele>703.5</ele><time>2026-04-09T10:21:04.519Z</time></trkpt><trkpt lat="45.9934665" lon="11.8961975"><ele>702.25</ele><time>2026-04-09T10:21:06.516Z</time></trkpt><trkpt lat="45.9934653" lon="11.8961043"><ele>701.0</ele><time>2026-04-09T10:21:07.591Z</time></trkpt><trkpt lat="45.9935531" lon="11.895951"><ele>696.4</ele><time>2026-04-09T10:21:09.525Z</time></trkpt><trkpt lat="45.9935411" lon="11.8958321"><ele>691.8</ele><time>2026-04-09T10:21:10.518Z</time></trkpt><trkpt lat="45.9934861" lon="11.8956599"><ele>687.1999999999999</ele><time>2026-04-09T10:21:12.523Z</time></trkpt><trkpt lat="45.9934217" lon="11.8954843"><ele>682.5999999999999</ele><time>2026-04-09T10:21:14.532Z</time></trkpt><trkpt lat="45.9933913" lon="11.8953851"><ele>678.0</ele><time>2026-04-09T10:21:15.516Z</time></trkpt><trkpt lat="45.9933569" lon="11.8952773"><ele>671.0</ele><time>2026-04-09T10:21:16.518Z</time></trkpt><trkpt lat="45.993274" lon="11.8951692"><ele>664.0</ele><time>2026-04-09T10:21:17.523Z</time></trkpt><trkpt lat="45.9934689" lon="11.8950849"><ele>657.0</ele><time>2026-04-09T10:21:20.52Z</time></trkpt><trkpt lat="45.9936275" lon="11.8949774"><ele>657.0</ele><time>2026-04-09T10:21:22.516Z</time></trkpt><trkpt lat="45.9936673" lon="11.8949051"><ele>657.0</ele><time>2026-04-09T10:21:23.554Z</time></trkpt><trkpt lat="45.9936717" lon="11.8947965"><ele>657.0</ele><time>2026-04-09T10:21:24.528Z</time></trkpt><trkpt lat="45.9936552" lon="11.8945914"><ele>657.0</ele><time>2026-04-09T10:21:26.517Z</time></trkpt><trkpt lat="45.9936335" lon="11.8944977"><ele>657.0</ele><time>2026-04-09T10:21:27.528Z</time></trkpt><trkpt lat="45.9937185" lon="11.8944711"><ele>657.0</ele><time>2026-04-09T10:21:30.525Z</time></trkpt><trkpt lat="45.99378" lon="11.8946768"><ele>657.0</ele><time>2026-04-09T10:21:32.519Z</time></trkpt><trkpt lat="45.993751" lon="11.8948133"><ele>657.0</ele><time>2026-04-09T10:21:33.533Z</time></trkpt><trkpt lat="45.9937802" lon="11.8949155"><ele>657.0</ele><time>2026-04-09T10:21:35.523Z</time></trkpt><trkpt lat="45.9938422" lon="11.8948458"><ele>657.0</ele><time>2026-04-09T10:21:38.519Z</time></trkpt><trkpt lat="45.993824" lon="11.8946975"><ele>657.0</ele><time>2026-04-09T10:21:39.52Z</time></trkpt><trkpt lat="45.993815" lon="11.8945779"><ele>657.0</ele><time>2026-04-09T10:21:40.517Z</time></trkpt><trkpt lat="45.9937834" lon="11.8944358"><ele>657.0</ele><time>2026-04-09T10:21:41.516Z</time></trkpt><trkpt lat="45.9937658" lon="11.8942931"><ele>657.0</ele><time>2026-04-09T10:21:42.525Z</time></trkpt><trkpt lat="45.9937489" lon="11.8941363"><ele>657.0</ele><time>2026-04-09T10:21:43.515Z</time></trkpt><trkpt lat="45.9937482" lon="11.8939884"><ele>657.0</ele><time>2026-04-09T10:21:44.518Z</time></trkpt><trkpt lat="45.9937461" lon="11.8938382"><ele>657.0</ele><time>2026-04-09T10:21:45.513Z</time></trkpt><trkpt lat="45.9937253" lon="11.8937325"><ele>655.25</ele><time>2026-04-09T10:21:46.546Z</time></trkpt><trkpt lat="45.9936737" lon="11.8935272"><ele>653.5</ele><time>2026-04-09T10:21:48.518Z</time></trkpt><trkpt lat="45.993669" lon="11.8933973"><ele>651.75</ele><time>2026-04-09T10:21:49.551Z</time></trkpt><trkpt lat="45.9936695" lon="11.8931584"><ele>650.0</ele><time>2026-04-09T10:21:51.519Z</time></trkpt><trkpt lat="45.9936652" lon="11.8930281"><ele>648.0</ele><time>2026-04-09T10:21:52.523Z</time></trkpt><trkpt lat="45.9936854" lon="11.8929223"><ele>646.0</ele><time>2026-04-09T10:21:53.516Z</time></trkpt><trkpt lat="45.9937299" lon="11.8928246"><ele>644.0</ele><time>2026-04-09T10:21:56.723Z</time></trkpt><trkpt lat="45.9937914" lon="11.892898"><ele>642.0</ele><time>2026-04-09T10:21:58.539Z</time></trkpt><trkpt lat="45.9939284" lon="11.8930371"><ele>640.0</ele><time>2026-04-09T10:22:00.526Z</time></trkpt><trkpt lat="45.9939867" lon="11.8930907"><ele>640.0</ele><time>2026-04-09T10:22:01.531Z</time></trkpt><trkpt lat="45.994026" lon="11.893215"><ele>640.0</ele><time>2026-04-09T10:22:02.517Z</time></trkpt><trkpt lat="45.9940503" lon="11.8933512"><ele>640.0</ele><time>2026-04-09T10:22:03.523Z</time></trkpt><trkpt lat="45.9941036" lon="11.8934869"><ele>640.0</ele><time>2026-04-09T10:22:04.514Z</time></trkpt><trkpt lat="45.9941701" lon="11.8936306"><ele>640.0</ele><time>2026-04-09T10:22:05.517Z</time></trkpt><trkpt lat="45.9941989" lon="11.8937505"><ele>631.2</ele><time>2026-04-09T10:22:06.511Z</time></trkpt><trkpt lat="45.9942554" lon="11.893869"><ele>622.4</ele><time>2026-04-09T10:22:07.52Z</time></trkpt><trkpt lat="45.9943035" lon="11.8939703"><ele>613.6</ele><time>2026-04-09T10:22:08.511Z</time></trkpt><trkpt lat="45.9943691" lon="11.8940704"><ele>604.8</ele><time>2026-04-09T10:22:09.512Z</time></trkpt><trkpt lat="45.9944196" lon="11.8941956"><ele>596.0</ele><time>2026-04-09T10:22:10.52Z</time></trkpt><trkpt lat="45.99445" lon="11.8943418"><ele>596.0</ele><time>2026-04-09T10:22:11.527Z</time></trkpt><trkpt lat="45.9944769" lon="11.8944841"><ele>596.0</ele><time>2026-04-09T10:22:12.511Z</time></trkpt><trkpt lat="45.9945285" lon="11.8946209"><ele>596.0</ele><time>2026-04-09T10:22:13.511Z</time></trkpt><trkpt lat="45.9945275" lon="11.8947957"><ele>596.0</ele><time>2026-04-09T10:22:14.519Z</time></trkpt><trkpt lat="45.9945221" lon="11.8949417"><ele>596.0</ele><time>2026-04-09T10:22:15.563Z</time></trkpt><trkpt lat="45.9945076" lon="11.8950674"><ele>600.8</ele><time>2026-04-09T10:22:16.515Z</time></trkpt><trkpt lat="45.9945219" lon="11.8951834"><ele>605.6</ele><time>2026-04-09T10:22:17.521Z</time></trkpt><trkpt lat="45.994551" lon="11.8952848"><ele>610.4</ele><time>2026-04-09T10:22:18.519Z</time></trkpt><trkpt lat="45.9946252" lon="11.8952935"><ele>615.2</ele><time>2026-04-09T10:22:19.527Z</time></trkpt><trkpt lat="45.9947112" lon="11.8954288"><ele>620.0</ele><time>2026-04-09T10:22:22.518Z</time></trkpt><trkpt lat="45.9946991" lon="11.8955823"><ele>620.0</ele><time>2026-04-09T10:22:24.517Z</time></trkpt><trkpt lat="45.9947698" lon="11.8958467"><ele>620.0</ele><time>2026-04-09T10:22:27.551Z</time></trkpt><trkpt lat="45.9949387" lon="11.8958323"><ele>620.0</ele><time>2026-04-09T10:22:29.517Z</time></trkpt><trkpt lat="45.9950035" lon="11.8958331"><ele>620.0</ele><time>2026-04-09T10:22:30.527Z</time></trkpt><trkpt lat="45.9950775" lon="11.895883"><ele>613.25</ele><time>2026-04-09T10:22:31.524Z</time></trkpt><trkpt lat="45.995149" lon="11.8959549"><ele>606.5</ele><time>2026-04-09T10:22:32.535Z</time></trkpt><trkpt lat="45.9952357" lon="11.8960242"><ele>599.75</ele><time>2026-04-09T10:22:33.524Z</time></trkpt><trkpt lat="45.9953064" lon="11.8961069"><ele>593.0</ele><time>2026-04-09T10:22:34.542Z</time></trkpt><trkpt lat="45.9954408" lon="11.8963072"><ele>593.0</ele><time>2026-04-09T10:22:36.511Z</time></trkpt><trkpt lat="45.9954737" lon="11.8964538"><ele>593.0</ele><time>2026-04-09T10:22:37.52Z</time></trkpt><trkpt lat="45.9955262" lon="11.8965499"><ele>593.0</ele><time>2026-04-09T10:22:38.521Z</time></trkpt><trkpt lat="45.9956075" lon="11.8966334"><ele>593.0</ele><time>2026-04-09T10:22:39.525Z</time></trkpt><trkpt lat="45.9956697" lon="11.8966864"><ele>593.0</ele><time>2026-04-09T10:22:40.524Z</time></trkpt><trkpt lat="45.9957249" lon="11.8967824"><ele>594.1999999999999</ele><time>2026-04-09T10:22:42.531Z</time></trkpt><trkpt lat="45.9957485" lon="11.8969628"><ele>595.4</ele><time>2026-04-09T10:22:44.523Z</time></trkpt><trkpt lat="45.995754" lon="11.8970886"><ele>596.5999999999999</ele><time>2026-04-09T10:22:45.522Z</time></trkpt><trkpt lat="45.9957664" lon="11.8971963"><ele>597.8</ele><time>2026-04-09T10:22:46.52Z</time></trkpt><trkpt lat="45.9957814" lon="11.897296"><ele>599.0</ele><time>2026-04-09T10:22:47.514Z</time></trkpt><trkpt lat="45.9958659" lon="11.8973802"><ele>589.6</ele><time>2026-04-09T10:22:48.521Z</time></trkpt><trkpt lat="45.9959442" lon="11.8975388"><ele>580.2</ele><time>2026-04-09T10:22:50.552Z</time></trkpt><trkpt lat="45.9959949" lon="11.8976492"><ele>570.8000000000001</ele><time>2026-04-09T10:22:51.521Z</time></trkpt><trkpt lat="45.9960109" lon="11.8977961"><ele>561.4</ele><time>2026-04-09T10:22:52.521Z</time></trkpt><trkpt lat="45.9960598" lon="11.8979084"><ele>552.0</ele><time>2026-04-09T10:22:53.513Z</time></trkpt><trkpt lat="45.9960252" lon="11.8980474"><ele>550.5</ele><time>2026-04-09T10:22:54.52Z</time></trkpt><trkpt lat="45.9959586" lon="11.8981514"><ele>549.0</ele><time>2026-04-09T10:22:55.513Z</time></trkpt><trkpt lat="45.9959637" lon="11.8982797"><ele>547.5</ele><time>2026-04-09T10:22:57.513Z</time></trkpt><trkpt lat="45.9961069" lon="11.8980531"><ele>546.0</ele><time>2026-04-09T10:23:02.534Z</time></trkpt><trkpt lat="45.9962258" lon="11.8977892"><ele>546.0</ele><time>2026-04-09T10:23:04.525Z</time></trkpt><trkpt lat="45.9962677" lon="11.897701"><ele>546.0</ele><time>2026-04-09T10:23:05.523Z</time></trkpt><trkpt lat="45.9962863" lon="11.8976052"><ele>546.0</ele><time>2026-04-09T10:23:06.519Z</time></trkpt><trkpt lat="45.9962699" lon="11.8974823"><ele>546.0</ele><time>2026-04-09T10:23:07.519Z</time></trkpt><trkpt lat="45.9962761" lon="11.8973741"><ele>546.0</ele><time>2026-04-09T10:23:08.525Z</time></trkpt><trkpt lat="45.9962714" lon="11.8972691"><ele>546.0</ele><time>2026-04-09T10:23:09.527Z</time></trkpt><trkpt lat="45.9962796" lon="11.8971364"><ele>547.2</ele><time>2026-04-09T10:23:10.525Z</time></trkpt><trkpt lat="45.9962791" lon="11.8969416"><ele>548.4000000000001</ele><time>2026-04-09T10:23:11.515Z</time></trkpt><trkpt lat="45.9962688" lon="11.8968124"><ele>549.6</ele><time>2026-04-09T10:23:12.519Z</time></trkpt><trkpt lat="45.9962731" lon="11.8966741"><ele>550.8000000000001</ele><time>2026-04-09T10:23:13.518Z</time></trkpt><trkpt lat="45.9962718" lon="11.8965403"><ele>552.0</ele><time>2026-04-09T10:23:14.525Z</time></trkpt><trkpt lat="45.9962744" lon="11.8964232"><ele>549.6666666666666</ele><time>2026-04-09T10:23:15.52Z</time></trkpt><trkpt lat="45.996251" lon="11.8963125"><ele>547.3333333333334</ele><time>2026-04-09T10:23:16.53Z</time></trkpt><trkpt lat="45.996247" lon="11.8962052"><ele>545.0</ele><time>2026-04-09T10:23:17.558Z</time></trkpt><trkpt lat="45.9962206" lon="11.8960881"><ele>542.6666666666667</ele><time>2026-04-09T10:23:18.52Z</time></trkpt><trkpt lat="45.9961939" lon="11.8959335"><ele>540.3333333333334</ele><time>2026-04-09T10:23:19.525Z</time></trkpt><trkpt lat="45.9961636" lon="11.8958116"><ele>538.0</ele><time>2026-04-09T10:23:20.525Z</time></trkpt><trkpt lat="45.9961402" lon="11.895693"><ele>536.3333333333334</ele><time>2026-04-09T10:23:21.523Z</time></trkpt><trkpt lat="45.9961341" lon="11.8955654"><ele>534.6666666666667</ele><time>2026-04-09T10:23:22.524Z</time></trkpt><trkpt lat="45.996136" lon="11.895455"><ele>533.0</ele><time>2026-04-09T10:23:23.538Z</time></trkpt><trkpt lat="45.9960722" lon="11.8953552"><ele>531.3333333333334</ele><time>2026-04-09T10:23:25.526Z</time></trkpt><trkpt lat="45.9960088" lon="11.8952966"><ele>529.6666666666666</ele><time>2026-04-09T10:23:26.534Z</time></trkpt><trkpt lat="45.9959369" lon="11.8952038"><ele>528.0</ele><time>2026-04-09T10:23:28.526Z</time></trkpt><trkpt lat="45.9959681" lon="11.8950864"><ele>525.5</ele><time>2026-04-09T10:23:30.527Z</time></trkpt><trkpt lat="45.9960351" lon="11.8949451"><ele>523.0</ele><time>2026-04-09T10:23:32.535Z</time></trkpt><trkpt lat="45.9960435" lon="11.8947753"><ele>520.5</ele><time>2026-04-09T10:23:34.53Z</time></trkpt><trkpt lat="45.9960173" lon="11.8945146"><ele>518.0</ele><time>2026-04-09T10:23:36.511Z</time></trkpt><trkpt lat="45.9960106" lon="11.8943888"><ele>514.25</ele><time>2026-04-09T10:23:37.536Z</time></trkpt><trkpt lat="45.9959973" lon="11.8942283"><ele>510.5</ele><time>2026-04-09T10:23:39.517Z</time></trkpt><trkpt lat="45.9960468" lon="11.8939844"><ele>506.75</ele><time>2026-04-09T10:23:42.523Z</time></trkpt><trkpt lat="45.9960298" lon="11.8938106"><ele>503.0</ele><time>2026-04-09T10:23:44.521Z</time></trkpt><trkpt lat="45.9960089" lon="11.8936989"><ele>503.0</ele><time>2026-04-09T10:23:45.516Z</time></trkpt><trkpt lat="45.9960062" lon="11.8935615"><ele>503.0</ele><time>2026-04-09T10:23:46.517Z</time></trkpt><trkpt lat="45.9960107" lon="11.8933322"><ele>503.0</ele><time>2026-04-09T10:23:48.558Z</time></trkpt><trkpt lat="45.9960591" lon="11.8932032"><ele>503.0</ele><time>2026-04-09T10:23:49.514Z</time></trkpt><trkpt lat="45.9960888" lon="11.8930721"><ele>501.66666666666663</ele><time>2026-04-09T10:23:50.516Z</time></trkpt><trkpt lat="45.9961248" lon="11.8929315"><ele>500.33333333333337</ele><time>2026-04-09T10:23:51.531Z</time></trkpt><trkpt lat="45.9961846" lon="11.8926575"><ele>499.0</ele><time>2026-04-09T10:23:53.52Z</time></trkpt><trkpt lat="45.9962489" lon="11.8924059"><ele>498.6</ele><time>2026-04-09T10:23:55.534Z</time></trkpt><trkpt lat="45.9962852" lon="11.89229"><ele>498.2</ele><time>2026-04-09T10:23:56.516Z</time></trkpt><trkpt lat="45.9963046" lon="11.8921923"><ele>497.80000000000007</ele><time>2026-04-09T10:23:57.517Z</time></trkpt><trkpt lat="45.9962886" lon="11.8920891"><ele>497.40000000000003</ele><time>2026-04-09T10:23:58.516Z</time></trkpt><trkpt lat="45.9962396" lon="11.8919186"><ele>497.0</ele><time>2026-04-09T10:24:00.541Z</time></trkpt><trkpt lat="45.9961915" lon="11.8917873"><ele>497.0</ele><time>2026-04-09T10:24:02.531Z</time></trkpt><trkpt lat="45.9963663" lon="11.8918714"><ele>497.0</ele><time>2026-04-09T10:24:06.516Z</time></trkpt><trkpt lat="45.9964527" lon="11.8920398"><ele>497.0</ele><time>2026-04-09T10:24:07.52Z</time></trkpt><trkpt lat="45.9964655" lon="11.8921763"><ele>497.0</ele><time>2026-04-09T10:24:08.517Z</time></trkpt><trkpt lat="45.9965223" lon="11.8922923"><ele>497.0</ele><time>2026-04-09T10:24:09.519Z</time></trkpt><trkpt lat="45.9965346" lon="11.8924503"><ele>497.00000000000006</ele><time>2026-04-09T10:24:10.523Z</time></trkpt><trkpt lat="45.9965459" lon="11.892587"><ele>497.00000000000006</ele><time>2026-04-09T10:24:11.516Z</time></trkpt><trkpt lat="45.996582" lon="11.8927144"><ele>497.0</ele><time>2026-04-09T10:24:12.534Z</time></trkpt><trkpt lat="45.9966164" lon="11.8928293"><ele>497.0</ele><time>2026-04-09T10:24:13.523Z</time></trkpt><trkpt lat="45.9966486" lon="11.8929563"><ele>491.66666666666663</ele><time>2026-04-09T10:24:14.515Z</time></trkpt><trkpt lat="45.9967022" lon="11.8930786"><ele>486.3333333333333</ele><time>2026-04-09T10:24:15.523Z</time></trkpt><trkpt lat="45.9967378" lon="11.8931854"><ele>481.0</ele><time>2026-04-09T10:24:16.514Z</time></trkpt><trkpt lat="45.9968082" lon="11.893263"><ele>475.66666666666663</ele><time>2026-04-09T10:24:17.521Z</time></trkpt><trkpt lat="45.9968773" lon="11.8933526"><ele>470.3333333333333</ele><time>2026-04-09T10:24:18.541Z</time></trkpt><trkpt lat="45.9969352" lon="11.8934353"><ele>465.0</ele><time>2026-04-09T10:24:19.542Z</time></trkpt><trkpt lat="45.9969945" lon="11.8935318"><ele>465.0</ele><time>2026-04-09T10:24:20.546Z</time></trkpt><trkpt lat="45.9970604" lon="11.8936062"><ele>465.0</ele><time>2026-04-09T10:24:21.516Z</time></trkpt><trkpt lat="45.9971" lon="11.8937034"><ele>465.0</ele><time>2026-04-09T10:24:22.53Z</time></trkpt><trkpt lat="45.9971203" lon="11.893811"><ele>465.0</ele><time>2026-04-09T10:24:23.53Z</time></trkpt><trkpt lat="45.9971635" lon="11.8939179"><ele>465.0</ele><time>2026-04-09T10:24:25.519Z</time></trkpt><trkpt lat="45.997342" lon="11.8937328"><ele>465.0</ele><time>2026-04-09T10:24:29.528Z</time></trkpt><trkpt lat="45.9973723" lon="11.8935999"><ele>465.0</ele><time>2026-04-09T10:24:30.522Z</time></trkpt><trkpt lat="45.9973045" lon="11.8933466"><ele>465.0</ele><time>2026-04-09T10:24:31.52Z</time></trkpt><trkpt lat="45.9973124" lon="11.893171"><ele>465.0</ele><time>2026-04-09T10:24:32.516Z</time></trkpt><trkpt lat="45.9972862" lon="11.893028"><ele>464.8</ele><time>2026-04-09T10:24:33.512Z</time></trkpt><trkpt lat="45.9972695" lon="11.8928892"><ele>464.6</ele><time>2026-04-09T10:24:34.535Z</time></trkpt><trkpt lat="45.9972824" lon="11.8927483"><ele>464.4</ele><time>2026-04-09T10:24:35.51Z</time></trkpt><trkpt lat="45.997294" lon="11.8925868"><ele>464.2</ele><time>2026-04-09T10:24:36.519Z</time></trkpt><trkpt lat="45.9972898" lon="11.8924662"><ele>464.0</ele><time>2026-04-09T10:24:37.52Z</time></trkpt><trkpt lat="45.9972863" lon="11.892317"><ele>463.2</ele><time>2026-04-09T10:24:38.521Z</time></trkpt><trkpt lat="45.9972626" lon="11.8921472"><ele>462.4</ele><time>2026-04-09T10:24:39.515Z</time></trkpt><trkpt lat="45.9972467" lon="11.8920199"><ele>461.6</ele><time>2026-04-09T10:24:40.529Z</time></trkpt><trkpt lat="45.9972602" lon="11.8919056"><ele>460.8</ele><time>2026-04-09T10:24:41.523Z</time></trkpt><trkpt lat="45.9972693" lon="11.8917626"><ele>460.0</ele><time>2026-04-09T10:24:42.531Z</time></trkpt><trkpt lat="45.997316" lon="11.8915913"><ele>459.0</ele><time>2026-04-09T10:24:43.516Z</time></trkpt><trkpt lat="45.9973357" lon="11.8914513"><ele>458.0</ele><time>2026-04-09T10:24:44.519Z</time></trkpt><trkpt lat="45.9973643" lon="11.8912928"><ele>457.0</ele><time>2026-04-09T10:24:45.514Z</time></trkpt><trkpt lat="45.9973624" lon="11.8911414"><ele>456.0</ele><time>2026-04-09T10:24:46.593Z</time></trkpt><trkpt lat="45.9973689" lon="11.8907792"><ele>455.1666666666667</ele><time>2026-04-09T10:24:48.513Z</time></trkpt><trkpt lat="45.9973709" lon="11.8906087"><ele>454.33333333333337</ele><time>2026-04-09T10:24:49.518Z</time></trkpt><trkpt lat="45.9974159" lon="11.8905119"><ele>453.5</ele><time>2026-04-09T10:24:50.512Z</time></trkpt><trkpt lat="45.997439" lon="11.8903859"><ele>452.6666666666667</ele><time>2026-04-09T10:24:51.514Z</time></trkpt><trkpt lat="45.9974824" lon="11.890285"><ele>451.83333333333337</ele><time>2026-04-09T10:24:52.515Z</time></trkpt><trkpt lat="45.9975185" lon="11.8901947"><ele>451.0</ele><time>2026-04-09T10:24:53.518Z</time></trkpt><trkpt lat="45.997631" lon="11.890121"><ele>447.20000000000005</ele><time>2026-04-09T10:24:55.528Z</time></trkpt><trkpt lat="45.9977189" lon="11.8899989"><ele>443.40000000000003</ele><time>2026-04-09T10:24:57.519Z</time></trkpt><trkpt lat="45.9977554" lon="11.8898254"><ele>439.6</ele><time>2026-04-09T10:24:59.515Z</time></trkpt><trkpt lat="45.9977617" lon="11.889722"><ele>435.8</ele><time>2026-04-09T10:25:00.517Z</time></trkpt><trkpt lat="45.9978134" lon="11.8895925"><ele>432.0</ele><time>2026-04-09T10:25:02.527Z</time></trkpt><trkpt lat="45.9979681" lon="11.8896693"><ele>432.0</ele><time>2026-04-09T10:25:05.523Z</time></trkpt><trkpt lat="45.9980226" lon="11.8897163"><ele>432.00000000000006</ele><time>2026-04-09T10:25:06.519Z</time></trkpt><trkpt lat="45.9981862" lon="11.8897638"><ele>432.00000000000006</ele><time>2026-04-09T10:25:08.591Z</time></trkpt><trkpt lat="45.9982767" lon="11.8897842"><ele>432.0</ele><time>2026-04-09T10:25:09.52Z</time></trkpt><trkpt lat="45.9983875" lon="11.8898013"><ele>432.0</ele><time>2026-04-09T10:25:10.523Z</time></trkpt><trkpt lat="45.9985022" lon="11.8898104"><ele>429.40000000000003</ele><time>2026-04-09T10:25:11.521Z</time></trkpt><trkpt lat="45.9985807" lon="11.8898305"><ele>426.80000000000007</ele><time>2026-04-09T10:25:12.519Z</time></trkpt><trkpt lat="45.9987032" lon="11.8898909"><ele>424.2</ele><time>2026-04-09T10:25:14.52Z</time></trkpt><trkpt lat="45.9987751" lon="11.8899553"><ele>421.6</ele><time>2026-04-09T10:25:15.532Z</time></trkpt><trkpt lat="45.9988614" lon="11.8900553"><ele>419.0</ele><time>2026-04-09T10:25:16.518Z</time></trkpt><trkpt lat="45.9989505" lon="11.8901417"><ele>418.99999999999994</ele><time>2026-04-09T10:25:17.524Z</time></trkpt><trkpt lat="45.9990237" lon="11.8902281"><ele>419.0</ele><time>2026-04-09T10:25:18.517Z</time></trkpt><trkpt lat="45.9990948" lon="11.8903167"><ele>419.0</ele><time>2026-04-09T10:25:19.518Z</time></trkpt><trkpt lat="45.999171" lon="11.8904019"><ele>419.0</ele><time>2026-04-09T10:25:20.524Z</time></trkpt><trkpt lat="45.9992308" lon="11.8904868"><ele>418.99999999999994</ele><time>2026-04-09T10:25:21.523Z</time></trkpt><trkpt lat="45.9992818" lon="11.8905418"><ele>419.0</ele><time>2026-04-09T10:25:22.519Z</time></trkpt><trkpt lat="45.9993477" lon="11.8906046"><ele>414.25</ele><time>2026-04-09T10:25:24.52Z</time></trkpt><trkpt lat="45.9994431" lon="11.8903888"><ele>409.5</ele><time>2026-04-09T10:25:29.533Z</time></trkpt><trkpt lat="45.9994545" lon="11.8902923"><ele>404.75</ele><time>2026-04-09T10:25:30.521Z</time></trkpt><trkpt lat="45.9994964" lon="11.8901484"><ele>400.0</ele><time>2026-04-09T10:25:31.526Z</time></trkpt><trkpt lat="45.9995149" lon="11.8899965"><ele>399.4</ele><time>2026-04-09T10:25:32.533Z</time></trkpt><trkpt lat="45.9995411" lon="11.8898691"><ele>398.8</ele><time>2026-04-09T10:25:33.529Z</time></trkpt><trkpt lat="45.9995761" lon="11.8897268"><ele>398.20000000000005</ele><time>2026-04-09T10:25:34.523Z</time></trkpt><trkpt lat="45.9996099" lon="11.889596"><ele>397.6</ele><time>2026-04-09T10:25:35.518Z</time></trkpt><trkpt lat="45.9996352" lon="11.8894718"><ele>397.0</ele><time>2026-04-09T10:25:36.52Z</time></trkpt><trkpt lat="45.9996394" lon="11.8893112"><ele>396.0</ele><time>2026-04-09T10:25:37.524Z</time></trkpt><trkpt lat="45.9996649" lon="11.8892202"><ele>395.0</ele><time>2026-04-09T10:25:38.515Z</time></trkpt><trkpt lat="45.9997071" lon="11.8890925"><ele>394.0</ele><time>2026-04-09T10:25:40.525Z</time></trkpt><trkpt lat="45.9997831" lon="11.8891175"><ele>393.0</ele><time>2026-04-09T10:25:41.517Z</time></trkpt><trkpt lat="45.9998938" lon="11.8891123"><ele>392.0</ele><time>2026-04-09T10:25:43.515Z</time></trkpt><trkpt lat="45.9999968" lon="11.8892423"><ele>393.0</ele><time>2026-04-09T10:25:44.525Z</time></trkpt><trkpt lat="46.0000732" lon="11.8892895"><ele>394.0</ele><time>2026-04-09T10:25:45.521Z</time></trkpt><trkpt lat="46.0001244" lon="11.8893731"><ele>395.0</ele><time>2026-04-09T10:25:46.522Z</time></trkpt><trkpt lat="46.0001803" lon="11.8895349"><ele>396.0</ele><time>2026-04-09T10:25:47.532Z</time></trkpt><trkpt lat="46.000235" lon="11.8896724"><ele>397.0</ele><time>2026-04-09T10:25:48.525Z</time></trkpt><trkpt lat="46.0002805" lon="11.889788"><ele>397.0</ele><time>2026-04-09T10:25:49.532Z</time></trkpt><trkpt lat="46.0003258" lon="11.8899172"><ele>397.0</ele><time>2026-04-09T10:25:50.518Z</time></trkpt><trkpt lat="46.0003837" lon="11.8900309"><ele>397.0</ele><time>2026-04-09T10:25:51.512Z</time></trkpt><trkpt lat="46.0004274" lon="11.8901667"><ele>397.0</ele><time>2026-04-09T10:25:52.514Z</time></trkpt><trkpt lat="46.000469" lon="11.8903101"><ele>397.0</ele><time>2026-04-09T10:25:53.538Z</time></trkpt><trkpt lat="46.000512" lon="11.890455"><ele>397.6</ele><time>2026-04-09T10:25:54.535Z</time></trkpt><trkpt lat="46.0005548" lon="11.8906003"><ele>398.20000000000005</ele><time>2026-04-09T10:25:55.52Z</time></trkpt><trkpt lat="46.000594" lon="11.8907412"><ele>398.8</ele><time>2026-04-09T10:25:56.517Z</time></trkpt><trkpt lat="46.0006401" lon="11.890869"><ele>399.4</ele><time>2026-04-09T10:25:57.523Z</time></trkpt><trkpt lat="46.0007052" lon="11.890993"><ele>400.0</ele><time>2026-04-09T10:25:58.533Z</time></trkpt><trkpt lat="46.0007677" lon="11.8911042"><ele>395.4</ele><time>2026-04-09T10:25:59.518Z</time></trkpt><trkpt lat="46.0008483" lon="11.8912007"><ele>390.8</ele><time>2026-04-09T10:26:00.516Z</time></trkpt><trkpt lat="46.0009277" lon="11.891282"><ele>386.20000000000005</ele><time>2026-04-09T10:26:01.525Z</time></trkpt><trkpt lat="46.0010162" lon="11.8913497"><ele>381.6</ele><time>2026-04-09T10:26:02.522Z</time></trkpt><trkpt lat="46.0010901" lon="11.8914248"><ele>377.0</ele><time>2026-04-09T10:26:03.527Z</time></trkpt><trkpt lat="46.0011645" lon="11.8914968"><ele>377.0</ele><time>2026-04-09T10:26:04.516Z</time></trkpt><trkpt lat="46.00124" lon="11.8915461"><ele>377.0</ele><time>2026-04-09T10:26:05.518Z</time></trkpt><trkpt lat="46.0013525" lon="11.891591"><ele>377.0</ele><time>2026-04-09T10:26:07.524Z</time></trkpt><trkpt lat="46.0014639" lon="11.8915932"><ele>377.0</ele><time>2026-04-09T10:26:09.517Z</time></trkpt><trkpt lat="46.0015411" lon="11.8915895"><ele>377.0</ele><time>2026-04-09T10:26:10.517Z</time></trkpt><trkpt lat="46.0016131" lon="11.8915893"><ele>374.83333333333337</ele><time>2026-04-09T10:26:11.515Z</time></trkpt><trkpt lat="46.0016908" lon="11.8915897"><ele>372.6666666666667</ele><time>2026-04-09T10:26:12.531Z</time></trkpt><trkpt lat="46.0017685" lon="11.8916055"><ele>370.5</ele><time>2026-04-09T10:26:13.525Z</time></trkpt><trkpt lat="46.0018644" lon="11.8916392"><ele>368.3333333333333</ele><time>2026-04-09T10:26:14.517Z</time></trkpt><trkpt lat="46.0019437" lon="11.89169"><ele>366.16666666666663</ele><time>2026-04-09T10:26:15.522Z</time></trkpt><trkpt lat="46.0020379" lon="11.8917434"><ele>364.0</ele><time>2026-04-09T10:26:16.523Z</time></trkpt><trkpt lat="46.0021341" lon="11.8917839"><ele>364.0</ele><time>2026-04-09T10:26:17.53Z</time></trkpt><trkpt lat="46.0022275" lon="11.8918165"><ele>364.0</ele><time>2026-04-09T10:26:18.515Z</time></trkpt><trkpt lat="46.0023219" lon="11.8918483"><ele>364.0</ele><time>2026-04-09T10:26:19.516Z</time></trkpt><trkpt lat="46.0024145" lon="11.8918747"><ele>364.0</ele><time>2026-04-09T10:26:20.513Z</time></trkpt><trkpt lat="46.0024974" lon="11.8919108"><ele>364.0</ele><time>2026-04-09T10:26:21.51Z</time></trkpt><trkpt lat="46.0025746" lon="11.8919479"><ele>364.0</ele><time>2026-04-09T10:26:22.525Z</time></trkpt><trkpt lat="46.0026386" lon="11.8919888"><ele>364.0</ele><time>2026-04-09T10:26:23.529Z</time></trkpt><trkpt lat="46.0027297" lon="11.892053"><ele>364.0</ele><time>2026-04-09T10:26:25.52Z</time></trkpt><trkpt lat="46.0027913" lon="11.8921438"><ele>364.0</ele><time>2026-04-09T10:26:27.522Z</time></trkpt><trkpt lat="46.0028514" lon="11.8922838"><ele>364.0</ele><time>2026-04-09T10:26:29.528Z</time></trkpt><trkpt lat="46.0028777" lon="11.8923881"><ele>364.0</ele><time>2026-04-09T10:26:30.52Z</time></trkpt><trkpt lat="46.0028928" lon="11.8924876"><ele>364.0</ele><time>2026-04-09T10:26:31.531Z</time></trkpt><trkpt lat="46.0029192" lon="11.8926037"><ele>364.0</ele><time>2026-04-09T10:26:32.513Z</time></trkpt><trkpt lat="46.0029428" lon="11.8927177"><ele>364.0</ele><time>2026-04-09T10:26:33.519Z</time></trkpt><trkpt lat="46.0029718" lon="11.8928341"><ele>364.0</ele><time>2026-04-09T10:26:34.521Z</time></trkpt><trkpt lat="46.0029951" lon="11.8929363"><ele>364.0</ele><time>2026-04-09T10:26:35.516Z</time></trkpt><trkpt lat="46.003023" lon="11.8930365"><ele>363.66666666666663</ele><time>2026-04-09T10:26:36.537Z</time></trkpt><trkpt lat="46.0030416" lon="11.8931487"><ele>363.3333333333333</ele><time>2026-04-09T10:26:37.516Z</time></trkpt><trkpt lat="46.003074" lon="11.8932268"><ele>363.0</ele><time>2026-04-09T10:26:38.52Z</time></trkpt><trkpt lat="46.0031541" lon="11.8933768"><ele>362.6666666666667</ele><time>2026-04-09T10:26:40.518Z</time></trkpt><trkpt lat="46.0032193" lon="11.89345"><ele>362.33333333333337</ele><time>2026-04-09T10:26:41.527Z</time></trkpt><trkpt lat="46.0032821" lon="11.8935158"><ele>362.0</ele><time>2026-04-09T10:26:42.519Z</time></trkpt><trkpt lat="46.0033521" lon="11.8935809"><ele>362.0</ele><time>2026-04-09T10:26:43.524Z</time></trkpt><trkpt lat="46.0034298" lon="11.8936434"><ele>362.0</ele><time>2026-04-09T10:26:44.53Z</time></trkpt><trkpt lat="46.0035206" lon="11.893708"><ele>362.0</ele><time>2026-04-09T10:26:45.517Z</time></trkpt><trkpt lat="46.0035992" lon="11.8937292"><ele>362.0</ele><time>2026-04-09T10:26:46.525Z</time></trkpt><trkpt lat="46.0036647" lon="11.8937534"><ele>362.0</ele><time>2026-04-09T10:26:47.528Z</time></trkpt><trkpt lat="46.0037292" lon="11.8937616"><ele>362.0</ele><time>2026-04-09T10:26:48.528Z</time></trkpt><trkpt lat="46.0037923" lon="11.8937721"><ele>362.0</ele><time>2026-04-09T10:26:49.531Z</time></trkpt><trkpt lat="46.0039129" lon="11.8938246"><ele>362.0</ele><time>2026-04-09T10:26:51.52Z</time></trkpt><trkpt lat="46.003992" lon="11.8939378"><ele>362.0</ele><time>2026-04-09T10:26:53.525Z</time></trkpt><trkpt lat="46.0040884" lon="11.8940365"><ele>362.0</ele><time>2026-04-09T10:26:55.522Z</time></trkpt><trkpt lat="46.0041766" lon="11.8941245"><ele>362.1666666666667</ele><time>2026-04-09T10:26:57.537Z</time></trkpt><trkpt lat="46.0042024" lon="11.8942132"><ele>362.33333333333337</ele><time>2026-04-09T10:26:59.526Z</time></trkpt><trkpt lat="46.004243" lon="11.8943176"><ele>362.5</ele><time>2026-04-09T10:27:03.524Z</time></trkpt><trkpt lat="46.0042936" lon="11.8943827"><ele>362.6666666666667</ele><time>2026-04-09T10:27:07.516Z</time></trkpt><trkpt lat="46.004368" lon="11.8942481"><ele>362.8333333333333</ele><time>2026-04-09T10:28:43.53Z</time></trkpt><trkpt lat="46.0044137" lon="11.894134"><ele>363.0</ele><time>2026-04-09T10:28:44.521Z</time></trkpt><trkpt lat="46.0044836" lon="11.8941226"><ele>363.0</ele><time>2026-04-09T10:28:45.521Z</time></trkpt><trkpt lat="46.0045712" lon="11.8940961"><ele>363.0</ele><time>2026-04-09T10:28:46.53Z</time></trkpt><trkpt lat="46.0046816" lon="11.8940853"><ele>363.0</ele><time>2026-04-09T10:28:47.513Z</time></trkpt><trkpt lat="46.0047738" lon="11.8940728"><ele>363.0</ele><time>2026-04-09T10:28:48.517Z</time></trkpt><trkpt lat="46.0048532" lon="11.8940612"><ele>363.0</ele><time>2026-04-09T10:28:49.526Z</time></trkpt><trkpt lat="46.0049233" lon="11.8940501"><ele>363.0</ele><time>2026-04-09T10:28:50.518Z</time></trkpt><trkpt lat="46.0050186" lon="11.8939796"><ele>362.4</ele><time>2026-04-09T10:28:52.526Z</time></trkpt><trkpt lat="46.0050165" lon="11.8938697"><ele>361.79999999999995</ele><time>2026-04-09T10:28:53.523Z</time></trkpt><trkpt lat="46.0050114" lon="11.8937494"><ele>361.2</ele><time>2026-04-09T10:28:54.518Z</time></trkpt><trkpt lat="46.0050119" lon="11.8935402"><ele>360.6</ele><time>2026-04-09T10:28:55.517Z</time></trkpt><trkpt lat="46.0050248" lon="11.8933402"><ele>360.0</ele><time>2026-04-09T10:28:56.522Z</time></trkpt><trkpt lat="46.0050335" lon="11.8930664"><ele>360.0</ele><time>2026-04-09T10:28:57.518Z</time></trkpt><trkpt lat="46.0050339" lon="11.892775"><ele>360.0</ele><time>2026-04-09T10:28:58.528Z</time></trkpt><trkpt lat="46.0050157" lon="11.8924422"><ele>360.0</ele><time>2026-04-09T10:28:59.535Z</time></trkpt><trkpt lat="46.0049725" lon="11.8920909"><ele>360.3333333333333</ele><time>2026-04-09T10:29:00.523Z</time></trkpt><trkpt lat="46.0049245" lon="11.8917653"><ele>360.66666666666663</ele><time>2026-04-09T10:29:01.527Z</time></trkpt><trkpt lat="46.0048685" lon="11.8914758"><ele>361.0</ele><time>2026-04-09T10:29:02.532Z</time></trkpt><trkpt lat="46.0048393" lon="11.8912002"><ele>361.0</ele><time>2026-04-09T10:29:03.526Z</time></trkpt><trkpt lat="46.0048345" lon="11.8909446"><ele>361.0</ele><time>2026-04-09T10:29:04.521Z</time></trkpt><trkpt lat="46.004845" lon="11.8907119"><ele>361.0</ele><time>2026-04-09T10:29:05.522Z</time></trkpt><trkpt lat="46.0048375" lon="11.8904876"><ele>362.3333333333333</ele><time>2026-04-09T10:29:06.518Z</time></trkpt><trkpt lat="46.0048131" lon="11.8902398"><ele>363.6666666666667</ele><time>2026-04-09T10:29:07.529Z</time></trkpt><trkpt lat="46.0047862" lon="11.8900037"><ele>365.0</ele><time>2026-04-09T10:29:08.521Z</time></trkpt><trkpt lat="46.0047543" lon="11.8897771"><ele>366.6666666666667</ele><time>2026-04-09T10:29:09.518Z</time></trkpt><trkpt lat="46.0047225" lon="11.8895468"><ele>368.3333333333333</ele><time>2026-04-09T10:29:10.519Z</time></trkpt><trkpt lat="46.0046868" lon="11.8893148"><ele>370.0</ele><time>2026-04-09T10:29:11.522Z</time></trkpt><trkpt lat="46.0046515" lon="11.8890942"><ele>371.66666666666663</ele><time>2026-04-09T10:29:12.52Z</time></trkpt><trkpt lat="46.0046061" lon="11.88888"><ele>373.3333333333333</ele><time>2026-04-09T10:29:13.517Z</time></trkpt><trkpt lat="46.0045571" lon="11.8886696"><ele>375.0</ele><time>2026-04-09T10:29:14.518Z</time></trkpt><trkpt lat="46.0045234" lon="11.8884696"><ele>375.6</ele><time>2026-04-09T10:29:15.521Z</time></trkpt><trkpt lat="46.0044998" lon="11.888287"><ele>376.2</ele><time>2026-04-09T10:29:16.523Z</time></trkpt><trkpt lat="46.0044916" lon="11.888118"><ele>376.79999999999995</ele><time>2026-04-09T10:29:17.538Z</time></trkpt><trkpt lat="46.0044899" lon="11.8879679"><ele>377.4</ele><time>2026-04-09T10:29:18.518Z</time></trkpt><trkpt lat="46.0044858" lon="11.8878335"><ele>378.0</ele><time>2026-04-09T10:29:19.517Z</time></trkpt><trkpt lat="46.0044694" lon="11.8877062"><ele>378.0</ele><time>2026-04-09T10:29:20.519Z</time></trkpt><trkpt lat="46.0044541" lon="11.8875962"><ele>378.0</ele><time>2026-04-09T10:29:21.515Z</time></trkpt><trkpt lat="46.0044274" lon="11.8874655"><ele>378.0</ele><time>2026-04-09T10:29:22.517Z</time></trkpt><trkpt lat="46.0043941" lon="11.8873325"><ele>378.0</ele><time>2026-04-09T10:29:23.514Z</time></trkpt><trkpt lat="46.0043534" lon="11.8871771"><ele>378.0</ele><time>2026-04-09T10:29:24.523Z</time></trkpt><trkpt lat="46.0043059" lon="11.8870084"><ele>378.0</ele><time>2026-04-09T10:29:25.527Z</time></trkpt><trkpt lat="46.0042624" lon="11.8868361"><ele>378.0</ele><time>2026-04-09T10:29:26.523Z</time></trkpt><trkpt lat="46.0042323" lon="11.8866565"><ele>378.0</ele><time>2026-04-09T10:29:27.517Z</time></trkpt><trkpt lat="46.0041773" lon="11.8865213"><ele>378.0</ele><time>2026-04-09T10:29:28.515Z</time></trkpt><trkpt lat="46.0041135" lon="11.8864055"><ele>378.0</ele><time>2026-04-09T10:29:29.523Z</time></trkpt><trkpt lat="46.0040302" lon="11.8863179"><ele>378.0</ele><time>2026-04-09T10:29:30.523Z</time></trkpt><trkpt lat="46.0039315" lon="11.8862569"><ele>378.0</ele><time>2026-04-09T10:29:31.522Z</time></trkpt><trkpt lat="46.00382" lon="11.8862322"><ele>378.0</ele><time>2026-04-09T10:29:32.524Z</time></trkpt><trkpt lat="46.0037025" lon="11.8862286"><ele>378.0</ele><time>2026-04-09T10:29:33.521Z</time></trkpt><trkpt lat="46.0035962" lon="11.8862515"><ele>378.0</ele><time>2026-04-09T10:29:34.518Z</time></trkpt><trkpt lat="46.0034909" lon="11.8862639"><ele>378.0</ele><time>2026-04-09T10:29:35.519Z</time></trkpt><trkpt lat="46.0033913" lon="11.8862506"><ele>378.0</ele><time>2026-04-09T10:29:36.526Z</time></trkpt><trkpt lat="46.0033067" lon="11.8861768"><ele>378.0</ele><time>2026-04-09T10:29:37.516Z</time></trkpt><trkpt lat="46.0032032" lon="11.8860668"><ele>378.0</ele><time>2026-04-09T10:29:38.518Z</time></trkpt><trkpt lat="46.003084" lon="11.8859204"><ele>377.0</ele><time>2026-04-09T10:29:39.518Z</time></trkpt><trkpt lat="46.0029637" lon="11.8857623"><ele>376.0</ele><time>2026-04-09T10:29:40.516Z</time></trkpt><trkpt lat="46.0028588" lon="11.8856079"><ele>375.0</ele><time>2026-04-09T10:29:41.516Z</time></trkpt><trkpt lat="46.0027637" lon="11.8854497"><ele>375.0</ele><time>2026-04-09T10:29:42.526Z</time></trkpt><trkpt lat="46.0027046" lon="11.8852566"><ele>375.0</ele><time>2026-04-09T10:29:43.523Z</time></trkpt><trkpt lat="46.0026444" lon="11.8850756"><ele>375.0</ele><time>2026-04-09T10:29:44.518Z</time></trkpt><trkpt lat="46.0025971" lon="11.8849523"><ele>375.0</ele><time>2026-04-09T10:29:45.519Z</time></trkpt><trkpt lat="46.0025223" lon="11.8848608"><ele>375.75</ele><time>2026-04-09T10:29:46.518Z</time></trkpt><trkpt lat="46.0024091" lon="11.88479"><ele>376.5</ele><time>2026-04-09T10:29:47.517Z</time></trkpt><trkpt lat="46.0022691" lon="11.8847368"><ele>377.25</ele><time>2026-04-09T10:29:48.519Z</time></trkpt><trkpt lat="46.0021027" lon="11.8846649"><ele>378.0</ele><time>2026-04-09T10:29:49.528Z</time></trkpt><trkpt lat="46.001942" lon="11.884583"><ele>378.0</ele><time>2026-04-09T10:29:50.534Z</time></trkpt><trkpt lat="46.0018129" lon="11.8844812"><ele>378.0</ele><time>2026-04-09T10:29:51.532Z</time></trkpt><trkpt lat="46.0016986" lon="11.8843547"><ele>378.0</ele><time>2026-04-09T10:29:52.517Z</time></trkpt><trkpt lat="46.0016046" lon="11.8842061"><ele>378.0</ele><time>2026-04-09T10:29:53.529Z</time></trkpt><trkpt lat="46.0015725" lon="11.8840346"><ele>378.75</ele><time>2026-04-09T10:29:54.522Z</time></trkpt><trkpt lat="46.0015305" lon="11.8838868"><ele>379.5</ele><time>2026-04-09T10:29:55.531Z</time></trkpt><trkpt lat="46.001596" lon="11.8836649"><ele>380.25</ele><time>2026-04-09T10:29:56.519Z</time></trkpt><trkpt lat="46.0016173" lon="11.8834584"><ele>381.0</ele><time>2026-04-09T10:29:57.53Z</time></trkpt><trkpt lat="46.0016223" lon="11.883244"><ele>382.0</ele><time>2026-04-09T10:29:58.525Z</time></trkpt><trkpt lat="46.0016091" lon="11.8830479"><ele>383.0</ele><time>2026-04-09T10:29:59.521Z</time></trkpt><trkpt lat="46.0015848" lon="11.8828623"><ele>384.0</ele><time>2026-04-09T10:30:00.527Z</time></trkpt><trkpt lat="46.0015285" lon="11.8827336"><ele>385.0</ele><time>2026-04-09T10:30:01.529Z</time></trkpt><trkpt lat="46.0014161" lon="11.8826232"><ele>384.33333333333337</ele><time>2026-04-09T10:30:02.514Z</time></trkpt><trkpt lat="46.0012977" lon="11.8824915"><ele>383.6666666666667</ele><time>2026-04-09T10:30:03.522Z</time></trkpt><trkpt lat="46.0011598" lon="11.8823547"><ele>383.0</ele><time>2026-04-09T10:30:04.521Z</time></trkpt><trkpt lat="46.0010232" lon="11.8822029"><ele>383.0</ele><time>2026-04-09T10:30:05.522Z</time></trkpt><trkpt lat="46.0008777" lon="11.8820495"><ele>383.0</ele><time>2026-04-09T10:30:06.519Z</time></trkpt><trkpt lat="46.0007245" lon="11.8818743"><ele>383.0</ele><time>2026-04-09T10:30:07.514Z</time></trkpt><trkpt lat="46.0005689" lon="11.8816959"><ele>383.6666666666667</ele><time>2026-04-09T10:30:08.51Z</time></trkpt><trkpt lat="46.0004148" lon="11.8815265"><ele>384.33333333333337</ele><time>2026-04-09T10:30:09.522Z</time></trkpt><trkpt lat="46.0002593" lon="11.8813583"><ele>385.0</ele><time>2026-04-09T10:30:10.521Z</time></trkpt><trkpt lat="46.0001003" lon="11.8811939"><ele>385.0</ele><time>2026-04-09T10:30:11.521Z</time></trkpt><trkpt lat="45.9999481" lon="11.8810196"><ele>385.0</ele><time>2026-04-09T10:30:12.519Z</time></trkpt><trkpt lat="45.9997977" lon="11.8808607"><ele>385.0</ele><time>2026-04-09T10:30:13.521Z</time></trkpt><trkpt lat="45.9996442" lon="11.8806967"><ele>384.6666666666667</ele><time>2026-04-09T10:30:14.521Z</time></trkpt><trkpt lat="45.9994975" lon="11.8805296"><ele>384.33333333333337</ele><time>2026-04-09T10:30:15.523Z</time></trkpt><trkpt lat="45.9993561" lon="11.8803799"><ele>384.0</ele><time>2026-04-09T10:30:16.517Z</time></trkpt><trkpt lat="45.9992193" lon="11.8802513"><ele>384.75</ele><time>2026-04-09T10:30:17.51Z</time></trkpt><trkpt lat="45.9990907" lon="11.8801273"><ele>385.5</ele><time>2026-04-09T10:30:18.511Z</time></trkpt><trkpt lat="45.9989749" lon="11.8800126"><ele>386.25</ele><time>2026-04-09T10:30:19.51Z</time></trkpt><trkpt lat="45.9988761" lon="11.8799078"><ele>387.0</ele><time>2026-04-09T10:30:20.517Z</time></trkpt><trkpt lat="45.9987907" lon="11.8798025"><ele>387.8333333333333</ele><time>2026-04-09T10:30:21.519Z</time></trkpt><trkpt lat="45.9987193" lon="11.8796947"><ele>388.66666666666663</ele><time>2026-04-09T10:30:22.515Z</time></trkpt><trkpt lat="45.9986577" lon="11.8795857"><ele>389.5</ele><time>2026-04-09T10:30:23.517Z</time></trkpt><trkpt lat="45.9986078" lon="11.8794851"><ele>390.3333333333333</ele><time>2026-04-09T10:30:24.517Z</time></trkpt><trkpt lat="45.9985674" lon="11.8793953"><ele>391.16666666666663</ele><time>2026-04-09T10:30:25.514Z</time></trkpt><trkpt lat="45.9985264" lon="11.8793012"><ele>392.0</ele><time>2026-04-09T10:30:26.514Z</time></trkpt><trkpt lat="45.9984716" lon="11.8791633"><ele>392.16666666666663</ele><time>2026-04-09T10:30:28.604Z</time></trkpt><trkpt lat="45.9984287" lon="11.8790275"><ele>392.3333333333333</ele><time>2026-04-09T10:30:30.51Z</time></trkpt><trkpt lat="45.9984102" lon="11.8789308"><ele>392.5</ele><time>2026-04-09T10:30:31.525Z</time></trkpt><trkpt lat="45.9983875" lon="11.8788219"><ele>392.66666666666663</ele><time>2026-04-09T10:30:32.517Z</time></trkpt><trkpt lat="45.9983573" lon="11.8787121"><ele>392.8333333333333</ele><time>2026-04-09T10:30:33.547Z</time></trkpt><trkpt lat="45.998321" lon="11.878579"><ele>393.0</ele><time>2026-04-09T10:30:34.526Z</time></trkpt><trkpt lat="45.9982926" lon="11.87844"><ele>393.2</ele><time>2026-04-09T10:30:35.518Z</time></trkpt><trkpt lat="45.9982588" lon="11.8782891"><ele>393.4</ele><time>2026-04-09T10:30:36.519Z</time></trkpt><trkpt lat="45.9982199" lon="11.8781394"><ele>393.59999999999997</ele><time>2026-04-09T10:30:37.518Z</time></trkpt><trkpt lat="45.9981786" lon="11.877994"><ele>393.79999999999995</ele><time>2026-04-09T10:30:38.516Z</time></trkpt><trkpt lat="45.998161" lon="11.8778542"><ele>394.0</ele><time>2026-04-09T10:30:39.517Z</time></trkpt><trkpt lat="45.9981408" lon="11.8777203"><ele>393.83333333333337</ele><time>2026-04-09T10:30:40.514Z</time></trkpt><trkpt lat="45.9981276" lon="11.8775847"><ele>393.6666666666667</ele><time>2026-04-09T10:30:41.51Z</time></trkpt><trkpt lat="45.9981207" lon="11.8774602"><ele>393.5</ele><time>2026-04-09T10:30:42.51Z</time></trkpt><trkpt lat="45.998108" lon="11.8773562"><ele>393.33333333333337</ele><time>2026-04-09T10:30:43.518Z</time></trkpt><trkpt lat="45.998099" lon="11.8772494"><ele>393.1666666666667</ele><time>2026-04-09T10:30:44.522Z</time></trkpt><trkpt lat="45.998089" lon="11.8771426"><ele>393.0</ele><time>2026-04-09T10:30:45.527Z</time></trkpt><trkpt lat="45.9980856" lon="11.8770417"><ele>393.0</ele><time>2026-04-09T10:30:46.54Z</time></trkpt><trkpt lat="45.9980644" lon="11.8769272"><ele>393.0</ele><time>2026-04-09T10:30:47.523Z</time></trkpt><trkpt lat="45.9980335" lon="11.876796"><ele>393.0</ele><time>2026-04-09T10:30:48.527Z</time></trkpt><trkpt lat="45.9980027" lon="11.8766539"><ele>393.0</ele><time>2026-04-09T10:30:49.529Z</time></trkpt><trkpt lat="45.9979437" lon="11.8765125"><ele>393.0</ele><time>2026-04-09T10:30:50.532Z</time></trkpt><trkpt lat="45.9979106" lon="11.8763694"><ele>392.4</ele><time>2026-04-09T10:30:51.518Z</time></trkpt><trkpt lat="45.9978743" lon="11.8762411"><ele>391.79999999999995</ele><time>2026-04-09T10:30:52.53Z</time></trkpt><trkpt lat="45.997844" lon="11.8761124"><ele>391.2</ele><time>2026-04-09T10:30:53.55Z</time></trkpt><trkpt lat="45.9978185" lon="11.8759933"><ele>390.6</ele><time>2026-04-09T10:30:54.513Z</time></trkpt><trkpt lat="45.9977944" lon="11.875854"><ele>390.0</ele><time>2026-04-09T10:30:55.514Z</time></trkpt><trkpt lat="45.9977826" lon="11.8757415"><ele>389.0</ele><time>2026-04-09T10:30:56.52Z</time></trkpt><trkpt lat="45.9977647" lon="11.875627"><ele>388.0</ele><time>2026-04-09T10:30:57.52Z</time></trkpt><trkpt lat="45.9977387" lon="11.8755275"><ele>387.0</ele><time>2026-04-09T10:30:58.523Z</time></trkpt><trkpt lat="45.9977208" lon="11.8754357"><ele>386.0</ele><time>2026-04-09T10:30:59.519Z</time></trkpt><trkpt lat="45.9977075" lon="11.8752886"><ele>385.0</ele><time>2026-04-09T10:31:01.512Z</time></trkpt><trkpt lat="45.9977053" lon="11.8751847"><ele>384.0</ele><time>2026-04-09T10:31:03.525Z</time></trkpt><trkpt lat="45.9976437" lon="11.8751034"><ele>383.79999999999995</ele><time>2026-04-09T10:31:06.522Z</time></trkpt><trkpt lat="45.9975533" lon="11.8750919"><ele>383.59999999999997</ele><time>2026-04-09T10:31:08.533Z</time></trkpt><trkpt lat="45.997464" lon="11.8750718"><ele>383.4</ele><time>2026-04-09T10:31:10.512Z</time></trkpt><trkpt lat="45.9973563" lon="11.8750207"><ele>383.2</ele><time>2026-04-09T10:31:12.519Z</time></trkpt><trkpt lat="45.9972844" lon="11.8749958"><ele>383.0</ele><time>2026-04-09T10:31:13.518Z</time></trkpt><trkpt lat="45.9971848" lon="11.8749637"><ele>383.0</ele><time>2026-04-09T10:31:14.525Z</time></trkpt><trkpt lat="45.9970525" lon="11.8750029"><ele>383.0</ele><time>2026-04-09T10:31:16.518Z</time></trkpt><trkpt lat="45.9969835" lon="11.8750105"><ele>383.0</ele><time>2026-04-09T10:31:17.536Z</time></trkpt><trkpt lat="45.996914" lon="11.8750244"><ele>383.0</ele><time>2026-04-09T10:31:18.517Z</time></trkpt><trkpt lat="45.9968514" lon="11.8749917"><ele>383.0</ele><time>2026-04-09T10:31:19.52Z</time></trkpt><trkpt lat="45.9967774" lon="11.8749888"><ele>383.0</ele><time>2026-04-09T10:31:20.518Z</time></trkpt><trkpt lat="45.9967073" lon="11.8749533"><ele>384.59999999999997</ele><time>2026-04-09T10:31:21.512Z</time></trkpt><trkpt lat="45.9966175" lon="11.874947"><ele>386.2</ele><time>2026-04-09T10:31:22.521Z</time></trkpt><trkpt lat="45.9965393" lon="11.8749379"><ele>387.8</ele><time>2026-04-09T10:31:23.512Z</time></trkpt><trkpt lat="45.9964472" lon="11.8749259"><ele>389.4</ele><time>2026-04-09T10:31:24.515Z</time></trkpt><trkpt lat="45.9963671" lon="11.8749093"><ele>391.0</ele><time>2026-04-09T10:31:25.512Z</time></trkpt><trkpt lat="45.9962444" lon="11.8748476"><ele>391.00000000000006</ele><time>2026-04-09T10:31:27.533Z</time></trkpt><trkpt lat="45.9961738" lon="11.87482"><ele>391.0</ele><time>2026-04-09T10:31:28.514Z</time></trkpt><trkpt lat="45.9961077" lon="11.874807"><ele>391.0</ele><time>2026-04-09T10:31:29.517Z</time></trkpt><trkpt lat="45.9959897" lon="11.8747605"><ele>391.0</ele><time>2026-04-09T10:31:31.527Z</time></trkpt><trkpt lat="45.9959203" lon="11.8747154"><ele>391.00000000000006</ele><time>2026-04-09T10:31:32.527Z</time></trkpt><trkpt lat="45.9958567" lon="11.8746551"><ele>391.0</ele><time>2026-04-09T10:31:33.521Z</time></trkpt><trkpt lat="45.9958085" lon="11.8745871"><ele>392.33333333333337</ele><time>2026-04-09T10:31:34.518Z</time></trkpt><trkpt lat="45.9957645" lon="11.8744953"><ele>393.6666666666667</ele><time>2026-04-09T10:31:35.515Z</time></trkpt><trkpt lat="45.9957203" lon="11.8744181"><ele>395.0</ele><time>2026-04-09T10:31:36.512Z</time></trkpt><trkpt lat="45.9956663" lon="11.8743547"><ele>396.33333333333337</ele><time>2026-04-09T10:31:37.519Z</time></trkpt><trkpt lat="45.9956182" lon="11.8742939"><ele>397.6666666666667</ele><time>2026-04-09T10:31:38.517Z</time></trkpt><trkpt lat="45.9955105" lon="11.8742359"><ele>399.0</ele><time>2026-04-09T10:31:40.516Z</time></trkpt><trkpt lat="45.995442" lon="11.8742273"><ele>399.0</ele><time>2026-04-09T10:31:41.518Z</time></trkpt><trkpt lat="45.9953765" lon="11.8742289"><ele>399.0</ele><time>2026-04-09T10:31:42.515Z</time></trkpt><trkpt lat="45.9952752" lon="11.8742533"><ele>399.0</ele><time>2026-04-09T10:31:44.522Z</time></trkpt><trkpt lat="45.9952032" lon="11.8742784"><ele>399.0</ele><time>2026-04-09T10:31:46.518Z</time></trkpt><trkpt lat="45.9953046" lon="11.874255"><ele>399.0</ele><time>2026-04-09T10:33:16.536Z</time></trkpt><trkpt lat="45.9954117" lon="11.8742507"><ele>399.25</ele><time>2026-04-09T10:33:18.522Z</time></trkpt><trkpt lat="45.9955151" lon="11.8742719"><ele>399.5</ele><time>2026-04-09T10:33:20.517Z</time></trkpt><trkpt lat="45.9956216" lon="11.8743481"><ele>399.75</ele><time>2026-04-09T10:33:22.523Z</time></trkpt><trkpt lat="45.9957155" lon="11.8744775"><ele>400.0</ele><time>2026-04-09T10:33:24.524Z</time></trkpt><trkpt lat="45.9957918" lon="11.8746035"><ele>398.2</ele><time>2026-04-09T10:33:26.524Z</time></trkpt><trkpt lat="45.9958724" lon="11.8747156"><ele>396.4</ele><time>2026-04-09T10:33:28.515Z</time></trkpt><trkpt lat="45.9959719" lon="11.8748033"><ele>394.6</ele><time>2026-04-09T10:33:30.515Z</time></trkpt><trkpt lat="45.996093" lon="11.8748427"><ele>392.8</ele><time>2026-04-09T10:33:32.535Z</time></trkpt><trkpt lat="45.9961578" lon="11.8748626"><ele>391.0</ele><time>2026-04-09T10:33:33.522Z</time></trkpt><trkpt lat="45.9962559" lon="11.8748935"><ele>391.0</ele><time>2026-04-09T10:33:35.517Z</time></trkpt><trkpt lat="45.9963718" lon="11.8749075"><ele>391.0</ele><time>2026-04-09T10:33:37.536Z</time></trkpt><trkpt lat="45.9964577" lon="11.8749086"><ele>391.0</ele><time>2026-04-09T10:33:39.517Z</time></trkpt><trkpt lat="45.9966315" lon="11.8749692"><ele>391.0</ele><time>2026-04-09T10:33:42.513Z</time></trkpt><trkpt lat="45.9966957" lon="11.8750004"><ele>391.0</ele><time>2026-04-09T10:33:43.521Z</time></trkpt><trkpt lat="45.9967961" lon="11.8750637"><ele>389.0</ele><time>2026-04-09T10:33:45.526Z</time></trkpt><trkpt lat="45.9969051" lon="11.8750879"><ele>387.0</ele><time>2026-04-09T10:33:47.539Z</time></trkpt><trkpt lat="45.9970665" lon="11.8750941"><ele>385.0</ele><time>2026-04-09T10:33:51.51Z</time></trkpt><trkpt lat="45.9971699" lon="11.8751019"><ele>383.0</ele><time>2026-04-09T10:33:53.535Z</time></trkpt><trkpt lat="45.9969831" lon="11.8750224"><ele>383.0</ele><time>2026-04-09T10:33:59.526Z</time></trkpt><trkpt lat="45.9968642" lon="11.8750059"><ele>383.0</ele><time>2026-04-09T10:34:01.52Z</time></trkpt><trkpt lat="45.9967475" lon="11.8749899"><ele>383.0</ele><time>2026-04-09T10:34:03.507Z</time></trkpt><trkpt lat="45.9966371" lon="11.8749346"><ele>383.0</ele><time>2026-04-09T10:34:05.528Z</time></trkpt><trkpt lat="45.9965188" lon="11.874898"><ele>384.59999999999997</ele><time>2026-04-09T10:34:07.52Z</time></trkpt><trkpt lat="45.9964468" lon="11.8748951"><ele>386.2</ele><time>2026-04-09T10:34:08.51Z</time></trkpt><trkpt lat="45.9963346" lon="11.8748975"><ele>387.8</ele><time>2026-04-09T10:34:10.519Z</time></trkpt><trkpt lat="45.996265" lon="11.8749655"><ele>389.4</ele><time>2026-04-09T10:34:12.514Z</time></trkpt><trkpt lat="45.9961908" lon="11.8750829"><ele>391.0</ele><time>2026-04-09T10:34:14.525Z</time></trkpt><trkpt lat="45.9960956" lon="11.8751849"><ele>390.99999999999994</ele><time>2026-04-09T10:34:16.527Z</time></trkpt><trkpt lat="45.9960232" lon="11.8752262"><ele>391.0</ele><time>2026-04-09T10:34:17.544Z</time></trkpt><trkpt lat="45.9959626" lon="11.875282"><ele>391.0</ele><time>2026-04-09T10:34:18.522Z</time></trkpt><trkpt lat="45.9958992" lon="11.8753503"><ele>391.0</ele><time>2026-04-09T10:34:19.533Z</time></trkpt><trkpt lat="45.99584" lon="11.8754109"><ele>391.0</ele><time>2026-04-09T10:34:20.515Z</time></trkpt><trkpt lat="45.9957902" lon="11.8754669"><ele>390.99999999999994</ele><time>2026-04-09T10:34:21.517Z</time></trkpt><trkpt lat="45.9957354" lon="11.8755474"><ele>391.0</ele><time>2026-04-09T10:34:22.515Z</time></trkpt><trkpt lat="45.9956501" lon="11.8755626"><ele>393.00000000000006</ele><time>2026-04-09T10:34:23.531Z</time></trkpt><trkpt lat="45.9955968" lon="11.8756111"><ele>395.0</ele><time>2026-04-09T10:34:24.514Z</time></trkpt><trkpt lat="45.9955403" lon="11.8756565"><ele>397.0</ele><time>2026-04-09T10:34:25.517Z</time></trkpt><trkpt lat="45.9954301" lon="11.8757045"><ele>399.0</ele><time>2026-04-09T10:34:27.529Z</time></trkpt><trkpt lat="45.9953271" lon="11.8757293"><ele>401.00000000000006</ele><time>2026-04-09T10:34:29.522Z</time></trkpt><trkpt lat="45.9952629" lon="11.8757489"><ele>403.0</ele><time>2026-04-09T10:34:30.511Z</time></trkpt><trkpt lat="45.9951742" lon="11.8758209"><ele>403.0</ele><time>2026-04-09T10:34:32.516Z</time></trkpt><trkpt lat="45.9950457" lon="11.8757846"><ele>403.0</ele><time>2026-04-09T10:34:34.517Z</time></trkpt><trkpt lat="45.9949424" lon="11.875714"><ele>403.0</ele><time>2026-04-09T10:34:36.521Z</time></trkpt><trkpt lat="45.9948756" lon="11.8756839"><ele>403.0</ele><time>2026-04-09T10:34:37.515Z</time></trkpt><trkpt lat="45.9948034" lon="11.875659"><ele>403.0</ele><time>2026-04-09T10:34:38.521Z</time></trkpt><trkpt lat="45.9947196" lon="11.8756257"><ele>405.00000000000006</ele><time>2026-04-09T10:34:39.518Z</time></trkpt><trkpt lat="45.9946347" lon="11.8755835"><ele>407.0</ele><time>2026-04-09T10:34:40.524Z</time></trkpt><trkpt lat="45.9945452" lon="11.8755627"><ele>409.0</ele><time>2026-04-09T10:34:41.512Z</time></trkpt><trkpt lat="45.9944624" lon="11.8755655"><ele>411.0</ele><time>2026-04-09T10:34:42.512Z</time></trkpt><trkpt lat="45.9943865" lon="11.8755904"><ele>413.00000000000006</ele><time>2026-04-09T10:34:43.521Z</time></trkpt><trkpt lat="45.9943073" lon="11.8756336"><ele>415.0</ele><time>2026-04-09T10:34:44.537Z</time></trkpt><trkpt lat="45.9942469" lon="11.8757155"><ele>415.0</ele><time>2026-04-09T10:34:45.509Z</time></trkpt><trkpt lat="45.99419" lon="11.8758418"><ele>415.0</ele><time>2026-04-09T10:34:46.515Z</time></trkpt><trkpt lat="45.9941422" lon="11.8759565"><ele>415.0</ele><time>2026-04-09T10:34:47.525Z</time></trkpt><trkpt lat="45.9941253" lon="11.8760869"><ele>415.0</ele><time>2026-04-09T10:34:48.53Z</time></trkpt><trkpt lat="45.9941185" lon="11.8762198"><ele>415.0</ele><time>2026-04-09T10:34:49.523Z</time></trkpt><trkpt lat="45.9940987" lon="11.8763376"><ele>418.1666666666667</ele><time>2026-04-09T10:34:50.517Z</time></trkpt><trkpt lat="45.9940638" lon="11.8764279"><ele>421.33333333333337</ele><time>2026-04-09T10:34:51.518Z</time></trkpt><trkpt lat="45.9940004" lon="11.8765029"><ele>424.5</ele><time>2026-04-09T10:34:52.527Z</time></trkpt><trkpt lat="45.9939221" lon="11.8765658"><ele>427.66666666666663</ele><time>2026-04-09T10:34:53.529Z</time></trkpt><trkpt lat="45.9938406" lon="11.8765724"><ele>430.8333333333333</ele><time>2026-04-09T10:34:54.523Z</time></trkpt><trkpt lat="45.9937301" lon="11.8765466"><ele>434.0</ele><time>2026-04-09T10:34:55.517Z</time></trkpt><trkpt lat="45.9936267" lon="11.8764941"><ele>434.0</ele><time>2026-04-09T10:34:56.521Z</time></trkpt><trkpt lat="45.9935162" lon="11.8764438"><ele>434.0</ele><time>2026-04-09T10:34:57.511Z</time></trkpt><trkpt lat="45.9934324" lon="11.8763716"><ele>434.0</ele><time>2026-04-09T10:34:58.516Z</time></trkpt><trkpt lat="45.9933329" lon="11.8763114"><ele>434.0</ele><time>2026-04-09T10:34:59.526Z</time></trkpt><trkpt lat="45.9932426" lon="11.8762334"><ele>434.0</ele><time>2026-04-09T10:35:00.512Z</time></trkpt><trkpt lat="45.9931488" lon="11.8761853"><ele>439.4</ele><time>2026-04-09T10:35:01.521Z</time></trkpt><trkpt lat="45.9930554" lon="11.8761505"><ele>444.79999999999995</ele><time>2026-04-09T10:35:02.519Z</time></trkpt><trkpt lat="45.9929455" lon="11.8761475"><ele>450.20000000000005</ele><time>2026-04-09T10:35:03.523Z</time></trkpt><trkpt lat="45.9928242" lon="11.8761515"><ele>455.6</ele><time>2026-04-09T10:35:04.529Z</time></trkpt><trkpt lat="45.9927129" lon="11.8761632"><ele>461.0</ele><time>2026-04-09T10:35:05.513Z</time></trkpt><trkpt lat="45.9926127" lon="11.8761901"><ele>461.0</ele><time>2026-04-09T10:35:06.523Z</time></trkpt><trkpt lat="45.9925255" lon="11.8762455"><ele>461.0</ele><time>2026-04-09T10:35:07.517Z</time></trkpt><trkpt lat="45.992458" lon="11.8763268"><ele>461.0</ele><time>2026-04-09T10:35:08.522Z</time></trkpt><trkpt lat="45.9923521" lon="11.8763787"><ele>461.0</ele><time>2026-04-09T10:35:09.54Z</time></trkpt><trkpt lat="45.9922491" lon="11.876369"><ele>461.0</ele><time>2026-04-09T10:35:10.516Z</time></trkpt><trkpt lat="45.9921631" lon="11.8763451"><ele>466.25</ele><time>2026-04-09T10:35:11.518Z</time></trkpt><trkpt lat="45.9920397" lon="11.8763015"><ele>471.5</ele><time>2026-04-09T10:35:12.514Z</time></trkpt><trkpt lat="45.99192" lon="11.876259"><ele>476.75</ele><time>2026-04-09T10:35:13.516Z</time></trkpt><trkpt lat="45.9917881" lon="11.8762297"><ele>482.0</ele><time>2026-04-09T10:35:14.518Z</time></trkpt><trkpt lat="45.9916548" lon="11.8762152"><ele>486.75</ele><time>2026-04-09T10:35:15.518Z</time></trkpt><trkpt lat="45.9915169" lon="11.8761896"><ele>491.5</ele><time>2026-04-09T10:35:16.526Z</time></trkpt><trkpt lat="45.9913799" lon="11.8761586"><ele>496.25</ele><time>2026-04-09T10:35:17.516Z</time></trkpt><trkpt lat="45.9912509" lon="11.8761141"><ele>501.0</ele><time>2026-04-09T10:35:18.53Z</time></trkpt><trkpt lat="45.9911212" lon="11.8760632"><ele>501.0</ele><time>2026-04-09T10:35:19.516Z</time></trkpt><trkpt lat="45.9909941" lon="11.8759849"><ele>501.0</ele><time>2026-04-09T10:35:20.524Z</time></trkpt><trkpt lat="45.990899" lon="11.8758974"><ele>501.0</ele><time>2026-04-09T10:35:21.519Z</time></trkpt><trkpt lat="45.990825" lon="11.8758151"><ele>501.0</ele><time>2026-04-09T10:35:22.52Z</time></trkpt><trkpt lat="45.9907496" lon="11.8757553"><ele>501.0</ele><time>2026-04-09T10:35:23.511Z</time></trkpt><trkpt lat="45.9907266" lon="11.8759291"><ele>501.0</ele><time>2026-04-09T10:35:26.69Z</time></trkpt><trkpt lat="45.9908131" lon="11.8760801"><ele>501.0</ele><time>2026-04-09T10:35:28.521Z</time></trkpt><trkpt lat="45.9908596" lon="11.8761786"><ele>501.0</ele><time>2026-04-09T10:35:29.523Z</time></trkpt><trkpt lat="45.9909053" lon="11.8762563"><ele>501.0</ele><time>2026-04-09T10:35:30.521Z</time></trkpt><trkpt lat="45.9909511" lon="11.8763325"><ele>501.0</ele><time>2026-04-09T10:35:31.514Z</time></trkpt><trkpt lat="45.9910123" lon="11.8764448"><ele>501.0</ele><time>2026-04-09T10:35:32.515Z</time></trkpt><trkpt lat="45.9910963" lon="11.8766778"><ele>501.0</ele><time>2026-04-09T10:35:33.521Z</time></trkpt><trkpt lat="45.9911343" lon="11.8768016"><ele>501.0</ele><time>2026-04-09T10:35:34.525Z</time></trkpt><trkpt lat="45.9911701" lon="11.8769135"><ele>501.0</ele><time>2026-04-09T10:35:35.514Z</time></trkpt><trkpt lat="45.9912045" lon="11.8770249"><ele>501.0</ele><time>2026-04-09T10:35:36.52Z</time></trkpt><trkpt lat="45.9912037" lon="11.8771189"><ele>502.8333333333333</ele><time>2026-04-09T10:35:37.521Z</time></trkpt><trkpt lat="45.9911683" lon="11.8772495"><ele>504.66666666666663</ele><time>2026-04-09T10:35:38.527Z</time></trkpt><trkpt lat="45.9911747" lon="11.8773591"><ele>506.5</ele><time>2026-04-09T10:35:39.513Z</time></trkpt><trkpt lat="45.9911912" lon="11.8774797"><ele>508.3333333333333</ele><time>2026-04-09T10:35:40.521Z</time></trkpt><trkpt lat="45.9912601" lon="11.877582"><ele>510.16666666666663</ele><time>2026-04-09T10:35:41.51Z</time></trkpt><trkpt lat="45.9913053" lon="11.8776586"><ele>512.0</ele><time>2026-04-09T10:35:42.517Z</time></trkpt><trkpt lat="45.9913101" lon="11.8777576"><ele>514.0</ele><time>2026-04-09T10:35:43.524Z</time></trkpt><trkpt lat="45.9913075" lon="11.8778945"><ele>516.0</ele><time>2026-04-09T10:35:44.514Z</time></trkpt><trkpt lat="45.9913063" lon="11.878019"><ele>518.0</ele><time>2026-04-09T10:35:45.526Z</time></trkpt><trkpt lat="45.9912796" lon="11.8781513"><ele>520.0</ele><time>2026-04-09T10:35:46.51Z</time></trkpt><trkpt lat="45.9912588" lon="11.8782737"><ele>522.0</ele><time>2026-04-09T10:35:47.523Z</time></trkpt><trkpt lat="45.9912167" lon="11.8783825"><ele>523.8333333333334</ele><time>2026-04-09T10:35:48.542Z</time></trkpt><trkpt lat="45.9911721" lon="11.8784723"><ele>525.6666666666666</ele><time>2026-04-09T10:35:49.538Z</time></trkpt><trkpt lat="45.9911357" lon="11.8785974"><ele>527.5</ele><time>2026-04-09T10:35:50.52Z</time></trkpt><trkpt lat="45.991116" lon="11.8786972"><ele>529.3333333333333</ele><time>2026-04-09T10:35:51.532Z</time></trkpt><trkpt lat="45.9911311" lon="11.878793"><ele>531.1666666666666</ele><time>2026-04-09T10:35:52.519Z</time></trkpt><trkpt lat="45.9911287" lon="11.8788973"><ele>533.0</ele><time>2026-04-09T10:35:53.53Z</time></trkpt><trkpt lat="45.9912351" lon="11.8790989"><ele>533.0</ele><time>2026-04-09T10:35:55.525Z</time></trkpt><trkpt lat="45.9912853" lon="11.8791951"><ele>533.0</ele><time>2026-04-09T10:35:56.517Z</time></trkpt><trkpt lat="45.9912212" lon="11.8792493"><ele>533.0</ele><time>2026-04-09T10:35:59.523Z</time></trkpt><trkpt lat="45.991042" lon="11.8792619"><ele>533.0</ele><time>2026-04-09T10:36:01.525Z</time></trkpt><trkpt lat="45.9909707" lon="11.8792355"><ele>533.0</ele><time>2026-04-09T10:36:02.537Z</time></trkpt><trkpt lat="45.9909102" lon="11.8791373"><ele>533.0</ele><time>2026-04-09T10:36:03.532Z</time></trkpt><trkpt lat="45.9908458" lon="11.8790466"><ele>533.0</ele><time>2026-04-09T10:36:04.532Z</time></trkpt><trkpt lat="45.9907746" lon="11.8789262"><ele>533.0</ele><time>2026-04-09T10:36:05.511Z</time></trkpt><trkpt lat="45.990725" lon="11.8787834"><ele>533.0</ele><time>2026-04-09T10:36:06.516Z</time></trkpt><trkpt lat="45.9906795" lon="11.878636"><ele>533.0</ele><time>2026-04-09T10:36:07.522Z</time></trkpt><trkpt lat="45.9906416" lon="11.8785164"><ele>538.4</ele><time>2026-04-09T10:36:08.528Z</time></trkpt><trkpt lat="45.9905961" lon="11.878331"><ele>543.8</ele><time>2026-04-09T10:36:10.519Z</time></trkpt><trkpt lat="45.9905591" lon="11.8782423"><ele>549.2</ele><time>2026-04-09T10:36:11.514Z</time></trkpt><trkpt lat="45.9905046" lon="11.8781312"><ele>554.6</ele><time>2026-04-09T10:36:12.516Z</time></trkpt><trkpt lat="45.9904497" lon="11.8780159"><ele>560.0</ele><time>2026-04-09T10:36:13.52Z</time></trkpt><trkpt lat="45.9904152" lon="11.8778359"><ele>560.0</ele><time>2026-04-09T10:36:14.512Z</time></trkpt><trkpt lat="45.9903214" lon="11.8776384"><ele>560.0</ele><time>2026-04-09T10:36:15.52Z</time></trkpt><trkpt lat="45.9902888" lon="11.8774621"><ele>560.0</ele><time>2026-04-09T10:36:16.519Z</time></trkpt><trkpt lat="45.9902514" lon="11.8773185"><ele>560.0</ele><time>2026-04-09T10:36:17.523Z</time></trkpt><trkpt lat="45.9901888" lon="11.8771657"><ele>561.5</ele><time>2026-04-09T10:36:18.534Z</time></trkpt><trkpt lat="45.9900817" lon="11.8770656"><ele>563.0</ele><time>2026-04-09T10:36:19.516Z</time></trkpt><trkpt lat="45.9899849" lon="11.8769724"><ele>564.5</ele><time>2026-04-09T10:36:20.527Z</time></trkpt><trkpt lat="45.9898741" lon="11.8768765"><ele>566.0</ele><time>2026-04-09T10:36:21.509Z</time></trkpt><trkpt lat="45.9898252" lon="11.8767496"><ele>566.0</ele><time>2026-04-09T10:36:22.534Z</time></trkpt><trkpt lat="45.9897015" lon="11.8766866"><ele>566.0</ele><time>2026-04-09T10:36:23.514Z</time></trkpt><trkpt lat="45.9895942" lon="11.8766586"><ele>566.0</ele><time>2026-04-09T10:36:24.519Z</time></trkpt><trkpt lat="45.9894901" lon="11.8766506"><ele>566.0</ele><time>2026-04-09T10:36:25.514Z</time></trkpt><trkpt lat="45.9893929" lon="11.8767305"><ele>573.75</ele><time>2026-04-09T10:36:27.524Z</time></trkpt><trkpt lat="45.9893024" lon="11.8768358"><ele>581.5</ele><time>2026-04-09T10:36:28.522Z</time></trkpt><trkpt lat="45.9892061" lon="11.876936"><ele>589.25</ele><time>2026-04-09T10:36:29.521Z</time></trkpt><trkpt lat="45.9890968" lon="11.8770122"><ele>597.0</ele><time>2026-04-09T10:36:30.514Z</time></trkpt><trkpt lat="45.989029" lon="11.8771276"><ele>597.5</ele><time>2026-04-09T10:36:31.52Z</time></trkpt><trkpt lat="45.9890213" lon="11.8773243"><ele>598.0</ele><time>2026-04-09T10:36:33.512Z</time></trkpt><trkpt lat="45.989007" lon="11.8774548"><ele>598.5</ele><time>2026-04-09T10:36:34.509Z</time></trkpt><trkpt lat="45.9889778" lon="11.8775945"><ele>599.0</ele><time>2026-04-09T10:36:35.538Z</time></trkpt><trkpt lat="45.9889052" lon="11.8777674"><ele>607.0</ele><time>2026-04-09T10:36:36.517Z</time></trkpt><trkpt lat="45.9888109" lon="11.8778984"><ele>615.0</ele><time>2026-04-09T10:36:37.515Z</time></trkpt><trkpt lat="45.9887344" lon="11.8780552"><ele>623.0</ele><time>2026-04-09T10:36:38.522Z</time></trkpt><trkpt lat="45.9886733" lon="11.8782168"><ele>631.0</ele><time>2026-04-09T10:36:39.519Z</time></trkpt><trkpt lat="45.9885954" lon="11.8783896"><ele>632.0</ele><time>2026-04-09T10:36:40.516Z</time></trkpt><trkpt lat="45.9885292" lon="11.8785705"><ele>633.0</ele><time>2026-04-09T10:36:41.515Z</time></trkpt><trkpt lat="45.9884404" lon="11.8787741"><ele>634.0</ele><time>2026-04-09T10:36:42.533Z</time></trkpt><trkpt lat="45.9883721" lon="11.8789244"><ele>635.0</ele><time>2026-04-09T10:36:43.521Z</time></trkpt><trkpt lat="45.9882993" lon="11.8791094"><ele>635.0</ele><time>2026-04-09T10:36:44.519Z</time></trkpt><trkpt lat="45.9881923" lon="11.8792264"><ele>635.0</ele><time>2026-04-09T10:36:45.516Z</time></trkpt><trkpt lat="45.98815" lon="11.8793634"><ele>635.0</ele><time>2026-04-09T10:36:46.53Z</time></trkpt><trkpt lat="45.9880952" lon="11.8794953"><ele>635.0</ele><time>2026-04-09T10:36:47.521Z</time></trkpt><trkpt lat="45.9880273" lon="11.8796286"><ele>642.5</ele><time>2026-04-09T10:36:48.524Z</time></trkpt><trkpt lat="45.9879686" lon="11.879767"><ele>650.0</ele><time>2026-04-09T10:36:49.528Z</time></trkpt><trkpt lat="45.9878876" lon="11.879877"><ele>657.5</ele><time>2026-04-09T10:36:50.518Z</time></trkpt><trkpt lat="45.9878107" lon="11.8800119"><ele>665.0</ele><time>2026-04-09T10:36:51.525Z</time></trkpt><trkpt lat="45.9877286" lon="11.8801155"><ele>667.8</ele><time>2026-04-09T10:36:52.514Z</time></trkpt><trkpt lat="45.9876769" lon="11.8802203"><ele>670.6</ele><time>2026-04-09T10:36:53.531Z</time></trkpt><trkpt lat="45.98763" lon="11.8802888"><ele>673.4000000000001</ele><time>2026-04-09T10:36:54.515Z</time></trkpt><trkpt lat="45.9875171" lon="11.8802692"><ele>676.2</ele><time>2026-04-09T10:36:56.519Z</time></trkpt><trkpt lat="45.9874323" lon="11.8803568"><ele>679.0</ele><time>2026-04-09T10:36:58.516Z</time></trkpt><trkpt lat="45.9873297" lon="11.8804768"><ele>679.0</ele><time>2026-04-09T10:37:00.52Z</time></trkpt><trkpt lat="45.9872838" lon="11.8805652"><ele>679.0</ele><time>2026-04-09T10:37:01.521Z</time></trkpt><trkpt lat="45.987239" lon="11.8806582"><ele>679.0</ele><time>2026-04-09T10:37:02.513Z</time></trkpt><trkpt lat="45.9871576" lon="11.8807859"><ele>679.0</ele><time>2026-04-09T10:37:03.51Z</time></trkpt><trkpt lat="45.9871356" lon="11.8809179"><ele>679.0</ele><time>2026-04-09T10:37:04.512Z</time></trkpt><trkpt lat="45.9870666" lon="11.8810132"><ele>686.2</ele><time>2026-04-09T10:37:05.516Z</time></trkpt><trkpt lat="45.9870223" lon="11.8811046"><ele>693.4000000000001</ele><time>2026-04-09T10:37:06.507Z</time></trkpt><trkpt lat="45.9869331" lon="11.8811272"><ele>700.6</ele><time>2026-04-09T10:37:07.508Z</time></trkpt><trkpt lat="45.9868462" lon="11.8811283"><ele>707.8</ele><time>2026-04-09T10:37:08.512Z</time></trkpt><trkpt lat="45.9867456" lon="11.8811701"><ele>715.0</ele><time>2026-04-09T10:37:09.515Z</time></trkpt><trkpt lat="45.9866412" lon="11.8811612"><ele>716.5</ele><time>2026-04-09T10:37:10.515Z</time></trkpt><trkpt lat="45.9865284" lon="11.8811826"><ele>718.0</ele><time>2026-04-09T10:37:11.516Z</time></trkpt><trkpt lat="45.9864378" lon="11.8812268"><ele>719.5</ele><time>2026-04-09T10:37:12.521Z</time></trkpt><trkpt lat="45.9863656" lon="11.8812911"><ele>721.0</ele><time>2026-04-09T10:37:13.686Z</time></trkpt><trkpt lat="45.9862279" lon="11.8814397"><ele>721.0</ele><time>2026-04-09T10:37:15.517Z</time></trkpt><trkpt lat="45.9861868" lon="11.8815366"><ele>721.0</ele><time>2026-04-09T10:37:16.516Z</time></trkpt><trkpt lat="45.9861349" lon="11.8816445"><ele>721.0</ele><time>2026-04-09T10:37:17.518Z</time></trkpt><trkpt lat="45.9860664" lon="11.8817322"><ele>721.0</ele><time>2026-04-09T10:37:18.516Z</time></trkpt><trkpt lat="45.9859193" lon="11.881791"><ele>721.0</ele><time>2026-04-09T10:37:19.521Z</time></trkpt><trkpt lat="45.9858056" lon="11.8818934"><ele>727.25</ele><time>2026-04-09T10:37:20.517Z</time></trkpt><trkpt lat="45.9856972" lon="11.8819864"><ele>733.5</ele><time>2026-04-09T10:37:21.513Z</time></trkpt><trkpt lat="45.9856033" lon="11.8820665"><ele>739.75</ele><time>2026-04-09T10:37:22.517Z</time></trkpt><trkpt lat="45.9854993" lon="11.8821792"><ele>746.0</ele><time>2026-04-09T10:37:23.522Z</time></trkpt><trkpt lat="45.9853177" lon="11.8822281"><ele>746.0</ele><time>2026-04-09T10:37:24.521Z</time></trkpt><trkpt lat="45.9852245" lon="11.8823018"><ele>746.0</ele><time>2026-04-09T10:37:25.518Z</time></trkpt><trkpt lat="45.9851834" lon="11.882377"><ele>746.0</ele><time>2026-04-09T10:37:26.524Z</time></trkpt><trkpt lat="45.9851572" lon="11.8824744"><ele>746.0</ele><time>2026-04-09T10:37:27.518Z</time></trkpt><trkpt lat="45.9851791" lon="11.8826171"><ele>746.0</ele><time>2026-04-09T10:37:28.522Z</time></trkpt><trkpt lat="45.9851459" lon="11.8827186"><ele>746.0</ele><time>2026-04-09T10:37:29.518Z</time></trkpt><trkpt lat="45.9850858" lon="11.8827657"><ele>744.6666666666666</ele><time>2026-04-09T10:37:30.521Z</time></trkpt><trkpt lat="45.9850316" lon="11.882847"><ele>743.3333333333333</ele><time>2026-04-09T10:37:31.515Z</time></trkpt><trkpt lat="45.9850155" lon="11.8830662"><ele>742.0</ele><time>2026-04-09T10:37:33.512Z</time></trkpt><trkpt lat="45.9850059" lon="11.8831809"><ele>740.6666666666666</ele><time>2026-04-09T10:37:34.51Z</time></trkpt><trkpt lat="45.9849757" lon="11.8832607"><ele>739.3333333333334</ele><time>2026-04-09T10:37:35.52Z</time></trkpt><trkpt lat="45.9849504" lon="11.8833578"><ele>738.0</ele><time>2026-04-09T10:37:36.511Z</time></trkpt><trkpt lat="45.9848952" lon="11.883413"><ele>744.6666666666666</ele><time>2026-04-09T10:37:37.516Z</time></trkpt><trkpt lat="45.984838" lon="11.8834903"><ele>751.3333333333333</ele><time>2026-04-09T10:37:38.511Z</time></trkpt><trkpt lat="45.9848005" lon="11.8835877"><ele>758.0</ele><time>2026-04-09T10:37:39.514Z</time></trkpt><trkpt lat="45.9847516" lon="11.8836878"><ele>764.6666666666666</ele><time>2026-04-09T10:37:40.513Z</time></trkpt><trkpt lat="45.9847126" lon="11.8838345"><ele>771.3333333333333</ele><time>2026-04-09T10:37:41.514Z</time></trkpt><trkpt lat="45.9846464" lon="11.8839314"><ele>778.0</ele><time>2026-04-09T10:37:42.516Z</time></trkpt><trkpt lat="45.9845811" lon="11.8840122"><ele>777.9999999999999</ele><time>2026-04-09T10:37:43.517Z</time></trkpt><trkpt lat="45.9845243" lon="11.8841142"><ele>778.0</ele><time>2026-04-09T10:37:44.516Z</time></trkpt><trkpt lat="45.9844657" lon="11.8841828"><ele>778.0</ele><time>2026-04-09T10:37:45.516Z</time></trkpt><trkpt lat="45.9844096" lon="11.8843101"><ele>778.0</ele><time>2026-04-09T10:37:46.519Z</time></trkpt><trkpt lat="45.9843737" lon="11.884429"><ele>777.9999999999999</ele><time>2026-04-09T10:37:47.52Z</time></trkpt><trkpt lat="45.9843373" lon="11.884519"><ele>778.0</ele><time>2026-04-09T10:37:48.514Z</time></trkpt><trkpt lat="45.9843277" lon="11.8846194"><ele>777.0</ele><time>2026-04-09T10:37:49.522Z</time></trkpt><trkpt lat="45.9843253" lon="11.8847155"><ele>776.0</ele><time>2026-04-09T10:37:50.516Z</time></trkpt><trkpt lat="45.9842855" lon="11.884856"><ele>775.0</ele><time>2026-04-09T10:37:52.522Z</time></trkpt><trkpt lat="45.9841894" lon="11.884936"><ele>774.0</ele><time>2026-04-09T10:37:54.514Z</time></trkpt><trkpt lat="45.9841107" lon="11.8850002"><ele>773.0</ele><time>2026-04-09T10:37:55.509Z</time></trkpt><trkpt lat="45.9840106" lon="11.8850647"><ele>782.5999999999999</ele><time>2026-04-09T10:37:56.522Z</time></trkpt><trkpt lat="45.9838977" lon="11.8851028"><ele>792.1999999999999</ele><time>2026-04-09T10:37:57.51Z</time></trkpt><trkpt lat="45.9838084" lon="11.8851504"><ele>801.8</ele><time>2026-04-09T10:37:58.51Z</time></trkpt><trkpt lat="45.9837118" lon="11.8851914"><ele>811.4</ele><time>2026-04-09T10:37:59.52Z</time></trkpt><trkpt lat="45.9835921" lon="11.8852466"><ele>821.0</ele><time>2026-04-09T10:38:00.519Z</time></trkpt><trkpt lat="45.9835047" lon="11.8852936"><ele>821.0</ele><time>2026-04-09T10:38:01.514Z</time></trkpt><trkpt lat="45.9834528" lon="11.8853591"><ele>821.0</ele><time>2026-04-09T10:38:02.518Z</time></trkpt><trkpt lat="45.9833107" lon="11.8853847"><ele>821.0</ele><time>2026-04-09T10:38:03.519Z</time></trkpt><trkpt lat="45.983196" lon="11.8854255"><ele>821.0</ele><time>2026-04-09T10:38:04.521Z</time></trkpt><trkpt lat="45.9831667" lon="11.8855354"><ele>821.0</ele><time>2026-04-09T10:38:05.514Z</time></trkpt><trkpt lat="45.9830362" lon="11.8855231"><ele>819.8</ele><time>2026-04-09T10:38:06.517Z</time></trkpt><trkpt lat="45.982938" lon="11.8856172"><ele>818.5999999999999</ele><time>2026-04-09T10:38:07.516Z</time></trkpt><trkpt lat="45.9828351" lon="11.8856771"><ele>817.4</ele><time>2026-04-09T10:38:08.517Z</time></trkpt><trkpt lat="45.9827289" lon="11.8857449"><ele>816.2</ele><time>2026-04-09T10:38:09.529Z</time></trkpt><trkpt lat="45.9826337" lon="11.8857904"><ele>815.0</ele><time>2026-04-09T10:38:10.514Z</time></trkpt><trkpt lat="45.9825757" lon="11.885834"><ele>813.0</ele><time>2026-04-09T10:38:11.518Z</time></trkpt><trkpt lat="45.9825025" lon="11.8858457"><ele>811.0</ele><time>2026-04-09T10:38:12.517Z</time></trkpt><trkpt lat="45.9824821" lon="11.8859862"><ele>809.0</ele><time>2026-04-09T10:38:13.518Z</time></trkpt><trkpt lat="45.9824279" lon="11.8860495"><ele>807.0</ele><time>2026-04-09T10:38:14.518Z</time></trkpt><trkpt lat="45.9823635" lon="11.8861538"><ele>805.0</ele><time>2026-04-09T10:38:15.527Z</time></trkpt><trkpt lat="45.9823065" lon="11.886292"><ele>815.25</ele><time>2026-04-09T10:38:16.515Z</time></trkpt><trkpt lat="45.982238" lon="11.8864426"><ele>825.5</ele><time>2026-04-09T10:38:17.512Z</time></trkpt><trkpt lat="45.9821162" lon="11.8865014"><ele>835.75</ele><time>2026-04-09T10:38:18.507Z</time></trkpt><trkpt lat="45.9819957" lon="11.8865829"><ele>846.0</ele><time>2026-04-09T10:38:19.521Z</time></trkpt><trkpt lat="45.9818459" lon="11.8865847"><ele>846.0</ele><time>2026-04-09T10:38:20.522Z</time></trkpt><trkpt lat="45.981715" lon="11.8865745"><ele>846.0</ele><time>2026-04-09T10:38:21.519Z</time></trkpt><trkpt lat="45.981611" lon="11.8865552"><ele>846.0</ele><time>2026-04-09T10:38:22.523Z</time></trkpt><trkpt lat="45.9815141" lon="11.8865629"><ele>846.0</ele><time>2026-04-09T10:38:23.523Z</time></trkpt><trkpt lat="45.981443" lon="11.8866193"><ele>846.0</ele><time>2026-04-09T10:38:24.519Z</time></trkpt><trkpt lat="45.9813695" lon="11.8867225"><ele>853.0</ele><time>2026-04-09T10:38:25.525Z</time></trkpt><trkpt lat="45.9812927" lon="11.8868078"><ele>860.0</ele><time>2026-04-09T10:38:26.518Z</time></trkpt><trkpt lat="45.98123" lon="11.8869412"><ele>866.9999999999999</ele><time>2026-04-09T10:38:27.52Z</time></trkpt><trkpt lat="45.9811698" lon="11.8870619"><ele>874.0</ele><time>2026-04-09T10:38:28.518Z</time></trkpt><trkpt lat="45.9811148" lon="11.8872318"><ele>881.0</ele><time>2026-04-09T10:38:29.517Z</time></trkpt><trkpt lat="45.9810595" lon="11.88733"><ele>881.0000000000001</ele><time>2026-04-09T10:38:30.514Z</time></trkpt><trkpt lat="45.9809848" lon="11.8873882"><ele>881.0</ele><time>2026-04-09T10:38:31.524Z</time></trkpt><trkpt lat="45.9809345" lon="11.8874854"><ele>881.0</ele><time>2026-04-09T10:38:32.513Z</time></trkpt><trkpt lat="45.9808663" lon="11.8875378"><ele>881.0</ele><time>2026-04-09T10:38:34.521Z</time></trkpt><trkpt lat="45.9808026" lon="11.8874843"><ele>881.0000000000001</ele><time>2026-04-09T10:38:36.516Z</time></trkpt><trkpt lat="45.9807271" lon="11.8874943"><ele>881.0</ele><time>2026-04-09T10:38:37.525Z</time></trkpt><trkpt lat="45.9805473" lon="11.8875941"><ele>885.25</ele><time>2026-04-09T10:38:39.522Z</time></trkpt><trkpt lat="45.9804175" lon="11.8875179"><ele>889.5</ele><time>2026-04-09T10:38:40.522Z</time></trkpt><trkpt lat="45.9803146" lon="11.8875879"><ele>893.75</ele><time>2026-04-09T10:38:42.516Z</time></trkpt><trkpt lat="45.9802502" lon="11.8876704"><ele>898.0</ele><time>2026-04-09T10:38:43.525Z</time></trkpt><trkpt lat="45.9801253" lon="11.887612"><ele>898.0</ele><time>2026-04-09T10:38:44.515Z</time></trkpt><trkpt lat="45.9800272" lon="11.8877428"><ele>898.0</ele><time>2026-04-09T10:38:45.519Z</time></trkpt><trkpt lat="45.9799763" lon="11.8879028"><ele>898.0</ele><time>2026-04-09T10:38:46.517Z</time></trkpt><trkpt lat="45.9799466" lon="11.8880026"><ele>898.0</ele><time>2026-04-09T10:38:47.526Z</time></trkpt><trkpt lat="45.9798533" lon="11.8880505"><ele>898.0</ele><time>2026-04-09T10:38:49.522Z</time></trkpt><trkpt lat="45.9799433" lon="11.8880478"><ele>898.0</ele><time>2026-04-09T10:38:52.517Z</time></trkpt><trkpt lat="45.980037" lon="11.8879967"><ele>898.0</ele><time>2026-04-09T10:38:54.518Z</time></trkpt><trkpt lat="45.9800607" lon="11.8881839"><ele>898.0</ele><time>2026-04-09T10:38:58.518Z</time></trkpt><trkpt lat="45.9799875" lon="11.888307"><ele>898.0</ele><time>2026-04-09T10:38:59.513Z</time></trkpt><trkpt lat="45.9799093" lon="11.8884444"><ele>902.25</ele><time>2026-04-09T10:39:00.513Z</time></trkpt><trkpt lat="45.9798632" lon="11.8885773"><ele>906.5</ele><time>2026-04-09T10:39:01.518Z</time></trkpt><trkpt lat="45.9798074" lon="11.8887299"><ele>910.75</ele><time>2026-04-09T10:39:02.519Z</time></trkpt><trkpt lat="45.9797299" lon="11.8889371"><ele>915.0</ele><time>2026-04-09T10:39:03.525Z</time></trkpt><trkpt lat="45.9796275" lon="11.889101"><ele>922.8</ele><time>2026-04-09T10:39:04.523Z</time></trkpt><trkpt lat="45.9795523" lon="11.8892664"><ele>930.6</ele><time>2026-04-09T10:39:05.514Z</time></trkpt><trkpt lat="45.9794982" lon="11.8894011"><ele>938.4000000000001</ele><time>2026-04-09T10:39:06.518Z</time></trkpt><trkpt lat="45.979445" lon="11.8894886"><ele>946.2</ele><time>2026-04-09T10:39:07.509Z</time></trkpt><trkpt lat="45.979375" lon="11.8895809"><ele>954.0</ele><time>2026-04-09T10:39:09.524Z</time></trkpt><trkpt lat="45.9793146" lon="11.8895317"><ele>954.0</ele><time>2026-04-09T10:39:10.51Z</time></trkpt><trkpt lat="45.9792227" lon="11.8894378"><ele>954.0000000000001</ele><time>2026-04-09T10:39:11.526Z</time></trkpt><trkpt lat="45.9791607" lon="11.8893837"><ele>954.0000000000001</ele><time>2026-04-09T10:39:12.516Z</time></trkpt><trkpt lat="45.9790866" lon="11.8892606"><ele>954.0</ele><time>2026-04-09T10:39:13.52Z</time></trkpt><trkpt lat="45.9790103" lon="11.8892415"><ele>954.0</ele><time>2026-04-09T10:39:14.526Z</time></trkpt><trkpt lat="45.9788926" lon="11.8892015"><ele>945.1666666666666</ele><time>2026-04-09T10:39:16.524Z</time></trkpt><trkpt lat="45.9788225" lon="11.8891596"><ele>936.3333333333333</ele><time>2026-04-09T10:39:17.513Z</time></trkpt><trkpt lat="45.9787179" lon="11.889088"><ele>927.5</ele><time>2026-04-09T10:39:18.51Z</time></trkpt><trkpt lat="45.9786509" lon="11.8890082"><ele>918.6666666666666</ele><time>2026-04-09T10:39:19.514Z</time></trkpt><trkpt lat="45.9785735" lon="11.8889703"><ele>909.8333333333333</ele><time>2026-04-09T10:39:20.516Z</time></trkpt><trkpt lat="45.9785036" lon="11.8889721"><ele>901.0</ele><time>2026-04-09T10:39:21.579Z</time></trkpt><trkpt lat="45.9784182" lon="11.8890419"><ele>905.5</ele><time>2026-04-09T10:39:22.511Z</time></trkpt><trkpt lat="45.978328" lon="11.8891212"><ele>910.0</ele><time>2026-04-09T10:39:23.515Z</time></trkpt><trkpt lat="45.9782147" lon="11.8892211"><ele>914.5</ele><time>2026-04-09T10:39:24.509Z</time></trkpt><trkpt lat="45.9781102" lon="11.8893393"><ele>919.0</ele><time>2026-04-09T10:39:25.518Z</time></trkpt><trkpt lat="45.977942" lon="11.8894732"><ele>926.5</ele><time>2026-04-09T10:39:26.515Z</time></trkpt><trkpt lat="45.9778299" lon="11.8895886"><ele>934.0</ele><time>2026-04-09T10:39:27.516Z</time></trkpt><trkpt lat="45.9776915" lon="11.8896627"><ele>941.5</ele><time>2026-04-09T10:39:28.514Z</time></trkpt><trkpt lat="45.9775765" lon="11.8897513"><ele>949.0</ele><time>2026-04-09T10:39:29.518Z</time></trkpt><trkpt lat="45.9774587" lon="11.8898666"><ele>949.0</ele><time>2026-04-09T10:39:30.524Z</time></trkpt><trkpt lat="45.977299" lon="11.8899773"><ele>949.0</ele><time>2026-04-09T10:39:31.516Z</time></trkpt><trkpt lat="45.9771597" lon="11.8900465"><ele>949.0</ele><time>2026-04-09T10:39:32.522Z</time></trkpt><trkpt lat="45.9770399" lon="11.8901179"><ele>949.0</ele><time>2026-04-09T10:39:33.511Z</time></trkpt><trkpt lat="45.9769522" lon="11.8901519"><ele>949.0</ele><time>2026-04-09T10:39:35.514Z</time></trkpt><trkpt lat="45.9768816" lon="11.8901859"><ele>949.0</ele><time>2026-04-09T10:39:36.521Z</time></trkpt><trkpt lat="45.9767826" lon="11.8900794"><ele>949.0</ele><time>2026-04-09T10:39:38.522Z</time></trkpt><trkpt lat="45.9766705" lon="11.8898691"><ele>948.1666666666666</ele><time>2026-04-09T10:39:39.517Z</time></trkpt><trkpt lat="45.9766414" lon="11.8897617"><ele>947.3333333333333</ele><time>2026-04-09T10:39:40.515Z</time></trkpt><trkpt lat="45.9765955" lon="11.8896936"><ele>946.5</ele><time>2026-04-09T10:39:41.516Z</time></trkpt><trkpt lat="45.9765447" lon="11.8896236"><ele>945.6666666666667</ele><time>2026-04-09T10:39:42.511Z</time></trkpt><trkpt lat="45.9765138" lon="11.8897178"><ele>944.8333333333334</ele><time>2026-04-09T10:39:46.518Z</time></trkpt><trkpt lat="45.9766141" lon="11.8898765"><ele>944.0</ele><time>2026-04-09T10:39:47.515Z</time></trkpt><trkpt lat="45.9766099" lon="11.8899759"><ele>944.0</ele><time>2026-04-09T10:39:49.517Z</time></trkpt><trkpt lat="45.9765177" lon="11.8899017"><ele>944.0000000000001</ele><time>2026-04-09T10:39:51.514Z</time></trkpt><trkpt lat="45.9764742" lon="11.8897833"><ele>944.0000000000001</ele><time>2026-04-09T10:39:52.513Z</time></trkpt><trkpt lat="45.9764049" lon="11.8897188"><ele>944.0</ele><time>2026-04-09T10:39:53.519Z</time></trkpt><trkpt lat="45.9763335" lon="11.8895445"><ele>944.0</ele><time>2026-04-09T10:39:54.522Z</time></trkpt><trkpt lat="45.9763357" lon="11.8893921"><ele>944.0</ele><time>2026-04-09T10:39:55.513Z</time></trkpt><trkpt lat="45.9762894" lon="11.8892843"><ele>944.0000000000001</ele><time>2026-04-09T10:39:56.515Z</time></trkpt><trkpt lat="45.9762276" lon="11.8892158"><ele>944.0000000000001</ele><time>2026-04-09T10:39:57.516Z</time></trkpt><trkpt lat="45.9761906" lon="11.8891389"><ele>944.0</ele><time>2026-04-09T10:39:59.521Z</time></trkpt><trkpt lat="45.976125" lon="11.8893185"><ele>944.0</ele><time>2026-04-09T10:40:03.514Z</time></trkpt><trkpt lat="45.9761343" lon="11.8894819"><ele>944.0</ele><time>2026-04-09T10:40:04.514Z</time></trkpt><trkpt lat="45.9761464" lon="11.8896395"><ele>944.0</ele><time>2026-04-09T10:40:05.516Z</time></trkpt><trkpt lat="45.9761808" lon="11.8898531"><ele>944.0</ele><time>2026-04-09T10:40:06.514Z</time></trkpt><trkpt lat="45.9761509" lon="11.8900169"><ele>944.0</ele><time>2026-04-09T10:40:07.519Z</time></trkpt><trkpt lat="45.9762073" lon="11.8901172"><ele>944.0</ele><time>2026-04-09T10:40:08.515Z</time></trkpt><trkpt lat="45.9762625" lon="11.8902022"><ele>944.0000000000001</ele><time>2026-04-09T10:40:09.519Z</time></trkpt><trkpt lat="45.976197" lon="11.8900854"><ele>944.0000000000001</ele><time>2026-04-09T10:40:14.519Z</time></trkpt><trkpt lat="45.9761347" lon="11.8900031"><ele>944.0</ele><time>2026-04-09T10:40:15.518Z</time></trkpt><trkpt lat="45.9761103" lon="11.8898888"><ele>944.0</ele><time>2026-04-09T10:40:16.523Z</time></trkpt><trkpt lat="45.9760358" lon="11.8897497"><ele>944.0</ele><time>2026-04-09T10:40:17.52Z</time></trkpt><trkpt lat="45.9760104" lon="11.889617"><ele>944.0000000000001</ele><time>2026-04-09T10:40:18.517Z</time></trkpt><trkpt lat="45.975992" lon="11.8894758"><ele>944.0000000000001</ele><time>2026-04-09T10:40:19.522Z</time></trkpt><trkpt lat="45.9759543" lon="11.8893389"><ele>944.0</ele><time>2026-04-09T10:40:20.521Z</time></trkpt><trkpt lat="45.9759744" lon="11.8892323"><ele>944.0</ele><time>2026-04-09T10:40:21.516Z</time></trkpt><trkpt lat="45.9759281" lon="11.8890846"><ele>947.8000000000001</ele><time>2026-04-09T10:40:23.516Z</time></trkpt><trkpt lat="45.9758537" lon="11.8890478"><ele>951.6000000000001</ele><time>2026-04-09T10:40:24.515Z</time></trkpt><trkpt lat="45.9757602" lon="11.8890702"><ele>955.4</ele><time>2026-04-09T10:40:25.521Z</time></trkpt><trkpt lat="45.9756875" lon="11.8891056"><ele>959.2</ele><time>2026-04-09T10:40:26.523Z</time></trkpt><trkpt lat="45.9755642" lon="11.8891876"><ele>963.0</ele><time>2026-04-09T10:40:27.519Z</time></trkpt><trkpt lat="45.9754393" lon="11.8892463"><ele>969.0</ele><time>2026-04-09T10:40:28.521Z</time></trkpt><trkpt lat="45.9753372" lon="11.8892921"><ele>975.0</ele><time>2026-04-09T10:40:29.518Z</time></trkpt><trkpt lat="45.9752638" lon="11.8893303"><ele>981.0</ele><time>2026-04-09T10:40:30.517Z</time></trkpt><trkpt lat="45.9751855" lon="11.8893739"><ele>987.0</ele><time>2026-04-09T10:40:32.521Z</time></trkpt><trkpt lat="45.9750966" lon="11.8894163"><ele>993.0</ele><time>2026-04-09T10:40:33.51Z</time></trkpt><trkpt lat="45.9750023" lon="11.8894767"><ele>1003.75</ele><time>2026-04-09T10:40:34.511Z</time></trkpt><trkpt lat="45.9749087" lon="11.8895364"><ele>1014.5</ele><time>2026-04-09T10:40:35.515Z</time></trkpt><trkpt lat="45.9747752" lon="11.8896166"><ele>1025.25</ele><time>2026-04-09T10:40:36.524Z</time></trkpt><trkpt lat="45.9746596" lon="11.8896822"><ele>1036.0</ele><time>2026-04-09T10:40:37.511Z</time></trkpt><trkpt lat="45.974538" lon="11.8897557"><ele>1036.0</ele><time>2026-04-09T10:40:38.51Z</time></trkpt><trkpt lat="45.9743994" lon="11.8897929"><ele>1036.0</ele><time>2026-04-09T10:40:39.506Z</time></trkpt><trkpt lat="45.9742774" lon="11.8898226"><ele>1036.0</ele><time>2026-04-09T10:40:40.516Z</time></trkpt><trkpt lat="45.974146" lon="11.8898641"><ele>1036.0</ele><time>2026-04-09T10:40:41.516Z</time></trkpt><trkpt lat="45.9740037" lon="11.8899215"><ele>1043.5</ele><time>2026-04-09T10:40:42.522Z</time></trkpt><trkpt lat="45.973886" lon="11.8899731"><ele>1051.0</ele><time>2026-04-09T10:40:43.508Z</time></trkpt><trkpt lat="45.973777" lon="11.8899983"><ele>1058.5</ele><time>2026-04-09T10:40:44.51Z</time></trkpt><trkpt lat="45.9737122" lon="11.8900251"><ele>1066.0</ele><time>2026-04-09T10:40:45.534Z</time></trkpt><trkpt lat="45.9735762" lon="11.889929"><ele>1066.0</ele><time>2026-04-09T10:40:46.634Z</time></trkpt><trkpt lat="45.9735266" lon="11.8896751"><ele>1066.0</ele><time>2026-04-09T10:40:48.507Z</time></trkpt><trkpt lat="45.9734822" lon="11.8895936"><ele>1066.0</ele><time>2026-04-09T10:40:49.518Z</time></trkpt><trkpt lat="45.9733769" lon="11.8895148"><ele>1066.0</ele><time>2026-04-09T10:40:50.519Z</time></trkpt><trkpt lat="45.9732856" lon="11.8893686"><ele>1069.6</ele><time>2026-04-09T10:40:51.523Z</time></trkpt><trkpt lat="45.9731516" lon="11.8892738"><ele>1073.1999999999998</ele><time>2026-04-09T10:40:53.515Z</time></trkpt><trkpt lat="45.9730571" lon="11.8892242"><ele>1076.8000000000002</ele><time>2026-04-09T10:40:54.517Z</time></trkpt><trkpt lat="45.9730262" lon="11.8891338"><ele>1080.4</ele><time>2026-04-09T10:40:55.507Z</time></trkpt><trkpt lat="45.9729073" lon="11.8891584"><ele>1084.0</ele><time>2026-04-09T10:40:57.522Z</time></trkpt><trkpt lat="45.9728229" lon="11.8892099"><ele>1084.0</ele><time>2026-04-09T10:40:58.514Z</time></trkpt><trkpt lat="45.9727438" lon="11.889251"><ele>1084.0</ele><time>2026-04-09T10:40:59.515Z</time></trkpt><trkpt lat="45.9726536" lon="11.8892701"><ele>1084.0</ele><time>2026-04-09T10:41:00.511Z</time></trkpt><trkpt lat="45.9725376" lon="11.8893289"><ele>1084.0</ele><time>2026-04-09T10:41:01.511Z</time></trkpt><trkpt lat="45.9724315" lon="11.8893771"><ele>1084.0</ele><time>2026-04-09T10:41:02.538Z</time></trkpt><trkpt lat="45.971663" lon="11.8902281"><ele>1094.75</ele><time>2026-04-09T10:41:11.52Z</time></trkpt><trkpt lat="45.9716293" lon="11.890099"><ele>1105.5</ele><time>2026-04-09T10:41:13.516Z</time></trkpt><trkpt lat="45.9716517" lon="11.8899795"><ele>1116.25</ele><time>2026-04-09T10:41:14.523Z</time></trkpt><trkpt lat="45.9716575" lon="11.88965"><ele>1127.0</ele><time>2026-04-09T10:41:16.517Z</time></trkpt><trkpt lat="45.9716365" lon="11.8894165"><ele>1121.0</ele><time>2026-04-09T10:41:17.508Z</time></trkpt><trkpt lat="45.971663" lon="11.8892358"><ele>1115.0</ele><time>2026-04-09T10:41:18.508Z</time></trkpt><trkpt lat="45.9716534" lon="11.8889519"><ele>1109.0</ele><time>2026-04-09T10:41:19.521Z</time></trkpt><trkpt lat="45.9716183" lon="11.8887566"><ele>1109.0</ele><time>2026-04-09T10:41:20.507Z</time></trkpt><trkpt lat="45.9716446" lon="11.8885412"><ele>1109.0</ele><time>2026-04-09T10:41:21.534Z</time></trkpt><trkpt lat="45.9716416" lon="11.8883092"><ele>1109.0</ele><time>2026-04-09T10:41:22.515Z</time></trkpt><trkpt lat="45.9716158" lon="11.888098"><ele>1110.8</ele><time>2026-04-09T10:41:23.515Z</time></trkpt><trkpt lat="45.9716458" lon="11.8879709"><ele>1112.6000000000001</ele><time>2026-04-09T10:41:24.51Z</time></trkpt><trkpt lat="45.9716642" lon="11.8878225"><ele>1114.4</ele><time>2026-04-09T10:41:26.522Z</time></trkpt><trkpt lat="45.9715904" lon="11.8878549"><ele>1116.2</ele><time>2026-04-09T10:41:31.525Z</time></trkpt><trkpt lat="45.9715223" lon="11.8879465"><ele>1118.0</ele><time>2026-04-09T10:41:32.512Z</time></trkpt><trkpt lat="45.9714214" lon="11.8881428"><ele>1118.0</ele><time>2026-04-09T10:41:33.512Z</time></trkpt><trkpt lat="45.971365" lon="11.8883079"><ele>1118.0</ele><time>2026-04-09T10:41:34.511Z</time></trkpt><trkpt lat="45.971312" lon="11.8884829"><ele>1118.0</ele><time>2026-04-09T10:41:35.509Z</time></trkpt><trkpt lat="45.971273" lon="11.8885608"><ele>1118.0</ele><time>2026-04-09T10:41:36.511Z</time></trkpt><trkpt lat="45.9711952" lon="11.8886751"><ele>1118.0</ele><time>2026-04-09T10:41:38.512Z</time></trkpt><trkpt lat="45.9711501" lon="11.8887829"><ele>1116.2</ele><time>2026-04-09T10:41:40.515Z</time></trkpt><trkpt lat="45.9710755" lon="11.8889215"><ele>1114.4</ele><time>2026-04-09T10:41:42.512Z</time></trkpt><trkpt lat="45.9710333" lon="11.8890228"><ele>1112.6000000000001</ele><time>2026-04-09T10:41:43.541Z</time></trkpt><trkpt lat="45.9709699" lon="11.8891448"><ele>1110.8</ele><time>2026-04-09T10:41:44.532Z</time></trkpt><trkpt lat="45.9708954" lon="11.8891508"><ele>1109.0</ele><time>2026-04-09T10:41:45.518Z</time></trkpt><trkpt lat="45.9707982" lon="11.8891526"><ele>1117.6000000000001</ele><time>2026-04-09T10:41:46.512Z</time></trkpt><trkpt lat="45.9707191" lon="11.8891585"><ele>1126.2</ele><time>2026-04-09T10:41:47.509Z</time></trkpt><trkpt lat="45.9706415" lon="11.889203"><ele>1134.8000000000002</ele><time>2026-04-09T10:41:48.521Z</time></trkpt><trkpt lat="45.9705689" lon="11.8892308"><ele>1143.4</ele><time>2026-04-09T10:41:49.509Z</time></trkpt><trkpt lat="45.9704834" lon="11.8892572"><ele>1152.0</ele><time>2026-04-09T10:41:50.865Z</time></trkpt><trkpt lat="45.9703149" lon="11.8892932"><ele>1152.0</ele><time>2026-04-09T10:41:52.524Z</time></trkpt><trkpt lat="45.9702735" lon="11.8894412"><ele>1152.0</ele><time>2026-04-09T10:41:54.528Z</time></trkpt><trkpt lat="45.9703137" lon="11.8895564"><ele>1152.0</ele><time>2026-04-09T10:41:55.508Z</time></trkpt><trkpt lat="45.9703837" lon="11.8896405"><ele>1152.0</ele><time>2026-04-09T10:41:56.518Z</time></trkpt><trkpt lat="45.9704774" lon="11.8897023"><ele>1152.0</ele><time>2026-04-09T10:41:57.516Z</time></trkpt><trkpt lat="45.970525" lon="11.8897687"><ele>1152.0</ele><time>2026-04-09T10:41:58.519Z</time></trkpt><trkpt lat="45.970611" lon="11.8899101"><ele>1152.0</ele><time>2026-04-09T10:41:59.516Z</time></trkpt><trkpt lat="45.9706188" lon="11.8900044"><ele>1152.0</ele><time>2026-04-09T10:42:00.518Z</time></trkpt><trkpt lat="45.9705281" lon="11.8901141"><ele>1152.0</ele><time>2026-04-09T10:42:01.518Z</time></trkpt><trkpt lat="45.9704857" lon="11.8902331"><ele>1152.0</ele><time>2026-04-09T10:42:02.524Z</time></trkpt><trkpt lat="45.9704614" lon="11.8903728"><ele>1152.5</ele><time>2026-04-09T10:42:03.525Z</time></trkpt><trkpt lat="45.9705096" lon="11.8904847"><ele>1153.0</ele><time>2026-04-09T10:42:05.507Z</time></trkpt><trkpt lat="45.9705766" lon="11.8905957"><ele>1153.5</ele><time>2026-04-09T10:42:07.522Z</time></trkpt><trkpt lat="45.9706791" lon="11.8906219"><ele>1154.0</ele><time>2026-04-09T10:42:08.508Z</time></trkpt><trkpt lat="45.9707472" lon="11.8906648"><ele>1154.5</ele><time>2026-04-09T10:42:09.515Z</time></trkpt><trkpt lat="45.970807" lon="11.8906985"><ele>1155.0</ele><time>2026-04-09T10:42:10.518Z</time></trkpt><trkpt lat="45.9708603" lon="11.8907597"><ele>1158.6666666666667</ele><time>2026-04-09T10:42:11.51Z</time></trkpt><trkpt lat="45.9708026" lon="11.8908123"><ele>1162.3333333333333</ele><time>2026-04-09T10:42:12.517Z</time></trkpt><trkpt lat="45.9708096" lon="11.8909351"><ele>1166.0</ele><time>2026-04-09T10:42:13.517Z</time></trkpt><trkpt lat="45.9707992" lon="11.8910333"><ele>1169.6666666666665</ele><time>2026-04-09T10:42:14.52Z</time></trkpt><trkpt lat="45.9708039" lon="11.8911447"><ele>1173.3333333333333</ele><time>2026-04-09T10:42:15.518Z</time></trkpt><trkpt lat="45.9708055" lon="11.8913331"><ele>1177.0</ele><time>2026-04-09T10:42:16.517Z</time></trkpt><trkpt lat="45.9708185" lon="11.8914891"><ele>1180.5</ele><time>2026-04-09T10:42:17.525Z</time></trkpt><trkpt lat="45.9708047" lon="11.8916275"><ele>1184.0</ele><time>2026-04-09T10:42:18.511Z</time></trkpt><trkpt lat="45.9708331" lon="11.8917435"><ele>1187.5</ele><time>2026-04-09T10:42:19.505Z</time></trkpt><trkpt lat="45.9708763" lon="11.8918171"><ele>1191.0</ele><time>2026-04-09T10:42:20.518Z</time></trkpt><trkpt lat="45.9709562" lon="11.8919082"><ele>1194.5</ele><time>2026-04-09T10:42:22.516Z</time></trkpt><trkpt lat="45.971032" lon="11.8919375"><ele>1198.0</ele><time>2026-04-09T10:42:23.517Z</time></trkpt><trkpt lat="45.9711469" lon="11.8919688"><ele>1201.25</ele><time>2026-04-09T10:42:24.509Z</time></trkpt><trkpt lat="45.9713287" lon="11.8919861"><ele>1204.5</ele><time>2026-04-09T10:42:25.537Z</time></trkpt><trkpt lat="45.9714533" lon="11.8919918"><ele>1207.75</ele><time>2026-04-09T10:42:26.507Z</time></trkpt><trkpt lat="45.9715545" lon="11.8919665"><ele>1211.0</ele><time>2026-04-09T10:42:27.52Z</time></trkpt><trkpt lat="45.9716665" lon="11.89188"><ele>1211.0</ele><time>2026-04-09T10:42:28.511Z</time></trkpt><trkpt lat="45.9717277" lon="11.8917652"><ele>1211.0</ele><time>2026-04-09T10:42:29.516Z</time></trkpt><trkpt lat="45.9717762" lon="11.8916662"><ele>1211.0</ele><time>2026-04-09T10:42:31.516Z</time></trkpt><trkpt lat="45.9717281" lon="11.891871"><ele>1211.0</ele><time>2026-04-09T10:42:37.516Z</time></trkpt><trkpt lat="45.9716663" lon="11.8919305"><ele>1211.0</ele><time>2026-04-09T10:42:38.51Z</time></trkpt><trkpt lat="45.9715825" lon="11.8919986"><ele>1211.0</ele><time>2026-04-09T10:42:39.518Z</time></trkpt><trkpt lat="45.9715102" lon="11.8920541"><ele>1211.0</ele><time>2026-04-09T10:42:40.522Z</time></trkpt><trkpt lat="45.9714398" lon="11.8921027"><ele>1211.0</ele><time>2026-04-09T10:42:41.511Z</time></trkpt><trkpt lat="45.9713742" lon="11.8921782"><ele>1211.0</ele><time>2026-04-09T10:42:42.515Z</time></trkpt><trkpt lat="45.9713284" lon="11.8922433"><ele>1211.0</ele><time>2026-04-09T10:42:43.527Z</time></trkpt><trkpt lat="45.9712357" lon="11.8923367"><ele>1211.0</ele><time>2026-04-09T10:42:45.522Z</time></trkpt><trkpt lat="45.9711633" lon="11.892407"><ele>1211.0</ele><time>2026-04-09T10:42:47.523Z</time></trkpt><trkpt lat="45.9710678" lon="11.8924648"><ele>1211.0</ele><time>2026-04-09T10:42:49.511Z</time></trkpt><trkpt lat="45.9709504" lon="11.8923921"><ele>1211.0</ele><time>2026-04-09T10:42:51.513Z</time></trkpt><trkpt lat="45.970822" lon="11.8923831"><ele>1211.0</ele><time>2026-04-09T10:42:53.517Z</time></trkpt><trkpt lat="45.9707466" lon="11.8923543"><ele>1211.0</ele><time>2026-04-09T10:42:54.516Z</time></trkpt><trkpt lat="45.9706948" lon="11.8922675"><ele>1208.8333333333335</ele><time>2026-04-09T10:42:55.52Z</time></trkpt><trkpt lat="45.97066" lon="11.8921446"><ele>1206.6666666666667</ele><time>2026-04-09T10:42:56.507Z</time></trkpt><trkpt lat="45.9706208" lon="11.8920612"><ele>1204.5</ele><time>2026-04-09T10:42:57.516Z</time></trkpt><trkpt lat="45.9705993" lon="11.8919444"><ele>1202.3333333333333</ele><time>2026-04-09T10:42:58.518Z</time></trkpt><trkpt lat="45.9705521" lon="11.8917951"><ele>1200.1666666666665</ele><time>2026-04-09T10:42:59.52Z</time></trkpt><trkpt lat="45.9705139" lon="11.891692"><ele>1198.0</ele><time>2026-04-09T10:43:00.515Z</time></trkpt><trkpt lat="45.9704637" lon="11.8916025"><ele>1198.0</ele><time>2026-04-09T10:43:01.52Z</time></trkpt><trkpt lat="45.9704567" lon="11.8914922"><ele>1198.0</ele><time>2026-04-09T10:43:02.513Z</time></trkpt><trkpt lat="45.9704124" lon="11.8913677"><ele>1198.0</ele><time>2026-04-09T10:43:04.515Z</time></trkpt><trkpt lat="45.9702788" lon="11.8913683"><ele>1198.0</ele><time>2026-04-09T10:43:06.513Z</time></trkpt><trkpt lat="45.9701882" lon="11.8914112"><ele>1198.0</ele><time>2026-04-09T10:43:07.518Z</time></trkpt><trkpt lat="45.9700826" lon="11.891445"><ele>1205.5</ele><time>2026-04-09T10:43:08.523Z</time></trkpt><trkpt lat="45.9700142" lon="11.8914391"><ele>1213.0</ele><time>2026-04-09T10:43:09.516Z</time></trkpt><trkpt lat="45.9699447" lon="11.8914078"><ele>1220.5</ele><time>2026-04-09T10:43:10.516Z</time></trkpt><trkpt lat="45.9698554" lon="11.8914027"><ele>1228.0</ele><time>2026-04-09T10:43:11.512Z</time></trkpt><trkpt lat="45.9698139" lon="11.8913324"><ele>1235.5</ele><time>2026-04-09T10:43:13.516Z</time></trkpt><trkpt lat="45.9697714" lon="11.8912625"><ele>1243.0</ele><time>2026-04-09T10:43:14.523Z</time></trkpt><trkpt lat="45.9697134" lon="11.8911486"><ele>1243.0</ele><time>2026-04-09T10:43:15.518Z</time></trkpt><trkpt lat="45.9697267" lon="11.8910446"><ele>1243.0</ele><time>2026-04-09T10:43:16.514Z</time></trkpt><trkpt lat="45.9697192" lon="11.8908926"><ele>1243.0</ele><time>2026-04-09T10:43:18.513Z</time></trkpt><trkpt lat="45.9696967" lon="11.890803"><ele>1243.0</ele><time>2026-04-09T10:43:19.516Z</time></trkpt><trkpt lat="45.9696299" lon="11.8907549"><ele>1243.0</ele><time>2026-04-09T10:43:20.526Z</time></trkpt><trkpt lat="45.9695811" lon="11.8906283"><ele>1243.0</ele><time>2026-04-09T10:43:21.527Z</time></trkpt><trkpt lat="45.9695185" lon="11.8905658"><ele>1247.2</ele><time>2026-04-09T10:43:22.532Z</time></trkpt><trkpt lat="45.9694419" lon="11.8905278"><ele>1251.4</ele><time>2026-04-09T10:43:23.516Z</time></trkpt><trkpt lat="45.969402" lon="11.8904505"><ele>1255.6000000000001</ele><time>2026-04-09T10:43:24.511Z</time></trkpt><trkpt lat="45.9693145" lon="11.8904389"><ele>1259.8</ele><time>2026-04-09T10:43:25.513Z</time></trkpt><trkpt lat="45.9692367" lon="11.8904054"><ele>1264.0</ele><time>2026-04-09T10:43:26.51Z</time></trkpt><trkpt lat="45.9689143" lon="11.8901657"><ele>1258.0</ele><time>2026-04-09T10:43:40.32Z</time></trkpt><trkpt lat="45.9689577" lon="11.8899515"><ele>1252.0</ele><time>2026-04-09T10:51:42.534Z</time></trkpt><trkpt lat="45.9689186" lon="11.8897914"><ele>1246.0</ele><time>2026-04-09T10:51:43.514Z</time></trkpt><trkpt lat="45.968978" lon="11.8896622"><ele>1240.0</ele><time>2026-04-09T10:51:44.514Z</time></trkpt><trkpt lat="45.9690738" lon="11.889492"><ele>1240.0</ele><time>2026-04-09T10:51:45.519Z</time></trkpt><trkpt lat="45.9690475" lon="11.8893373"><ele>1240.0</ele><time>2026-04-09T10:51:46.507Z</time></trkpt><trkpt lat="45.9690309" lon="11.8892484"><ele>1240.0</ele><time>2026-04-09T10:51:47.513Z</time></trkpt><trkpt lat="45.9690566" lon="11.8891008"><ele>1240.0</ele><time>2026-04-09T10:51:49.515Z</time></trkpt><trkpt lat="45.9689806" lon="11.8889903"><ele>1240.0</ele><time>2026-04-09T10:51:51.507Z</time></trkpt><trkpt lat="45.9688895" lon="11.8888619"><ele>1240.6666666666665</ele><time>2026-04-09T10:51:53.51Z</time></trkpt><trkpt lat="45.9688421" lon="11.8887928"><ele>1241.3333333333333</ele><time>2026-04-09T10:51:54.515Z</time></trkpt><trkpt lat="45.968784" lon="11.8886759"><ele>1242.0</ele><time>2026-04-09T10:51:56.511Z</time></trkpt><trkpt lat="45.9687758" lon="11.8885634"><ele>1242.6666666666667</ele><time>2026-04-09T10:51:58.512Z</time></trkpt><trkpt lat="45.9687893" lon="11.8883763"><ele>1243.3333333333335</ele><time>2026-04-09T10:52:00.52Z</time></trkpt><trkpt lat="45.9687984" lon="11.8882829"><ele>1244.0</ele><time>2026-04-09T10:52:01.512Z</time></trkpt><trkpt lat="45.9688238" lon="11.8881511"><ele>1246.8333333333335</ele><time>2026-04-09T10:52:02.506Z</time></trkpt><trkpt lat="45.968875" lon="11.8880399"><ele>1249.6666666666667</ele><time>2026-04-09T10:52:03.526Z</time></trkpt><trkpt lat="45.968936" lon="11.8879416"><ele>1252.5</ele><time>2026-04-09T10:52:04.513Z</time></trkpt><trkpt lat="45.9690029" lon="11.8878637"><ele>1255.3333333333333</ele><time>2026-04-09T10:52:05.522Z</time></trkpt><trkpt lat="45.9690548" lon="11.8878107"><ele>1258.1666666666665</ele><time>2026-04-09T10:52:06.511Z</time></trkpt><trkpt lat="45.96911" lon="11.8877203"><ele>1261.0</ele><time>2026-04-09T10:52:07.512Z</time></trkpt><trkpt lat="45.9691587" lon="11.8876255"><ele>1256.0</ele><time>2026-04-09T10:52:08.519Z</time></trkpt><trkpt lat="45.9692588" lon="11.8874599"><ele>1251.0</ele><time>2026-04-09T10:52:10.52Z</time></trkpt><trkpt lat="45.9693625" lon="11.8873649"><ele>1246.0</ele><time>2026-04-09T10:52:11.515Z</time></trkpt><trkpt lat="45.9694809" lon="11.8872835"><ele>1241.0</ele><time>2026-04-09T10:52:12.508Z</time></trkpt><trkpt lat="45.9694464" lon="11.8871793"><ele>1241.0</ele><time>2026-04-09T10:52:13.522Z</time></trkpt><trkpt lat="45.9694711" lon="11.8870528"><ele>1241.0</ele><time>2026-04-09T10:52:15.512Z</time></trkpt><trkpt lat="45.9694614" lon="11.8869549"><ele>1241.0</ele><time>2026-04-09T10:52:16.512Z</time></trkpt><trkpt lat="45.9694127" lon="11.8868583"><ele>1241.0</ele><time>2026-04-09T10:52:17.509Z</time></trkpt><trkpt lat="45.9693998" lon="11.8867089"><ele>1241.0</ele><time>2026-04-09T10:52:19.518Z</time></trkpt><trkpt lat="45.969289" lon="11.8865757"><ele>1241.5</ele><time>2026-04-09T10:52:21.515Z</time></trkpt><trkpt lat="45.9692647" lon="11.8864631"><ele>1242.0</ele><time>2026-04-09T10:52:22.511Z</time></trkpt><trkpt lat="45.9692232" lon="11.8863949"><ele>1242.5</ele><time>2026-04-09T10:52:23.515Z</time></trkpt><trkpt lat="45.9691628" lon="11.8862488"><ele>1243.0</ele><time>2026-04-09T10:52:25.518Z</time></trkpt><trkpt lat="45.9690853" lon="11.8862584"><ele>1243.5</ele><time>2026-04-09T10:52:29.511Z</time></trkpt><trkpt lat="45.9690843" lon="11.8863555"><ele>1244.0</ele><time>2026-04-09T10:52:31.508Z</time></trkpt><trkpt lat="45.9690982" lon="11.8865004"><ele>1250.0</ele><time>2026-04-09T10:52:32.515Z</time></trkpt><trkpt lat="45.969117" lon="11.8866248"><ele>1256.0</ele><time>2026-04-09T10:52:33.533Z</time></trkpt><trkpt lat="45.96912" lon="11.8867284"><ele>1262.0</ele><time>2026-04-09T10:52:34.527Z</time></trkpt><trkpt lat="45.9691145" lon="11.8868407"><ele>1268.0</ele><time>2026-04-09T10:52:35.519Z</time></trkpt><trkpt lat="45.9690949" lon="11.8869727"><ele>1274.0</ele><time>2026-04-09T10:52:36.503Z</time></trkpt><trkpt lat="45.9690547" lon="11.8870755"><ele>1280.0</ele><time>2026-04-09T10:52:38.515Z</time></trkpt><trkpt lat="45.9689846" lon="11.8871233"><ele>1280.0</ele><time>2026-04-09T10:52:40.515Z</time></trkpt><trkpt lat="45.9689188" lon="11.8871612"><ele>1280.0</ele><time>2026-04-09T10:52:42.511Z</time></trkpt><trkpt lat="45.9688328" lon="11.8872114"><ele>1280.0</ele><time>2026-04-09T10:52:44.515Z</time></trkpt><trkpt lat="45.968754" lon="11.8872507"><ele>1280.0</ele><time>2026-04-09T10:52:45.505Z</time></trkpt><trkpt lat="45.9686832" lon="11.8872893"><ele>1280.0</ele><time>2026-04-09T10:52:46.507Z</time></trkpt><trkpt lat="45.9686113" lon="11.8873393"><ele>1280.0</ele><time>2026-04-09T10:52:47.504Z</time></trkpt><trkpt lat="45.9685519" lon="11.8873776"><ele>1280.0</ele><time>2026-04-09T10:52:48.516Z</time></trkpt><trkpt lat="45.968476" lon="11.8874147"><ele>1280.0</ele><time>2026-04-09T10:52:49.519Z</time></trkpt><trkpt lat="45.9684065" lon="11.8874454"><ele>1280.0</ele><time>2026-04-09T10:52:50.519Z</time></trkpt><trkpt lat="45.9678485" lon="11.8877495"><ele>1284.8</ele><time>2026-04-09T10:53:02.52Z</time></trkpt><trkpt lat="45.9678394" lon="11.8879381"><ele>1289.6</ele><time>2026-04-09T10:53:03.515Z</time></trkpt><trkpt lat="45.9678477" lon="11.8880847"><ele>1294.4</ele><time>2026-04-09T10:53:04.515Z</time></trkpt><trkpt lat="45.9678518" lon="11.8882501"><ele>1299.2</ele><time>2026-04-09T10:53:05.516Z</time></trkpt><trkpt lat="45.9678421" lon="11.8883669"><ele>1304.0</ele><time>2026-04-09T10:53:06.516Z</time></trkpt><trkpt lat="45.967841" lon="11.8885224"><ele>1304.0</ele><time>2026-04-09T10:53:07.519Z</time></trkpt><trkpt lat="45.9678206" lon="11.8886475"><ele>1304.0</ele><time>2026-04-09T10:53:08.513Z</time></trkpt><trkpt lat="45.9678507" lon="11.8887714"><ele>1304.0</ele><time>2026-04-09T10:53:09.518Z</time></trkpt><trkpt lat="45.9678549" lon="11.8888783"><ele>1304.0</ele><time>2026-04-09T10:53:10.515Z</time></trkpt><trkpt lat="45.9678393" lon="11.8889716"><ele>1304.0</ele><time>2026-04-09T10:53:11.512Z</time></trkpt><trkpt lat="45.9678238" lon="11.8890972"><ele>1304.0</ele><time>2026-04-09T10:53:13.517Z</time></trkpt><trkpt lat="45.967776" lon="11.8891721"><ele>1304.0</ele><time>2026-04-09T10:53:15.515Z</time></trkpt><trkpt lat="45.9677289" lon="11.8892455"><ele>1304.0</ele><time>2026-04-09T10:53:18.509Z</time></trkpt><trkpt lat="45.9676665" lon="11.889287"><ele>1304.0</ele><time>2026-04-09T10:53:20.513Z</time></trkpt><trkpt lat="45.9675947" lon="11.8893663"><ele>1304.0</ele><time>2026-04-09T10:53:21.514Z</time></trkpt><trkpt lat="45.9674999" lon="11.8894202"><ele>1304.0</ele><time>2026-04-09T10:53:24.526Z</time></trkpt><trkpt lat="45.9674332" lon="11.8894366"><ele>1304.0</ele><time>2026-04-09T10:53:26.512Z</time></trkpt><trkpt lat="45.9672688" lon="11.889711"><ele>1312.2</ele><time>2026-04-09T10:53:32.519Z</time></trkpt><trkpt lat="45.9672325" lon="11.8898025"><ele>1320.4</ele><time>2026-04-09T10:53:33.515Z</time></trkpt><trkpt lat="45.9672132" lon="11.8898888"><ele>1328.6</ele><time>2026-04-09T10:53:34.512Z</time></trkpt><trkpt lat="45.9671838" lon="11.8899742"><ele>1336.8</ele><time>2026-04-09T10:53:35.514Z</time></trkpt><trkpt lat="45.967223" lon="11.890225"><ele>1345.0</ele><time>2026-04-09T10:53:37.517Z</time></trkpt><trkpt lat="45.967204" lon="11.890382"><ele>1346.0</ele><time>2026-04-09T10:53:38.504Z</time></trkpt><trkpt lat="45.9672103" lon="11.8904945"><ele>1347.0</ele><time>2026-04-09T10:53:39.521Z</time></trkpt><trkpt lat="45.9672516" lon="11.8906709"><ele>1348.0</ele><time>2026-04-09T10:53:41.528Z</time></trkpt><trkpt lat="45.9672597" lon="11.8907858"><ele>1349.0</ele><time>2026-04-09T10:53:42.521Z</time></trkpt><trkpt lat="45.9672545" lon="11.8908877"><ele>1350.0</ele><time>2026-04-09T10:53:43.505Z</time></trkpt><trkpt lat="45.9671687" lon="11.8910801"><ele>1347.6666666666667</ele><time>2026-04-09T10:53:44.517Z</time></trkpt><trkpt lat="45.9672147" lon="11.891167"><ele>1345.3333333333333</ele><time>2026-04-09T10:53:45.514Z</time></trkpt><trkpt lat="45.9673052" lon="11.8911974"><ele>1343.0</ele><time>2026-04-09T10:53:46.511Z</time></trkpt><trkpt lat="45.9673815" lon="11.8912756"><ele>1340.6666666666665</ele><time>2026-04-09T10:53:48.512Z</time></trkpt><trkpt lat="45.9674443" lon="11.8912875"><ele>1338.3333333333333</ele><time>2026-04-09T10:53:49.51Z</time></trkpt><trkpt lat="45.9675102" lon="11.8913354"><ele>1336.0</ele><time>2026-04-09T10:53:50.514Z</time></trkpt><trkpt lat="45.9676062" lon="11.8913626"><ele>1336.0</ele><time>2026-04-09T10:53:51.513Z</time></trkpt><trkpt lat="45.967673" lon="11.8913986"><ele>1336.0</ele><time>2026-04-09T10:53:52.514Z</time></trkpt><trkpt lat="45.967739" lon="11.891501"><ele>1336.0</ele><time>2026-04-09T10:53:54.516Z</time></trkpt><trkpt lat="45.9678095" lon="11.8915633"><ele>1336.0</ele><time>2026-04-09T10:53:55.517Z</time></trkpt><trkpt lat="45.9678845" lon="11.8916007"><ele>1336.0</ele><time>2026-04-09T10:53:57.51Z</time></trkpt><trkpt lat="45.9678417" lon="11.8914896"><ele>1336.0</ele><time>2026-04-09T10:54:35.507Z</time></trkpt><trkpt lat="45.9678016" lon="11.8914189"><ele>1336.0</ele><time>2026-04-09T10:54:37.517Z</time></trkpt><trkpt lat="45.9677425" lon="11.8913497"><ele>1336.0</ele><time>2026-04-09T10:54:39.51Z</time></trkpt><trkpt lat="45.9676725" lon="11.8912991"><ele>1336.0</ele><time>2026-04-09T10:54:41.51Z</time></trkpt><trkpt lat="45.9676173" lon="11.8912437"><ele>1336.0</ele><time>2026-04-09T10:54:44.51Z</time></trkpt><trkpt lat="45.9675624" lon="11.8911817"><ele>1336.0</ele><time>2026-04-09T10:54:47.513Z</time></trkpt><trkpt lat="45.9674898" lon="11.8911374"><ele>1336.0</ele><time>2026-04-09T10:54:52.515Z</time></trkpt><trkpt lat="45.9674265" lon="11.8910651"><ele>1338.8</ele><time>2026-04-09T10:54:56.515Z</time></trkpt><trkpt lat="45.9672639" lon="11.8909417"><ele>1341.6</ele><time>2026-04-09T10:54:57.51Z</time></trkpt><trkpt lat="45.9672718" lon="11.8908474"><ele>1344.4</ele><time>2026-04-09T10:55:01.506Z</time></trkpt><trkpt lat="45.9672145" lon="11.8908098"><ele>1347.2</ele><time>2026-04-09T10:55:04.506Z</time></trkpt><trkpt lat="45.9671507" lon="11.8908098"><ele>1350.0</ele><time>2026-04-09T10:55:08.508Z</time></trkpt><trkpt lat="45.967072" lon="11.8908035"><ele>1350.0</ele><time>2026-04-09T10:55:13.509Z</time></trkpt><trkpt lat="45.9672974" lon="11.8908293"><ele>1350.0</ele><time>2026-04-09T10:55:28.504Z</time></trkpt><trkpt lat="45.9673591" lon="11.8908813"><ele>1350.0</ele><time>2026-04-09T10:55:31.511Z</time></trkpt><trkpt lat="45.967651" lon="11.8895844"><ele>1334.6666666666667</ele><time>2026-04-09T10:55:50.51Z</time></trkpt><trkpt lat="45.9678467" lon="11.8892913"><ele>1319.3333333333335</ele><time>2026-04-09T10:55:54.511Z</time></trkpt><trkpt lat="45.9679486" lon="11.8892632"><ele>1304.0</ele><time>2026-04-09T10:55:56.518Z</time></trkpt><trkpt lat="45.9679171" lon="11.8891775"><ele>1304.0</ele><time>2026-04-09T10:55:57.508Z</time></trkpt><trkpt lat="45.9678691" lon="11.8890544"><ele>1304.0</ele><time>2026-04-09T10:56:00.518Z</time></trkpt><trkpt lat="45.9678816" lon="11.8889246"><ele>1304.0</ele><time>2026-04-09T10:56:01.51Z</time></trkpt><trkpt lat="45.9678288" lon="11.8888411"><ele>1304.0</ele><time>2026-04-09T10:56:02.513Z</time></trkpt><trkpt lat="45.9678157" lon="11.8886877"><ele>1304.0</ele><time>2026-04-09T10:56:04.516Z</time></trkpt><trkpt lat="45.9678024" lon="11.8885807"><ele>1305.6</ele><time>2026-04-09T10:56:05.514Z</time></trkpt><trkpt lat="45.9677717" lon="11.8884078"><ele>1307.2</ele><time>2026-04-09T10:56:07.515Z</time></trkpt><trkpt lat="45.9677609" lon="11.8882423"><ele>1308.8</ele><time>2026-04-09T10:56:09.517Z</time></trkpt><trkpt lat="45.9677557" lon="11.8881283"><ele>1310.3999999999999</ele><time>2026-04-09T10:56:11.52Z</time></trkpt><trkpt lat="45.967779" lon="11.8880326"><ele>1312.0</ele><time>2026-04-09T10:56:13.5Z</time></trkpt><trkpt lat="45.9678572" lon="11.8880085"><ele>1312.0</ele><time>2026-04-09T10:56:15.512Z</time></trkpt><trkpt lat="45.9679611" lon="11.8880023"><ele>1312.0</ele><time>2026-04-09T10:56:17.518Z</time></trkpt><trkpt lat="45.9680405" lon="11.8879919"><ele>1312.0</ele><time>2026-04-09T10:56:19.525Z</time></trkpt><trkpt lat="45.9681098" lon="11.8879468"><ele>1312.0</ele><time>2026-04-09T10:56:20.503Z</time></trkpt><trkpt lat="45.9682109" lon="11.8878922"><ele>1312.0</ele><time>2026-04-09T10:56:22.514Z</time></trkpt><trkpt lat="45.9683167" lon="11.8878303"><ele>1304.0</ele><time>2026-04-09T10:56:23.511Z</time></trkpt><trkpt lat="45.9684107" lon="11.8877827"><ele>1296.0</ele><time>2026-04-09T10:56:24.509Z</time></trkpt><trkpt lat="45.968522" lon="11.8877092"><ele>1288.0</ele><time>2026-04-09T10:56:25.53Z</time></trkpt><trkpt lat="45.9686023" lon="11.8876328"><ele>1280.0</ele><time>2026-04-09T10:56:26.511Z</time></trkpt><trkpt lat="45.9687352" lon="11.8875707"><ele>1280.0</ele><time>2026-04-09T10:56:27.522Z</time></trkpt><trkpt lat="45.9687846" lon="11.8874122"><ele>1280.0</ele><time>2026-04-09T10:56:28.514Z</time></trkpt><trkpt lat="45.9689048" lon="11.8873915"><ele>1280.0</ele><time>2026-04-09T10:56:29.507Z</time></trkpt><trkpt lat="45.9689973" lon="11.8873819"><ele>1280.0</ele><time>2026-04-09T10:56:30.509Z</time></trkpt><trkpt lat="45.9690325" lon="11.8872753"><ele>1280.0</ele><time>2026-04-09T10:56:31.514Z</time></trkpt><trkpt lat="45.9691367" lon="11.8873285"><ele>1272.8</ele><time>2026-04-09T10:56:33.512Z</time></trkpt><trkpt lat="45.9691987" lon="11.8872996"><ele>1265.6</ele><time>2026-04-09T10:56:34.518Z</time></trkpt><trkpt lat="45.9692872" lon="11.8870986"><ele>1258.4</ele><time>2026-04-09T10:56:37.52Z</time></trkpt><trkpt lat="45.9692837" lon="11.8869602"><ele>1251.2</ele><time>2026-04-09T10:56:38.507Z</time></trkpt><trkpt lat="45.9693394" lon="11.8868454"><ele>1244.0</ele><time>2026-04-09T10:56:39.509Z</time></trkpt><trkpt lat="45.9693272" lon="11.8867433"><ele>1244.0</ele><time>2026-04-09T10:56:40.508Z</time></trkpt><trkpt lat="45.9692579" lon="11.8866118"><ele>1244.0</ele><time>2026-04-09T10:56:41.508Z</time></trkpt><trkpt lat="45.9692095" lon="11.8864506"><ele>1244.0</ele><time>2026-04-09T10:56:43.506Z</time></trkpt><trkpt lat="45.9692691" lon="11.8863623"><ele>1244.0</ele><time>2026-04-09T10:56:46.508Z</time></trkpt><trkpt lat="45.9693162" lon="11.8864346"><ele>1244.0</ele><time>2026-04-09T10:56:48.51Z</time></trkpt><trkpt lat="45.9693393" lon="11.8865269"><ele>1244.0</ele><time>2026-04-09T10:56:49.504Z</time></trkpt><trkpt lat="45.9693894" lon="11.8866377"><ele>1244.0</ele><time>2026-04-09T10:56:50.508Z</time></trkpt><trkpt lat="45.9694616" lon="11.8867262"><ele>1244.0</ele><time>2026-04-09T10:56:51.525Z</time></trkpt><trkpt lat="45.969517" lon="11.8868073"><ele>1244.0</ele><time>2026-04-09T10:56:52.505Z</time></trkpt><trkpt lat="45.9696002" lon="11.8870287"><ele>1244.0</ele><time>2026-04-09T10:56:54.513Z</time></trkpt><trkpt lat="45.9696109" lon="11.8871894"><ele>1243.4</ele><time>2026-04-09T10:56:56.506Z</time></trkpt><trkpt lat="45.9695989" lon="11.8873165"><ele>1242.8000000000002</ele><time>2026-04-09T10:56:58.509Z</time></trkpt><trkpt lat="45.9695203" lon="11.8874476"><ele>1242.1999999999998</ele><time>2026-04-09T10:57:00.505Z</time></trkpt><trkpt lat="45.9694452" lon="11.8875721"><ele>1241.6</ele><time>2026-04-09T10:57:02.507Z</time></trkpt><trkpt lat="45.9694175" lon="11.8877139"><ele>1241.0</ele><time>2026-04-09T10:57:04.507Z</time></trkpt><trkpt lat="45.9693255" lon="11.8878777"><ele>1241.5</ele><time>2026-04-09T10:57:06.525Z</time></trkpt><trkpt lat="45.9692908" lon="11.8879921"><ele>1242.0</ele><time>2026-04-09T10:57:08.511Z</time></trkpt><trkpt lat="45.9692476" lon="11.8880641"><ele>1242.5</ele><time>2026-04-09T10:57:09.51Z</time></trkpt><trkpt lat="45.9692149" lon="11.8881722"><ele>1243.0</ele><time>2026-04-09T10:57:10.502Z</time></trkpt><trkpt lat="45.9691616" lon="11.8882805"><ele>1243.5</ele><time>2026-04-09T10:57:11.517Z</time></trkpt><trkpt lat="45.9691016" lon="11.8883647"><ele>1244.0</ele><time>2026-04-09T10:57:12.52Z</time></trkpt><trkpt lat="45.9690386" lon="11.8884401"><ele>1244.0</ele><time>2026-04-09T10:57:13.505Z</time></trkpt><trkpt lat="45.9690024" lon="11.8885596"><ele>1244.0</ele><time>2026-04-09T10:57:14.504Z</time></trkpt><trkpt lat="45.9690679" lon="11.8886903"><ele>1244.0</ele><time>2026-04-09T10:57:16.51Z</time></trkpt><trkpt lat="45.9691132" lon="11.8888451"><ele>1244.0</ele><time>2026-04-09T10:57:18.514Z</time></trkpt><trkpt lat="45.9691732" lon="11.8889703"><ele>1244.0</ele><time>2026-04-09T10:57:20.518Z</time></trkpt><trkpt lat="45.9692399" lon="11.8889986"><ele>1243.3333333333335</ele><time>2026-04-09T10:57:21.506Z</time></trkpt><trkpt lat="45.9692782" lon="11.889131"><ele>1242.6666666666667</ele><time>2026-04-09T10:57:23.517Z</time></trkpt><trkpt lat="45.9692299" lon="11.8892183"><ele>1242.0</ele><time>2026-04-09T10:57:24.509Z</time></trkpt><trkpt lat="45.9691928" lon="11.8893004"><ele>1241.3333333333333</ele><time>2026-04-09T10:57:25.514Z</time></trkpt><trkpt lat="45.9691185" lon="11.8894225"><ele>1240.6666666666665</ele><time>2026-04-09T10:57:26.511Z</time></trkpt><trkpt lat="45.9690686" lon="11.8895103"><ele>1240.0</ele><time>2026-04-09T10:57:27.507Z</time></trkpt><trkpt lat="45.9690633" lon="11.889692"><ele>1240.0</ele><time>2026-04-09T10:57:29.514Z</time></trkpt><trkpt lat="45.9690518" lon="11.8898273"><ele>1240.0</ele><time>2026-04-09T10:57:31.515Z</time></trkpt><trkpt lat="45.9697281" lon="11.8903782"><ele>1240.75</ele><time>2026-04-09T10:57:45.504Z</time></trkpt><trkpt lat="45.969783" lon="11.8904369"><ele>1241.5</ele><time>2026-04-09T10:57:46.51Z</time></trkpt><trkpt lat="45.9698545" lon="11.8907816"><ele>1242.25</ele><time>2026-04-09T10:57:49.51Z</time></trkpt><trkpt lat="45.9698844" lon="11.890876"><ele>1243.0</ele><time>2026-04-09T10:57:50.514Z</time></trkpt><trkpt lat="45.9699082" lon="11.8909611"><ele>1243.0</ele><time>2026-04-09T10:57:51.519Z</time></trkpt><trkpt lat="45.9699725" lon="11.8910842"><ele>1243.0</ele><time>2026-04-09T10:57:53.507Z</time></trkpt><trkpt lat="45.9700432" lon="11.891119"><ele>1243.0</ele><time>2026-04-09T10:57:54.515Z</time></trkpt><trkpt lat="45.9701524" lon="11.8911288"><ele>1243.0</ele><time>2026-04-09T10:57:56.52Z</time></trkpt><trkpt lat="45.9705963" lon="11.8911073"><ele>1234.0</ele><time>2026-04-09T10:58:02.514Z</time></trkpt><trkpt lat="45.970684" lon="11.891126"><ele>1225.0</ele><time>2026-04-09T10:58:03.505Z</time></trkpt><trkpt lat="45.9707769" lon="11.891289"><ele>1216.0</ele><time>2026-04-09T10:58:04.505Z</time></trkpt><trkpt lat="45.9708523" lon="11.891385"><ele>1207.0</ele><time>2026-04-09T10:58:05.517Z</time></trkpt><trkpt lat="45.9708949" lon="11.8915001"><ele>1198.0</ele><time>2026-04-09T10:58:06.505Z</time></trkpt><trkpt lat="45.9709024" lon="11.8916382"><ele>1200.6</ele><time>2026-04-09T10:58:07.526Z</time></trkpt><trkpt lat="45.9709359" lon="11.8917362"><ele>1203.1999999999998</ele><time>2026-04-09T10:58:08.502Z</time></trkpt><trkpt lat="45.9709498" lon="11.8918359"><ele>1205.8</ele><time>2026-04-09T10:58:09.508Z</time></trkpt><trkpt lat="45.9710117" lon="11.8918978"><ele>1208.3999999999999</ele><time>2026-04-09T10:58:10.514Z</time></trkpt><trkpt lat="45.9710582" lon="11.8920444"><ele>1211.0</ele><time>2026-04-09T10:58:12.513Z</time></trkpt><trkpt lat="45.9711922" lon="11.8920532"><ele>1211.0</ele><time>2026-04-09T10:58:13.508Z</time></trkpt><trkpt lat="45.9712766" lon="11.8920857"><ele>1211.0</ele><time>2026-04-09T10:58:15.507Z</time></trkpt><trkpt lat="45.9713551" lon="11.8920575"><ele>1211.0</ele><time>2026-04-09T10:58:17.571Z</time></trkpt><trkpt lat="45.9714371" lon="11.8919482"><ele>1211.0</ele><time>2026-04-09T10:58:19.508Z</time></trkpt><trkpt lat="45.9714985" lon="11.8918962"><ele>1211.0</ele><time>2026-04-09T10:58:21.502Z</time></trkpt><trkpt lat="45.9715966" lon="11.8918138"><ele>1205.5</ele><time>2026-04-09T10:58:23.512Z</time></trkpt><trkpt lat="45.9716618" lon="11.8917531"><ele>1200.0</ele><time>2026-04-09T10:58:24.511Z</time></trkpt><trkpt lat="45.9717107" lon="11.8916866"><ele>1194.5</ele><time>2026-04-09T10:58:25.506Z</time></trkpt><trkpt lat="45.9717669" lon="11.8916081"><ele>1189.0</ele><time>2026-04-09T10:58:26.516Z</time></trkpt><trkpt lat="45.9718272" lon="11.8915604"><ele>1183.5</ele><time>2026-04-09T10:58:27.506Z</time></trkpt><trkpt lat="45.9719051" lon="11.8914859"><ele>1178.0</ele><time>2026-04-09T10:58:29.515Z</time></trkpt><trkpt lat="45.9719798" lon="11.891487"><ele>1175.6</ele><time>2026-04-09T10:59:02.515Z</time></trkpt><trkpt lat="45.9719377" lon="11.8916061"><ele>1173.1999999999998</ele><time>2026-04-09T10:59:06.516Z</time></trkpt><trkpt lat="45.9718579" lon="11.8916615"><ele>1170.8</ele><time>2026-04-09T10:59:08.51Z</time></trkpt><trkpt lat="45.9717704" lon="11.8916824"><ele>1168.3999999999999</ele><time>2026-04-09T10:59:09.522Z</time></trkpt><trkpt lat="45.971663" lon="11.8918052"><ele>1166.0</ele><time>2026-04-09T10:59:11.532Z</time></trkpt><trkpt lat="45.9716088" lon="11.8918787"><ele>1173.5</ele><time>2026-04-09T10:59:12.504Z</time></trkpt><trkpt lat="45.9715345" lon="11.891915"><ele>1181.0</ele><time>2026-04-09T10:59:13.504Z</time></trkpt><trkpt lat="45.9714584" lon="11.8919207"><ele>1188.5</ele><time>2026-04-09T10:59:15.518Z</time></trkpt><trkpt lat="45.9713959" lon="11.8919727"><ele>1196.0</ele><time>2026-04-09T10:59:18.506Z</time></trkpt><trkpt lat="45.9714604" lon="11.8919992"><ele>1203.5</ele><time>2026-04-09T10:59:34.515Z</time></trkpt><trkpt lat="45.9715596" lon="11.8920803"><ele>1211.0</ele><time>2026-04-09T10:59:36.516Z</time></trkpt><trkpt lat="45.9716528" lon="11.8920905"><ele>1207.6666666666667</ele><time>2026-04-09T10:59:37.507Z</time></trkpt><trkpt lat="45.9717364" lon="11.89212"><ele>1204.3333333333335</ele><time>2026-04-09T10:59:38.517Z</time></trkpt><trkpt lat="45.97181" lon="11.8921478"><ele>1201.0</ele><time>2026-04-09T10:59:40.504Z</time></trkpt><trkpt lat="45.9718712" lon="11.8921848"><ele>1197.6666666666667</ele><time>2026-04-09T10:59:42.502Z</time></trkpt><trkpt lat="45.9719386" lon="11.8922734"><ele>1194.3333333333333</ele><time>2026-04-09T10:59:44.509Z</time></trkpt><trkpt lat="45.971989" lon="11.8923327"><ele>1191.0</ele><time>2026-04-09T10:59:45.509Z</time></trkpt><trkpt lat="45.9720465" lon="11.8923756"><ele>1191.0</ele><time>2026-04-09T10:59:47.523Z</time></trkpt><trkpt lat="45.9720945" lon="11.8924707"><ele>1191.0</ele><time>2026-04-09T10:59:48.521Z</time></trkpt><trkpt lat="45.9721618" lon="11.8926193"><ele>1191.0</ele><time>2026-04-09T10:59:50.501Z</time></trkpt><trkpt lat="45.9722094" lon="11.8926845"><ele>1191.0</ele><time>2026-04-09T10:59:52.508Z</time></trkpt><trkpt lat="45.9722659" lon="11.8927386"><ele>1191.0</ele><time>2026-04-09T10:59:54.505Z</time></trkpt><trkpt lat="45.9723984" lon="11.8927192"><ele>1195.8</ele><time>2026-04-09T10:59:57.525Z</time></trkpt><trkpt lat="45.9725444" lon="11.892709"><ele>1200.6</ele><time>2026-04-09T10:59:59.513Z</time></trkpt><trkpt lat="45.9726355" lon="11.8926925"><ele>1205.4</ele><time>2026-04-09T11:00:00.555Z</time></trkpt><trkpt lat="45.9727142" lon="11.8926822"><ele>1210.2</ele><time>2026-04-09T11:00:01.515Z</time></trkpt><trkpt lat="45.9727945" lon="11.8926608"><ele>1215.0</ele><time>2026-04-09T11:00:02.507Z</time></trkpt><trkpt lat="45.9728897" lon="11.892658"><ele>1215.0</ele><time>2026-04-09T11:00:03.503Z</time></trkpt><trkpt lat="45.9729677" lon="11.8925971"><ele>1215.0</ele><time>2026-04-09T11:00:04.512Z</time></trkpt><trkpt lat="45.973048" lon="11.8926126"><ele>1215.0</ele><time>2026-04-09T11:00:05.518Z</time></trkpt><trkpt lat="45.9731198" lon="11.8925737"><ele>1215.0</ele><time>2026-04-09T11:00:06.517Z</time></trkpt><trkpt lat="45.9732153" lon="11.8925708"><ele>1215.0</ele><time>2026-04-09T11:00:07.515Z</time></trkpt><trkpt lat="45.9733145" lon="11.8925054"><ele>1204.8333333333333</ele><time>2026-04-09T11:00:09.507Z</time></trkpt><trkpt lat="45.9733913" lon="11.8924994"><ele>1194.6666666666667</ele><time>2026-04-09T11:00:10.516Z</time></trkpt><trkpt lat="45.9734528" lon="11.8924707"><ele>1184.5</ele><time>2026-04-09T11:00:11.509Z</time></trkpt><trkpt lat="45.9735237" lon="11.892443"><ele>1174.3333333333335</ele><time>2026-04-09T11:00:13.518Z</time></trkpt><trkpt lat="45.9736154" lon="11.8925134"><ele>1164.1666666666667</ele><time>2026-04-09T11:00:15.525Z</time></trkpt><trkpt lat="45.973689" lon="11.8925767"><ele>1154.0</ele><time>2026-04-09T11:00:17.508Z</time></trkpt><trkpt lat="45.9737759" lon="11.8927122"><ele>1154.0</ele><time>2026-04-09T11:00:19.501Z</time></trkpt><trkpt lat="45.9738232" lon="11.8927774"><ele>1154.0</ele><time>2026-04-09T11:00:20.512Z</time></trkpt><trkpt lat="45.973778" lon="11.8929407"><ele>1154.0</ele><time>2026-04-09T11:00:22.517Z</time></trkpt><trkpt lat="45.9737615" lon="11.8930873"><ele>1154.0</ele><time>2026-04-09T11:00:24.51Z</time></trkpt><trkpt lat="45.9737824" lon="11.8932073"><ele>1154.0</ele><time>2026-04-09T11:00:25.517Z</time></trkpt><trkpt lat="45.9738271" lon="11.8933088"><ele>1154.0</ele><time>2026-04-09T11:00:26.514Z</time></trkpt><trkpt lat="45.9738371" lon="11.8934036"><ele>1154.0</ele><time>2026-04-09T11:00:27.516Z</time></trkpt><trkpt lat="45.9739254" lon="11.893486"><ele>1154.0</ele><time>2026-04-09T11:00:28.513Z</time></trkpt><trkpt lat="45.973913" lon="11.8935813"><ele>1154.0</ele><time>2026-04-09T11:00:29.506Z</time></trkpt><trkpt lat="45.9739917" lon="11.8936432"><ele>1154.0</ele><time>2026-04-09T11:00:30.513Z</time></trkpt><trkpt lat="45.9739347" lon="11.8937148"><ele>1154.0</ele><time>2026-04-09T11:00:31.521Z</time></trkpt><trkpt lat="45.9739844" lon="11.8938657"><ele>1157.2</ele><time>2026-04-09T11:00:33.513Z</time></trkpt><trkpt lat="45.9740317" lon="11.8939395"><ele>1160.4</ele><time>2026-04-09T11:00:34.522Z</time></trkpt><trkpt lat="45.9740044" lon="11.8941246"><ele>1163.6</ele><time>2026-04-09T11:00:36.509Z</time></trkpt><trkpt lat="45.9740652" lon="11.8942514"><ele>1166.8</ele><time>2026-04-09T11:00:38.539Z</time></trkpt><trkpt lat="45.9741335" lon="11.8943727"><ele>1170.0</ele><time>2026-04-09T11:00:40.513Z</time></trkpt><trkpt lat="45.9741923" lon="11.8945431"><ele>1170.6666666666667</ele><time>2026-04-09T11:00:42.508Z</time></trkpt><trkpt lat="45.9742191" lon="11.8946304"><ele>1171.3333333333333</ele><time>2026-04-09T11:00:43.517Z</time></trkpt><trkpt lat="45.9742123" lon="11.8947245"><ele>1172.0</ele><time>2026-04-09T11:00:45.508Z</time></trkpt><trkpt lat="45.9742419" lon="11.8948507"><ele>1172.6666666666665</ele><time>2026-04-09T11:00:47.507Z</time></trkpt><trkpt lat="45.9743063" lon="11.8948729"><ele>1173.3333333333333</ele><time>2026-04-09T11:00:48.509Z</time></trkpt><trkpt lat="45.9743809" lon="11.8949794"><ele>1174.0</ele><time>2026-04-09T11:00:51.515Z</time></trkpt><trkpt lat="45.9744075" lon="11.8950923"><ele>1174.0</ele><time>2026-04-09T11:00:54.517Z</time></trkpt><trkpt lat="45.9744516" lon="11.8951755"><ele>1174.0</ele><time>2026-04-09T11:00:57.501Z</time></trkpt><trkpt lat="45.9745168" lon="11.8951817"><ele>1174.0</ele><time>2026-04-09T11:01:01.533Z</time></trkpt><trkpt lat="45.9744437" lon="11.8951273"><ele>1174.0</ele><time>2026-04-09T11:01:13.505Z</time></trkpt><trkpt lat="45.9743994" lon="11.8950419"><ele>1174.0</ele><time>2026-04-09T11:01:15.523Z</time></trkpt><trkpt lat="45.9743575" lon="11.8949465"><ele>1174.0</ele><time>2026-04-09T11:01:17.518Z</time></trkpt><trkpt lat="45.9743137" lon="11.8948665"><ele>1174.0</ele><time>2026-04-09T11:01:19.506Z</time></trkpt><trkpt lat="45.9742665" lon="11.8948034"><ele>1174.0</ele><time>2026-04-09T11:01:23.507Z</time></trkpt><trkpt lat="45.9742374" lon="11.8946991"><ele>1174.0</ele><time>2026-04-09T11:01:26.503Z</time></trkpt><trkpt lat="45.9741839" lon="11.8945754"><ele>1174.0</ele><time>2026-04-09T11:01:28.508Z</time></trkpt><trkpt lat="45.9741327" lon="11.8944571"><ele>1174.0</ele><time>2026-04-09T11:01:29.506Z</time></trkpt><trkpt lat="45.9740963" lon="11.8943597"><ele>1174.0</ele><time>2026-04-09T11:01:30.517Z</time></trkpt><trkpt lat="45.9739372" lon="11.8941608"><ele>1173.0</ele><time>2026-04-09T11:01:32.51Z</time></trkpt><trkpt lat="45.9738634" lon="11.8940343"><ele>1172.0</ele><time>2026-04-09T11:01:33.516Z</time></trkpt><trkpt lat="45.9738001" lon="11.893897"><ele>1171.0</ele><time>2026-04-09T11:01:34.509Z</time></trkpt><trkpt lat="45.9737483" lon="11.8937521"><ele>1170.0</ele><time>2026-04-09T11:01:35.511Z</time></trkpt><trkpt lat="45.9736932" lon="11.8935571"><ele>1166.8</ele><time>2026-04-09T11:01:36.513Z</time></trkpt><trkpt lat="45.9736696" lon="11.8933907"><ele>1163.6</ele><time>2026-04-09T11:01:37.515Z</time></trkpt><trkpt lat="45.9736345" lon="11.8932308"><ele>1160.4</ele><time>2026-04-09T11:01:38.508Z</time></trkpt><trkpt lat="45.9736206" lon="11.8930823"><ele>1157.2</ele><time>2026-04-09T11:01:39.517Z</time></trkpt><trkpt lat="45.9736129" lon="11.8929664"><ele>1154.0</ele><time>2026-04-09T11:01:40.513Z</time></trkpt><trkpt lat="45.9736448" lon="11.8928725"><ele>1154.0</ele><time>2026-04-09T11:01:41.51Z</time></trkpt><trkpt lat="45.9736449" lon="11.8927737"><ele>1154.0</ele><time>2026-04-09T11:01:42.51Z</time></trkpt><trkpt lat="45.9736215" lon="11.8926674"><ele>1154.0</ele><time>2026-04-09T11:01:43.511Z</time></trkpt><trkpt lat="45.9735982" lon="11.8925582"><ele>1154.0</ele><time>2026-04-09T11:01:44.504Z</time></trkpt><trkpt lat="45.9735259" lon="11.8924246"><ele>1154.0</ele><time>2026-04-09T11:01:47.506Z</time></trkpt><trkpt lat="45.9733768" lon="11.8924524"><ele>1162.0</ele><time>2026-04-09T11:01:49.514Z</time></trkpt><trkpt lat="45.9732816" lon="11.8925065"><ele>1170.0</ele><time>2026-04-09T11:01:50.511Z</time></trkpt><trkpt lat="45.973153" lon="11.892514"><ele>1178.0</ele><time>2026-04-09T11:01:51.505Z</time></trkpt><trkpt lat="45.9730306" lon="11.8925473"><ele>1186.0</ele><time>2026-04-09T11:01:52.511Z</time></trkpt><trkpt lat="45.9729097" lon="11.8925669"><ele>1193.25</ele><time>2026-04-09T11:01:53.51Z</time></trkpt><trkpt lat="45.972794" lon="11.8926047"><ele>1200.5</ele><time>2026-04-09T11:01:54.507Z</time></trkpt><trkpt lat="45.9726874" lon="11.892652"><ele>1207.75</ele><time>2026-04-09T11:01:55.509Z</time></trkpt><trkpt lat="45.9725765" lon="11.892683"><ele>1215.0</ele><time>2026-04-09T11:01:56.506Z</time></trkpt><trkpt lat="45.9724704" lon="11.8927021"><ele>1218.0</ele><time>2026-04-09T11:01:57.507Z</time></trkpt><trkpt lat="45.9723619" lon="11.8926778"><ele>1221.0</ele><time>2026-04-09T11:01:58.516Z</time></trkpt><trkpt lat="45.9722759" lon="11.8926604"><ele>1224.0</ele><time>2026-04-09T11:01:59.511Z</time></trkpt><trkpt lat="45.9722005" lon="11.8926215"><ele>1227.0</ele><time>2026-04-09T11:02:00.504Z</time></trkpt><trkpt lat="45.9721281" lon="11.8925617"><ele>1230.0</ele><time>2026-04-09T11:02:03.515Z</time></trkpt><trkpt lat="45.9720432" lon="11.8924101"><ele>1226.8333333333333</ele><time>2026-04-09T11:02:04.519Z</time></trkpt><trkpt lat="45.9719785" lon="11.8922866"><ele>1223.6666666666667</ele><time>2026-04-09T11:02:05.515Z</time></trkpt><trkpt lat="45.9719355" lon="11.8921721"><ele>1220.5</ele><time>2026-04-09T11:02:06.513Z</time></trkpt><trkpt lat="45.9718803" lon="11.8921161"><ele>1217.3333333333335</ele><time>2026-04-09T11:02:07.517Z</time></trkpt><trkpt lat="45.9718221" lon="11.8920754"><ele>1214.1666666666667</ele><time>2026-04-09T11:02:08.509Z</time></trkpt><trkpt lat="45.9717515" lon="11.8920166"><ele>1211.0</ele><time>2026-04-09T11:02:09.513Z</time></trkpt><trkpt lat="45.9716744" lon="11.892097"><ele>1211.0</ele><time>2026-04-09T11:02:10.505Z</time></trkpt><trkpt lat="45.971602" lon="11.8921252"><ele>1211.0</ele><time>2026-04-09T11:02:11.513Z</time></trkpt><trkpt lat="45.9715416" lon="11.8921971"><ele>1211.0</ele><time>2026-04-09T11:02:12.503Z</time></trkpt><trkpt lat="45.9714605" lon="11.8922031"><ele>1211.0</ele><time>2026-04-09T11:02:14.503Z</time></trkpt><trkpt lat="45.9714621" lon="11.8921083"><ele>1211.0</ele><time>2026-04-09T11:02:18.509Z</time></trkpt><trkpt lat="45.97157" lon="11.8920347"><ele>1211.0</ele><time>2026-04-09T11:02:20.508Z</time></trkpt><trkpt lat="45.971653" lon="11.8919789"><ele>1207.0</ele><time>2026-04-09T11:02:21.503Z</time></trkpt><trkpt lat="45.9717185" lon="11.8919037"><ele>1203.0</ele><time>2026-04-09T11:02:22.507Z</time></trkpt><trkpt lat="45.9717807" lon="11.8917927"><ele>1199.0</ele><time>2026-04-09T11:02:23.514Z</time></trkpt><trkpt lat="45.9718238" lon="11.8916768"><ele>1195.0</ele><time>2026-04-09T11:02:24.506Z</time></trkpt><trkpt lat="45.971881" lon="11.891603"><ele>1191.0</ele><time>2026-04-09T11:02:25.511Z</time></trkpt><trkpt lat="45.9719769" lon="11.8915509"><ele>1188.3999999999999</ele><time>2026-04-09T11:02:27.508Z</time></trkpt><trkpt lat="45.971974" lon="11.8914523"><ele>1185.8</ele><time>2026-04-09T11:02:29.505Z</time></trkpt><trkpt lat="45.9718247" lon="11.8914644"><ele>1183.1999999999998</ele><time>2026-04-09T11:02:32.521Z</time></trkpt><trkpt lat="45.9717186" lon="11.8915305"><ele>1180.6</ele><time>2026-04-09T11:02:33.513Z</time></trkpt><trkpt lat="45.9716188" lon="11.891573"><ele>1178.0</ele><time>2026-04-09T11:02:34.511Z</time></trkpt><trkpt lat="45.9715082" lon="11.891589"><ele>1178.0</ele><time>2026-04-09T11:02:35.509Z</time></trkpt><trkpt lat="45.9714348" lon="11.8915927"><ele>1178.0</ele><time>2026-04-09T11:02:36.507Z</time></trkpt><trkpt lat="45.971346" lon="11.8915909"><ele>1178.0</ele><time>2026-04-09T11:02:37.523Z</time></trkpt><trkpt lat="45.9712776" lon="11.891625"><ele>1178.0</ele><time>2026-04-09T11:02:38.51Z</time></trkpt><trkpt lat="45.9711469" lon="11.8915837"><ele>1178.0</ele><time>2026-04-09T11:02:40.508Z</time></trkpt><trkpt lat="45.9710801" lon="11.8915239"><ele>1178.0</ele><time>2026-04-09T11:02:41.512Z</time></trkpt><trkpt lat="45.9710526" lon="11.8912887"><ele>1178.0</ele><time>2026-04-09T11:02:43.515Z</time></trkpt><trkpt lat="45.9710232" lon="11.8911347"><ele>1178.0</ele><time>2026-04-09T11:02:44.512Z</time></trkpt><trkpt lat="45.9710253" lon="11.8909528"><ele>1178.0</ele><time>2026-04-09T11:02:45.515Z</time></trkpt><trkpt lat="45.9710261" lon="11.8908232"><ele>1178.0</ele><time>2026-04-09T11:02:46.51Z</time></trkpt><trkpt lat="45.9710366" lon="11.8906671"><ele>1178.0</ele><time>2026-04-09T11:02:47.51Z</time></trkpt><trkpt lat="45.9710696" lon="11.8905416"><ele>1177.8</ele><time>2026-04-09T11:02:48.511Z</time></trkpt><trkpt lat="45.9711185" lon="11.8904522"><ele>1177.6</ele><time>2026-04-09T11:02:50.517Z</time></trkpt><trkpt lat="45.9710342" lon="11.8903684"><ele>1177.4</ele><time>2026-04-09T11:02:53.515Z</time></trkpt><trkpt lat="45.9709092" lon="11.8903295"><ele>1177.2</ele><time>2026-04-09T11:02:55.51Z</time></trkpt><trkpt lat="45.9708473" lon="11.890307"><ele>1177.0</ele><time>2026-04-09T11:02:56.514Z</time></trkpt><trkpt lat="45.970795" lon="11.8901901"><ele>1177.0</ele><time>2026-04-09T11:02:58.509Z</time></trkpt><trkpt lat="45.9707911" lon="11.8900934"><ele>1177.0</ele><time>2026-04-09T11:02:59.514Z</time></trkpt><trkpt lat="45.9707909" lon="11.889999"><ele>1177.0</ele><time>2026-04-09T11:03:00.511Z</time></trkpt><trkpt lat="45.9708619" lon="11.8899181"><ele>1177.0</ele><time>2026-04-09T11:03:02.509Z</time></trkpt><trkpt lat="45.9707693" lon="11.8897769"><ele>1177.0</ele><time>2026-04-09T11:03:04.511Z</time></trkpt><trkpt lat="45.9713363" lon="11.8891791"><ele>1165.6666666666665</ele><time>2026-04-09T11:03:16.508Z</time></trkpt><trkpt lat="45.9713962" lon="11.8891329"><ele>1154.3333333333333</ele><time>2026-04-09T11:03:17.541Z</time></trkpt><trkpt lat="45.971459" lon="11.8890272"><ele>1143.0</ele><time>2026-04-09T11:03:18.517Z</time></trkpt><trkpt lat="45.971514" lon="11.8889385"><ele>1131.6666666666667</ele><time>2026-04-09T11:03:19.519Z</time></trkpt><trkpt lat="45.9715596" lon="11.8888129"><ele>1120.3333333333335</ele><time>2026-04-09T11:03:20.511Z</time></trkpt><trkpt lat="45.9716177" lon="11.8887693"><ele>1109.0</ele><time>2026-04-09T11:03:21.51Z</time></trkpt><trkpt lat="45.9716902" lon="11.888661"><ele>1102.8</ele><time>2026-04-09T11:03:23.511Z</time></trkpt><trkpt lat="45.9717848" lon="11.8885779"><ele>1096.6000000000001</ele><time>2026-04-09T11:03:25.506Z</time></trkpt><trkpt lat="45.9718022" lon="11.8884795"><ele>1090.4</ele><time>2026-04-09T11:03:26.521Z</time></trkpt><trkpt lat="45.9718164" lon="11.8883618"><ele>1084.2</ele><time>2026-04-09T11:03:27.509Z</time></trkpt><trkpt lat="45.9718425" lon="11.8881967"><ele>1078.0</ele><time>2026-04-09T11:03:28.51Z</time></trkpt><trkpt lat="45.9718694" lon="11.8880775"><ele>1075.6</ele><time>2026-04-09T11:03:29.522Z</time></trkpt><trkpt lat="45.971882" lon="11.8879641"><ele>1073.1999999999998</ele><time>2026-04-09T11:03:30.514Z</time></trkpt><trkpt lat="45.9718769" lon="11.8878736"><ele>1070.8</ele><time>2026-04-09T11:03:31.509Z</time></trkpt><trkpt lat="45.9719338" lon="11.8877882"><ele>1068.3999999999999</ele><time>2026-04-09T11:03:33.506Z</time></trkpt><trkpt lat="45.9719475" lon="11.887938"><ele>1066.0</ele><time>2026-04-09T11:03:37.52Z</time></trkpt><trkpt lat="45.9719678" lon="11.8881247"><ele>1066.0</ele><time>2026-04-09T11:03:39.521Z</time></trkpt><trkpt lat="45.9719502" lon="11.8882836"><ele>1066.0</ele><time>2026-04-09T11:03:40.512Z</time></trkpt><trkpt lat="45.9719547" lon="11.8884319"><ele>1066.0</ele><time>2026-04-09T11:03:41.508Z</time></trkpt><trkpt lat="45.9719463" lon="11.8885737"><ele>1066.0</ele><time>2026-04-09T11:03:42.519Z</time></trkpt><trkpt lat="45.9719401" lon="11.8887028"><ele>1066.0</ele><time>2026-04-09T11:03:43.507Z</time></trkpt><trkpt lat="45.9719205" lon="11.8891424"><ele>1062.3999999999999</ele><time>2026-04-09T11:03:47.511Z</time></trkpt><trkpt lat="45.9718895" lon="11.8893766"><ele>1058.8</ele><time>2026-04-09T11:03:50.521Z</time></trkpt><trkpt lat="45.9719168" lon="11.8894798"><ele>1055.1999999999998</ele><time>2026-04-09T11:03:53.514Z</time></trkpt><trkpt lat="45.9720124" lon="11.8894588"><ele>1051.6</ele><time>2026-04-09T11:03:54.511Z</time></trkpt><trkpt lat="45.9721095" lon="11.8894252"><ele>1048.0</ele><time>2026-04-09T11:03:55.51Z</time></trkpt><trkpt lat="45.9730353" lon="11.8888092"><ele>1048.0</ele><time>2026-04-09T11:04:06.52Z</time></trkpt><trkpt lat="45.9731575" lon="11.8888258"><ele>1048.0</ele><time>2026-04-09T11:04:07.501Z</time></trkpt><trkpt lat="45.9732243" lon="11.8887811"><ele>1048.0</ele><time>2026-04-09T11:04:08.513Z</time></trkpt><trkpt lat="45.9733403" lon="11.8887143"><ele>1048.0</ele><time>2026-04-09T11:04:10.511Z</time></trkpt><trkpt lat="45.9735534" lon="11.8888228"><ele>1051.0</ele><time>2026-04-09T11:04:13.502Z</time></trkpt><trkpt lat="45.9736472" lon="11.8888557"><ele>1054.0</ele><time>2026-04-09T11:04:14.512Z</time></trkpt><trkpt lat="45.9737183" lon="11.8888759"><ele>1057.0</ele><time>2026-04-09T11:04:15.508Z</time></trkpt><trkpt lat="45.9737897" lon="11.8889887"><ele>1060.0</ele><time>2026-04-09T11:04:16.556Z</time></trkpt><trkpt lat="45.9738303" lon="11.8890648"><ele>1063.0</ele><time>2026-04-09T11:04:17.516Z</time></trkpt><trkpt lat="45.973876" lon="11.8891993"><ele>1066.0</ele><time>2026-04-09T11:04:19.505Z</time></trkpt><trkpt lat="45.9739057" lon="11.8892939"><ele>1066.0</ele><time>2026-04-09T11:04:20.518Z</time></trkpt><trkpt lat="45.9739505" lon="11.8893985"><ele>1066.0</ele><time>2026-04-09T11:04:22.526Z</time></trkpt><trkpt lat="45.9740446" lon="11.8893899"><ele>1066.0</ele><time>2026-04-09T11:04:23.513Z</time></trkpt><trkpt lat="45.9741108" lon="11.8893612"><ele>1066.0</ele><time>2026-04-09T11:04:24.517Z</time></trkpt><trkpt lat="45.9742071" lon="11.8893424"><ele>1066.0</ele><time>2026-04-09T11:04:25.522Z</time></trkpt><trkpt lat="45.9743089" lon="11.8893108"><ele>1060.0</ele><time>2026-04-09T11:04:26.502Z</time></trkpt><trkpt lat="45.9744049" lon="11.8892798"><ele>1054.0</ele><time>2026-04-09T11:04:27.501Z</time></trkpt><trkpt lat="45.9744949" lon="11.8892369"><ele>1048.0</ele><time>2026-04-09T11:04:28.511Z</time></trkpt><trkpt lat="45.9746047" lon="11.8892129"><ele>1042.0</ele><time>2026-04-09T11:04:29.507Z</time></trkpt><trkpt lat="45.9747007" lon="11.8891647"><ele>1036.0</ele><time>2026-04-09T11:04:30.508Z</time></trkpt><trkpt lat="45.9748161" lon="11.8891205"><ele>1027.0</ele><time>2026-04-09T11:04:31.514Z</time></trkpt><trkpt lat="45.9748974" lon="11.8890621"><ele>1017.9999999999999</ele><time>2026-04-09T11:04:32.506Z</time></trkpt><trkpt lat="45.9749881" lon="11.8890176"><ele>1008.9999999999999</ele><time>2026-04-09T11:04:33.507Z</time></trkpt><trkpt lat="45.9750867" lon="11.8889794"><ele>1000.0</ele><time>2026-04-09T11:04:34.512Z</time></trkpt><trkpt lat="45.9751839" lon="11.8889372"><ele>991.0</ele><time>2026-04-09T11:04:35.508Z</time></trkpt><trkpt lat="45.9752709" lon="11.8889019"><ele>984.0</ele><time>2026-04-09T11:04:36.518Z</time></trkpt><trkpt lat="45.9754075" lon="11.8889339"><ele>977.0</ele><time>2026-04-09T11:04:38.537Z</time></trkpt><trkpt lat="45.975542" lon="11.8888681"><ele>970.0</ele><time>2026-04-09T11:04:40.515Z</time></trkpt><trkpt lat="45.9756324" lon="11.8888282"><ele>963.0</ele><time>2026-04-09T11:04:41.512Z</time></trkpt><trkpt lat="45.9757202" lon="11.8887427"><ele>963.0</ele><time>2026-04-09T11:04:42.508Z</time></trkpt><trkpt lat="45.9758183" lon="11.8887292"><ele>963.0</ele><time>2026-04-09T11:04:43.514Z</time></trkpt><trkpt lat="45.9758952" lon="11.8886656"><ele>963.0</ele><time>2026-04-09T11:04:44.508Z</time></trkpt><trkpt lat="45.976004" lon="11.8887161"><ele>963.0</ele><time>2026-04-09T11:04:46.506Z</time></trkpt><trkpt lat="45.9760609" lon="11.8889029"><ele>963.0</ele><time>2026-04-09T11:04:47.513Z</time></trkpt><trkpt lat="45.976101" lon="11.8889999"><ele>959.2</ele><time>2026-04-09T11:04:48.517Z</time></trkpt><trkpt lat="45.9761012" lon="11.8891333"><ele>955.4</ele><time>2026-04-09T11:04:49.519Z</time></trkpt><trkpt lat="45.9761225" lon="11.8892634"><ele>951.6000000000001</ele><time>2026-04-09T11:04:50.508Z</time></trkpt><trkpt lat="45.9761385" lon="11.8894064"><ele>947.8000000000001</ele><time>2026-04-09T11:04:51.509Z</time></trkpt><trkpt lat="45.9761555" lon="11.8895243"><ele>944.0</ele><time>2026-04-09T11:04:52.506Z</time></trkpt><trkpt lat="45.976217" lon="11.88963"><ele>944.0000000000001</ele><time>2026-04-09T11:04:53.511Z</time></trkpt><trkpt lat="45.9762653" lon="11.8897322"><ele>944.0</ele><time>2026-04-09T11:04:54.509Z</time></trkpt><trkpt lat="45.9763411" lon="11.8898258"><ele>944.0</ele><time>2026-04-09T11:04:55.512Z</time></trkpt><trkpt lat="45.9763764" lon="11.8899248"><ele>944.0</ele><time>2026-04-09T11:04:56.502Z</time></trkpt><trkpt lat="45.9763848" lon="11.8900298"><ele>944.0000000000001</ele><time>2026-04-09T11:04:57.505Z</time></trkpt><trkpt lat="45.9764324" lon="11.8901484"><ele>944.0</ele><time>2026-04-09T11:04:59.502Z</time></trkpt><trkpt lat="45.9764548" lon="11.8900466"><ele>944.0</ele><time>2026-04-09T11:05:03.501Z</time></trkpt><trkpt lat="45.9764211" lon="11.8899069"><ele>944.0000000000001</ele><time>2026-04-09T11:05:04.508Z</time></trkpt><trkpt lat="45.9763992" lon="11.8897725"><ele>944.0000000000001</ele><time>2026-04-09T11:05:05.505Z</time></trkpt><trkpt lat="45.9763831" lon="11.8896345"><ele>944.0</ele><time>2026-04-09T11:05:06.503Z</time></trkpt><trkpt lat="45.9763849" lon="11.889432"><ele>944.0</ele><time>2026-04-09T11:05:07.511Z</time></trkpt><trkpt lat="45.9763893" lon="11.8892904"><ele>937.75</ele><time>2026-04-09T11:05:08.506Z</time></trkpt><trkpt lat="45.9764118" lon="11.8891425"><ele>931.5</ele><time>2026-04-09T11:05:09.505Z</time></trkpt><trkpt lat="45.9764416" lon="11.8890406"><ele>925.25</ele><time>2026-04-09T11:05:10.508Z</time></trkpt><trkpt lat="45.9764695" lon="11.8889158"><ele>919.0</ele><time>2026-04-09T11:05:12.502Z</time></trkpt><trkpt lat="45.9765308" lon="11.8892005"><ele>915.4000000000001</ele><time>2026-04-09T11:05:17.524Z</time></trkpt><trkpt lat="45.9766019" lon="11.889317"><ele>911.8000000000001</ele><time>2026-04-09T11:05:18.503Z</time></trkpt><trkpt lat="45.9766549" lon="11.8894219"><ele>908.1999999999999</ele><time>2026-04-09T11:05:19.508Z</time></trkpt><trkpt lat="45.9767015" lon="11.889546"><ele>904.5999999999999</ele><time>2026-04-09T11:05:21.507Z</time></trkpt><trkpt lat="45.9767369" lon="11.8894106"><ele>901.0</ele><time>2026-04-09T11:05:25.535Z</time></trkpt><trkpt lat="45.9767168" lon="11.8891649"><ele>901.0</ele><time>2026-04-09T11:05:28.508Z</time></trkpt><trkpt lat="45.9767752" lon="11.8891168"><ele>900.9999999999999</ele><time>2026-04-09T11:05:32.526Z</time></trkpt><trkpt lat="45.9768518" lon="11.8891695"><ele>900.9999999999999</ele><time>2026-04-09T11:05:33.509Z</time></trkpt><trkpt lat="45.9769424" lon="11.8893254"><ele>901.0</ele><time>2026-04-09T11:05:34.5Z</time></trkpt><trkpt lat="45.9770355" lon="11.889407"><ele>901.0</ele><time>2026-04-09T11:05:36.5Z</time></trkpt><trkpt lat="45.9770946" lon="11.8893238"><ele>901.0</ele><time>2026-04-09T11:05:37.51Z</time></trkpt><trkpt lat="45.9772278" lon="11.8892362"><ele>901.0</ele><time>2026-04-09T11:05:39.503Z</time></trkpt><trkpt lat="45.9773617" lon="11.8891609"><ele>901.0</ele><time>2026-04-09T11:05:40.523Z</time></trkpt><trkpt lat="45.9774389" lon="11.8891258"><ele>901.0</ele><time>2026-04-09T11:05:41.501Z</time></trkpt><trkpt lat="45.9775282" lon="11.8890473"><ele>905.5</ele><time>2026-04-09T11:05:42.507Z</time></trkpt><trkpt lat="45.9776018" lon="11.888977"><ele>910.0</ele><time>2026-04-09T11:05:43.502Z</time></trkpt><trkpt lat="45.9776907" lon="11.8888231"><ele>914.5</ele><time>2026-04-09T11:05:44.518Z</time></trkpt><trkpt lat="45.9778519" lon="11.8889982"><ele>919.0</ele><time>2026-04-09T11:05:45.51Z</time></trkpt><trkpt lat="45.9779463" lon="11.8889342"><ele>919.0</ele><time>2026-04-09T11:05:46.502Z</time></trkpt><trkpt lat="45.9780307" lon="11.8888727"><ele>919.0000000000001</ele><time>2026-04-09T11:05:47.512Z</time></trkpt><trkpt lat="45.9781013" lon="11.8888001"><ele>919.0000000000001</ele><time>2026-04-09T11:05:48.507Z</time></trkpt><trkpt lat="45.9781697" lon="11.8887184"><ele>919.0</ele><time>2026-04-09T11:05:49.507Z</time></trkpt><trkpt lat="45.9782369" lon="11.8886143"><ele>919.0</ele><time>2026-04-09T11:05:50.51Z</time></trkpt><trkpt lat="45.9783297" lon="11.8885847"><ele>915.9999999999999</ele><time>2026-04-09T11:05:51.511Z</time></trkpt><trkpt lat="45.978392" lon="11.8885419"><ele>913.0</ele><time>2026-04-09T11:05:52.504Z</time></trkpt><trkpt lat="45.9784621" lon="11.8884844"><ele>910.0</ele><time>2026-04-09T11:05:53.513Z</time></trkpt><trkpt lat="45.9785249" lon="11.8884222"><ele>907.0</ele><time>2026-04-09T11:05:54.498Z</time></trkpt><trkpt lat="45.978573" lon="11.888343"><ele>903.9999999999999</ele><time>2026-04-09T11:05:55.509Z</time></trkpt><trkpt lat="45.9786509" lon="11.8883439"><ele>901.0</ele><time>2026-04-09T11:05:56.508Z</time></trkpt><trkpt lat="45.9787211" lon="11.8883154"><ele>901.0</ele><time>2026-04-09T11:05:57.515Z</time></trkpt><trkpt lat="45.9788241" lon="11.8883716"><ele>901.0</ele><time>2026-04-09T11:05:58.545Z</time></trkpt><trkpt lat="45.9789697" lon="11.8885009"><ele>901.0</ele><time>2026-04-09T11:05:59.51Z</time></trkpt><trkpt lat="45.9790333" lon="11.8885427"><ele>901.0</ele><time>2026-04-09T11:06:00.506Z</time></trkpt><trkpt lat="45.9791346" lon="11.8886388"><ele>903.8</ele><time>2026-04-09T11:06:02.507Z</time></trkpt><trkpt lat="45.9792168" lon="11.888784"><ele>906.5999999999999</ele><time>2026-04-09T11:06:03.506Z</time></trkpt><trkpt lat="45.9792792" lon="11.8888511"><ele>909.4</ele><time>2026-04-09T11:06:04.505Z</time></trkpt><trkpt lat="45.9793748" lon="11.888928"><ele>912.2</ele><time>2026-04-09T11:06:06.499Z</time></trkpt><trkpt lat="45.9794443" lon="11.8888599"><ele>915.0</ele><time>2026-04-09T11:06:08.562Z</time></trkpt><trkpt lat="45.9795268" lon="11.8886975"><ele>915.0</ele><time>2026-04-09T11:06:10.512Z</time></trkpt><trkpt lat="45.9795795" lon="11.8886164"><ele>915.0</ele><time>2026-04-09T11:06:11.501Z</time></trkpt><trkpt lat="45.9796459" lon="11.8884432"><ele>915.0</ele><time>2026-04-09T11:06:12.515Z</time></trkpt><trkpt lat="45.9797252" lon="11.8882845"><ele>915.0</ele><time>2026-04-09T11:06:13.509Z</time></trkpt><trkpt lat="45.9797816" lon="11.8881492"><ele>909.0</ele><time>2026-04-09T11:06:14.543Z</time></trkpt><trkpt lat="45.9798381" lon="11.8880331"><ele>903.0</ele><time>2026-04-09T11:06:15.509Z</time></trkpt><trkpt lat="45.9799011" lon="11.8879929"><ele>897.0</ele><time>2026-04-09T11:06:16.528Z</time></trkpt><trkpt lat="45.9799455" lon="11.8878835"><ele>891.0</ele><time>2026-04-09T11:06:17.525Z</time></trkpt><trkpt lat="45.9799668" lon="11.8877631"><ele>885.0</ele><time>2026-04-09T11:06:18.506Z</time></trkpt><trkpt lat="45.9800161" lon="11.8876451"><ele>879.0</ele><time>2026-04-09T11:06:19.514Z</time></trkpt><trkpt lat="45.9800542" lon="11.8875273"><ele>876.0</ele><time>2026-04-09T11:06:20.537Z</time></trkpt><trkpt lat="45.9800593" lon="11.887431"><ele>873.0</ele><time>2026-04-09T11:06:22.5Z</time></trkpt><trkpt lat="45.9799573" lon="11.8874414"><ele>870.0</ele><time>2026-04-09T11:06:24.517Z</time></trkpt><trkpt lat="45.9798742" lon="11.8875187"><ele>867.0</ele><time>2026-04-09T11:06:26.5Z</time></trkpt><trkpt lat="45.97983" lon="11.8874303"><ele>864.0</ele><time>2026-04-09T11:06:29.514Z</time></trkpt><trkpt lat="45.9798432" lon="11.8873035"><ele>861.0</ele><time>2026-04-09T11:06:30.51Z</time></trkpt><trkpt lat="45.9798977" lon="11.8872158"><ele>861.0</ele><time>2026-04-09T11:06:31.52Z</time></trkpt><trkpt lat="45.9799636" lon="11.8871341"><ele>861.0</ele><time>2026-04-09T11:06:32.499Z</time></trkpt><trkpt lat="45.9800226" lon="11.8870112"><ele>861.0</ele><time>2026-04-09T11:06:33.511Z</time></trkpt><trkpt lat="45.9800758" lon="11.8868888"><ele>861.0</ele><time>2026-04-09T11:06:34.507Z</time></trkpt><trkpt lat="45.9801159" lon="11.8867886"><ele>861.0</ele><time>2026-04-09T11:06:35.507Z</time></trkpt><trkpt lat="45.9801421" lon="11.8867002"><ele>861.0</ele><time>2026-04-09T11:06:36.516Z</time></trkpt><trkpt lat="45.9802292" lon="11.8866188"><ele>852.8</ele><time>2026-04-09T11:06:38.509Z</time></trkpt><trkpt lat="45.9803041" lon="11.8866057"><ele>844.5999999999999</ele><time>2026-04-09T11:06:39.506Z</time></trkpt><trkpt lat="45.9804724" lon="11.8865957"><ele>836.4</ele><time>2026-04-09T11:06:41.508Z</time></trkpt><trkpt lat="45.9805783" lon="11.8866492"><ele>828.2</ele><time>2026-04-09T11:06:42.527Z</time></trkpt><trkpt lat="45.9806577" lon="11.8866672"><ele>820.0</ele><time>2026-04-09T11:06:43.504Z</time></trkpt><trkpt lat="45.9807176" lon="11.8867102"><ele>820.0</ele><time>2026-04-09T11:06:44.51Z</time></trkpt><trkpt lat="45.9807862" lon="11.8867459"><ele>820.0</ele><time>2026-04-09T11:06:45.505Z</time></trkpt><trkpt lat="45.980865" lon="11.8868139"><ele>820.0</ele><time>2026-04-09T11:06:46.509Z</time></trkpt><trkpt lat="45.9809436" lon="11.8867685"><ele>820.0</ele><time>2026-04-09T11:06:48.519Z</time></trkpt><trkpt lat="45.9810216" lon="11.886599"><ele>820.0</ele><time>2026-04-09T11:06:50.511Z</time></trkpt><trkpt lat="45.9810732" lon="11.8864965"><ele>823.0</ele><time>2026-04-09T11:06:51.51Z</time></trkpt><trkpt lat="45.9811287" lon="11.8863663"><ele>826.0</ele><time>2026-04-09T11:06:52.516Z</time></trkpt><trkpt lat="45.9811705" lon="11.8862532"><ele>829.0</ele><time>2026-04-09T11:06:53.511Z</time></trkpt><trkpt lat="45.9812142" lon="11.8861558"><ele>832.0</ele><time>2026-04-09T11:06:54.523Z</time></trkpt><trkpt lat="45.9812823" lon="11.8860587"><ele>835.0</ele><time>2026-04-09T11:06:55.52Z</time></trkpt><trkpt lat="45.9813432" lon="11.8859573"><ele>829.9999999999999</ele><time>2026-04-09T11:06:56.536Z</time></trkpt><trkpt lat="45.98138" lon="11.885877"><ele>825.0</ele><time>2026-04-09T11:06:57.514Z</time></trkpt><trkpt lat="45.9814366" lon="11.8858116"><ele>820.0</ele><time>2026-04-09T11:06:58.511Z</time></trkpt><trkpt lat="45.9815474" lon="11.885725"><ele>815.0</ele><time>2026-04-09T11:07:00.502Z</time></trkpt><trkpt lat="45.9816144" lon="11.8856776"><ele>809.9999999999999</ele><time>2026-04-09T11:07:01.511Z</time></trkpt><trkpt lat="45.9817042" lon="11.8856658"><ele>805.0</ele><time>2026-04-09T11:07:02.504Z</time></trkpt><trkpt lat="45.9818795" lon="11.8856715"><ele>805.0</ele><time>2026-04-09T11:07:03.517Z</time></trkpt><trkpt lat="45.9819894" lon="11.8856415"><ele>805.0</ele><time>2026-04-09T11:07:04.514Z</time></trkpt><trkpt lat="45.9821038" lon="11.885644"><ele>805.0</ele><time>2026-04-09T11:07:05.504Z</time></trkpt><trkpt lat="45.9822024" lon="11.8855914"><ele>805.0</ele><time>2026-04-09T11:07:06.501Z</time></trkpt><trkpt lat="45.9823023" lon="11.8855426"><ele>805.0</ele><time>2026-04-09T11:07:07.509Z</time></trkpt><trkpt lat="45.9824128" lon="11.8855002"><ele>804.9999999999999</ele><time>2026-04-09T11:07:08.501Z</time></trkpt><trkpt lat="45.9824883" lon="11.8854923"><ele>805.0</ele><time>2026-04-09T11:07:09.505Z</time></trkpt><trkpt lat="45.982567" lon="11.8854258"><ele>805.0</ele><time>2026-04-09T11:07:10.502Z</time></trkpt><trkpt lat="45.9826136" lon="11.8853221"><ele>805.0</ele><time>2026-04-09T11:07:11.513Z</time></trkpt><trkpt lat="45.9826049" lon="11.8852061"><ele>804.9999999999999</ele><time>2026-04-09T11:07:12.512Z</time></trkpt><trkpt lat="45.9826757" lon="11.8851715"><ele>805.0</ele><time>2026-04-09T11:07:13.51Z</time></trkpt><trkpt lat="45.9827587" lon="11.8851128"><ele>798.6666666666666</ele><time>2026-04-09T11:07:14.501Z</time></trkpt><trkpt lat="45.9828236" lon="11.8850614"><ele>792.3333333333333</ele><time>2026-04-09T11:07:15.505Z</time></trkpt><trkpt lat="45.9829288" lon="11.8850162"><ele>786.0</ele><time>2026-04-09T11:07:16.519Z</time></trkpt><trkpt lat="45.9830205" lon="11.8850015"><ele>779.6666666666666</ele><time>2026-04-09T11:07:17.507Z</time></trkpt><trkpt lat="45.9831092" lon="11.8849943"><ele>773.3333333333333</ele><time>2026-04-09T11:07:18.536Z</time></trkpt><trkpt lat="45.9831862" lon="11.8849748"><ele>767.0</ele><time>2026-04-09T11:07:19.505Z</time></trkpt><trkpt lat="45.9832653" lon="11.8849519"><ele>768.0</ele><time>2026-04-09T11:07:20.498Z</time></trkpt><trkpt lat="45.983349" lon="11.8849106"><ele>769.0</ele><time>2026-04-09T11:07:21.507Z</time></trkpt><trkpt lat="45.9834303" lon="11.8848427"><ele>770.0</ele><time>2026-04-09T11:07:22.535Z</time></trkpt><trkpt lat="45.9835225" lon="11.884783"><ele>771.0</ele><time>2026-04-09T11:07:23.503Z</time></trkpt><trkpt lat="45.9835912" lon="11.8847694"><ele>772.0000000000001</ele><time>2026-04-09T11:07:24.5Z</time></trkpt><trkpt lat="45.9836711" lon="11.884772"><ele>773.0</ele><time>2026-04-09T11:07:25.504Z</time></trkpt><trkpt lat="45.9837523" lon="11.8847516"><ele>773.0</ele><time>2026-04-09T11:07:26.509Z</time></trkpt><trkpt lat="45.9838672" lon="11.8847087"><ele>773.0</ele><time>2026-04-09T11:07:27.515Z</time></trkpt><trkpt lat="45.983959" lon="11.884652"><ele>773.0</ele><time>2026-04-09T11:07:28.509Z</time></trkpt><trkpt lat="45.9840524" lon="11.8846064"><ele>773.0</ele><time>2026-04-09T11:07:29.509Z</time></trkpt><trkpt lat="45.9841422" lon="11.8845303"><ele>773.0</ele><time>2026-04-09T11:07:30.513Z</time></trkpt><trkpt lat="45.9842055" lon="11.884471"><ele>773.8333333333334</ele><time>2026-04-09T11:07:31.513Z</time></trkpt><trkpt lat="45.9842902" lon="11.8844358"><ele>774.6666666666667</ele><time>2026-04-09T11:07:32.504Z</time></trkpt><trkpt lat="45.9843559" lon="11.8844352"><ele>775.5</ele><time>2026-04-09T11:07:33.512Z</time></trkpt><trkpt lat="45.9843829" lon="11.8842262"><ele>776.3333333333333</ele><time>2026-04-09T11:07:36.538Z</time></trkpt><trkpt lat="45.9844105" lon="11.884127"><ele>777.1666666666666</ele><time>2026-04-09T11:07:37.509Z</time></trkpt><trkpt lat="45.9844155" lon="11.8840324"><ele>778.0</ele><time>2026-04-09T11:07:38.521Z</time></trkpt><trkpt lat="45.9844343" lon="11.8839342"><ele>777.9999999999999</ele><time>2026-04-09T11:07:39.513Z</time></trkpt><trkpt lat="45.9844614" lon="11.8838356"><ele>778.0</ele><time>2026-04-09T11:07:40.515Z</time></trkpt><trkpt lat="45.9845008" lon="11.8837437"><ele>778.0</ele><time>2026-04-09T11:07:41.505Z</time></trkpt><trkpt lat="45.9845462" lon="11.8836461"><ele>778.0</ele><time>2026-04-09T11:07:42.508Z</time></trkpt><trkpt lat="45.9845839" lon="11.8835595"><ele>777.9999999999999</ele><time>2026-04-09T11:07:43.515Z</time></trkpt><trkpt lat="45.9846283" lon="11.8834617"><ele>778.0</ele><time>2026-04-09T11:07:44.518Z</time></trkpt><trkpt lat="45.9846594" lon="11.8833628"><ele>771.3333333333333</ele><time>2026-04-09T11:07:45.512Z</time></trkpt><trkpt lat="45.9846973" lon="11.8832509"><ele>764.6666666666666</ele><time>2026-04-09T11:07:46.5Z</time></trkpt><trkpt lat="45.9847624" lon="11.8831556"><ele>758.0</ele><time>2026-04-09T11:07:47.514Z</time></trkpt><trkpt lat="45.9848334" lon="11.8830573"><ele>751.3333333333333</ele><time>2026-04-09T11:07:48.508Z</time></trkpt><trkpt lat="45.9848984" lon="11.8829859"><ele>744.6666666666666</ele><time>2026-04-09T11:07:49.507Z</time></trkpt><trkpt lat="45.9849407" lon="11.8829025"><ele>738.0</ele><time>2026-04-09T11:07:50.507Z</time></trkpt><trkpt lat="45.9849718" lon="11.8828053"><ele>738.0</ele><time>2026-04-09T11:07:51.502Z</time></trkpt><trkpt lat="45.9849974" lon="11.8826992"><ele>738.0</ele><time>2026-04-09T11:07:52.522Z</time></trkpt><trkpt lat="45.9850161" lon="11.8825736"><ele>738.0</ele><time>2026-04-09T11:07:53.511Z</time></trkpt><trkpt lat="45.9850202" lon="11.8824719"><ele>738.0</ele><time>2026-04-09T11:07:54.522Z</time></trkpt><trkpt lat="45.9850317" lon="11.8822902"><ele>738.0</ele><time>2026-04-09T11:07:56.518Z</time></trkpt><trkpt lat="45.9850837" lon="11.8821805"><ele>739.3333333333334</ele><time>2026-04-09T11:07:57.512Z</time></trkpt><trkpt lat="45.9851394" lon="11.8820693"><ele>740.6666666666666</ele><time>2026-04-09T11:07:58.504Z</time></trkpt><trkpt lat="45.9851885" lon="11.8819502"><ele>742.0</ele><time>2026-04-09T11:07:59.509Z</time></trkpt><trkpt lat="45.9852244" lon="11.8818628"><ele>743.3333333333333</ele><time>2026-04-09T11:08:00.506Z</time></trkpt><trkpt lat="45.9852663" lon="11.881733"><ele>744.6666666666666</ele><time>2026-04-09T11:08:02.511Z</time></trkpt><trkpt lat="45.9853258" lon="11.8816838"><ele>746.0</ele><time>2026-04-09T11:08:03.506Z</time></trkpt><trkpt lat="45.9854653" lon="11.881602"><ele>739.75</ele><time>2026-04-09T11:08:04.507Z</time></trkpt><trkpt lat="45.9855733" lon="11.881516"><ele>733.5</ele><time>2026-04-09T11:08:05.516Z</time></trkpt><trkpt lat="45.9856742" lon="11.8814373"><ele>727.25</ele><time>2026-04-09T11:08:06.512Z</time></trkpt><trkpt lat="45.9857672" lon="11.8813331"><ele>721.0</ele><time>2026-04-09T11:08:07.515Z</time></trkpt><trkpt lat="45.9858504" lon="11.8812152"><ele>721.0</ele><time>2026-04-09T11:08:08.497Z</time></trkpt><trkpt lat="45.9859404" lon="11.8811115"><ele>721.0</ele><time>2026-04-09T11:08:09.506Z</time></trkpt><trkpt lat="45.9860102" lon="11.8809828"><ele>721.0</ele><time>2026-04-09T11:08:10.508Z</time></trkpt><trkpt lat="45.9860731" lon="11.8808851"><ele>721.0</ele><time>2026-04-09T11:08:11.511Z</time></trkpt><trkpt lat="45.9861328" lon="11.8808151"><ele>721.0</ele><time>2026-04-09T11:08:12.512Z</time></trkpt><trkpt lat="45.986204" lon="11.8807773"><ele>714.3333333333334</ele><time>2026-04-09T11:08:13.513Z</time></trkpt><trkpt lat="45.9862693" lon="11.8807155"><ele>707.6666666666667</ele><time>2026-04-09T11:08:14.509Z</time></trkpt><trkpt lat="45.986345" lon="11.8806764"><ele>701.0</ele><time>2026-04-09T11:08:15.506Z</time></trkpt><trkpt lat="45.9864317" lon="11.8806578"><ele>694.3333333333334</ele><time>2026-04-09T11:08:16.508Z</time></trkpt><trkpt lat="45.9865292" lon="11.880631"><ele>687.6666666666666</ele><time>2026-04-09T11:08:17.505Z</time></trkpt><trkpt lat="45.9866273" lon="11.880623"><ele>681.0</ele><time>2026-04-09T11:08:18.507Z</time></trkpt><trkpt lat="45.9867317" lon="11.8806348"><ele>680.7142857142858</ele><time>2026-04-09T11:08:19.504Z</time></trkpt><trkpt lat="45.9868168" lon="11.8806341"><ele>680.4285714285714</ele><time>2026-04-09T11:08:20.5Z</time></trkpt><trkpt lat="45.9868926" lon="11.8806369"><ele>680.1428571428571</ele><time>2026-04-09T11:08:21.502Z</time></trkpt><trkpt lat="45.9869677" lon="11.8806368"><ele>679.8571428571429</ele><time>2026-04-09T11:08:22.507Z</time></trkpt><trkpt lat="45.9870224" lon="11.8805698"><ele>679.5714285714286</ele><time>2026-04-09T11:08:23.501Z</time></trkpt><trkpt lat="45.9870814" lon="11.8805189"><ele>679.2857142857143</ele><time>2026-04-09T11:08:24.503Z</time></trkpt><trkpt lat="45.9871233" lon="11.8804379"><ele>679.0</ele><time>2026-04-09T11:08:25.512Z</time></trkpt><trkpt lat="45.9871938" lon="11.8803371"><ele>679.0</ele><time>2026-04-09T11:08:26.501Z</time></trkpt><trkpt lat="45.9872744" lon="11.8802284"><ele>679.0</ele><time>2026-04-09T11:08:27.506Z</time></trkpt><trkpt lat="45.9873584" lon="11.880127"><ele>679.0</ele><time>2026-04-09T11:08:28.519Z</time></trkpt><trkpt lat="45.987428" lon="11.8800382"><ele>679.0</ele><time>2026-04-09T11:08:29.5Z</time></trkpt><trkpt lat="45.9874912" lon="11.8799792"><ele>679.0</ele><time>2026-04-09T11:08:30.507Z</time></trkpt><trkpt lat="45.9876043" lon="11.879931"><ele>676.2</ele><time>2026-04-09T11:08:32.51Z</time></trkpt><trkpt lat="45.9876678" lon="11.879918"><ele>673.4000000000001</ele><time>2026-04-09T11:08:33.516Z</time></trkpt><trkpt lat="45.9877462" lon="11.8799301"><ele>670.6</ele><time>2026-04-09T11:08:34.512Z</time></trkpt><trkpt lat="45.9878202" lon="11.8798758"><ele>667.8</ele><time>2026-04-09T11:08:35.506Z</time></trkpt><trkpt lat="45.9878885" lon="11.8798073"><ele>665.0</ele><time>2026-04-09T11:08:36.523Z</time></trkpt><trkpt lat="45.9880329" lon="11.8796107"><ele>665.0</ele><time>2026-04-09T11:08:38.5Z</time></trkpt><trkpt lat="45.988114" lon="11.8794869"><ele>665.0</ele><time>2026-04-09T11:08:39.508Z</time></trkpt><trkpt lat="45.988185" lon="11.8793394"><ele>665.0</ele><time>2026-04-09T11:08:40.509Z</time></trkpt><trkpt lat="45.9882312" lon="11.8791778"><ele>665.0</ele><time>2026-04-09T11:08:41.513Z</time></trkpt><trkpt lat="45.9883076" lon="11.8790421"><ele>665.75</ele><time>2026-04-09T11:08:42.508Z</time></trkpt><trkpt lat="45.9883925" lon="11.8789076"><ele>666.5</ele><time>2026-04-09T11:08:43.515Z</time></trkpt><trkpt lat="45.9884893" lon="11.8787545"><ele>667.25</ele><time>2026-04-09T11:08:44.505Z</time></trkpt><trkpt lat="45.9885853" lon="11.8786016"><ele>668.0</ele><time>2026-04-09T11:08:45.51Z</time></trkpt><trkpt lat="45.9886764" lon="11.8784178"><ele>655.6666666666666</ele><time>2026-04-09T11:08:46.505Z</time></trkpt><trkpt lat="45.9887624" lon="11.8782397"><ele>643.3333333333334</ele><time>2026-04-09T11:08:47.507Z</time></trkpt><trkpt lat="45.9888509" lon="11.8780638"><ele>631.0</ele><time>2026-04-09T11:08:48.506Z</time></trkpt><trkpt lat="45.9889397" lon="11.8778765"><ele>631.0</ele><time>2026-04-09T11:08:49.513Z</time></trkpt><trkpt lat="45.9890135" lon="11.8776927"><ele>631.0</ele><time>2026-04-09T11:08:50.507Z</time></trkpt><trkpt lat="45.9890746" lon="11.8774943"><ele>631.0</ele><time>2026-04-09T11:08:51.513Z</time></trkpt><trkpt lat="45.9891691" lon="11.8773379"><ele>631.0</ele><time>2026-04-09T11:08:53.515Z</time></trkpt><trkpt lat="45.9892048" lon="11.8772004"><ele>625.3333333333334</ele><time>2026-04-09T11:08:54.513Z</time></trkpt><trkpt lat="45.9892576" lon="11.8771086"><ele>619.6666666666667</ele><time>2026-04-09T11:08:55.501Z</time></trkpt><trkpt lat="45.9893083" lon="11.8770469"><ele>614.0</ele><time>2026-04-09T11:08:56.502Z</time></trkpt><trkpt lat="45.9893613" lon="11.8769702"><ele>608.3333333333334</ele><time>2026-04-09T11:08:57.502Z</time></trkpt><trkpt lat="45.9894301" lon="11.8769009"><ele>602.6666666666666</ele><time>2026-04-09T11:08:58.517Z</time></trkpt><trkpt lat="45.9895043" lon="11.8768275"><ele>597.0</ele><time>2026-04-09T11:08:59.51Z</time></trkpt><trkpt lat="45.9895725" lon="11.8767458"><ele>591.8333333333334</ele><time>2026-04-09T11:09:00.512Z</time></trkpt><trkpt lat="45.9896347" lon="11.8766595"><ele>586.6666666666666</ele><time>2026-04-09T11:09:01.502Z</time></trkpt><trkpt lat="45.9896929" lon="11.8766165"><ele>581.5</ele><time>2026-04-09T11:09:02.506Z</time></trkpt><trkpt lat="45.9897576" lon="11.8765369"><ele>576.3333333333333</ele><time>2026-04-09T11:09:04.507Z</time></trkpt><trkpt lat="45.9898615" lon="11.8765666"><ele>571.1666666666666</ele><time>2026-04-09T11:09:06.511Z</time></trkpt><trkpt lat="45.9899258" lon="11.8766066"><ele>566.0</ele><time>2026-04-09T11:09:07.509Z</time></trkpt><trkpt lat="45.9900025" lon="11.8766667"><ele>563.3333333333333</ele><time>2026-04-09T11:09:08.508Z</time></trkpt><trkpt lat="45.9900693" lon="11.876724"><ele>560.6666666666666</ele><time>2026-04-09T11:09:09.507Z</time></trkpt><trkpt lat="45.9901341" lon="11.876784"><ele>558.0</ele><time>2026-04-09T11:09:10.509Z</time></trkpt><trkpt lat="45.9902018" lon="11.8768653"><ele>555.3333333333334</ele><time>2026-04-09T11:09:11.507Z</time></trkpt><trkpt lat="45.9902696" lon="11.8769359"><ele>552.6666666666667</ele><time>2026-04-09T11:09:12.515Z</time></trkpt><trkpt lat="45.9903445" lon="11.8770429"><ele>550.0</ele><time>2026-04-09T11:09:13.503Z</time></trkpt><trkpt lat="45.9904187" lon="11.8771608"><ele>550.0</ele><time>2026-04-09T11:09:14.527Z</time></trkpt><trkpt lat="45.9905029" lon="11.8772988"><ele>550.0</ele><time>2026-04-09T11:09:15.504Z</time></trkpt><trkpt lat="45.9905852" lon="11.8774379"><ele>550.0</ele><time>2026-04-09T11:09:16.513Z</time></trkpt><trkpt lat="45.9906445" lon="11.8775729"><ele>550.0</ele><time>2026-04-09T11:09:17.51Z</time></trkpt><trkpt lat="45.9907131" lon="11.877712"><ele>552.0</ele><time>2026-04-09T11:09:18.507Z</time></trkpt><trkpt lat="45.9907713" lon="11.8778373"><ele>554.0</ele><time>2026-04-09T11:09:19.514Z</time></trkpt><trkpt lat="45.9908221" lon="11.8779706"><ele>556.0</ele><time>2026-04-09T11:09:20.519Z</time></trkpt><trkpt lat="45.9908544" lon="11.87812"><ele>558.0</ele><time>2026-04-09T11:09:21.51Z</time></trkpt><trkpt lat="45.9908924" lon="11.878286"><ele>560.0</ele><time>2026-04-09T11:09:22.507Z</time></trkpt><trkpt lat="45.9909177" lon="11.878444"><ele>555.5</ele><time>2026-04-09T11:09:23.507Z</time></trkpt><trkpt lat="45.9909472" lon="11.8785891"><ele>551.0</ele><time>2026-04-09T11:09:24.504Z</time></trkpt><trkpt lat="45.9909571" lon="11.8787248"><ele>546.5</ele><time>2026-04-09T11:09:25.509Z</time></trkpt><trkpt lat="45.9909816" lon="11.8788323"><ele>542.0</ele><time>2026-04-09T11:09:26.506Z</time></trkpt><trkpt lat="45.9910156" lon="11.8789334"><ele>537.5</ele><time>2026-04-09T11:09:27.514Z</time></trkpt><trkpt lat="45.9910503" lon="11.8790178"><ele>533.0</ele><time>2026-04-09T11:09:28.504Z</time></trkpt><trkpt lat="45.9911288" lon="11.8790558"><ele>533.0</ele><time>2026-04-09T11:09:29.511Z</time></trkpt><trkpt lat="45.9911879" lon="11.879091"><ele>533.0</ele><time>2026-04-09T11:09:30.511Z</time></trkpt><trkpt lat="45.9912689" lon="11.8791015"><ele>533.0</ele><time>2026-04-09T11:09:31.507Z</time></trkpt><trkpt lat="45.9913469" lon="11.8791015"><ele>533.0</ele><time>2026-04-09T11:09:32.514Z</time></trkpt><trkpt lat="45.991409" lon="11.8791265"><ele>533.0</ele><time>2026-04-09T11:09:33.513Z</time></trkpt><trkpt lat="45.9914712" lon="11.8791107"><ele>533.0</ele><time>2026-04-09T11:09:35.507Z</time></trkpt><trkpt lat="45.9915011" lon="11.879026"><ele>533.0</ele><time>2026-04-09T11:09:37.511Z</time></trkpt><trkpt lat="45.9914676" lon="11.8789406"><ele>533.0</ele><time>2026-04-09T11:09:39.504Z</time></trkpt><trkpt lat="45.9913901" lon="11.8787765"><ele>533.0</ele><time>2026-04-09T11:09:41.51Z</time></trkpt><trkpt lat="45.9913459" lon="11.8786889"><ele>533.0</ele><time>2026-04-09T11:09:42.514Z</time></trkpt><trkpt lat="45.9913352" lon="11.8785608"><ele>533.0</ele><time>2026-04-09T11:09:43.507Z</time></trkpt><trkpt lat="45.9913495" lon="11.8784588"><ele>533.0</ele><time>2026-04-09T11:09:44.518Z</time></trkpt><trkpt lat="45.9913919" lon="11.8783558"><ele>531.1666666666666</ele><time>2026-04-09T11:09:45.518Z</time></trkpt><trkpt lat="45.9914218" lon="11.8782679"><ele>529.3333333333333</ele><time>2026-04-09T11:09:46.512Z</time></trkpt><trkpt lat="45.991469" lon="11.878194"><ele>527.5</ele><time>2026-04-09T11:09:47.506Z</time></trkpt><trkpt lat="45.9914851" lon="11.8780846"><ele>525.6666666666666</ele><time>2026-04-09T11:09:48.516Z</time></trkpt><trkpt lat="45.9915096" lon="11.8779653"><ele>523.8333333333334</ele><time>2026-04-09T11:09:49.505Z</time></trkpt><trkpt lat="45.9915286" lon="11.8778371"><ele>522.0</ele><time>2026-04-09T11:09:50.506Z</time></trkpt><trkpt lat="45.991554" lon="11.8776914"><ele>520.0</ele><time>2026-04-09T11:09:51.505Z</time></trkpt><trkpt lat="45.9915552" lon="11.8775517"><ele>518.0</ele><time>2026-04-09T11:09:52.514Z</time></trkpt><trkpt lat="45.9915426" lon="11.8774031"><ele>516.0</ele><time>2026-04-09T11:09:53.507Z</time></trkpt><trkpt lat="45.9914806" lon="11.8773014"><ele>514.0</ele><time>2026-04-09T11:09:54.507Z</time></trkpt><trkpt lat="45.9914456" lon="11.8771805"><ele>512.0</ele><time>2026-04-09T11:09:55.512Z</time></trkpt><trkpt lat="45.9914233" lon="11.8770795"><ele>511.99999999999994</ele><time>2026-04-09T11:09:56.503Z</time></trkpt><trkpt lat="45.9914188" lon="11.8769688"><ele>512.0</ele><time>2026-04-09T11:09:57.508Z</time></trkpt><trkpt lat="45.9914297" lon="11.8768667"><ele>512.0</ele><time>2026-04-09T11:09:58.507Z</time></trkpt><trkpt lat="45.9914221" lon="11.8767703"><ele>512.0</ele><time>2026-04-09T11:09:59.506Z</time></trkpt><trkpt lat="45.9914001" lon="11.8766482"><ele>511.99999999999994</ele><time>2026-04-09T11:10:00.511Z</time></trkpt><trkpt lat="45.9913362" lon="11.8765216"><ele>512.0</ele><time>2026-04-09T11:10:01.52Z</time></trkpt><trkpt lat="45.9912456" lon="11.876385"><ele>509.25</ele><time>2026-04-09T11:10:02.509Z</time></trkpt><trkpt lat="45.9911568" lon="11.8762435"><ele>506.5</ele><time>2026-04-09T11:10:03.506Z</time></trkpt><trkpt lat="45.9910663" lon="11.876106"><ele>503.75</ele><time>2026-04-09T11:10:04.533Z</time></trkpt><trkpt lat="45.9909411" lon="11.875923"><ele>501.0</ele><time>2026-04-09T11:10:06.503Z</time></trkpt><trkpt lat="45.9908974" lon="11.8757789"><ele>501.0</ele><time>2026-04-09T11:10:08.514Z</time></trkpt><trkpt lat="45.9909693" lon="11.8757993"><ele>501.0</ele><time>2026-04-09T11:10:10.503Z</time></trkpt><trkpt lat="45.9910443" lon="11.875875"><ele>501.0</ele><time>2026-04-09T11:10:11.514Z</time></trkpt><trkpt lat="45.9911311" lon="11.8759551"><ele>501.0</ele><time>2026-04-09T11:10:12.503Z</time></trkpt><trkpt lat="45.9912183" lon="11.8760244"><ele>501.0</ele><time>2026-04-09T11:10:13.517Z</time></trkpt><trkpt lat="45.9913165" lon="11.8760803"><ele>501.0</ele><time>2026-04-09T11:10:14.509Z</time></trkpt><trkpt lat="45.9914121" lon="11.8761227"><ele>501.0</ele><time>2026-04-09T11:10:15.506Z</time></trkpt><trkpt lat="45.9915129" lon="11.8761711"><ele>501.0</ele><time>2026-04-09T11:10:16.501Z</time></trkpt><trkpt lat="45.9916148" lon="11.8761884"><ele>501.0</ele><time>2026-04-09T11:10:17.509Z</time></trkpt><trkpt lat="45.9917138" lon="11.8761956"><ele>501.0</ele><time>2026-04-09T11:10:18.512Z</time></trkpt><trkpt lat="45.9918404" lon="11.8762238"><ele>497.20000000000005</ele><time>2026-04-09T11:10:19.499Z</time></trkpt><trkpt lat="45.9919624" lon="11.8762645"><ele>493.40000000000003</ele><time>2026-04-09T11:10:20.52Z</time></trkpt><trkpt lat="45.992085" lon="11.8763113"><ele>489.6</ele><time>2026-04-09T11:10:21.511Z</time></trkpt><trkpt lat="45.992173" lon="11.8763407"><ele>485.8</ele><time>2026-04-09T11:10:22.515Z</time></trkpt><trkpt lat="45.9922628" lon="11.87638"><ele>482.0</ele><time>2026-04-09T11:10:23.514Z</time></trkpt><trkpt lat="45.9923623" lon="11.8763926"><ele>482.0</ele><time>2026-04-09T11:10:24.502Z</time></trkpt><trkpt lat="45.9924703" lon="11.8763709"><ele>482.0</ele><time>2026-04-09T11:10:25.513Z</time></trkpt><trkpt lat="45.9925778" lon="11.8763334"><ele>482.0</ele><time>2026-04-09T11:10:26.522Z</time></trkpt><trkpt lat="45.992687" lon="11.8762914"><ele>482.0</ele><time>2026-04-09T11:10:27.507Z</time></trkpt><trkpt lat="45.9928044" lon="11.8762426"><ele>478.49999999999994</ele><time>2026-04-09T11:10:28.508Z</time></trkpt><trkpt lat="45.9929014" lon="11.8761971"><ele>475.0</ele><time>2026-04-09T11:10:29.508Z</time></trkpt><trkpt lat="45.992989" lon="11.8761596"><ele>471.5</ele><time>2026-04-09T11:10:30.508Z</time></trkpt><trkpt lat="45.9930707" lon="11.8761403"><ele>468.0</ele><time>2026-04-09T11:10:31.506Z</time></trkpt><trkpt lat="45.9931519" lon="11.8761378"><ele>464.49999999999994</ele><time>2026-04-09T11:10:32.507Z</time></trkpt><trkpt lat="45.9932362" lon="11.8761679"><ele>461.0</ele><time>2026-04-09T11:10:33.51Z</time></trkpt><trkpt lat="45.9933077" lon="11.8761985"><ele>455.6</ele><time>2026-04-09T11:10:34.515Z</time></trkpt><trkpt lat="45.9934" lon="11.8762614"><ele>450.20000000000005</ele><time>2026-04-09T11:10:35.518Z</time></trkpt><trkpt lat="45.9934989" lon="11.8763815"><ele>444.79999999999995</ele><time>2026-04-09T11:10:36.511Z</time></trkpt><trkpt lat="45.9935915" lon="11.8764767"><ele>439.4</ele><time>2026-04-09T11:10:37.508Z</time></trkpt><trkpt lat="45.9936728" lon="11.8765319"><ele>434.0</ele><time>2026-04-09T11:10:38.505Z</time></trkpt><trkpt lat="45.9937568" lon="11.8765667"><ele>433.99999999999994</ele><time>2026-04-09T11:10:39.511Z</time></trkpt><trkpt lat="45.9938451" lon="11.8765843"><ele>434.0</ele><time>2026-04-09T11:10:40.506Z</time></trkpt><trkpt lat="45.99393" lon="11.8765628"><ele>434.0</ele><time>2026-04-09T11:10:41.51Z</time></trkpt><trkpt lat="45.9940078" lon="11.8765317"><ele>434.0</ele><time>2026-04-09T11:10:42.515Z</time></trkpt><trkpt lat="45.9940691" lon="11.8764419"><ele>433.99999999999994</ele><time>2026-04-09T11:10:43.516Z</time></trkpt><trkpt lat="45.9941075" lon="11.8763516"><ele>434.0</ele><time>2026-04-09T11:10:44.508Z</time></trkpt><trkpt lat="45.9941306" lon="11.8762354"><ele>434.0</ele><time>2026-04-09T11:10:45.513Z</time></trkpt><trkpt lat="45.9941462" lon="11.8761159"><ele>434.0</ele><time>2026-04-09T11:10:46.512Z</time></trkpt><trkpt lat="45.994161" lon="11.8759913"><ele>434.0</ele><time>2026-04-09T11:10:47.505Z</time></trkpt><trkpt lat="45.9941823" lon="11.8759003"><ele>434.0</ele><time>2026-04-09T11:10:48.501Z</time></trkpt><trkpt lat="45.994289" lon="11.8757485"><ele>434.0</ele><time>2026-04-09T11:10:50.5Z</time></trkpt><trkpt lat="45.9943579" lon="11.8756823"><ele>430.8333333333333</ele><time>2026-04-09T11:10:51.501Z</time></trkpt><trkpt lat="45.9944238" lon="11.8756507"><ele>427.66666666666663</ele><time>2026-04-09T11:10:52.503Z</time></trkpt><trkpt lat="45.9944871" lon="11.8756147"><ele>424.5</ele><time>2026-04-09T11:10:53.515Z</time></trkpt><trkpt lat="45.9945739" lon="11.8756084"><ele>421.33333333333337</ele><time>2026-04-09T11:10:55.51Z</time></trkpt><trkpt lat="45.9946291" lon="11.8756609"><ele>418.1666666666667</ele><time>2026-04-09T11:10:57.518Z</time></trkpt><trkpt lat="45.994699" lon="11.8756842"><ele>415.0</ele><time>2026-04-09T11:11:02.505Z</time></trkpt><trkpt lat="45.9948011" lon="11.8756884"><ele>415.0</ele><time>2026-04-09T11:11:05.537Z</time></trkpt><trkpt lat="45.9948654" lon="11.8757053"><ele>415.0</ele><time>2026-04-09T11:11:06.505Z</time></trkpt><trkpt lat="45.9949323" lon="11.8757521"><ele>415.0</ele><time>2026-04-09T11:11:07.512Z</time></trkpt><trkpt lat="45.9950004" lon="11.8757867"><ele>415.0</ele><time>2026-04-09T11:11:08.505Z</time></trkpt><trkpt lat="45.9950628" lon="11.8758283"><ele>415.0</ele><time>2026-04-09T11:11:09.505Z</time></trkpt><trkpt lat="45.9951258" lon="11.8758579"><ele>415.0</ele><time>2026-04-09T11:11:10.509Z</time></trkpt><trkpt lat="45.9951978" lon="11.8758553"><ele>415.0</ele><time>2026-04-09T11:11:11.511Z</time></trkpt><trkpt lat="45.9952679" lon="11.8758429"><ele>413.00000000000006</ele><time>2026-04-09T11:11:12.502Z</time></trkpt><trkpt lat="45.9953418" lon="11.8758177"><ele>411.0</ele><time>2026-04-09T11:11:13.503Z</time></trkpt><trkpt lat="45.9954134" lon="11.8757935"><ele>409.0</ele><time>2026-04-09T11:11:14.507Z</time></trkpt><trkpt lat="45.9954902" lon="11.8757699"><ele>407.0</ele><time>2026-04-09T11:11:15.511Z</time></trkpt><trkpt lat="45.9955575" lon="11.875741"><ele>405.00000000000006</ele><time>2026-04-09T11:11:16.498Z</time></trkpt><trkpt lat="45.9956296" lon="11.875692"><ele>403.0</ele><time>2026-04-09T11:11:17.499Z</time></trkpt><trkpt lat="45.9956952" lon="11.8756373"><ele>403.00000000000006</ele><time>2026-04-09T11:11:18.515Z</time></trkpt><trkpt lat="45.9958012" lon="11.8755361"><ele>403.0</ele><time>2026-04-09T11:11:20.527Z</time></trkpt><trkpt lat="45.9958479" lon="11.8754583"><ele>403.0</ele><time>2026-04-09T11:11:21.508Z</time></trkpt><trkpt lat="45.9958998" lon="11.8753739"><ele>403.0</ele><time>2026-04-09T11:11:22.513Z</time></trkpt><trkpt lat="45.9959556" lon="11.8753037"><ele>403.00000000000006</ele><time>2026-04-09T11:11:23.504Z</time></trkpt><trkpt lat="45.9960214" lon="11.8752525"><ele>403.0</ele><time>2026-04-09T11:11:24.511Z</time></trkpt><trkpt lat="45.9960949" lon="11.8752003"><ele>401.00000000000006</ele><time>2026-04-09T11:11:25.515Z</time></trkpt><trkpt lat="45.99616" lon="11.8751508"><ele>399.0</ele><time>2026-04-09T11:11:26.505Z</time></trkpt><trkpt lat="45.9962477" lon="11.8750558"><ele>397.0</ele><time>2026-04-09T11:11:28.516Z</time></trkpt><trkpt lat="45.9962856" lon="11.8749617"><ele>395.0</ele><time>2026-04-09T11:11:31.513Z</time></trkpt><trkpt lat="45.996348" lon="11.874927"><ele>393.00000000000006</ele><time>2026-04-09T11:11:33.5Z</time></trkpt><trkpt lat="45.9964105" lon="11.8749158"><ele>391.0</ele><time>2026-04-09T11:11:34.5Z</time></trkpt><trkpt lat="45.996479" lon="11.8749177"><ele>391.00000000000006</ele><time>2026-04-09T11:11:35.533Z</time></trkpt><trkpt lat="45.9965495" lon="11.8749323"><ele>391.0</ele><time>2026-04-09T11:11:36.495Z</time></trkpt><trkpt lat="45.9966163" lon="11.8749643"><ele>391.0</ele><time>2026-04-09T11:11:37.533Z</time></trkpt><trkpt lat="45.9966781" lon="11.8749865"><ele>391.0</ele><time>2026-04-09T11:11:38.512Z</time></trkpt><trkpt lat="45.9967465" lon="11.8750032"><ele>391.00000000000006</ele><time>2026-04-09T11:11:39.507Z</time></trkpt><trkpt lat="45.996815" lon="11.8750178"><ele>391.0</ele><time>2026-04-09T11:11:40.511Z</time></trkpt><trkpt lat="45.9969422" lon="11.8750442"><ele>389.4</ele><time>2026-04-09T11:11:42.508Z</time></trkpt><trkpt lat="45.9970712" lon="11.8750562"><ele>387.8</ele><time>2026-04-09T11:11:44.521Z</time></trkpt><trkpt lat="45.9971434" lon="11.8750681"><ele>386.2</ele><time>2026-04-09T11:11:45.513Z</time></trkpt><trkpt lat="45.9972169" lon="11.8750789"><ele>384.59999999999997</ele><time>2026-04-09T11:11:46.505Z</time></trkpt><trkpt lat="45.9972907" lon="11.8750804"><ele>383.0</ele><time>2026-04-09T11:11:47.515Z</time></trkpt><trkpt lat="45.9974188" lon="11.8750781"><ele>383.0</ele><time>2026-04-09T11:11:49.509Z</time></trkpt><trkpt lat="45.99749" lon="11.8750781"><ele>383.0</ele><time>2026-04-09T11:11:50.517Z</time></trkpt><trkpt lat="45.9975834" lon="11.8750979"><ele>383.0</ele><time>2026-04-09T11:11:52.506Z</time></trkpt><trkpt lat="45.9976601" lon="11.8751241"><ele>383.0</ele><time>2026-04-09T11:11:56.505Z</time></trkpt><trkpt lat="45.9977117" lon="11.8752503"><ele>383.0</ele><time>2026-04-09T11:11:59.5Z</time></trkpt><trkpt lat="45.9977038" lon="11.8753917"><ele>383.0</ele><time>2026-04-09T11:12:01.512Z</time></trkpt><trkpt lat="45.9977096" lon="11.8755258"><ele>383.1666666666667</ele><time>2026-04-09T11:12:03.511Z</time></trkpt><trkpt lat="45.9977153" lon="11.8756167"><ele>383.33333333333337</ele><time>2026-04-09T11:12:04.511Z</time></trkpt><trkpt lat="45.9977294" lon="11.8757155"><ele>383.5</ele><time>2026-04-09T11:12:05.513Z</time></trkpt><trkpt lat="45.9977505" lon="11.8758253"><ele>383.6666666666667</ele><time>2026-04-09T11:12:06.506Z</time></trkpt><trkpt lat="45.9977717" lon="11.8759592"><ele>383.8333333333333</ele><time>2026-04-09T11:12:07.514Z</time></trkpt><trkpt lat="45.9977923" lon="11.876091"><ele>384.0</ele><time>2026-04-09T11:12:08.519Z</time></trkpt><trkpt lat="45.9978183" lon="11.8762231"><ele>385.0</ele><time>2026-04-09T11:12:09.52Z</time></trkpt><trkpt lat="45.9978489" lon="11.8763576"><ele>386.0</ele><time>2026-04-09T11:12:10.514Z</time></trkpt><trkpt lat="45.9978812" lon="11.8764824"><ele>387.0</ele><time>2026-04-09T11:12:11.511Z</time></trkpt><trkpt lat="45.9979125" lon="11.8765887"><ele>388.0</ele><time>2026-04-09T11:12:12.516Z</time></trkpt><trkpt lat="45.9979451" lon="11.8766873"><ele>389.0</ele><time>2026-04-09T11:12:13.501Z</time></trkpt><trkpt lat="45.9979714" lon="11.8767777"><ele>390.0</ele><time>2026-04-09T11:12:14.503Z</time></trkpt><trkpt lat="45.9979953" lon="11.8768637"><ele>390.6</ele><time>2026-04-09T11:12:15.519Z</time></trkpt><trkpt lat="45.9980146" lon="11.8769638"><ele>391.2</ele><time>2026-04-09T11:12:16.502Z</time></trkpt><trkpt lat="45.9980464" lon="11.8770813"><ele>391.79999999999995</ele><time>2026-04-09T11:12:17.517Z</time></trkpt><trkpt lat="45.9980737" lon="11.8772143"><ele>392.4</ele><time>2026-04-09T11:12:18.511Z</time></trkpt><trkpt lat="45.9980917" lon="11.8773519"><ele>393.0</ele><time>2026-04-09T11:12:19.497Z</time></trkpt><trkpt lat="45.9981094" lon="11.8775051"><ele>393.2</ele><time>2026-04-09T11:12:20.508Z</time></trkpt><trkpt lat="45.9981356" lon="11.8776614"><ele>393.4</ele><time>2026-04-09T11:12:21.507Z</time></trkpt><trkpt lat="45.9981381" lon="11.8778001"><ele>393.59999999999997</ele><time>2026-04-09T11:12:22.507Z</time></trkpt><trkpt lat="45.9981655" lon="11.8779484"><ele>393.79999999999995</ele><time>2026-04-09T11:12:23.503Z</time></trkpt><trkpt lat="45.9982035" lon="11.8780958"><ele>394.0</ele><time>2026-04-09T11:12:24.506Z</time></trkpt><trkpt lat="45.9982358" lon="11.8782504"><ele>394.0</ele><time>2026-04-09T11:12:25.512Z</time></trkpt><trkpt lat="45.9982701" lon="11.8784235"><ele>394.0</ele><time>2026-04-09T11:12:26.518Z</time></trkpt><trkpt lat="45.9983109" lon="11.8785926"><ele>394.0</ele><time>2026-04-09T11:12:27.499Z</time></trkpt><trkpt lat="45.9983512" lon="11.8787672"><ele>394.0</ele><time>2026-04-09T11:12:28.507Z</time></trkpt><trkpt lat="45.9983863" lon="11.8789319"><ele>393.6</ele><time>2026-04-09T11:12:29.499Z</time></trkpt><trkpt lat="45.9984257" lon="11.8790814"><ele>393.2</ele><time>2026-04-09T11:12:30.523Z</time></trkpt><trkpt lat="45.9984709" lon="11.8792067"><ele>392.8</ele><time>2026-04-09T11:12:31.504Z</time></trkpt><trkpt lat="45.9985162" lon="11.87932"><ele>392.40000000000003</ele><time>2026-04-09T11:12:32.501Z</time></trkpt><trkpt lat="45.998553" lon="11.8794287"><ele>392.0</ele><time>2026-04-09T11:12:33.514Z</time></trkpt><trkpt lat="45.9985956" lon="11.8795329"><ele>392.0</ele><time>2026-04-09T11:12:34.502Z</time></trkpt><trkpt lat="45.9986526" lon="11.8796364"><ele>392.0</ele><time>2026-04-09T11:12:35.506Z</time></trkpt><trkpt lat="45.9987089" lon="11.8797521"><ele>392.0</ele><time>2026-04-09T11:12:36.517Z</time></trkpt><trkpt lat="45.998802" lon="11.8798711"><ele>392.0</ele><time>2026-04-09T11:12:37.519Z</time></trkpt><trkpt lat="45.9988918" lon="11.8799841"><ele>392.0</ele><time>2026-04-09T11:12:38.51Z</time></trkpt><trkpt lat="45.9990173" lon="11.8801128"><ele>390.3333333333333</ele><time>2026-04-09T11:12:39.504Z</time></trkpt><trkpt lat="45.999143" lon="11.8802384"><ele>388.66666666666663</ele><time>2026-04-09T11:12:40.506Z</time></trkpt><trkpt lat="45.9992736" lon="11.8803628"><ele>387.0</ele><time>2026-04-09T11:12:41.506Z</time></trkpt><trkpt lat="45.9994092" lon="11.8805053"><ele>386.33333333333337</ele><time>2026-04-09T11:12:42.518Z</time></trkpt><trkpt lat="45.9995456" lon="11.8806546"><ele>385.6666666666667</ele><time>2026-04-09T11:12:43.497Z</time></trkpt><trkpt lat="45.9996938" lon="11.8808194"><ele>385.0</ele><time>2026-04-09T11:12:44.501Z</time></trkpt><trkpt lat="45.9998417" lon="11.880975"><ele>385.0</ele><time>2026-04-09T11:12:45.499Z</time></trkpt><trkpt lat="45.9999874" lon="11.88115"><ele>385.0</ele><time>2026-04-09T11:12:46.499Z</time></trkpt><trkpt lat="46.0001217" lon="11.8813082"><ele>385.0</ele><time>2026-04-09T11:12:47.501Z</time></trkpt><trkpt lat="46.0002637" lon="11.8814661"><ele>385.0</ele><time>2026-04-09T11:12:48.51Z</time></trkpt><trkpt lat="46.0004123" lon="11.8816226"><ele>385.0</ele><time>2026-04-09T11:12:49.498Z</time></trkpt><trkpt lat="46.0005539" lon="11.8817844"><ele>385.0</ele><time>2026-04-09T11:12:50.507Z</time></trkpt><trkpt lat="46.0006875" lon="11.8819294"><ele>384.33333333333337</ele><time>2026-04-09T11:12:51.502Z</time></trkpt><trkpt lat="46.0008238" lon="11.8820753"><ele>383.6666666666667</ele><time>2026-04-09T11:12:52.504Z</time></trkpt><trkpt lat="46.0009436" lon="11.882212"><ele>383.0</ele><time>2026-04-09T11:12:53.501Z</time></trkpt><trkpt lat="46.0010638" lon="11.8823264"><ele>383.0</ele><time>2026-04-09T11:12:54.506Z</time></trkpt><trkpt lat="46.0011802" lon="11.8824377"><ele>383.0</ele><time>2026-04-09T11:12:55.499Z</time></trkpt><trkpt lat="46.001302" lon="11.882567"><ele>383.0</ele><time>2026-04-09T11:12:56.498Z</time></trkpt><trkpt lat="46.0014195" lon="11.8827041"><ele>383.0</ele><time>2026-04-09T11:12:57.506Z</time></trkpt><trkpt lat="46.0015121" lon="11.8828575"><ele>383.5</ele><time>2026-04-09T11:12:58.506Z</time></trkpt><trkpt lat="46.0015863" lon="11.8830264"><ele>384.0</ele><time>2026-04-09T11:12:59.512Z</time></trkpt><trkpt lat="46.001612" lon="11.88319"><ele>384.5</ele><time>2026-04-09T11:13:00.498Z</time></trkpt><trkpt lat="46.0016157" lon="11.8833589"><ele>385.0</ele><time>2026-04-09T11:13:01.505Z</time></trkpt><trkpt lat="46.0015928" lon="11.8835314"><ele>384.0</ele><time>2026-04-09T11:13:02.504Z</time></trkpt><trkpt lat="46.0015678" lon="11.8837099"><ele>383.0</ele><time>2026-04-09T11:13:03.508Z</time></trkpt><trkpt lat="46.0015529" lon="11.8838704"><ele>382.0</ele><time>2026-04-09T11:13:04.511Z</time></trkpt><trkpt lat="46.0015603" lon="11.8840359"><ele>381.0</ele><time>2026-04-09T11:13:05.514Z</time></trkpt><trkpt lat="46.0015963" lon="11.884185"><ele>380.25</ele><time>2026-04-09T11:13:06.504Z</time></trkpt><trkpt lat="46.0016653" lon="11.8843242"><ele>379.5</ele><time>2026-04-09T11:13:07.505Z</time></trkpt><trkpt lat="46.0017573" lon="11.884453"><ele>378.75</ele><time>2026-04-09T11:13:08.505Z</time></trkpt><trkpt lat="46.0018582" lon="11.8845795"><ele>378.0</ele><time>2026-04-09T11:13:09.513Z</time></trkpt><trkpt lat="46.0020011" lon="11.8846411"><ele>378.0</ele><time>2026-04-09T11:13:10.513Z</time></trkpt><trkpt lat="46.0021378" lon="11.8846925"><ele>378.0</ele><time>2026-04-09T11:13:11.51Z</time></trkpt><trkpt lat="46.0022747" lon="11.8847415"><ele>378.0</ele><time>2026-04-09T11:13:12.505Z</time></trkpt><trkpt lat="46.0024021" lon="11.8847938"><ele>378.0</ele><time>2026-04-09T11:13:13.518Z</time></trkpt><trkpt lat="46.0025059" lon="11.8848702"><ele>377.75</ele><time>2026-04-09T11:13:14.51Z</time></trkpt><trkpt lat="46.0026" lon="11.8849593"><ele>377.5</ele><time>2026-04-09T11:13:15.501Z</time></trkpt><trkpt lat="46.0026803" lon="11.8850992"><ele>377.25</ele><time>2026-04-09T11:13:16.509Z</time></trkpt><trkpt lat="46.0027284" lon="11.8852958"><ele>377.0</ele><time>2026-04-09T11:13:17.509Z</time></trkpt><trkpt lat="46.0028013" lon="11.8854874"><ele>376.33333333333337</ele><time>2026-04-09T11:13:18.503Z</time></trkpt><trkpt lat="46.0029039" lon="11.885678"><ele>375.6666666666667</ele><time>2026-04-09T11:13:19.514Z</time></trkpt><trkpt lat="46.0030331" lon="11.8858425"><ele>375.0</ele><time>2026-04-09T11:13:20.506Z</time></trkpt><trkpt lat="46.0031495" lon="11.8859997"><ele>374.75</ele><time>2026-04-09T11:13:21.508Z</time></trkpt><trkpt lat="46.0032556" lon="11.8861366"><ele>374.5</ele><time>2026-04-09T11:13:22.505Z</time></trkpt><trkpt lat="46.0033677" lon="11.8862326"><ele>374.25</ele><time>2026-04-09T11:13:23.504Z</time></trkpt><trkpt lat="46.0034841" lon="11.8862748"><ele>374.0</ele><time>2026-04-09T11:13:24.508Z</time></trkpt><trkpt lat="46.0036141" lon="11.8862687"><ele>375.0</ele><time>2026-04-09T11:13:25.506Z</time></trkpt><trkpt lat="46.0037436" lon="11.8862635"><ele>376.0</ele><time>2026-04-09T11:13:26.502Z</time></trkpt><trkpt lat="46.0038596" lon="11.8862643"><ele>377.0</ele><time>2026-04-09T11:13:27.516Z</time></trkpt><trkpt lat="46.0039639" lon="11.8863082"><ele>378.0</ele><time>2026-04-09T11:13:28.519Z</time></trkpt><trkpt lat="46.0040634" lon="11.8864"><ele>378.0</ele><time>2026-04-09T11:13:29.509Z</time></trkpt><trkpt lat="46.0041387" lon="11.8865075"><ele>378.0</ele><time>2026-04-09T11:13:30.503Z</time></trkpt><trkpt lat="46.0041931" lon="11.8866543"><ele>378.0</ele><time>2026-04-09T11:13:31.504Z</time></trkpt><trkpt lat="46.0042341" lon="11.8868274"><ele>378.0</ele><time>2026-04-09T11:13:32.508Z</time></trkpt><trkpt lat="46.0042735" lon="11.8870042"><ele>378.0</ele><time>2026-04-09T11:13:33.517Z</time></trkpt><trkpt lat="46.0043119" lon="11.887182"><ele>378.0</ele><time>2026-04-09T11:13:34.512Z</time></trkpt><trkpt lat="46.0043536" lon="11.8873504"><ele>378.0</ele><time>2026-04-09T11:13:35.512Z</time></trkpt><trkpt lat="46.0043934" lon="11.8875102"><ele>378.0</ele><time>2026-04-09T11:13:36.508Z</time></trkpt><trkpt lat="46.0044329" lon="11.8876725"><ele>378.0</ele><time>2026-04-09T11:13:37.518Z</time></trkpt><trkpt lat="46.0044563" lon="11.8878547"><ele>378.0</ele><time>2026-04-09T11:13:38.506Z</time></trkpt><trkpt lat="46.0044717" lon="11.8880572"><ele>378.0</ele><time>2026-04-09T11:13:39.504Z</time></trkpt><trkpt lat="46.0044791" lon="11.8882706"><ele>378.0</ele><time>2026-04-09T11:13:40.508Z</time></trkpt><trkpt lat="46.0045037" lon="11.8884758"><ele>377.25</ele><time>2026-04-09T11:13:41.518Z</time></trkpt><trkpt lat="46.0045389" lon="11.8886784"><ele>376.5</ele><time>2026-04-09T11:13:42.507Z</time></trkpt><trkpt lat="46.0045876" lon="11.888878"><ele>375.75</ele><time>2026-04-09T11:13:43.503Z</time></trkpt><trkpt lat="46.004637" lon="11.889084"><ele>375.0</ele><time>2026-04-09T11:13:44.507Z</time></trkpt><trkpt lat="46.0046695" lon="11.8892881"><ele>373.75</ele><time>2026-04-09T11:13:45.512Z</time></trkpt><trkpt lat="46.004696" lon="11.8894879"><ele>372.5</ele><time>2026-04-09T11:13:46.499Z</time></trkpt><trkpt lat="46.0047207" lon="11.8896811"><ele>371.25</ele><time>2026-04-09T11:13:47.513Z</time></trkpt><trkpt lat="46.0047422" lon="11.8898771"><ele>370.0</ele><time>2026-04-09T11:13:48.499Z</time></trkpt><trkpt lat="46.0047634" lon="11.8900527"><ele>368.75</ele><time>2026-04-09T11:13:49.499Z</time></trkpt><trkpt lat="46.0047874" lon="11.8902329"><ele>367.5</ele><time>2026-04-09T11:13:50.502Z</time></trkpt><trkpt lat="46.0048097" lon="11.8904069"><ele>366.25</ele><time>2026-04-09T11:13:51.516Z</time></trkpt><trkpt lat="46.0048265" lon="11.8905905"><ele>365.0</ele><time>2026-04-09T11:13:52.506Z</time></trkpt><trkpt lat="46.0048348" lon="11.8907857"><ele>364.0</ele><time>2026-04-09T11:13:53.504Z</time></trkpt><trkpt lat="46.004833" lon="11.8909891"><ele>363.0</ele><time>2026-04-09T11:13:54.509Z</time></trkpt><trkpt lat="46.0048432" lon="11.8911902"><ele>362.0</ele><time>2026-04-09T11:13:55.511Z</time></trkpt><trkpt lat="46.004856" lon="11.8914133"><ele>361.0</ele><time>2026-04-09T11:13:56.508Z</time></trkpt><trkpt lat="46.0048873" lon="11.8916344"><ele>361.0</ele><time>2026-04-09T11:13:57.515Z</time></trkpt><trkpt lat="46.004922" lon="11.8918563"><ele>361.0</ele><time>2026-04-09T11:13:58.509Z</time></trkpt><trkpt lat="46.0049613" lon="11.8920728"><ele>361.0</ele><time>2026-04-09T11:13:59.506Z</time></trkpt><trkpt lat="46.0049914" lon="11.8922904"><ele>360.75</ele><time>2026-04-09T11:14:00.503Z</time></trkpt><trkpt lat="46.0050121" lon="11.8925039"><ele>360.5</ele><time>2026-04-09T11:14:01.506Z</time></trkpt><trkpt lat="46.0050199" lon="11.8927166"><ele>360.25</ele><time>2026-04-09T11:14:02.509Z</time></trkpt><trkpt lat="46.0050194" lon="11.8929179"><ele>360.0</ele><time>2026-04-09T11:14:03.522Z</time></trkpt><trkpt lat="46.0050178" lon="11.8931341"><ele>360.0</ele><time>2026-04-09T11:14:04.511Z</time></trkpt><trkpt lat="46.0050104" lon="11.8933378"><ele>360.0</ele><time>2026-04-09T11:14:05.506Z</time></trkpt><trkpt lat="46.0050026" lon="11.8935069"><ele>360.0</ele><time>2026-04-09T11:14:06.511Z</time></trkpt><trkpt lat="46.0049953" lon="11.8936765"><ele>360.0</ele><time>2026-04-09T11:14:07.506Z</time></trkpt><trkpt lat="46.0049934" lon="11.8938245"><ele>359.8333333333333</ele><time>2026-04-09T11:14:08.51Z</time></trkpt><trkpt lat="46.0049895" lon="11.8939615"><ele>359.6666666666667</ele><time>2026-04-09T11:14:09.509Z</time></trkpt><trkpt lat="46.0050971" lon="11.8940481"><ele>359.5</ele><time>2026-04-09T11:14:14.51Z</time></trkpt><trkpt lat="46.0051782" lon="11.8940291"><ele>359.33333333333337</ele><time>2026-04-09T11:14:15.501Z</time></trkpt><trkpt lat="46.0052554" lon="11.8940313"><ele>359.1666666666667</ele><time>2026-04-09T11:14:16.502Z</time></trkpt><trkpt lat="46.0053241" lon="11.8940475"><ele>359.0</ele><time>2026-04-09T11:14:17.517Z</time></trkpt><trkpt lat="46.0053896" lon="11.8940811"><ele>359.0</ele><time>2026-04-09T11:14:18.505Z</time></trkpt><trkpt lat="46.0054948" lon="11.8941792"><ele>359.0</ele><time>2026-04-09T11:14:19.507Z</time></trkpt><trkpt lat="46.0055696" lon="11.8942955"><ele>359.0</ele><time>2026-04-09T11:14:20.504Z</time></trkpt><trkpt lat="46.0056631" lon="11.8943936"><ele>359.0</ele><time>2026-04-09T11:14:21.515Z</time></trkpt><trkpt lat="46.0057252" lon="11.8945172"><ele>358.75</ele><time>2026-04-09T11:14:22.512Z</time></trkpt><trkpt lat="46.0057827" lon="11.8946698"><ele>358.5</ele><time>2026-04-09T11:14:23.513Z</time></trkpt><trkpt lat="46.005831" lon="11.8948383"><ele>358.25</ele><time>2026-04-09T11:14:24.508Z</time></trkpt><trkpt lat="46.0058868" lon="11.8950108"><ele>358.0</ele><time>2026-04-09T11:14:25.508Z</time></trkpt><trkpt lat="46.0059405" lon="11.8951821"><ele>355.75</ele><time>2026-04-09T11:14:26.506Z</time></trkpt><trkpt lat="46.0059842" lon="11.8953582"><ele>353.5</ele><time>2026-04-09T11:14:27.514Z</time></trkpt><trkpt lat="46.0060388" lon="11.8955358"><ele>351.25</ele><time>2026-04-09T11:14:28.509Z</time></trkpt><trkpt lat="46.0061082" lon="11.8957209"><ele>349.0</ele><time>2026-04-09T11:14:29.504Z</time></trkpt><trkpt lat="46.0061781" lon="11.8958776"><ele>347.79999999999995</ele><time>2026-04-09T11:14:30.502Z</time></trkpt><trkpt lat="46.0062408" lon="11.8960296"><ele>346.59999999999997</ele><time>2026-04-09T11:14:31.502Z</time></trkpt><trkpt lat="46.0063143" lon="11.8961694"><ele>345.4</ele><time>2026-04-09T11:14:32.511Z</time></trkpt><trkpt lat="46.0063816" lon="11.8962834"><ele>344.2</ele><time>2026-04-09T11:14:33.502Z</time></trkpt><trkpt lat="46.0064609" lon="11.8963548"><ele>343.0</ele><time>2026-04-09T11:14:34.498Z</time></trkpt><trkpt lat="46.0065318" lon="11.89643"><ele>343.0</ele><time>2026-04-09T11:14:35.51Z</time></trkpt><trkpt lat="46.0066276" lon="11.8964862"><ele>343.0</ele><time>2026-04-09T11:14:36.506Z</time></trkpt><trkpt lat="46.0067376" lon="11.896478"><ele>343.0</ele><time>2026-04-09T11:14:37.506Z</time></trkpt><trkpt lat="46.0068353" lon="11.8964708"><ele>343.0</ele><time>2026-04-09T11:14:38.518Z</time></trkpt><trkpt lat="46.0069537" lon="11.8964121"><ele>343.0</ele><time>2026-04-09T11:14:39.52Z</time></trkpt><trkpt lat="46.007076" lon="11.8963461"><ele>343.0</ele><time>2026-04-09T11:14:40.505Z</time></trkpt><trkpt lat="46.0071532" lon="11.8962946"><ele>343.0</ele><time>2026-04-09T11:14:41.509Z</time></trkpt><trkpt lat="46.0072677" lon="11.8962715"><ele>343.0</ele><time>2026-04-09T11:14:42.512Z</time></trkpt><trkpt lat="46.0073539" lon="11.8962889"><ele>343.0</ele><time>2026-04-09T11:14:43.508Z</time></trkpt><trkpt lat="46.007408" lon="11.8963751"><ele>343.0</ele><time>2026-04-09T11:14:44.502Z</time></trkpt><trkpt lat="46.0074471" lon="11.8964612"><ele>343.0</ele><time>2026-04-09T11:14:45.501Z</time></trkpt><trkpt lat="46.007484" lon="11.8965975"><ele>341.59999999999997</ele><time>2026-04-09T11:14:46.51Z</time></trkpt><trkpt lat="46.0075162" lon="11.896754"><ele>340.2</ele><time>2026-04-09T11:14:47.499Z</time></trkpt><trkpt lat="46.0075324" lon="11.89689"><ele>338.8</ele><time>2026-04-09T11:14:48.503Z</time></trkpt><trkpt lat="46.0075373" lon="11.8970195"><ele>337.4</ele><time>2026-04-09T11:14:49.5Z</time></trkpt><trkpt lat="46.0075144" lon="11.8971436"><ele>336.0</ele><time>2026-04-09T11:14:50.509Z</time></trkpt><trkpt lat="46.0074778" lon="11.897249"><ele>336.0</ele><time>2026-04-09T11:14:51.517Z</time></trkpt><trkpt lat="46.0074215" lon="11.897351"><ele>336.0</ele><time>2026-04-09T11:14:52.509Z</time></trkpt><trkpt lat="46.0073018" lon="11.8974927"><ele>336.0</ele><time>2026-04-09T11:14:53.514Z</time></trkpt><trkpt lat="46.0072194" lon="11.8976198"><ele>336.0</ele><time>2026-04-09T11:14:54.504Z</time></trkpt><trkpt lat="46.0071573" lon="11.8977756"><ele>334.8</ele><time>2026-04-09T11:14:55.513Z</time></trkpt><trkpt lat="46.0071351" lon="11.8979326"><ele>333.6</ele><time>2026-04-09T11:14:56.507Z</time></trkpt><trkpt lat="46.0071313" lon="11.8981039"><ele>332.4</ele><time>2026-04-09T11:14:57.507Z</time></trkpt><trkpt lat="46.007156" lon="11.8982461"><ele>331.2</ele><time>2026-04-09T11:14:58.502Z</time></trkpt><trkpt lat="46.0071909" lon="11.898398"><ele>330.0</ele><time>2026-04-09T11:14:59.508Z</time></trkpt><trkpt lat="46.0072383" lon="11.8984886"><ele>329.2</ele><time>2026-04-09T11:15:00.507Z</time></trkpt><trkpt lat="46.0072973" lon="11.8985725"><ele>328.4</ele><time>2026-04-09T11:15:01.508Z</time></trkpt><trkpt lat="46.007388" lon="11.8986204"><ele>327.6</ele><time>2026-04-09T11:15:02.513Z</time></trkpt><trkpt lat="46.0074733" lon="11.8986403"><ele>326.8</ele><time>2026-04-09T11:15:03.507Z</time></trkpt><trkpt lat="46.0075548" lon="11.8986013"><ele>326.0</ele><time>2026-04-09T11:15:04.507Z</time></trkpt><trkpt lat="46.0076569" lon="11.8985523"><ele>324.6666666666667</ele><time>2026-04-09T11:15:05.515Z</time></trkpt><trkpt lat="46.0078517" lon="11.8984876"><ele>323.3333333333333</ele><time>2026-04-09T11:15:06.511Z</time></trkpt><trkpt lat="46.0080489" lon="11.8983583"><ele>322.0</ele><time>2026-04-09T11:15:07.508Z</time></trkpt><trkpt lat="46.0081682" lon="11.8982217"><ele>322.0</ele><time>2026-04-09T11:15:08.505Z</time></trkpt><trkpt lat="46.0082586" lon="11.8980313"><ele>322.0</ele><time>2026-04-09T11:15:09.509Z</time></trkpt><trkpt lat="46.0083355" lon="11.8978342"><ele>322.0</ele><time>2026-04-09T11:15:10.508Z</time></trkpt><trkpt lat="46.0083801" lon="11.8975788"><ele>320.66666666666663</ele><time>2026-04-09T11:15:11.499Z</time></trkpt><trkpt lat="46.008429" lon="11.8974295"><ele>319.3333333333333</ele><time>2026-04-09T11:15:12.5Z</time></trkpt><trkpt lat="46.0085968" lon="11.8972312"><ele>318.0</ele><time>2026-04-09T11:15:14.507Z</time></trkpt><trkpt lat="46.0087573" lon="11.8972191"><ele>318.0</ele><time>2026-04-09T11:15:16.538Z</time></trkpt><trkpt lat="46.0089368" lon="11.897405"><ele>318.0</ele><time>2026-04-09T11:15:17.511Z</time></trkpt><trkpt lat="46.009071" lon="11.8975623"><ele>318.0</ele><time>2026-04-09T11:15:18.502Z</time></trkpt><trkpt lat="46.0091847" lon="11.8977107"><ele>311.3333333333333</ele><time>2026-04-09T11:15:19.508Z</time></trkpt><trkpt lat="46.0093229" lon="11.8978834"><ele>304.66666666666663</ele><time>2026-04-09T11:15:20.514Z</time></trkpt><trkpt lat="46.0094577" lon="11.8980129"><ele>298.0</ele><time>2026-04-09T11:15:21.504Z</time></trkpt><trkpt lat="46.0095686" lon="11.898159"><ele>298.0</ele><time>2026-04-09T11:15:22.529Z</time></trkpt><trkpt lat="46.0096717" lon="11.8983054"><ele>298.0</ele><time>2026-04-09T11:15:23.504Z</time></trkpt><trkpt lat="46.0097815" lon="11.8984399"><ele>298.0</ele><time>2026-04-09T11:15:24.513Z</time></trkpt><trkpt lat="46.0098654" lon="11.8985743"><ele>298.0</ele><time>2026-04-09T11:15:25.517Z</time></trkpt><trkpt lat="46.0099571" lon="11.8986887"><ele>296.6</ele><time>2026-04-09T11:15:26.503Z</time></trkpt><trkpt lat="46.010028" lon="11.8988024"><ele>295.20000000000005</ele><time>2026-04-09T11:15:27.508Z</time></trkpt><trkpt lat="46.0100565" lon="11.8989219"><ele>293.8</ele><time>2026-04-09T11:15:28.503Z</time></trkpt><trkpt lat="46.0100354" lon="11.8990297"><ele>292.40000000000003</ele><time>2026-04-09T11:15:29.5Z</time></trkpt><trkpt lat="46.0099656" lon="11.8991478"><ele>291.0</ele><time>2026-04-09T11:15:30.522Z</time></trkpt><trkpt lat="46.0099153" lon="11.8992351"><ele>289.40000000000003</ele><time>2026-04-09T11:15:31.509Z</time></trkpt><trkpt lat="46.009881" lon="11.8993254"><ele>287.8</ele><time>2026-04-09T11:15:32.502Z</time></trkpt><trkpt lat="46.0097883" lon="11.8994259"><ele>286.20000000000005</ele><time>2026-04-09T11:15:34.507Z</time></trkpt><trkpt lat="46.0097377" lon="11.8995295"><ele>284.6</ele><time>2026-04-09T11:15:36.51Z</time></trkpt><trkpt lat="46.00975" lon="11.8996283"><ele>283.0</ele><time>2026-04-09T11:15:40.506Z</time></trkpt><trkpt lat="46.009849" lon="11.8997159"><ele>283.0</ele><time>2026-04-09T11:15:42.51Z</time></trkpt><trkpt lat="46.0099348" lon="11.8997688"><ele>283.0</ele><time>2026-04-09T11:15:43.515Z</time></trkpt><trkpt lat="46.0100378" lon="11.8998062"><ele>283.0</ele><time>2026-04-09T11:15:44.507Z</time></trkpt><trkpt lat="46.0101378" lon="11.8998223"><ele>283.0</ele><time>2026-04-09T11:15:45.502Z</time></trkpt><trkpt lat="46.0102376" lon="11.8998264"><ele>283.0</ele><time>2026-04-09T11:15:46.509Z</time></trkpt><trkpt lat="46.0103277" lon="11.8997822"><ele>281.4</ele><time>2026-04-09T11:15:47.509Z</time></trkpt><trkpt lat="46.0104214" lon="11.8997366"><ele>279.8</ele><time>2026-04-09T11:15:48.502Z</time></trkpt><trkpt lat="46.0105155" lon="11.899663"><ele>278.2</ele><time>2026-04-09T11:15:49.514Z</time></trkpt><trkpt lat="46.0106191" lon="11.8996027"><ele>276.6</ele><time>2026-04-09T11:15:50.512Z</time></trkpt><trkpt lat="46.0107209" lon="11.899538"><ele>275.0</ele><time>2026-04-09T11:15:51.506Z</time></trkpt><trkpt lat="46.0108169" lon="11.8994558"><ele>274.5</ele><time>2026-04-09T11:15:52.497Z</time></trkpt><trkpt lat="46.0109018" lon="11.8993863"><ele>274.0</ele><time>2026-04-09T11:15:53.504Z</time></trkpt><trkpt lat="46.0109949" lon="11.8993346"><ele>273.5</ele><time>2026-04-09T11:15:54.518Z</time></trkpt><trkpt lat="46.0110674" lon="11.8993195"><ele>273.0</ele><time>2026-04-09T11:15:55.509Z</time></trkpt><trkpt lat="46.0111593" lon="11.8993375"><ele>272.5</ele><time>2026-04-09T11:15:56.505Z</time></trkpt><trkpt lat="46.0112202" lon="11.899385"><ele>272.0</ele><time>2026-04-09T11:15:57.51Z</time></trkpt><trkpt lat="46.0112732" lon="11.8995418"><ele>272.0</ele><time>2026-04-09T11:15:58.504Z</time></trkpt><trkpt lat="46.0113468" lon="11.8997148"><ele>272.0</ele><time>2026-04-09T11:15:59.505Z</time></trkpt><trkpt lat="46.0114016" lon="11.8998834"><ele>272.0</ele><time>2026-04-09T11:16:00.509Z</time></trkpt><trkpt lat="46.0114609" lon="11.9000457"><ele>272.0</ele><time>2026-04-09T11:16:01.506Z</time></trkpt><trkpt lat="46.0115124" lon="11.900184"><ele>270.4</ele><time>2026-04-09T11:16:02.502Z</time></trkpt><trkpt lat="46.0115656" lon="11.9002716"><ele>268.79999999999995</ele><time>2026-04-09T11:16:03.508Z</time></trkpt><trkpt lat="46.0116331" lon="11.9003301"><ele>267.2</ele><time>2026-04-09T11:16:04.513Z</time></trkpt><trkpt lat="46.0117031" lon="11.9003404"><ele>265.59999999999997</ele><time>2026-04-09T11:16:05.511Z</time></trkpt><trkpt lat="46.011834" lon="11.9002331"><ele>264.0</ele><time>2026-04-09T11:16:07.504Z</time></trkpt><trkpt lat="46.0119106" lon="11.9001483"><ele>264.2</ele><time>2026-04-09T11:16:08.51Z</time></trkpt><trkpt lat="46.0119782" lon="11.8999689"><ele>264.4</ele><time>2026-04-09T11:16:09.509Z</time></trkpt><trkpt lat="46.0120382" lon="11.8998456"><ele>264.6</ele><time>2026-04-09T11:16:10.503Z</time></trkpt><trkpt lat="46.0120989" lon="11.8997805"><ele>264.8</ele><time>2026-04-09T11:16:11.505Z</time></trkpt><trkpt lat="46.0121641" lon="11.899734"><ele>265.0</ele><time>2026-04-09T11:16:12.51Z</time></trkpt><trkpt lat="46.0123458" lon="11.8997836"><ele>265.0</ele><time>2026-04-09T11:16:14.516Z</time></trkpt><trkpt lat="46.0124685" lon="11.899823"><ele>265.0</ele><time>2026-04-09T11:16:15.506Z</time></trkpt><trkpt lat="46.0125801" lon="11.8998571"><ele>265.0</ele><time>2026-04-09T11:16:16.507Z</time></trkpt><trkpt lat="46.0126869" lon="11.8998707"><ele>265.0</ele><time>2026-04-09T11:16:17.508Z</time></trkpt><trkpt lat="46.0128113" lon="11.8998891"><ele>263.75</ele><time>2026-04-09T11:16:18.509Z</time></trkpt><trkpt lat="46.0129225" lon="11.8998877"><ele>262.5</ele><time>2026-04-09T11:16:19.51Z</time></trkpt><trkpt lat="46.0130445" lon="11.8998974"><ele>261.25</ele><time>2026-04-09T11:16:20.514Z</time></trkpt><trkpt lat="46.0131478" lon="11.899865"><ele>260.0</ele><time>2026-04-09T11:16:21.506Z</time></trkpt><trkpt lat="46.0132636" lon="11.8998473"><ele>260.0</ele><time>2026-04-09T11:16:22.503Z</time></trkpt><trkpt lat="46.0133765" lon="11.8998128"><ele>260.0</ele><time>2026-04-09T11:16:23.511Z</time></trkpt><trkpt lat="46.0134978" lon="11.8997887"><ele>260.0</ele><time>2026-04-09T11:16:24.511Z</time></trkpt><trkpt lat="46.0136277" lon="11.8997895"><ele>260.0</ele><time>2026-04-09T11:16:25.515Z</time></trkpt><trkpt lat="46.0137523" lon="11.8997963"><ele>260.0</ele><time>2026-04-09T11:16:26.519Z</time></trkpt><trkpt lat="46.0138814" lon="11.8998071"><ele>260.0</ele><time>2026-04-09T11:16:27.507Z</time></trkpt><trkpt lat="46.014012" lon="11.8998093"><ele>260.0</ele><time>2026-04-09T11:16:28.507Z</time></trkpt><trkpt lat="46.0141379" lon="11.8998135"><ele>260.0</ele><time>2026-04-09T11:16:29.51Z</time></trkpt><trkpt lat="46.0142588" lon="11.8998196"><ele>260.2</ele><time>2026-04-09T11:16:30.511Z</time></trkpt><trkpt lat="46.0143774" lon="11.8998172"><ele>260.4</ele><time>2026-04-09T11:16:31.498Z</time></trkpt><trkpt lat="46.0145008" lon="11.8998428"><ele>260.6</ele><time>2026-04-09T11:16:32.499Z</time></trkpt><trkpt lat="46.0146053" lon="11.8998652"><ele>260.8</ele><time>2026-04-09T11:16:33.506Z</time></trkpt><trkpt lat="46.0146939" lon="11.8998987"><ele>261.0</ele><time>2026-04-09T11:16:34.513Z</time></trkpt><trkpt lat="46.014777" lon="11.8999242"><ele>261.0</ele><time>2026-04-09T11:16:35.51Z</time></trkpt><trkpt lat="46.0148575" lon="11.89996"><ele>261.0</ele><time>2026-04-09T11:16:36.505Z</time></trkpt><trkpt lat="46.0149273" lon="11.8999886"><ele>261.0</ele><time>2026-04-09T11:16:37.507Z</time></trkpt><trkpt lat="46.0150161" lon="11.900065"><ele>261.0</ele><time>2026-04-09T11:16:39.522Z</time></trkpt><trkpt lat="46.0151081" lon="11.9001573"><ele>261.0</ele><time>2026-04-09T11:16:41.51Z</time></trkpt><trkpt lat="46.0151897" lon="11.9001555"><ele>261.2</ele><time>2026-04-09T11:16:42.508Z</time></trkpt><trkpt lat="46.0152781" lon="11.9001102"><ele>261.40000000000003</ele><time>2026-04-09T11:16:43.501Z</time></trkpt><trkpt lat="46.0153091" lon="11.9000274"><ele>261.6</ele><time>2026-04-09T11:16:44.504Z</time></trkpt><trkpt lat="46.0153523" lon="11.8999533"><ele>261.8</ele><time>2026-04-09T11:16:45.522Z</time></trkpt><trkpt lat="46.0154784" lon="11.8998605"><ele>262.0</ele><time>2026-04-09T11:16:47.514Z</time></trkpt><trkpt lat="46.0155898" lon="11.8998443"><ele>262.0</ele><time>2026-04-09T11:16:48.504Z</time></trkpt><trkpt lat="46.0156937" lon="11.8998416"><ele>262.0</ele><time>2026-04-09T11:16:49.505Z</time></trkpt><trkpt lat="46.0158001" lon="11.8998336"><ele>262.0</ele><time>2026-04-09T11:16:50.508Z</time></trkpt><trkpt lat="46.015905" lon="11.8998393"><ele>262.0</ele><time>2026-04-09T11:16:51.513Z</time></trkpt><trkpt lat="46.0160105" lon="11.8998471"><ele>262.0</ele><time>2026-04-09T11:16:52.511Z</time></trkpt><trkpt lat="46.0161246" lon="11.8998566"><ele>262.25</ele><time>2026-04-09T11:16:53.502Z</time></trkpt><trkpt lat="46.0162383" lon="11.8998708"><ele>262.5</ele><time>2026-04-09T11:16:54.509Z</time></trkpt><trkpt lat="46.0163501" lon="11.8998953"><ele>262.75</ele><time>2026-04-09T11:16:55.502Z</time></trkpt><trkpt lat="46.0164657" lon="11.8999364"><ele>263.0</ele><time>2026-04-09T11:16:56.511Z</time></trkpt><trkpt lat="46.0165699" lon="11.8999839"><ele>263.75</ele><time>2026-04-09T11:16:57.508Z</time></trkpt><trkpt lat="46.0166661" lon="11.9000523"><ele>264.5</ele><time>2026-04-09T11:16:58.514Z</time></trkpt><trkpt lat="46.0167691" lon="11.9001381"><ele>265.25</ele><time>2026-04-09T11:16:59.505Z</time></trkpt><trkpt lat="46.0168618" lon="11.9002119"><ele>266.0</ele><time>2026-04-09T11:17:00.505Z</time></trkpt><trkpt lat="46.0169666" lon="11.9003099"><ele>266.0</ele><time>2026-04-09T11:17:01.505Z</time></trkpt><trkpt lat="46.0170514" lon="11.9003772"><ele>266.0</ele><time>2026-04-09T11:17:02.504Z</time></trkpt><trkpt lat="46.0171255" lon="11.9004201"><ele>266.0</ele><time>2026-04-09T11:17:03.506Z</time></trkpt><trkpt lat="46.0172065" lon="11.9004628"><ele>266.0</ele><time>2026-04-09T11:17:04.51Z</time></trkpt><trkpt lat="46.0172748" lon="11.9005051"><ele>266.0</ele><time>2026-04-09T11:17:05.513Z</time></trkpt><trkpt lat="46.01733" lon="11.9005506"><ele>266.0</ele><time>2026-04-09T11:17:06.512Z</time></trkpt><trkpt lat="46.0174431" lon="11.9006359"><ele>266.40000000000003</ele><time>2026-04-09T11:17:08.498Z</time></trkpt><trkpt lat="46.017517" lon="11.9006439"><ele>266.8</ele><time>2026-04-09T11:17:09.507Z</time></trkpt><trkpt lat="46.0176012" lon="11.9006554"><ele>267.20000000000005</ele><time>2026-04-09T11:17:10.502Z</time></trkpt><trkpt lat="46.0177005" lon="11.9005889"><ele>267.6</ele><time>2026-04-09T11:17:12.5Z</time></trkpt><trkpt lat="46.0177914" lon="11.9005363"><ele>268.0</ele><time>2026-04-09T11:17:15.504Z</time></trkpt><trkpt lat="46.0178698" lon="11.90043"><ele>268.0</ele><time>2026-04-09T11:17:17.518Z</time></trkpt><trkpt lat="46.0179215" lon="11.9003706"><ele>268.0</ele><time>2026-04-09T11:17:18.502Z</time></trkpt><trkpt lat="46.0179715" lon="11.9002992"><ele>268.0</ele><time>2026-04-09T11:17:19.512Z</time></trkpt><trkpt lat="46.0180177" lon="11.9002166"><ele>268.0</ele><time>2026-04-09T11:17:20.504Z</time></trkpt><trkpt lat="46.0180647" lon="11.9001443"><ele>268.0</ele><time>2026-04-09T11:17:21.502Z</time></trkpt><trkpt lat="46.0181167" lon="11.9000629"><ele>268.0</ele><time>2026-04-09T11:17:22.509Z</time></trkpt><trkpt lat="46.0181639" lon="11.8999571"><ele>268.0</ele><time>2026-04-09T11:17:23.508Z</time></trkpt><trkpt lat="46.018221" lon="11.8998537"><ele>268.3333333333333</ele><time>2026-04-09T11:17:24.507Z</time></trkpt><trkpt lat="46.0182841" lon="11.8997609"><ele>268.66666666666663</ele><time>2026-04-09T11:17:25.504Z</time></trkpt><trkpt lat="46.0183269" lon="11.8996534"><ele>269.0</ele><time>2026-04-09T11:17:26.513Z</time></trkpt><trkpt lat="46.0183786" lon="11.8995632"><ele>269.3333333333333</ele><time>2026-04-09T11:17:27.503Z</time></trkpt><trkpt lat="46.0184211" lon="11.8994786"><ele>269.6666666666667</ele><time>2026-04-09T11:17:28.507Z</time></trkpt><trkpt lat="46.0184616" lon="11.8993988"><ele>270.0</ele><time>2026-04-09T11:17:29.505Z</time></trkpt><trkpt lat="46.0185663" lon="11.899203"><ele>270.0</ele><time>2026-04-09T11:17:31.503Z</time></trkpt><trkpt lat="46.0186693" lon="11.899059"><ele>270.0</ele><time>2026-04-09T11:17:32.513Z</time></trkpt><trkpt lat="46.0187838" lon="11.89891"><ele>270.0</ele><time>2026-04-09T11:17:33.506Z</time></trkpt><trkpt lat="46.0188765" lon="11.8987381"><ele>270.0</ele><time>2026-04-09T11:17:34.508Z</time></trkpt><trkpt lat="46.0189718" lon="11.8985616"><ele>270.3333333333333</ele><time>2026-04-09T11:17:35.507Z</time></trkpt><trkpt lat="46.0190433" lon="11.8983625"><ele>270.66666666666663</ele><time>2026-04-09T11:17:36.513Z</time></trkpt><trkpt lat="46.0190842" lon="11.8981028"><ele>271.0</ele><time>2026-04-09T11:17:37.506Z</time></trkpt><trkpt lat="46.019139" lon="11.8978395"><ele>272.0</ele><time>2026-04-09T11:17:38.506Z</time></trkpt><trkpt lat="46.0191911" lon="11.897581"><ele>273.0</ele><time>2026-04-09T11:17:39.5Z</time></trkpt><trkpt lat="46.019235" lon="11.897332"><ele>274.0</ele><time>2026-04-09T11:17:40.512Z</time></trkpt><trkpt lat="46.0192855" lon="11.897101"><ele>274.0</ele><time>2026-04-09T11:17:41.499Z</time></trkpt><trkpt lat="46.0193229" lon="11.8968957"><ele>274.0</ele><time>2026-04-09T11:17:42.518Z</time></trkpt><trkpt lat="46.0193593" lon="11.8966886"><ele>274.0</ele><time>2026-04-09T11:17:43.505Z</time></trkpt><trkpt lat="46.0193826" lon="11.8965083"><ele>274.0</ele><time>2026-04-09T11:17:44.517Z</time></trkpt><trkpt lat="46.0193996" lon="11.896337"><ele>274.0</ele><time>2026-04-09T11:17:45.513Z</time></trkpt><trkpt lat="46.019426" lon="11.8961666"><ele>274.0</ele><time>2026-04-09T11:17:46.539Z</time></trkpt><trkpt lat="46.0194452" lon="11.8960065"><ele>274.0</ele><time>2026-04-09T11:17:47.514Z</time></trkpt><trkpt lat="46.0194698" lon="11.895861"><ele>274.0</ele><time>2026-04-09T11:17:48.528Z</time></trkpt><trkpt lat="46.0195487" lon="11.8957857"><ele>274.0</ele><time>2026-04-09T11:17:50.515Z</time></trkpt><trkpt lat="46.0196154" lon="11.8957361"><ele>274.0</ele><time>2026-04-09T11:17:51.521Z</time></trkpt><trkpt lat="46.0196845" lon="11.8957537"><ele>274.0</ele><time>2026-04-09T11:17:52.51Z</time></trkpt><trkpt lat="46.0197792" lon="11.8958062"><ele>274.0</ele><time>2026-04-09T11:17:53.501Z</time></trkpt><trkpt lat="46.019857" lon="11.8958952"><ele>274.0</ele><time>2026-04-09T11:17:54.508Z</time></trkpt><trkpt lat="46.0199202" lon="11.8959992"><ele>274.0</ele><time>2026-04-09T11:17:55.505Z</time></trkpt><trkpt lat="46.0199723" lon="11.8961288"><ele>274.2</ele><time>2026-04-09T11:17:56.495Z</time></trkpt><trkpt lat="46.020025" lon="11.896284"><ele>274.4</ele><time>2026-04-09T11:17:57.502Z</time></trkpt><trkpt lat="46.0200535" lon="11.896427"><ele>274.6</ele><time>2026-04-09T11:17:58.511Z</time></trkpt><trkpt lat="46.0200868" lon="11.8965594"><ele>274.8</ele><time>2026-04-09T11:17:59.519Z</time></trkpt><trkpt lat="46.0201309" lon="11.8967045"><ele>275.0</ele><time>2026-04-09T11:18:00.503Z</time></trkpt><trkpt lat="46.0201783" lon="11.8968667"><ele>275.0</ele><time>2026-04-09T11:18:01.513Z</time></trkpt><trkpt lat="46.0202228" lon="11.897052"><ele>275.0</ele><time>2026-04-09T11:18:02.514Z</time></trkpt><trkpt lat="46.0202703" lon="11.8972089"><ele>275.0</ele><time>2026-04-09T11:18:03.512Z</time></trkpt><trkpt lat="46.0203052" lon="11.8973634"><ele>275.0</ele><time>2026-04-09T11:18:04.502Z</time></trkpt><trkpt lat="46.0203449" lon="11.8975283"><ele>274.6</ele><time>2026-04-09T11:18:05.511Z</time></trkpt><trkpt lat="46.0203797" lon="11.8976777"><ele>274.2</ele><time>2026-04-09T11:18:06.511Z</time></trkpt><trkpt lat="46.0203985" lon="11.8978249"><ele>273.8</ele><time>2026-04-09T11:18:07.507Z</time></trkpt><trkpt lat="46.0204366" lon="11.8979667"><ele>273.4</ele><time>2026-04-09T11:18:08.515Z</time></trkpt><trkpt lat="46.02046" lon="11.8981029"><ele>273.0</ele><time>2026-04-09T11:18:09.513Z</time></trkpt><trkpt lat="46.0204784" lon="11.8982372"><ele>273.0</ele><time>2026-04-09T11:18:10.51Z</time></trkpt><trkpt lat="46.0205009" lon="11.89838"><ele>273.0</ele><time>2026-04-09T11:18:11.498Z</time></trkpt><trkpt lat="46.0205233" lon="11.8985269"><ele>273.0</ele><time>2026-04-09T11:18:12.507Z</time></trkpt><trkpt lat="46.0205475" lon="11.8986616"><ele>273.0</ele><time>2026-04-09T11:18:13.516Z</time></trkpt><trkpt lat="46.020563" lon="11.8987896"><ele>273.0</ele><time>2026-04-09T11:18:14.506Z</time></trkpt><trkpt lat="46.0205839" lon="11.8988953"><ele>272.8333333333333</ele><time>2026-04-09T11:18:15.518Z</time></trkpt><trkpt lat="46.0205992" lon="11.898999"><ele>272.6666666666667</ele><time>2026-04-09T11:18:16.501Z</time></trkpt><trkpt lat="46.0206151" lon="11.8991596"><ele>272.5</ele><time>2026-04-09T11:18:18.501Z</time></trkpt><trkpt lat="46.0206316" lon="11.8992783"><ele>272.33333333333337</ele><time>2026-04-09T11:18:20.507Z</time></trkpt><trkpt lat="46.0206513" lon="11.8993798"><ele>272.1666666666667</ele><time>2026-04-09T11:18:22.516Z</time></trkpt><trkpt lat="46.0206647" lon="11.8994744"><ele>272.0</ele><time>2026-04-09T11:18:24.509Z</time></trkpt><trkpt lat="46.0206747" lon="11.8995931"><ele>272.33333333333337</ele><time>2026-04-09T11:18:27.503Z</time></trkpt><trkpt lat="46.0206823" lon="11.899704"><ele>272.6666666666667</ele><time>2026-04-09T11:18:31.51Z</time></trkpt><trkpt lat="46.0206936" lon="11.8997971"><ele>273.0</ele><time>2026-04-09T11:18:32.502Z</time></trkpt><trkpt lat="46.0207194" lon="11.8999149"><ele>273.3333333333333</ele><time>2026-04-09T11:18:34.511Z</time></trkpt><trkpt lat="46.0207886" lon="11.8999401"><ele>273.66666666666663</ele><time>2026-04-09T11:18:36.529Z</time></trkpt><trkpt lat="46.0208624" lon="11.8999254"><ele>274.0</ele><time>2026-04-09T11:18:38.504Z</time></trkpt><trkpt lat="46.0209874" lon="11.8998125"><ele>274.25</ele><time>2026-04-09T11:18:40.512Z</time></trkpt><trkpt lat="46.0210674" lon="11.8997559"><ele>274.5</ele><time>2026-04-09T11:18:41.517Z</time></trkpt><trkpt lat="46.0211811" lon="11.8996782"><ele>274.75</ele><time>2026-04-09T11:18:42.499Z</time></trkpt><trkpt lat="46.0212789" lon="11.8995683"><ele>275.0</ele><time>2026-04-09T11:18:43.509Z</time></trkpt><trkpt lat="46.0213775" lon="11.8994639"><ele>275.0</ele><time>2026-04-09T11:18:44.501Z</time></trkpt><trkpt lat="46.0214775" lon="11.8993599"><ele>275.0</ele><time>2026-04-09T11:18:45.512Z</time></trkpt><trkpt lat="46.0215877" lon="11.8992561"><ele>275.0</ele><time>2026-04-09T11:18:46.503Z</time></trkpt><trkpt lat="46.0216949" lon="11.8991402"><ele>275.0</ele><time>2026-04-09T11:18:47.505Z</time></trkpt><trkpt lat="46.0218115" lon="11.8990259"><ele>276.25</ele><time>2026-04-09T11:18:48.508Z</time></trkpt><trkpt lat="46.0219329" lon="11.898915"><ele>277.5</ele><time>2026-04-09T11:18:49.504Z</time></trkpt><trkpt lat="46.0220509" lon="11.8987943"><ele>278.75</ele><time>2026-04-09T11:18:50.504Z</time></trkpt><trkpt lat="46.0221833" lon="11.8986809"><ele>280.0</ele><time>2026-04-09T11:18:51.515Z</time></trkpt><trkpt lat="46.0223103" lon="11.8985508"><ele>280.0</ele><time>2026-04-09T11:18:52.496Z</time></trkpt><trkpt lat="46.0224447" lon="11.8984205"><ele>280.0</ele><time>2026-04-09T11:18:53.512Z</time></trkpt><trkpt lat="46.022582" lon="11.8982889"><ele>280.0</ele><time>2026-04-09T11:18:54.502Z</time></trkpt><trkpt lat="46.0227183" lon="11.8981535"><ele>281.5</ele><time>2026-04-09T11:18:55.5Z</time></trkpt><trkpt lat="46.0228488" lon="11.8980121"><ele>283.0</ele><time>2026-04-09T11:18:56.92Z</time></trkpt><trkpt lat="46.0231303" lon="11.8977596"><ele>283.0</ele><time>2026-04-09T11:18:58.509Z</time></trkpt><trkpt lat="46.0232544" lon="11.8976274"><ele>283.0</ele><time>2026-04-09T11:18:59.506Z</time></trkpt><trkpt lat="46.0233869" lon="11.8975102"><ele>283.0</ele><time>2026-04-09T11:19:00.51Z</time></trkpt><trkpt lat="46.0235066" lon="11.8973891"><ele>283.0</ele><time>2026-04-09T11:19:01.547Z</time></trkpt><trkpt lat="46.0238374" lon="11.8970532"><ele>283.0</ele><time>2026-04-09T11:19:04.505Z</time></trkpt><trkpt lat="46.0239641" lon="11.8969638"><ele>283.0</ele><time>2026-04-09T11:19:05.504Z</time></trkpt><trkpt lat="46.0240879" lon="11.8968736"><ele>283.0</ele><time>2026-04-09T11:19:06.509Z</time></trkpt><trkpt lat="46.0242141" lon="11.8967834"><ele>283.0</ele><time>2026-04-09T11:19:07.505Z</time></trkpt><trkpt lat="46.0243273" lon="11.8966967"><ele>283.0</ele><time>2026-04-09T11:19:08.499Z</time></trkpt><trkpt lat="46.0244292" lon="11.8966152"><ele>283.6</ele><time>2026-04-09T11:19:09.52Z</time></trkpt><trkpt lat="46.0245313" lon="11.8965376"><ele>284.20000000000005</ele><time>2026-04-09T11:19:10.506Z</time></trkpt><trkpt lat="46.0246213" lon="11.896473"><ele>284.8</ele><time>2026-04-09T11:19:11.518Z</time></trkpt><trkpt lat="46.024705" lon="11.8964255"><ele>285.40000000000003</ele><time>2026-04-09T11:19:12.506Z</time></trkpt><trkpt lat="46.0247932" lon="11.8963999"><ele>286.0</ele><time>2026-04-09T11:19:13.855Z</time></trkpt><trkpt lat="46.0249843" lon="11.8963396"><ele>286.0</ele><time>2026-04-09T11:19:15.505Z</time></trkpt><trkpt lat="46.0250886" lon="11.8962741"><ele>286.0</ele><time>2026-04-09T11:19:16.527Z</time></trkpt><trkpt lat="46.0251942" lon="11.8961872"><ele>286.0</ele><time>2026-04-09T11:19:17.537Z</time></trkpt><trkpt lat="46.0253039" lon="11.8960614"><ele>286.0</ele><time>2026-04-09T11:19:18.506Z</time></trkpt><trkpt lat="46.0254229" lon="11.8959414"><ele>286.25</ele><time>2026-04-09T11:19:19.522Z</time></trkpt><trkpt lat="46.0255505" lon="11.8958059"><ele>286.5</ele><time>2026-04-09T11:19:20.506Z</time></trkpt><trkpt lat="46.0256646" lon="11.8957018"><ele>286.75</ele><time>2026-04-09T11:19:21.515Z</time></trkpt><trkpt lat="46.0257789" lon="11.8956109"><ele>287.0</ele><time>2026-04-09T11:19:22.499Z</time></trkpt><trkpt lat="46.0258873" lon="11.8955098"><ele>287.6666666666667</ele><time>2026-04-09T11:19:23.54Z</time></trkpt><trkpt lat="46.026009" lon="11.8954233"><ele>288.3333333333333</ele><time>2026-04-09T11:19:24.504Z</time></trkpt><trkpt lat="46.0261463" lon="11.8953256"><ele>289.0</ele><time>2026-04-09T11:19:25.5Z</time></trkpt><trkpt lat="46.0262904" lon="11.8952154"><ele>289.0</ele><time>2026-04-09T11:19:26.502Z</time></trkpt><trkpt lat="46.0264604" lon="11.8951055"><ele>289.0</ele><time>2026-04-09T11:19:27.498Z</time></trkpt><trkpt lat="46.0266378" lon="11.8950148"><ele>289.0</ele><time>2026-04-09T11:19:28.501Z</time></trkpt><trkpt lat="46.0268259" lon="11.8948732"><ele>290.0</ele><time>2026-04-09T11:19:29.508Z</time></trkpt><trkpt lat="46.0269972" lon="11.8947321"><ele>291.0</ele><time>2026-04-09T11:19:30.499Z</time></trkpt><trkpt lat="46.0271713" lon="11.8946113"><ele>292.0</ele><time>2026-04-09T11:19:31.513Z</time></trkpt><trkpt lat="46.0273313" lon="11.8944925"><ele>293.3333333333333</ele><time>2026-04-09T11:19:32.495Z</time></trkpt><trkpt lat="46.0275011" lon="11.894378"><ele>294.6666666666667</ele><time>2026-04-09T11:19:33.508Z</time></trkpt><trkpt lat="46.0276644" lon="11.8942718"><ele>296.0</ele><time>2026-04-09T11:19:34.519Z</time></trkpt><trkpt lat="46.0278122" lon="11.8941381"><ele>296.0</ele><time>2026-04-09T11:19:35.503Z</time></trkpt><trkpt lat="46.0279672" lon="11.8940279"><ele>296.0</ele><time>2026-04-09T11:19:36.495Z</time></trkpt><trkpt lat="46.0281235" lon="11.8939144"><ele>296.0</ele><time>2026-04-09T11:19:37.508Z</time></trkpt><trkpt lat="46.0282886" lon="11.8937928"><ele>296.33333333333337</ele><time>2026-04-09T11:19:38.507Z</time></trkpt><trkpt lat="46.0284576" lon="11.8936661"><ele>296.6666666666667</ele><time>2026-04-09T11:19:39.506Z</time></trkpt><trkpt lat="46.0286431" lon="11.893565"><ele>297.0</ele><time>2026-04-09T11:19:40.506Z</time></trkpt><trkpt lat="46.0288122" lon="11.8934605"><ele>296.3333333333333</ele><time>2026-04-09T11:19:41.515Z</time></trkpt><trkpt lat="46.028961" lon="11.8933543"><ele>295.66666666666663</ele><time>2026-04-09T11:19:42.511Z</time></trkpt><trkpt lat="46.0290964" lon="11.89324"><ele>295.0</ele><time>2026-04-09T11:19:43.515Z</time></trkpt><trkpt lat="46.0292263" lon="11.8931158"><ele>296.3333333333333</ele><time>2026-04-09T11:19:44.505Z</time></trkpt><trkpt lat="46.0293511" lon="11.8929626"><ele>297.6666666666667</ele><time>2026-04-09T11:19:45.518Z</time></trkpt><trkpt lat="46.0294517" lon="11.8927852"><ele>299.0</ele><time>2026-04-09T11:19:46.515Z</time></trkpt><trkpt lat="46.0295446" lon="11.8926051"><ele>299.0</ele><time>2026-04-09T11:19:47.506Z</time></trkpt><trkpt lat="46.0296311" lon="11.8924018"><ele>299.0</ele><time>2026-04-09T11:19:48.499Z</time></trkpt><trkpt lat="46.0297136" lon="11.8921908"><ele>299.0</ele><time>2026-04-09T11:19:49.516Z</time></trkpt><trkpt lat="46.029819" lon="11.8918764"><ele>299.6666666666667</ele><time>2026-04-09T11:19:50.499Z</time></trkpt><trkpt lat="46.0299146" lon="11.8916457"><ele>300.3333333333333</ele><time>2026-04-09T11:19:51.517Z</time></trkpt><trkpt lat="46.0299997" lon="11.8914164"><ele>301.0</ele><time>2026-04-09T11:19:52.507Z</time></trkpt><trkpt lat="46.03008" lon="11.8912312"><ele>303.0</ele><time>2026-04-09T11:19:53.505Z</time></trkpt><trkpt lat="46.0301541" lon="11.8910315"><ele>305.0</ele><time>2026-04-09T11:19:54.504Z</time></trkpt><trkpt lat="46.0302463" lon="11.8908583"><ele>307.0</ele><time>2026-04-09T11:19:55.515Z</time></trkpt><trkpt lat="46.0303475" lon="11.8906717"><ele>307.3333333333333</ele><time>2026-04-09T11:19:56.512Z</time></trkpt><trkpt lat="46.0304589" lon="11.8904629"><ele>307.6666666666667</ele><time>2026-04-09T11:19:57.5Z</time></trkpt><trkpt lat="46.0305441" lon="11.8903072"><ele>308.0</ele><time>2026-04-09T11:19:58.495Z</time></trkpt><trkpt lat="46.0306615" lon="11.8901133"><ele>308.0</ele><time>2026-04-09T11:19:59.517Z</time></trkpt><trkpt lat="46.0307983" lon="11.889921"><ele>308.0</ele><time>2026-04-09T11:20:00.529Z</time></trkpt><trkpt lat="46.0309042" lon="11.8897965"><ele>308.0</ele><time>2026-04-09T11:20:01.497Z</time></trkpt><trkpt lat="46.0310107" lon="11.8896414"><ele>308.0</ele><time>2026-04-09T11:20:02.501Z</time></trkpt><trkpt lat="46.0311225" lon="11.8894784"><ele>308.0</ele><time>2026-04-09T11:20:03.501Z</time></trkpt><trkpt lat="46.0312291" lon="11.8893334"><ele>308.0</ele><time>2026-04-09T11:20:04.51Z</time></trkpt><trkpt lat="46.0313247" lon="11.8891958"><ele>308.0</ele><time>2026-04-09T11:20:05.507Z</time></trkpt><trkpt lat="46.031416" lon="11.889067"><ele>308.75</ele><time>2026-04-09T11:20:06.551Z</time></trkpt><trkpt lat="46.031505" lon="11.8889475"><ele>309.5</ele><time>2026-04-09T11:20:07.505Z</time></trkpt><trkpt lat="46.0315846" lon="11.8888168"><ele>310.25</ele><time>2026-04-09T11:20:08.51Z</time></trkpt><trkpt lat="46.0316619" lon="11.8886879"><ele>311.0</ele><time>2026-04-09T11:20:09.5Z</time></trkpt><trkpt lat="46.0317358" lon="11.8885652"><ele>311.33333333333337</ele><time>2026-04-09T11:20:10.509Z</time></trkpt><trkpt lat="46.0317894" lon="11.8885083"><ele>311.6666666666667</ele><time>2026-04-09T11:20:11.501Z</time></trkpt><trkpt lat="46.0318718" lon="11.8884021"><ele>312.0</ele><time>2026-04-09T11:20:13.513Z</time></trkpt><trkpt lat="46.0319295" lon="11.8883522"><ele>312.3333333333333</ele><time>2026-04-09T11:20:15.512Z</time></trkpt><trkpt lat="46.0319719" lon="11.8882586"><ele>312.66666666666663</ele><time>2026-04-09T11:20:19.51Z</time></trkpt><trkpt lat="46.032056" lon="11.8881294"><ele>313.0</ele><time>2026-04-09T11:20:21.511Z</time></trkpt><trkpt lat="46.0321233" lon="11.8880229"><ele>313.5</ele><time>2026-04-09T11:20:22.505Z</time></trkpt><trkpt lat="46.0321885" lon="11.8879323"><ele>314.0</ele><time>2026-04-09T11:20:23.502Z</time></trkpt><trkpt lat="46.0322635" lon="11.8877891"><ele>314.5</ele><time>2026-04-09T11:20:24.509Z</time></trkpt><trkpt lat="46.0323688" lon="11.8876661"><ele>315.0</ele><time>2026-04-09T11:20:25.515Z</time></trkpt><trkpt lat="46.0324818" lon="11.887522"><ele>316.3333333333333</ele><time>2026-04-09T11:20:26.496Z</time></trkpt><trkpt lat="46.0325925" lon="11.8873541"><ele>317.66666666666663</ele><time>2026-04-09T11:20:27.496Z</time></trkpt><trkpt lat="46.0327031" lon="11.8872027"><ele>319.0</ele><time>2026-04-09T11:20:28.501Z</time></trkpt><trkpt lat="46.0328186" lon="11.8870276"><ele>319.0</ele><time>2026-04-09T11:20:29.516Z</time></trkpt><trkpt lat="46.0329322" lon="11.8868706"><ele>319.0</ele><time>2026-04-09T11:20:30.494Z</time></trkpt><trkpt lat="46.0330654" lon="11.8866794"><ele>319.0</ele><time>2026-04-09T11:20:31.504Z</time></trkpt><trkpt lat="46.0332014" lon="11.8864945"><ele>320.0</ele><time>2026-04-09T11:20:32.508Z</time></trkpt><trkpt lat="46.0333361" lon="11.8862935"><ele>321.0</ele><time>2026-04-09T11:20:33.502Z</time></trkpt><trkpt lat="46.0334749" lon="11.8860903"><ele>322.0</ele><time>2026-04-09T11:20:34.509Z</time></trkpt><trkpt lat="46.0336184" lon="11.8858851"><ele>322.66666666666663</ele><time>2026-04-09T11:20:35.501Z</time></trkpt><trkpt lat="46.0337644" lon="11.8856739"><ele>323.3333333333333</ele><time>2026-04-09T11:20:36.507Z</time></trkpt><trkpt lat="46.0339192" lon="11.8854622"><ele>324.0</ele><time>2026-04-09T11:20:37.498Z</time></trkpt><trkpt lat="46.0340571" lon="11.8852896"><ele>323.6666666666667</ele><time>2026-04-09T11:20:38.499Z</time></trkpt><trkpt lat="46.0341901" lon="11.8851155"><ele>323.33333333333337</ele><time>2026-04-09T11:20:39.505Z</time></trkpt><trkpt lat="46.0343104" lon="11.8849335"><ele>323.0</ele><time>2026-04-09T11:20:40.505Z</time></trkpt><trkpt lat="46.0344234" lon="11.884768"><ele>323.5</ele><time>2026-04-09T11:20:41.512Z</time></trkpt><trkpt lat="46.0345195" lon="11.8846244"><ele>324.0</ele><time>2026-04-09T11:20:42.512Z</time></trkpt><trkpt lat="46.0346139" lon="11.8844834"><ele>324.5</ele><time>2026-04-09T11:20:43.516Z</time></trkpt><trkpt lat="46.0347028" lon="11.8843568"><ele>325.0</ele><time>2026-04-09T11:20:44.509Z</time></trkpt><trkpt lat="46.0347862" lon="11.88423"><ele>325.5</ele><time>2026-04-09T11:20:45.507Z</time></trkpt><trkpt lat="46.0348768" lon="11.8840926"><ele>326.0</ele><time>2026-04-09T11:20:46.509Z</time></trkpt><trkpt lat="46.0349643" lon="11.8839694"><ele>326.5</ele><time>2026-04-09T11:20:47.496Z</time></trkpt><trkpt lat="46.0350585" lon="11.8838576"><ele>327.0</ele><time>2026-04-09T11:20:48.515Z</time></trkpt><trkpt lat="46.0351399" lon="11.8837489"><ele>327.0</ele><time>2026-04-09T11:20:49.505Z</time></trkpt><trkpt lat="46.0352247" lon="11.883653"><ele>327.0</ele><time>2026-04-09T11:20:50.508Z</time></trkpt><trkpt lat="46.0353012" lon="11.8835728"><ele>327.0</ele><time>2026-04-09T11:20:51.507Z</time></trkpt><trkpt lat="46.0353843" lon="11.883497"><ele>327.0</ele><time>2026-04-09T11:20:52.514Z</time></trkpt><trkpt lat="46.0354598" lon="11.8834122"><ele>327.0</ele><time>2026-04-09T11:20:53.505Z</time></trkpt><trkpt lat="46.0355533" lon="11.8833472"><ele>327.0</ele><time>2026-04-09T11:20:54.502Z</time></trkpt><trkpt lat="46.0356601" lon="11.8832648"><ele>327.0</ele><time>2026-04-09T11:20:55.501Z</time></trkpt><trkpt lat="46.0357885" lon="11.8831566"><ele>327.0</ele><time>2026-04-09T11:20:56.521Z</time></trkpt><trkpt lat="46.0359301" lon="11.8830586"><ele>327.0</ele><time>2026-04-09T11:20:57.502Z</time></trkpt><trkpt lat="46.0360693" lon="11.8829601"><ele>327.0</ele><time>2026-04-09T11:20:58.512Z</time></trkpt><trkpt lat="46.0362148" lon="11.8828514"><ele>327.0</ele><time>2026-04-09T11:20:59.522Z</time></trkpt><trkpt lat="46.0363686" lon="11.8827479"><ele>327.0</ele><time>2026-04-09T11:21:00.505Z</time></trkpt><trkpt lat="46.0365317" lon="11.8826413"><ele>329.0</ele><time>2026-04-09T11:21:01.514Z</time></trkpt><trkpt lat="46.036708" lon="11.8825173"><ele>331.0</ele><time>2026-04-09T11:21:02.508Z</time></trkpt><trkpt lat="46.0368909" lon="11.8823787"><ele>333.0</ele><time>2026-04-09T11:21:03.512Z</time></trkpt><trkpt lat="46.0370863" lon="11.8822581"><ele>333.0</ele><time>2026-04-09T11:21:04.504Z</time></trkpt><trkpt lat="46.0372776" lon="11.8821306"><ele>333.0</ele><time>2026-04-09T11:21:05.507Z</time></trkpt><trkpt lat="46.037458" lon="11.8819941"><ele>333.0</ele><time>2026-04-09T11:21:06.521Z</time></trkpt><trkpt lat="46.0376385" lon="11.8818645"><ele>334.0</ele><time>2026-04-09T11:21:07.506Z</time></trkpt><trkpt lat="46.0378133" lon="11.8817331"><ele>335.0</ele><time>2026-04-09T11:21:08.498Z</time></trkpt><trkpt lat="46.0379859" lon="11.8816206"><ele>336.0</ele><time>2026-04-09T11:21:09.503Z</time></trkpt><trkpt lat="46.0381533" lon="11.881518"><ele>336.0</ele><time>2026-04-09T11:21:10.516Z</time></trkpt><trkpt lat="46.0382996" lon="11.8814181"><ele>336.0</ele><time>2026-04-09T11:21:11.522Z</time></trkpt><trkpt lat="46.0384365" lon="11.8813159"><ele>336.0</ele><time>2026-04-09T11:21:12.501Z</time></trkpt><trkpt lat="46.0385616" lon="11.8812254"><ele>336.6</ele><time>2026-04-09T11:21:13.514Z</time></trkpt><trkpt lat="46.0386685" lon="11.8811462"><ele>337.20000000000005</ele><time>2026-04-09T11:21:14.513Z</time></trkpt><trkpt lat="46.0387578" lon="11.8810655"><ele>337.79999999999995</ele><time>2026-04-09T11:21:15.512Z</time></trkpt><trkpt lat="46.0388676" lon="11.8809853"><ele>338.4</ele><time>2026-04-09T11:21:16.508Z</time></trkpt><trkpt lat="46.0389528" lon="11.8809175"><ele>339.0</ele><time>2026-04-09T11:21:17.498Z</time></trkpt><trkpt lat="46.0390351" lon="11.8808512"><ele>339.2</ele><time>2026-04-09T11:21:18.497Z</time></trkpt><trkpt lat="46.0391129" lon="11.8808007"><ele>339.4</ele><time>2026-04-09T11:21:19.514Z</time></trkpt><trkpt lat="46.0392183" lon="11.8807183"><ele>339.6</ele><time>2026-04-09T11:21:21.51Z</time></trkpt><trkpt lat="46.039281" lon="11.880675"><ele>339.8</ele><time>2026-04-09T11:21:22.512Z</time></trkpt><trkpt lat="46.0393934" lon="11.8805871"><ele>340.0</ele><time>2026-04-09T11:21:24.504Z</time></trkpt><trkpt lat="46.0394474" lon="11.8805358"><ele>340.3333333333333</ele><time>2026-04-09T11:21:25.508Z</time></trkpt><trkpt lat="46.0395114" lon="11.880484"><ele>340.66666666666663</ele><time>2026-04-09T11:21:26.503Z</time></trkpt><trkpt lat="46.0396065" lon="11.8803892"><ele>341.0</ele><time>2026-04-09T11:21:28.504Z</time></trkpt><trkpt lat="46.0396992" lon="11.8803081"><ele>341.3333333333333</ele><time>2026-04-09T11:21:30.503Z</time></trkpt><trkpt lat="46.0397576" lon="11.8802663"><ele>341.6666666666667</ele><time>2026-04-09T11:21:32.502Z</time></trkpt><trkpt lat="46.0398251" lon="11.8803053"><ele>342.0</ele><time>2026-04-09T11:21:33.5Z</time></trkpt><trkpt lat="46.0399152" lon="11.8803242"><ele>342.0</ele><time>2026-04-09T11:21:35.512Z</time></trkpt><trkpt lat="46.0399555" lon="11.8804026"><ele>342.0</ele><time>2026-04-09T11:21:36.507Z</time></trkpt><trkpt lat="46.0399833" lon="11.8805841"><ele>342.0</ele><time>2026-04-09T11:21:38.503Z</time></trkpt><trkpt lat="46.0400451" lon="11.8806891"><ele>342.0</ele><time>2026-04-09T11:21:40.502Z</time></trkpt><trkpt lat="46.040125" lon="11.8807131"><ele>342.0</ele><time>2026-04-09T11:21:42.514Z</time></trkpt><trkpt lat="46.0402507" lon="11.880789"><ele>342.5</ele><time>2026-04-09T11:21:44.506Z</time></trkpt><trkpt lat="46.0403192" lon="11.8808298"><ele>343.0</ele><time>2026-04-09T11:21:45.515Z</time></trkpt><trkpt lat="46.0403951" lon="11.8808792"><ele>343.5</ele><time>2026-04-09T11:21:46.52Z</time></trkpt><trkpt lat="46.0404503" lon="11.8809262"><ele>344.0</ele><time>2026-04-09T11:21:47.502Z</time></trkpt><trkpt lat="46.0404912" lon="11.8810025"><ele>344.5</ele><time>2026-04-09T11:21:48.502Z</time></trkpt><trkpt lat="46.0405322" lon="11.8811211"><ele>345.0</ele><time>2026-04-09T11:21:49.516Z</time></trkpt><trkpt lat="46.0405471" lon="11.8812618"><ele>345.0</ele><time>2026-04-09T11:21:50.499Z</time></trkpt><trkpt lat="46.0405914" lon="11.8814475"><ele>345.0</ele><time>2026-04-09T11:21:51.512Z</time></trkpt><trkpt lat="46.0406421" lon="11.8816212"><ele>345.0</ele><time>2026-04-09T11:21:52.503Z</time></trkpt><trkpt lat="46.0406956" lon="11.88178"><ele>345.0</ele><time>2026-04-09T11:21:53.497Z</time></trkpt><trkpt lat="46.0407474" lon="11.8819515"><ele>345.8</ele><time>2026-04-09T11:21:54.505Z</time></trkpt><trkpt lat="46.0408056" lon="11.8821167"><ele>346.6</ele><time>2026-04-09T11:21:55.513Z</time></trkpt><trkpt lat="46.0408558" lon="11.8822625"><ele>347.4</ele><time>2026-04-09T11:21:56.502Z</time></trkpt><trkpt lat="46.0409113" lon="11.8823668"><ele>348.2</ele><time>2026-04-09T11:21:57.5Z</time></trkpt><trkpt lat="46.0409763" lon="11.8824555"><ele>349.0</ele><time>2026-04-09T11:21:58.514Z</time></trkpt><trkpt lat="46.0410455" lon="11.882525"><ele>349.0</ele><time>2026-04-09T11:21:59.513Z</time></trkpt><trkpt lat="46.0411598" lon="11.8825408"><ele>349.0</ele><time>2026-04-09T11:22:00.512Z</time></trkpt><trkpt lat="46.0412517" lon="11.8825472"><ele>349.0</ele><time>2026-04-09T11:22:01.514Z</time></trkpt><trkpt lat="46.041352" lon="11.8825204"><ele>349.0</ele><time>2026-04-09T11:22:02.524Z</time></trkpt><trkpt lat="46.0414574" lon="11.882505"><ele>349.0</ele><time>2026-04-09T11:22:03.513Z</time></trkpt><trkpt lat="46.0415213" lon="11.8825103"><ele>349.0</ele><time>2026-04-09T11:22:04.5Z</time></trkpt><trkpt lat="46.04161" lon="11.8825549"><ele>349.0</ele><time>2026-04-09T11:22:06.501Z</time></trkpt><trkpt lat="46.0416558" lon="11.8826462"><ele>349.0</ele><time>2026-04-09T11:22:07.5Z</time></trkpt><trkpt lat="46.0416858" lon="11.8828066"><ele>349.0</ele><time>2026-04-09T11:22:09.507Z</time></trkpt><trkpt lat="46.0417057" lon="11.8829396"><ele>349.0</ele><time>2026-04-09T11:22:10.499Z</time></trkpt><trkpt lat="46.0417241" lon="11.8830858"><ele>349.4</ele><time>2026-04-09T11:22:11.499Z</time></trkpt><trkpt lat="46.0417338" lon="11.8832291"><ele>349.79999999999995</ele><time>2026-04-09T11:22:12.514Z</time></trkpt><trkpt lat="46.0417746" lon="11.8833644"><ele>350.20000000000005</ele><time>2026-04-09T11:22:13.507Z</time></trkpt><trkpt lat="46.0418288" lon="11.8835153"><ele>350.6</ele><time>2026-04-09T11:22:14.515Z</time></trkpt><trkpt lat="46.04189" lon="11.8836761"><ele>351.0</ele><time>2026-04-09T11:22:15.514Z</time></trkpt><trkpt lat="46.0419522" lon="11.8838273"><ele>350.0</ele><time>2026-04-09T11:22:16.52Z</time></trkpt><trkpt lat="46.0420106" lon="11.8839845"><ele>349.0</ele><time>2026-04-09T11:22:17.514Z</time></trkpt><trkpt lat="46.042068" lon="11.8841427"><ele>348.0</ele><time>2026-04-09T11:22:18.499Z</time></trkpt><trkpt lat="46.0421268" lon="11.8843056"><ele>347.0</ele><time>2026-04-09T11:22:19.503Z</time></trkpt><trkpt lat="46.0421833" lon="11.8844618"><ele>345.40000000000003</ele><time>2026-04-09T11:22:20.501Z</time></trkpt><trkpt lat="46.0422081" lon="11.8846188"><ele>343.8</ele><time>2026-04-09T11:22:21.501Z</time></trkpt><trkpt lat="46.0422374" lon="11.8847788"><ele>342.2</ele><time>2026-04-09T11:22:22.507Z</time></trkpt><trkpt lat="46.0422672" lon="11.884928"><ele>340.6</ele><time>2026-04-09T11:22:23.504Z</time></trkpt><trkpt lat="46.0422846" lon="11.8850675"><ele>339.0</ele><time>2026-04-09T11:22:24.498Z</time></trkpt><trkpt lat="46.0422907" lon="11.8852062"><ele>338.2</ele><time>2026-04-09T11:22:25.512Z</time></trkpt><trkpt lat="46.042312" lon="11.8853287"><ele>337.4</ele><time>2026-04-09T11:22:26.503Z</time></trkpt><trkpt lat="46.0423373" lon="11.8854701"><ele>336.6</ele><time>2026-04-09T11:22:27.504Z</time></trkpt><trkpt lat="46.0423709" lon="11.8856065"><ele>335.8</ele><time>2026-04-09T11:22:28.505Z</time></trkpt><trkpt lat="46.042406" lon="11.8857517"><ele>335.0</ele><time>2026-04-09T11:22:29.511Z</time></trkpt><trkpt lat="46.0424691" lon="11.8858804"><ele>336.0</ele><time>2026-04-09T11:22:30.503Z</time></trkpt><trkpt lat="46.0425188" lon="11.8860139"><ele>337.0</ele><time>2026-04-09T11:22:31.503Z</time></trkpt><trkpt lat="46.042576" lon="11.8861404"><ele>338.0</ele><time>2026-04-09T11:22:32.497Z</time></trkpt><trkpt lat="46.0426205" lon="11.8862609"><ele>339.0</ele><time>2026-04-09T11:22:33.513Z</time></trkpt><trkpt lat="46.0426723" lon="11.8863772"><ele>340.0</ele><time>2026-04-09T11:22:34.502Z</time></trkpt><trkpt lat="46.0427421" lon="11.8864874"><ele>340.0</ele><time>2026-04-09T11:22:35.503Z</time></trkpt><trkpt lat="46.0427974" lon="11.886605"><ele>340.0</ele><time>2026-04-09T11:22:36.504Z</time></trkpt><trkpt lat="46.0428638" lon="11.8867369"><ele>340.0</ele><time>2026-04-09T11:22:37.513Z</time></trkpt><trkpt lat="46.0429141" lon="11.8868587"><ele>340.0</ele><time>2026-04-09T11:22:38.505Z</time></trkpt><trkpt lat="46.0429573" lon="11.886978"><ele>340.0</ele><time>2026-04-09T11:22:39.509Z</time></trkpt><trkpt lat="46.0429659" lon="11.8870975"><ele>339.4</ele><time>2026-04-09T11:22:40.51Z</time></trkpt><trkpt lat="46.0429913" lon="11.8872392"><ele>338.8</ele><time>2026-04-09T11:22:41.511Z</time></trkpt><trkpt lat="46.0429985" lon="11.8873872"><ele>338.20000000000005</ele><time>2026-04-09T11:22:42.511Z</time></trkpt><trkpt lat="46.0429934" lon="11.8875575"><ele>337.6</ele><time>2026-04-09T11:22:43.498Z</time></trkpt><trkpt lat="46.0429934" lon="11.8877325"><ele>337.0</ele><time>2026-04-09T11:22:44.505Z</time></trkpt><trkpt lat="46.0429942" lon="11.8879095"><ele>337.0</ele><time>2026-04-09T11:22:45.505Z</time></trkpt><trkpt lat="46.0430026" lon="11.8880935"><ele>337.0</ele><time>2026-04-09T11:22:46.499Z</time></trkpt><trkpt lat="46.0430149" lon="11.8882718"><ele>337.0</ele><time>2026-04-09T11:22:47.504Z</time></trkpt><trkpt lat="46.0430254" lon="11.8884488"><ele>337.0</ele><time>2026-04-09T11:22:48.5Z</time></trkpt><trkpt lat="46.0430365" lon="11.8886112"><ele>337.40000000000003</ele><time>2026-04-09T11:22:49.501Z</time></trkpt><trkpt lat="46.0430491" lon="11.8887711"><ele>337.8</ele><time>2026-04-09T11:22:50.525Z</time></trkpt><trkpt lat="46.0430546" lon="11.8889074"><ele>338.2</ele><time>2026-04-09T11:22:51.509Z</time></trkpt><trkpt lat="46.0430562" lon="11.889031"><ele>338.6</ele><time>2026-04-09T11:22:52.514Z</time></trkpt><trkpt lat="46.0430532" lon="11.8891585"><ele>339.0</ele><time>2026-04-09T11:22:53.511Z</time></trkpt><trkpt lat="46.0430452" lon="11.8892871"><ele>339.0</ele><time>2026-04-09T11:22:54.508Z</time></trkpt><trkpt lat="46.0430346" lon="11.8894108"><ele>339.0</ele><time>2026-04-09T11:22:55.503Z</time></trkpt><trkpt lat="46.0430231" lon="11.8895066"><ele>339.0</ele><time>2026-04-09T11:22:56.514Z</time></trkpt><trkpt lat="46.0430195" lon="11.8895998"><ele>339.0</ele><time>2026-04-09T11:22:57.509Z</time></trkpt><trkpt lat="46.0430077" lon="11.8897037"><ele>339.0</ele><time>2026-04-09T11:22:58.506Z</time></trkpt><trkpt lat="46.0429988" lon="11.8898051"><ele>339.0</ele><time>2026-04-09T11:22:59.508Z</time></trkpt><trkpt lat="46.0429769" lon="11.8899859"><ele>339.25</ele><time>2026-04-09T11:23:00.515Z</time></trkpt><trkpt lat="46.0429639" lon="11.8901416"><ele>339.5</ele><time>2026-04-09T11:23:01.504Z</time></trkpt><trkpt lat="46.0429587" lon="11.8903018"><ele>339.75</ele><time>2026-04-09T11:23:02.5Z</time></trkpt><trkpt lat="46.042964" lon="11.8904728"><ele>340.0</ele><time>2026-04-09T11:23:03.502Z</time></trkpt><trkpt lat="46.0429663" lon="11.8906437"><ele>340.0</ele><time>2026-04-09T11:23:04.508Z</time></trkpt><trkpt lat="46.0429647" lon="11.8908116"><ele>340.0</ele><time>2026-04-09T11:23:05.498Z</time></trkpt><trkpt lat="46.0429588" lon="11.8909649"><ele>340.0</ele><time>2026-04-09T11:23:06.506Z</time></trkpt><trkpt lat="46.0429314" lon="11.8910967"><ele>340.0</ele><time>2026-04-09T11:23:07.511Z</time></trkpt><trkpt lat="46.0428927" lon="11.8912168"><ele>340.0</ele><time>2026-04-09T11:23:08.516Z</time></trkpt><trkpt lat="46.0428202" lon="11.8913229"><ele>340.25</ele><time>2026-04-09T11:23:09.571Z</time></trkpt><trkpt lat="46.04275" lon="11.8914243"><ele>340.5</ele><time>2026-04-09T11:23:10.523Z</time></trkpt><trkpt lat="46.0427099" lon="11.8915781"><ele>340.75</ele><time>2026-04-09T11:23:11.516Z</time></trkpt><trkpt lat="46.0426564" lon="11.8917744"><ele>341.0</ele><time>2026-04-09T11:23:12.513Z</time></trkpt><trkpt lat="46.0426018" lon="11.8920025"><ele>339.75</ele><time>2026-04-09T11:23:13.524Z</time></trkpt><trkpt lat="46.0425589" lon="11.8922043"><ele>338.5</ele><time>2026-04-09T11:23:14.523Z</time></trkpt><trkpt lat="46.0425117" lon="11.8923814"><ele>337.25</ele><time>2026-04-09T11:23:15.497Z</time></trkpt><trkpt lat="46.0424793" lon="11.89258"><ele>336.0</ele><time>2026-04-09T11:23:16.498Z</time></trkpt><trkpt lat="46.0424261" lon="11.8927903"><ele>334.6666666666667</ele><time>2026-04-09T11:23:17.509Z</time></trkpt><trkpt lat="46.0423729" lon="11.8930051"><ele>333.33333333333337</ele><time>2026-04-09T11:23:18.501Z</time></trkpt><trkpt lat="46.04233" lon="11.8932282"><ele>332.0</ele><time>2026-04-09T11:23:19.511Z</time></trkpt><trkpt lat="46.0422677" lon="11.8934467"><ele>332.0</ele><time>2026-04-09T11:23:20.5Z</time></trkpt><trkpt lat="46.0422152" lon="11.8936833"><ele>332.0</ele><time>2026-04-09T11:23:21.511Z</time></trkpt><trkpt lat="46.0421625" lon="11.8939163"><ele>332.0</ele><time>2026-04-09T11:23:22.504Z</time></trkpt><trkpt lat="46.0421023" lon="11.8941653"><ele>332.0</ele><time>2026-04-09T11:23:23.508Z</time></trkpt><trkpt lat="46.0420486" lon="11.8944243"><ele>332.0</ele><time>2026-04-09T11:23:24.504Z</time></trkpt><trkpt lat="46.0419952" lon="11.8946886"><ele>332.0</ele><time>2026-04-09T11:23:25.499Z</time></trkpt><trkpt lat="46.0419559" lon="11.8949361"><ele>332.33333333333337</ele><time>2026-04-09T11:23:26.508Z</time></trkpt><trkpt lat="46.0419053" lon="11.8951947"><ele>332.6666666666667</ele><time>2026-04-09T11:23:27.496Z</time></trkpt><trkpt lat="46.041852" lon="11.8954559"><ele>333.0</ele><time>2026-04-09T11:23:28.502Z</time></trkpt><trkpt lat="46.0418043" lon="11.8957094"><ele>333.6666666666667</ele><time>2026-04-09T11:23:29.501Z</time></trkpt><trkpt lat="46.0417592" lon="11.8959538"><ele>334.33333333333337</ele><time>2026-04-09T11:23:30.496Z</time></trkpt><trkpt lat="46.0417233" lon="11.8962142"><ele>335.0</ele><time>2026-04-09T11:23:31.501Z</time></trkpt><trkpt lat="46.0416963" lon="11.896451"><ele>335.0</ele><time>2026-04-09T11:23:32.515Z</time></trkpt><trkpt lat="46.0416802" lon="11.8966914"><ele>335.0</ele><time>2026-04-09T11:23:33.524Z</time></trkpt><trkpt lat="46.0416758" lon="11.8969219"><ele>335.0</ele><time>2026-04-09T11:23:34.5Z</time></trkpt><trkpt lat="46.0416731" lon="11.8971772"><ele>334.33333333333337</ele><time>2026-04-09T11:23:35.497Z</time></trkpt><trkpt lat="46.041677" lon="11.8974321"><ele>333.6666666666667</ele><time>2026-04-09T11:23:36.497Z</time></trkpt><trkpt lat="46.0416744" lon="11.8976722"><ele>333.0</ele><time>2026-04-09T11:23:37.503Z</time></trkpt><trkpt lat="46.0416768" lon="11.8979349"><ele>333.0</ele><time>2026-04-09T11:23:38.5Z</time></trkpt><trkpt lat="46.0416791" lon="11.8981933"><ele>333.0</ele><time>2026-04-09T11:23:39.5Z</time></trkpt><trkpt lat="46.0416818" lon="11.8984576"><ele>333.0</ele><time>2026-04-09T11:23:40.51Z</time></trkpt><trkpt lat="46.041681" lon="11.8987178"><ele>334.0</ele><time>2026-04-09T11:23:41.501Z</time></trkpt><trkpt lat="46.0416871" lon="11.8989897"><ele>335.0</ele><time>2026-04-09T11:23:42.498Z</time></trkpt><trkpt lat="46.041682" lon="11.899255"><ele>336.0</ele><time>2026-04-09T11:23:43.496Z</time></trkpt><trkpt lat="46.0416818" lon="11.8994952"><ele>336.5</ele><time>2026-04-09T11:23:44.519Z</time></trkpt><trkpt lat="46.0416757" lon="11.8997199"><ele>337.0</ele><time>2026-04-09T11:23:45.509Z</time></trkpt><trkpt lat="46.0416764" lon="11.8999332"><ele>337.5</ele><time>2026-04-09T11:23:46.506Z</time></trkpt><trkpt lat="46.0416852" lon="11.9001298"><ele>338.0</ele><time>2026-04-09T11:23:47.508Z</time></trkpt><trkpt lat="46.0416943" lon="11.9003168"><ele>338.0</ele><time>2026-04-09T11:23:48.503Z</time></trkpt><trkpt lat="46.0417127" lon="11.90051"><ele>338.0</ele><time>2026-04-09T11:23:49.507Z</time></trkpt><trkpt lat="46.0417239" lon="11.9007055"><ele>338.0</ele><time>2026-04-09T11:23:50.505Z</time></trkpt><trkpt lat="46.0417327" lon="11.9009045"><ele>338.0</ele><time>2026-04-09T11:23:51.502Z</time></trkpt><trkpt lat="46.0417336" lon="11.9011098"><ele>337.75</ele><time>2026-04-09T11:23:52.504Z</time></trkpt><trkpt lat="46.0417156" lon="11.9013158"><ele>337.5</ele><time>2026-04-09T11:23:53.499Z</time></trkpt><trkpt lat="46.0416665" lon="11.9015225"><ele>337.25</ele><time>2026-04-09T11:23:54.507Z</time></trkpt><trkpt lat="46.0416082" lon="11.9017143"><ele>337.0</ele><time>2026-04-09T11:23:55.509Z</time></trkpt><trkpt lat="46.0415294" lon="11.9019164"><ele>335.5</ele><time>2026-04-09T11:23:56.496Z</time></trkpt><trkpt lat="46.041366" lon="11.9023458"><ele>334.0</ele><time>2026-04-09T11:23:58.825Z</time></trkpt><trkpt lat="46.0412006" lon="11.9027586"><ele>334.0</ele><time>2026-04-09T11:24:00.506Z</time></trkpt><trkpt lat="46.0411048" lon="11.9029286"><ele>334.0</ele><time>2026-04-09T11:24:01.513Z</time></trkpt><trkpt lat="46.0410114" lon="11.903077"><ele>334.0</ele><time>2026-04-09T11:24:02.499Z</time></trkpt><trkpt lat="46.0409193" lon="11.9032369"><ele>334.0</ele><time>2026-04-09T11:24:03.508Z</time></trkpt><trkpt lat="46.0408396" lon="11.9033671"><ele>331.75</ele><time>2026-04-09T11:24:04.509Z</time></trkpt><trkpt lat="46.0407735" lon="11.9035006"><ele>329.5</ele><time>2026-04-09T11:24:05.505Z</time></trkpt><trkpt lat="46.0407205" lon="11.9036409"><ele>327.25</ele><time>2026-04-09T11:24:06.506Z</time></trkpt><trkpt lat="46.0406951" lon="11.903809"><ele>325.0</ele><time>2026-04-09T11:24:07.5Z</time></trkpt><trkpt lat="46.0406745" lon="11.9039845"><ele>325.0</ele><time>2026-04-09T11:24:08.532Z</time></trkpt><trkpt lat="46.0406981" lon="11.9041735"><ele>325.0</ele><time>2026-04-09T11:24:09.506Z</time></trkpt><trkpt lat="46.0407272" lon="11.904373"><ele>325.0</ele><time>2026-04-09T11:24:10.503Z</time></trkpt><trkpt lat="46.0407563" lon="11.9045835"><ele>325.0</ele><time>2026-04-09T11:24:11.504Z</time></trkpt><trkpt lat="46.0407648" lon="11.9047775"><ele>324.5</ele><time>2026-04-09T11:24:12.51Z</time></trkpt><trkpt lat="46.040747" lon="11.9049639"><ele>324.0</ele><time>2026-04-09T11:24:13.551Z</time></trkpt><trkpt lat="46.0407271" lon="11.9051521"><ele>323.5</ele><time>2026-04-09T11:24:14.501Z</time></trkpt><trkpt lat="46.0406902" lon="11.9053454"><ele>323.0</ele><time>2026-04-09T11:24:15.51Z</time></trkpt><trkpt lat="46.0406564" lon="11.905529"><ele>321.59999999999997</ele><time>2026-04-09T11:24:16.504Z</time></trkpt><trkpt lat="46.0406169" lon="11.9057072"><ele>320.2</ele><time>2026-04-09T11:24:17.504Z</time></trkpt><trkpt lat="46.0405796" lon="11.9058107"><ele>318.8</ele><time>2026-04-09T11:24:18.496Z</time></trkpt><trkpt lat="46.0405192" lon="11.9059087"><ele>317.4</ele><time>2026-04-09T11:24:19.517Z</time></trkpt><trkpt lat="46.0404243" lon="11.9059666"><ele>316.0</ele><time>2026-04-09T11:24:20.496Z</time></trkpt><trkpt lat="46.0403223" lon="11.9059976"><ele>316.0</ele><time>2026-04-09T11:24:21.6Z</time></trkpt><trkpt lat="46.0402198" lon="11.9059671"><ele>316.0</ele><time>2026-04-09T11:24:22.516Z</time></trkpt><trkpt lat="46.0401138" lon="11.9058957"><ele>316.0</ele><time>2026-04-09T11:24:23.505Z</time></trkpt><trkpt lat="46.0399641" lon="11.9057866"><ele>316.0</ele><time>2026-04-09T11:24:24.505Z</time></trkpt><trkpt lat="46.0398089" lon="11.9056787"><ele>313.5</ele><time>2026-04-09T11:24:25.511Z</time></trkpt><trkpt lat="46.0396742" lon="11.9055737"><ele>311.0</ele><time>2026-04-09T11:24:26.506Z</time></trkpt><trkpt lat="46.0395552" lon="11.9055111"><ele>308.5</ele><time>2026-04-09T11:24:27.512Z</time></trkpt><trkpt lat="46.0394349" lon="11.9055062"><ele>306.0</ele><time>2026-04-09T11:24:28.502Z</time></trkpt><trkpt lat="46.0393158" lon="11.9055385"><ele>306.0</ele><time>2026-04-09T11:24:29.501Z</time></trkpt><trkpt lat="46.0392134" lon="11.9056141"><ele>306.0</ele><time>2026-04-09T11:24:30.51Z</time></trkpt><trkpt lat="46.039136" lon="11.9057577"><ele>306.0</ele><time>2026-04-09T11:24:31.503Z</time></trkpt><trkpt lat="46.0390654" lon="11.9058975"><ele>306.0</ele><time>2026-04-09T11:24:32.644Z</time></trkpt><trkpt lat="46.0389571" lon="11.9063991"><ele>306.0</ele><time>2026-04-09T11:24:34.51Z</time></trkpt><trkpt lat="46.0389051" lon="11.9066858"><ele>306.0</ele><time>2026-04-09T11:24:35.516Z</time></trkpt><trkpt lat="46.0388888" lon="11.9069498"><ele>306.0</ele><time>2026-04-09T11:24:36.502Z</time></trkpt><trkpt lat="46.0389038" lon="11.9072146"><ele>306.0</ele><time>2026-04-09T11:24:37.524Z</time></trkpt><trkpt lat="46.0389249" lon="11.907464"><ele>306.0</ele><time>2026-04-09T11:24:38.508Z</time></trkpt><trkpt lat="46.0389749" lon="11.907694"><ele>306.0</ele><time>2026-04-09T11:24:39.499Z</time></trkpt><trkpt lat="46.039036" lon="11.9079051"><ele>306.25</ele><time>2026-04-09T11:24:40.504Z</time></trkpt><trkpt lat="46.0391168" lon="11.9080816"><ele>306.5</ele><time>2026-04-09T11:24:41.497Z</time></trkpt><trkpt lat="46.0391994" lon="11.9082426"><ele>306.75</ele><time>2026-04-09T11:24:42.516Z</time></trkpt><trkpt lat="46.0392847" lon="11.9083897"><ele>307.0</ele><time>2026-04-09T11:24:43.502Z</time></trkpt><trkpt lat="46.0393778" lon="11.9085436"><ele>307.75</ele><time>2026-04-09T11:24:44.498Z</time></trkpt><trkpt lat="46.0394749" lon="11.9086844"><ele>308.5</ele><time>2026-04-09T11:24:45.516Z</time></trkpt><trkpt lat="46.0395659" lon="11.9088249"><ele>309.25</ele><time>2026-04-09T11:24:46.497Z</time></trkpt><trkpt lat="46.0396623" lon="11.9089764"><ele>310.0</ele><time>2026-04-09T11:24:47.498Z</time></trkpt><trkpt lat="46.0397707" lon="11.9091218"><ele>310.2</ele><time>2026-04-09T11:24:48.502Z</time></trkpt><trkpt lat="46.0398713" lon="11.9092577"><ele>310.4</ele><time>2026-04-09T11:24:49.504Z</time></trkpt><trkpt lat="46.0399561" lon="11.9093631"><ele>310.6</ele><time>2026-04-09T11:24:50.508Z</time></trkpt><trkpt lat="46.0399828" lon="11.9094512"><ele>310.8</ele><time>2026-04-09T11:24:51.503Z</time></trkpt><trkpt lat="46.0400094" lon="11.909602"><ele>311.0</ele><time>2026-04-09T11:24:53.502Z</time></trkpt><trkpt lat="46.0399732" lon="11.9097751"><ele>310.40000000000003</ele><time>2026-04-09T11:24:55.501Z</time></trkpt><trkpt lat="46.0399236" lon="11.9098719"><ele>309.8</ele><time>2026-04-09T11:24:56.498Z</time></trkpt><trkpt lat="46.0398568" lon="11.9099526"><ele>309.20000000000005</ele><time>2026-04-09T11:24:57.507Z</time></trkpt><trkpt lat="46.0397693" lon="11.9100348"><ele>308.6</ele><time>2026-04-09T11:24:58.504Z</time></trkpt><trkpt lat="46.0396193" lon="11.9100924"><ele>308.0</ele><time>2026-04-09T11:24:59.504Z</time></trkpt><trkpt lat="46.0395028" lon="11.9101934"><ele>307.6666666666667</ele><time>2026-04-09T11:25:00.518Z</time></trkpt><trkpt lat="46.0393767" lon="11.9103213"><ele>307.3333333333333</ele><time>2026-04-09T11:25:01.501Z</time></trkpt><trkpt lat="46.0392483" lon="11.9104523"><ele>307.0</ele><time>2026-04-09T11:25:02.51Z</time></trkpt><trkpt lat="46.0390894" lon="11.9105665"><ele>306.3333333333333</ele><time>2026-04-09T11:25:03.507Z</time></trkpt><trkpt lat="46.0389671" lon="11.9107154"><ele>305.6666666666667</ele><time>2026-04-09T11:25:04.508Z</time></trkpt><trkpt lat="46.0388448" lon="11.9108865"><ele>305.0</ele><time>2026-04-09T11:25:05.507Z</time></trkpt><trkpt lat="46.0387263" lon="11.9110703"><ele>306.33333333333337</ele><time>2026-04-09T11:25:06.508Z</time></trkpt><trkpt lat="46.0386083" lon="11.9112541"><ele>307.6666666666667</ele><time>2026-04-09T11:25:07.499Z</time></trkpt><trkpt lat="46.0384975" lon="11.9114502"><ele>309.0</ele><time>2026-04-09T11:25:08.516Z</time></trkpt><trkpt lat="46.0383926" lon="11.9116467"><ele>309.0</ele><time>2026-04-09T11:25:09.504Z</time></trkpt><trkpt lat="46.0382687" lon="11.9118004"><ele>309.0</ele><time>2026-04-09T11:25:10.506Z</time></trkpt><trkpt lat="46.0381316" lon="11.9119408"><ele>309.0</ele><time>2026-04-09T11:25:11.645Z</time></trkpt><trkpt lat="46.0378817" lon="11.9121628"><ele>309.0</ele><time>2026-04-09T11:25:13.508Z</time></trkpt><trkpt lat="46.0377569" lon="11.9122283"><ele>309.0</ele><time>2026-04-09T11:25:14.503Z</time></trkpt><trkpt lat="46.0375978" lon="11.9122734"><ele>309.0</ele><time>2026-04-09T11:25:15.509Z</time></trkpt><trkpt lat="46.0374268" lon="11.9122912"><ele>307.6666666666667</ele><time>2026-04-09T11:25:16.507Z</time></trkpt><trkpt lat="46.0372622" lon="11.9122961"><ele>306.33333333333337</ele><time>2026-04-09T11:25:17.505Z</time></trkpt><trkpt lat="46.0370904" lon="11.9122922"><ele>305.0</ele><time>2026-04-09T11:25:18.514Z</time></trkpt><trkpt lat="46.0369176" lon="11.9122811"><ele>305.0</ele><time>2026-04-09T11:25:19.51Z</time></trkpt><trkpt lat="46.0367367" lon="11.9122718"><ele>305.0</ele><time>2026-04-09T11:25:20.505Z</time></trkpt><trkpt lat="46.0365771" lon="11.9122589"><ele>305.0</ele><time>2026-04-09T11:25:21.515Z</time></trkpt><trkpt lat="46.0364135" lon="11.9122617"><ele>304.6666666666667</ele><time>2026-04-09T11:25:22.498Z</time></trkpt><trkpt lat="46.036235" lon="11.9122535"><ele>304.3333333333333</ele><time>2026-04-09T11:25:23.509Z</time></trkpt><trkpt lat="46.0360505" lon="11.9122482"><ele>304.0</ele><time>2026-04-09T11:25:24.518Z</time></trkpt><trkpt lat="46.0358773" lon="11.9122535"><ele>303.3333333333333</ele><time>2026-04-09T11:25:25.504Z</time></trkpt><trkpt lat="46.0357106" lon="11.912262"><ele>302.6666666666667</ele><time>2026-04-09T11:25:26.503Z</time></trkpt><trkpt lat="46.0355554" lon="11.912262"><ele>302.0</ele><time>2026-04-09T11:25:27.515Z</time></trkpt><trkpt lat="46.0353971" lon="11.9122605"><ele>302.0</ele><time>2026-04-09T11:25:28.597Z</time></trkpt><trkpt lat="46.0352323" lon="11.9122499"><ele>302.0</ele><time>2026-04-09T11:25:29.52Z</time></trkpt><trkpt lat="46.0350794" lon="11.9122469"><ele>302.0</ele><time>2026-04-09T11:25:30.504Z</time></trkpt><trkpt lat="46.0349183" lon="11.9122282"><ele>301.6666666666667</ele><time>2026-04-09T11:25:31.505Z</time></trkpt><trkpt lat="46.0347572" lon="11.9122099"><ele>301.3333333333333</ele><time>2026-04-09T11:25:32.513Z</time></trkpt><trkpt lat="46.0345817" lon="11.9121976"><ele>301.0</ele><time>2026-04-09T11:25:33.504Z</time></trkpt><trkpt lat="46.0344085" lon="11.9121844"><ele>301.0</ele><time>2026-04-09T11:25:34.507Z</time></trkpt><trkpt lat="46.0342421" lon="11.9121736"><ele>301.0</ele><time>2026-04-09T11:25:35.502Z</time></trkpt><trkpt lat="46.0340735" lon="11.9121699"><ele>301.0</ele><time>2026-04-09T11:25:36.495Z</time></trkpt><trkpt lat="46.0339144" lon="11.9121679"><ele>300.75</ele><time>2026-04-09T11:25:37.504Z</time></trkpt><trkpt lat="46.0337719" lon="11.9121732"><ele>300.5</ele><time>2026-04-09T11:25:38.495Z</time></trkpt><trkpt lat="46.0336245" lon="11.9121823"><ele>300.25</ele><time>2026-04-09T11:25:39.506Z</time></trkpt><trkpt lat="46.0334859" lon="11.9121792"><ele>300.0</ele><time>2026-04-09T11:25:40.502Z</time></trkpt><trkpt lat="46.0333502" lon="11.9121933"><ele>299.3333333333333</ele><time>2026-04-09T11:25:41.495Z</time></trkpt><trkpt lat="46.0332121" lon="11.9121975"><ele>298.66666666666663</ele><time>2026-04-09T11:25:42.496Z</time></trkpt><trkpt lat="46.0330786" lon="11.9121938"><ele>298.0</ele><time>2026-04-09T11:25:43.495Z</time></trkpt><trkpt lat="46.0328056" lon="11.9121566"><ele>298.0</ele><time>2026-04-09T11:25:45.505Z</time></trkpt><trkpt lat="46.0326765" lon="11.9121337"><ele>298.0</ele><time>2026-04-09T11:25:46.498Z</time></trkpt><trkpt lat="46.0325535" lon="11.9121175"><ele>298.0</ele><time>2026-04-09T11:25:47.506Z</time></trkpt><trkpt lat="46.032442" lon="11.912103"><ele>298.0</ele><time>2026-04-09T11:25:48.507Z</time></trkpt><trkpt lat="46.0323292" lon="11.9120831"><ele>297.25</ele><time>2026-04-09T11:25:49.504Z</time></trkpt><trkpt lat="46.0322085" lon="11.9120831"><ele>296.5</ele><time>2026-04-09T11:25:50.554Z</time></trkpt><trkpt lat="46.0320892" lon="11.9120802"><ele>295.75</ele><time>2026-04-09T11:25:51.513Z</time></trkpt><trkpt lat="46.0319756" lon="11.9120794"><ele>295.0</ele><time>2026-04-09T11:25:52.515Z</time></trkpt><trkpt lat="46.0318496" lon="11.9120731"><ele>295.0</ele><time>2026-04-09T11:25:53.517Z</time></trkpt><trkpt lat="46.0317212" lon="11.9120586"><ele>295.0</ele><time>2026-04-09T11:25:54.507Z</time></trkpt><trkpt lat="46.0315872" lon="11.9120479"><ele>295.0</ele><time>2026-04-09T11:25:55.498Z</time></trkpt><trkpt lat="46.0314485" lon="11.9120369"><ele>295.0</ele><time>2026-04-09T11:25:56.507Z</time></trkpt><trkpt lat="46.0313034" lon="11.9120288"><ele>294.25</ele><time>2026-04-09T11:25:57.497Z</time></trkpt><trkpt lat="46.0311618" lon="11.9120271"><ele>293.5</ele><time>2026-04-09T11:25:58.514Z</time></trkpt><trkpt lat="46.031028" lon="11.912028"><ele>292.75</ele><time>2026-04-09T11:25:59.502Z</time></trkpt><trkpt lat="46.0308876" lon="11.9120462"><ele>292.0</ele><time>2026-04-09T11:26:00.511Z</time></trkpt><trkpt lat="46.0307442" lon="11.9120666"><ele>291.75</ele><time>2026-04-09T11:26:01.498Z</time></trkpt><trkpt lat="46.0306014" lon="11.912084"><ele>291.5</ele><time>2026-04-09T11:26:02.513Z</time></trkpt><trkpt lat="46.0304615" lon="11.9120975"><ele>291.25</ele><time>2026-04-09T11:26:03.5Z</time></trkpt><trkpt lat="46.0303306" lon="11.9121213"><ele>291.0</ele><time>2026-04-09T11:26:04.526Z</time></trkpt><trkpt lat="46.030201" lon="11.9121523"><ele>291.0</ele><time>2026-04-09T11:26:05.498Z</time></trkpt><trkpt lat="46.0300807" lon="11.9121836"><ele>291.0</ele><time>2026-04-09T11:26:06.51Z</time></trkpt><trkpt lat="46.0299517" lon="11.9122215"><ele>291.0</ele><time>2026-04-09T11:26:07.514Z</time></trkpt><trkpt lat="46.0298256" lon="11.9122547"><ele>291.0</ele><time>2026-04-09T11:26:08.505Z</time></trkpt><trkpt lat="46.0296993" lon="11.912287"><ele>291.0</ele><time>2026-04-09T11:26:09.508Z</time></trkpt><trkpt lat="46.0295652" lon="11.9123244"><ele>291.0</ele><time>2026-04-09T11:26:10.498Z</time></trkpt><trkpt lat="46.0294369" lon="11.9123477"><ele>291.0</ele><time>2026-04-09T11:26:11.513Z</time></trkpt><trkpt lat="46.0293153" lon="11.9123799"><ele>291.0</ele><time>2026-04-09T11:26:12.507Z</time></trkpt><trkpt lat="46.029193" lon="11.9123923"><ele>290.0</ele><time>2026-04-09T11:26:13.523Z</time></trkpt><trkpt lat="46.0290587" lon="11.912412"><ele>289.0</ele><time>2026-04-09T11:26:14.549Z</time></trkpt><trkpt lat="46.0289294" lon="11.9124253"><ele>288.0</ele><time>2026-04-09T11:26:15.505Z</time></trkpt><trkpt lat="46.0288077" lon="11.912439"><ele>287.0</ele><time>2026-04-09T11:26:16.507Z</time></trkpt><trkpt lat="46.0286896" lon="11.9124542"><ele>287.0</ele><time>2026-04-09T11:26:17.514Z</time></trkpt><trkpt lat="46.0285689" lon="11.9124562"><ele>287.0</ele><time>2026-04-09T11:26:18.499Z</time></trkpt><trkpt lat="46.0284397" lon="11.912461"><ele>287.0</ele><time>2026-04-09T11:26:19.498Z</time></trkpt><trkpt lat="46.0283021" lon="11.9124675"><ele>287.0</ele><time>2026-04-09T11:26:20.504Z</time></trkpt><trkpt lat="46.0281595" lon="11.9124769"><ele>287.0</ele><time>2026-04-09T11:26:21.582Z</time></trkpt><trkpt lat="46.0280139" lon="11.9124765"><ele>287.0</ele><time>2026-04-09T11:26:22.502Z</time></trkpt><trkpt lat="46.027863" lon="11.9124837"><ele>287.0</ele><time>2026-04-09T11:26:23.505Z</time></trkpt><trkpt lat="46.0277083" lon="11.9125047"><ele>287.0</ele><time>2026-04-09T11:26:24.515Z</time></trkpt><trkpt lat="46.0275707" lon="11.9125001"><ele>287.0</ele><time>2026-04-09T11:26:25.501Z</time></trkpt><trkpt lat="46.0274375" lon="11.9125013"><ele>287.0</ele><time>2026-04-09T11:26:26.496Z</time></trkpt><trkpt lat="46.0271809" lon="11.9125126"><ele>286.5</ele><time>2026-04-09T11:26:28.517Z</time></trkpt><trkpt lat="46.0270449" lon="11.9125257"><ele>286.0</ele><time>2026-04-09T11:26:29.522Z</time></trkpt><trkpt lat="46.0269092" lon="11.912532"><ele>285.5</ele><time>2026-04-09T11:26:30.5Z</time></trkpt><trkpt lat="46.026778" lon="11.9125331"><ele>285.0</ele><time>2026-04-09T11:26:31.51Z</time></trkpt><trkpt lat="46.0266347" lon="11.9125454"><ele>285.0</ele><time>2026-04-09T11:26:32.499Z</time></trkpt><trkpt lat="46.0264955" lon="11.9125563"><ele>285.0</ele><time>2026-04-09T11:26:33.505Z</time></trkpt><trkpt lat="46.0263581" lon="11.9125544"><ele>285.0</ele><time>2026-04-09T11:26:34.516Z</time></trkpt><trkpt lat="46.0262124" lon="11.9125551"><ele>285.0</ele><time>2026-04-09T11:26:35.521Z</time></trkpt><trkpt lat="46.0260724" lon="11.9125568"><ele>285.0</ele><time>2026-04-09T11:26:36.508Z</time></trkpt><trkpt lat="46.0259317" lon="11.9125545"><ele>285.0</ele><time>2026-04-09T11:26:37.506Z</time></trkpt><trkpt lat="46.0258039" lon="11.9125484"><ele>285.0</ele><time>2026-04-09T11:26:38.519Z</time></trkpt><trkpt lat="46.0256792" lon="11.9125542"><ele>285.0</ele><time>2026-04-09T11:26:39.508Z</time></trkpt><trkpt lat="46.0255371" lon="11.9125548"><ele>284.0</ele><time>2026-04-09T11:26:40.501Z</time></trkpt><trkpt lat="46.025405" lon="11.9125542"><ele>283.0</ele><time>2026-04-09T11:26:41.507Z</time></trkpt><trkpt lat="46.0252777" lon="11.9125522"><ele>282.0</ele><time>2026-04-09T11:26:42.511Z</time></trkpt><trkpt lat="46.0251611" lon="11.91255"><ele>281.0</ele><time>2026-04-09T11:26:43.511Z</time></trkpt><trkpt lat="46.0250705" lon="11.9125347"><ele>280.83333333333337</ele><time>2026-04-09T11:26:44.501Z</time></trkpt><trkpt lat="46.0249635" lon="11.912534"><ele>280.6666666666667</ele><time>2026-04-09T11:26:45.509Z</time></trkpt><trkpt lat="46.0248697" lon="11.9125314"><ele>280.5</ele><time>2026-04-09T11:26:46.501Z</time></trkpt><trkpt lat="46.0247816" lon="11.9125273"><ele>280.3333333333333</ele><time>2026-04-09T11:26:47.501Z</time></trkpt><trkpt lat="46.0247073" lon="11.9125294"><ele>280.16666666666663</ele><time>2026-04-09T11:26:48.515Z</time></trkpt><trkpt lat="46.024634" lon="11.9125321"><ele>280.0</ele><time>2026-04-09T11:26:49.526Z</time></trkpt><trkpt lat="46.0245659" lon="11.9125237"><ele>280.0</ele><time>2026-04-09T11:26:50.499Z</time></trkpt><trkpt lat="46.0244925" lon="11.9125127"><ele>280.0</ele><time>2026-04-09T11:26:51.504Z</time></trkpt><trkpt lat="46.0244207" lon="11.912507"><ele>280.0</ele><time>2026-04-09T11:26:52.501Z</time></trkpt><trkpt lat="46.0243396" lon="11.9125057"><ele>280.0</ele><time>2026-04-09T11:26:53.512Z</time></trkpt><trkpt lat="46.0242463" lon="11.912505"><ele>280.0</ele><time>2026-04-09T11:26:54.506Z</time></trkpt><trkpt lat="46.024168" lon="11.912504"><ele>280.0</ele><time>2026-04-09T11:26:55.52Z</time></trkpt><trkpt lat="46.0240835" lon="11.9124954"><ele>279.66666666666663</ele><time>2026-04-09T11:26:56.495Z</time></trkpt><trkpt lat="46.0239849" lon="11.912494"><ele>279.3333333333333</ele><time>2026-04-09T11:26:57.522Z</time></trkpt><trkpt lat="46.0238976" lon="11.9124878"><ele>279.0</ele><time>2026-04-09T11:26:58.508Z</time></trkpt><trkpt lat="46.0238144" lon="11.9124895"><ele>278.6666666666667</ele><time>2026-04-09T11:26:59.498Z</time></trkpt><trkpt lat="46.0237317" lon="11.9124883"><ele>278.33333333333337</ele><time>2026-04-09T11:27:00.52Z</time></trkpt><trkpt lat="46.0236465" lon="11.9124884"><ele>278.0</ele><time>2026-04-09T11:27:01.501Z</time></trkpt><trkpt lat="46.023566" lon="11.9124817"><ele>278.0</ele><time>2026-04-09T11:27:02.508Z</time></trkpt><trkpt lat="46.0234808" lon="11.9124812"><ele>278.0</ele><time>2026-04-09T11:27:03.511Z</time></trkpt><trkpt lat="46.0233926" lon="11.912484"><ele>278.0</ele><time>2026-04-09T11:27:04.511Z</time></trkpt><trkpt lat="46.0233274" lon="11.9124778"><ele>278.0</ele><time>2026-04-09T11:27:05.517Z</time></trkpt><trkpt lat="46.0232567" lon="11.9124647"><ele>278.0</ele><time>2026-04-09T11:27:06.5Z</time></trkpt><trkpt lat="46.0231483" lon="11.9124554"><ele>278.0</ele><time>2026-04-09T11:27:08.509Z</time></trkpt><trkpt lat="46.0230603" lon="11.9124496"><ele>277.83333333333337</ele><time>2026-04-09T11:27:10.506Z</time></trkpt><trkpt lat="46.0229661" lon="11.9124444"><ele>277.6666666666667</ele><time>2026-04-09T11:27:13.507Z</time></trkpt><trkpt lat="46.0228965" lon="11.912439"><ele>277.5</ele><time>2026-04-09T11:27:15.508Z</time></trkpt><trkpt lat="46.0228331" lon="11.9124248"><ele>277.3333333333333</ele><time>2026-04-09T11:27:17.51Z</time></trkpt><trkpt lat="46.022759" lon="11.9123801"><ele>277.16666666666663</ele><time>2026-04-09T11:27:20.522Z</time></trkpt><trkpt lat="46.022642" lon="11.9123147"><ele>277.0</ele><time>2026-04-09T11:27:22.512Z</time></trkpt><trkpt lat="46.0225496" lon="11.9124148"><ele>277.0</ele><time>2026-04-09T11:27:24.507Z</time></trkpt><trkpt lat="46.0225329" lon="11.9125674"><ele>277.0</ele><time>2026-04-09T11:27:26.494Z</time></trkpt><trkpt lat="46.0225351" lon="11.9126712"><ele>277.0</ele><time>2026-04-09T11:27:27.507Z</time></trkpt><trkpt lat="46.0225842" lon="11.9128912"><ele>277.0</ele><time>2026-04-09T11:27:28.5Z</time></trkpt><trkpt lat="46.0226083" lon="11.9130921"><ele>276.3333333333333</ele><time>2026-04-09T11:27:29.513Z</time></trkpt><trkpt lat="46.0226303" lon="11.9133145"><ele>275.6666666666667</ele><time>2026-04-09T11:27:30.496Z</time></trkpt><trkpt lat="46.0226474" lon="11.91354"><ele>275.0</ele><time>2026-04-09T11:27:31.503Z</time></trkpt><trkpt lat="46.022662" lon="11.9137672"><ele>275.0</ele><time>2026-04-09T11:27:32.518Z</time></trkpt><trkpt lat="46.022675" lon="11.9139951"><ele>275.0</ele><time>2026-04-09T11:27:33.505Z</time></trkpt><trkpt lat="46.0226813" lon="11.9142347"><ele>275.0</ele><time>2026-04-09T11:27:34.516Z</time></trkpt><trkpt lat="46.022691" lon="11.9144761"><ele>275.0</ele><time>2026-04-09T11:27:35.509Z</time></trkpt><trkpt lat="46.0227033" lon="11.9147312"><ele>275.0</ele><time>2026-04-09T11:27:36.516Z</time></trkpt><trkpt lat="46.0227137" lon="11.9149903"><ele>275.0</ele><time>2026-04-09T11:27:37.516Z</time></trkpt><trkpt lat="46.0227308" lon="11.9152482"><ele>276.0</ele><time>2026-04-09T11:27:38.509Z</time></trkpt><trkpt lat="46.0227553" lon="11.915517"><ele>277.0</ele><time>2026-04-09T11:27:39.498Z</time></trkpt><trkpt lat="46.0227618" lon="11.9157606"><ele>278.0</ele><time>2026-04-09T11:27:40.51Z</time></trkpt><trkpt lat="46.0227764" lon="11.9160198"><ele>279.6666666666667</ele><time>2026-04-09T11:27:41.505Z</time></trkpt><trkpt lat="46.022797" lon="11.9162645"><ele>281.3333333333333</ele><time>2026-04-09T11:27:42.51Z</time></trkpt><trkpt lat="46.0228079" lon="11.9165221"><ele>283.0</ele><time>2026-04-09T11:27:43.505Z</time></trkpt><trkpt lat="46.022817" lon="11.916774"><ele>284.0</ele><time>2026-04-09T11:27:44.502Z</time></trkpt><trkpt lat="46.0228315" lon="11.9170262"><ele>285.0</ele><time>2026-04-09T11:27:45.5Z</time></trkpt><trkpt lat="46.0228385" lon="11.9172856"><ele>286.0</ele><time>2026-04-09T11:27:46.505Z</time></trkpt><trkpt lat="46.0228611" lon="11.9175374"><ele>286.3333333333333</ele><time>2026-04-09T11:27:47.505Z</time></trkpt><trkpt lat="46.0228698" lon="11.9177956"><ele>286.6666666666667</ele><time>2026-04-09T11:27:48.507Z</time></trkpt><trkpt lat="46.0228826" lon="11.9180662"><ele>287.0</ele><time>2026-04-09T11:27:49.514Z</time></trkpt><trkpt lat="46.0228928" lon="11.9183387"><ele>288.33333333333337</ele><time>2026-04-09T11:27:50.512Z</time></trkpt><trkpt lat="46.0229035" lon="11.91862"><ele>289.6666666666667</ele><time>2026-04-09T11:27:51.508Z</time></trkpt><trkpt lat="46.0229148" lon="11.9188951"><ele>291.0</ele><time>2026-04-09T11:27:52.507Z</time></trkpt><trkpt lat="46.0229236" lon="11.9191584"><ele>292.0</ele><time>2026-04-09T11:27:53.502Z</time></trkpt><trkpt lat="46.0229317" lon="11.9194178"><ele>293.0</ele><time>2026-04-09T11:27:54.504Z</time></trkpt><trkpt lat="46.0229459" lon="11.9196571"><ele>294.0</ele><time>2026-04-09T11:27:55.514Z</time></trkpt><trkpt lat="46.0229588" lon="11.9198882"><ele>293.75</ele><time>2026-04-09T11:27:56.505Z</time></trkpt><trkpt lat="46.0229631" lon="11.9200737"><ele>293.5</ele><time>2026-04-09T11:27:57.501Z</time></trkpt><trkpt lat="46.0229665" lon="11.9202588"><ele>293.25</ele><time>2026-04-09T11:27:58.507Z</time></trkpt><trkpt lat="46.0229822" lon="11.9204222"><ele>293.0</ele><time>2026-04-09T11:27:59.497Z</time></trkpt><trkpt lat="46.0229917" lon="11.9205465"><ele>293.0</ele><time>2026-04-09T11:28:00.513Z</time></trkpt><trkpt lat="46.0229918" lon="11.9206421"><ele>293.0</ele><time>2026-04-09T11:28:01.509Z</time></trkpt><trkpt lat="46.0230001" lon="11.9207773"><ele>293.0</ele><time>2026-04-09T11:28:03.509Z</time></trkpt><trkpt lat="46.0230088" lon="11.9208695"><ele>293.0</ele><time>2026-04-09T11:28:06.499Z</time></trkpt><trkpt lat="46.0229795" lon="11.9209599"><ele>293.0</ele><time>2026-04-09T11:28:10.519Z</time></trkpt><trkpt lat="46.0229386" lon="11.9210577"><ele>293.0</ele><time>2026-04-09T11:28:12.501Z</time></trkpt><trkpt lat="46.022885" lon="11.9211377"><ele>292.6666666666667</ele><time>2026-04-09T11:28:13.514Z</time></trkpt><trkpt lat="46.0228482" lon="11.9212265"><ele>292.33333333333337</ele><time>2026-04-09T11:28:14.511Z</time></trkpt><trkpt lat="46.0228376" lon="11.921324"><ele>292.0</ele><time>2026-04-09T11:28:15.502Z</time></trkpt><trkpt lat="46.022852" lon="11.9214454"><ele>291.6666666666667</ele><time>2026-04-09T11:28:16.508Z</time></trkpt><trkpt lat="46.0228828" lon="11.921545"><ele>291.3333333333333</ele><time>2026-04-09T11:28:17.51Z</time></trkpt><trkpt lat="46.0229271" lon="11.9216406"><ele>291.0</ele><time>2026-04-09T11:28:18.512Z</time></trkpt><trkpt lat="46.022968" lon="11.9217301"><ele>291.40000000000003</ele><time>2026-04-09T11:28:19.494Z</time></trkpt><trkpt lat="46.0230267" lon="11.9218235"><ele>291.8</ele><time>2026-04-09T11:28:20.508Z</time></trkpt><trkpt lat="46.0230887" lon="11.9219404"><ele>292.20000000000005</ele><time>2026-04-09T11:28:21.517Z</time></trkpt><trkpt lat="46.0231466" lon="11.9220704"><ele>292.6</ele><time>2026-04-09T11:28:22.518Z</time></trkpt><trkpt lat="46.0231977" lon="11.9222175"><ele>293.0</ele><time>2026-04-09T11:28:23.508Z</time></trkpt><trkpt lat="46.0232444" lon="11.9223577"><ele>293.0</ele><time>2026-04-09T11:28:24.504Z</time></trkpt><trkpt lat="46.0232863" lon="11.9224957"><ele>293.0</ele><time>2026-04-09T11:28:25.506Z</time></trkpt><trkpt lat="46.023339" lon="11.9226107"><ele>293.0</ele><time>2026-04-09T11:28:26.505Z</time></trkpt><trkpt lat="46.0233917" lon="11.9227497"><ele>293.0</ele><time>2026-04-09T11:28:27.509Z</time></trkpt><trkpt lat="46.023449" lon="11.9228781"><ele>293.0</ele><time>2026-04-09T11:28:28.506Z</time></trkpt><trkpt lat="46.0234877" lon="11.9230019"><ele>293.4</ele><time>2026-04-09T11:28:29.506Z</time></trkpt><trkpt lat="46.0235363" lon="11.9231339"><ele>293.8</ele><time>2026-04-09T11:28:30.506Z</time></trkpt><trkpt lat="46.0236038" lon="11.923277"><ele>294.2</ele><time>2026-04-09T11:28:31.506Z</time></trkpt><trkpt lat="46.0236544" lon="11.923391"><ele>294.6</ele><time>2026-04-09T11:28:32.498Z</time></trkpt><trkpt lat="46.0237095" lon="11.9235"><ele>295.0</ele><time>2026-04-09T11:28:33.502Z</time></trkpt><trkpt lat="46.0237685" lon="11.9236196"><ele>295.4</ele><time>2026-04-09T11:28:34.5Z</time></trkpt><trkpt lat="46.0238218" lon="11.9237351"><ele>295.8</ele><time>2026-04-09T11:28:35.512Z</time></trkpt><trkpt lat="46.0238878" lon="11.9238748"><ele>296.2</ele><time>2026-04-09T11:28:36.522Z</time></trkpt><trkpt lat="46.0239551" lon="11.9239944"><ele>296.6</ele><time>2026-04-09T11:28:37.511Z</time></trkpt><trkpt lat="46.0240162" lon="11.9241053"><ele>297.0</ele><time>2026-04-09T11:28:38.499Z</time></trkpt><trkpt lat="46.0241101" lon="11.9242369"><ele>297.0</ele><time>2026-04-09T11:28:39.509Z</time></trkpt><trkpt lat="46.0242101" lon="11.9243771"><ele>297.0</ele><time>2026-04-09T11:28:40.496Z</time></trkpt><trkpt lat="46.0242791" lon="11.9244969"><ele>297.0</ele><time>2026-04-09T11:28:41.496Z</time></trkpt><trkpt lat="46.0243365" lon="11.9245866"><ele>297.0</ele><time>2026-04-09T11:28:42.732Z</time></trkpt><trkpt lat="46.0244557" lon="11.9247742"><ele>297.0</ele><time>2026-04-09T11:28:44.503Z</time></trkpt><trkpt lat="46.0245111" lon="11.9248416"><ele>297.0</ele><time>2026-04-09T11:28:45.521Z</time></trkpt><trkpt lat="46.0245893" lon="11.9249257"><ele>297.0</ele><time>2026-04-09T11:28:46.5Z</time></trkpt><trkpt lat="46.0246288" lon="11.9250079"><ele>297.0</ele><time>2026-04-09T11:28:47.512Z</time></trkpt><trkpt lat="46.0246925" lon="11.9250852"><ele>297.0</ele><time>2026-04-09T11:28:48.5Z</time></trkpt><trkpt lat="46.0247382" lon="11.9251981"><ele>297.0</ele><time>2026-04-09T11:28:49.519Z</time></trkpt><trkpt lat="46.0247923" lon="11.9252945"><ele>297.0</ele><time>2026-04-09T11:28:50.499Z</time></trkpt><trkpt lat="46.0248494" lon="11.9253613"><ele>297.0</ele><time>2026-04-09T11:28:51.505Z</time></trkpt><trkpt lat="46.0248925" lon="11.9254429"><ele>297.0</ele><time>2026-04-09T11:28:52.504Z</time></trkpt><trkpt lat="46.0249349" lon="11.9255301"><ele>297.0</ele><time>2026-04-09T11:28:53.516Z</time></trkpt><trkpt lat="46.0249693" lon="11.9256111"><ele>297.0</ele><time>2026-04-09T11:28:54.505Z</time></trkpt><trkpt lat="46.0250076" lon="11.9257468"><ele>297.0</ele><time>2026-04-09T11:28:56.498Z</time></trkpt><trkpt lat="46.0250559" lon="11.9258291"><ele>297.4</ele><time>2026-04-09T11:28:57.506Z</time></trkpt><trkpt lat="46.025121" lon="11.9259785"><ele>297.79999999999995</ele><time>2026-04-09T11:28:59.51Z</time></trkpt><trkpt lat="46.0251774" lon="11.9261359"><ele>298.2</ele><time>2026-04-09T11:29:01.525Z</time></trkpt><trkpt lat="46.0252089" lon="11.9262323"><ele>298.59999999999997</ele><time>2026-04-09T11:29:02.512Z</time></trkpt><trkpt lat="46.0252438" lon="11.9263755"><ele>299.0</ele><time>2026-04-09T11:29:04.501Z</time></trkpt><trkpt lat="46.0253014" lon="11.9265329"><ele>299.0</ele><time>2026-04-09T11:29:06.522Z</time></trkpt><trkpt lat="46.0253317" lon="11.9266245"><ele>299.0</ele><time>2026-04-09T11:29:07.509Z</time></trkpt><trkpt lat="46.0253624" lon="11.9267302"><ele>299.0</ele><time>2026-04-09T11:29:08.495Z</time></trkpt><trkpt lat="46.0253929" lon="11.9268226"><ele>299.0</ele><time>2026-04-09T11:29:09.496Z</time></trkpt><trkpt lat="46.0254296" lon="11.9269168"><ele>299.0</ele><time>2026-04-09T11:29:10.505Z</time></trkpt><trkpt lat="46.0254622" lon="11.9270168"><ele>299.0</ele><time>2026-04-09T11:29:11.498Z</time></trkpt><trkpt lat="46.0254896" lon="11.9271077"><ele>299.0</ele><time>2026-04-09T11:29:12.521Z</time></trkpt><trkpt lat="46.0255181" lon="11.9272099"><ele>299.6666666666667</ele><time>2026-04-09T11:29:13.498Z</time></trkpt><trkpt lat="46.0255563" lon="11.9273561"><ele>300.33333333333337</ele><time>2026-04-09T11:29:14.501Z</time></trkpt><trkpt lat="46.0255971" lon="11.9274785"><ele>301.0</ele><time>2026-04-09T11:29:15.513Z</time></trkpt><trkpt lat="46.0256331" lon="11.9275837"><ele>301.6666666666667</ele><time>2026-04-09T11:29:16.518Z</time></trkpt><trkpt lat="46.0256691" lon="11.9276632"><ele>302.3333333333333</ele><time>2026-04-09T11:29:17.5Z</time></trkpt><trkpt lat="46.0257054" lon="11.9277759"><ele>303.0</ele><time>2026-04-09T11:29:18.504Z</time></trkpt><trkpt lat="46.0257474" lon="11.9279074"><ele>302.5</ele><time>2026-04-09T11:29:19.516Z</time></trkpt><trkpt lat="46.0257758" lon="11.9280288"><ele>302.0</ele><time>2026-04-09T11:29:20.497Z</time></trkpt><trkpt lat="46.025856" lon="11.9282247"><ele>301.5</ele><time>2026-04-09T11:29:21.497Z</time></trkpt><trkpt lat="46.0259093" lon="11.9284673"><ele>301.0</ele><time>2026-04-09T11:29:22.506Z</time></trkpt><trkpt lat="46.0259676" lon="11.92872"><ele>301.0</ele><time>2026-04-09T11:29:23.517Z</time></trkpt><trkpt lat="46.0260473" lon="11.9289733"><ele>301.0</ele><time>2026-04-09T11:29:24.503Z</time></trkpt><trkpt lat="46.0261325" lon="11.9292059"><ele>301.0</ele><time>2026-04-09T11:29:25.506Z</time></trkpt><trkpt lat="46.0261951" lon="11.9293837"><ele>302.75</ele><time>2026-04-09T11:29:26.505Z</time></trkpt><trkpt lat="46.026242" lon="11.9295566"><ele>304.5</ele><time>2026-04-09T11:29:27.507Z</time></trkpt><trkpt lat="46.0262829" lon="11.9297334"><ele>306.25</ele><time>2026-04-09T11:29:28.509Z</time></trkpt><trkpt lat="46.0263371" lon="11.9299499"><ele>308.0</ele><time>2026-04-09T11:29:29.509Z</time></trkpt><trkpt lat="46.0264035" lon="11.9302213"><ele>309.6666666666667</ele><time>2026-04-09T11:29:30.497Z</time></trkpt><trkpt lat="46.0264452" lon="11.9304845"><ele>311.3333333333333</ele><time>2026-04-09T11:29:31.502Z</time></trkpt><trkpt lat="46.0264886" lon="11.9307338"><ele>313.0</ele><time>2026-04-09T11:29:32.509Z</time></trkpt><trkpt lat="46.0265263" lon="11.9309757"><ele>314.25</ele><time>2026-04-09T11:29:33.521Z</time></trkpt><trkpt lat="46.0265483" lon="11.9311827"><ele>315.5</ele><time>2026-04-09T11:29:34.509Z</time></trkpt><trkpt lat="46.0265854" lon="11.9314072"><ele>316.75</ele><time>2026-04-09T11:29:35.508Z</time></trkpt><trkpt lat="46.0265926" lon="11.9315822"><ele>318.0</ele><time>2026-04-09T11:29:36.52Z</time></trkpt><trkpt lat="46.0266057" lon="11.9317772"><ele>318.3333333333333</ele><time>2026-04-09T11:29:37.518Z</time></trkpt><trkpt lat="46.0266286" lon="11.9319766"><ele>318.66666666666663</ele><time>2026-04-09T11:29:38.507Z</time></trkpt><trkpt lat="46.0266509" lon="11.9322249"><ele>319.0</ele><time>2026-04-09T11:29:39.509Z</time></trkpt><trkpt lat="46.0266642" lon="11.9324718"><ele>314.3333333333333</ele><time>2026-04-09T11:29:40.497Z</time></trkpt><trkpt lat="46.0266513" lon="11.9327079"><ele>309.6666666666667</ele><time>2026-04-09T11:29:41.504Z</time></trkpt><trkpt lat="46.0266541" lon="11.9329396"><ele>305.0</ele><time>2026-04-09T11:29:42.502Z</time></trkpt><trkpt lat="46.0266531" lon="11.9331505"><ele>305.33333333333337</ele><time>2026-04-09T11:29:43.521Z</time></trkpt><trkpt lat="46.0266802" lon="11.9334004"><ele>305.6666666666667</ele><time>2026-04-09T11:29:44.5Z</time></trkpt><trkpt lat="46.0266814" lon="11.9336546"><ele>306.0</ele><time>2026-04-09T11:29:45.51Z</time></trkpt><trkpt lat="46.0266983" lon="11.9339439"><ele>306.0</ele><time>2026-04-09T11:29:46.504Z</time></trkpt><trkpt lat="46.0266969" lon="11.9342179"><ele>306.0</ele><time>2026-04-09T11:29:47.507Z</time></trkpt><trkpt lat="46.0267314" lon="11.9345072"><ele>306.0</ele><time>2026-04-09T11:29:48.51Z</time></trkpt><trkpt lat="46.0267642" lon="11.934784"><ele>306.6666666666667</ele><time>2026-04-09T11:29:49.494Z</time></trkpt><trkpt lat="46.0267822" lon="11.935052"><ele>307.33333333333337</ele><time>2026-04-09T11:29:50.491Z</time></trkpt><trkpt lat="46.0268367" lon="11.9353112"><ele>308.0</ele><time>2026-04-09T11:29:51.508Z</time></trkpt><trkpt lat="46.0268882" lon="11.9355465"><ele>308.0</ele><time>2026-04-09T11:29:52.501Z</time></trkpt><trkpt lat="46.0269474" lon="11.9357822"><ele>308.0</ele><time>2026-04-09T11:29:53.498Z</time></trkpt><trkpt lat="46.0269987" lon="11.9359983"><ele>308.0</ele><time>2026-04-09T11:29:54.499Z</time></trkpt><trkpt lat="46.0270509" lon="11.9362235"><ele>310.33333333333337</ele><time>2026-04-09T11:29:55.507Z</time></trkpt><trkpt lat="46.0271036" lon="11.9364541"><ele>312.6666666666667</ele><time>2026-04-09T11:29:56.502Z</time></trkpt><trkpt lat="46.0271268" lon="11.9366666"><ele>315.0</ele><time>2026-04-09T11:29:57.496Z</time></trkpt><trkpt lat="46.0271637" lon="11.9368933"><ele>315.3333333333333</ele><time>2026-04-09T11:29:58.506Z</time></trkpt><trkpt lat="46.0272068" lon="11.9371218"><ele>315.66666666666663</ele><time>2026-04-09T11:29:59.51Z</time></trkpt><trkpt lat="46.0272572" lon="11.9373502"><ele>316.0</ele><time>2026-04-09T11:30:00.515Z</time></trkpt><trkpt lat="46.0272893" lon="11.9375803"><ele>314.66666666666663</ele><time>2026-04-09T11:30:01.512Z</time></trkpt><trkpt lat="46.027328" lon="11.9378124"><ele>313.3333333333333</ele><time>2026-04-09T11:30:02.503Z</time></trkpt><trkpt lat="46.027374" lon="11.9380427"><ele>312.0</ele><time>2026-04-09T11:30:03.505Z</time></trkpt><trkpt lat="46.0274213" lon="11.9382738"><ele>310.3333333333333</ele><time>2026-04-09T11:30:04.498Z</time></trkpt><trkpt lat="46.0274692" lon="11.9385053"><ele>308.66666666666663</ele><time>2026-04-09T11:30:05.515Z</time></trkpt><trkpt lat="46.027532" lon="11.9387524"><ele>307.0</ele><time>2026-04-09T11:30:06.501Z</time></trkpt><trkpt lat="46.027609" lon="11.9390441"><ele>306.3333333333333</ele><time>2026-04-09T11:30:07.517Z</time></trkpt><trkpt lat="46.0276983" lon="11.9393368"><ele>305.6666666666667</ele><time>2026-04-09T11:30:08.498Z</time></trkpt><trkpt lat="46.0277909" lon="11.9396235"><ele>305.0</ele><time>2026-04-09T11:30:09.498Z</time></trkpt><trkpt lat="46.0278687" lon="11.9399286"><ele>306.6666666666667</ele><time>2026-04-09T11:30:10.507Z</time></trkpt><trkpt lat="46.0279445" lon="11.94021"><ele>308.3333333333333</ele><time>2026-04-09T11:30:11.511Z</time></trkpt><trkpt lat="46.0280246" lon="11.9404884"><ele>310.0</ele><time>2026-04-09T11:30:12.51Z</time></trkpt><trkpt lat="46.0280962" lon="11.9407226"><ele>310.3333333333333</ele><time>2026-04-09T11:30:13.509Z</time></trkpt><trkpt lat="46.0281713" lon="11.9409754"><ele>310.6666666666667</ele><time>2026-04-09T11:30:14.503Z</time></trkpt><trkpt lat="46.0282491" lon="11.9412427"><ele>311.0</ele><time>2026-04-09T11:30:15.511Z</time></trkpt><trkpt lat="46.0283235" lon="11.9415062"><ele>312.33333333333337</ele><time>2026-04-09T11:30:16.501Z</time></trkpt><trkpt lat="46.0283961" lon="11.9417449"><ele>313.6666666666667</ele><time>2026-04-09T11:30:17.525Z</time></trkpt><trkpt lat="46.0284561" lon="11.9419771"><ele>315.0</ele><time>2026-04-09T11:30:18.51Z</time></trkpt><trkpt lat="46.0285115" lon="11.9422035"><ele>315.0</ele><time>2026-04-09T11:30:19.501Z</time></trkpt><trkpt lat="46.0285761" lon="11.9424102"><ele>315.0</ele><time>2026-04-09T11:30:20.53Z</time></trkpt><trkpt lat="46.0286377" lon="11.9426186"><ele>315.0</ele><time>2026-04-09T11:30:21.511Z</time></trkpt><trkpt lat="46.0287025" lon="11.9428121"><ele>315.0</ele><time>2026-04-09T11:30:22.499Z</time></trkpt><trkpt lat="46.0287639" lon="11.9430072"><ele>315.0</ele><time>2026-04-09T11:30:23.505Z</time></trkpt><trkpt lat="46.0288301" lon="11.9431963"><ele>315.0</ele><time>2026-04-09T11:30:24.502Z</time></trkpt><trkpt lat="46.0288968" lon="11.9433903"><ele>315.0</ele><time>2026-04-09T11:30:25.509Z</time></trkpt><trkpt lat="46.0289572" lon="11.9435792"><ele>315.5</ele><time>2026-04-09T11:30:26.501Z</time></trkpt><trkpt lat="46.0290087" lon="11.9437875"><ele>316.0</ele><time>2026-04-09T11:30:27.514Z</time></trkpt><trkpt lat="46.0291413" lon="11.9442358"><ele>315.66666666666663</ele><time>2026-04-09T11:30:29.505Z</time></trkpt><trkpt lat="46.0292042" lon="11.9444561"><ele>315.3333333333333</ele><time>2026-04-09T11:30:30.511Z</time></trkpt><trkpt lat="46.0292674" lon="11.9446926"><ele>315.0</ele><time>2026-04-09T11:30:31.51Z</time></trkpt><trkpt lat="46.0293151" lon="11.9449057"><ele>314.3333333333333</ele><time>2026-04-09T11:30:32.504Z</time></trkpt><trkpt lat="46.0293579" lon="11.9451175"><ele>313.66666666666663</ele><time>2026-04-09T11:30:33.519Z</time></trkpt><trkpt lat="46.029414" lon="11.9453612"><ele>313.0</ele><time>2026-04-09T11:30:34.511Z</time></trkpt><trkpt lat="46.0294541" lon="11.9455926"><ele>313.0</ele><time>2026-04-09T11:30:35.508Z</time></trkpt><trkpt lat="46.0294903" lon="11.945828"><ele>313.0</ele><time>2026-04-09T11:30:36.499Z</time></trkpt><trkpt lat="46.0295317" lon="11.9460746"><ele>313.0</ele><time>2026-04-09T11:30:37.506Z</time></trkpt><trkpt lat="46.0295667" lon="11.9463073"><ele>313.0</ele><time>2026-04-09T11:30:38.506Z</time></trkpt><trkpt lat="46.0296069" lon="11.9465453"><ele>313.0</ele><time>2026-04-09T11:30:39.499Z</time></trkpt><trkpt lat="46.029653" lon="11.9467954"><ele>313.0</ele><time>2026-04-09T11:30:40.502Z</time></trkpt><trkpt lat="46.0297063" lon="11.9470415"><ele>313.0</ele><time>2026-04-09T11:30:41.503Z</time></trkpt><trkpt lat="46.0297696" lon="11.9473219"><ele>313.0</ele><time>2026-04-09T11:30:42.51Z</time></trkpt><trkpt lat="46.0298274" lon="11.9476358"><ele>313.0</ele><time>2026-04-09T11:30:43.503Z</time></trkpt><trkpt lat="46.0298819" lon="11.9479652"><ele>312.66666666666663</ele><time>2026-04-09T11:30:44.502Z</time></trkpt><trkpt lat="46.0299187" lon="11.9482801"><ele>312.3333333333333</ele><time>2026-04-09T11:30:45.511Z</time></trkpt><trkpt lat="46.0299573" lon="11.9485706"><ele>312.0</ele><time>2026-04-09T11:30:46.506Z</time></trkpt><trkpt lat="46.0300063" lon="11.9488464"><ele>312.0</ele><time>2026-04-09T11:30:47.502Z</time></trkpt><trkpt lat="46.0300523" lon="11.9491227"><ele>312.0</ele><time>2026-04-09T11:30:48.503Z</time></trkpt><trkpt lat="46.0300987" lon="11.9493734"><ele>312.0</ele><time>2026-04-09T11:30:49.5Z</time></trkpt><trkpt lat="46.0301434" lon="11.9496211"><ele>311.0</ele><time>2026-04-09T11:30:50.513Z</time></trkpt><trkpt lat="46.0301926" lon="11.9498566"><ele>310.0</ele><time>2026-04-09T11:30:51.497Z</time></trkpt><trkpt lat="46.030237" lon="11.9500842"><ele>309.0</ele><time>2026-04-09T11:30:52.512Z</time></trkpt><trkpt lat="46.0302749" lon="11.9503231"><ele>308.3333333333333</ele><time>2026-04-09T11:30:53.507Z</time></trkpt><trkpt lat="46.0303177" lon="11.9505652"><ele>307.66666666666663</ele><time>2026-04-09T11:30:54.505Z</time></trkpt><trkpt lat="46.0303633" lon="11.9507975"><ele>307.0</ele><time>2026-04-09T11:30:55.507Z</time></trkpt><trkpt lat="46.0304044" lon="11.9510117"><ele>307.0</ele><time>2026-04-09T11:30:56.518Z</time></trkpt><trkpt lat="46.0304451" lon="11.9512502"><ele>307.0</ele><time>2026-04-09T11:30:57.513Z</time></trkpt><trkpt lat="46.0304821" lon="11.9514951"><ele>307.0</ele><time>2026-04-09T11:30:58.5Z</time></trkpt><trkpt lat="46.0305329" lon="11.9517315"><ele>306.0</ele><time>2026-04-09T11:30:59.502Z</time></trkpt><trkpt lat="46.0305647" lon="11.9519598"><ele>305.0</ele><time>2026-04-09T11:31:00.51Z</time></trkpt><trkpt lat="46.0305968" lon="11.9521989"><ele>304.0</ele><time>2026-04-09T11:31:01.508Z</time></trkpt><trkpt lat="46.0306211" lon="11.952428"><ele>303.66666666666663</ele><time>2026-04-09T11:31:02.497Z</time></trkpt><trkpt lat="46.0306514" lon="11.9526422"><ele>303.3333333333333</ele><time>2026-04-09T11:31:03.511Z</time></trkpt><trkpt lat="46.0306856" lon="11.952874"><ele>303.0</ele><time>2026-04-09T11:31:04.502Z</time></trkpt><trkpt lat="46.0307166" lon="11.9531108"><ele>303.0</ele><time>2026-04-09T11:31:05.512Z</time></trkpt><trkpt lat="46.0307401" lon="11.9533679"><ele>303.0</ele><time>2026-04-09T11:31:06.525Z</time></trkpt><trkpt lat="46.0307764" lon="11.953663"><ele>303.0</ele><time>2026-04-09T11:31:07.513Z</time></trkpt><trkpt lat="46.030804" lon="11.9539886"><ele>300.5</ele><time>2026-04-09T11:31:08.503Z</time></trkpt><trkpt lat="46.030809" lon="11.9543217"><ele>298.0</ele><time>2026-04-09T11:31:09.501Z</time></trkpt><trkpt lat="46.0308343" lon="11.954646"><ele>298.0</ele><time>2026-04-09T11:31:10.52Z</time></trkpt><trkpt lat="46.0308661" lon="11.9549952"><ele>298.0</ele><time>2026-04-09T11:31:11.513Z</time></trkpt><trkpt lat="46.0309023" lon="11.9553026"><ele>297.66666666666663</ele><time>2026-04-09T11:31:12.495Z</time></trkpt><trkpt lat="46.030922" lon="11.9555911"><ele>297.3333333333333</ele><time>2026-04-09T11:31:13.511Z</time></trkpt><trkpt lat="46.0309513" lon="11.9558539"><ele>297.0</ele><time>2026-04-09T11:31:14.509Z</time></trkpt><trkpt lat="46.0309886" lon="11.9561373"><ele>296.6666666666667</ele><time>2026-04-09T11:31:15.504Z</time></trkpt><trkpt lat="46.0310248" lon="11.9563959"><ele>296.33333333333337</ele><time>2026-04-09T11:31:16.508Z</time></trkpt><trkpt lat="46.0310691" lon="11.9566878"><ele>296.0</ele><time>2026-04-09T11:31:17.518Z</time></trkpt><trkpt lat="46.0310955" lon="11.9570035"><ele>295.0</ele><time>2026-04-09T11:31:18.498Z</time></trkpt><trkpt lat="46.0311309" lon="11.9573048"><ele>294.0</ele><time>2026-04-09T11:31:19.497Z</time></trkpt><trkpt lat="46.0311629" lon="11.9576248"><ele>293.0</ele><time>2026-04-09T11:31:20.501Z</time></trkpt><trkpt lat="46.0311952" lon="11.9579623"><ele>292.33333333333337</ele><time>2026-04-09T11:31:21.511Z</time></trkpt><trkpt lat="46.0312095" lon="11.9582723"><ele>291.6666666666667</ele><time>2026-04-09T11:31:22.51Z</time></trkpt><trkpt lat="46.0312357" lon="11.9585618"><ele>291.0</ele><time>2026-04-09T11:31:23.503Z</time></trkpt><trkpt lat="46.0312596" lon="11.9588007"><ele>290.8</ele><time>2026-04-09T11:31:24.501Z</time></trkpt><trkpt lat="46.0312681" lon="11.9589514"><ele>290.6</ele><time>2026-04-09T11:31:25.513Z</time></trkpt><trkpt lat="46.0312613" lon="11.9590985"><ele>290.4</ele><time>2026-04-09T11:31:26.498Z</time></trkpt><trkpt lat="46.0312744" lon="11.9592758"><ele>290.2</ele><time>2026-04-09T11:31:28.508Z</time></trkpt><trkpt lat="46.0312856" lon="11.9593853"><ele>290.0</ele><time>2026-04-09T11:31:29.498Z</time></trkpt><trkpt lat="46.0312853" lon="11.959482"><ele>289.6666666666667</ele><time>2026-04-09T11:31:31.503Z</time></trkpt><trkpt lat="46.0313122" lon="11.9595746"><ele>289.33333333333337</ele><time>2026-04-09T11:31:38.496Z</time></trkpt><trkpt lat="46.0313013" lon="11.959697"><ele>289.0</ele><time>2026-04-09T11:31:44.498Z</time></trkpt><trkpt lat="46.0312833" lon="11.9597942"><ele>288.6666666666667</ele><time>2026-04-09T11:31:48.494Z</time></trkpt><trkpt lat="46.0312488" lon="11.96"><ele>288.3333333333333</ele><time>2026-04-09T11:31:51.509Z</time></trkpt><trkpt lat="46.0312604" lon="11.9601061"><ele>288.0</ele><time>2026-04-09T11:31:52.515Z</time></trkpt><trkpt lat="46.0312887" lon="11.9602445"><ele>287.6666666666667</ele><time>2026-04-09T11:31:53.509Z</time></trkpt><trkpt lat="46.0313284" lon="11.9604499"><ele>287.33333333333337</ele><time>2026-04-09T11:31:54.501Z</time></trkpt><trkpt lat="46.0313439" lon="11.9606787"><ele>287.0</ele><time>2026-04-09T11:31:55.505Z</time></trkpt><trkpt lat="46.0313728" lon="11.9609471"><ele>286.6666666666667</ele><time>2026-04-09T11:31:56.501Z</time></trkpt><trkpt lat="46.031397" lon="11.9612111"><ele>286.3333333333333</ele><time>2026-04-09T11:31:57.502Z</time></trkpt><trkpt lat="46.031429" lon="11.9614753"><ele>286.0</ele><time>2026-04-09T11:31:58.505Z</time></trkpt><trkpt lat="46.0314421" lon="11.9617507"><ele>286.0</ele><time>2026-04-09T11:31:59.498Z</time></trkpt><trkpt lat="46.0314911" lon="11.9619848"><ele>286.0</ele><time>2026-04-09T11:32:00.518Z</time></trkpt><trkpt lat="46.0315676" lon="11.962212"><ele>286.0</ele><time>2026-04-09T11:32:01.497Z</time></trkpt><trkpt lat="46.0316461" lon="11.9624326"><ele>286.3333333333333</ele><time>2026-04-09T11:32:02.508Z</time></trkpt><trkpt lat="46.0317428" lon="11.9626335"><ele>286.6666666666667</ele><time>2026-04-09T11:32:03.501Z</time></trkpt><trkpt lat="46.0318417" lon="11.9628518"><ele>287.0</ele><time>2026-04-09T11:32:04.494Z</time></trkpt><trkpt lat="46.0319805" lon="11.9630866"><ele>287.0</ele><time>2026-04-09T11:32:05.505Z</time></trkpt><trkpt lat="46.0321106" lon="11.9633223"><ele>287.0</ele><time>2026-04-09T11:32:06.507Z</time></trkpt><trkpt lat="46.032254" lon="11.9635713"><ele>287.0</ele><time>2026-04-09T11:32:07.515Z</time></trkpt><trkpt lat="46.0323694" lon="11.9637802"><ele>284.6666666666667</ele><time>2026-04-09T11:32:08.495Z</time></trkpt><trkpt lat="46.032496" lon="11.9639843"><ele>282.3333333333333</ele><time>2026-04-09T11:32:09.491Z</time></trkpt><trkpt lat="46.0326217" lon="11.9641985"><ele>280.0</ele><time>2026-04-09T11:32:10.512Z</time></trkpt><trkpt lat="46.0327466" lon="11.964443"><ele>278.3333333333333</ele><time>2026-04-09T11:32:11.511Z</time></trkpt><trkpt lat="46.0328733" lon="11.9646783"><ele>276.6666666666667</ele><time>2026-04-09T11:32:12.503Z</time></trkpt><trkpt lat="46.0329745" lon="11.9649307"><ele>275.0</ele><time>2026-04-09T11:32:13.508Z</time></trkpt><trkpt lat="46.0330712" lon="11.9652154"><ele>274.33333333333337</ele><time>2026-04-09T11:32:14.512Z</time></trkpt><trkpt lat="46.0331514" lon="11.9654559"><ele>273.6666666666667</ele><time>2026-04-09T11:32:15.505Z</time></trkpt><trkpt lat="46.0332093" lon="11.9657146"><ele>273.0</ele><time>2026-04-09T11:32:16.499Z</time></trkpt><trkpt lat="46.0333054" lon="11.9660123"><ele>273.6666666666667</ele><time>2026-04-09T11:32:17.504Z</time></trkpt><trkpt lat="46.0333862" lon="11.9662561"><ele>274.33333333333337</ele><time>2026-04-09T11:32:18.504Z</time></trkpt><trkpt lat="46.0334489" lon="11.9665167"><ele>275.0</ele><time>2026-04-09T11:32:19.503Z</time></trkpt><trkpt lat="46.0334935" lon="11.9667954"><ele>273.6666666666667</ele><time>2026-04-09T11:32:20.513Z</time></trkpt><trkpt lat="46.033512" lon="11.9670641"><ele>272.3333333333333</ele><time>2026-04-09T11:32:21.503Z</time></trkpt><trkpt lat="46.0335267" lon="11.9673455"><ele>271.0</ele><time>2026-04-09T11:32:22.5Z</time></trkpt><trkpt lat="46.033529" lon="11.9676139"><ele>269.3333333333333</ele><time>2026-04-09T11:32:23.506Z</time></trkpt><trkpt lat="46.033533" lon="11.9678912"><ele>267.6666666666667</ele><time>2026-04-09T11:32:24.504Z</time></trkpt><trkpt lat="46.0335215" lon="11.9681656"><ele>266.0</ele><time>2026-04-09T11:32:25.506Z</time></trkpt><trkpt lat="46.0335143" lon="11.9683904"><ele>265.6666666666667</ele><time>2026-04-09T11:32:26.506Z</time></trkpt><trkpt lat="46.0335046" lon="11.9686351"><ele>265.3333333333333</ele><time>2026-04-09T11:32:27.497Z</time></trkpt><trkpt lat="46.0334984" lon="11.9688143"><ele>265.0</ele><time>2026-04-09T11:32:28.505Z</time></trkpt><trkpt lat="46.0335" lon="11.9690386"><ele>265.3333333333333</ele><time>2026-04-09T11:32:29.505Z</time></trkpt><trkpt lat="46.0334864" lon="11.9692698"><ele>265.6666666666667</ele><time>2026-04-09T11:32:30.504Z</time></trkpt><trkpt lat="46.0334986" lon="11.9695289"><ele>266.0</ele><time>2026-04-09T11:32:31.501Z</time></trkpt><trkpt lat="46.0335058" lon="11.9697566"><ele>266.0</ele><time>2026-04-09T11:32:32.509Z</time></trkpt><trkpt lat="46.0335338" lon="11.9699987"><ele>266.0</ele><time>2026-04-09T11:32:33.516Z</time></trkpt><trkpt lat="46.0335784" lon="11.9702214"><ele>266.0</ele><time>2026-04-09T11:32:34.505Z</time></trkpt><trkpt lat="46.0336449" lon="11.970443"><ele>265.0</ele><time>2026-04-09T11:32:35.51Z</time></trkpt><trkpt lat="46.0337193" lon="11.9706517"><ele>264.0</ele><time>2026-04-09T11:32:36.521Z</time></trkpt><trkpt lat="46.0337887" lon="11.970856"><ele>263.0</ele><time>2026-04-09T11:32:37.516Z</time></trkpt><trkpt lat="46.0338418" lon="11.9710433"><ele>262.75</ele><time>2026-04-09T11:32:38.504Z</time></trkpt><trkpt lat="46.0338952" lon="11.9712137"><ele>262.5</ele><time>2026-04-09T11:32:39.502Z</time></trkpt><trkpt lat="46.0339767" lon="11.9714171"><ele>262.25</ele><time>2026-04-09T11:32:40.504Z</time></trkpt><trkpt lat="46.0340437" lon="11.9716003"><ele>262.0</ele><time>2026-04-09T11:32:41.496Z</time></trkpt><trkpt lat="46.0341227" lon="11.9717866"><ele>263.0</ele><time>2026-04-09T11:32:42.513Z</time></trkpt><trkpt lat="46.0341892" lon="11.9719927"><ele>264.0</ele><time>2026-04-09T11:32:43.492Z</time></trkpt><trkpt lat="46.0342635" lon="11.9721786"><ele>265.0</ele><time>2026-04-09T11:32:44.505Z</time></trkpt><trkpt lat="46.034335" lon="11.9723746"><ele>264.66666666666663</ele><time>2026-04-09T11:32:45.504Z</time></trkpt><trkpt lat="46.0344022" lon="11.9725736"><ele>264.3333333333333</ele><time>2026-04-09T11:32:46.508Z</time></trkpt><trkpt lat="46.0344797" lon="11.9727879"><ele>264.0</ele><time>2026-04-09T11:32:47.501Z</time></trkpt><trkpt lat="46.034564" lon="11.9729868"><ele>264.0</ele><time>2026-04-09T11:32:48.511Z</time></trkpt><trkpt lat="46.0346528" lon="11.9731733"><ele>264.0</ele><time>2026-04-09T11:32:49.503Z</time></trkpt><trkpt lat="46.0347368" lon="11.9733815"><ele>264.0</ele><time>2026-04-09T11:32:50.498Z</time></trkpt><trkpt lat="46.0348201" lon="11.9735964"><ele>264.3333333333333</ele><time>2026-04-09T11:32:51.498Z</time></trkpt><trkpt lat="46.034896" lon="11.973795"><ele>264.66666666666663</ele><time>2026-04-09T11:32:52.511Z</time></trkpt><trkpt lat="46.0349649" lon="11.9739767"><ele>265.0</ele><time>2026-04-09T11:32:53.505Z</time></trkpt><trkpt lat="46.035055" lon="11.974178"><ele>264.0</ele><time>2026-04-09T11:32:54.501Z</time></trkpt><trkpt lat="46.035131" lon="11.9743899"><ele>263.0</ele><time>2026-04-09T11:32:55.504Z</time></trkpt><trkpt lat="46.0352217" lon="11.9745979"><ele>262.0</ele><time>2026-04-09T11:32:56.497Z</time></trkpt><trkpt lat="46.0353188" lon="11.9748196"><ele>262.0</ele><time>2026-04-09T11:32:57.502Z</time></trkpt><trkpt lat="46.0354143" lon="11.9750284"><ele>262.0</ele><time>2026-04-09T11:32:58.5Z</time></trkpt><trkpt lat="46.0354908" lon="11.975245"><ele>262.0</ele><time>2026-04-09T11:32:59.498Z</time></trkpt><trkpt lat="46.0355736" lon="11.9754603"><ele>262.0</ele><time>2026-04-09T11:33:00.505Z</time></trkpt><trkpt lat="46.0356453" lon="11.9756625"><ele>262.0</ele><time>2026-04-09T11:33:01.503Z</time></trkpt><trkpt lat="46.0357232" lon="11.9758727"><ele>262.0</ele><time>2026-04-09T11:33:02.506Z</time></trkpt><trkpt lat="46.0358104" lon="11.9760806"><ele>260.3333333333333</ele><time>2026-04-09T11:33:03.501Z</time></trkpt><trkpt lat="46.0358763" lon="11.9762401"><ele>258.6666666666667</ele><time>2026-04-09T11:33:04.498Z</time></trkpt><trkpt lat="46.0359498" lon="11.9764278"><ele>257.0</ele><time>2026-04-09T11:33:05.5Z</time></trkpt><trkpt lat="46.0360451" lon="11.9766499"><ele>257.5</ele><time>2026-04-09T11:33:06.5Z</time></trkpt><trkpt lat="46.0361171" lon="11.9768343"><ele>258.0</ele><time>2026-04-09T11:33:07.502Z</time></trkpt><trkpt lat="46.0361946" lon="11.9770044"><ele>258.5</ele><time>2026-04-09T11:33:08.503Z</time></trkpt><trkpt lat="46.0362765" lon="11.9771993"><ele>259.0</ele><time>2026-04-09T11:33:09.508Z</time></trkpt><trkpt lat="46.0363527" lon="11.9774007"><ele>260.66666666666663</ele><time>2026-04-09T11:33:10.497Z</time></trkpt><trkpt lat="46.036438" lon="11.9776115"><ele>262.3333333333333</ele><time>2026-04-09T11:33:11.505Z</time></trkpt><trkpt lat="46.0365227" lon="11.9778028"><ele>264.0</ele><time>2026-04-09T11:33:12.498Z</time></trkpt><trkpt lat="46.0366153" lon="11.9780074"><ele>263.0</ele><time>2026-04-09T11:33:13.502Z</time></trkpt><trkpt lat="46.0366974" lon="11.9782048"><ele>262.0</ele><time>2026-04-09T11:33:14.506Z</time></trkpt><trkpt lat="46.0367688" lon="11.9784032"><ele>261.0</ele><time>2026-04-09T11:33:15.509Z</time></trkpt><trkpt lat="46.036855" lon="11.9786015"><ele>261.0</ele><time>2026-04-09T11:33:16.502Z</time></trkpt><trkpt lat="46.0369353" lon="11.97879"><ele>261.0</ele><time>2026-04-09T11:33:17.502Z</time></trkpt><trkpt lat="46.0370074" lon="11.9789699"><ele>261.0</ele><time>2026-04-09T11:33:18.507Z</time></trkpt><trkpt lat="46.0370778" lon="11.9791312"><ele>261.0</ele><time>2026-04-09T11:33:19.508Z</time></trkpt><trkpt lat="46.0371423" lon="11.9793179"><ele>259.5</ele><time>2026-04-09T11:33:20.507Z</time></trkpt><trkpt lat="46.0372237" lon="11.9795061"><ele>258.0</ele><time>2026-04-09T11:33:21.505Z</time></trkpt><trkpt lat="46.0373032" lon="11.9796869"><ele>256.5</ele><time>2026-04-09T11:33:22.503Z</time></trkpt><trkpt lat="46.037377" lon="11.9798464"><ele>255.0</ele><time>2026-04-09T11:33:23.512Z</time></trkpt><trkpt lat="46.0374385" lon="11.9800014"><ele>253.0</ele><time>2026-04-09T11:33:24.507Z</time></trkpt><trkpt lat="46.0375155" lon="11.9801836"><ele>251.0</ele><time>2026-04-09T11:33:25.5Z</time></trkpt><trkpt lat="46.0375836" lon="11.9803439"><ele>249.0</ele><time>2026-04-09T11:33:26.509Z</time></trkpt><trkpt lat="46.0376478" lon="11.9804993"><ele>247.0</ele><time>2026-04-09T11:33:27.499Z</time></trkpt><trkpt lat="46.0377188" lon="11.9806247"><ele>247.0</ele><time>2026-04-09T11:33:28.511Z</time></trkpt><trkpt lat="46.0377669" lon="11.9807548"><ele>247.0</ele><time>2026-04-09T11:33:29.502Z</time></trkpt><trkpt lat="46.0378211" lon="11.980879"><ele>247.0</ele><time>2026-04-09T11:33:30.505Z</time></trkpt><trkpt lat="46.0378879" lon="11.9810114"><ele>247.0</ele><time>2026-04-09T11:33:31.505Z</time></trkpt><trkpt lat="46.0379414" lon="11.9811385"><ele>247.0</ele><time>2026-04-09T11:33:32.504Z</time></trkpt><trkpt lat="46.0379881" lon="11.981242"><ele>247.0</ele><time>2026-04-09T11:33:33.501Z</time></trkpt><trkpt lat="46.0380277" lon="11.9813727"><ele>247.0</ele><time>2026-04-09T11:33:34.514Z</time></trkpt><trkpt lat="46.0380706" lon="11.9814955"><ele>247.0</ele><time>2026-04-09T11:33:35.504Z</time></trkpt><trkpt lat="46.0381094" lon="11.9816086"><ele>247.0</ele><time>2026-04-09T11:33:36.5Z</time></trkpt><trkpt lat="46.0381505" lon="11.9817339"><ele>247.0</ele><time>2026-04-09T11:33:37.502Z</time></trkpt><trkpt lat="46.0381942" lon="11.9818399"><ele>246.8</ele><time>2026-04-09T11:33:38.496Z</time></trkpt><trkpt lat="46.0382443" lon="11.9819583"><ele>246.6</ele><time>2026-04-09T11:33:39.501Z</time></trkpt><trkpt lat="46.0382944" lon="11.9820754"><ele>246.40000000000003</ele><time>2026-04-09T11:33:40.509Z</time></trkpt><trkpt lat="46.0383474" lon="11.9821871"><ele>246.20000000000002</ele><time>2026-04-09T11:33:41.493Z</time></trkpt><trkpt lat="46.0383907" lon="11.9822894"><ele>246.0</ele><time>2026-04-09T11:33:42.507Z</time></trkpt><trkpt lat="46.0384498" lon="11.9824247"><ele>246.0</ele><time>2026-04-09T11:33:43.505Z</time></trkpt><trkpt lat="46.0384828" lon="11.9825308"><ele>246.0</ele><time>2026-04-09T11:33:44.508Z</time></trkpt><trkpt lat="46.0385247" lon="11.9826469"><ele>246.0</ele><time>2026-04-09T11:33:45.501Z</time></trkpt><trkpt lat="46.0385551" lon="11.9827446"><ele>246.0</ele><time>2026-04-09T11:33:46.505Z</time></trkpt><trkpt lat="46.0385683" lon="11.9828825"><ele>246.0</ele><time>2026-04-09T11:33:47.501Z</time></trkpt><trkpt lat="46.038555" lon="11.9829959"><ele>246.0</ele><time>2026-04-09T11:33:48.501Z</time></trkpt><trkpt lat="46.038557" lon="11.9831009"><ele>246.0</ele><time>2026-04-09T11:33:49.508Z</time></trkpt><trkpt lat="46.0385827" lon="11.9832156"><ele>246.00000000000003</ele><time>2026-04-09T11:33:50.5Z</time></trkpt><trkpt lat="46.0386206" lon="11.9833259"><ele>246.00000000000003</ele><time>2026-04-09T11:33:51.504Z</time></trkpt><trkpt lat="46.0386667" lon="11.9834109"><ele>246.0</ele><time>2026-04-09T11:33:52.498Z</time></trkpt><trkpt lat="46.0387128" lon="11.9835372"><ele>246.0</ele><time>2026-04-09T11:33:53.505Z</time></trkpt><trkpt lat="46.0387269" lon="11.9836921"><ele>246.0</ele><time>2026-04-09T11:33:54.501Z</time></trkpt><trkpt lat="46.0387281" lon="11.9838477"><ele>246.0</ele><time>2026-04-09T11:33:55.507Z</time></trkpt><trkpt lat="46.0387127" lon="11.9840294"><ele>246.0</ele><time>2026-04-09T11:33:56.513Z</time></trkpt><trkpt lat="46.0386682" lon="11.9842823"><ele>246.0</ele><time>2026-04-09T11:33:57.497Z</time></trkpt><trkpt lat="46.0386045" lon="11.9844714"><ele>244.0</ele><time>2026-04-09T11:33:58.499Z</time></trkpt><trkpt lat="46.0385362" lon="11.9846722"><ele>242.0</ele><time>2026-04-09T11:33:59.503Z</time></trkpt><trkpt lat="46.0384411" lon="11.9849026"><ele>240.0</ele><time>2026-04-09T11:34:00.501Z</time></trkpt><trkpt lat="46.0383493" lon="11.9851331"><ele>240.66666666666669</ele><time>2026-04-09T11:34:01.503Z</time></trkpt><trkpt lat="46.0382523" lon="11.9853489"><ele>241.33333333333334</ele><time>2026-04-09T11:34:02.493Z</time></trkpt><trkpt lat="46.038175" lon="11.9855501"><ele>242.0</ele><time>2026-04-09T11:34:03.501Z</time></trkpt><trkpt lat="46.0381152" lon="11.9857562"><ele>239.0</ele><time>2026-04-09T11:34:04.501Z</time></trkpt><trkpt lat="46.0380679" lon="11.9859841"><ele>236.0</ele><time>2026-04-09T11:34:05.498Z</time></trkpt><trkpt lat="46.0380526" lon="11.9862147"><ele>233.0</ele><time>2026-04-09T11:34:06.498Z</time></trkpt><trkpt lat="46.0380149" lon="11.9864585"><ele>232.66666666666669</ele><time>2026-04-09T11:34:07.649Z</time></trkpt><trkpt lat="46.0379881" lon="11.9868761"><ele>232.33333333333331</ele><time>2026-04-09T11:34:09.5Z</time></trkpt><trkpt lat="46.0379994" lon="11.9870825"><ele>232.0</ele><time>2026-04-09T11:34:10.5Z</time></trkpt><trkpt lat="46.0379933" lon="11.9872565"><ele>232.0</ele><time>2026-04-09T11:34:11.514Z</time></trkpt><trkpt lat="46.0379937" lon="11.9874338"><ele>232.0</ele><time>2026-04-09T11:34:12.495Z</time></trkpt><trkpt lat="46.0379871" lon="11.9876248"><ele>232.0</ele><time>2026-04-09T11:34:13.498Z</time></trkpt><trkpt lat="46.0379804" lon="11.9878256"><ele>232.0</ele><time>2026-04-09T11:34:14.493Z</time></trkpt><trkpt lat="46.0379939" lon="11.9880405"><ele>232.5</ele><time>2026-04-09T11:34:15.496Z</time></trkpt><trkpt lat="46.0380153" lon="11.9882432"><ele>233.0</ele><time>2026-04-09T11:34:16.498Z</time></trkpt><trkpt lat="46.0379884" lon="11.9884477"><ele>233.5</ele><time>2026-04-09T11:34:17.504Z</time></trkpt><trkpt lat="46.038011" lon="11.9886173"><ele>234.0</ele><time>2026-04-09T11:34:18.494Z</time></trkpt><trkpt lat="46.0380662" lon="11.9888016"><ele>234.66666666666669</ele><time>2026-04-09T11:34:19.508Z</time></trkpt><trkpt lat="46.0380997" lon="11.9889807"><ele>235.33333333333334</ele><time>2026-04-09T11:34:20.49Z</time></trkpt><trkpt lat="46.0381652" lon="11.9893269"><ele>236.0</ele><time>2026-04-09T11:34:22.5Z</time></trkpt><trkpt lat="46.0381827" lon="11.9895346"><ele>237.0</ele><time>2026-04-09T11:34:23.513Z</time></trkpt><trkpt lat="46.038213" lon="11.9897557"><ele>238.0</ele><time>2026-04-09T11:34:24.5Z</time></trkpt><trkpt lat="46.0382268" lon="11.9899802"><ele>239.0</ele><time>2026-04-09T11:34:25.502Z</time></trkpt><trkpt lat="46.0382232" lon="11.9902052"><ele>239.33333333333334</ele><time>2026-04-09T11:34:26.495Z</time></trkpt><trkpt lat="46.0382077" lon="11.9904231"><ele>239.66666666666669</ele><time>2026-04-09T11:34:27.501Z</time></trkpt><trkpt lat="46.0381852" lon="11.9906448"><ele>240.0</ele><time>2026-04-09T11:34:28.507Z</time></trkpt><trkpt lat="46.0381658" lon="11.9908484"><ele>240.0</ele><time>2026-04-09T11:34:29.519Z</time></trkpt><trkpt lat="46.0381432" lon="11.9910536"><ele>240.0</ele><time>2026-04-09T11:34:30.506Z</time></trkpt><trkpt lat="46.0381263" lon="11.9912384"><ele>240.0</ele><time>2026-04-09T11:34:31.505Z</time></trkpt><trkpt lat="46.0381107" lon="11.9914162"><ele>240.0</ele><time>2026-04-09T11:34:32.496Z</time></trkpt><trkpt lat="46.0380984" lon="11.9915916"><ele>240.25</ele><time>2026-04-09T11:34:33.49Z</time></trkpt><trkpt lat="46.0380788" lon="11.991771"><ele>240.5</ele><time>2026-04-09T11:34:34.504Z</time></trkpt><trkpt lat="46.0380668" lon="11.9919569"><ele>240.75</ele><time>2026-04-09T11:34:35.491Z</time></trkpt><trkpt lat="46.0380546" lon="11.9921504"><ele>241.0</ele><time>2026-04-09T11:34:36.493Z</time></trkpt><trkpt lat="46.0380432" lon="11.9923416"><ele>240.75</ele><time>2026-04-09T11:34:37.52Z</time></trkpt><trkpt lat="46.0380297" lon="11.9925369"><ele>240.5</ele><time>2026-04-09T11:34:38.516Z</time></trkpt><trkpt lat="46.0380084" lon="11.9927281"><ele>240.25</ele><time>2026-04-09T11:34:39.502Z</time></trkpt><trkpt lat="46.0379894" lon="11.9929159"><ele>240.0</ele><time>2026-04-09T11:34:40.506Z</time></trkpt><trkpt lat="46.0379737" lon="11.9930986"><ele>240.0</ele><time>2026-04-09T11:34:41.695Z</time></trkpt><trkpt lat="46.0379377" lon="11.9934584"><ele>240.0</ele><time>2026-04-09T11:34:43.499Z</time></trkpt><trkpt lat="46.0379146" lon="11.9936316"><ele>240.0</ele><time>2026-04-09T11:34:44.502Z</time></trkpt><trkpt lat="46.0378804" lon="11.9938028"><ele>240.0</ele><time>2026-04-09T11:34:45.493Z</time></trkpt><trkpt lat="46.0378678" lon="11.9939724"><ele>240.0</ele><time>2026-04-09T11:34:46.509Z</time></trkpt><trkpt lat="46.0378572" lon="11.9941542"><ele>240.0</ele><time>2026-04-09T11:34:47.504Z</time></trkpt><trkpt lat="46.0378469" lon="11.9943617"><ele>240.0</ele><time>2026-04-09T11:34:48.516Z</time></trkpt><trkpt lat="46.0378338" lon="11.9945584"><ele>240.5</ele><time>2026-04-09T11:34:49.501Z</time></trkpt><trkpt lat="46.0378181" lon="11.9947632"><ele>241.0</ele><time>2026-04-09T11:34:50.528Z</time></trkpt><trkpt lat="46.0378015" lon="11.9949553"><ele>241.5</ele><time>2026-04-09T11:34:51.519Z</time></trkpt><trkpt lat="46.0377821" lon="11.9951333"><ele>242.0</ele><time>2026-04-09T11:34:52.504Z</time></trkpt><trkpt lat="46.0377694" lon="11.9952675"><ele>242.0</ele><time>2026-04-09T11:34:53.506Z</time></trkpt><trkpt lat="46.0377665" lon="11.9954168"><ele>242.0</ele><time>2026-04-09T11:34:55.494Z</time></trkpt><trkpt lat="46.0378207" lon="11.9952621"><ele>242.0</ele><time>2026-04-09T11:34:59.49Z</time></trkpt><trkpt lat="46.037832" lon="11.9951297"><ele>242.0</ele><time>2026-04-09T11:35:00.512Z</time></trkpt><trkpt lat="46.0378432" lon="11.9949566"><ele>242.0</ele><time>2026-04-09T11:35:01.499Z</time></trkpt><trkpt lat="46.0378626" lon="11.9947497"><ele>242.0</ele><time>2026-04-09T11:35:02.506Z</time></trkpt><trkpt lat="46.0378869" lon="11.9945047"><ele>242.0</ele><time>2026-04-09T11:35:03.492Z</time></trkpt><trkpt lat="46.0379206" lon="11.9942377"><ele>242.0</ele><time>2026-04-09T11:35:04.49Z</time></trkpt><trkpt lat="46.0379449" lon="11.9939563"><ele>241.33333333333334</ele><time>2026-04-09T11:35:05.502Z</time></trkpt><trkpt lat="46.0379758" lon="11.9936497"><ele>240.66666666666669</ele><time>2026-04-09T11:35:06.497Z</time></trkpt><trkpt lat="46.0380116" lon="11.9933324"><ele>240.0</ele><time>2026-04-09T11:35:07.505Z</time></trkpt><trkpt lat="46.0380472" lon="11.9929961"><ele>240.0</ele><time>2026-04-09T11:35:08.496Z</time></trkpt><trkpt lat="46.0380807" lon="11.9926735"><ele>240.0</ele><time>2026-04-09T11:35:09.501Z</time></trkpt><trkpt lat="46.0381084" lon="11.9923762"><ele>240.0</ele><time>2026-04-09T11:35:10.509Z</time></trkpt><trkpt lat="46.0381366" lon="11.9921127"><ele>240.0</ele><time>2026-04-09T11:35:11.504Z</time></trkpt><trkpt lat="46.0381556" lon="11.9918694"><ele>240.0</ele><time>2026-04-09T11:35:12.506Z</time></trkpt><trkpt lat="46.0381732" lon="11.9916872"><ele>240.0</ele><time>2026-04-09T11:35:13.508Z</time></trkpt><trkpt lat="46.0381841" lon="11.9915346"><ele>240.0</ele><time>2026-04-09T11:35:14.5Z</time></trkpt><trkpt lat="46.0381937" lon="11.9914351"><ele>240.0</ele><time>2026-04-09T11:35:15.509Z</time></trkpt><trkpt lat="46.038267" lon="11.9913974"><ele>240.0</ele><time>2026-04-09T11:35:18.496Z</time></trkpt><trkpt lat="46.0383722" lon="11.9915307"><ele>240.0</ele><time>2026-04-09T11:35:20.502Z</time></trkpt><trkpt lat="46.0384136" lon="11.9916125"><ele>240.0</ele><time>2026-04-09T11:35:21.509Z</time></trkpt><trkpt lat="46.0384678" lon="11.9916985"><ele>240.0</ele><time>2026-04-09T11:35:22.5Z</time></trkpt><trkpt lat="46.0385108" lon="11.9917888"><ele>240.0</ele><time>2026-04-09T11:35:23.506Z</time></trkpt><trkpt lat="46.0385481" lon="11.9919316"><ele>240.0</ele><time>2026-04-09T11:35:24.506Z</time></trkpt><trkpt lat="46.038586" lon="11.9920603"><ele>240.0</ele><time>2026-04-09T11:35:25.499Z</time></trkpt><trkpt lat="46.0386074" lon="11.9921972"><ele>240.0</ele><time>2026-04-09T11:35:26.502Z</time></trkpt><trkpt lat="46.0386294" lon="11.992329"><ele>240.0</ele><time>2026-04-09T11:35:27.506Z</time></trkpt><trkpt lat="46.0386595" lon="11.9924674"><ele>240.0</ele><time>2026-04-09T11:35:28.501Z</time></trkpt><trkpt lat="46.0386888" lon="11.9925959"><ele>240.0</ele><time>2026-04-09T11:35:29.506Z</time></trkpt><trkpt lat="46.0387097" lon="11.9927347"><ele>240.0</ele><time>2026-04-09T11:35:30.503Z</time></trkpt><trkpt lat="46.0387418" lon="11.9928625"><ele>240.0</ele><time>2026-04-09T11:35:31.505Z</time></trkpt><trkpt lat="46.0387747" lon="11.9929642"><ele>240.0</ele><time>2026-04-09T11:35:32.504Z</time></trkpt><trkpt lat="46.0388027" lon="11.9931047"><ele>240.0</ele><time>2026-04-09T11:35:34.501Z</time></trkpt><trkpt lat="46.0388553" lon="11.9931709"><ele>240.0</ele><time>2026-04-09T11:35:36.505Z</time></trkpt><trkpt lat="46.0389973" lon="11.9931751"><ele>240.0</ele><time>2026-04-09T11:35:38.493Z</time></trkpt><trkpt lat="46.0390782" lon="11.993177"><ele>240.0</ele><time>2026-04-09T11:35:39.491Z</time></trkpt><trkpt lat="46.0391635" lon="11.9931922"><ele>240.0</ele><time>2026-04-09T11:35:40.501Z</time></trkpt><trkpt lat="46.0392327" lon="11.9932052"><ele>240.0</ele><time>2026-04-09T11:35:41.505Z</time></trkpt><trkpt lat="46.0392954" lon="11.9932389"><ele>240.0</ele><time>2026-04-09T11:35:42.5Z</time></trkpt><trkpt lat="46.0393558" lon="11.9932861"><ele>240.0</ele><time>2026-04-09T11:35:43.501Z</time></trkpt><trkpt lat="46.0394205" lon="11.99335"><ele>239.5</ele><time>2026-04-09T11:35:44.511Z</time></trkpt><trkpt lat="46.0394849" lon="11.9934167"><ele>239.0</ele><time>2026-04-09T11:35:45.496Z</time></trkpt><trkpt lat="46.0395571" lon="11.9934903"><ele>238.5</ele><time>2026-04-09T11:35:46.493Z</time></trkpt><trkpt lat="46.0396265" lon="11.9935573"><ele>238.0</ele><time>2026-04-09T11:35:47.493Z</time></trkpt><trkpt lat="46.0396908" lon="11.9936205"><ele>237.5</ele><time>2026-04-09T11:35:48.502Z</time></trkpt><trkpt lat="46.0397558" lon="11.9936754"><ele>237.0</ele><time>2026-04-09T11:35:49.504Z</time></trkpt><trkpt lat="46.0398766" lon="11.9937589"><ele>237.0</ele><time>2026-04-09T11:35:51.506Z</time></trkpt><trkpt lat="46.0399394" lon="11.993794"><ele>237.0</ele><time>2026-04-09T11:35:52.51Z</time></trkpt><trkpt lat="46.0400001" lon="11.993839"><ele>237.0</ele><time>2026-04-09T11:35:53.499Z</time></trkpt><trkpt lat="46.0400703" lon="11.9940012"><ele>237.0</ele><time>2026-04-09T11:35:55.504Z</time></trkpt><trkpt lat="46.0401084" lon="11.9941085"><ele>237.0</ele><time>2026-04-09T11:35:56.504Z</time></trkpt><trkpt lat="46.040166" lon="11.9942284"><ele>236.8</ele><time>2026-04-09T11:35:57.498Z</time></trkpt><trkpt lat="46.040232" lon="11.9943343"><ele>236.6</ele><time>2026-04-09T11:35:58.508Z</time></trkpt><trkpt lat="46.0403032" lon="11.9944243"><ele>236.40000000000003</ele><time>2026-04-09T11:35:59.508Z</time></trkpt><trkpt lat="46.0403769" lon="11.9945124"><ele>236.20000000000002</ele><time>2026-04-09T11:36:00.515Z</time></trkpt><trkpt lat="46.040446" lon="11.9946083"><ele>236.0</ele><time>2026-04-09T11:36:01.513Z</time></trkpt><trkpt lat="46.040515" lon="11.9947065"><ele>236.0</ele><time>2026-04-09T11:36:02.515Z</time></trkpt><trkpt lat="46.0405786" lon="11.9947997"><ele>236.00000000000003</ele><time>2026-04-09T11:36:03.502Z</time></trkpt><trkpt lat="46.0406449" lon="11.9949176"><ele>236.00000000000003</ele><time>2026-04-09T11:36:04.503Z</time></trkpt><trkpt lat="46.0407159" lon="11.995021"><ele>236.0</ele><time>2026-04-09T11:36:05.497Z</time></trkpt><trkpt lat="46.040789" lon="11.995132"><ele>236.0</ele><time>2026-04-09T11:36:06.506Z</time></trkpt><trkpt lat="46.040859" lon="11.9952431"><ele>236.0</ele><time>2026-04-09T11:36:07.513Z</time></trkpt><trkpt lat="46.0409403" lon="11.9953622"><ele>236.00000000000003</ele><time>2026-04-09T11:36:08.502Z</time></trkpt><trkpt lat="46.041" lon="11.9954466"><ele>236.00000000000003</ele><time>2026-04-09T11:36:09.498Z</time></trkpt><trkpt lat="46.041051" lon="11.9955684"><ele>236.0</ele><time>2026-04-09T11:36:10.508Z</time></trkpt><trkpt lat="46.0410867" lon="11.9956943"><ele>236.0</ele><time>2026-04-09T11:36:11.507Z</time></trkpt><trkpt lat="46.0411098" lon="11.9958441"><ele>236.0</ele><time>2026-04-09T11:36:12.498Z</time></trkpt><trkpt lat="46.0411346" lon="11.9959688"><ele>236.00000000000003</ele><time>2026-04-09T11:36:13.5Z</time></trkpt><trkpt lat="46.0411576" lon="11.996086"><ele>236.00000000000003</ele><time>2026-04-09T11:36:14.507Z</time></trkpt><trkpt lat="46.0411551" lon="11.9962469"><ele>236.0</ele><time>2026-04-09T11:36:16.504Z</time></trkpt><trkpt lat="46.0411264" lon="11.9963321"><ele>236.0</ele><time>2026-04-09T11:36:17.509Z</time></trkpt><trkpt lat="46.0410182" lon="11.9964475"><ele>236.00000000000003</ele><time>2026-04-09T11:36:19.493Z</time></trkpt><trkpt lat="46.040961" lon="11.9965315"><ele>236.0</ele><time>2026-04-09T11:36:20.503Z</time></trkpt><trkpt lat="46.0409096" lon="11.9966127"><ele>236.0</ele><time>2026-04-09T11:36:21.505Z</time></trkpt><trkpt lat="46.0408635" lon="11.9967219"><ele>236.0</ele><time>2026-04-09T11:36:22.493Z</time></trkpt><trkpt lat="46.0408321" lon="11.9968509"><ele>236.00000000000003</ele><time>2026-04-09T11:36:23.508Z</time></trkpt><trkpt lat="46.0408204" lon="11.9969983"><ele>236.0</ele><time>2026-04-09T11:36:24.497Z</time></trkpt><trkpt lat="46.0408008" lon="11.9971691"><ele>236.5</ele><time>2026-04-09T11:36:25.505Z</time></trkpt><trkpt lat="46.040778" lon="11.997326"><ele>237.0</ele><time>2026-04-09T11:36:26.516Z</time></trkpt><trkpt lat="46.0407523" lon="11.997497"><ele>237.5</ele><time>2026-04-09T11:36:27.515Z</time></trkpt><trkpt lat="46.0407084" lon="11.9976763"><ele>238.0</ele><time>2026-04-09T11:36:28.496Z</time></trkpt><trkpt lat="46.0406731" lon="11.9978347"><ele>237.99999999999997</ele><time>2026-04-09T11:36:29.516Z</time></trkpt><trkpt lat="46.0406338" lon="11.9979751"><ele>238.0</ele><time>2026-04-09T11:36:30.499Z</time></trkpt><trkpt lat="46.0405842" lon="11.9981015"><ele>238.0</ele><time>2026-04-09T11:36:31.504Z</time></trkpt><trkpt lat="46.0405298" lon="11.9982104"><ele>238.0</ele><time>2026-04-09T11:36:32.506Z</time></trkpt><trkpt lat="46.0404745" lon="11.9982604"><ele>237.99999999999997</ele><time>2026-04-09T11:36:33.504Z</time></trkpt><trkpt lat="46.0404181" lon="11.9983167"><ele>238.0</ele><time>2026-04-09T11:36:34.51Z</time></trkpt><trkpt lat="46.0403346" lon="11.9983926"><ele>238.2</ele><time>2026-04-09T11:36:36.496Z</time></trkpt><trkpt lat="46.0403146" lon="11.9984975"><ele>238.4</ele><time>2026-04-09T11:36:38.503Z</time></trkpt><trkpt lat="46.0403709" lon="11.9986202"><ele>238.59999999999997</ele><time>2026-04-09T11:36:40.507Z</time></trkpt><trkpt lat="46.0404528" lon="11.9986909"><ele>238.79999999999998</ele><time>2026-04-09T11:36:41.512Z</time></trkpt><trkpt lat="46.0405619" lon="11.9987717"><ele>239.0</ele><time>2026-04-09T11:36:42.507Z</time></trkpt><trkpt lat="46.0406524" lon="11.9988485"><ele>239.0</ele><time>2026-04-09T11:36:43.5Z</time></trkpt><trkpt lat="46.0407312" lon="11.9989361"><ele>238.99999999999997</ele><time>2026-04-09T11:36:44.549Z</time></trkpt><trkpt lat="46.0408104" lon="11.9990305"><ele>238.99999999999997</ele><time>2026-04-09T11:36:45.502Z</time></trkpt><trkpt lat="46.0408725" lon="11.9991119"><ele>239.0</ele><time>2026-04-09T11:36:46.508Z</time></trkpt><trkpt lat="46.0409969" lon="11.999224"><ele>239.0</ele><time>2026-04-09T11:36:48.51Z</time></trkpt><trkpt lat="46.041085" lon="11.9992115"><ele>239.0</ele><time>2026-04-09T11:36:49.505Z</time></trkpt><trkpt lat="46.0411916" lon="11.99923"><ele>238.99999999999997</ele><time>2026-04-09T11:36:50.512Z</time></trkpt><trkpt lat="46.0412794" lon="11.9992524"><ele>238.99999999999997</ele><time>2026-04-09T11:36:51.498Z</time></trkpt><trkpt lat="46.0413424" lon="11.9992942"><ele>239.0</ele><time>2026-04-09T11:36:52.493Z</time></trkpt><trkpt lat="46.0414076" lon="11.9993586"><ele>239.0</ele><time>2026-04-09T11:36:53.504Z</time></trkpt><trkpt lat="46.0414853" lon="11.9994877"><ele>239.0</ele><time>2026-04-09T11:36:54.515Z</time></trkpt><trkpt lat="46.0415685" lon="11.9996387"><ele>239.0</ele><time>2026-04-09T11:36:55.508Z</time></trkpt><trkpt lat="46.0416327" lon="11.9997963"><ele>239.0</ele><time>2026-04-09T11:36:56.498Z</time></trkpt><trkpt lat="46.0417096" lon="11.9999621"><ele>239.0</ele><time>2026-04-09T11:36:57.505Z</time></trkpt><trkpt lat="46.0417664" lon="12.0001232"><ele>238.25</ele><time>2026-04-09T11:36:58.506Z</time></trkpt><trkpt lat="46.0418159" lon="12.0002738"><ele>237.5</ele><time>2026-04-09T11:36:59.503Z</time></trkpt><trkpt lat="46.0418738" lon="12.0004164"><ele>236.75</ele><time>2026-04-09T11:37:00.496Z</time></trkpt><trkpt lat="46.0419442" lon="12.0005487"><ele>236.0</ele><time>2026-04-09T11:37:01.5Z</time></trkpt><trkpt lat="46.0420388" lon="12.0006967"><ele>236.25</ele><time>2026-04-09T11:37:02.507Z</time></trkpt><trkpt lat="46.0421425" lon="12.0008335"><ele>236.5</ele><time>2026-04-09T11:37:03.509Z</time></trkpt><trkpt lat="46.0422519" lon="12.0009752"><ele>236.75</ele><time>2026-04-09T11:37:04.501Z</time></trkpt><trkpt lat="46.0423501" lon="12.0011103"><ele>237.0</ele><time>2026-04-09T11:37:05.503Z</time></trkpt><trkpt lat="46.0424523" lon="12.0012575"><ele>237.33333333333331</ele><time>2026-04-09T11:37:06.518Z</time></trkpt><trkpt lat="46.0425546" lon="12.0014199"><ele>237.66666666666666</ele><time>2026-04-09T11:37:07.505Z</time></trkpt><trkpt lat="46.0426605" lon="12.0015743"><ele>238.0</ele><time>2026-04-09T11:37:08.504Z</time></trkpt><trkpt lat="46.0427761" lon="12.0017202"><ele>238.0</ele><time>2026-04-09T11:37:09.502Z</time></trkpt><trkpt lat="46.0428778" lon="12.0018712"><ele>238.0</ele><time>2026-04-09T11:37:10.495Z</time></trkpt><trkpt lat="46.0429809" lon="12.0020242"><ele>238.0</ele><time>2026-04-09T11:37:11.51Z</time></trkpt><trkpt lat="46.0430684" lon="12.0022226"><ele>238.0</ele><time>2026-04-09T11:37:12.502Z</time></trkpt><trkpt lat="46.0431463" lon="12.002403"><ele>238.0</ele><time>2026-04-09T11:37:13.497Z</time></trkpt><trkpt lat="46.0432154" lon="12.0024494"><ele>238.0</ele><time>2026-04-09T11:37:14.5Z</time></trkpt><trkpt lat="46.0433365" lon="12.0024944"><ele>238.0</ele><time>2026-04-09T11:37:15.516Z</time></trkpt><trkpt lat="46.0434623" lon="12.0025571"><ele>238.0</ele><time>2026-04-09T11:37:16.5Z</time></trkpt><trkpt lat="46.0435733" lon="12.0026356"><ele>238.0</ele><time>2026-04-09T11:37:17.502Z</time></trkpt><trkpt lat="46.0436915" lon="12.0027061"><ele>238.0</ele><time>2026-04-09T11:37:18.49Z</time></trkpt><trkpt lat="46.0437816" lon="12.0028025"><ele>238.0</ele><time>2026-04-09T11:37:19.549Z</time></trkpt><trkpt lat="46.0438678" lon="12.0029353"><ele>238.0</ele><time>2026-04-09T11:37:20.503Z</time></trkpt><trkpt lat="46.0439636" lon="12.0030493"><ele>238.0</ele><time>2026-04-09T11:37:21.492Z</time></trkpt><trkpt lat="46.0440805" lon="12.0032319"><ele>238.0</ele><time>2026-04-09T11:37:22.499Z</time></trkpt><trkpt lat="46.0442072" lon="12.0034266"><ele>238.0</ele><time>2026-04-09T11:37:23.511Z</time></trkpt><trkpt lat="46.0443079" lon="12.0035577"><ele>238.0</ele><time>2026-04-09T11:37:24.507Z</time></trkpt><trkpt lat="46.0444043" lon="12.0036711"><ele>238.0</ele><time>2026-04-09T11:37:25.514Z</time></trkpt><trkpt lat="46.0445058" lon="12.003746"><ele>238.0</ele><time>2026-04-09T11:37:26.5Z</time></trkpt><trkpt lat="46.0445952" lon="12.003828"><ele>238.0</ele><time>2026-04-09T11:37:27.497Z</time></trkpt><trkpt lat="46.0446706" lon="12.0039269"><ele>238.0</ele><time>2026-04-09T11:37:28.502Z</time></trkpt><trkpt lat="46.0446972" lon="12.0040319"><ele>238.0</ele><time>2026-04-09T11:37:29.502Z</time></trkpt><trkpt lat="46.0447346" lon="12.0043643"><ele>238.0</ele><time>2026-04-09T11:37:31.503Z</time></trkpt><trkpt lat="46.0447696" lon="12.0045526"><ele>238.33333333333331</ele><time>2026-04-09T11:37:32.513Z</time></trkpt><trkpt lat="46.0448262" lon="12.004757"><ele>238.66666666666669</ele><time>2026-04-09T11:37:33.506Z</time></trkpt><trkpt lat="46.0449109" lon="12.0049924"><ele>239.0</ele><time>2026-04-09T11:37:34.5Z</time></trkpt><trkpt lat="46.0450181" lon="12.0052283"><ele>239.25</ele><time>2026-04-09T11:37:35.504Z</time></trkpt><trkpt lat="46.0451154" lon="12.0054155"><ele>239.5</ele><time>2026-04-09T11:37:36.515Z</time></trkpt><trkpt lat="46.0451859" lon="12.0055554"><ele>239.75</ele><time>2026-04-09T11:37:37.509Z</time></trkpt><trkpt lat="46.0452621" lon="12.0057353"><ele>240.0</ele><time>2026-04-09T11:37:39.502Z</time></trkpt><trkpt lat="46.0452452" lon="12.00584"><ele>240.2</ele><time>2026-04-09T11:37:41.496Z</time></trkpt><trkpt lat="46.0451577" lon="12.0059236"><ele>240.4</ele><time>2026-04-09T11:37:43.495Z</time></trkpt><trkpt lat="46.0450873" lon="12.0059737"><ele>240.60000000000002</ele><time>2026-04-09T11:37:44.506Z</time></trkpt><trkpt lat="46.0450401" lon="12.0060508"><ele>240.8</ele><time>2026-04-09T11:37:46.509Z</time></trkpt><trkpt lat="46.0450991" lon="12.0062026"><ele>241.0</ele><time>2026-04-09T11:37:48.512Z</time></trkpt><trkpt lat="46.0451758" lon="12.0063447"><ele>241.0</ele><time>2026-04-09T11:37:49.493Z</time></trkpt><trkpt lat="46.0452558" lon="12.0065198"><ele>241.0</ele><time>2026-04-09T11:37:50.508Z</time></trkpt><trkpt lat="46.0453511" lon="12.0067005"><ele>241.0</ele><time>2026-04-09T11:37:51.498Z</time></trkpt><trkpt lat="46.0454477" lon="12.0068394"><ele>241.0</ele><time>2026-04-09T11:37:52.505Z</time></trkpt><trkpt lat="46.0455442" lon="12.0069813"><ele>241.20000000000002</ele><time>2026-04-09T11:37:53.502Z</time></trkpt><trkpt lat="46.0456166" lon="12.0071098"><ele>241.40000000000003</ele><time>2026-04-09T11:37:54.51Z</time></trkpt><trkpt lat="46.0456925" lon="12.0071926"><ele>241.6</ele><time>2026-04-09T11:37:55.504Z</time></trkpt><trkpt lat="46.0457682" lon="12.0072956"><ele>241.8</ele><time>2026-04-09T11:37:56.513Z</time></trkpt><trkpt lat="46.0458207" lon="12.0073736"><ele>242.0</ele><time>2026-04-09T11:37:57.497Z</time></trkpt><trkpt lat="46.0458708" lon="12.0074622"><ele>242.0</ele><time>2026-04-09T11:37:58.506Z</time></trkpt><trkpt lat="46.0459106" lon="12.0075965"><ele>242.0</ele><time>2026-04-09T11:37:59.503Z</time></trkpt><trkpt lat="46.0459474" lon="12.0077086"><ele>242.0</ele><time>2026-04-09T11:38:00.505Z</time></trkpt><trkpt lat="46.0460021" lon="12.0079181"><ele>242.0</ele><time>2026-04-09T11:38:01.511Z</time></trkpt><trkpt lat="46.046049" lon="12.00807"><ele>242.0</ele><time>2026-04-09T11:38:02.51Z</time></trkpt><trkpt lat="46.0461143" lon="12.0083406"><ele>242.0</ele><time>2026-04-09T11:38:04.497Z</time></trkpt><trkpt lat="46.0461929" lon="12.0085008"><ele>242.0</ele><time>2026-04-09T11:38:05.5Z</time></trkpt><trkpt lat="46.0462819" lon="12.0086657"><ele>242.0</ele><time>2026-04-09T11:38:06.504Z</time></trkpt><trkpt lat="46.0463613" lon="12.0088579"><ele>242.0</ele><time>2026-04-09T11:38:07.504Z</time></trkpt><trkpt lat="46.0464332" lon="12.009017"><ele>242.0</ele><time>2026-04-09T11:38:08.537Z</time></trkpt><trkpt lat="46.0464841" lon="12.0091631"><ele>242.0</ele><time>2026-04-09T11:38:09.491Z</time></trkpt><trkpt lat="46.0465286" lon="12.0093014"><ele>241.8</ele><time>2026-04-09T11:38:10.491Z</time></trkpt><trkpt lat="46.0465548" lon="12.0094352"><ele>241.6</ele><time>2026-04-09T11:38:11.495Z</time></trkpt><trkpt lat="46.0465912" lon="12.0095496"><ele>241.40000000000003</ele><time>2026-04-09T11:38:12.504Z</time></trkpt><trkpt lat="46.0466038" lon="12.0097349"><ele>241.20000000000002</ele><time>2026-04-09T11:38:14.495Z</time></trkpt><trkpt lat="46.0466033" lon="12.009853"><ele>241.0</ele><time>2026-04-09T11:38:15.503Z</time></trkpt><trkpt lat="46.0465822" lon="12.0099955"><ele>241.0</ele><time>2026-04-09T11:38:16.512Z</time></trkpt><trkpt lat="46.0465582" lon="12.0101477"><ele>241.0</ele><time>2026-04-09T11:38:17.504Z</time></trkpt><trkpt lat="46.0465218" lon="12.0103116"><ele>241.0</ele><time>2026-04-09T11:38:18.517Z</time></trkpt><trkpt lat="46.0464659" lon="12.0104641"><ele>241.0</ele><time>2026-04-09T11:38:19.498Z</time></trkpt><trkpt lat="46.0464207" lon="12.0106008"><ele>240.99999999999997</ele><time>2026-04-09T11:38:20.504Z</time></trkpt><trkpt lat="46.0463923" lon="12.0107121"><ele>241.0</ele><time>2026-04-09T11:38:21.503Z</time></trkpt><trkpt lat="46.0463201" lon="12.0108527"><ele>241.0</ele><time>2026-04-09T11:38:23.52Z</time></trkpt><trkpt lat="46.0462804" lon="12.0109238"><ele>241.0</ele><time>2026-04-09T11:38:24.504Z</time></trkpt><trkpt lat="46.0462237" lon="12.0109747"><ele>240.99999999999997</ele><time>2026-04-09T11:38:25.512Z</time></trkpt><trkpt lat="46.0461723" lon="12.011037"><ele>241.0</ele><time>2026-04-09T11:38:26.501Z</time></trkpt><trkpt lat="46.0461164" lon="12.0111246"><ele>241.4</ele><time>2026-04-09T11:38:28.503Z</time></trkpt><trkpt lat="46.0461427" lon="12.011212"><ele>241.8</ele><time>2026-04-09T11:38:29.499Z</time></trkpt><trkpt lat="46.0461674" lon="12.0112964"><ele>242.20000000000002</ele><time>2026-04-09T11:38:30.503Z</time></trkpt><trkpt lat="46.0462519" lon="12.0114317"><ele>242.60000000000002</ele><time>2026-04-09T11:38:31.499Z</time></trkpt><trkpt lat="46.0463361" lon="12.0115663"><ele>243.0</ele><time>2026-04-09T11:38:32.495Z</time></trkpt><trkpt lat="46.046424" lon="12.0117361"><ele>243.0</ele><time>2026-04-09T11:38:33.515Z</time></trkpt><trkpt lat="46.0465153" lon="12.0119283"><ele>243.0</ele><time>2026-04-09T11:38:34.496Z</time></trkpt><trkpt lat="46.0466195" lon="12.0121595"><ele>243.0</ele><time>2026-04-09T11:38:35.499Z</time></trkpt><trkpt lat="46.0467329" lon="12.0124162"><ele>243.5</ele><time>2026-04-09T11:38:36.499Z</time></trkpt><trkpt lat="46.0468552" lon="12.0126773"><ele>244.0</ele><time>2026-04-09T11:38:37.503Z</time></trkpt><trkpt lat="46.0469711" lon="12.0129796"><ele>244.0</ele><time>2026-04-09T11:38:38.502Z</time></trkpt><trkpt lat="46.0470914" lon="12.0132473"><ele>244.0</ele><time>2026-04-09T11:38:39.496Z</time></trkpt><trkpt lat="46.0471901" lon="12.0135022"><ele>244.0</ele><time>2026-04-09T11:38:40.497Z</time></trkpt><trkpt lat="46.0472822" lon="12.0137485"><ele>245.0</ele><time>2026-04-09T11:38:41.523Z</time></trkpt><trkpt lat="46.0474695" lon="12.0141933"><ele>246.0</ele><time>2026-04-09T11:38:43.514Z</time></trkpt><trkpt lat="46.0475583" lon="12.014429"><ele>246.0</ele><time>2026-04-09T11:38:44.503Z</time></trkpt><trkpt lat="46.0476407" lon="12.0146378"><ele>246.0</ele><time>2026-04-09T11:38:45.503Z</time></trkpt><trkpt lat="46.047719" lon="12.0148278"><ele>246.0</ele><time>2026-04-09T11:38:46.498Z</time></trkpt><trkpt lat="46.0477945" lon="12.0150028"><ele>247.0</ele><time>2026-04-09T11:38:47.499Z</time></trkpt><trkpt lat="46.0478561" lon="12.0151721"><ele>248.0</ele><time>2026-04-09T11:38:48.502Z</time></trkpt><trkpt lat="46.0479044" lon="12.0153396"><ele>249.0</ele><time>2026-04-09T11:38:49.504Z</time></trkpt><trkpt lat="46.0479341" lon="12.0154914"><ele>250.0</ele><time>2026-04-09T11:38:50.505Z</time></trkpt><trkpt lat="46.0479626" lon="12.0156147"><ele>249.75</ele><time>2026-04-09T11:38:51.514Z</time></trkpt><trkpt lat="46.0480305" lon="12.0158873"><ele>249.5</ele><time>2026-04-09T11:38:53.492Z</time></trkpt><trkpt lat="46.0480879" lon="12.0160279"><ele>249.25</ele><time>2026-04-09T11:38:54.5Z</time></trkpt><trkpt lat="46.0481405" lon="12.0161757"><ele>249.0</ele><time>2026-04-09T11:38:55.496Z</time></trkpt><trkpt lat="46.0481852" lon="12.0163107"><ele>248.66666666666669</ele><time>2026-04-09T11:38:56.498Z</time></trkpt><trkpt lat="46.0483336" lon="12.0165996"><ele>248.33333333333334</ele><time>2026-04-09T11:38:58.492Z</time></trkpt><trkpt lat="46.048392" lon="12.0167441"><ele>248.0</ele><time>2026-04-09T11:38:59.499Z</time></trkpt><trkpt lat="46.0484285" lon="12.0168698"><ele>248.00000000000003</ele><time>2026-04-09T11:39:00.491Z</time></trkpt><trkpt lat="46.0484184" lon="12.0169906"><ele>248.0</ele><time>2026-04-09T11:39:01.505Z</time></trkpt><trkpt lat="46.0484157" lon="12.0170947"><ele>248.0</ele><time>2026-04-09T11:39:02.503Z</time></trkpt><trkpt lat="46.0484096" lon="12.017194"><ele>248.0</ele><time>2026-04-09T11:39:03.5Z</time></trkpt><trkpt lat="46.0483922" lon="12.0173044"><ele>248.00000000000003</ele><time>2026-04-09T11:39:04.512Z</time></trkpt><trkpt lat="46.0483569" lon="12.0173818"><ele>248.0</ele><time>2026-04-09T11:39:05.506Z</time></trkpt><trkpt lat="46.0483261" lon="12.0175329"><ele>248.2</ele><time>2026-04-09T11:39:07.496Z</time></trkpt><trkpt lat="46.048305" lon="12.0176607"><ele>248.4</ele><time>2026-04-09T11:39:09.506Z</time></trkpt><trkpt lat="46.0482755" lon="12.0177714"><ele>248.59999999999997</ele><time>2026-04-09T11:39:11.502Z</time></trkpt><trkpt lat="46.0482776" lon="12.0179192"><ele>248.79999999999998</ele><time>2026-04-09T11:39:13.497Z</time></trkpt><trkpt lat="46.0482345" lon="12.0180572"><ele>249.0</ele><time>2026-04-09T11:39:15.496Z</time></trkpt><trkpt lat="46.0481957" lon="12.0181407"><ele>249.57142857142856</ele><time>2026-04-09T11:39:16.512Z</time></trkpt><trkpt lat="46.0481584" lon="12.0182165"><ele>250.1428571428571</ele><time>2026-04-09T11:39:17.507Z</time></trkpt><trkpt lat="46.0481107" lon="12.0182824"><ele>250.71428571428572</ele><time>2026-04-09T11:39:18.5Z</time></trkpt><trkpt lat="46.0480767" lon="12.01837"><ele>251.28571428571428</ele><time>2026-04-09T11:39:19.5Z</time></trkpt><trkpt lat="46.0480411" lon="12.0184614"><ele>251.85714285714286</ele><time>2026-04-09T11:39:20.496Z</time></trkpt><trkpt lat="46.0480038" lon="12.018558"><ele>252.42857142857144</ele><time>2026-04-09T11:39:21.504Z</time></trkpt><trkpt lat="46.0479663" lon="12.0186594"><ele>253.00000000000003</ele><time>2026-04-09T11:39:22.502Z</time></trkpt><trkpt lat="46.047896" lon="12.0187294"><ele>252.99999999999997</ele><time>2026-04-09T11:39:23.497Z</time></trkpt><trkpt lat="46.0478231" lon="12.0188448"><ele>253.0</ele><time>2026-04-09T11:39:24.507Z</time></trkpt><trkpt lat="46.0477671" lon="12.0189057"><ele>253.0</ele><time>2026-04-09T11:39:26.514Z</time></trkpt><trkpt lat="46.0477066" lon="12.0189751"><ele>253.0</ele><time>2026-04-09T11:39:28.513Z</time></trkpt><trkpt lat="46.0476911" lon="12.0191031"><ele>252.99999999999997</ele><time>2026-04-09T11:43:25.507Z</time></trkpt><trkpt lat="46.0476681" lon="12.0191904"><ele>253.0</ele><time>2026-04-09T11:43:27.494Z</time></trkpt><trkpt lat="46.0476396" lon="12.019283"><ele>253.2</ele><time>2026-04-09T11:43:29.514Z</time></trkpt><trkpt lat="46.0476246" lon="12.0193979"><ele>253.4</ele><time>2026-04-09T11:43:32.499Z</time></trkpt><trkpt lat="46.047595" lon="12.0195881"><ele>253.59999999999997</ele><time>2026-04-09T11:43:34.49Z</time></trkpt><trkpt lat="46.047576" lon="12.0197202"><ele>253.79999999999998</ele><time>2026-04-09T11:43:35.519Z</time></trkpt><trkpt lat="46.047558" lon="12.0198705"><ele>254.0</ele><time>2026-04-09T11:43:36.49Z</time></trkpt><trkpt lat="46.0475177" lon="12.0200422"><ele>254.25</ele><time>2026-04-09T11:43:37.506Z</time></trkpt><trkpt lat="46.0474766" lon="12.0202328"><ele>254.5</ele><time>2026-04-09T11:43:38.5Z</time></trkpt><trkpt lat="46.0474561" lon="12.0204213"><ele>254.75</ele><time>2026-04-09T11:43:39.514Z</time></trkpt><trkpt lat="46.0474237" lon="12.0205824"><ele>255.0</ele><time>2026-04-09T11:43:40.504Z</time></trkpt><trkpt lat="46.0474016" lon="12.0207367"><ele>255.5</ele><time>2026-04-09T11:43:41.504Z</time></trkpt><trkpt lat="46.0473926" lon="12.0208639"><ele>256.0</ele><time>2026-04-09T11:43:42.501Z</time></trkpt><trkpt lat="46.0473807" lon="12.0209949"><ele>256.5</ele><time>2026-04-09T11:43:43.501Z</time></trkpt><trkpt lat="46.0473736" lon="12.0211145"><ele>257.0</ele><time>2026-04-09T11:43:44.495Z</time></trkpt><trkpt lat="46.047368" lon="12.0212377"><ele>257.5</ele><time>2026-04-09T11:43:45.502Z</time></trkpt><trkpt lat="46.0473718" lon="12.0213506"><ele>258.0</ele><time>2026-04-09T11:43:46.499Z</time></trkpt><trkpt lat="46.0473716" lon="12.0214661"><ele>258.0</ele><time>2026-04-09T11:43:47.496Z</time></trkpt><trkpt lat="46.0473715" lon="12.0215844"><ele>258.0</ele><time>2026-04-09T11:43:48.497Z</time></trkpt><trkpt lat="46.0473387" lon="12.0217222"><ele>258.0</ele><time>2026-04-09T11:43:49.501Z</time></trkpt><trkpt lat="46.0473058" lon="12.0218732"><ele>258.0</ele><time>2026-04-09T11:43:50.497Z</time></trkpt><trkpt lat="46.0472634" lon="12.0220294"><ele>258.0</ele><time>2026-04-09T11:43:51.496Z</time></trkpt><trkpt lat="46.0472313" lon="12.022167"><ele>258.2</ele><time>2026-04-09T11:43:52.494Z</time></trkpt><trkpt lat="46.0471999" lon="12.0222883"><ele>258.4</ele><time>2026-04-09T11:43:53.499Z</time></trkpt><trkpt lat="46.0471659" lon="12.0224644"><ele>258.59999999999997</ele><time>2026-04-09T11:43:55.498Z</time></trkpt><trkpt lat="46.0471199" lon="12.022536"><ele>258.8</ele><time>2026-04-09T11:43:56.508Z</time></trkpt><trkpt lat="46.0470371" lon="12.0227197"><ele>259.0</ele><time>2026-04-09T11:43:58.494Z</time></trkpt><trkpt lat="46.046982" lon="12.0228072"><ele>259.0</ele><time>2026-04-09T11:43:59.496Z</time></trkpt><trkpt lat="46.046936" lon="12.0228839"><ele>259.0</ele><time>2026-04-09T11:44:00.491Z</time></trkpt><trkpt lat="46.0468741" lon="12.0229398"><ele>259.0</ele><time>2026-04-09T11:44:01.496Z</time></trkpt><trkpt lat="46.0467862" lon="12.022993"><ele>259.0</ele><time>2026-04-09T11:44:02.505Z</time></trkpt><trkpt lat="46.0467208" lon="12.0230607"><ele>259.0</ele><time>2026-04-09T11:44:03.51Z</time></trkpt><trkpt lat="46.0466558" lon="12.0231066"><ele>259.0</ele><time>2026-04-09T11:44:04.499Z</time></trkpt><trkpt lat="46.0465939" lon="12.0231575"><ele>259.0</ele><time>2026-04-09T11:44:06.498Z</time></trkpt><trkpt lat="46.0466282" lon="12.023251"><ele>259.0</ele><time>2026-04-09T11:44:08.492Z</time></trkpt><trkpt lat="46.0466966" lon="12.0233919"><ele>259.0</ele><time>2026-04-09T11:44:10.498Z</time></trkpt><trkpt lat="46.0467286" lon="12.0234742"><ele>259.0</ele><time>2026-04-09T11:44:11.496Z</time></trkpt><trkpt lat="46.0467538" lon="12.0235605"><ele>259.0</ele><time>2026-04-09T11:44:12.493Z</time></trkpt><trkpt lat="46.0467841" lon="12.0236999"><ele>259.0</ele><time>2026-04-09T11:44:14.496Z</time></trkpt><trkpt lat="46.046809" lon="12.0238554"><ele>259.2</ele><time>2026-04-09T11:44:16.5Z</time></trkpt><trkpt lat="46.0468312" lon="12.0239501"><ele>259.4</ele><time>2026-04-09T11:44:17.496Z</time></trkpt><trkpt lat="46.0468379" lon="12.0240839"><ele>259.6</ele><time>2026-04-09T11:44:19.5Z</time></trkpt><trkpt lat="46.0468307" lon="12.0242088"><ele>259.8</ele><time>2026-04-09T11:44:21.493Z</time></trkpt><trkpt lat="46.0467571" lon="12.0243811"><ele>260.0</ele><time>2026-04-09T11:44:23.493Z</time></trkpt><trkpt lat="46.046671" lon="12.0245072"><ele>261.0</ele><time>2026-04-09T11:44:24.5Z</time></trkpt><trkpt lat="46.0466122" lon="12.0246411"><ele>262.0</ele><time>2026-04-09T11:44:25.495Z</time></trkpt><trkpt lat="46.0465216" lon="12.0247972"><ele>263.0</ele><time>2026-04-09T11:44:26.492Z</time></trkpt><trkpt lat="46.0464354" lon="12.0249407"><ele>264.0</ele><time>2026-04-09T11:44:27.49Z</time></trkpt><trkpt lat="46.0463758" lon="12.0250719"><ele>264.0</ele><time>2026-04-09T11:44:28.494Z</time></trkpt><trkpt lat="46.0463318" lon="12.0252025"><ele>264.0</ele><time>2026-04-09T11:44:29.493Z</time></trkpt><trkpt lat="46.0463159" lon="12.0253459"><ele>264.0</ele><time>2026-04-09T11:44:30.502Z</time></trkpt><trkpt lat="46.0463231" lon="12.025518"><ele>264.0</ele><time>2026-04-09T11:44:31.537Z</time></trkpt><trkpt lat="46.0463385" lon="12.0256948"><ele>264.0</ele><time>2026-04-09T11:44:32.49Z</time></trkpt><trkpt lat="46.0463552" lon="12.0258446"><ele>263.59999999999997</ele><time>2026-04-09T11:44:33.491Z</time></trkpt><trkpt lat="46.0463381" lon="12.0259684"><ele>263.2</ele><time>2026-04-09T11:44:34.487Z</time></trkpt><trkpt lat="46.0462956" lon="12.0260828"><ele>262.79999999999995</ele><time>2026-04-09T11:44:35.507Z</time></trkpt><trkpt lat="46.0462391" lon="12.0262034"><ele>262.4</ele><time>2026-04-09T11:44:36.503Z</time></trkpt><trkpt lat="46.0461352" lon="12.0262954"><ele>262.0</ele><time>2026-04-09T11:44:37.5Z</time></trkpt><trkpt lat="46.0459779" lon="12.026376"><ele>262.0</ele><time>2026-04-09T11:44:38.495Z</time></trkpt><trkpt lat="46.0457975" lon="12.026458"><ele>262.0</ele><time>2026-04-09T11:44:39.5Z</time></trkpt><trkpt lat="46.045627" lon="12.0265484"><ele>262.0</ele><time>2026-04-09T11:44:40.498Z</time></trkpt><trkpt lat="46.0454735" lon="12.0266297"><ele>262.4</ele><time>2026-04-09T11:44:41.503Z</time></trkpt><trkpt lat="46.0453717" lon="12.0267022"><ele>262.79999999999995</ele><time>2026-04-09T11:44:42.5Z</time></trkpt><trkpt lat="46.0452811" lon="12.0267412"><ele>263.2</ele><time>2026-04-09T11:44:43.495Z</time></trkpt><trkpt lat="46.045177" lon="12.0267667"><ele>263.59999999999997</ele><time>2026-04-09T11:44:45.492Z</time></trkpt><trkpt lat="46.0451218" lon="12.0268118"><ele>264.0</ele><time>2026-04-09T11:44:48.494Z</time></trkpt><trkpt lat="46.0451154" lon="12.0269937"><ele>264.0</ele><time>2026-04-09T11:44:50.497Z</time></trkpt><trkpt lat="46.0451389" lon="12.0271323"><ele>264.0</ele><time>2026-04-09T11:44:51.495Z</time></trkpt><trkpt lat="46.0451791" lon="12.0273008"><ele>264.0</ele><time>2026-04-09T11:44:52.492Z</time></trkpt><trkpt lat="46.0452229" lon="12.0274921"><ele>264.0</ele><time>2026-04-09T11:44:53.5Z</time></trkpt><trkpt lat="46.0452517" lon="12.0277196"><ele>264.0</ele><time>2026-04-09T11:44:54.497Z</time></trkpt><trkpt lat="46.0452583" lon="12.0279693"><ele>264.0</ele><time>2026-04-09T11:44:55.501Z</time></trkpt><trkpt lat="46.0452426" lon="12.0282448"><ele>264.0</ele><time>2026-04-09T11:44:56.494Z</time></trkpt><trkpt lat="46.0452254" lon="12.0285396"><ele>264.0</ele><time>2026-04-09T11:44:57.496Z</time></trkpt><trkpt lat="46.045202" lon="12.0288517"><ele>264.0</ele><time>2026-04-09T11:44:58.503Z</time></trkpt><trkpt lat="46.0451737" lon="12.0291729"><ele>264.0</ele><time>2026-04-09T11:44:59.503Z</time></trkpt><trkpt lat="46.0451431" lon="12.0294704"><ele>264.3333333333333</ele><time>2026-04-09T11:45:00.499Z</time></trkpt><trkpt lat="46.0451066" lon="12.029734"><ele>264.66666666666663</ele><time>2026-04-09T11:45:01.498Z</time></trkpt><trkpt lat="46.0450813" lon="12.0299566"><ele>265.0</ele><time>2026-04-09T11:45:02.513Z</time></trkpt><trkpt lat="46.0450768" lon="12.0301844"><ele>266.0</ele><time>2026-04-09T11:45:03.491Z</time></trkpt><trkpt lat="46.0450846" lon="12.0303987"><ele>267.0</ele><time>2026-04-09T11:45:04.478Z</time></trkpt><trkpt lat="46.0452045" lon="12.0306042"><ele>268.0</ele><time>2026-04-09T11:45:05.495Z</time></trkpt><trkpt lat="46.0452931" lon="12.0307635"><ele>268.66666666666663</ele><time>2026-04-09T11:45:06.503Z</time></trkpt><trkpt lat="46.045402" lon="12.0309264"><ele>269.3333333333333</ele><time>2026-04-09T11:45:07.494Z</time></trkpt><trkpt lat="46.0455348" lon="12.0310567"><ele>270.0</ele><time>2026-04-09T11:45:08.495Z</time></trkpt><trkpt lat="46.0456748" lon="12.0311313"><ele>271.6666666666667</ele><time>2026-04-09T11:45:09.495Z</time></trkpt><trkpt lat="46.0458936" lon="12.031243"><ele>273.33333333333337</ele><time>2026-04-09T11:45:10.489Z</time></trkpt><trkpt lat="46.0460989" lon="12.0313373"><ele>275.0</ele><time>2026-04-09T11:45:11.497Z</time></trkpt><trkpt lat="46.0462818" lon="12.0314195"><ele>275.0</ele><time>2026-04-09T11:45:12.503Z</time></trkpt><trkpt lat="46.046446" lon="12.0315319"><ele>275.0</ele><time>2026-04-09T11:45:13.497Z</time></trkpt><trkpt lat="46.0465971" lon="12.0316523"><ele>275.0</ele><time>2026-04-09T11:45:14.491Z</time></trkpt><trkpt lat="46.0467252" lon="12.0317887"><ele>276.0</ele><time>2026-04-09T11:45:15.495Z</time></trkpt><trkpt lat="46.0467911" lon="12.0319256"><ele>277.0</ele><time>2026-04-09T11:45:16.496Z</time></trkpt><trkpt lat="46.0468427" lon="12.0321335"><ele>278.0</ele><time>2026-04-09T11:45:17.503Z</time></trkpt><trkpt lat="46.0468689" lon="12.032374"><ele>279.0</ele><time>2026-04-09T11:45:18.489Z</time></trkpt><trkpt lat="46.0468925" lon="12.032621"><ele>279.0</ele><time>2026-04-09T11:45:19.49Z</time></trkpt><trkpt lat="46.0469228" lon="12.0329016"><ele>279.0</ele><time>2026-04-09T11:45:20.493Z</time></trkpt><trkpt lat="46.046933" lon="12.0332125"><ele>279.0</ele><time>2026-04-09T11:45:21.49Z</time></trkpt><trkpt lat="46.0469657" lon="12.0335373"><ele>278.5</ele><time>2026-04-09T11:45:22.495Z</time></trkpt><trkpt lat="46.04698" lon="12.0338956"><ele>278.0</ele><time>2026-04-09T11:45:23.503Z</time></trkpt><trkpt lat="46.047002" lon="12.0342154"><ele>278.0</ele><time>2026-04-09T11:45:24.489Z</time></trkpt><trkpt lat="46.0470135" lon="12.0345158"><ele>278.0</ele><time>2026-04-09T11:45:25.497Z</time></trkpt><trkpt lat="46.0470432" lon="12.0347957"><ele>278.0</ele><time>2026-04-09T11:45:26.491Z</time></trkpt><trkpt lat="46.0471026" lon="12.0350788"><ele>280.0</ele><time>2026-04-09T11:45:27.49Z</time></trkpt><trkpt lat="46.0471613" lon="12.0353527"><ele>282.0</ele><time>2026-04-09T11:45:28.497Z</time></trkpt><trkpt lat="46.0472601" lon="12.0356456"><ele>284.0</ele><time>2026-04-09T11:45:29.491Z</time></trkpt><trkpt lat="46.0473674" lon="12.0359652"><ele>282.0</ele><time>2026-04-09T11:45:30.498Z</time></trkpt><trkpt lat="46.0475326" lon="12.036295"><ele>280.0</ele><time>2026-04-09T11:45:31.496Z</time></trkpt><trkpt lat="46.0476855" lon="12.03659"><ele>280.5</ele><time>2026-04-09T11:45:32.497Z</time></trkpt><trkpt lat="46.0478236" lon="12.036898"><ele>281.0</ele><time>2026-04-09T11:45:33.493Z</time></trkpt><trkpt lat="46.0479355" lon="12.0372087"><ele>283.33333333333337</ele><time>2026-04-09T11:45:34.493Z</time></trkpt><trkpt lat="46.0480628" lon="12.0374935"><ele>285.6666666666667</ele><time>2026-04-09T11:45:35.496Z</time></trkpt><trkpt lat="46.0481699" lon="12.0377587"><ele>288.0</ele><time>2026-04-09T11:45:36.501Z</time></trkpt><trkpt lat="46.0482788" lon="12.0380189"><ele>286.6666666666667</ele><time>2026-04-09T11:45:37.478Z</time></trkpt><trkpt lat="46.0483528" lon="12.038202"><ele>285.33333333333337</ele><time>2026-04-09T11:45:38.495Z</time></trkpt><trkpt lat="46.0484318" lon="12.0384124"><ele>284.0</ele><time>2026-04-09T11:45:39.493Z</time></trkpt><trkpt lat="46.048481" lon="12.038604"><ele>283.4</ele><time>2026-04-09T11:45:40.502Z</time></trkpt><trkpt lat="46.0485145" lon="12.0387764"><ele>282.79999999999995</ele><time>2026-04-09T11:45:41.499Z</time></trkpt><trkpt lat="46.0485255" lon="12.0389422"><ele>282.20000000000005</ele><time>2026-04-09T11:45:42.494Z</time></trkpt><trkpt lat="46.0485268" lon="12.0391003"><ele>281.6</ele><time>2026-04-09T11:45:43.502Z</time></trkpt><trkpt lat="46.0485245" lon="12.0392419"><ele>281.0</ele><time>2026-04-09T11:45:44.515Z</time></trkpt><trkpt lat="46.0485353" lon="12.039372"><ele>281.0</ele><time>2026-04-09T11:45:45.492Z</time></trkpt><trkpt lat="46.0485578" lon="12.0394805"><ele>281.0</ele><time>2026-04-09T11:45:46.507Z</time></trkpt><trkpt lat="46.0486096" lon="12.0396093"><ele>281.0</ele><time>2026-04-09T11:45:48.499Z</time></trkpt><trkpt lat="46.0486964" lon="12.0397443"><ele>281.0</ele><time>2026-04-09T11:46:11.492Z</time></trkpt><trkpt lat="46.0487565" lon="12.0398559"><ele>281.0</ele><time>2026-04-09T11:46:12.5Z</time></trkpt><trkpt lat="46.0488176" lon="12.0399796"><ele>281.0</ele><time>2026-04-09T11:46:13.48Z</time></trkpt><trkpt lat="46.0489143" lon="12.0401823"><ele>281.0</ele><time>2026-04-09T11:46:14.521Z</time></trkpt><trkpt lat="46.0489755" lon="12.0404113"><ele>281.0</ele><time>2026-04-09T11:46:15.495Z</time></trkpt><trkpt lat="46.0490207" lon="12.0406709"><ele>281.0</ele><time>2026-04-09T11:46:16.498Z</time></trkpt><trkpt lat="46.0490712" lon="12.0409541"><ele>281.0</ele><time>2026-04-09T11:46:17.496Z</time></trkpt><trkpt lat="46.0491316" lon="12.0412586"><ele>281.0</ele><time>2026-04-09T11:46:18.496Z</time></trkpt><trkpt lat="46.0492154" lon="12.041573"><ele>283.0</ele><time>2026-04-09T11:46:19.503Z</time></trkpt><trkpt lat="46.0492806" lon="12.0419198"><ele>285.0</ele><time>2026-04-09T11:46:20.505Z</time></trkpt><trkpt lat="46.0493543" lon="12.042247"><ele>284.0</ele><time>2026-04-09T11:46:21.491Z</time></trkpt><trkpt lat="46.0494242" lon="12.0425785"><ele>283.0</ele><time>2026-04-09T11:46:22.491Z</time></trkpt><trkpt lat="46.0494871" lon="12.0429253"><ele>283.0</ele><time>2026-04-09T11:46:23.495Z</time></trkpt><trkpt lat="46.049533" lon="12.0432621"><ele>283.0</ele><time>2026-04-09T11:46:24.492Z</time></trkpt><trkpt lat="46.0495664" lon="12.0435877"><ele>283.0</ele><time>2026-04-09T11:46:25.495Z</time></trkpt><trkpt lat="46.0495846" lon="12.0439224"><ele>283.0</ele><time>2026-04-09T11:46:26.504Z</time></trkpt><trkpt lat="46.0495949" lon="12.0442584"><ele>285.0</ele><time>2026-04-09T11:46:27.49Z</time></trkpt><trkpt lat="46.0496067" lon="12.0445983"><ele>287.0</ele><time>2026-04-09T11:46:28.491Z</time></trkpt><trkpt lat="46.0496176" lon="12.0449341"><ele>288.0</ele><time>2026-04-09T11:46:29.502Z</time></trkpt><trkpt lat="46.0496307" lon="12.0452646"><ele>289.0</ele><time>2026-04-09T11:46:30.49Z</time></trkpt><trkpt lat="46.0496376" lon="12.0456251"><ele>290.0</ele><time>2026-04-09T11:46:31.494Z</time></trkpt><trkpt lat="46.0496406" lon="12.0459827"><ele>291.0</ele><time>2026-04-09T11:46:32.494Z</time></trkpt><trkpt lat="46.0496302" lon="12.0463247"><ele>292.0</ele><time>2026-04-09T11:46:33.494Z</time></trkpt><trkpt lat="46.0496035" lon="12.0466945"><ele>293.0</ele><time>2026-04-09T11:46:34.506Z</time></trkpt><trkpt lat="46.0495636" lon="12.0470523"><ele>293.0</ele><time>2026-04-09T11:46:35.493Z</time></trkpt><trkpt lat="46.0495023" lon="12.0474131"><ele>293.0</ele><time>2026-04-09T11:46:36.499Z</time></trkpt><trkpt lat="46.0494332" lon="12.0477514"><ele>293.5</ele><time>2026-04-09T11:46:37.494Z</time></trkpt><trkpt lat="46.0493591" lon="12.0480932"><ele>294.0</ele><time>2026-04-09T11:46:38.498Z</time></trkpt><trkpt lat="46.0492863" lon="12.0484337"><ele>295.0</ele><time>2026-04-09T11:46:39.494Z</time></trkpt><trkpt lat="46.0492127" lon="12.0487236"><ele>296.0</ele><time>2026-04-09T11:46:40.502Z</time></trkpt><trkpt lat="46.0491507" lon="12.0490067"><ele>297.0</ele><time>2026-04-09T11:46:41.493Z</time></trkpt><trkpt lat="46.0490988" lon="12.0492846"><ele>297.6666666666667</ele><time>2026-04-09T11:46:42.495Z</time></trkpt><trkpt lat="46.0490582" lon="12.0495408"><ele>298.33333333333337</ele><time>2026-04-09T11:46:43.501Z</time></trkpt><trkpt lat="46.0490237" lon="12.0497862"><ele>299.0</ele><time>2026-04-09T11:46:44.496Z</time></trkpt><trkpt lat="46.0490015" lon="12.0500334"><ele>301.0</ele><time>2026-04-09T11:46:45.49Z</time></trkpt><trkpt lat="46.0489789" lon="12.0502662"><ele>303.0</ele><time>2026-04-09T11:46:46.496Z</time></trkpt><trkpt lat="46.048959" lon="12.0505172"><ele>305.0</ele><time>2026-04-09T11:46:47.495Z</time></trkpt><trkpt lat="46.0489362" lon="12.0507623"><ele>305.6666666666667</ele><time>2026-04-09T11:46:48.501Z</time></trkpt><trkpt lat="46.0489188" lon="12.0509965"><ele>306.3333333333333</ele><time>2026-04-09T11:46:49.503Z</time></trkpt><trkpt lat="46.0489024" lon="12.051245"><ele>307.0</ele><time>2026-04-09T11:46:50.494Z</time></trkpt><trkpt lat="46.0488879" lon="12.0514871"><ele>306.66666666666663</ele><time>2026-04-09T11:46:51.491Z</time></trkpt><trkpt lat="46.0488665" lon="12.0517301"><ele>306.3333333333333</ele><time>2026-04-09T11:46:52.495Z</time></trkpt><trkpt lat="46.048848" lon="12.051955"><ele>306.0</ele><time>2026-04-09T11:46:53.49Z</time></trkpt><trkpt lat="46.048831" lon="12.0521459"><ele>306.0</ele><time>2026-04-09T11:46:54.487Z</time></trkpt><trkpt lat="46.0488221" lon="12.0522934"><ele>306.0</ele><time>2026-04-09T11:46:55.501Z</time></trkpt><trkpt lat="46.0488219" lon="12.0523894"><ele>306.0</ele><time>2026-04-09T11:46:56.497Z</time></trkpt><trkpt lat="46.0488642" lon="12.0521954"><ele>306.0</ele><time>2026-04-09T11:47:01.492Z</time></trkpt><trkpt lat="46.048872" lon="12.0517342"><ele>306.3333333333333</ele><time>2026-04-09T11:47:03.48Z</time></trkpt><trkpt lat="46.0489187" lon="12.0514163"><ele>306.66666666666663</ele><time>2026-04-09T11:47:04.496Z</time></trkpt><trkpt lat="46.0489525" lon="12.0511472"><ele>307.0</ele><time>2026-04-09T11:47:05.505Z</time></trkpt><trkpt lat="46.0489739" lon="12.0508378"><ele>306.3333333333333</ele><time>2026-04-09T11:47:06.507Z</time></trkpt><trkpt lat="46.0489966" lon="12.0505574"><ele>305.6666666666667</ele><time>2026-04-09T11:47:07.489Z</time></trkpt><trkpt lat="46.0490132" lon="12.0503054"><ele>305.0</ele><time>2026-04-09T11:47:08.494Z</time></trkpt><trkpt lat="46.0490298" lon="12.0501"><ele>303.8</ele><time>2026-04-09T11:47:09.5Z</time></trkpt><trkpt lat="46.0490449" lon="12.0499293"><ele>302.6</ele><time>2026-04-09T11:47:10.496Z</time></trkpt><trkpt lat="46.0490705" lon="12.0497888"><ele>301.4</ele><time>2026-04-09T11:47:11.502Z</time></trkpt><trkpt lat="46.0491013" lon="12.0497021"><ele>300.2</ele><time>2026-04-09T11:47:12.497Z</time></trkpt><trkpt lat="46.0491927" lon="12.04968"><ele>299.0</ele><time>2026-04-09T11:47:14.498Z</time></trkpt><trkpt lat="46.0492594" lon="12.0497622"><ele>299.0</ele><time>2026-04-09T11:47:15.503Z</time></trkpt><trkpt lat="46.0493322" lon="12.0499096"><ele>299.0</ele><time>2026-04-09T11:47:16.496Z</time></trkpt><trkpt lat="46.0494117" lon="12.0500827"><ele>299.0</ele><time>2026-04-09T11:47:17.493Z</time></trkpt><trkpt lat="46.0495037" lon="12.0502573"><ele>299.0</ele><time>2026-04-09T11:47:18.498Z</time></trkpt><trkpt lat="46.0496034" lon="12.050392"><ele>299.33333333333337</ele><time>2026-04-09T11:47:19.508Z</time></trkpt><trkpt lat="46.0497223" lon="12.0504835"><ele>299.6666666666667</ele><time>2026-04-09T11:47:20.5Z</time></trkpt><trkpt lat="46.0498707" lon="12.0505568"><ele>300.0</ele><time>2026-04-09T11:47:21.501Z</time></trkpt><trkpt lat="46.0500607" lon="12.0506226"><ele>299.0</ele><time>2026-04-09T11:47:22.496Z</time></trkpt><trkpt lat="46.0502624" lon="12.0506968"><ele>298.0</ele><time>2026-04-09T11:47:23.496Z</time></trkpt><trkpt lat="46.0504498" lon="12.05077"><ele>297.0</ele><time>2026-04-09T11:47:24.493Z</time></trkpt><trkpt lat="46.0506285" lon="12.0508334"><ele>298.3333333333333</ele><time>2026-04-09T11:47:25.506Z</time></trkpt><trkpt lat="46.0507987" lon="12.0508994"><ele>299.66666666666663</ele><time>2026-04-09T11:47:26.495Z</time></trkpt><trkpt lat="46.0509743" lon="12.0510068"><ele>301.0</ele><time>2026-04-09T11:47:27.48Z</time></trkpt><trkpt lat="46.0511446" lon="12.0511364"><ele>301.0</ele><time>2026-04-09T11:47:28.502Z</time></trkpt><trkpt lat="46.0513022" lon="12.0513007"><ele>301.0</ele><time>2026-04-09T11:47:29.502Z</time></trkpt><trkpt lat="46.0514575" lon="12.0515195"><ele>301.0</ele><time>2026-04-09T11:47:30.498Z</time></trkpt><trkpt lat="46.0515948" lon="12.0517607"><ele>301.0</ele><time>2026-04-09T11:47:31.502Z</time></trkpt><trkpt lat="46.0517205" lon="12.0520234"><ele>301.0</ele><time>2026-04-09T11:47:32.496Z</time></trkpt><trkpt lat="46.0518309" lon="12.0522651"><ele>301.0</ele><time>2026-04-09T11:47:33.517Z</time></trkpt><trkpt lat="46.0519348" lon="12.0525047"><ele>300.0</ele><time>2026-04-09T11:47:34.493Z</time></trkpt><trkpt lat="46.0520429" lon="12.052735"><ele>299.0</ele><time>2026-04-09T11:47:35.518Z</time></trkpt><trkpt lat="46.0521504" lon="12.0529317"><ele>298.0</ele><time>2026-04-09T11:47:36.499Z</time></trkpt><trkpt lat="46.0522735" lon="12.0531081"><ele>298.0</ele><time>2026-04-09T11:47:37.492Z</time></trkpt><trkpt lat="46.0524224" lon="12.0532784"><ele>298.0</ele><time>2026-04-09T11:47:38.51Z</time></trkpt><trkpt lat="46.0525818" lon="12.053444"><ele>298.0</ele><time>2026-04-09T11:47:39.504Z</time></trkpt><trkpt lat="46.0527335" lon="12.0536072"><ele>298.0</ele><time>2026-04-09T11:47:40.496Z</time></trkpt><trkpt lat="46.0528758" lon="12.053779"><ele>298.0</ele><time>2026-04-09T11:47:41.496Z</time></trkpt><trkpt lat="46.053009" lon="12.0539691"><ele>298.0</ele><time>2026-04-09T11:47:42.495Z</time></trkpt><trkpt lat="46.0531404" lon="12.0541984"><ele>298.0</ele><time>2026-04-09T11:47:43.501Z</time></trkpt><trkpt lat="46.0532726" lon="12.0544361"><ele>298.0</ele><time>2026-04-09T11:47:44.496Z</time></trkpt><trkpt lat="46.0534002" lon="12.0546887"><ele>298.0</ele><time>2026-04-09T11:47:45.505Z</time></trkpt><trkpt lat="46.0535325" lon="12.0549598"><ele>296.66666666666663</ele><time>2026-04-09T11:47:46.497Z</time></trkpt><trkpt lat="46.0536558" lon="12.0552074"><ele>295.3333333333333</ele><time>2026-04-09T11:47:47.497Z</time></trkpt><trkpt lat="46.0537654" lon="12.0554293"><ele>294.0</ele><time>2026-04-09T11:47:48.5Z</time></trkpt><trkpt lat="46.0538589" lon="12.0556223"><ele>293.6666666666667</ele><time>2026-04-09T11:47:49.498Z</time></trkpt><trkpt lat="46.0539456" lon="12.0558064"><ele>293.33333333333337</ele><time>2026-04-09T11:47:50.494Z</time></trkpt><trkpt lat="46.0540384" lon="12.0559994"><ele>293.0</ele><time>2026-04-09T11:47:51.495Z</time></trkpt><trkpt lat="46.0541367" lon="12.0561968"><ele>293.0</ele><time>2026-04-09T11:47:52.504Z</time></trkpt><trkpt lat="46.0542356" lon="12.0563999"><ele>293.0</ele><time>2026-04-09T11:47:53.492Z</time></trkpt><trkpt lat="46.0543461" lon="12.0566283"><ele>293.0</ele><time>2026-04-09T11:47:54.51Z</time></trkpt><trkpt lat="46.054458" lon="12.0568668"><ele>293.0</ele><time>2026-04-09T11:47:55.494Z</time></trkpt><trkpt lat="46.054579" lon="12.0571122"><ele>293.0</ele><time>2026-04-09T11:47:56.503Z</time></trkpt><trkpt lat="46.054708" lon="12.0573645"><ele>293.0</ele><time>2026-04-09T11:47:57.522Z</time></trkpt><trkpt lat="46.0548434" lon="12.0576366"><ele>294.0</ele><time>2026-04-09T11:47:58.505Z</time></trkpt><trkpt lat="46.0549828" lon="12.0579155"><ele>295.0</ele><time>2026-04-09T11:47:59.502Z</time></trkpt><trkpt lat="46.0551138" lon="12.0581818"><ele>295.0</ele><time>2026-04-09T11:48:00.511Z</time></trkpt><trkpt lat="46.0552349" lon="12.0584223"><ele>295.0</ele><time>2026-04-09T11:48:01.489Z</time></trkpt><trkpt lat="46.0553569" lon="12.0586626"><ele>295.0</ele><time>2026-04-09T11:48:02.497Z</time></trkpt><trkpt lat="46.0554692" lon="12.0588793"><ele>295.0</ele><time>2026-04-09T11:48:03.499Z</time></trkpt><trkpt lat="46.0555808" lon="12.0590673"><ele>295.0</ele><time>2026-04-09T11:48:04.497Z</time></trkpt><trkpt lat="46.0556962" lon="12.0592221"><ele>295.0</ele><time>2026-04-09T11:48:05.502Z</time></trkpt><trkpt lat="46.0558202" lon="12.0593432"><ele>295.66666666666663</ele><time>2026-04-09T11:48:06.494Z</time></trkpt><trkpt lat="46.0559777" lon="12.0594505"><ele>296.3333333333333</ele><time>2026-04-09T11:48:07.496Z</time></trkpt><trkpt lat="46.0561451" lon="12.0595361"><ele>297.0</ele><time>2026-04-09T11:48:08.502Z</time></trkpt><trkpt lat="46.0563105" lon="12.0596018"><ele>297.0</ele><time>2026-04-09T11:48:09.502Z</time></trkpt><trkpt lat="46.0564814" lon="12.0596728"><ele>297.0</ele><time>2026-04-09T11:48:10.504Z</time></trkpt><trkpt lat="46.0566274" lon="12.0597649"><ele>297.0</ele><time>2026-04-09T11:48:11.497Z</time></trkpt><trkpt lat="46.0567535" lon="12.0598942"><ele>295.6666666666667</ele><time>2026-04-09T11:48:12.499Z</time></trkpt><trkpt lat="46.0568572" lon="12.0600477"><ele>294.33333333333337</ele><time>2026-04-09T11:48:13.496Z</time></trkpt><trkpt lat="46.0569481" lon="12.0602479"><ele>293.0</ele><time>2026-04-09T11:48:14.493Z</time></trkpt><trkpt lat="46.0570219" lon="12.060499"><ele>293.0</ele><time>2026-04-09T11:48:15.507Z</time></trkpt><trkpt lat="46.0570794" lon="12.0607772"><ele>293.0</ele><time>2026-04-09T11:48:16.493Z</time></trkpt><trkpt lat="46.0571356" lon="12.0610806"><ele>293.0</ele><time>2026-04-09T11:48:17.496Z</time></trkpt><trkpt lat="46.0571964" lon="12.0614068"><ele>293.5</ele><time>2026-04-09T11:48:18.511Z</time></trkpt><trkpt lat="46.0572541" lon="12.061746"><ele>294.0</ele><time>2026-04-09T11:48:19.495Z</time></trkpt><trkpt lat="46.0573087" lon="12.0620669"><ele>294.0</ele><time>2026-04-09T11:48:20.494Z</time></trkpt><trkpt lat="46.0573716" lon="12.0623698"><ele>294.0</ele><time>2026-04-09T11:48:21.494Z</time></trkpt><trkpt lat="46.0574493" lon="12.0626811"><ele>294.0</ele><time>2026-04-09T11:48:22.506Z</time></trkpt><trkpt lat="46.0575487" lon="12.0629923"><ele>293.5</ele><time>2026-04-09T11:48:23.494Z</time></trkpt><trkpt lat="46.0576642" lon="12.0632939"><ele>293.0</ele><time>2026-04-09T11:48:24.5Z</time></trkpt><trkpt lat="46.0577863" lon="12.0635766"><ele>293.0</ele><time>2026-04-09T11:48:25.494Z</time></trkpt><trkpt lat="46.0579123" lon="12.0638614"><ele>293.0</ele><time>2026-04-09T11:48:26.51Z</time></trkpt><trkpt lat="46.0580276" lon="12.064123"><ele>293.0</ele><time>2026-04-09T11:48:27.492Z</time></trkpt><trkpt lat="46.0581358" lon="12.0643751"><ele>293.0</ele><time>2026-04-09T11:48:28.502Z</time></trkpt><trkpt lat="46.0582317" lon="12.0645974"><ele>293.0</ele><time>2026-04-09T11:48:29.495Z</time></trkpt><trkpt lat="46.0583238" lon="12.0648053"><ele>293.0</ele><time>2026-04-09T11:48:30.495Z</time></trkpt><trkpt lat="46.0584186" lon="12.0650082"><ele>293.0</ele><time>2026-04-09T11:48:31.492Z</time></trkpt><trkpt lat="46.0585178" lon="12.0651837"><ele>293.0</ele><time>2026-04-09T11:48:32.494Z</time></trkpt><trkpt lat="46.058618" lon="12.0653306"><ele>293.0</ele><time>2026-04-09T11:48:33.492Z</time></trkpt><trkpt lat="46.0587294" lon="12.0654757"><ele>293.0</ele><time>2026-04-09T11:48:34.491Z</time></trkpt><trkpt lat="46.0588418" lon="12.0655984"><ele>293.0</ele><time>2026-04-09T11:48:35.492Z</time></trkpt><trkpt lat="46.0589603" lon="12.0657172"><ele>293.0</ele><time>2026-04-09T11:48:36.49Z</time></trkpt><trkpt lat="46.059071" lon="12.0658263"><ele>293.0</ele><time>2026-04-09T11:48:37.494Z</time></trkpt><trkpt lat="46.0591827" lon="12.0659219"><ele>292.25</ele><time>2026-04-09T11:48:38.491Z</time></trkpt><trkpt lat="46.0593033" lon="12.0659873"><ele>291.5</ele><time>2026-04-09T11:48:39.493Z</time></trkpt><trkpt lat="46.0594333" lon="12.066021"><ele>290.75</ele><time>2026-04-09T11:48:40.502Z</time></trkpt><trkpt lat="46.0595675" lon="12.066021"><ele>290.0</ele><time>2026-04-09T11:48:41.495Z</time></trkpt><trkpt lat="46.0597035" lon="12.0660082"><ele>290.0</ele><time>2026-04-09T11:48:42.495Z</time></trkpt><trkpt lat="46.0598305" lon="12.0659912"><ele>290.0</ele><time>2026-04-09T11:48:43.496Z</time></trkpt><trkpt lat="46.0599461" lon="12.0659841"><ele>290.0</ele><time>2026-04-09T11:48:44.478Z</time></trkpt><trkpt lat="46.0600472" lon="12.0659877"><ele>290.0</ele><time>2026-04-09T11:48:45.5Z</time></trkpt><trkpt lat="46.0601404" lon="12.066013"><ele>290.0</ele><time>2026-04-09T11:48:46.491Z</time></trkpt><trkpt lat="46.0602379" lon="12.0660777"><ele>288.25</ele><time>2026-04-09T11:48:47.494Z</time></trkpt><trkpt lat="46.0603545" lon="12.0661806"><ele>286.5</ele><time>2026-04-09T11:48:48.498Z</time></trkpt><trkpt lat="46.0604734" lon="12.0662994"><ele>284.75</ele><time>2026-04-09T11:48:49.506Z</time></trkpt><trkpt lat="46.0605998" lon="12.0664228"><ele>283.0</ele><time>2026-04-09T11:48:50.501Z</time></trkpt><trkpt lat="46.0607023" lon="12.0665431"><ele>281.5</ele><time>2026-04-09T11:48:51.505Z</time></trkpt><trkpt lat="46.0607889" lon="12.0666765"><ele>280.0</ele><time>2026-04-09T11:48:52.497Z</time></trkpt><trkpt lat="46.0608353" lon="12.066832"><ele>278.5</ele><time>2026-04-09T11:48:53.499Z</time></trkpt><trkpt lat="46.0608607" lon="12.0670022"><ele>277.0</ele><time>2026-04-09T11:48:54.49Z</time></trkpt><trkpt lat="46.0608639" lon="12.0671988"><ele>277.0</ele><time>2026-04-09T11:48:55.497Z</time></trkpt><trkpt lat="46.0608529" lon="12.0674142"><ele>277.0</ele><time>2026-04-09T11:48:56.496Z</time></trkpt><trkpt lat="46.0608361" lon="12.0676517"><ele>277.0</ele><time>2026-04-09T11:48:57.501Z</time></trkpt><trkpt lat="46.060816" lon="12.0679274"><ele>277.0</ele><time>2026-04-09T11:48:58.509Z</time></trkpt><trkpt lat="46.0607945" lon="12.0682167"><ele>277.0</ele><time>2026-04-09T11:48:59.487Z</time></trkpt><trkpt lat="46.0607728" lon="12.0685039"><ele>277.0</ele><time>2026-04-09T11:49:00.488Z</time></trkpt><trkpt lat="46.0607557" lon="12.0687737"><ele>276.3333333333333</ele><time>2026-04-09T11:49:01.491Z</time></trkpt><trkpt lat="46.0607366" lon="12.0690198"><ele>275.6666666666667</ele><time>2026-04-09T11:49:02.493Z</time></trkpt><trkpt lat="46.0607198" lon="12.0692684"><ele>275.0</ele><time>2026-04-09T11:49:03.493Z</time></trkpt><trkpt lat="46.0607084" lon="12.0694842"><ele>274.75</ele><time>2026-04-09T11:49:04.504Z</time></trkpt><trkpt lat="46.060716" lon="12.069681"><ele>274.5</ele><time>2026-04-09T11:49:05.494Z</time></trkpt><trkpt lat="46.0607517" lon="12.0698595"><ele>274.25</ele><time>2026-04-09T11:49:06.495Z</time></trkpt><trkpt lat="46.0608214" lon="12.0699985"><ele>274.0</ele><time>2026-04-09T11:49:07.49Z</time></trkpt><trkpt lat="46.0609142" lon="12.0701083"><ele>275.59999999999997</ele><time>2026-04-09T11:49:08.493Z</time></trkpt><trkpt lat="46.0610119" lon="12.0701747"><ele>277.2</ele><time>2026-04-09T11:49:09.494Z</time></trkpt><trkpt lat="46.0611176" lon="12.0702036"><ele>278.79999999999995</ele><time>2026-04-09T11:49:10.476Z</time></trkpt><trkpt lat="46.0612283" lon="12.0701831"><ele>280.4</ele><time>2026-04-09T11:49:11.495Z</time></trkpt><trkpt lat="46.0613274" lon="12.0701275"><ele>282.0</ele><time>2026-04-09T11:49:12.498Z</time></trkpt><trkpt lat="46.0614322" lon="12.0700304"><ele>280.5</ele><time>2026-04-09T11:49:13.492Z</time></trkpt><trkpt lat="46.0615513" lon="12.0699172"><ele>279.0</ele><time>2026-04-09T11:49:14.5Z</time></trkpt><trkpt lat="46.0616623" lon="12.0698297"><ele>277.5</ele><time>2026-04-09T11:49:15.49Z</time></trkpt><trkpt lat="46.061759" lon="12.0697574"><ele>276.0</ele><time>2026-04-09T11:49:16.497Z</time></trkpt><trkpt lat="46.0618448" lon="12.0697252"><ele>276.0</ele><time>2026-04-09T11:49:17.494Z</time></trkpt><trkpt lat="46.061925" lon="12.0697431"><ele>276.0</ele><time>2026-04-09T11:49:18.499Z</time></trkpt><trkpt lat="46.0619768" lon="12.0697965"><ele>276.0</ele><time>2026-04-09T11:49:19.494Z</time></trkpt><trkpt lat="46.0619728" lon="12.0699293"><ele>276.0</ele><time>2026-04-09T11:49:21.51Z</time></trkpt><trkpt lat="46.0618996" lon="12.0699981"><ele>276.0</ele><time>2026-04-09T11:49:22.501Z</time></trkpt><trkpt lat="46.0617877" lon="12.0700817"><ele>278.0</ele><time>2026-04-09T11:49:23.494Z</time></trkpt><trkpt lat="46.0616394" lon="12.0701844"><ele>280.0</ele><time>2026-04-09T11:49:24.506Z</time></trkpt><trkpt lat="46.0614979" lon="12.0703032"><ele>282.0</ele><time>2026-04-09T11:49:25.489Z</time></trkpt><trkpt lat="46.0613885" lon="12.0704121"><ele>282.0</ele><time>2026-04-09T11:49:26.504Z</time></trkpt><trkpt lat="46.0612962" lon="12.0705469"><ele>282.0</ele><time>2026-04-09T11:49:27.49Z</time></trkpt><trkpt lat="46.0612287" lon="12.0706903"><ele>282.0</ele><time>2026-04-09T11:49:28.493Z</time></trkpt><trkpt lat="46.0611845" lon="12.0708254"><ele>282.0</ele><time>2026-04-09T11:49:29.492Z</time></trkpt><trkpt lat="46.0611731" lon="12.0709686"><ele>284.4</ele><time>2026-04-09T11:49:30.495Z</time></trkpt><trkpt lat="46.0611866" lon="12.0710971"><ele>286.79999999999995</ele><time>2026-04-09T11:49:31.506Z</time></trkpt><trkpt lat="46.0612212" lon="12.0712352"><ele>289.2</ele><time>2026-04-09T11:49:32.501Z</time></trkpt><trkpt lat="46.0612537" lon="12.0713656"><ele>291.59999999999997</ele><time>2026-04-09T11:49:33.491Z</time></trkpt><trkpt lat="46.0612974" lon="12.0714888"><ele>294.0</ele><time>2026-04-09T11:49:34.487Z</time></trkpt><trkpt lat="46.0613427" lon="12.0716343"><ele>296.75</ele><time>2026-04-09T11:49:35.504Z</time></trkpt><trkpt lat="46.0613983" lon="12.0717967"><ele>299.5</ele><time>2026-04-09T11:49:36.496Z</time></trkpt><trkpt lat="46.0614527" lon="12.071959"><ele>302.25</ele><time>2026-04-09T11:49:37.498Z</time></trkpt><trkpt lat="46.0615032" lon="12.0721571"><ele>305.0</ele><time>2026-04-09T11:49:38.507Z</time></trkpt><trkpt lat="46.0615492" lon="12.0723584"><ele>305.6666666666667</ele><time>2026-04-09T11:49:39.517Z</time></trkpt><trkpt lat="46.0616008" lon="12.0725858"><ele>306.3333333333333</ele><time>2026-04-09T11:49:40.493Z</time></trkpt><trkpt lat="46.0616528" lon="12.0728268"><ele>307.0</ele><time>2026-04-09T11:49:41.495Z</time></trkpt><trkpt lat="46.0617048" lon="12.0730582"><ele>308.3333333333333</ele><time>2026-04-09T11:49:42.493Z</time></trkpt><trkpt lat="46.0617541" lon="12.0732919"><ele>309.6666666666667</ele><time>2026-04-09T11:49:43.492Z</time></trkpt><trkpt lat="46.0617981" lon="12.0734963"><ele>311.0</ele><time>2026-04-09T11:49:44.496Z</time></trkpt><trkpt lat="46.0618377" lon="12.0736877"><ele>311.0</ele><time>2026-04-09T11:49:45.502Z</time></trkpt><trkpt lat="46.0618775" lon="12.0738838"><ele>311.0</ele><time>2026-04-09T11:49:46.497Z</time></trkpt><trkpt lat="46.0619143" lon="12.0740758"><ele>311.0</ele><time>2026-04-09T11:49:47.495Z</time></trkpt><trkpt lat="46.0619601" lon="12.0742736"><ele>311.0</ele><time>2026-04-09T11:49:48.506Z</time></trkpt><trkpt lat="46.0620095" lon="12.0744693"><ele>313.0</ele><time>2026-04-09T11:49:49.494Z</time></trkpt><trkpt lat="46.062045" lon="12.0746631"><ele>315.0</ele><time>2026-04-09T11:49:50.491Z</time></trkpt><trkpt lat="46.0620775" lon="12.0748431"><ele>317.0</ele><time>2026-04-09T11:49:51.491Z</time></trkpt><trkpt lat="46.0620976" lon="12.0749879"><ele>319.0</ele><time>2026-04-09T11:49:52.494Z</time></trkpt><trkpt lat="46.0621426" lon="12.0751328"><ele>320.3333333333333</ele><time>2026-04-09T11:49:53.489Z</time></trkpt><trkpt lat="46.0621495" lon="12.0752366"><ele>321.66666666666663</ele><time>2026-04-09T11:49:54.492Z</time></trkpt><trkpt lat="46.0621381" lon="12.0753579"><ele>323.0</ele><time>2026-04-09T11:49:55.493Z</time></trkpt><trkpt lat="46.0621212" lon="12.075464"><ele>324.3333333333333</ele><time>2026-04-09T11:49:56.502Z</time></trkpt><trkpt lat="46.06208" lon="12.0755432"><ele>325.6666666666667</ele><time>2026-04-09T11:49:57.49Z</time></trkpt><trkpt lat="46.0620476" lon="12.0756974"><ele>327.0</ele><time>2026-04-09T11:49:59.493Z</time></trkpt><trkpt lat="46.0620708" lon="12.0758009"><ele>328.20000000000005</ele><time>2026-04-09T11:50:03.499Z</time></trkpt><trkpt lat="46.0620527" lon="12.0759305"><ele>329.4</ele><time>2026-04-09T11:50:05.491Z</time></trkpt><trkpt lat="46.0620209" lon="12.0760225"><ele>330.6</ele><time>2026-04-09T11:50:06.503Z</time></trkpt><trkpt lat="46.0619783" lon="12.076146"><ele>331.79999999999995</ele><time>2026-04-09T11:50:07.504Z</time></trkpt><trkpt lat="46.0619281" lon="12.0762795"><ele>333.0</ele><time>2026-04-09T11:50:08.498Z</time></trkpt><trkpt lat="46.061879" lon="12.0764318"><ele>334.5</ele><time>2026-04-09T11:50:09.498Z</time></trkpt><trkpt lat="46.0618255" lon="12.0766058"><ele>336.0</ele><time>2026-04-09T11:50:10.501Z</time></trkpt><trkpt lat="46.0617666" lon="12.0767861"><ele>337.5</ele><time>2026-04-09T11:50:11.495Z</time></trkpt><trkpt lat="46.0617305" lon="12.0769607"><ele>339.0</ele><time>2026-04-09T11:50:12.502Z</time></trkpt><trkpt lat="46.0617165" lon="12.0771255"><ele>339.0</ele><time>2026-04-09T11:50:13.503Z</time></trkpt><trkpt lat="46.0616916" lon="12.0772933"><ele>339.0</ele><time>2026-04-09T11:50:14.499Z</time></trkpt><trkpt lat="46.0617055" lon="12.0774506"><ele>339.0</ele><time>2026-04-09T11:50:15.494Z</time></trkpt><trkpt lat="46.0617216" lon="12.0776087"><ele>339.0</ele><time>2026-04-09T11:50:16.49Z</time></trkpt><trkpt lat="46.0617257" lon="12.0777701"><ele>339.6</ele><time>2026-04-09T11:50:17.506Z</time></trkpt><trkpt lat="46.0617453" lon="12.077928"><ele>340.2</ele><time>2026-04-09T11:50:18.502Z</time></trkpt><trkpt lat="46.0617776" lon="12.0780812"><ele>340.8</ele><time>2026-04-09T11:50:19.504Z</time></trkpt><trkpt lat="46.0617705" lon="12.0782318"><ele>341.40000000000003</ele><time>2026-04-09T11:50:20.507Z</time></trkpt><trkpt lat="46.0617855" lon="12.0783866"><ele>342.0</ele><time>2026-04-09T11:50:21.493Z</time></trkpt><trkpt lat="46.0617904" lon="12.0785282"><ele>342.8</ele><time>2026-04-09T11:50:22.497Z</time></trkpt><trkpt lat="46.0617713" lon="12.0786559"><ele>343.6</ele><time>2026-04-09T11:50:23.494Z</time></trkpt><trkpt lat="46.0617435" lon="12.0787819"><ele>344.40000000000003</ele><time>2026-04-09T11:50:24.494Z</time></trkpt><trkpt lat="46.0617302" lon="12.0789148"><ele>345.20000000000005</ele><time>2026-04-09T11:50:25.495Z</time></trkpt><trkpt lat="46.0617233" lon="12.0790578"><ele>346.0</ele><time>2026-04-09T11:50:26.487Z</time></trkpt><trkpt lat="46.0617279" lon="12.0791893"><ele>346.8333333333333</ele><time>2026-04-09T11:50:27.491Z</time></trkpt><trkpt lat="46.0617442" lon="12.0793058"><ele>347.66666666666663</ele><time>2026-04-09T11:50:28.505Z</time></trkpt><trkpt lat="46.0617749" lon="12.0794047"><ele>348.5</ele><time>2026-04-09T11:50:29.502Z</time></trkpt><trkpt lat="46.0618408" lon="12.0795425"><ele>349.3333333333333</ele><time>2026-04-09T11:50:31.492Z</time></trkpt><trkpt lat="46.061925" lon="12.079627"><ele>350.1666666666667</ele><time>2026-04-09T11:50:33.498Z</time></trkpt><trkpt lat="46.0619961" lon="12.0796468"><ele>351.0</ele><time>2026-04-09T11:50:35.502Z</time></trkpt><trkpt lat="46.0620807" lon="12.0796299"><ele>351.0</ele><time>2026-04-09T11:50:37.495Z</time></trkpt><trkpt lat="46.062192" lon="12.0795772"><ele>351.0</ele><time>2026-04-09T11:50:39.497Z</time></trkpt><trkpt lat="46.0622922" lon="12.0794953"><ele>351.0</ele><time>2026-04-09T11:50:41.498Z</time></trkpt><trkpt lat="46.0623604" lon="12.0793739"><ele>351.0</ele><time>2026-04-09T11:50:43.501Z</time></trkpt><trkpt lat="46.0624083" lon="12.0792444"><ele>351.0</ele><time>2026-04-09T11:50:45.495Z</time></trkpt><trkpt lat="46.0624832" lon="12.0791343"><ele>351.1666666666667</ele><time>2026-04-09T11:50:47.489Z</time></trkpt><trkpt lat="46.0625951" lon="12.079063"><ele>351.3333333333333</ele><time>2026-04-09T11:50:49.489Z</time></trkpt><trkpt lat="46.0626645" lon="12.0790411"><ele>351.5</ele><time>2026-04-09T11:50:50.495Z</time></trkpt><trkpt lat="46.0627361" lon="12.0790268"><ele>351.66666666666663</ele><time>2026-04-09T11:50:51.498Z</time></trkpt><trkpt lat="46.0628117" lon="12.0790054"><ele>351.8333333333333</ele><time>2026-04-09T11:50:52.499Z</time></trkpt><trkpt lat="46.0628771" lon="12.0789939"><ele>352.0</ele><time>2026-04-09T11:50:53.498Z</time></trkpt><trkpt lat="46.0629919" lon="12.0790251"><ele>352.0</ele><time>2026-04-09T11:50:55.498Z</time></trkpt><trkpt lat="46.0630505" lon="12.0790693"><ele>352.0</ele><time>2026-04-09T11:50:56.497Z</time></trkpt><trkpt lat="46.0631179" lon="12.0791315"><ele>352.0</ele><time>2026-04-09T11:50:57.493Z</time></trkpt><trkpt lat="46.0631827" lon="12.0791993"><ele>352.0</ele><time>2026-04-09T11:50:58.497Z</time></trkpt><trkpt lat="46.0632691" lon="12.079279"><ele>352.0</ele><time>2026-04-09T11:50:59.493Z</time></trkpt><trkpt lat="46.0633435" lon="12.07934"><ele>352.0</ele><time>2026-04-09T11:51:00.494Z</time></trkpt><trkpt lat="46.0634552" lon="12.0794044"><ele>352.75</ele><time>2026-04-09T11:51:01.494Z</time></trkpt><trkpt lat="46.063575" lon="12.0794499"><ele>353.5</ele><time>2026-04-09T11:51:02.498Z</time></trkpt><trkpt lat="46.0637175" lon="12.0795082"><ele>354.25</ele><time>2026-04-09T11:51:03.494Z</time></trkpt><trkpt lat="46.0638381" lon="12.0795768"><ele>355.0</ele><time>2026-04-09T11:51:04.505Z</time></trkpt><trkpt lat="46.0639461" lon="12.0796559"><ele>355.0</ele><time>2026-04-09T11:51:05.503Z</time></trkpt><trkpt lat="46.0640448" lon="12.0797556"><ele>355.0</ele><time>2026-04-09T11:51:06.503Z</time></trkpt><trkpt lat="46.0641336" lon="12.0798865"><ele>355.0</ele><time>2026-04-09T11:51:07.5Z</time></trkpt><trkpt lat="46.0642024" lon="12.0800438"><ele>355.0</ele><time>2026-04-09T11:51:08.503Z</time></trkpt><trkpt lat="46.064277" lon="12.0802343"><ele>354.5</ele><time>2026-04-09T11:51:09.492Z</time></trkpt><trkpt lat="46.0643302" lon="12.0804156"><ele>354.0</ele><time>2026-04-09T11:51:10.493Z</time></trkpt><trkpt lat="46.0643802" lon="12.080633"><ele>353.5</ele><time>2026-04-09T11:51:11.512Z</time></trkpt><trkpt lat="46.0644193" lon="12.0808353"><ele>353.0</ele><time>2026-04-09T11:51:12.488Z</time></trkpt><trkpt lat="46.0644492" lon="12.0809854"><ele>352.5</ele><time>2026-04-09T11:51:13.491Z</time></trkpt><trkpt lat="46.0644632" lon="12.0811075"><ele>352.0</ele><time>2026-04-09T11:51:14.499Z</time></trkpt><trkpt lat="46.0644545" lon="12.0812023"><ele>351.5</ele><time>2026-04-09T11:51:15.494Z</time></trkpt><trkpt lat="46.0644199" lon="12.0812805"><ele>351.0</ele><time>2026-04-09T11:51:16.496Z</time></trkpt><trkpt lat="46.0643597" lon="12.081357"><ele>350.5</ele><time>2026-04-09T11:51:17.495Z</time></trkpt><trkpt lat="46.0642738" lon="12.081422"><ele>350.0</ele><time>2026-04-09T11:51:18.499Z</time></trkpt><trkpt lat="46.0641638" lon="12.0814846"><ele>350.4</ele><time>2026-04-09T11:51:19.498Z</time></trkpt><trkpt lat="46.0640581" lon="12.0815428"><ele>350.8</ele><time>2026-04-09T11:51:20.498Z</time></trkpt><trkpt lat="46.0639443" lon="12.0816018"><ele>351.20000000000005</ele><time>2026-04-09T11:51:21.495Z</time></trkpt><trkpt lat="46.0638342" lon="12.0816607"><ele>351.6</ele><time>2026-04-09T11:51:22.505Z</time></trkpt><trkpt lat="46.0637545" lon="12.0817166"><ele>352.0</ele><time>2026-04-09T11:51:23.492Z</time></trkpt><trkpt lat="46.0637087" lon="12.081781"><ele>351.0</ele><time>2026-04-09T11:51:24.496Z</time></trkpt><trkpt lat="46.0636809" lon="12.0818732"><ele>350.0</ele><time>2026-04-09T11:51:25.498Z</time></trkpt><trkpt lat="46.0636789" lon="12.0819877"><ele>349.0</ele><time>2026-04-09T11:51:26.495Z</time></trkpt><trkpt lat="46.0637064" lon="12.0821303"><ele>348.0</ele><time>2026-04-09T11:51:27.5Z</time></trkpt><trkpt lat="46.0637484" lon="12.0822883"><ele>347.0</ele><time>2026-04-09T11:51:28.501Z</time></trkpt><trkpt lat="46.0637954" lon="12.0824436"><ele>346.40000000000003</ele><time>2026-04-09T11:51:29.49Z</time></trkpt><trkpt lat="46.0638395" lon="12.082602"><ele>345.8</ele><time>2026-04-09T11:51:30.497Z</time></trkpt><trkpt lat="46.0638823" lon="12.0827494"><ele>345.2</ele><time>2026-04-09T11:51:31.493Z</time></trkpt><trkpt lat="46.0639211" lon="12.082886"><ele>344.6</ele><time>2026-04-09T11:51:32.492Z</time></trkpt><trkpt lat="46.0639597" lon="12.0830269"><ele>344.0</ele><time>2026-04-09T11:51:33.496Z</time></trkpt><trkpt lat="46.0639951" lon="12.0831695"><ele>343.6</ele><time>2026-04-09T11:51:34.496Z</time></trkpt><trkpt lat="46.0640345" lon="12.0833248"><ele>343.2</ele><time>2026-04-09T11:51:35.493Z</time></trkpt><trkpt lat="46.0640693" lon="12.0834612"><ele>342.8</ele><time>2026-04-09T11:51:36.492Z</time></trkpt><trkpt lat="46.0641005" lon="12.0835909"><ele>342.40000000000003</ele><time>2026-04-09T11:51:37.493Z</time></trkpt><trkpt lat="46.0641181" lon="12.083708"><ele>342.0</ele><time>2026-04-09T11:51:38.499Z</time></trkpt><trkpt lat="46.0641141" lon="12.0838131"><ele>342.0</ele><time>2026-04-09T11:51:39.495Z</time></trkpt><trkpt lat="46.0640423" lon="12.0839622"><ele>342.0</ele><time>2026-04-09T11:51:41.492Z</time></trkpt><trkpt lat="46.0639739" lon="12.084013"><ele>342.0</ele><time>2026-04-09T11:51:42.503Z</time></trkpt><trkpt lat="46.0639045" lon="12.0840483"><ele>342.0</ele><time>2026-04-09T11:51:43.49Z</time></trkpt><trkpt lat="46.0638415" lon="12.0840814"><ele>342.0</ele><time>2026-04-09T11:51:44.49Z</time></trkpt><trkpt lat="46.0637191" lon="12.0841068"><ele>342.0</ele><time>2026-04-09T11:51:46.494Z</time></trkpt><trkpt lat="46.0635947" lon="12.0840889"><ele>342.0</ele><time>2026-04-09T11:51:48.496Z</time></trkpt><trkpt lat="46.0635378" lon="12.0840485"><ele>342.0</ele><time>2026-04-09T11:51:49.49Z</time></trkpt><trkpt lat="46.0634459" lon="12.0839303"><ele>342.0</ele><time>2026-04-09T11:51:51.492Z</time></trkpt><trkpt lat="46.0633699" lon="12.0838313"><ele>342.0</ele><time>2026-04-09T11:51:53.495Z</time></trkpt><trkpt lat="46.063285" lon="12.0837563"><ele>341.1666666666667</ele><time>2026-04-09T11:51:55.492Z</time></trkpt><trkpt lat="46.0632014" lon="12.0837371"><ele>340.3333333333333</ele><time>2026-04-09T11:51:57.5Z</time></trkpt><trkpt lat="46.063135" lon="12.0837663"><ele>339.5</ele><time>2026-04-09T11:51:59.501Z</time></trkpt><trkpt lat="46.0630669" lon="12.08382"><ele>338.66666666666663</ele><time>2026-04-09T11:52:06.493Z</time></trkpt><trkpt lat="46.0629952" lon="12.0838763"><ele>337.8333333333333</ele><time>2026-04-09T11:52:09.491Z</time></trkpt><trkpt lat="46.0629802" lon="12.0839927"><ele>337.0</ele><time>2026-04-09T11:52:15.493Z</time></trkpt><trkpt lat="46.0629936" lon="12.0840822"><ele>336.0</ele><time>2026-04-09T11:52:16.505Z</time></trkpt><trkpt lat="46.0630291" lon="12.0841917"><ele>335.0</ele><time>2026-04-09T11:52:17.501Z</time></trkpt><trkpt lat="46.0630855" lon="12.0843351"><ele>334.0</ele><time>2026-04-09T11:52:18.504Z</time></trkpt><trkpt lat="46.0631315" lon="12.0844796"><ele>333.0</ele><time>2026-04-09T11:52:19.493Z</time></trkpt><trkpt lat="46.0631749" lon="12.084647"><ele>332.0</ele><time>2026-04-09T11:52:20.5Z</time></trkpt><trkpt lat="46.063213" lon="12.084823"><ele>332.25</ele><time>2026-04-09T11:52:21.496Z</time></trkpt><trkpt lat="46.063243" lon="12.0850003"><ele>332.5</ele><time>2026-04-09T11:52:22.499Z</time></trkpt><trkpt lat="46.0632807" lon="12.0851834"><ele>332.75</ele><time>2026-04-09T11:52:23.498Z</time></trkpt><trkpt lat="46.0633146" lon="12.0853524"><ele>333.0</ele><time>2026-04-09T11:52:24.498Z</time></trkpt><trkpt lat="46.0633454" lon="12.0855257"><ele>333.0</ele><time>2026-04-09T11:52:25.492Z</time></trkpt><trkpt lat="46.063382" lon="12.0857033"><ele>333.0</ele><time>2026-04-09T11:52:26.495Z</time></trkpt><trkpt lat="46.0634124" lon="12.0858741"><ele>333.0</ele><time>2026-04-09T11:52:27.494Z</time></trkpt><trkpt lat="46.0634447" lon="12.0860306"><ele>333.0</ele><time>2026-04-09T11:52:28.511Z</time></trkpt><trkpt lat="46.0634723" lon="12.0861794"><ele>332.3333333333333</ele><time>2026-04-09T11:52:29.499Z</time></trkpt><trkpt lat="46.0634912" lon="12.0863023"><ele>331.6666666666667</ele><time>2026-04-09T11:52:30.507Z</time></trkpt><trkpt lat="46.0635042" lon="12.086398"><ele>331.0</ele><time>2026-04-09T11:52:31.486Z</time></trkpt><trkpt lat="46.0635067" lon="12.086542"><ele>330.33333333333337</ele><time>2026-04-09T11:52:33.502Z</time></trkpt><trkpt lat="46.0634793" lon="12.0866309"><ele>329.6666666666667</ele><time>2026-04-09T11:52:35.497Z</time></trkpt><trkpt lat="46.0634611" lon="12.08676"><ele>329.0</ele><time>2026-04-09T11:52:38.497Z</time></trkpt><trkpt lat="46.0634935" lon="12.086937"><ele>328.83333333333337</ele><time>2026-04-09T11:52:40.498Z</time></trkpt><trkpt lat="46.0635342" lon="12.0870211"><ele>328.6666666666667</ele><time>2026-04-09T11:52:41.493Z</time></trkpt><trkpt lat="46.0635759" lon="12.0870922"><ele>328.5</ele><time>2026-04-09T11:52:42.505Z</time></trkpt><trkpt lat="46.06365" lon="12.0872531"><ele>328.3333333333333</ele><time>2026-04-09T11:52:44.496Z</time></trkpt><trkpt lat="46.0636819" lon="12.0873343"><ele>328.16666666666663</ele><time>2026-04-09T11:52:45.501Z</time></trkpt><trkpt lat="46.0637209" lon="12.0874777"><ele>328.0</ele><time>2026-04-09T11:52:47.512Z</time></trkpt><trkpt lat="46.0637553" lon="12.0876253"><ele>328.0</ele><time>2026-04-09T11:52:49.498Z</time></trkpt><trkpt lat="46.0637763" lon="12.08772"><ele>328.0</ele><time>2026-04-09T11:52:50.502Z</time></trkpt><trkpt lat="46.063804" lon="12.087843"><ele>328.0</ele><time>2026-04-09T11:52:51.492Z</time></trkpt><trkpt lat="46.0638348" lon="12.0879837"><ele>328.0</ele><time>2026-04-09T11:52:52.501Z</time></trkpt><trkpt lat="46.0638683" lon="12.0881355"><ele>328.0</ele><time>2026-04-09T11:52:53.486Z</time></trkpt><trkpt lat="46.0638992" lon="12.0882804"><ele>327.59999999999997</ele><time>2026-04-09T11:52:54.486Z</time></trkpt><trkpt lat="46.063925" lon="12.0884082"><ele>327.2</ele><time>2026-04-09T11:52:55.487Z</time></trkpt><trkpt lat="46.0639476" lon="12.0885171"><ele>326.8</ele><time>2026-04-09T11:52:56.498Z</time></trkpt><trkpt lat="46.0639739" lon="12.0886754"><ele>326.4</ele><time>2026-04-09T11:52:58.512Z</time></trkpt><trkpt lat="46.0640552" lon="12.088786"><ele>326.0</ele><time>2026-04-09T11:53:00.5Z</time></trkpt><trkpt lat="46.0641409" lon="12.0888473"><ele>324.5</ele><time>2026-04-09T11:53:01.499Z</time></trkpt><trkpt lat="46.0642443" lon="12.0889345"><ele>323.0</ele><time>2026-04-09T11:53:02.494Z</time></trkpt><trkpt lat="46.0643547" lon="12.0890469"><ele>321.5</ele><time>2026-04-09T11:53:03.51Z</time></trkpt><trkpt lat="46.0644594" lon="12.0891665"><ele>320.0</ele><time>2026-04-09T11:53:04.501Z</time></trkpt><trkpt lat="46.0645645" lon="12.0892973"><ele>320.0</ele><time>2026-04-09T11:53:05.509Z</time></trkpt><trkpt lat="46.0646674" lon="12.0894592"><ele>320.0</ele><time>2026-04-09T11:53:06.492Z</time></trkpt><trkpt lat="46.0647527" lon="12.0896503"><ele>320.0</ele><time>2026-04-09T11:53:07.502Z</time></trkpt><trkpt lat="46.0648316" lon="12.0898339"><ele>320.0</ele><time>2026-04-09T11:53:08.52Z</time></trkpt><trkpt lat="46.0649237" lon="12.0900187"><ele>320.0</ele><time>2026-04-09T11:53:09.504Z</time></trkpt><trkpt lat="46.0650073" lon="12.0901884"><ele>320.0</ele><time>2026-04-09T11:53:10.505Z</time></trkpt><trkpt lat="46.0651069" lon="12.0903548"><ele>320.0</ele><time>2026-04-09T11:53:11.502Z</time></trkpt><trkpt lat="46.0652189" lon="12.0905012"><ele>320.0</ele><time>2026-04-09T11:53:12.499Z</time></trkpt><trkpt lat="46.0653472" lon="12.0906481"><ele>320.0</ele><time>2026-04-09T11:53:13.49Z</time></trkpt><trkpt lat="46.0654839" lon="12.0907917"><ele>320.0</ele><time>2026-04-09T11:53:14.497Z</time></trkpt><trkpt lat="46.065614" lon="12.0909275"><ele>320.0</ele><time>2026-04-09T11:53:15.496Z</time></trkpt><trkpt lat="46.0657296" lon="12.0910555"><ele>320.0</ele><time>2026-04-09T11:53:16.503Z</time></trkpt><trkpt lat="46.0658389" lon="12.0911795"><ele>320.0</ele><time>2026-04-09T11:53:17.5Z</time></trkpt><trkpt lat="46.0659405" lon="12.0913151"><ele>320.0</ele><time>2026-04-09T11:53:18.511Z</time></trkpt><trkpt lat="46.0660512" lon="12.0914592"><ele>320.0</ele><time>2026-04-09T11:53:19.503Z</time></trkpt><trkpt lat="46.0661552" lon="12.0916167"><ele>320.0</ele><time>2026-04-09T11:53:20.491Z</time></trkpt><trkpt lat="46.0662482" lon="12.0917638"><ele>320.0</ele><time>2026-04-09T11:53:21.488Z</time></trkpt><trkpt lat="46.0663428" lon="12.0918968"><ele>320.0</ele><time>2026-04-09T11:53:22.494Z</time></trkpt><trkpt lat="46.066425" lon="12.09201"><ele>320.0</ele><time>2026-04-09T11:53:23.513Z</time></trkpt><trkpt lat="46.0665085" lon="12.0921025"><ele>320.0</ele><time>2026-04-09T11:53:24.512Z</time></trkpt><trkpt lat="46.0665694" lon="12.0921903"><ele>320.0</ele><time>2026-04-09T11:53:25.499Z</time></trkpt><trkpt lat="46.0666134" lon="12.0923171"><ele>320.0</ele><time>2026-04-09T11:53:26.501Z</time></trkpt><trkpt lat="46.0666663" lon="12.0924588"><ele>322.0</ele><time>2026-04-09T11:53:27.5Z</time></trkpt><trkpt lat="46.0667127" lon="12.0926101"><ele>324.0</ele><time>2026-04-09T11:53:28.497Z</time></trkpt><trkpt lat="46.0667477" lon="12.0927846"><ele>326.0</ele><time>2026-04-09T11:53:29.49Z</time></trkpt><trkpt lat="46.0668392" lon="12.0929841"><ele>328.0</ele><time>2026-04-09T11:53:30.508Z</time></trkpt><trkpt lat="46.0668875" lon="12.0931522"><ele>329.59999999999997</ele><time>2026-04-09T11:53:31.499Z</time></trkpt><trkpt lat="46.0669637" lon="12.0932579"><ele>331.2</ele><time>2026-04-09T11:53:32.493Z</time></trkpt><trkpt lat="46.0670516" lon="12.0934491"><ele>332.8</ele><time>2026-04-09T11:53:33.496Z</time></trkpt><trkpt lat="46.0670824" lon="12.093563"><ele>334.4</ele><time>2026-04-09T11:53:34.496Z</time></trkpt><trkpt lat="46.0671003" lon="12.0937021"><ele>336.0</ele><time>2026-04-09T11:53:35.498Z</time></trkpt><trkpt lat="46.0671218" lon="12.0938522"><ele>336.0</ele><time>2026-04-09T11:53:36.498Z</time></trkpt><trkpt lat="46.0670991" lon="12.0939814"><ele>336.0</ele><time>2026-04-09T11:53:37.504Z</time></trkpt><trkpt lat="46.0670697" lon="12.0940871"><ele>336.0</ele><time>2026-04-09T11:53:38.493Z</time></trkpt><trkpt lat="46.0670252" lon="12.0941862"><ele>336.0</ele><time>2026-04-09T11:53:39.505Z</time></trkpt><trkpt lat="46.066985" lon="12.0942772"><ele>336.0</ele><time>2026-04-09T11:53:40.501Z</time></trkpt><trkpt lat="46.0669689" lon="12.0944157"><ele>336.0</ele><time>2026-04-09T11:53:43.491Z</time></trkpt><trkpt lat="46.0669662" lon="12.0945548"><ele>337.25</ele><time>2026-04-09T11:53:44.499Z</time></trkpt><trkpt lat="46.0669659" lon="12.094711"><ele>338.5</ele><time>2026-04-09T11:53:45.509Z</time></trkpt><trkpt lat="46.0669838" lon="12.0948517"><ele>339.75</ele><time>2026-04-09T11:53:46.502Z</time></trkpt><trkpt lat="46.0670733" lon="12.0950267"><ele>341.0</ele><time>2026-04-09T11:53:47.497Z</time></trkpt><trkpt lat="46.0671091" lon="12.0951783"><ele>341.0</ele><time>2026-04-09T11:53:48.502Z</time></trkpt><trkpt lat="46.0671353" lon="12.095329"><ele>341.0</ele><time>2026-04-09T11:53:49.494Z</time></trkpt><trkpt lat="46.0671662" lon="12.0954789"><ele>341.0</ele><time>2026-04-09T11:53:50.493Z</time></trkpt><trkpt lat="46.0671805" lon="12.0955836"><ele>341.0</ele><time>2026-04-09T11:53:51.493Z</time></trkpt><trkpt lat="46.0672112" lon="12.0957147"><ele>341.0</ele><time>2026-04-09T11:53:52.497Z</time></trkpt><trkpt lat="46.0672529" lon="12.0958411"><ele>341.0</ele><time>2026-04-09T11:53:53.5Z</time></trkpt><trkpt lat="46.0672905" lon="12.0959739"><ele>341.0</ele><time>2026-04-09T11:53:54.491Z</time></trkpt><trkpt lat="46.0673337" lon="12.0961019"><ele>341.0</ele><time>2026-04-09T11:53:55.492Z</time></trkpt><trkpt lat="46.0673789" lon="12.0962152"><ele>341.0</ele><time>2026-04-09T11:53:56.495Z</time></trkpt><trkpt lat="46.0674155" lon="12.0963301"><ele>341.0</ele><time>2026-04-09T11:53:57.491Z</time></trkpt><trkpt lat="46.0674391" lon="12.0964396"><ele>341.20000000000005</ele><time>2026-04-09T11:53:58.494Z</time></trkpt><trkpt lat="46.0674485" lon="12.0965762"><ele>341.40000000000003</ele><time>2026-04-09T11:53:59.491Z</time></trkpt><trkpt lat="46.0674539" lon="12.0967127"><ele>341.6</ele><time>2026-04-09T11:54:00.502Z</time></trkpt><trkpt lat="46.0674527" lon="12.0968359"><ele>341.8</ele><time>2026-04-09T11:54:01.491Z</time></trkpt><trkpt lat="46.0674977" lon="12.0969478"><ele>342.0</ele><time>2026-04-09T11:54:02.488Z</time></trkpt><trkpt lat="46.067554" lon="12.0970631"><ele>342.1666666666667</ele><time>2026-04-09T11:54:03.504Z</time></trkpt><trkpt lat="46.0676213" lon="12.0971982"><ele>342.3333333333333</ele><time>2026-04-09T11:54:04.503Z</time></trkpt><trkpt lat="46.0676829" lon="12.0973279"><ele>342.5</ele><time>2026-04-09T11:54:05.504Z</time></trkpt><trkpt lat="46.0677177" lon="12.0974039"><ele>342.66666666666663</ele><time>2026-04-09T11:54:06.495Z</time></trkpt><trkpt lat="46.0677589" lon="12.097485"><ele>342.8333333333333</ele><time>2026-04-09T11:54:07.493Z</time></trkpt><trkpt lat="46.0677935" lon="12.0975627"><ele>343.0</ele><time>2026-04-09T11:54:08.489Z</time></trkpt><trkpt lat="46.0678156" lon="12.097665"><ele>343.0</ele><time>2026-04-09T11:54:10.491Z</time></trkpt><trkpt lat="46.0678444" lon="12.0977775"><ele>343.0</ele><time>2026-04-09T11:54:12.506Z</time></trkpt><trkpt lat="46.0678699" lon="12.0978633"><ele>343.0</ele><time>2026-04-09T11:54:13.49Z</time></trkpt><trkpt lat="46.0679034" lon="12.0979501"><ele>343.0</ele><time>2026-04-09T11:54:14.492Z</time></trkpt><trkpt lat="46.0679411" lon="12.0980377"><ele>343.0</ele><time>2026-04-09T11:54:15.494Z</time></trkpt><trkpt lat="46.0680037" lon="12.0981772"><ele>343.0</ele><time>2026-04-09T11:54:17.492Z</time></trkpt><trkpt lat="46.0680981" lon="12.0982918"><ele>343.0</ele><time>2026-04-09T11:54:19.499Z</time></trkpt><trkpt lat="46.0682034" lon="12.0983562"><ele>343.0</ele><time>2026-04-09T11:54:21.492Z</time></trkpt><trkpt lat="46.0683101" lon="12.0984651"><ele>343.0</ele><time>2026-04-09T11:54:23.497Z</time></trkpt><trkpt lat="46.0683738" lon="12.098537"><ele>343.0</ele><time>2026-04-09T11:54:24.493Z</time></trkpt><trkpt lat="46.0684351" lon="12.0986519"><ele>343.0</ele><time>2026-04-09T11:54:25.492Z</time></trkpt><trkpt lat="46.0684688" lon="12.0987857"><ele>343.0</ele><time>2026-04-09T11:54:26.493Z</time></trkpt><trkpt lat="46.0685152" lon="12.0989265"><ele>343.0</ele><time>2026-04-09T11:54:27.499Z</time></trkpt><trkpt lat="46.0685645" lon="12.0990909"><ele>343.0</ele><time>2026-04-09T11:54:28.492Z</time></trkpt><trkpt lat="46.06862" lon="12.0992507"><ele>343.0</ele><time>2026-04-09T11:54:29.495Z</time></trkpt><trkpt lat="46.0686754" lon="12.099405"><ele>343.0</ele><time>2026-04-09T11:54:30.493Z</time></trkpt><trkpt lat="46.0687495" lon="12.0995276"><ele>343.0</ele><time>2026-04-09T11:54:31.492Z</time></trkpt><trkpt lat="46.0688149" lon="12.0996487"><ele>343.0</ele><time>2026-04-09T11:54:32.492Z</time></trkpt><trkpt lat="46.0688764" lon="12.0997703"><ele>343.0</ele><time>2026-04-09T11:54:33.5Z</time></trkpt><trkpt lat="46.0689401" lon="12.0999106"><ele>343.0</ele><time>2026-04-09T11:54:34.492Z</time></trkpt><trkpt lat="46.0689992" lon="12.1000419"><ele>342.0</ele><time>2026-04-09T11:54:35.492Z</time></trkpt><trkpt lat="46.0690465" lon="12.100185"><ele>341.0</ele><time>2026-04-09T11:54:36.493Z</time></trkpt><trkpt lat="46.0690968" lon="12.1003158"><ele>340.0</ele><time>2026-04-09T11:54:37.49Z</time></trkpt><trkpt lat="46.0691153" lon="12.1004527"><ele>339.0</ele><time>2026-04-09T11:54:38.493Z</time></trkpt><trkpt lat="46.0691537" lon="12.100584"><ele>338.0</ele><time>2026-04-09T11:54:39.503Z</time></trkpt><trkpt lat="46.0691837" lon="12.1007246"><ele>338.5</ele><time>2026-04-09T11:54:40.499Z</time></trkpt><trkpt lat="46.0692296" lon="12.1008977"><ele>339.0</ele><time>2026-04-09T11:54:41.503Z</time></trkpt><trkpt lat="46.0692783" lon="12.1011068"><ele>339.5</ele><time>2026-04-09T11:54:42.499Z</time></trkpt><trkpt lat="46.0693237" lon="12.101322"><ele>340.0</ele><time>2026-04-09T11:54:43.492Z</time></trkpt><trkpt lat="46.0693966" lon="12.1015434"><ele>338.75</ele><time>2026-04-09T11:54:44.49Z</time></trkpt><trkpt lat="46.0694555" lon="12.1017596"><ele>337.5</ele><time>2026-04-09T11:54:45.495Z</time></trkpt><trkpt lat="46.0695023" lon="12.1019224"><ele>336.25</ele><time>2026-04-09T11:54:46.487Z</time></trkpt><trkpt lat="46.0695342" lon="12.1020928"><ele>335.0</ele><time>2026-04-09T11:54:48.485Z</time></trkpt><trkpt lat="46.0695457" lon="12.1021904"><ele>334.6666666666667</ele><time>2026-04-09T11:54:50.488Z</time></trkpt><trkpt lat="46.0696092" lon="12.1025119"><ele>334.3333333333333</ele><time>2026-04-09T11:54:53.512Z</time></trkpt><trkpt lat="46.0696512" lon="12.1027035"><ele>334.0</ele><time>2026-04-09T11:54:54.492Z</time></trkpt><trkpt lat="46.0697555" lon="12.1030685"><ele>334.0</ele><time>2026-04-09T11:54:56.492Z</time></trkpt><trkpt lat="46.0698744" lon="12.1034558"><ele>334.0</ele><time>2026-04-09T11:54:58.491Z</time></trkpt><trkpt lat="46.0699318" lon="12.1036521"><ele>334.0</ele><time>2026-04-09T11:54:59.49Z</time></trkpt><trkpt lat="46.0700144" lon="12.1038579"><ele>334.0</ele><time>2026-04-09T11:55:00.488Z</time></trkpt><trkpt lat="46.0701003" lon="12.1040644"><ele>334.0</ele><time>2026-04-09T11:55:01.494Z</time></trkpt><trkpt lat="46.0701935" lon="12.1043016"><ele>334.0</ele><time>2026-04-09T11:55:02.489Z</time></trkpt><trkpt lat="46.0702796" lon="12.1045257"><ele>334.25</ele><time>2026-04-09T11:55:03.497Z</time></trkpt><trkpt lat="46.0703467" lon="12.1047236"><ele>334.5</ele><time>2026-04-09T11:55:04.492Z</time></trkpt><trkpt lat="46.070412" lon="12.1049071"><ele>334.75</ele><time>2026-04-09T11:55:05.498Z</time></trkpt><trkpt lat="46.0704777" lon="12.1050865"><ele>335.0</ele><time>2026-04-09T11:55:06.492Z</time></trkpt><trkpt lat="46.0705374" lon="12.1052447"><ele>335.0</ele><time>2026-04-09T11:55:07.487Z</time></trkpt><trkpt lat="46.0705965" lon="12.1053991"><ele>335.0</ele><time>2026-04-09T11:55:08.497Z</time></trkpt><trkpt lat="46.0706405" lon="12.1055477"><ele>335.0</ele><time>2026-04-09T11:55:09.487Z</time></trkpt><trkpt lat="46.0707048" lon="12.1057055"><ele>335.0</ele><time>2026-04-09T11:55:10.493Z</time></trkpt><trkpt lat="46.0707733" lon="12.1058467"><ele>335.33333333333337</ele><time>2026-04-09T11:55:11.65Z</time></trkpt><trkpt lat="46.0708783" lon="12.1061434"><ele>335.6666666666667</ele><time>2026-04-09T11:55:13.493Z</time></trkpt><trkpt lat="46.0709429" lon="12.1063201"><ele>336.0</ele><time>2026-04-09T11:55:14.491Z</time></trkpt><trkpt lat="46.0710044" lon="12.1064881"><ele>336.0</ele><time>2026-04-09T11:55:15.51Z</time></trkpt><trkpt lat="46.0710744" lon="12.1066845"><ele>336.0</ele><time>2026-04-09T11:55:16.489Z</time></trkpt><trkpt lat="46.0711382" lon="12.106849"><ele>336.0</ele><time>2026-04-09T11:55:17.489Z</time></trkpt><trkpt lat="46.0712106" lon="12.1070232"><ele>336.0</ele><time>2026-04-09T11:55:18.491Z</time></trkpt><trkpt lat="46.0712841" lon="12.1071931"><ele>336.0</ele><time>2026-04-09T11:55:19.494Z</time></trkpt><trkpt lat="46.0713376" lon="12.1073291"><ele>336.0</ele><time>2026-04-09T11:55:20.491Z</time></trkpt><trkpt lat="46.0713925" lon="12.107464"><ele>336.0</ele><time>2026-04-09T11:55:21.489Z</time></trkpt><trkpt lat="46.0714326" lon="12.107581"><ele>336.0</ele><time>2026-04-09T11:55:22.491Z</time></trkpt><trkpt lat="46.0714721" lon="12.1077092"><ele>336.0</ele><time>2026-04-09T11:55:23.498Z</time></trkpt><trkpt lat="46.0715145" lon="12.1078502"><ele>336.0</ele><time>2026-04-09T11:55:24.497Z</time></trkpt><trkpt lat="46.0715642" lon="12.1079953"><ele>336.0</ele><time>2026-04-09T11:55:25.494Z</time></trkpt><trkpt lat="46.0716261" lon="12.1081395"><ele>336.0</ele><time>2026-04-09T11:55:26.49Z</time></trkpt><trkpt lat="46.0717068" lon="12.1082833"><ele>336.0</ele><time>2026-04-09T11:55:27.503Z</time></trkpt><trkpt lat="46.071779" lon="12.1084197"><ele>336.0</ele><time>2026-04-09T11:55:28.484Z</time></trkpt><trkpt lat="46.0718192" lon="12.1085181"><ele>336.0</ele><time>2026-04-09T11:55:29.495Z</time></trkpt><trkpt lat="46.071851" lon="12.1085994"><ele>336.0</ele><time>2026-04-09T11:55:31.492Z</time></trkpt><trkpt lat="46.071916" lon="12.1085346"><ele>336.0</ele><time>2026-04-09T11:55:34.496Z</time></trkpt><trkpt lat="46.0719525" lon="12.1084186"><ele>336.0</ele><time>2026-04-09T11:55:35.492Z</time></trkpt><trkpt lat="46.0720317" lon="12.1081375"><ele>336.0</ele><time>2026-04-09T11:55:37.492Z</time></trkpt><trkpt lat="46.0721097" lon="12.1078839"><ele>336.0</ele><time>2026-04-09T11:55:39.494Z</time></trkpt><trkpt lat="46.0721384" lon="12.1077996"><ele>336.0</ele><time>2026-04-09T11:55:40.494Z</time></trkpt><trkpt lat="46.0721773" lon="12.1076658"><ele>336.0</ele><time>2026-04-09T11:55:42.497Z</time></trkpt><trkpt lat="46.0722211" lon="12.1075239"><ele>336.0</ele><time>2026-04-09T11:55:44.498Z</time></trkpt><trkpt lat="46.0722813" lon="12.1074849"><ele>336.0</ele><time>2026-04-09T11:55:46.494Z</time></trkpt><trkpt lat="46.0723704" lon="12.1075"><ele>336.0</ele><time>2026-04-09T11:55:48.496Z</time></trkpt><trkpt lat="46.0724786" lon="12.1074891"><ele>336.0</ele><time>2026-04-09T11:55:50.5Z</time></trkpt><trkpt lat="46.0725958" lon="12.107454"><ele>336.0</ele><time>2026-04-09T11:55:52.506Z</time></trkpt><trkpt lat="46.0726627" lon="12.107442"><ele>335.4</ele><time>2026-04-09T11:55:53.488Z</time></trkpt><trkpt lat="46.0727254" lon="12.1074202"><ele>334.8</ele><time>2026-04-09T11:55:54.493Z</time></trkpt><trkpt lat="46.0728401" lon="12.1073937"><ele>334.2</ele><time>2026-04-09T11:55:56.488Z</time></trkpt><trkpt lat="46.0729447" lon="12.1073727"><ele>333.59999999999997</ele><time>2026-04-09T11:55:58.498Z</time></trkpt><trkpt lat="46.0730562" lon="12.1073486"><ele>333.0</ele><time>2026-04-09T11:56:00.5Z</time></trkpt><trkpt lat="46.0731608" lon="12.107325"><ele>333.59999999999997</ele><time>2026-04-09T11:56:02.492Z</time></trkpt><trkpt lat="46.0732777" lon="12.1073033"><ele>334.2</ele><time>2026-04-09T11:56:04.491Z</time></trkpt><trkpt lat="46.0733427" lon="12.1072816"><ele>334.8</ele><time>2026-04-09T11:56:05.49Z</time></trkpt><trkpt lat="46.0734652" lon="12.1072529"><ele>335.4</ele><time>2026-04-09T11:56:07.489Z</time></trkpt><trkpt lat="46.0735857" lon="12.1072222"><ele>336.0</ele><time>2026-04-09T11:56:09.497Z</time></trkpt><trkpt lat="46.0736589" lon="12.1072058"><ele>336.0</ele><time>2026-04-09T11:56:11.493Z</time></trkpt><trkpt lat="46.0737284" lon="12.1072005"><ele>336.0</ele><time>2026-04-09T11:56:13.487Z</time></trkpt><trkpt lat="46.0738231" lon="12.1072464"><ele>336.0</ele><time>2026-04-09T11:56:17.494Z</time></trkpt><trkpt lat="46.0738323" lon="12.1073445"><ele>336.0</ele><time>2026-04-09T11:56:18.481Z</time></trkpt><trkpt lat="46.0738689" lon="12.1074983"><ele>336.0</ele><time>2026-04-09T11:56:19.498Z</time></trkpt><trkpt lat="46.0739036" lon="12.1076645"><ele>335.5</ele><time>2026-04-09T11:56:20.49Z</time></trkpt><trkpt lat="46.0739427" lon="12.1078209"><ele>335.0</ele><time>2026-04-09T11:56:21.483Z</time></trkpt><trkpt lat="46.0740116" lon="12.1080244"><ele>334.5</ele><time>2026-04-09T11:56:22.487Z</time></trkpt><trkpt lat="46.0741041" lon="12.1081649"><ele>334.0</ele><time>2026-04-09T11:56:23.488Z</time></trkpt><trkpt lat="46.074204" lon="12.108331"><ele>334.0</ele><time>2026-04-09T11:56:24.489Z</time></trkpt><trkpt lat="46.0743169" lon="12.1084862"><ele>334.0</ele><time>2026-04-09T11:56:25.506Z</time></trkpt><trkpt lat="46.0744291" lon="12.1086263"><ele>334.0</ele><time>2026-04-09T11:56:26.49Z</time></trkpt><trkpt lat="46.0745463" lon="12.1087799"><ele>334.0</ele><time>2026-04-09T11:56:27.473Z</time></trkpt><trkpt lat="46.0746475" lon="12.1089239"><ele>334.0</ele><time>2026-04-09T11:56:28.491Z</time></trkpt><trkpt lat="46.0747423" lon="12.1090458"><ele>334.0</ele><time>2026-04-09T11:56:29.494Z</time></trkpt><trkpt lat="46.0748363" lon="12.1091702"><ele>334.0</ele><time>2026-04-09T11:56:30.492Z</time></trkpt><trkpt lat="46.0749222" lon="12.1092977"><ele>334.25</ele><time>2026-04-09T11:56:31.487Z</time></trkpt><trkpt lat="46.0750181" lon="12.1094302"><ele>334.5</ele><time>2026-04-09T11:56:32.489Z</time></trkpt><trkpt lat="46.0751166" lon="12.1095745"><ele>334.75</ele><time>2026-04-09T11:56:33.49Z</time></trkpt><trkpt lat="46.0752105" lon="12.109726"><ele>335.0</ele><time>2026-04-09T11:56:34.49Z</time></trkpt><trkpt lat="46.0752985" lon="12.1098758"><ele>334.75</ele><time>2026-04-09T11:56:35.494Z</time></trkpt><trkpt lat="46.0753782" lon="12.1100336"><ele>334.5</ele><time>2026-04-09T11:56:36.493Z</time></trkpt><trkpt lat="46.0754552" lon="12.1102143"><ele>334.25</ele><time>2026-04-09T11:56:37.5Z</time></trkpt><trkpt lat="46.075526" lon="12.1103822"><ele>334.0</ele><time>2026-04-09T11:56:38.494Z</time></trkpt><trkpt lat="46.0755855" lon="12.1105395"><ele>334.0</ele><time>2026-04-09T11:56:39.496Z</time></trkpt><trkpt lat="46.0756349" lon="12.1106845"><ele>334.0</ele><time>2026-04-09T11:56:40.492Z</time></trkpt><trkpt lat="46.0756855" lon="12.110814"><ele>334.0</ele><time>2026-04-09T11:56:41.498Z</time></trkpt><trkpt lat="46.0757207" lon="12.1109096"><ele>334.0</ele><time>2026-04-09T11:56:42.489Z</time></trkpt><trkpt lat="46.0757544" lon="12.1110071"><ele>334.0</ele><time>2026-04-09T11:56:44.5Z</time></trkpt><trkpt lat="46.0758153" lon="12.1111805"><ele>334.6</ele><time>2026-04-09T11:56:46.507Z</time></trkpt><trkpt lat="46.075866" lon="12.1113133"><ele>335.2</ele><time>2026-04-09T11:56:47.498Z</time></trkpt><trkpt lat="46.0759312" lon="12.111457"><ele>335.8</ele><time>2026-04-09T11:56:48.499Z</time></trkpt><trkpt lat="46.0759949" lon="12.1115841"><ele>336.40000000000003</ele><time>2026-04-09T11:56:49.488Z</time></trkpt><trkpt lat="46.076059" lon="12.1116878"><ele>337.0</ele><time>2026-04-09T11:56:50.498Z</time></trkpt><trkpt lat="46.0761227" lon="12.1117696"><ele>337.0</ele><time>2026-04-09T11:56:51.498Z</time></trkpt><trkpt lat="46.0761731" lon="12.1118361"><ele>337.0</ele><time>2026-04-09T11:56:52.497Z</time></trkpt><trkpt lat="46.07623" lon="12.1118956"><ele>337.0</ele><time>2026-04-09T11:56:53.501Z</time></trkpt><trkpt lat="46.0763021" lon="12.1119327"><ele>337.0</ele><time>2026-04-09T11:56:54.491Z</time></trkpt><trkpt lat="46.0763951" lon="12.1119733"><ele>337.0</ele><time>2026-04-09T11:56:55.494Z</time></trkpt><trkpt lat="46.0764669" lon="12.1120175"><ele>337.0</ele><time>2026-04-09T11:56:56.497Z</time></trkpt><trkpt lat="46.0765351" lon="12.1120506"><ele>337.0</ele><time>2026-04-09T11:56:57.492Z</time></trkpt><trkpt lat="46.0766017" lon="12.1121053"><ele>337.0</ele><time>2026-04-09T11:56:58.499Z</time></trkpt><trkpt lat="46.0766651" lon="12.1121792"><ele>337.0</ele><time>2026-04-09T11:56:59.507Z</time></trkpt><trkpt lat="46.0767267" lon="12.112244"><ele>337.0</ele><time>2026-04-09T11:57:00.491Z</time></trkpt><trkpt lat="46.0767646" lon="12.1123431"><ele>337.0</ele><time>2026-04-09T11:57:01.504Z</time></trkpt><trkpt lat="46.0768094" lon="12.1124791"><ele>337.0</ele><time>2026-04-09T11:57:02.502Z</time></trkpt><trkpt lat="46.0768664" lon="12.1126331"><ele>337.5</ele><time>2026-04-09T11:57:03.498Z</time></trkpt><trkpt lat="46.0769213" lon="12.1127956"><ele>338.0</ele><time>2026-04-09T11:57:04.496Z</time></trkpt><trkpt lat="46.076983" lon="12.1129718"><ele>338.5</ele><time>2026-04-09T11:57:05.49Z</time></trkpt><trkpt lat="46.0770419" lon="12.1131381"><ele>339.0</ele><time>2026-04-09T11:57:06.488Z</time></trkpt><trkpt lat="46.0770862" lon="12.1132921"><ele>338.3333333333333</ele><time>2026-04-09T11:57:07.513Z</time></trkpt><trkpt lat="46.0771362" lon="12.1134235"><ele>337.6666666666667</ele><time>2026-04-09T11:57:08.499Z</time></trkpt><trkpt lat="46.0771883" lon="12.1135303"><ele>337.0</ele><time>2026-04-09T11:57:09.492Z</time></trkpt><trkpt lat="46.0772231" lon="12.1136205"><ele>336.33333333333337</ele><time>2026-04-09T11:57:10.496Z</time></trkpt><trkpt lat="46.0772646" lon="12.113696"><ele>335.6666666666667</ele><time>2026-04-09T11:57:12.495Z</time></trkpt><trkpt lat="46.0773286" lon="12.1137887"><ele>335.0</ele><time>2026-04-09T11:57:16.498Z</time></trkpt><trkpt lat="46.077422" lon="12.1137784"><ele>335.1666666666667</ele><time>2026-04-09T11:57:24.514Z</time></trkpt><trkpt lat="46.077499" lon="12.1137744"><ele>335.33333333333337</ele><time>2026-04-09T11:57:25.537Z</time></trkpt><trkpt lat="46.0775642" lon="12.113776"><ele>335.5</ele><time>2026-04-09T11:57:26.492Z</time></trkpt><trkpt lat="46.0776355" lon="12.1137774"><ele>335.6666666666667</ele><time>2026-04-09T11:57:27.503Z</time></trkpt><trkpt lat="46.0776937" lon="12.1138255"><ele>335.8333333333333</ele><time>2026-04-09T11:57:28.496Z</time></trkpt><trkpt lat="46.0777744" lon="12.1139028"><ele>336.0</ele><time>2026-04-09T11:57:29.5Z</time></trkpt><trkpt lat="46.0778559" lon="12.1139904"><ele>335.8</ele><time>2026-04-09T11:57:30.483Z</time></trkpt><trkpt lat="46.077931" lon="12.1141032"><ele>335.6</ele><time>2026-04-09T11:57:31.492Z</time></trkpt><trkpt lat="46.0780106" lon="12.1142051"><ele>335.4</ele><time>2026-04-09T11:57:32.502Z</time></trkpt><trkpt lat="46.0780837" lon="12.114295"><ele>335.2</ele><time>2026-04-09T11:57:33.495Z</time></trkpt><trkpt lat="46.0781495" lon="12.1143919"><ele>335.0</ele><time>2026-04-09T11:57:34.498Z</time></trkpt><trkpt lat="46.0782065" lon="12.1144625"><ele>334.2</ele><time>2026-04-09T11:57:35.488Z</time></trkpt><trkpt lat="46.0782916" lon="12.1146012"><ele>333.4</ele><time>2026-04-09T11:57:37.505Z</time></trkpt><trkpt lat="46.0783597" lon="12.114688"><ele>332.6</ele><time>2026-04-09T11:57:38.488Z</time></trkpt><trkpt lat="46.0784383" lon="12.1147724"><ele>331.8</ele><time>2026-04-09T11:57:39.486Z</time></trkpt><trkpt lat="46.078507" lon="12.1148683"><ele>331.0</ele><time>2026-04-09T11:57:40.501Z</time></trkpt><trkpt lat="46.078575" lon="12.1149218"><ele>330.66666666666663</ele><time>2026-04-09T11:57:41.501Z</time></trkpt><trkpt lat="46.0786548" lon="12.1149829"><ele>330.3333333333333</ele><time>2026-04-09T11:57:42.498Z</time></trkpt><trkpt lat="46.0787245" lon="12.115007"><ele>330.0</ele><time>2026-04-09T11:57:43.499Z</time></trkpt><trkpt lat="46.0787994" lon="12.1150002"><ele>329.6666666666667</ele><time>2026-04-09T11:57:44.494Z</time></trkpt><trkpt lat="46.078861" lon="12.1149799"><ele>329.33333333333337</ele><time>2026-04-09T11:57:45.499Z</time></trkpt><trkpt lat="46.0789963" lon="12.1149403"><ele>329.0</ele><time>2026-04-09T11:57:47.502Z</time></trkpt><trkpt lat="46.07907" lon="12.1149097"><ele>329.0</ele><time>2026-04-09T11:57:48.49Z</time></trkpt><trkpt lat="46.0791634" lon="12.1148566"><ele>329.0</ele><time>2026-04-09T11:57:49.494Z</time></trkpt><trkpt lat="46.079246" lon="12.1148047"><ele>329.0</ele><time>2026-04-09T11:57:50.494Z</time></trkpt><trkpt lat="46.0793328" lon="12.1147499"><ele>329.0</ele><time>2026-04-09T11:57:51.492Z</time></trkpt><trkpt lat="46.0794461" lon="12.1146876"><ele>329.0</ele><time>2026-04-09T11:57:52.491Z</time></trkpt><trkpt lat="46.079562" lon="12.114606"><ele>329.0</ele><time>2026-04-09T11:57:53.488Z</time></trkpt><trkpt lat="46.0796955" lon="12.1144955"><ele>329.0</ele><time>2026-04-09T11:57:54.496Z</time></trkpt><trkpt lat="46.0798337" lon="12.1143866"><ele>329.0</ele><time>2026-04-09T11:57:55.505Z</time></trkpt><trkpt lat="46.0799647" lon="12.1143108"><ele>328.0</ele><time>2026-04-09T11:57:56.492Z</time></trkpt><trkpt lat="46.0801006" lon="12.1142538"><ele>327.0</ele><time>2026-04-09T11:57:57.49Z</time></trkpt><trkpt lat="46.0802463" lon="12.1142181"><ele>326.0</ele><time>2026-04-09T11:57:58.502Z</time></trkpt><trkpt lat="46.0803975" lon="12.1142002"><ele>325.0</ele><time>2026-04-09T11:57:59.502Z</time></trkpt><trkpt lat="46.080553" lon="12.114172"><ele>325.0</ele><time>2026-04-09T11:58:00.505Z</time></trkpt><trkpt lat="46.0806858" lon="12.1141431"><ele>325.0</ele><time>2026-04-09T11:58:01.494Z</time></trkpt><trkpt lat="46.0808107" lon="12.1141143"><ele>325.0</ele><time>2026-04-09T11:58:02.497Z</time></trkpt><trkpt lat="46.0809373" lon="12.1140708"><ele>325.0</ele><time>2026-04-09T11:58:03.486Z</time></trkpt><trkpt lat="46.0810587" lon="12.1140217"><ele>326.25</ele><time>2026-04-09T11:58:04.513Z</time></trkpt><trkpt lat="46.0811653" lon="12.1139727"><ele>327.5</ele><time>2026-04-09T11:58:05.503Z</time></trkpt><trkpt lat="46.081272" lon="12.1139412"><ele>328.75</ele><time>2026-04-09T11:58:06.505Z</time></trkpt><trkpt lat="46.0813921" lon="12.1139344"><ele>330.0</ele><time>2026-04-09T11:58:07.503Z</time></trkpt><trkpt lat="46.0815276" lon="12.1139466"><ele>328.6666666666667</ele><time>2026-04-09T11:58:08.515Z</time></trkpt><trkpt lat="46.0816682" lon="12.1139949"><ele>327.33333333333337</ele><time>2026-04-09T11:58:09.486Z</time></trkpt><trkpt lat="46.0818239" lon="12.1140219"><ele>326.0</ele><time>2026-04-09T11:58:10.494Z</time></trkpt><trkpt lat="46.0819959" lon="12.1140442"><ele>326.0</ele><time>2026-04-09T11:58:11.492Z</time></trkpt><trkpt lat="46.082158" lon="12.1140382"><ele>326.0</ele><time>2026-04-09T11:58:12.491Z</time></trkpt><trkpt lat="46.0823105" lon="12.1140314"><ele>326.0</ele><time>2026-04-09T11:58:13.49Z</time></trkpt><trkpt lat="46.0824608" lon="12.1140173"><ele>325.75</ele><time>2026-04-09T11:58:14.49Z</time></trkpt><trkpt lat="46.0826052" lon="12.1140134"><ele>325.5</ele><time>2026-04-09T11:58:15.487Z</time></trkpt><trkpt lat="46.0827418" lon="12.1140159"><ele>325.25</ele><time>2026-04-09T11:58:16.487Z</time></trkpt><trkpt lat="46.0828762" lon="12.1140457"><ele>325.0</ele><time>2026-04-09T11:58:17.485Z</time></trkpt><trkpt lat="46.0829841" lon="12.1141058"><ele>325.0</ele><time>2026-04-09T11:58:18.484Z</time></trkpt><trkpt lat="46.0830758" lon="12.1142037"><ele>325.0</ele><time>2026-04-09T11:58:19.49Z</time></trkpt><trkpt lat="46.0831594" lon="12.1143236"><ele>325.0</ele><time>2026-04-09T11:58:20.49Z</time></trkpt><trkpt lat="46.0832442" lon="12.1144691"><ele>325.0</ele><time>2026-04-09T11:58:21.505Z</time></trkpt><trkpt lat="46.0833264" lon="12.1146358"><ele>325.0</ele><time>2026-04-09T11:58:22.498Z</time></trkpt><trkpt lat="46.0833892" lon="12.1148011"><ele>325.0</ele><time>2026-04-09T11:58:23.499Z</time></trkpt><trkpt lat="46.0834457" lon="12.1149452"><ele>325.0</ele><time>2026-04-09T11:58:24.49Z</time></trkpt><trkpt lat="46.0834761" lon="12.1150863"><ele>325.0</ele><time>2026-04-09T11:58:25.491Z</time></trkpt><trkpt lat="46.0835118" lon="12.115237"><ele>324.75</ele><time>2026-04-09T11:58:26.474Z</time></trkpt><trkpt lat="46.0835259" lon="12.115402"><ele>324.5</ele><time>2026-04-09T11:58:27.512Z</time></trkpt><trkpt lat="46.0835551" lon="12.1155826"><ele>324.25</ele><time>2026-04-09T11:58:28.489Z</time></trkpt><trkpt lat="46.0835789" lon="12.1157659"><ele>324.0</ele><time>2026-04-09T11:58:29.499Z</time></trkpt><trkpt lat="46.0836072" lon="12.1159288"><ele>323.5</ele><time>2026-04-09T11:58:30.497Z</time></trkpt><trkpt lat="46.0836619" lon="12.1160603"><ele>323.0</ele><time>2026-04-09T11:58:31.487Z</time></trkpt><trkpt lat="46.0837098" lon="12.1161763"><ele>322.5</ele><time>2026-04-09T11:58:32.486Z</time></trkpt><trkpt lat="46.0837594" lon="12.1162657"><ele>322.0</ele><time>2026-04-09T11:58:33.492Z</time></trkpt><trkpt lat="46.0838031" lon="12.1163311"><ele>321.5</ele><time>2026-04-09T11:58:34.497Z</time></trkpt><trkpt lat="46.0838631" lon="12.1163762"><ele>321.0</ele><time>2026-04-09T11:58:35.486Z</time></trkpt><trkpt lat="46.0839415" lon="12.1163733"><ele>321.0</ele><time>2026-04-09T11:58:36.495Z</time></trkpt><trkpt lat="46.0840286" lon="12.1163868"><ele>321.0</ele><time>2026-04-09T11:58:37.497Z</time></trkpt><trkpt lat="46.0841373" lon="12.1163457"><ele>321.0</ele><time>2026-04-09T11:58:38.49Z</time></trkpt><trkpt lat="46.0842485" lon="12.1163152"><ele>321.0</ele><time>2026-04-09T11:58:39.491Z</time></trkpt><trkpt lat="46.0843544" lon="12.1163003"><ele>321.0</ele><time>2026-04-09T11:58:40.491Z</time></trkpt><trkpt lat="46.084461" lon="12.1162518"><ele>320.0</ele><time>2026-04-09T11:58:41.505Z</time></trkpt><trkpt lat="46.084578" lon="12.116193"><ele>319.0</ele><time>2026-04-09T11:58:42.51Z</time></trkpt><trkpt lat="46.0846772" lon="12.1161175"><ele>318.0</ele><time>2026-04-09T11:58:43.529Z</time></trkpt><trkpt lat="46.0848763" lon="12.1160318"><ele>317.0</ele><time>2026-04-09T11:58:45.489Z</time></trkpt><trkpt lat="46.0849583" lon="12.1159928"><ele>316.0</ele><time>2026-04-09T11:58:46.494Z</time></trkpt><trkpt lat="46.0850342" lon="12.1159538"><ele>315.0</ele><time>2026-04-09T11:58:47.494Z</time></trkpt><trkpt lat="46.0850899" lon="12.1159024"><ele>314.0</ele><time>2026-04-09T11:58:48.49Z</time></trkpt><trkpt lat="46.085165" lon="12.1157566"><ele>313.0</ele><time>2026-04-09T11:58:50.488Z</time></trkpt><trkpt lat="46.0851789" lon="12.1156071"><ele>312.0</ele><time>2026-04-09T11:58:51.503Z</time></trkpt><trkpt lat="46.085202" lon="12.1154934"><ele>311.8571428571429</ele><time>2026-04-09T11:58:52.491Z</time></trkpt><trkpt lat="46.0852282" lon="12.1153888"><ele>311.71428571428567</ele><time>2026-04-09T11:58:53.492Z</time></trkpt><trkpt lat="46.0852636" lon="12.1152789"><ele>311.57142857142856</ele><time>2026-04-09T11:58:54.491Z</time></trkpt><trkpt lat="46.085301" lon="12.1151945"><ele>311.42857142857144</ele><time>2026-04-09T11:58:55.502Z</time></trkpt><trkpt lat="46.0853421" lon="12.1151072"><ele>311.28571428571433</ele><time>2026-04-09T11:58:56.487Z</time></trkpt><trkpt lat="46.0853859" lon="12.1150352"><ele>311.1428571428571</ele><time>2026-04-09T11:58:57.495Z</time></trkpt><trkpt lat="46.085454" lon="12.1150276"><ele>311.0</ele><time>2026-04-09T11:58:58.501Z</time></trkpt><trkpt lat="46.08558" lon="12.1150151"><ele>311.0</ele><time>2026-04-09T11:59:00.498Z</time></trkpt><trkpt lat="46.0856662" lon="12.1150518"><ele>311.0</ele><time>2026-04-09T11:59:01.49Z</time></trkpt><trkpt lat="46.0857579" lon="12.1150869"><ele>311.0</ele><time>2026-04-09T11:59:02.501Z</time></trkpt><trkpt lat="46.0858528" lon="12.1151263"><ele>311.0</ele><time>2026-04-09T11:59:03.494Z</time></trkpt><trkpt lat="46.0859471" lon="12.115164"><ele>311.0</ele><time>2026-04-09T11:59:04.502Z</time></trkpt><trkpt lat="46.0860332" lon="12.115194"><ele>310.2</ele><time>2026-04-09T11:59:05.487Z</time></trkpt><trkpt lat="46.0861241" lon="12.1152236"><ele>309.40000000000003</ele><time>2026-04-09T11:59:06.497Z</time></trkpt><trkpt lat="46.0862158" lon="12.1152556"><ele>308.6</ele><time>2026-04-09T11:59:07.509Z</time></trkpt><trkpt lat="46.0863035" lon="12.1152697"><ele>307.8</ele><time>2026-04-09T11:59:08.504Z</time></trkpt><trkpt lat="46.0863929" lon="12.1153019"><ele>307.0</ele><time>2026-04-09T11:59:09.502Z</time></trkpt><trkpt lat="46.0864751" lon="12.1152929"><ele>307.0</ele><time>2026-04-09T11:59:10.494Z</time></trkpt><trkpt lat="46.0865488" lon="12.1153228"><ele>307.0</ele><time>2026-04-09T11:59:11.497Z</time></trkpt><trkpt lat="46.0866436" lon="12.1152664"><ele>307.0</ele><time>2026-04-09T11:59:12.5Z</time></trkpt><trkpt lat="46.0867486" lon="12.1152629"><ele>307.0</ele><time>2026-04-09T11:59:13.504Z</time></trkpt><trkpt lat="46.0869179" lon="12.1153316"><ele>307.25</ele><time>2026-04-09T11:59:15.498Z</time></trkpt><trkpt lat="46.0869794" lon="12.1153781"><ele>307.5</ele><time>2026-04-09T11:59:16.491Z</time></trkpt><trkpt lat="46.0871455" lon="12.1154153"><ele>307.75</ele><time>2026-04-09T11:59:22.494Z</time></trkpt><trkpt lat="46.0871839" lon="12.1155951"><ele>308.0</ele><time>2026-04-09T11:59:24.492Z</time></trkpt><trkpt lat="46.08718" lon="12.1157376"><ele>308.0</ele><time>2026-04-09T11:59:26.489Z</time></trkpt><trkpt lat="46.0871487" lon="12.1158862"><ele>308.0</ele><time>2026-04-09T11:59:28.5Z</time></trkpt><trkpt lat="46.0871353" lon="12.1160189"><ele>308.0</ele><time>2026-04-09T11:59:30.49Z</time></trkpt><trkpt lat="46.0871867" lon="12.1161368"><ele>308.0</ele><time>2026-04-09T11:59:32.498Z</time></trkpt><trkpt lat="46.0873103" lon="12.1161066"><ele>308.0</ele><time>2026-04-09T11:59:34.498Z</time></trkpt><trkpt lat="46.0873786" lon="12.1160857"><ele>305.6</ele><time>2026-04-09T11:59:35.49Z</time></trkpt><trkpt lat="46.0874437" lon="12.1159756"><ele>303.20000000000005</ele><time>2026-04-09T11:59:37.498Z</time></trkpt><trkpt lat="46.0874801" lon="12.1158381"><ele>300.8</ele><time>2026-04-09T11:59:39.499Z</time></trkpt><trkpt lat="46.0875182" lon="12.115704"><ele>298.40000000000003</ele><time>2026-04-09T11:59:41.496Z</time></trkpt><trkpt lat="46.0875975" lon="12.1156394"><ele>296.0</ele><time>2026-04-09T11:59:43.498Z</time></trkpt><trkpt lat="46.0876545" lon="12.1156975"><ele>296.0</ele><time>2026-04-09T11:59:45.488Z</time></trkpt><trkpt lat="46.0876888" lon="12.1157814"><ele>296.0</ele><time>2026-04-09T11:59:46.485Z</time></trkpt><trkpt lat="46.0877186" lon="12.1159049"><ele>296.0</ele><time>2026-04-09T11:59:47.482Z</time></trkpt><trkpt lat="46.0877361" lon="12.1160209"><ele>296.0</ele><time>2026-04-09T11:59:48.501Z</time></trkpt><trkpt lat="46.08773" lon="12.1161781"><ele>296.0</ele><time>2026-04-09T11:59:49.491Z</time></trkpt><trkpt lat="46.0877303" lon="12.1163398"><ele>296.0</ele><time>2026-04-09T11:59:50.497Z</time></trkpt><trkpt lat="46.0877322" lon="12.1164717"><ele>296.0</ele><time>2026-04-09T11:59:51.492Z</time></trkpt><trkpt lat="46.087733" lon="12.1166222"><ele>296.0</ele><time>2026-04-09T11:59:53.513Z</time></trkpt><trkpt lat="46.0878163" lon="12.1166723"><ele>296.0</ele><time>2026-04-09T11:59:59.489Z</time></trkpt><trkpt lat="46.0878971" lon="12.1166965"><ele>296.0</ele><time>2026-04-09T12:00:01.486Z</time></trkpt><trkpt lat="46.0879625" lon="12.1167134"><ele>296.0</ele><time>2026-04-09T12:00:03.485Z</time></trkpt><trkpt lat="46.0880405" lon="12.116704"><ele>295.8</ele><time>2026-04-09T12:00:08.492Z</time></trkpt><trkpt lat="46.0879011" lon="12.116654"><ele>295.6</ele><time>2026-04-09T12:00:14.485Z</time></trkpt><trkpt lat="46.0877923" lon="12.1166074"><ele>295.4</ele><time>2026-04-09T12:00:16.517Z</time></trkpt><trkpt lat="46.087716" lon="12.1165949"><ele>295.2</ele><time>2026-04-09T12:00:18.487Z</time></trkpt><trkpt lat="46.0876426" lon="12.1166698"><ele>295.0</ele><time>2026-04-09T12:00:20.486Z</time></trkpt><trkpt lat="46.0875751" lon="12.116735"><ele>295.0</ele><time>2026-04-09T12:00:21.498Z</time></trkpt><trkpt lat="46.0874833" lon="12.1168739"><ele>295.0</ele><time>2026-04-09T12:00:23.497Z</time></trkpt><trkpt lat="46.0874084" lon="12.1169939"><ele>295.0</ele><time>2026-04-09T12:00:25.503Z</time></trkpt><trkpt lat="46.0873244" lon="12.1171293"><ele>295.0</ele><time>2026-04-09T12:00:27.49Z</time></trkpt><trkpt lat="46.0872511" lon="12.1172616"><ele>295.0</ele><time>2026-04-09T12:00:29.5Z</time></trkpt><trkpt lat="46.0871905" lon="12.1173677"><ele>295.0</ele><time>2026-04-09T12:00:31.517Z</time></trkpt><trkpt lat="46.0871138" lon="12.1174387"><ele>295.0</ele><time>2026-04-09T12:00:33.495Z</time></trkpt><trkpt lat="46.0870941" lon="12.1175443"><ele>295.0</ele><time>2026-04-09T12:00:36.496Z</time></trkpt><trkpt lat="46.0870866" lon="12.1176658"><ele>295.0</ele><time>2026-04-09T12:00:39.493Z</time></trkpt><trkpt lat="46.0870032" lon="12.1176994"><ele>295.0</ele><time>2026-04-09T12:01:07.496Z</time></trkpt><trkpt lat="46.0870381" lon="12.1178231"><ele>295.0</ele><time>2026-04-09T12:01:17.484Z</time></trkpt><trkpt lat="46.0870545" lon="12.1179457"><ele>295.0</ele><time>2026-04-09T12:01:19.498Z</time></trkpt><trkpt lat="46.0870737" lon="12.118034"><ele>295.0</ele><time>2026-04-09T12:01:20.484Z</time></trkpt><trkpt lat="46.0870994" lon="12.1181517"><ele>295.0</ele><time>2026-04-09T12:01:22.49Z</time></trkpt><trkpt lat="46.0871262" lon="12.118268"><ele>295.0</ele><time>2026-04-09T12:01:24.497Z</time></trkpt><trkpt lat="46.08715" lon="12.1183831"><ele>295.0</ele><time>2026-04-09T12:01:26.51Z</time></trkpt><trkpt lat="46.0871607" lon="12.1184918"><ele>295.16666666666663</ele><time>2026-04-09T12:01:28.483Z</time></trkpt><trkpt lat="46.0871427" lon="12.1186356"><ele>295.3333333333333</ele><time>2026-04-09T12:01:31.49Z</time></trkpt><trkpt lat="46.0871286" lon="12.1187389"><ele>295.5</ele><time>2026-04-09T12:01:33.488Z</time></trkpt><trkpt lat="46.0871648" lon="12.1188423"><ele>295.6666666666667</ele><time>2026-04-09T12:01:36.486Z</time></trkpt><trkpt lat="46.0871784" lon="12.1189555"><ele>295.83333333333337</ele><time>2026-04-09T12:01:39.491Z</time></trkpt><trkpt lat="46.0871805" lon="12.1190482"><ele>296.0</ele><time>2026-04-09T12:01:42.487Z</time></trkpt><trkpt lat="46.0870931" lon="12.1190541"><ele>296.2</ele><time>2026-04-09T12:12:31.492Z</time></trkpt><trkpt lat="46.0870163" lon="12.1190988"><ele>296.40000000000003</ele><time>2026-04-09T12:12:34.488Z</time></trkpt><trkpt lat="46.0869837" lon="12.1192072"><ele>296.6</ele><time>2026-04-09T12:12:37.484Z</time></trkpt><trkpt lat="46.0871566" lon="12.1192716"><ele>296.8</ele><time>2026-04-09T12:12:40.493Z</time></trkpt><trkpt lat="46.0872449" lon="12.1192631"><ele>297.0</ele><time>2026-04-09T12:12:41.496Z</time></trkpt><trkpt lat="46.0873721" lon="12.1193808"><ele>296.2</ele><time>2026-04-09T12:12:43.498Z</time></trkpt><trkpt lat="46.0874389" lon="12.1194105"><ele>295.4</ele><time>2026-04-09T12:12:44.495Z</time></trkpt><trkpt lat="46.0875313" lon="12.1194838"><ele>294.6</ele><time>2026-04-09T12:12:45.485Z</time></trkpt><trkpt lat="46.0875821" lon="12.1195677"><ele>293.8</ele><time>2026-04-09T12:12:46.491Z</time></trkpt><trkpt lat="46.0875932" lon="12.1196758"><ele>293.0</ele><time>2026-04-09T12:12:47.517Z</time></trkpt><trkpt lat="46.0876247" lon="12.1198594"><ele>293.6</ele><time>2026-04-09T12:12:49.491Z</time></trkpt><trkpt lat="46.0876609" lon="12.1199942"><ele>294.20000000000005</ele><time>2026-04-09T12:12:51.489Z</time></trkpt><trkpt lat="46.0877323" lon="12.1201569"><ele>294.8</ele><time>2026-04-09T12:12:53.478Z</time></trkpt><trkpt lat="46.0877804" lon="12.1202783"><ele>295.40000000000003</ele><time>2026-04-09T12:12:54.494Z</time></trkpt><trkpt lat="46.087824" lon="12.1203937"><ele>296.0</ele><time>2026-04-09T12:12:55.49Z</time></trkpt><trkpt lat="46.0878648" lon="12.1205205"><ele>296.0</ele><time>2026-04-09T12:12:56.483Z</time></trkpt><trkpt lat="46.0878804" lon="12.1206262"><ele>296.0</ele><time>2026-04-09T12:12:57.484Z</time></trkpt><trkpt lat="46.0879094" lon="12.1207416"><ele>296.0</ele><time>2026-04-09T12:12:58.481Z</time></trkpt><trkpt lat="46.0879426" lon="12.1208543"><ele>296.0</ele><time>2026-04-09T12:12:59.492Z</time></trkpt><trkpt lat="46.0879894" lon="12.120972"><ele>296.0</ele><time>2026-04-09T12:13:00.485Z</time></trkpt><trkpt lat="46.0880575" lon="12.1212052"><ele>296.0</ele><time>2026-04-09T12:13:03.496Z</time></trkpt><trkpt lat="46.0881092" lon="12.1214094"><ele>296.0</ele><time>2026-04-09T12:13:05.487Z</time></trkpt><trkpt lat="46.0881352" lon="12.1215037"><ele>296.0</ele><time>2026-04-09T12:13:06.511Z</time></trkpt><trkpt lat="46.0881646" lon="12.121599"><ele>296.0</ele><time>2026-04-09T12:13:07.492Z</time></trkpt><trkpt lat="46.0881852" lon="12.1217127"><ele>296.0</ele><time>2026-04-09T12:13:08.492Z</time></trkpt><trkpt lat="46.0882552" lon="12.1218548"><ele>295.83333333333337</ele><time>2026-04-09T12:13:10.482Z</time></trkpt><trkpt lat="46.0882859" lon="12.121947"><ele>295.6666666666667</ele><time>2026-04-09T12:13:11.481Z</time></trkpt><trkpt lat="46.0883118" lon="12.1220366"><ele>295.5</ele><time>2026-04-09T12:13:12.493Z</time></trkpt><trkpt lat="46.0883531" lon="12.1221304"><ele>295.3333333333333</ele><time>2026-04-09T12:13:13.484Z</time></trkpt><trkpt lat="46.0884019" lon="12.1222541"><ele>295.16666666666663</ele><time>2026-04-09T12:13:15.477Z</time></trkpt><trkpt lat="46.0883117" lon="12.1223964"><ele>295.0</ele><time>2026-04-09T12:13:16.509Z</time></trkpt><trkpt lat="46.0882673" lon="12.1225056"><ele>295.0</ele><time>2026-04-09T12:13:17.479Z</time></trkpt><trkpt lat="46.088199" lon="12.1227092"><ele>295.0</ele><time>2026-04-09T12:13:18.49Z</time></trkpt><trkpt lat="46.0879407" lon="12.1226644"><ele>295.0</ele><time>2026-04-09T12:13:19.486Z</time></trkpt><trkpt lat="46.0877673" lon="12.1226359"><ele>295.0</ele><time>2026-04-09T12:13:20.491Z</time></trkpt><trkpt lat="46.0876012" lon="12.1227168"><ele>295.0</ele><time>2026-04-09T12:13:21.491Z</time></trkpt><trkpt lat="46.0875228" lon="12.1228141"><ele>295.0</ele><time>2026-04-09T12:13:22.495Z</time></trkpt><trkpt lat="46.0873927" lon="12.1229091"><ele>295.0</ele><time>2026-04-09T12:13:23.5Z</time></trkpt><trkpt lat="46.0873021" lon="12.1230311"><ele>297.0</ele><time>2026-04-09T12:13:24.495Z</time></trkpt><trkpt lat="46.0872088" lon="12.1231635"><ele>299.0</ele><time>2026-04-09T12:13:25.483Z</time></trkpt><trkpt lat="46.0871233" lon="12.1233082"><ele>301.0</ele><time>2026-04-09T12:13:26.492Z</time></trkpt><trkpt lat="46.0870239" lon="12.1234451"><ele>303.0</ele><time>2026-04-09T12:13:27.489Z</time></trkpt><trkpt lat="46.0869302" lon="12.1235906"><ele>303.0</ele><time>2026-04-09T12:13:28.477Z</time></trkpt><trkpt lat="46.0868391" lon="12.1237123"><ele>303.0</ele><time>2026-04-09T12:13:29.479Z</time></trkpt><trkpt lat="46.0867699" lon="12.1238531"><ele>303.0</ele><time>2026-04-09T12:13:30.489Z</time></trkpt><trkpt lat="46.0866779" lon="12.1239949"><ele>303.0</ele><time>2026-04-09T12:13:31.476Z</time></trkpt><trkpt lat="46.0865943" lon="12.124071"><ele>303.0</ele><time>2026-04-09T12:13:32.484Z</time></trkpt><trkpt lat="46.0865331" lon="12.1241753"><ele>303.0</ele><time>2026-04-09T12:13:33.484Z</time></trkpt><trkpt lat="46.0865962" lon="12.1239576"><ele>303.0</ele><time>2026-04-09T12:13:34.496Z</time></trkpt><trkpt lat="46.0866992" lon="12.1239749"><ele>303.0</ele><time>2026-04-09T12:13:39.497Z</time></trkpt><trkpt lat="46.0867533" lon="12.1239085"><ele>303.0</ele><time>2026-04-09T12:13:40.495Z</time></trkpt><trkpt lat="46.086815" lon="12.123835"><ele>303.0</ele><time>2026-04-09T12:13:41.492Z</time></trkpt><trkpt lat="46.0868774" lon="12.1237428"><ele>303.0</ele><time>2026-04-09T12:13:42.49Z</time></trkpt><trkpt lat="46.0869282" lon="12.1236399"><ele>303.0</ele><time>2026-04-09T12:13:43.503Z</time></trkpt><trkpt lat="46.0869792" lon="12.12353"><ele>303.0</ele><time>2026-04-09T12:13:44.506Z</time></trkpt><trkpt lat="46.0870374" lon="12.1234204"><ele>303.0</ele><time>2026-04-09T12:13:45.497Z</time></trkpt><trkpt lat="46.0871149" lon="12.1232719"><ele>303.25</ele><time>2026-04-09T12:13:46.494Z</time></trkpt><trkpt lat="46.0872149" lon="12.123114"><ele>303.5</ele><time>2026-04-09T12:13:47.478Z</time></trkpt><trkpt lat="46.0873082" lon="12.1229555"><ele>303.75</ele><time>2026-04-09T12:13:48.508Z</time></trkpt><trkpt lat="46.0873799" lon="12.1228767"><ele>304.0</ele><time>2026-04-09T12:13:49.489Z</time></trkpt><trkpt lat="46.0874373" lon="12.1228122"><ele>304.0</ele><time>2026-04-09T12:13:50.486Z</time></trkpt><trkpt lat="46.0875004" lon="12.1227527"><ele>304.0</ele><time>2026-04-09T12:13:51.492Z</time></trkpt><trkpt lat="46.0874562" lon="12.1228242"><ele>304.0</ele><time>2026-04-09T12:13:59.504Z</time></trkpt><trkpt lat="46.0874074" lon="12.1229402"><ele>304.0</ele><time>2026-04-09T12:14:01.494Z</time></trkpt><trkpt lat="46.0874185" lon="12.1230358"><ele>304.0</ele><time>2026-04-09T12:14:03.498Z</time></trkpt><trkpt lat="46.0874706" lon="12.1231845"><ele>304.0</ele><time>2026-04-09T12:14:05.506Z</time></trkpt><trkpt lat="46.0875236" lon="12.1233156"><ele>302.59999999999997</ele><time>2026-04-09T12:14:07.497Z</time></trkpt><trkpt lat="46.0875681" lon="12.1234133"><ele>301.2</ele><time>2026-04-09T12:14:09.479Z</time></trkpt><trkpt lat="46.0875952" lon="12.123501"><ele>299.79999999999995</ele><time>2026-04-09T12:14:10.487Z</time></trkpt><trkpt lat="46.0876656" lon="12.1235855"><ele>298.4</ele><time>2026-04-09T12:14:12.487Z</time></trkpt><trkpt lat="46.0877566" lon="12.1236721"><ele>297.0</ele><time>2026-04-09T12:14:14.493Z</time></trkpt><trkpt lat="46.0879038" lon="12.123521"><ele>297.0</ele><time>2026-04-09T12:14:18.488Z</time></trkpt><trkpt lat="46.087969" lon="12.1234468"><ele>297.0</ele><time>2026-04-09T12:14:19.499Z</time></trkpt><trkpt lat="46.0880338" lon="12.1233955"><ele>297.0</ele><time>2026-04-09T12:14:20.481Z</time></trkpt><trkpt lat="46.0881373" lon="12.1233269"><ele>297.0</ele><time>2026-04-09T12:14:21.5Z</time></trkpt><trkpt lat="46.0882266" lon="12.1232508"><ele>297.0</ele><time>2026-04-09T12:14:22.492Z</time></trkpt><trkpt lat="46.0883037" lon="12.1231797"><ele>296.2</ele><time>2026-04-09T12:14:23.486Z</time></trkpt><trkpt lat="46.088382" lon="12.1231004"><ele>295.4</ele><time>2026-04-09T12:14:24.482Z</time></trkpt><trkpt lat="46.0884571" lon="12.1230145"><ele>294.6</ele><time>2026-04-09T12:14:25.49Z</time></trkpt><trkpt lat="46.088533" lon="12.1229147"><ele>293.8</ele><time>2026-04-09T12:14:26.484Z</time></trkpt><trkpt lat="46.0885975" lon="12.1228288"><ele>293.0</ele><time>2026-04-09T12:14:27.493Z</time></trkpt><trkpt lat="46.0886651" lon="12.1227479"><ele>293.0</ele><time>2026-04-09T12:14:28.49Z</time></trkpt><trkpt lat="46.0887452" lon="12.1226928"><ele>293.0</ele><time>2026-04-09T12:14:29.493Z</time></trkpt><trkpt lat="46.0887937" lon="12.1225641"><ele>293.0</ele><time>2026-04-09T12:14:30.475Z</time></trkpt><trkpt lat="46.0888575" lon="12.1224701"><ele>293.0</ele><time>2026-04-09T12:14:31.491Z</time></trkpt><trkpt lat="46.0889217" lon="12.1224059"><ele>293.0</ele><time>2026-04-09T12:14:32.506Z</time></trkpt><trkpt lat="46.0889875" lon="12.1223243"><ele>293.0</ele><time>2026-04-09T12:14:33.475Z</time></trkpt><trkpt lat="46.0890492" lon="12.1222398"><ele>292.83333333333337</ele><time>2026-04-09T12:14:34.48Z</time></trkpt><trkpt lat="46.0891153" lon="12.1221613"><ele>292.6666666666667</ele><time>2026-04-09T12:14:35.481Z</time></trkpt><trkpt lat="46.0891632" lon="12.122086"><ele>292.5</ele><time>2026-04-09T12:14:36.483Z</time></trkpt><trkpt lat="46.0891724" lon="12.1221791"><ele>292.3333333333333</ele><time>2026-04-09T12:14:37.494Z</time></trkpt><trkpt lat="46.0892693" lon="12.1221768"><ele>292.16666666666663</ele><time>2026-04-09T12:14:39.491Z</time></trkpt><trkpt lat="46.0892822" lon="12.1223271"><ele>292.0</ele><time>2026-04-09T12:14:40.492Z</time></trkpt><trkpt lat="46.0892861" lon="12.1229167"><ele>292.0</ele><time>2026-04-09T12:14:41.499Z</time></trkpt><trkpt lat="46.0892973" lon="12.1231432"><ele>292.0</ele><time>2026-04-09T12:14:42.487Z</time></trkpt><trkpt lat="46.0893335" lon="12.1232984"><ele>292.0</ele><time>2026-04-09T12:14:43.484Z</time></trkpt><trkpt lat="46.0893962" lon="12.1234233"><ele>292.0</ele><time>2026-04-09T12:14:44.509Z</time></trkpt><trkpt lat="46.0894615" lon="12.1235829"><ele>291.75</ele><time>2026-04-09T12:14:45.502Z</time></trkpt><trkpt lat="46.0895859" lon="12.1236833"><ele>291.5</ele><time>2026-04-09T12:14:46.488Z</time></trkpt><trkpt lat="46.0896721" lon="12.1238058"><ele>291.25</ele><time>2026-04-09T12:14:47.487Z</time></trkpt><trkpt lat="46.0897647" lon="12.1239492"><ele>291.0</ele><time>2026-04-09T12:14:48.485Z</time></trkpt><trkpt lat="46.0898228" lon="12.1240839"><ele>291.0</ele><time>2026-04-09T12:14:49.492Z</time></trkpt><trkpt lat="46.089861" lon="12.1241905"><ele>291.0</ele><time>2026-04-09T12:14:50.483Z</time></trkpt><trkpt lat="46.0899039" lon="12.1242937"><ele>291.0</ele><time>2026-04-09T12:14:51.483Z</time></trkpt><trkpt lat="46.0899517" lon="12.1243977"><ele>291.0</ele><time>2026-04-09T12:14:52.493Z</time></trkpt><trkpt lat="46.089993" lon="12.1245274"><ele>291.0</ele><time>2026-04-09T12:14:53.487Z</time></trkpt><trkpt lat="46.0899811" lon="12.1246519"><ele>291.0</ele><time>2026-04-09T12:14:54.481Z</time></trkpt><trkpt lat="46.090029" lon="12.1247938"><ele>291.25</ele><time>2026-04-09T12:14:55.49Z</time></trkpt><trkpt lat="46.0900708" lon="12.1249131"><ele>291.5</ele><time>2026-04-09T12:14:56.489Z</time></trkpt><trkpt lat="46.0902193" lon="12.1251936"><ele>291.75</ele><time>2026-04-09T12:15:00.486Z</time></trkpt><trkpt lat="46.0902363" lon="12.1253008"><ele>292.0</ele><time>2026-04-09T12:15:02.497Z</time></trkpt><trkpt lat="46.0902279" lon="12.1254016"><ele>292.0</ele><time>2026-04-09T12:15:03.49Z</time></trkpt><trkpt lat="46.0902148" lon="12.1255209"><ele>292.0</ele><time>2026-04-09T12:15:05.508Z</time></trkpt><trkpt lat="46.0901205" lon="12.1256494"><ele>292.0</ele><time>2026-04-09T12:15:06.487Z</time></trkpt><trkpt lat="46.089823" lon="12.1261692"><ele>292.66666666666663</ele><time>2026-04-09T12:15:09.487Z</time></trkpt><trkpt lat="46.089626" lon="12.1263898"><ele>293.3333333333333</ele><time>2026-04-09T12:15:11.493Z</time></trkpt><trkpt lat="46.0894366" lon="12.1264413"><ele>294.0</ele><time>2026-04-09T12:15:12.502Z</time></trkpt><trkpt lat="46.0891735" lon="12.1266813"><ele>298.0</ele><time>2026-04-09T12:15:14.494Z</time></trkpt><trkpt lat="46.0886292" lon="12.1266914"><ele>298.0</ele><time>2026-04-09T12:15:16.491Z</time></trkpt><trkpt lat="46.0884466" lon="12.1267376"><ele>298.0</ele><time>2026-04-09T12:15:17.496Z</time></trkpt><trkpt lat="46.088299" lon="12.1269191"><ele>298.0</ele><time>2026-04-09T12:15:19.482Z</time></trkpt><trkpt lat="46.0881877" lon="12.1270188"><ele>297.0</ele><time>2026-04-09T12:15:20.488Z</time></trkpt><trkpt lat="46.0879968" lon="12.1271742"><ele>296.0</ele><time>2026-04-09T12:15:21.487Z</time></trkpt><trkpt lat="46.0877217" lon="12.1273331"><ele>297.33333333333337</ele><time>2026-04-09T12:15:22.489Z</time></trkpt><trkpt lat="46.0875869" lon="12.1274867"><ele>298.6666666666667</ele><time>2026-04-09T12:15:23.489Z</time></trkpt><trkpt lat="46.087346" lon="12.1276385"><ele>300.0</ele><time>2026-04-09T12:15:24.493Z</time></trkpt><trkpt lat="46.0871545" lon="12.1277743"><ele>300.6666666666667</ele><time>2026-04-09T12:15:25.481Z</time></trkpt><trkpt lat="46.0870049" lon="12.1278715"><ele>301.33333333333337</ele><time>2026-04-09T12:15:26.48Z</time></trkpt><trkpt lat="46.0868436" lon="12.1280299"><ele>302.0</ele><time>2026-04-09T12:15:27.491Z</time></trkpt><trkpt lat="46.0867052" lon="12.1281558"><ele>302.4</ele><time>2026-04-09T12:15:28.495Z</time></trkpt><trkpt lat="46.0866072" lon="12.1282344"><ele>302.79999999999995</ele><time>2026-04-09T12:15:29.472Z</time></trkpt><trkpt lat="46.0865575" lon="12.1283501"><ele>303.2</ele><time>2026-04-09T12:15:30.504Z</time></trkpt><trkpt lat="46.0865097" lon="12.1284629"><ele>303.59999999999997</ele><time>2026-04-09T12:15:31.481Z</time></trkpt><trkpt lat="46.0864159" lon="12.1284951"><ele>304.0</ele><time>2026-04-09T12:15:32.493Z</time></trkpt><trkpt lat="46.0863348" lon="12.1285544"><ele>304.0</ele><time>2026-04-09T12:15:33.483Z</time></trkpt><trkpt lat="46.0862427" lon="12.1286073"><ele>304.0</ele><time>2026-04-09T12:15:34.484Z</time></trkpt><trkpt lat="46.0861543" lon="12.1286801"><ele>304.0</ele><time>2026-04-09T12:15:35.491Z</time></trkpt><trkpt lat="46.0860747" lon="12.1287672"><ele>304.0</ele><time>2026-04-09T12:15:36.487Z</time></trkpt><trkpt lat="46.0860073" lon="12.128838"><ele>304.0</ele><time>2026-04-09T12:15:37.517Z</time></trkpt><trkpt lat="46.0859498" lon="12.1289282"><ele>304.0</ele><time>2026-04-09T12:15:38.496Z</time></trkpt><trkpt lat="46.0858758" lon="12.1290245"><ele>304.0</ele><time>2026-04-09T12:15:39.486Z</time></trkpt><trkpt lat="46.0858609" lon="12.1291546"><ele>304.0</ele><time>2026-04-09T12:15:40.487Z</time></trkpt><trkpt lat="46.0858216" lon="12.1292986"><ele>304.0</ele><time>2026-04-09T12:15:41.49Z</time></trkpt><trkpt lat="46.085773" lon="12.1293874"><ele>304.0</ele><time>2026-04-09T12:15:42.491Z</time></trkpt><trkpt lat="46.0857202" lon="12.1295016"><ele>304.2</ele><time>2026-04-09T12:15:43.486Z</time></trkpt><trkpt lat="46.0856425" lon="12.1296864"><ele>304.4</ele><time>2026-04-09T12:15:45.494Z</time></trkpt><trkpt lat="46.0856919" lon="12.1297828"><ele>304.6</ele><time>2026-04-09T12:15:49.478Z</time></trkpt><trkpt lat="46.0857636" lon="12.1298181"><ele>304.8</ele><time>2026-04-09T12:15:50.489Z</time></trkpt><trkpt lat="46.0858322" lon="12.1298485"><ele>305.0</ele><time>2026-04-09T12:15:51.485Z</time></trkpt><trkpt lat="46.0859046" lon="12.1298782"><ele>306.4</ele><time>2026-04-09T12:15:52.489Z</time></trkpt><trkpt lat="46.0859676" lon="12.1299463"><ele>307.8</ele><time>2026-04-09T12:15:53.485Z</time></trkpt><trkpt lat="46.0860313" lon="12.1300502"><ele>309.2</ele><time>2026-04-09T12:15:55.49Z</time></trkpt><trkpt lat="46.0861337" lon="12.1301769"><ele>310.6</ele><time>2026-04-09T12:15:57.476Z</time></trkpt><trkpt lat="46.0861962" lon="12.1302312"><ele>312.0</ele><time>2026-04-09T12:15:58.489Z</time></trkpt><trkpt lat="46.0862771" lon="12.1303015"><ele>312.0</ele><time>2026-04-09T12:15:59.489Z</time></trkpt><trkpt lat="46.0863529" lon="12.1303621"><ele>312.0</ele><time>2026-04-09T12:16:00.478Z</time></trkpt><trkpt lat="46.086423" lon="12.130423"><ele>312.0</ele><time>2026-04-09T12:16:01.486Z</time></trkpt><trkpt lat="46.0864847" lon="12.1304668"><ele>312.0</ele><time>2026-04-09T12:16:02.483Z</time></trkpt><trkpt lat="46.0865582" lon="12.1305425"><ele>312.0</ele><time>2026-04-09T12:16:04.485Z</time></trkpt><trkpt lat="46.086609" lon="12.1306222"><ele>312.0</ele><time>2026-04-09T12:16:05.477Z</time></trkpt><trkpt lat="46.0866603" lon="12.1307285"><ele>311.6666666666667</ele><time>2026-04-09T12:16:06.477Z</time></trkpt><trkpt lat="46.0867105" lon="12.1308243"><ele>311.3333333333333</ele><time>2026-04-09T12:16:07.488Z</time></trkpt><trkpt lat="46.0867677" lon="12.1309034"><ele>311.0</ele><time>2026-04-09T12:16:08.486Z</time></trkpt><trkpt lat="46.0868246" lon="12.1309584"><ele>310.66666666666663</ele><time>2026-04-09T12:16:09.488Z</time></trkpt><trkpt lat="46.086884" lon="12.1310014"><ele>310.3333333333333</ele><time>2026-04-09T12:16:10.494Z</time></trkpt><trkpt lat="46.0869536" lon="12.1310642"><ele>310.0</ele><time>2026-04-09T12:16:12.481Z</time></trkpt><trkpt lat="46.0871256" lon="12.1311817"><ele>310.0</ele><time>2026-04-09T12:16:27.499Z</time></trkpt><trkpt lat="46.0872054" lon="12.1312649"><ele>310.0</ele><time>2026-04-09T12:16:28.493Z</time></trkpt><trkpt lat="46.087279" lon="12.1313475"><ele>310.0</ele><time>2026-04-09T12:16:29.489Z</time></trkpt><trkpt lat="46.0873783" lon="12.1314743"><ele>310.0</ele><time>2026-04-09T12:16:30.489Z</time></trkpt><trkpt lat="46.087478" lon="12.1316235"><ele>309.0</ele><time>2026-04-09T12:16:31.499Z</time></trkpt><trkpt lat="46.0875846" lon="12.1317398"><ele>308.0</ele><time>2026-04-09T12:16:32.481Z</time></trkpt><trkpt lat="46.0876695" lon="12.1318795"><ele>307.0</ele><time>2026-04-09T12:16:33.515Z</time></trkpt><trkpt lat="46.0877711" lon="12.1319893"><ele>306.0</ele><time>2026-04-09T12:16:34.483Z</time></trkpt><trkpt lat="46.0878521" lon="12.1321157"><ele>306.0</ele><time>2026-04-09T12:16:35.495Z</time></trkpt><trkpt lat="46.0879442" lon="12.132211"><ele>306.0</ele><time>2026-04-09T12:16:36.487Z</time></trkpt><trkpt lat="46.0880216" lon="12.1322906"><ele>306.0</ele><time>2026-04-09T12:16:37.496Z</time></trkpt><trkpt lat="46.0880795" lon="12.132362"><ele>306.0</ele><time>2026-04-09T12:16:38.489Z</time></trkpt><trkpt lat="46.0881425" lon="12.1324704"><ele>306.0</ele><time>2026-04-09T12:16:39.486Z</time></trkpt><trkpt lat="46.0881951" lon="12.1326114"><ele>306.25</ele><time>2026-04-09T12:16:40.493Z</time></trkpt><trkpt lat="46.0882592" lon="12.1327463"><ele>306.5</ele><time>2026-04-09T12:16:41.489Z</time></trkpt><trkpt lat="46.0883318" lon="12.1328867"><ele>306.75</ele><time>2026-04-09T12:16:42.491Z</time></trkpt><trkpt lat="46.0883946" lon="12.1330362"><ele>307.0</ele><time>2026-04-09T12:16:43.489Z</time></trkpt><trkpt lat="46.0884653" lon="12.1331699"><ele>306.66666666666663</ele><time>2026-04-09T12:16:44.475Z</time></trkpt><trkpt lat="46.0885242" lon="12.1332722"><ele>306.3333333333333</ele><time>2026-04-09T12:16:45.489Z</time></trkpt><trkpt lat="46.0885773" lon="12.1333649"><ele>306.0</ele><time>2026-04-09T12:16:46.493Z</time></trkpt><trkpt lat="46.0886436" lon="12.13339"><ele>305.6666666666667</ele><time>2026-04-09T12:16:47.477Z</time></trkpt><trkpt lat="46.088763" lon="12.1333784"><ele>305.33333333333337</ele><time>2026-04-09T12:16:49.484Z</time></trkpt><trkpt lat="46.0888262" lon="12.1333059"><ele>305.0</ele><time>2026-04-09T12:16:50.492Z</time></trkpt><trkpt lat="46.0889162" lon="12.1331916"><ele>305.0</ele><time>2026-04-09T12:16:51.502Z</time></trkpt><trkpt lat="46.0890209" lon="12.1330771"><ele>305.0</ele><time>2026-04-09T12:16:52.486Z</time></trkpt><trkpt lat="46.0891233" lon="12.1329663"><ele>305.0</ele><time>2026-04-09T12:16:53.481Z</time></trkpt><trkpt lat="46.0892114" lon="12.1328532"><ele>305.0</ele><time>2026-04-09T12:16:54.49Z</time></trkpt><trkpt lat="46.0892862" lon="12.1327463"><ele>304.2</ele><time>2026-04-09T12:16:55.484Z</time></trkpt><trkpt lat="46.0893535" lon="12.1326623"><ele>303.4</ele><time>2026-04-09T12:16:56.481Z</time></trkpt><trkpt lat="46.0894374" lon="12.1326237"><ele>302.6</ele><time>2026-04-09T12:16:58.485Z</time></trkpt><trkpt lat="46.0895168" lon="12.1327015"><ele>301.8</ele><time>2026-04-09T12:17:00.517Z</time></trkpt><trkpt lat="46.0895609" lon="12.1327717"><ele>301.0</ele><time>2026-04-09T12:17:01.483Z</time></trkpt><trkpt lat="46.089653" lon="12.1328982"><ele>301.0</ele><time>2026-04-09T12:17:02.489Z</time></trkpt><trkpt lat="46.0897237" lon="12.1329822"><ele>301.0</ele><time>2026-04-09T12:17:03.494Z</time></trkpt><trkpt lat="46.0898135" lon="12.1330186"><ele>301.0</ele><time>2026-04-09T12:17:04.499Z</time></trkpt><trkpt lat="46.0898984" lon="12.1330692"><ele>301.0</ele><time>2026-04-09T12:17:05.477Z</time></trkpt><trkpt lat="46.0899778" lon="12.1331126"><ele>301.0</ele><time>2026-04-09T12:17:06.497Z</time></trkpt><trkpt lat="46.0900431" lon="12.1331573"><ele>301.0</ele><time>2026-04-09T12:17:07.485Z</time></trkpt><trkpt lat="46.0901121" lon="12.1331652"><ele>301.0</ele><time>2026-04-09T12:17:08.499Z</time></trkpt><trkpt lat="46.0902045" lon="12.1331791"><ele>301.0</ele><time>2026-04-09T12:17:10.487Z</time></trkpt><trkpt lat="46.0902866" lon="12.1332093"><ele>301.0</ele><time>2026-04-09T12:17:12.489Z</time></trkpt><trkpt lat="46.0903591" lon="12.133244"><ele>301.0</ele><time>2026-04-09T12:17:14.489Z</time></trkpt><trkpt lat="46.0904441" lon="12.1332764"><ele>301.0</ele><time>2026-04-09T12:17:16.492Z</time></trkpt><trkpt lat="46.0905591" lon="12.1333251"><ele>301.0</ele><time>2026-04-09T12:17:18.515Z</time></trkpt><trkpt lat="46.0906302" lon="12.1333739"><ele>301.0</ele><time>2026-04-09T12:17:19.482Z</time></trkpt><trkpt lat="46.090727" lon="12.1334283"><ele>301.0</ele><time>2026-04-09T12:17:20.491Z</time></trkpt><trkpt lat="46.0909075" lon="12.1335107"><ele>301.0</ele><time>2026-04-09T12:17:22.489Z</time></trkpt><trkpt lat="46.0910306" lon="12.1335898"><ele>300.3333333333333</ele><time>2026-04-09T12:17:24.496Z</time></trkpt><trkpt lat="46.091173" lon="12.1337837"><ele>299.6666666666667</ele><time>2026-04-09T12:17:27.491Z</time></trkpt><trkpt lat="46.0912949" lon="12.133993"><ele>299.0</ele><time>2026-04-09T12:17:29.502Z</time></trkpt><trkpt lat="46.0913648" lon="12.1340756"><ele>299.0</ele><time>2026-04-09T12:17:30.499Z</time></trkpt><trkpt lat="46.0914425" lon="12.134108"><ele>299.0</ele><time>2026-04-09T12:17:31.502Z</time></trkpt><trkpt lat="46.0915169" lon="12.1341399"><ele>299.0</ele><time>2026-04-09T12:17:32.487Z</time></trkpt><trkpt lat="46.0916265" lon="12.1341497"><ele>299.0</ele><time>2026-04-09T12:17:33.504Z</time></trkpt><trkpt lat="46.0917467" lon="12.1341755"><ele>299.0</ele><time>2026-04-09T12:17:34.491Z</time></trkpt><trkpt lat="46.0918343" lon="12.1342131"><ele>299.0</ele><time>2026-04-09T12:17:35.499Z</time></trkpt><trkpt lat="46.0919313" lon="12.1342653"><ele>299.0</ele><time>2026-04-09T12:17:36.491Z</time></trkpt><trkpt lat="46.091958" lon="12.134396"><ele>299.0</ele><time>2026-04-09T12:17:37.49Z</time></trkpt><trkpt lat="46.0920254" lon="12.1344905"><ele>299.0</ele><time>2026-04-09T12:17:38.494Z</time></trkpt><trkpt lat="46.0920776" lon="12.1346668"><ele>299.0</ele><time>2026-04-09T12:17:39.493Z</time></trkpt><trkpt lat="46.0921323" lon="12.1348384"><ele>299.25</ele><time>2026-04-09T12:17:40.486Z</time></trkpt><trkpt lat="46.0922073" lon="12.1349573"><ele>299.5</ele><time>2026-04-09T12:17:41.486Z</time></trkpt><trkpt lat="46.0923512" lon="12.1351594"><ele>299.75</ele><time>2026-04-09T12:17:43.501Z</time></trkpt><trkpt lat="46.0924371" lon="12.1351839"><ele>300.0</ele><time>2026-04-09T12:17:44.48Z</time></trkpt><trkpt lat="46.0925425" lon="12.1352238"><ele>299.4</ele><time>2026-04-09T12:17:45.485Z</time></trkpt><trkpt lat="46.0926536" lon="12.1352353"><ele>298.8</ele><time>2026-04-09T12:17:46.476Z</time></trkpt><trkpt lat="46.0927794" lon="12.1352456"><ele>298.2</ele><time>2026-04-09T12:17:47.48Z</time></trkpt><trkpt lat="46.0928799" lon="12.1351985"><ele>297.6</ele><time>2026-04-09T12:17:48.498Z</time></trkpt><trkpt lat="46.0929788" lon="12.1351631"><ele>297.0</ele><time>2026-04-09T12:17:49.491Z</time></trkpt><trkpt lat="46.0930853" lon="12.1351238"><ele>297.0</ele><time>2026-04-09T12:17:50.485Z</time></trkpt><trkpt lat="46.0931908" lon="12.1350731"><ele>297.0</ele><time>2026-04-09T12:17:51.49Z</time></trkpt><trkpt lat="46.0931952" lon="12.1352522"><ele>297.0</ele><time>2026-04-09T12:17:53.485Z</time></trkpt><trkpt lat="46.0932015" lon="12.1354094"><ele>297.0</ele><time>2026-04-09T12:17:54.482Z</time></trkpt><trkpt lat="46.093243" lon="12.1355613"><ele>296.0</ele><time>2026-04-09T12:17:55.485Z</time></trkpt><trkpt lat="46.0932382" lon="12.1359843"><ele>295.0</ele><time>2026-04-09T12:17:57.501Z</time></trkpt><trkpt lat="46.093179" lon="12.1362904"><ele>295.0</ele><time>2026-04-09T12:17:59.534Z</time></trkpt><trkpt lat="46.0931153" lon="12.1364961"><ele>295.0</ele><time>2026-04-09T12:18:01.485Z</time></trkpt><trkpt lat="46.0930313" lon="12.1365993"><ele>295.0</ele><time>2026-04-09T12:18:03.483Z</time></trkpt><trkpt lat="46.0927843" lon="12.1366535"><ele>295.2</ele><time>2026-04-09T12:18:07.493Z</time></trkpt><trkpt lat="46.092722" lon="12.1367091"><ele>295.4</ele><time>2026-04-09T12:18:08.491Z</time></trkpt><trkpt lat="46.0926564" lon="12.1367761"><ele>295.6</ele><time>2026-04-09T12:18:09.476Z</time></trkpt><trkpt lat="46.0926011" lon="12.1368733"><ele>295.8</ele><time>2026-04-09T12:18:10.489Z</time></trkpt><trkpt lat="46.0925511" lon="12.1370294"><ele>296.0</ele><time>2026-04-09T12:18:11.498Z</time></trkpt><trkpt lat="46.0925242" lon="12.1371769"><ele>296.5</ele><time>2026-04-09T12:18:12.476Z</time></trkpt><trkpt lat="46.092403" lon="12.1373773"><ele>297.0</ele><time>2026-04-09T12:18:14.555Z</time></trkpt><trkpt lat="46.0923158" lon="12.1374762"><ele>297.5</ele><time>2026-04-09T12:18:15.497Z</time></trkpt><trkpt lat="46.0922148" lon="12.1375679"><ele>298.0</ele><time>2026-04-09T12:18:16.472Z</time></trkpt><trkpt lat="46.0921076" lon="12.1376743"><ele>305.0</ele><time>2026-04-09T12:18:17.517Z</time></trkpt><trkpt lat="46.0915553" lon="12.1380963"><ele>304.6666666666667</ele><time>2026-04-09T12:18:21.506Z</time></trkpt><trkpt lat="46.091305" lon="12.1382965"><ele>304.3333333333333</ele><time>2026-04-09T12:18:23.499Z</time></trkpt><trkpt lat="46.0911911" lon="12.1383253"><ele>304.0</ele><time>2026-04-09T12:18:24.484Z</time></trkpt><trkpt lat="46.0908656" lon="12.1383352"><ele>304.3333333333333</ele><time>2026-04-09T12:18:27.488Z</time></trkpt><trkpt lat="46.0907577" lon="12.1383193"><ele>304.6666666666667</ele><time>2026-04-09T12:18:28.493Z</time></trkpt><trkpt lat="46.0906577" lon="12.1383424"><ele>305.0</ele><time>2026-04-09T12:18:29.5Z</time></trkpt><trkpt lat="46.0904029" lon="12.1384425"><ele>305.0</ele><time>2026-04-09T12:18:31.487Z</time></trkpt><trkpt lat="46.0901993" lon="12.138606"><ele>305.0</ele><time>2026-04-09T12:18:33.487Z</time></trkpt><trkpt lat="46.0901201" lon="12.1386824"><ele>305.0</ele><time>2026-04-09T12:18:34.493Z</time></trkpt><trkpt lat="46.0900376" lon="12.1387897"><ele>305.0</ele><time>2026-04-09T12:18:35.489Z</time></trkpt><trkpt lat="46.0899276" lon="12.1388837"><ele>305.2</ele><time>2026-04-09T12:18:36.494Z</time></trkpt><trkpt lat="46.0898296" lon="12.1389696"><ele>305.4</ele><time>2026-04-09T12:18:37.484Z</time></trkpt><trkpt lat="46.0897554" lon="12.1390707"><ele>305.6</ele><time>2026-04-09T12:18:38.479Z</time></trkpt><trkpt lat="46.0896882" lon="12.1391737"><ele>305.8</ele><time>2026-04-09T12:18:39.48Z</time></trkpt><trkpt lat="46.089614" lon="12.1392566"><ele>306.0</ele><time>2026-04-09T12:18:40.483Z</time></trkpt><trkpt lat="46.089547" lon="12.1393351"><ele>306.6</ele><time>2026-04-09T12:18:41.494Z</time></trkpt><trkpt lat="46.0894788" lon="12.1394428"><ele>307.20000000000005</ele><time>2026-04-09T12:18:42.479Z</time></trkpt><trkpt lat="46.0893913" lon="12.1395453"><ele>307.79999999999995</ele><time>2026-04-09T12:18:44.492Z</time></trkpt><trkpt lat="46.089411" lon="12.1396753"><ele>308.4</ele><time>2026-04-09T12:18:46.484Z</time></trkpt><trkpt lat="46.0894515" lon="12.139782"><ele>309.0</ele><time>2026-04-09T12:18:47.5Z</time></trkpt><trkpt lat="46.089528" lon="12.1399643"><ele>309.5</ele><time>2026-04-09T12:18:48.488Z</time></trkpt><trkpt lat="46.089578" lon="12.1400855"><ele>310.0</ele><time>2026-04-09T12:18:49.486Z</time></trkpt><trkpt lat="46.0896264" lon="12.140197"><ele>310.5</ele><time>2026-04-09T12:18:50.486Z</time></trkpt><trkpt lat="46.0896599" lon="12.1403093"><ele>311.0</ele><time>2026-04-09T12:18:51.491Z</time></trkpt><trkpt lat="46.0896848" lon="12.1404148"><ele>311.5</ele><time>2026-04-09T12:18:52.482Z</time></trkpt><trkpt lat="46.0897219" lon="12.1405378"><ele>312.0</ele><time>2026-04-09T12:18:53.488Z</time></trkpt><trkpt lat="46.0897195" lon="12.1406432"><ele>312.8</ele><time>2026-04-09T12:18:54.488Z</time></trkpt><trkpt lat="46.0897462" lon="12.140748"><ele>313.6</ele><time>2026-04-09T12:18:55.478Z</time></trkpt><trkpt lat="46.0897732" lon="12.1408988"><ele>314.40000000000003</ele><time>2026-04-09T12:18:57.476Z</time></trkpt><trkpt lat="46.089805" lon="12.1410566"><ele>315.2</ele><time>2026-04-09T12:18:59.498Z</time></trkpt><trkpt lat="46.08984" lon="12.1412223"><ele>316.0</ele><time>2026-04-09T12:19:01.488Z</time></trkpt><trkpt lat="46.0898551" lon="12.1413687"><ele>316.0</ele><time>2026-04-09T12:19:03.483Z</time></trkpt><trkpt lat="46.0898627" lon="12.1414683"><ele>316.0</ele><time>2026-04-09T12:19:05.48Z</time></trkpt><trkpt lat="46.0898656" lon="12.1415952"><ele>316.0</ele><time>2026-04-09T12:19:08.488Z</time></trkpt><trkpt lat="46.0898852" lon="12.1417057"><ele>316.0</ele><time>2026-04-09T12:19:11.481Z</time></trkpt><trkpt lat="46.0899124" lon="12.1418305"><ele>316.0</ele><time>2026-04-09T12:19:13.494Z</time></trkpt><trkpt lat="46.0899368" lon="12.1419677"><ele>316.0</ele><time>2026-04-09T12:19:15.486Z</time></trkpt><trkpt lat="46.0899593" lon="12.1421392"><ele>316.3333333333333</ele><time>2026-04-09T12:19:17.479Z</time></trkpt><trkpt lat="46.0899778" lon="12.1422324"><ele>316.66666666666663</ele><time>2026-04-09T12:19:18.485Z</time></trkpt><trkpt lat="46.0899928" lon="12.1423467"><ele>317.0</ele><time>2026-04-09T12:19:19.484Z</time></trkpt><trkpt lat="46.0900117" lon="12.1424665"><ele>317.3333333333333</ele><time>2026-04-09T12:19:20.489Z</time></trkpt><trkpt lat="46.09003" lon="12.1425966"><ele>317.6666666666667</ele><time>2026-04-09T12:19:21.482Z</time></trkpt><trkpt lat="46.0900404" lon="12.1427387"><ele>318.0</ele><time>2026-04-09T12:19:22.487Z</time></trkpt><trkpt lat="46.0900494" lon="12.142897"><ele>318.0</ele><time>2026-04-09T12:19:23.492Z</time></trkpt><trkpt lat="46.0900539" lon="12.1430504"><ele>318.0</ele><time>2026-04-09T12:19:24.487Z</time></trkpt><trkpt lat="46.0900572" lon="12.1432122"><ele>318.0</ele><time>2026-04-09T12:19:25.482Z</time></trkpt><trkpt lat="46.0900578" lon="12.1433595"><ele>318.0</ele><time>2026-04-09T12:19:26.488Z</time></trkpt><trkpt lat="46.0900583" lon="12.1434946"><ele>318.0</ele><time>2026-04-09T12:19:27.495Z</time></trkpt><trkpt lat="46.090054" lon="12.1436185"><ele>318.3333333333333</ele><time>2026-04-09T12:19:28.493Z</time></trkpt><trkpt lat="46.0900571" lon="12.1437303"><ele>318.6666666666667</ele><time>2026-04-09T12:19:29.486Z</time></trkpt><trkpt lat="46.090048" lon="12.1438406"><ele>319.0</ele><time>2026-04-09T12:19:30.481Z</time></trkpt><trkpt lat="46.0900334" lon="12.1439767"><ele>319.33333333333337</ele><time>2026-04-09T12:19:31.477Z</time></trkpt><trkpt lat="46.0900171" lon="12.1441099"><ele>319.6666666666667</ele><time>2026-04-09T12:19:32.463Z</time></trkpt><trkpt lat="46.09" lon="12.1442226"><ele>320.0</ele><time>2026-04-09T12:19:33.494Z</time></trkpt><trkpt lat="46.0899802" lon="12.1443336"><ele>320.0</ele><time>2026-04-09T12:19:34.482Z</time></trkpt><trkpt lat="46.0899596" lon="12.1444305"><ele>320.0</ele><time>2026-04-09T12:19:35.484Z</time></trkpt><trkpt lat="46.089936" lon="12.1445158"><ele>320.0</ele><time>2026-04-09T12:19:36.487Z</time></trkpt><trkpt lat="46.0898973" lon="12.1446112"><ele>320.0</ele><time>2026-04-09T12:19:37.487Z</time></trkpt><trkpt lat="46.0898554" lon="12.1446823"><ele>320.0</ele><time>2026-04-09T12:19:38.489Z</time></trkpt><trkpt lat="46.0898035" lon="12.1447516"><ele>320.0</ele><time>2026-04-09T12:19:39.505Z</time></trkpt><trkpt lat="46.0897425" lon="12.1448124"><ele>320.0</ele><time>2026-04-09T12:19:40.484Z</time></trkpt><trkpt lat="46.0896886" lon="12.1448608"><ele>319.6</ele><time>2026-04-09T12:19:41.491Z</time></trkpt><trkpt lat="46.0895884" lon="12.1449571"><ele>319.2</ele><time>2026-04-09T12:19:43.486Z</time></trkpt><trkpt lat="46.0895458" lon="12.1450936"><ele>318.8</ele><time>2026-04-09T12:19:45.489Z</time></trkpt><trkpt lat="46.0895402" lon="12.1452347"><ele>318.4</ele><time>2026-04-09T12:19:46.483Z</time></trkpt><trkpt lat="46.0895173" lon="12.145383"><ele>318.0</ele><time>2026-04-09T12:19:47.499Z</time></trkpt><trkpt lat="46.0894983" lon="12.1455595"><ele>317.75</ele><time>2026-04-09T12:19:48.494Z</time></trkpt><trkpt lat="46.0894684" lon="12.1457433"><ele>317.5</ele><time>2026-04-09T12:19:49.484Z</time></trkpt><trkpt lat="46.0894286" lon="12.1459242"><ele>317.25</ele><time>2026-04-09T12:19:50.488Z</time></trkpt><trkpt lat="46.08939" lon="12.1460989"><ele>317.0</ele><time>2026-04-09T12:19:51.489Z</time></trkpt><trkpt lat="46.0893578" lon="12.1462446"><ele>317.0</ele><time>2026-04-09T12:19:52.478Z</time></trkpt><trkpt lat="46.0893261" lon="12.1463882"><ele>317.0</ele><time>2026-04-09T12:19:53.494Z</time></trkpt><trkpt lat="46.0893115" lon="12.1465138"><ele>317.0</ele><time>2026-04-09T12:19:54.487Z</time></trkpt><trkpt lat="46.0893336" lon="12.1466635"><ele>317.0</ele><time>2026-04-09T12:19:55.486Z</time></trkpt><trkpt lat="46.0893526" lon="12.1468106"><ele>317.0</ele><time>2026-04-09T12:19:56.477Z</time></trkpt><trkpt lat="46.0894277" lon="12.1470512"><ele>316.6666666666667</ele><time>2026-04-09T12:19:57.477Z</time></trkpt><trkpt lat="46.0894975" lon="12.1472672"><ele>316.3333333333333</ele><time>2026-04-09T12:19:58.482Z</time></trkpt><trkpt lat="46.0895669" lon="12.1474905"><ele>316.0</ele><time>2026-04-09T12:19:59.477Z</time></trkpt><trkpt lat="46.0896419" lon="12.1477137"><ele>317.0</ele><time>2026-04-09T12:20:00.48Z</time></trkpt><trkpt lat="46.0897155" lon="12.1479385"><ele>318.0</ele><time>2026-04-09T12:20:01.474Z</time></trkpt><trkpt lat="46.0897878" lon="12.1481581"><ele>319.0</ele><time>2026-04-09T12:20:02.481Z</time></trkpt><trkpt lat="46.089863" lon="12.1483746"><ele>318.66666666666663</ele><time>2026-04-09T12:20:03.485Z</time></trkpt><trkpt lat="46.0899547" lon="12.1486018"><ele>318.3333333333333</ele><time>2026-04-09T12:20:04.493Z</time></trkpt><trkpt lat="46.090053" lon="12.1488278"><ele>318.0</ele><time>2026-04-09T12:20:05.477Z</time></trkpt><trkpt lat="46.0901444" lon="12.1490538"><ele>318.0</ele><time>2026-04-09T12:20:06.479Z</time></trkpt><trkpt lat="46.0902535" lon="12.1492697"><ele>318.0</ele><time>2026-04-09T12:20:07.494Z</time></trkpt><trkpt lat="46.0903833" lon="12.1494679"><ele>318.0</ele><time>2026-04-09T12:20:08.488Z</time></trkpt><trkpt lat="46.0905116" lon="12.1496484"><ele>318.0</ele><time>2026-04-09T12:20:09.485Z</time></trkpt><trkpt lat="46.0906443" lon="12.1498336"><ele>318.0</ele><time>2026-04-09T12:20:10.479Z</time></trkpt><trkpt lat="46.0907855" lon="12.1500297"><ele>318.0</ele><time>2026-04-09T12:20:11.482Z</time></trkpt><trkpt lat="46.0909389" lon="12.1502397"><ele>316.0</ele><time>2026-04-09T12:20:12.48Z</time></trkpt><trkpt lat="46.0910743" lon="12.1504284"><ele>314.0</ele><time>2026-04-09T12:20:13.473Z</time></trkpt><trkpt lat="46.0911929" lon="12.1506012"><ele>312.0</ele><time>2026-04-09T12:20:14.482Z</time></trkpt><trkpt lat="46.091314" lon="12.1507643"><ele>312.0</ele><time>2026-04-09T12:20:15.485Z</time></trkpt><trkpt lat="46.0914331" lon="12.1509116"><ele>312.0</ele><time>2026-04-09T12:20:16.489Z</time></trkpt><trkpt lat="46.0915512" lon="12.1510827"><ele>312.0</ele><time>2026-04-09T12:20:17.481Z</time></trkpt><trkpt lat="46.0916635" lon="12.1512654"><ele>311.75</ele><time>2026-04-09T12:20:18.494Z</time></trkpt><trkpt lat="46.0917666" lon="12.1514383"><ele>311.5</ele><time>2026-04-09T12:20:19.49Z</time></trkpt><trkpt lat="46.0918324" lon="12.1516116"><ele>311.25</ele><time>2026-04-09T12:20:20.492Z</time></trkpt><trkpt lat="46.0918765" lon="12.1517847"><ele>311.0</ele><time>2026-04-09T12:20:21.489Z</time></trkpt><trkpt lat="46.091896" lon="12.1519742"><ele>311.6666666666667</ele><time>2026-04-09T12:20:22.486Z</time></trkpt><trkpt lat="46.0918899" lon="12.1521857"><ele>312.3333333333333</ele><time>2026-04-09T12:20:23.474Z</time></trkpt><trkpt lat="46.091873" lon="12.1524239"><ele>313.0</ele><time>2026-04-09T12:20:24.503Z</time></trkpt><trkpt lat="46.0918588" lon="12.1526604"><ele>313.3333333333333</ele><time>2026-04-09T12:20:25.485Z</time></trkpt><trkpt lat="46.0918444" lon="12.1529054"><ele>313.6666666666667</ele><time>2026-04-09T12:20:26.486Z</time></trkpt><trkpt lat="46.0918318" lon="12.1531558"><ele>314.0</ele><time>2026-04-09T12:20:27.485Z</time></trkpt><trkpt lat="46.0918221" lon="12.153403"><ele>316.0</ele><time>2026-04-09T12:20:28.488Z</time></trkpt><trkpt lat="46.0918291" lon="12.1536561"><ele>318.0</ele><time>2026-04-09T12:20:29.489Z</time></trkpt><trkpt lat="46.0918573" lon="12.1539085"><ele>320.0</ele><time>2026-04-09T12:20:30.493Z</time></trkpt><trkpt lat="46.0918982" lon="12.1541743"><ele>322.0</ele><time>2026-04-09T12:20:31.493Z</time></trkpt><trkpt lat="46.0919424" lon="12.1544333"><ele>324.0</ele><time>2026-04-09T12:20:32.498Z</time></trkpt><trkpt lat="46.09198" lon="12.1546901"><ele>326.0</ele><time>2026-04-09T12:20:33.482Z</time></trkpt><trkpt lat="46.0920217" lon="12.1549425"><ele>326.6666666666667</ele><time>2026-04-09T12:20:34.47Z</time></trkpt><trkpt lat="46.0920602" lon="12.1551929"><ele>327.3333333333333</ele><time>2026-04-09T12:20:35.49Z</time></trkpt><trkpt lat="46.0920976" lon="12.1554406"><ele>328.0</ele><time>2026-04-09T12:20:36.479Z</time></trkpt><trkpt lat="46.0921376" lon="12.1556794"><ele>329.0</ele><time>2026-04-09T12:20:37.488Z</time></trkpt><trkpt lat="46.0921827" lon="12.1559002"><ele>330.0</ele><time>2026-04-09T12:20:38.485Z</time></trkpt><trkpt lat="46.0922189" lon="12.1561018"><ele>331.0</ele><time>2026-04-09T12:20:39.486Z</time></trkpt><trkpt lat="46.0922536" lon="12.1563134"><ele>331.0</ele><time>2026-04-09T12:20:40.486Z</time></trkpt><trkpt lat="46.0922656" lon="12.1565349"><ele>331.0</ele><time>2026-04-09T12:20:41.492Z</time></trkpt><trkpt lat="46.092268" lon="12.1567674"><ele>331.0</ele><time>2026-04-09T12:20:42.49Z</time></trkpt><trkpt lat="46.092256" lon="12.1569981"><ele>332.0</ele><time>2026-04-09T12:20:43.487Z</time></trkpt><trkpt lat="46.0922429" lon="12.1572381"><ele>333.0</ele><time>2026-04-09T12:20:44.495Z</time></trkpt><trkpt lat="46.0922206" lon="12.1574932"><ele>334.0</ele><time>2026-04-09T12:20:45.479Z</time></trkpt><trkpt lat="46.0922038" lon="12.1577455"><ele>334.3333333333333</ele><time>2026-04-09T12:20:46.488Z</time></trkpt><trkpt lat="46.0921916" lon="12.1580032"><ele>334.6666666666667</ele><time>2026-04-09T12:20:47.486Z</time></trkpt><trkpt lat="46.0921805" lon="12.1582673"><ele>335.0</ele><time>2026-04-09T12:20:48.477Z</time></trkpt><trkpt lat="46.0921856" lon="12.1585278"><ele>335.0</ele><time>2026-04-09T12:20:49.483Z</time></trkpt><trkpt lat="46.0922043" lon="12.1587755"><ele>335.0</ele><time>2026-04-09T12:20:50.491Z</time></trkpt><trkpt lat="46.09224" lon="12.1590157"><ele>335.0</ele><time>2026-04-09T12:20:51.484Z</time></trkpt><trkpt lat="46.092289" lon="12.1592506"><ele>335.0</ele><time>2026-04-09T12:20:52.482Z</time></trkpt><trkpt lat="46.0923551" lon="12.1594839"><ele>335.0</ele><time>2026-04-09T12:20:53.494Z</time></trkpt><trkpt lat="46.0924457" lon="12.1597102"><ele>335.0</ele><time>2026-04-09T12:20:54.487Z</time></trkpt><trkpt lat="46.0925366" lon="12.1599314"><ele>335.6666666666667</ele><time>2026-04-09T12:20:55.485Z</time></trkpt><trkpt lat="46.0926214" lon="12.1601646"><ele>336.3333333333333</ele><time>2026-04-09T12:20:56.49Z</time></trkpt><trkpt lat="46.0927079" lon="12.1604122"><ele>337.0</ele><time>2026-04-09T12:20:57.479Z</time></trkpt><trkpt lat="46.0928057" lon="12.1606573"><ele>338.0</ele><time>2026-04-09T12:20:58.486Z</time></trkpt><trkpt lat="46.0929073" lon="12.1609057"><ele>339.0</ele><time>2026-04-09T12:20:59.492Z</time></trkpt><trkpt lat="46.0930087" lon="12.1611559"><ele>340.0</ele><time>2026-04-09T12:21:00.478Z</time></trkpt><trkpt lat="46.0931036" lon="12.1614042"><ele>340.0</ele><time>2026-04-09T12:21:01.484Z</time></trkpt><trkpt lat="46.0931973" lon="12.1616351"><ele>340.0</ele><time>2026-04-09T12:21:02.485Z</time></trkpt><trkpt lat="46.0932784" lon="12.1618545"><ele>340.0</ele><time>2026-04-09T12:21:03.485Z</time></trkpt><trkpt lat="46.0933533" lon="12.162058"><ele>339.75</ele><time>2026-04-09T12:21:04.484Z</time></trkpt><trkpt lat="46.0934175" lon="12.162245"><ele>339.5</ele><time>2026-04-09T12:21:05.481Z</time></trkpt><trkpt lat="46.0934866" lon="12.1624293"><ele>339.25</ele><time>2026-04-09T12:21:06.494Z</time></trkpt><trkpt lat="46.0935386" lon="12.1625576"><ele>339.0</ele><time>2026-04-09T12:21:07.482Z</time></trkpt><trkpt lat="46.0935815" lon="12.1626665"><ele>338.8333333333333</ele><time>2026-04-09T12:21:08.488Z</time></trkpt><trkpt lat="46.0936186" lon="12.1627487"><ele>338.6666666666667</ele><time>2026-04-09T12:21:09.475Z</time></trkpt><trkpt lat="46.0936295" lon="12.1628383"><ele>338.5</ele><time>2026-04-09T12:21:11.486Z</time></trkpt><trkpt lat="46.0936845" lon="12.1629552"><ele>338.33333333333337</ele><time>2026-04-09T12:21:17.483Z</time></trkpt><trkpt lat="46.0937287" lon="12.1630438"><ele>338.1666666666667</ele><time>2026-04-09T12:21:18.487Z</time></trkpt><trkpt lat="46.0937783" lon="12.1631631"><ele>338.0</ele><time>2026-04-09T12:21:19.49Z</time></trkpt><trkpt lat="46.0938341" lon="12.1633152"><ele>339.0</ele><time>2026-04-09T12:21:20.49Z</time></trkpt><trkpt lat="46.0938913" lon="12.1634913"><ele>340.0</ele><time>2026-04-09T12:21:21.496Z</time></trkpt><trkpt lat="46.0939533" lon="12.1636934"><ele>341.0</ele><time>2026-04-09T12:21:22.494Z</time></trkpt><trkpt lat="46.0940336" lon="12.1639204"><ele>343.33333333333337</ele><time>2026-04-09T12:21:23.483Z</time></trkpt><trkpt lat="46.0941211" lon="12.1641591"><ele>345.6666666666667</ele><time>2026-04-09T12:21:24.484Z</time></trkpt><trkpt lat="46.0942125" lon="12.1644065"><ele>348.0</ele><time>2026-04-09T12:21:25.479Z</time></trkpt><trkpt lat="46.0942994" lon="12.1646503"><ele>349.0</ele><time>2026-04-09T12:21:26.476Z</time></trkpt><trkpt lat="46.0943815" lon="12.1648717"><ele>350.0</ele><time>2026-04-09T12:21:27.495Z</time></trkpt><trkpt lat="46.0944607" lon="12.1650777"><ele>351.0</ele><time>2026-04-09T12:21:28.485Z</time></trkpt><trkpt lat="46.0945515" lon="12.1653076"><ele>351.0</ele><time>2026-04-09T12:21:29.481Z</time></trkpt><trkpt lat="46.0946448" lon="12.1655566"><ele>351.0</ele><time>2026-04-09T12:21:30.486Z</time></trkpt><trkpt lat="46.0947432" lon="12.1658057"><ele>351.0</ele><time>2026-04-09T12:21:31.483Z</time></trkpt><trkpt lat="46.0948286" lon="12.1660477"><ele>350.6666666666667</ele><time>2026-04-09T12:21:32.482Z</time></trkpt><trkpt lat="46.0949064" lon="12.1662712"><ele>350.33333333333337</ele><time>2026-04-09T12:21:33.493Z</time></trkpt><trkpt lat="46.094964" lon="12.1664828"><ele>350.0</ele><time>2026-04-09T12:21:34.48Z</time></trkpt><trkpt lat="46.0950256" lon="12.1666707"><ele>350.0</ele><time>2026-04-09T12:21:35.482Z</time></trkpt><trkpt lat="46.0950867" lon="12.1668631"><ele>350.0</ele><time>2026-04-09T12:21:36.481Z</time></trkpt><trkpt lat="46.0951464" lon="12.1670878"><ele>350.0</ele><time>2026-04-09T12:21:37.48Z</time></trkpt><trkpt lat="46.0952053" lon="12.1673106"><ele>350.33333333333337</ele><time>2026-04-09T12:21:38.485Z</time></trkpt><trkpt lat="46.0952667" lon="12.1675608"><ele>350.6666666666667</ele><time>2026-04-09T12:21:39.482Z</time></trkpt><trkpt lat="46.0953188" lon="12.1677871"><ele>351.0</ele><time>2026-04-09T12:21:40.481Z</time></trkpt><trkpt lat="46.0953709" lon="12.1680295"><ele>351.3333333333333</ele><time>2026-04-09T12:21:41.49Z</time></trkpt><trkpt lat="46.0954213" lon="12.1682887"><ele>351.66666666666663</ele><time>2026-04-09T12:21:42.487Z</time></trkpt><trkpt lat="46.0954839" lon="12.1685503"><ele>352.0</ele><time>2026-04-09T12:21:43.48Z</time></trkpt><trkpt lat="46.0955504" lon="12.1688131"><ele>352.0</ele><time>2026-04-09T12:21:44.483Z</time></trkpt><trkpt lat="46.0956136" lon="12.1690868"><ele>352.0</ele><time>2026-04-09T12:21:45.496Z</time></trkpt><trkpt lat="46.0956736" lon="12.1693611"><ele>352.0</ele><time>2026-04-09T12:21:46.483Z</time></trkpt><trkpt lat="46.0957274" lon="12.169615"><ele>351.0</ele><time>2026-04-09T12:21:47.473Z</time></trkpt><trkpt lat="46.0957747" lon="12.1698743"><ele>350.0</ele><time>2026-04-09T12:21:48.471Z</time></trkpt><trkpt lat="46.0958226" lon="12.1700995"><ele>349.0</ele><time>2026-04-09T12:21:49.486Z</time></trkpt><trkpt lat="46.0958607" lon="12.1703295"><ele>349.0</ele><time>2026-04-09T12:21:50.478Z</time></trkpt><trkpt lat="46.0958921" lon="12.1705321"><ele>349.0</ele><time>2026-04-09T12:21:51.49Z</time></trkpt><trkpt lat="46.0959231" lon="12.1707152"><ele>349.0</ele><time>2026-04-09T12:21:52.471Z</time></trkpt><trkpt lat="46.0959439" lon="12.1708726"><ele>349.0</ele><time>2026-04-09T12:21:53.485Z</time></trkpt><trkpt lat="46.0959576" lon="12.171022"><ele>349.0</ele><time>2026-04-09T12:21:54.473Z</time></trkpt><trkpt lat="46.0959602" lon="12.1711588"><ele>349.0</ele><time>2026-04-09T12:21:55.471Z</time></trkpt><trkpt lat="46.0959494" lon="12.1712914"><ele>349.0</ele><time>2026-04-09T12:21:56.488Z</time></trkpt><trkpt lat="46.0959296" lon="12.1714278"><ele>349.0</ele><time>2026-04-09T12:21:57.481Z</time></trkpt><trkpt lat="46.0958956" lon="12.171574"><ele>349.0</ele><time>2026-04-09T12:21:59.481Z</time></trkpt><trkpt lat="46.0958693" lon="12.171667"><ele>349.0</ele><time>2026-04-09T12:22:01.484Z</time></trkpt><trkpt lat="46.0958814" lon="12.1717842"><ele>349.0</ele><time>2026-04-09T12:22:04.477Z</time></trkpt><trkpt lat="46.0959715" lon="12.1718888"><ele>349.0</ele><time>2026-04-09T12:22:06.481Z</time></trkpt><trkpt lat="46.096053" lon="12.1719711"><ele>349.0</ele><time>2026-04-09T12:22:07.501Z</time></trkpt><trkpt lat="46.0961159" lon="12.1720302"><ele>349.0</ele><time>2026-04-09T12:22:08.499Z</time></trkpt><trkpt lat="46.0961782" lon="12.172101"><ele>349.0</ele><time>2026-04-09T12:22:09.484Z</time></trkpt><trkpt lat="46.0962487" lon="12.1722323"><ele>349.0</ele><time>2026-04-09T12:22:11.483Z</time></trkpt><trkpt lat="46.0962573" lon="12.1723911"><ele>349.0</ele><time>2026-04-09T12:22:13.48Z</time></trkpt><trkpt lat="46.0962825" lon="12.1724909"><ele>349.0</ele><time>2026-04-09T12:22:14.493Z</time></trkpt><trkpt lat="46.0963675" lon="12.1726233"><ele>349.0</ele><time>2026-04-09T12:22:16.474Z</time></trkpt><trkpt lat="46.0964564" lon="12.1726827"><ele>349.16666666666663</ele><time>2026-04-09T12:22:17.491Z</time></trkpt><trkpt lat="46.0965405" lon="12.1727327"><ele>349.3333333333333</ele><time>2026-04-09T12:22:18.499Z</time></trkpt><trkpt lat="46.0966282" lon="12.1727953"><ele>349.5</ele><time>2026-04-09T12:22:19.475Z</time></trkpt><trkpt lat="46.0966971" lon="12.1728804"><ele>349.6666666666667</ele><time>2026-04-09T12:22:20.481Z</time></trkpt><trkpt lat="46.0967621" lon="12.1729504"><ele>349.83333333333337</ele><time>2026-04-09T12:22:21.482Z</time></trkpt><trkpt lat="46.0967999" lon="12.173031"><ele>350.0</ele><time>2026-04-09T12:22:22.489Z</time></trkpt><trkpt lat="46.0968318" lon="12.1731816"><ele>349.75</ele><time>2026-04-09T12:22:24.487Z</time></trkpt><trkpt lat="46.0968494" lon="12.173321"><ele>349.5</ele><time>2026-04-09T12:22:25.498Z</time></trkpt><trkpt lat="46.0968864" lon="12.1734549"><ele>349.25</ele><time>2026-04-09T12:22:26.486Z</time></trkpt><trkpt lat="46.096952" lon="12.1736077"><ele>349.0</ele><time>2026-04-09T12:22:27.482Z</time></trkpt><trkpt lat="46.097027" lon="12.1737853"><ele>349.0</ele><time>2026-04-09T12:22:28.475Z</time></trkpt><trkpt lat="46.0971085" lon="12.1739924"><ele>349.0</ele><time>2026-04-09T12:22:29.503Z</time></trkpt><trkpt lat="46.0971873" lon="12.1742079"><ele>349.0</ele><time>2026-04-09T12:22:30.486Z</time></trkpt><trkpt lat="46.0972733" lon="12.1744277"><ele>349.3333333333333</ele><time>2026-04-09T12:22:31.486Z</time></trkpt><trkpt lat="46.0973636" lon="12.1746546"><ele>349.6666666666667</ele><time>2026-04-09T12:22:32.483Z</time></trkpt><trkpt lat="46.0974487" lon="12.1748745"><ele>350.0</ele><time>2026-04-09T12:22:33.483Z</time></trkpt><trkpt lat="46.0975298" lon="12.1750856"><ele>351.0</ele><time>2026-04-09T12:22:34.48Z</time></trkpt><trkpt lat="46.0976077" lon="12.1752762"><ele>352.0</ele><time>2026-04-09T12:22:35.498Z</time></trkpt><trkpt lat="46.0976783" lon="12.1754516"><ele>353.0</ele><time>2026-04-09T12:22:36.482Z</time></trkpt><trkpt lat="46.0977442" lon="12.1756084"><ele>354.0</ele><time>2026-04-09T12:22:37.485Z</time></trkpt><trkpt lat="46.097827" lon="12.175746"><ele>354.0</ele><time>2026-04-09T12:22:38.487Z</time></trkpt><trkpt lat="46.0979355" lon="12.1758779"><ele>354.0</ele><time>2026-04-09T12:22:39.479Z</time></trkpt><trkpt lat="46.098051" lon="12.1760136"><ele>354.0</ele><time>2026-04-09T12:22:40.488Z</time></trkpt><trkpt lat="46.0982243" lon="12.1761409"><ele>354.0</ele><time>2026-04-09T12:22:41.492Z</time></trkpt><trkpt lat="46.0983874" lon="12.1762601"><ele>354.0</ele><time>2026-04-09T12:22:42.499Z</time></trkpt><trkpt lat="46.098549" lon="12.176369"><ele>354.0</ele><time>2026-04-09T12:22:43.492Z</time></trkpt><trkpt lat="46.0987001" lon="12.1764924"><ele>354.25</ele><time>2026-04-09T12:22:44.484Z</time></trkpt><trkpt lat="46.0988194" lon="12.1766115"><ele>354.5</ele><time>2026-04-09T12:22:45.493Z</time></trkpt><trkpt lat="46.0989194" lon="12.1767604"><ele>354.75</ele><time>2026-04-09T12:22:46.482Z</time></trkpt><trkpt lat="46.0989902" lon="12.1769293"><ele>355.0</ele><time>2026-04-09T12:22:47.497Z</time></trkpt><trkpt lat="46.0990388" lon="12.1771222"><ele>355.0</ele><time>2026-04-09T12:22:48.502Z</time></trkpt><trkpt lat="46.0990726" lon="12.177347"><ele>355.0</ele><time>2026-04-09T12:22:49.474Z</time></trkpt><trkpt lat="46.0990826" lon="12.1775632"><ele>355.0</ele><time>2026-04-09T12:22:50.483Z</time></trkpt><trkpt lat="46.0990128" lon="12.177813"><ele>355.0</ele><time>2026-04-09T12:22:51.502Z</time></trkpt><trkpt lat="46.0989809" lon="12.178051"><ele>355.0</ele><time>2026-04-09T12:22:52.498Z</time></trkpt><trkpt lat="46.0989643" lon="12.1782685"><ele>355.0</ele><time>2026-04-09T12:22:53.48Z</time></trkpt><trkpt lat="46.098942" lon="12.1784872"><ele>355.75</ele><time>2026-04-09T12:22:54.503Z</time></trkpt><trkpt lat="46.0989158" lon="12.1787067"><ele>356.5</ele><time>2026-04-09T12:22:55.476Z</time></trkpt><trkpt lat="46.0988975" lon="12.178904"><ele>357.25</ele><time>2026-04-09T12:22:56.491Z</time></trkpt><trkpt lat="46.0988735" lon="12.1791046"><ele>358.0</ele><time>2026-04-09T12:22:57.483Z</time></trkpt><trkpt lat="46.0988556" lon="12.1792693"><ele>359.0</ele><time>2026-04-09T12:22:58.485Z</time></trkpt><trkpt lat="46.0988435" lon="12.1794444"><ele>360.0</ele><time>2026-04-09T12:22:59.487Z</time></trkpt><trkpt lat="46.0988405" lon="12.1796117"><ele>361.0</ele><time>2026-04-09T12:23:00.485Z</time></trkpt><trkpt lat="46.0988393" lon="12.1797687"><ele>362.0</ele><time>2026-04-09T12:23:01.494Z</time></trkpt><trkpt lat="46.0988456" lon="12.1799367"><ele>362.20000000000005</ele><time>2026-04-09T12:23:02.507Z</time></trkpt><trkpt lat="46.0988458" lon="12.1800959"><ele>362.4</ele><time>2026-04-09T12:23:03.501Z</time></trkpt><trkpt lat="46.0988547" lon="12.1802326"><ele>362.6</ele><time>2026-04-09T12:23:04.494Z</time></trkpt><trkpt lat="46.0988701" lon="12.180361"><ele>362.79999999999995</ele><time>2026-04-09T12:23:05.493Z</time></trkpt><trkpt lat="46.0988917" lon="12.1804749"><ele>363.0</ele><time>2026-04-09T12:23:06.484Z</time></trkpt><trkpt lat="46.0989067" lon="12.1805807"><ele>362.79999999999995</ele><time>2026-04-09T12:23:07.481Z</time></trkpt><trkpt lat="46.0989277" lon="12.1806965"><ele>362.6</ele><time>2026-04-09T12:23:08.489Z</time></trkpt><trkpt lat="46.098951" lon="12.1808255"><ele>362.4</ele><time>2026-04-09T12:23:09.486Z</time></trkpt><trkpt lat="46.098968" lon="12.180967"><ele>362.20000000000005</ele><time>2026-04-09T12:23:10.486Z</time></trkpt><trkpt lat="46.0989929" lon="12.1811239"><ele>362.0</ele><time>2026-04-09T12:23:11.484Z</time></trkpt><trkpt lat="46.0990133" lon="12.1812932"><ele>362.0</ele><time>2026-04-09T12:23:12.5Z</time></trkpt><trkpt lat="46.0990249" lon="12.1814388"><ele>362.0</ele><time>2026-04-09T12:23:13.473Z</time></trkpt><trkpt lat="46.0990379" lon="12.1815725"><ele>362.0</ele><time>2026-04-09T12:23:14.491Z</time></trkpt><trkpt lat="46.0990429" lon="12.181696"><ele>362.0</ele><time>2026-04-09T12:23:15.483Z</time></trkpt><trkpt lat="46.0990503" lon="12.1818157"><ele>362.0</ele><time>2026-04-09T12:23:16.504Z</time></trkpt><trkpt lat="46.0990632" lon="12.1819441"><ele>361.5</ele><time>2026-04-09T12:23:17.485Z</time></trkpt><trkpt lat="46.099071" lon="12.1820971"><ele>361.0</ele><time>2026-04-09T12:23:18.485Z</time></trkpt><trkpt lat="46.0990804" lon="12.1822812"><ele>360.5</ele><time>2026-04-09T12:23:19.484Z</time></trkpt><trkpt lat="46.0990874" lon="12.182471"><ele>360.0</ele><time>2026-04-09T12:23:20.485Z</time></trkpt><trkpt lat="46.0990915" lon="12.1826598"><ele>361.0</ele><time>2026-04-09T12:23:21.494Z</time></trkpt><trkpt lat="46.099093" lon="12.182861"><ele>362.0</ele><time>2026-04-09T12:23:22.499Z</time></trkpt><trkpt lat="46.0991016" lon="12.1830497"><ele>363.0</ele><time>2026-04-09T12:23:23.473Z</time></trkpt><trkpt lat="46.099117" lon="12.183236"><ele>364.0</ele><time>2026-04-09T12:23:24.516Z</time></trkpt><trkpt lat="46.0991431" lon="12.183414"><ele>364.0</ele><time>2026-04-09T12:23:25.477Z</time></trkpt><trkpt lat="46.099167" lon="12.1835731"><ele>364.0</ele><time>2026-04-09T12:23:26.482Z</time></trkpt><trkpt lat="46.0991712" lon="12.183726"><ele>364.0</ele><time>2026-04-09T12:23:27.483Z</time></trkpt><trkpt lat="46.0991915" lon="12.183868"><ele>364.0</ele><time>2026-04-09T12:23:28.483Z</time></trkpt><trkpt lat="46.0992149" lon="12.1839958"><ele>364.0</ele><time>2026-04-09T12:23:29.488Z</time></trkpt><trkpt lat="46.0992344" lon="12.1841024"><ele>363.75</ele><time>2026-04-09T12:23:30.49Z</time></trkpt><trkpt lat="46.0992545" lon="12.1842138"><ele>363.5</ele><time>2026-04-09T12:23:31.48Z</time></trkpt><trkpt lat="46.0992765" lon="12.1843567"><ele>363.25</ele><time>2026-04-09T12:23:32.485Z</time></trkpt><trkpt lat="46.0993197" lon="12.1845279"><ele>363.0</ele><time>2026-04-09T12:23:33.485Z</time></trkpt><trkpt lat="46.0993872" lon="12.1847219"><ele>363.6666666666667</ele><time>2026-04-09T12:23:34.482Z</time></trkpt><trkpt lat="46.0994499" lon="12.1849364"><ele>364.33333333333337</ele><time>2026-04-09T12:23:35.489Z</time></trkpt><trkpt lat="46.0995304" lon="12.1851613"><ele>365.0</ele><time>2026-04-09T12:23:36.491Z</time></trkpt><trkpt lat="46.0996079" lon="12.1853934"><ele>365.0</ele><time>2026-04-09T12:23:37.487Z</time></trkpt><trkpt lat="46.0996942" lon="12.1856308"><ele>365.0</ele><time>2026-04-09T12:23:38.485Z</time></trkpt><trkpt lat="46.0997763" lon="12.1858781"><ele>365.0</ele><time>2026-04-09T12:23:39.482Z</time></trkpt><trkpt lat="46.0998651" lon="12.1861348"><ele>363.6666666666667</ele><time>2026-04-09T12:23:40.495Z</time></trkpt><trkpt lat="46.0999595" lon="12.1863873"><ele>362.3333333333333</ele><time>2026-04-09T12:23:41.497Z</time></trkpt><trkpt lat="46.1000495" lon="12.1866362"><ele>361.0</ele><time>2026-04-09T12:23:42.483Z</time></trkpt><trkpt lat="46.1001405" lon="12.1868794"><ele>360.3333333333333</ele><time>2026-04-09T12:23:43.511Z</time></trkpt><trkpt lat="46.1002251" lon="12.1871061"><ele>359.6666666666667</ele><time>2026-04-09T12:23:44.49Z</time></trkpt><trkpt lat="46.1003198" lon="12.1873052"><ele>359.0</ele><time>2026-04-09T12:23:45.484Z</time></trkpt><trkpt lat="46.1004345" lon="12.1874757"><ele>359.0</ele><time>2026-04-09T12:23:46.487Z</time></trkpt><trkpt lat="46.1005545" lon="12.1876198"><ele>359.0</ele><time>2026-04-09T12:23:47.483Z</time></trkpt><trkpt lat="46.1006783" lon="12.1877463"><ele>359.0</ele><time>2026-04-09T12:23:48.491Z</time></trkpt><trkpt lat="46.1008364" lon="12.1878385"><ele>357.6666666666667</ele><time>2026-04-09T12:23:49.483Z</time></trkpt><trkpt lat="46.1010048" lon="12.187922"><ele>356.3333333333333</ele><time>2026-04-09T12:23:50.487Z</time></trkpt><trkpt lat="46.1011957" lon="12.187984"><ele>355.0</ele><time>2026-04-09T12:23:51.487Z</time></trkpt><trkpt lat="46.1014024" lon="12.1880485"><ele>355.0</ele><time>2026-04-09T12:23:52.478Z</time></trkpt><trkpt lat="46.101614" lon="12.1881283"><ele>355.0</ele><time>2026-04-09T12:23:53.48Z</time></trkpt><trkpt lat="46.10182" lon="12.1882069"><ele>355.0</ele><time>2026-04-09T12:23:54.483Z</time></trkpt><trkpt lat="46.1020468" lon="12.1882848"><ele>355.0</ele><time>2026-04-09T12:23:55.488Z</time></trkpt><trkpt lat="46.102264" lon="12.1883632"><ele>355.0</ele><time>2026-04-09T12:23:56.485Z</time></trkpt><trkpt lat="46.1024726" lon="12.1884425"><ele>355.0</ele><time>2026-04-09T12:23:57.482Z</time></trkpt><trkpt lat="46.1026794" lon="12.1885023"><ele>355.66666666666663</ele><time>2026-04-09T12:23:58.48Z</time></trkpt><trkpt lat="46.1028616" lon="12.1885699"><ele>356.3333333333333</ele><time>2026-04-09T12:23:59.487Z</time></trkpt><trkpt lat="46.1030454" lon="12.1886255"><ele>357.0</ele><time>2026-04-09T12:24:00.491Z</time></trkpt><trkpt lat="46.1032293" lon="12.1886896"><ele>357.3333333333333</ele><time>2026-04-09T12:24:01.478Z</time></trkpt><trkpt lat="46.1034241" lon="12.1887621"><ele>357.66666666666663</ele><time>2026-04-09T12:24:02.494Z</time></trkpt><trkpt lat="46.103617" lon="12.1888292"><ele>358.0</ele><time>2026-04-09T12:24:03.486Z</time></trkpt><trkpt lat="46.1037963" lon="12.1888909"><ele>358.0</ele><time>2026-04-09T12:24:04.493Z</time></trkpt><trkpt lat="46.1039697" lon="12.1889436"><ele>358.0</ele><time>2026-04-09T12:24:05.487Z</time></trkpt><trkpt lat="46.1041289" lon="12.1890008"><ele>358.0</ele><time>2026-04-09T12:24:06.488Z</time></trkpt><trkpt lat="46.1042889" lon="12.1890514"><ele>358.5</ele><time>2026-04-09T12:24:07.483Z</time></trkpt><trkpt lat="46.1044248" lon="12.1891171"><ele>359.0</ele><time>2026-04-09T12:24:08.489Z</time></trkpt><trkpt lat="46.104556" lon="12.1891617"><ele>359.5</ele><time>2026-04-09T12:24:09.482Z</time></trkpt><trkpt lat="46.1046853" lon="12.1892349"><ele>360.0</ele><time>2026-04-09T12:24:10.489Z</time></trkpt><trkpt lat="46.1048083" lon="12.1893186"><ele>359.6666666666667</ele><time>2026-04-09T12:24:11.472Z</time></trkpt><trkpt lat="46.1049304" lon="12.189444"><ele>359.33333333333337</ele><time>2026-04-09T12:24:12.476Z</time></trkpt><trkpt lat="46.1050422" lon="12.1896069"><ele>359.0</ele><time>2026-04-09T12:24:13.488Z</time></trkpt><trkpt lat="46.105151" lon="12.1897876"><ele>359.33333333333337</ele><time>2026-04-09T12:24:14.495Z</time></trkpt><trkpt lat="46.1052644" lon="12.1899797"><ele>359.6666666666667</ele><time>2026-04-09T12:24:15.482Z</time></trkpt><trkpt lat="46.1053838" lon="12.1901778"><ele>360.0</ele><time>2026-04-09T12:24:16.485Z</time></trkpt><trkpt lat="46.1055038" lon="12.1903817"><ele>360.0</ele><time>2026-04-09T12:24:17.479Z</time></trkpt><trkpt lat="46.1056213" lon="12.1905804"><ele>360.0</ele><time>2026-04-09T12:24:18.491Z</time></trkpt><trkpt lat="46.1057352" lon="12.1907603"><ele>360.0</ele><time>2026-04-09T12:24:19.497Z</time></trkpt><trkpt lat="46.1058361" lon="12.1909395"><ele>360.3333333333333</ele><time>2026-04-09T12:24:20.489Z</time></trkpt><trkpt lat="46.1059348" lon="12.1911225"><ele>360.66666666666663</ele><time>2026-04-09T12:24:21.493Z</time></trkpt><trkpt lat="46.1060351" lon="12.1912993"><ele>361.0</ele><time>2026-04-09T12:24:22.49Z</time></trkpt><trkpt lat="46.1061413" lon="12.1914735"><ele>361.0</ele><time>2026-04-09T12:24:23.475Z</time></trkpt><trkpt lat="46.1062483" lon="12.1916581"><ele>361.0</ele><time>2026-04-09T12:24:24.484Z</time></trkpt><trkpt lat="46.1063522" lon="12.1918388"><ele>361.0</ele><time>2026-04-09T12:24:25.49Z</time></trkpt><trkpt lat="46.1064502" lon="12.1919997"><ele>361.0</ele><time>2026-04-09T12:24:26.483Z</time></trkpt><trkpt lat="46.1065323" lon="12.1921554"><ele>361.0</ele><time>2026-04-09T12:24:27.484Z</time></trkpt><trkpt lat="46.1066208" lon="12.1923022"><ele>361.0</ele><time>2026-04-09T12:24:28.477Z</time></trkpt><trkpt lat="46.1067009" lon="12.1924541"><ele>361.0</ele><time>2026-04-09T12:24:29.488Z</time></trkpt><trkpt lat="46.1067779" lon="12.192586"><ele>361.0</ele><time>2026-04-09T12:24:30.483Z</time></trkpt><trkpt lat="46.1068462" lon="12.1927114"><ele>361.0</ele><time>2026-04-09T12:24:31.492Z</time></trkpt><trkpt lat="46.1069198" lon="12.1928162"><ele>361.0</ele><time>2026-04-09T12:24:32.489Z</time></trkpt><trkpt lat="46.1069972" lon="12.1929162"><ele>361.0</ele><time>2026-04-09T12:24:33.485Z</time></trkpt><trkpt lat="46.1070652" lon="12.1930476"><ele>361.0</ele><time>2026-04-09T12:24:34.489Z</time></trkpt><trkpt lat="46.1071236" lon="12.1932128"><ele>361.0</ele><time>2026-04-09T12:24:35.473Z</time></trkpt><trkpt lat="46.107166" lon="12.1934108"><ele>361.0</ele><time>2026-04-09T12:24:36.484Z</time></trkpt><trkpt lat="46.1071981" lon="12.1936349"><ele>361.0</ele><time>2026-04-09T12:24:37.486Z</time></trkpt><trkpt lat="46.107224" lon="12.1938855"><ele>361.0</ele><time>2026-04-09T12:24:38.485Z</time></trkpt><trkpt lat="46.1072549" lon="12.1941432"><ele>361.0</ele><time>2026-04-09T12:24:39.485Z</time></trkpt><trkpt lat="46.1072806" lon="12.1944218"><ele>361.0</ele><time>2026-04-09T12:24:40.489Z</time></trkpt><trkpt lat="46.1072963" lon="12.194706"><ele>361.3333333333333</ele><time>2026-04-09T12:24:41.502Z</time></trkpt><trkpt lat="46.1073138" lon="12.1949855"><ele>361.6666666666667</ele><time>2026-04-09T12:24:42.498Z</time></trkpt><trkpt lat="46.1073295" lon="12.1952501"><ele>362.0</ele><time>2026-04-09T12:24:43.499Z</time></trkpt><trkpt lat="46.1073367" lon="12.1955112"><ele>361.0</ele><time>2026-04-09T12:24:44.476Z</time></trkpt><trkpt lat="46.1073458" lon="12.1957676"><ele>360.0</ele><time>2026-04-09T12:24:45.487Z</time></trkpt><trkpt lat="46.1073514" lon="12.196026"><ele>359.0</ele><time>2026-04-09T12:24:46.486Z</time></trkpt><trkpt lat="46.1073745" lon="12.1962984"><ele>358.0</ele><time>2026-04-09T12:24:47.474Z</time></trkpt><trkpt lat="46.1074011" lon="12.1965577"><ele>357.0</ele><time>2026-04-09T12:24:48.484Z</time></trkpt><trkpt lat="46.107453" lon="12.1967973"><ele>356.0</ele><time>2026-04-09T12:24:49.487Z</time></trkpt><trkpt lat="46.1075134" lon="12.1970399"><ele>354.0</ele><time>2026-04-09T12:24:50.49Z</time></trkpt><trkpt lat="46.1075844" lon="12.1972855"><ele>352.0</ele><time>2026-04-09T12:24:51.49Z</time></trkpt><trkpt lat="46.1076763" lon="12.197516"><ele>350.0</ele><time>2026-04-09T12:24:52.487Z</time></trkpt><trkpt lat="46.1077889" lon="12.1977284"><ele>349.6666666666667</ele><time>2026-04-09T12:24:53.54Z</time></trkpt><trkpt lat="46.1079057" lon="12.1979209"><ele>349.3333333333333</ele><time>2026-04-09T12:24:54.478Z</time></trkpt><trkpt lat="46.1080402" lon="12.1981085"><ele>349.0</ele><time>2026-04-09T12:24:55.496Z</time></trkpt><trkpt lat="46.1081985" lon="12.1982994"><ele>350.0</ele><time>2026-04-09T12:24:56.496Z</time></trkpt><trkpt lat="46.1083625" lon="12.1984793"><ele>351.0</ele><time>2026-04-09T12:24:57.49Z</time></trkpt><trkpt lat="46.1085309" lon="12.1986479"><ele>352.0</ele><time>2026-04-09T12:24:58.473Z</time></trkpt><trkpt lat="46.1087108" lon="12.1988247"><ele>352.0</ele><time>2026-04-09T12:24:59.488Z</time></trkpt><trkpt lat="46.1088974" lon="12.1989979"><ele>352.0</ele><time>2026-04-09T12:25:00.501Z</time></trkpt><trkpt lat="46.1090991" lon="12.1991835"><ele>353.0</ele><time>2026-04-09T12:25:01.48Z</time></trkpt><trkpt lat="46.1093216" lon="12.1993904"><ele>354.0</ele><time>2026-04-09T12:25:02.583Z</time></trkpt><trkpt lat="46.109548" lon="12.1996182"><ele>354.5</ele><time>2026-04-09T12:25:03.62Z</time></trkpt><trkpt lat="46.109775" lon="12.1998411"><ele>355.0</ele><time>2026-04-09T12:25:04.496Z</time></trkpt><trkpt lat="46.1100175" lon="12.2000634"><ele>356.0</ele><time>2026-04-09T12:25:05.482Z</time></trkpt><trkpt lat="46.1102548" lon="12.2002753"><ele>357.0</ele><time>2026-04-09T12:25:06.475Z</time></trkpt><trkpt lat="46.1104876" lon="12.2004782"><ele>358.0</ele><time>2026-04-09T12:25:07.496Z</time></trkpt><trkpt lat="46.1107225" lon="12.2006844"><ele>359.0</ele><time>2026-04-09T12:25:08.48Z</time></trkpt><trkpt lat="46.1109442" lon="12.2008733"><ele>363.5</ele><time>2026-04-09T12:25:09.49Z</time></trkpt><trkpt lat="46.111169" lon="12.2010796"><ele>368.0</ele><time>2026-04-09T12:25:10.553Z</time></trkpt><trkpt lat="46.1113985" lon="12.2012754"><ele>368.0</ele><time>2026-04-09T12:25:11.483Z</time></trkpt><trkpt lat="46.1116165" lon="12.2014627"><ele>368.0</ele><time>2026-04-09T12:25:12.47Z</time></trkpt><trkpt lat="46.111826" lon="12.2016567"><ele>368.0</ele><time>2026-04-09T12:25:13.475Z</time></trkpt><trkpt lat="46.1120215" lon="12.2018265"><ele>368.0</ele><time>2026-04-09T12:25:14.493Z</time></trkpt><trkpt lat="46.1122218" lon="12.2020114"><ele>366.5</ele><time>2026-04-09T12:25:15.483Z</time></trkpt><trkpt lat="46.1124118" lon="12.2021823"><ele>365.0</ele><time>2026-04-09T12:25:16.496Z</time></trkpt><trkpt lat="46.1126284" lon="12.2023613"><ele>365.0</ele><time>2026-04-09T12:25:17.496Z</time></trkpt><trkpt lat="46.1128402" lon="12.2025524"><ele>365.0</ele><time>2026-04-09T12:25:18.471Z</time></trkpt><trkpt lat="46.1130653" lon="12.2027495"><ele>361.0</ele><time>2026-04-09T12:25:19.49Z</time></trkpt><trkpt lat="46.1133006" lon="12.2029352"><ele>357.0</ele><time>2026-04-09T12:25:20.485Z</time></trkpt><trkpt lat="46.1135377" lon="12.2031203"><ele>359.0</ele><time>2026-04-09T12:25:21.474Z</time></trkpt><trkpt lat="46.1137597" lon="12.2033224"><ele>361.0</ele><time>2026-04-09T12:25:22.488Z</time></trkpt><trkpt lat="46.1139692" lon="12.2035435"><ele>355.0</ele><time>2026-04-09T12:25:23.484Z</time></trkpt><trkpt lat="46.1141896" lon="12.2037605"><ele>349.0</ele><time>2026-04-09T12:25:24.475Z</time></trkpt><trkpt lat="46.1144123" lon="12.2039768"><ele>350.5</ele><time>2026-04-09T12:25:25.476Z</time></trkpt><trkpt lat="46.1146199" lon="12.2041813"><ele>352.0</ele><time>2026-04-09T12:25:26.484Z</time></trkpt><trkpt lat="46.1148371" lon="12.2043852"><ele>349.0</ele><time>2026-04-09T12:25:27.498Z</time></trkpt><trkpt lat="46.1150522" lon="12.204584"><ele>346.0</ele><time>2026-04-09T12:25:28.493Z</time></trkpt><trkpt lat="46.1155215" lon="12.2050057"><ele>347.0</ele><time>2026-04-09T12:25:30.485Z</time></trkpt><trkpt lat="46.1157478" lon="12.2052351"><ele>348.0</ele><time>2026-04-09T12:25:31.479Z</time></trkpt><trkpt lat="46.115966" lon="12.2054397"><ele>348.0</ele><time>2026-04-09T12:25:32.48Z</time></trkpt><trkpt lat="46.116184" lon="12.2056537"><ele>348.0</ele><time>2026-04-09T12:25:33.505Z</time></trkpt><trkpt lat="46.1163801" lon="12.2058452"><ele>347.0</ele><time>2026-04-09T12:25:34.487Z</time></trkpt><trkpt lat="46.1165744" lon="12.2060314"><ele>346.0</ele><time>2026-04-09T12:25:35.491Z</time></trkpt><trkpt lat="46.1167434" lon="12.2061825"><ele>345.0</ele><time>2026-04-09T12:25:36.481Z</time></trkpt><trkpt lat="46.1169091" lon="12.2063523"><ele>345.3333333333333</ele><time>2026-04-09T12:25:37.482Z</time></trkpt><trkpt lat="46.1170772" lon="12.2064988"><ele>345.66666666666663</ele><time>2026-04-09T12:25:38.504Z</time></trkpt><trkpt lat="46.11724" lon="12.2066431"><ele>346.0</ele><time>2026-04-09T12:25:39.494Z</time></trkpt><trkpt lat="46.1174139" lon="12.2067834"><ele>346.3333333333333</ele><time>2026-04-09T12:25:40.499Z</time></trkpt><trkpt lat="46.1175816" lon="12.2069004"><ele>346.6666666666667</ele><time>2026-04-09T12:25:41.489Z</time></trkpt><trkpt lat="46.1177488" lon="12.2069884"><ele>347.0</ele><time>2026-04-09T12:25:42.481Z</time></trkpt><trkpt lat="46.1179243" lon="12.2070659"><ele>347.0</ele><time>2026-04-09T12:25:43.479Z</time></trkpt><trkpt lat="46.1180681" lon="12.2071003"><ele>347.0</ele><time>2026-04-09T12:25:44.478Z</time></trkpt><trkpt lat="46.1182309" lon="12.2070939"><ele>347.0</ele><time>2026-04-09T12:25:45.499Z</time></trkpt><trkpt lat="46.1183618" lon="12.2070882"><ele>347.0</ele><time>2026-04-09T12:25:46.484Z</time></trkpt><trkpt lat="46.1184628" lon="12.2070916"><ele>346.6</ele><time>2026-04-09T12:25:47.482Z</time></trkpt><trkpt lat="46.1185768" lon="12.2070836"><ele>346.20000000000005</ele><time>2026-04-09T12:25:48.494Z</time></trkpt><trkpt lat="46.1186888" lon="12.2070842"><ele>345.8</ele><time>2026-04-09T12:25:49.491Z</time></trkpt><trkpt lat="46.1187867" lon="12.2070992"><ele>345.4</ele><time>2026-04-09T12:25:50.487Z</time></trkpt><trkpt lat="46.118888" lon="12.2071526"><ele>345.0</ele><time>2026-04-09T12:25:51.49Z</time></trkpt><trkpt lat="46.1189934" lon="12.207221"><ele>344.75</ele><time>2026-04-09T12:25:52.486Z</time></trkpt><trkpt lat="46.1191019" lon="12.2073196"><ele>344.5</ele><time>2026-04-09T12:25:53.483Z</time></trkpt><trkpt lat="46.1191676" lon="12.2074346"><ele>344.25</ele><time>2026-04-09T12:25:54.486Z</time></trkpt><trkpt lat="46.1192551" lon="12.2076237"><ele>344.0</ele><time>2026-04-09T12:25:55.481Z</time></trkpt><trkpt lat="46.1194002" lon="12.2078961"><ele>346.5</ele><time>2026-04-09T12:25:56.489Z</time></trkpt><trkpt lat="46.1195536" lon="12.2081995"><ele>349.0</ele><time>2026-04-09T12:25:57.489Z</time></trkpt><trkpt lat="46.1197053" lon="12.2085262"><ele>349.0</ele><time>2026-04-09T12:25:58.481Z</time></trkpt><trkpt lat="46.1198643" lon="12.2088938"><ele>349.0</ele><time>2026-04-09T12:25:59.481Z</time></trkpt><trkpt lat="46.1200081" lon="12.2092266"><ele>349.5</ele><time>2026-04-09T12:26:00.49Z</time></trkpt><trkpt lat="46.1201518" lon="12.2095223"><ele>350.0</ele><time>2026-04-09T12:26:01.491Z</time></trkpt><trkpt lat="46.1203163" lon="12.2098383"><ele>350.0</ele><time>2026-04-09T12:26:02.49Z</time></trkpt><trkpt lat="46.1204725" lon="12.2100855"><ele>350.0</ele><time>2026-04-09T12:26:03.487Z</time></trkpt><trkpt lat="46.1206417" lon="12.2103489"><ele>352.5</ele><time>2026-04-09T12:26:04.479Z</time></trkpt><trkpt lat="46.1208182" lon="12.2105748"><ele>355.0</ele><time>2026-04-09T12:26:05.495Z</time></trkpt><trkpt lat="46.1210064" lon="12.2108091"><ele>355.0</ele><time>2026-04-09T12:26:06.482Z</time></trkpt><trkpt lat="46.1212013" lon="12.2110562"><ele>355.0</ele><time>2026-04-09T12:26:07.483Z</time></trkpt><trkpt lat="46.1213822" lon="12.2113239"><ele>354.0</ele><time>2026-04-09T12:26:08.498Z</time></trkpt><trkpt lat="46.1215554" lon="12.2115797"><ele>353.0</ele><time>2026-04-09T12:26:09.488Z</time></trkpt><trkpt lat="46.1217363" lon="12.2118329"><ele>357.0</ele><time>2026-04-09T12:26:10.486Z</time></trkpt><trkpt lat="46.1219179" lon="12.2120847"><ele>361.0</ele><time>2026-04-09T12:26:11.478Z</time></trkpt><trkpt lat="46.1378569" lon="12.2174751"><ele>344.0</ele><time>2026-04-09T12:27:38.273Z</time></trkpt><trkpt lat="46.1409377" lon="12.235445"><ele>347.0</ele><time>2026-04-09T12:28:05.524Z</time></trkpt><trkpt lat="46.1411" lon="12.2356707"><ele>350.0</ele><time>2026-04-09T12:28:06.482Z</time></trkpt><trkpt lat="46.1412135" lon="12.2359162"><ele>353.0</ele><time>2026-04-09T12:28:07.477Z</time></trkpt><trkpt lat="46.1412917" lon="12.2361283"><ele>353.0</ele><time>2026-04-09T12:28:08.48Z</time></trkpt><trkpt lat="46.1414304" lon="12.2363491"><ele>353.0</ele><time>2026-04-09T12:28:09.478Z</time></trkpt><trkpt lat="46.1415728" lon="12.2365464"><ele>353.0</ele><time>2026-04-09T12:28:10.485Z</time></trkpt><trkpt lat="46.1416937" lon="12.2366612"><ele>347.5</ele><time>2026-04-09T12:28:11.485Z</time></trkpt><trkpt lat="46.1419422" lon="12.2368299"><ele>342.0</ele><time>2026-04-09T12:28:12.498Z</time></trkpt><trkpt lat="46.1420344" lon="12.2370556"><ele>342.0</ele><time>2026-04-09T12:28:13.473Z</time></trkpt><trkpt lat="46.1421395" lon="12.2372819"><ele>342.0</ele><time>2026-04-09T12:28:14.481Z</time></trkpt><trkpt lat="46.1422831" lon="12.2374824"><ele>342.0</ele><time>2026-04-09T12:28:15.486Z</time></trkpt><trkpt lat="46.142481" lon="12.2376486"><ele>343.0</ele><time>2026-04-09T12:28:16.485Z</time></trkpt><trkpt lat="46.1425702" lon="12.2378286"><ele>344.0</ele><time>2026-04-09T12:28:17.481Z</time></trkpt><trkpt lat="46.1426976" lon="12.2380163"><ele>345.0</ele><time>2026-04-09T12:28:18.485Z</time></trkpt><trkpt lat="46.1428656" lon="12.2382"><ele>349.0</ele><time>2026-04-09T12:28:19.486Z</time></trkpt><trkpt lat="46.1429695" lon="12.2383923"><ele>353.0</ele><time>2026-04-09T12:28:20.49Z</time></trkpt><trkpt lat="46.1430308" lon="12.2386093"><ele>357.0</ele><time>2026-04-09T12:28:21.48Z</time></trkpt><trkpt lat="46.1430432" lon="12.2388724"><ele>356.3333333333333</ele><time>2026-04-09T12:28:22.488Z</time></trkpt><trkpt lat="46.1431834" lon="12.239148"><ele>355.66666666666663</ele><time>2026-04-09T12:28:23.489Z</time></trkpt><trkpt lat="46.1433151" lon="12.2393759"><ele>355.0</ele><time>2026-04-09T12:28:24.487Z</time></trkpt><trkpt lat="46.143224" lon="12.2396002"><ele>357.0</ele><time>2026-04-09T12:28:25.481Z</time></trkpt><trkpt lat="46.1433252" lon="12.2398076"><ele>359.0</ele><time>2026-04-09T12:28:26.488Z</time></trkpt><trkpt lat="46.1434508" lon="12.2400179"><ele>361.0</ele><time>2026-04-09T12:28:27.472Z</time></trkpt><trkpt lat="46.1434569" lon="12.24025"><ele>361.0</ele><time>2026-04-09T12:28:28.474Z</time></trkpt><trkpt lat="46.1435653" lon="12.2404585"><ele>361.0</ele><time>2026-04-09T12:28:29.482Z</time></trkpt><trkpt lat="46.1436676" lon="12.2406562"><ele>361.0</ele><time>2026-04-09T12:28:30.508Z</time></trkpt><trkpt lat="46.1437945" lon="12.2409115"><ele>363.66666666666663</ele><time>2026-04-09T12:28:31.491Z</time></trkpt><trkpt lat="46.1438946" lon="12.2411272"><ele>366.3333333333333</ele><time>2026-04-09T12:28:32.485Z</time></trkpt><trkpt lat="46.1440161" lon="12.2413737"><ele>369.0</ele><time>2026-04-09T12:28:33.483Z</time></trkpt><trkpt lat="46.1441257" lon="12.2415733"><ele>369.0</ele><time>2026-04-09T12:28:34.473Z</time></trkpt><trkpt lat="46.1443648" lon="12.241772"><ele>369.0</ele><time>2026-04-09T12:28:35.489Z</time></trkpt><trkpt lat="46.1445119" lon="12.2419748"><ele>369.0</ele><time>2026-04-09T12:28:36.473Z</time></trkpt><trkpt lat="46.144638" lon="12.242221"><ele>369.0</ele><time>2026-04-09T12:28:37.48Z</time></trkpt><trkpt lat="46.1447541" lon="12.2424112"><ele>369.0</ele><time>2026-04-09T12:28:38.5Z</time></trkpt><trkpt lat="46.1448209" lon="12.2425623"><ele>369.5</ele><time>2026-04-09T12:28:39.497Z</time></trkpt><trkpt lat="46.1449215" lon="12.2427578"><ele>370.0</ele><time>2026-04-09T12:28:40.471Z</time></trkpt><trkpt lat="46.1450165" lon="12.2429791"><ele>370.5</ele><time>2026-04-09T12:28:41.477Z</time></trkpt><trkpt lat="46.1450668" lon="12.243083"><ele>371.0</ele><time>2026-04-09T12:28:42.507Z</time></trkpt><trkpt lat="46.1450786" lon="12.2432978"><ele>371.0</ele><time>2026-04-09T12:28:43.483Z</time></trkpt><trkpt lat="46.1452165" lon="12.2434612"><ele>371.0</ele><time>2026-04-09T12:28:44.477Z</time></trkpt><trkpt lat="46.1453344" lon="12.2436233"><ele>371.0</ele><time>2026-04-09T12:28:45.472Z</time></trkpt><trkpt lat="46.1454729" lon="12.2437552"><ele>370.6666666666667</ele><time>2026-04-09T12:28:46.477Z</time></trkpt><trkpt lat="46.1455894" lon="12.2439661"><ele>370.3333333333333</ele><time>2026-04-09T12:28:47.475Z</time></trkpt><trkpt lat="46.1457154" lon="12.244106"><ele>370.0</ele><time>2026-04-09T12:28:48.501Z</time></trkpt><trkpt lat="46.1458636" lon="12.2442807"><ele>370.0</ele><time>2026-04-09T12:28:49.5Z</time></trkpt><trkpt lat="46.1460669" lon="12.244422"><ele>370.0</ele><time>2026-04-09T12:28:50.503Z</time></trkpt><trkpt lat="46.1462428" lon="12.2446086"><ele>370.0</ele><time>2026-04-09T12:28:51.472Z</time></trkpt><trkpt lat="46.1463486" lon="12.2447306"><ele>371.0</ele><time>2026-04-09T12:28:52.495Z</time></trkpt><trkpt lat="46.1463191" lon="12.2448997"><ele>372.0</ele><time>2026-04-09T12:28:53.482Z</time></trkpt><trkpt lat="46.1465445" lon="12.2450529"><ele>373.0</ele><time>2026-04-09T12:28:54.471Z</time></trkpt><trkpt lat="46.1466396" lon="12.2452177"><ele>373.0</ele><time>2026-04-09T12:28:55.484Z</time></trkpt><trkpt lat="46.1467626" lon="12.2453975"><ele>373.0</ele><time>2026-04-09T12:28:56.494Z</time></trkpt><trkpt lat="46.1468755" lon="12.2455773"><ele>373.0</ele><time>2026-04-09T12:28:57.493Z</time></trkpt><trkpt lat="46.1493692" lon="12.2500533"><ele>373.5</ele><time>2026-04-09T12:29:11.161Z</time></trkpt><trkpt lat="46.1494486" lon="12.2504612"><ele>374.0</ele><time>2026-04-09T12:29:16.334Z</time></trkpt><trkpt lat="46.1504671" lon="12.252874"><ele>377.0</ele><time>2026-04-09T12:29:24.23Z</time></trkpt><trkpt lat="46.1506584" lon="12.254439"><ele>374.0</ele><time>2026-04-09T12:29:31.682Z</time></trkpt><trkpt lat="46.151045" lon="12.2557203"><ele>374.0</ele><time>2026-04-09T12:29:44.52Z</time></trkpt><trkpt lat="46.1510542" lon="12.2558394"><ele>374.0</ele><time>2026-04-09T12:29:45.818Z</time></trkpt><trkpt lat="46.1510871" lon="12.2561246"><ele>374.0</ele><time>2026-04-09T12:29:47.496Z</time></trkpt><trkpt lat="46.1511227" lon="12.2564054"><ele>374.33333333333337</ele><time>2026-04-09T12:29:49.487Z</time></trkpt><trkpt lat="46.1511577" lon="12.2565213"><ele>374.6666666666667</ele><time>2026-04-09T12:29:50.486Z</time></trkpt><trkpt lat="46.1512252" lon="12.2566836"><ele>375.0</ele><time>2026-04-09T12:29:51.487Z</time></trkpt><trkpt lat="46.1513664" lon="12.2569617"><ele>375.0</ele><time>2026-04-09T12:29:54.487Z</time></trkpt><trkpt lat="46.1514312" lon="12.2570559"><ele>375.0</ele><time>2026-04-09T12:29:55.486Z</time></trkpt><trkpt lat="46.1514657" lon="12.257176"><ele>375.0</ele><time>2026-04-09T12:29:56.472Z</time></trkpt><trkpt lat="46.1514876" lon="12.2572864"><ele>375.0</ele><time>2026-04-09T12:29:57.482Z</time></trkpt><trkpt lat="46.1515102" lon="12.2574025"><ele>375.0</ele><time>2026-04-09T12:29:58.477Z</time></trkpt><trkpt lat="46.1515374" lon="12.2575988"><ele>374.0</ele><time>2026-04-09T12:29:59.5Z</time></trkpt><trkpt lat="46.1515768" lon="12.2577352"><ele>373.0</ele><time>2026-04-09T12:30:00.48Z</time></trkpt><trkpt lat="46.1515579" lon="12.2580226"><ele>372.0</ele><time>2026-04-09T12:30:01.47Z</time></trkpt><trkpt lat="46.151558" lon="12.2582063"><ele>371.0</ele><time>2026-04-09T12:30:02.476Z</time></trkpt><trkpt lat="46.1515826" lon="12.2583825"><ele>370.75</ele><time>2026-04-09T12:30:03.501Z</time></trkpt><trkpt lat="46.1515494" lon="12.2585483"><ele>370.5</ele><time>2026-04-09T12:30:04.472Z</time></trkpt><trkpt lat="46.1514741" lon="12.2587353"><ele>370.25</ele><time>2026-04-09T12:30:05.484Z</time></trkpt><trkpt lat="46.151459" lon="12.2589364"><ele>370.0</ele><time>2026-04-09T12:30:06.492Z</time></trkpt><trkpt lat="46.1514129" lon="12.2592291"><ele>371.66666666666663</ele><time>2026-04-09T12:30:07.485Z</time></trkpt><trkpt lat="46.1514053" lon="12.2594522"><ele>373.3333333333333</ele><time>2026-04-09T12:30:08.488Z</time></trkpt><trkpt lat="46.1514049" lon="12.2596538"><ele>375.0</ele><time>2026-04-09T12:30:09.478Z</time></trkpt><trkpt lat="46.1514455" lon="12.2598976"><ele>374.0</ele><time>2026-04-09T12:30:10.469Z</time></trkpt><trkpt lat="46.1515472" lon="12.2601542"><ele>373.0</ele><time>2026-04-09T12:30:11.472Z</time></trkpt><trkpt lat="46.1515904" lon="12.2604627"><ele>372.0</ele><time>2026-04-09T12:30:12.475Z</time></trkpt><trkpt lat="46.1515794" lon="12.2607966"><ele>372.0</ele><time>2026-04-09T12:30:13.478Z</time></trkpt><trkpt lat="46.1515965" lon="12.2610809"><ele>372.0</ele><time>2026-04-09T12:30:14.478Z</time></trkpt><trkpt lat="46.1515673" lon="12.261321"><ele>372.0</ele><time>2026-04-09T12:30:15.487Z</time></trkpt><trkpt lat="46.1516112" lon="12.2614898"><ele>372.0</ele><time>2026-04-09T12:30:16.48Z</time></trkpt><trkpt lat="46.1516687" lon="12.2616879"><ele>372.0</ele><time>2026-04-09T12:30:17.471Z</time></trkpt><trkpt lat="46.1517439" lon="12.2618685"><ele>372.0</ele><time>2026-04-09T12:30:18.49Z</time></trkpt><trkpt lat="46.1518637" lon="12.2620222"><ele>372.0</ele><time>2026-04-09T12:30:19.484Z</time></trkpt><trkpt lat="46.1520044" lon="12.2621922"><ele>372.0</ele><time>2026-04-09T12:30:20.482Z</time></trkpt><trkpt lat="46.152156" lon="12.262364"><ele>372.0</ele><time>2026-04-09T12:30:21.48Z</time></trkpt><trkpt lat="46.1523388" lon="12.2626046"><ele>371.6666666666667</ele><time>2026-04-09T12:30:22.484Z</time></trkpt><trkpt lat="46.1524741" lon="12.2628237"><ele>371.33333333333337</ele><time>2026-04-09T12:30:23.482Z</time></trkpt><trkpt lat="46.1526009" lon="12.2629936"><ele>371.0</ele><time>2026-04-09T12:30:24.49Z</time></trkpt><trkpt lat="46.1527226" lon="12.2631706"><ele>371.6666666666667</ele><time>2026-04-09T12:30:25.489Z</time></trkpt><trkpt lat="46.1528563" lon="12.2633356"><ele>372.3333333333333</ele><time>2026-04-09T12:30:26.473Z</time></trkpt><trkpt lat="46.1530025" lon="12.2635244"><ele>373.0</ele><time>2026-04-09T12:30:27.481Z</time></trkpt><trkpt lat="46.1531341" lon="12.263718"><ele>372.66666666666663</ele><time>2026-04-09T12:30:28.479Z</time></trkpt><trkpt lat="46.1532795" lon="12.263933"><ele>372.3333333333333</ele><time>2026-04-09T12:30:29.477Z</time></trkpt><trkpt lat="46.1534239" lon="12.2641315"><ele>372.0</ele><time>2026-04-09T12:30:30.479Z</time></trkpt><trkpt lat="46.1535649" lon="12.2643126"><ele>372.6666666666667</ele><time>2026-04-09T12:30:31.486Z</time></trkpt><trkpt lat="46.1537143" lon="12.2644979"><ele>373.33333333333337</ele><time>2026-04-09T12:30:32.478Z</time></trkpt><trkpt lat="46.1538671" lon="12.2646641"><ele>374.0</ele><time>2026-04-09T12:30:33.496Z</time></trkpt><trkpt lat="46.1540235" lon="12.2648058"><ele>374.33333333333337</ele><time>2026-04-09T12:30:34.482Z</time></trkpt><trkpt lat="46.1541586" lon="12.2649462"><ele>374.6666666666667</ele><time>2026-04-09T12:30:35.478Z</time></trkpt><trkpt lat="46.1543049" lon="12.2650385"><ele>375.0</ele><time>2026-04-09T12:30:36.477Z</time></trkpt><trkpt lat="46.1544614" lon="12.26523"><ele>375.0</ele><time>2026-04-09T12:30:37.48Z</time></trkpt><trkpt lat="46.1546363" lon="12.2653765"><ele>375.0</ele><time>2026-04-09T12:30:38.488Z</time></trkpt><trkpt lat="46.154814" lon="12.2654645"><ele>375.0</ele><time>2026-04-09T12:30:39.508Z</time></trkpt><trkpt lat="46.1550137" lon="12.2656079"><ele>376.6666666666667</ele><time>2026-04-09T12:30:40.497Z</time></trkpt><trkpt lat="46.1551686" lon="12.2656868"><ele>378.33333333333337</ele><time>2026-04-09T12:30:41.491Z</time></trkpt><trkpt lat="46.1552976" lon="12.2657701"><ele>380.0</ele><time>2026-04-09T12:30:42.499Z</time></trkpt><trkpt lat="46.1554797" lon="12.2658077"><ele>380.0</ele><time>2026-04-09T12:30:43.498Z</time></trkpt><trkpt lat="46.1556865" lon="12.2658502"><ele>380.0</ele><time>2026-04-09T12:30:44.484Z</time></trkpt><trkpt lat="46.1559" lon="12.2658552"><ele>380.0</ele><time>2026-04-09T12:30:45.48Z</time></trkpt><trkpt lat="46.1562315" lon="12.2659403"><ele>372.0</ele><time>2026-04-09T12:30:46.474Z</time></trkpt><trkpt lat="46.1567928" lon="12.2659455"><ele>372.0</ele><time>2026-04-09T12:30:48.473Z</time></trkpt><trkpt lat="46.1570278" lon="12.2660152"><ele>372.0</ele><time>2026-04-09T12:30:49.478Z</time></trkpt><trkpt lat="46.157286" lon="12.2660952"><ele>370.5</ele><time>2026-04-09T12:30:50.472Z</time></trkpt><trkpt lat="46.1575384" lon="12.2661319"><ele>369.0</ele><time>2026-04-09T12:30:51.474Z</time></trkpt><trkpt lat="46.1577986" lon="12.2662004"><ele>369.0</ele><time>2026-04-09T12:30:52.491Z</time></trkpt><trkpt lat="46.1580468" lon="12.2663271"><ele>369.0</ele><time>2026-04-09T12:30:53.488Z</time></trkpt><trkpt lat="46.1583028" lon="12.2664216"><ele>375.0</ele><time>2026-04-09T12:30:54.488Z</time></trkpt><trkpt lat="46.158538" lon="12.2665826"><ele>381.0</ele><time>2026-04-09T12:30:55.475Z</time></trkpt><trkpt lat="46.1587838" lon="12.2667329"><ele>381.0</ele><time>2026-04-09T12:30:56.486Z</time></trkpt><trkpt lat="46.1590108" lon="12.2669238"><ele>381.0</ele><time>2026-04-09T12:30:57.478Z</time></trkpt><trkpt lat="46.1592385" lon="12.2671197"><ele>381.5</ele><time>2026-04-09T12:30:58.469Z</time></trkpt><trkpt lat="46.1594684" lon="12.2673096"><ele>382.0</ele><time>2026-04-09T12:30:59.487Z</time></trkpt><trkpt lat="46.1596942" lon="12.2674997"><ele>381.0</ele><time>2026-04-09T12:31:00.485Z</time></trkpt><trkpt lat="46.1611241" lon="12.2687505"><ele>383.5</ele><time>2026-04-09T12:31:06.479Z</time></trkpt><trkpt lat="46.1613787" lon="12.2689733"><ele>386.0</ele><time>2026-04-09T12:31:07.499Z</time></trkpt><trkpt lat="46.1616256" lon="12.2691919"><ele>386.0</ele><time>2026-04-09T12:31:08.512Z</time></trkpt><trkpt lat="46.1618812" lon="12.2694284"><ele>386.0</ele><time>2026-04-09T12:31:09.476Z</time></trkpt><trkpt lat="46.1621142" lon="12.2696345"><ele>387.5</ele><time>2026-04-09T12:31:10.48Z</time></trkpt><trkpt lat="46.1623627" lon="12.2698429"><ele>389.0</ele><time>2026-04-09T12:31:11.497Z</time></trkpt><trkpt lat="46.1625968" lon="12.2700253"><ele>389.0</ele><time>2026-04-09T12:31:12.482Z</time></trkpt><trkpt lat="46.162832" lon="12.2701688"><ele>389.0</ele><time>2026-04-09T12:31:13.474Z</time></trkpt><trkpt lat="46.1630392" lon="12.2703174"><ele>389.0</ele><time>2026-04-09T12:31:14.477Z</time></trkpt><trkpt lat="46.1632558" lon="12.2704156"><ele>389.0</ele><time>2026-04-09T12:31:15.485Z</time></trkpt><trkpt lat="46.1634509" lon="12.2704743"><ele>389.0</ele><time>2026-04-09T12:31:16.485Z</time></trkpt><trkpt lat="46.1639614" lon="12.2704781"><ele>387.0</ele><time>2026-04-09T12:31:19.471Z</time></trkpt><trkpt lat="46.1644771" lon="12.2706001"><ele>387.0</ele><time>2026-04-09T12:31:20.478Z</time></trkpt><trkpt lat="46.1647243" lon="12.2705835"><ele>387.0</ele><time>2026-04-09T12:31:21.48Z</time></trkpt><trkpt lat="46.1648146" lon="12.2705097"><ele>387.0</ele><time>2026-04-09T12:31:22.475Z</time></trkpt><trkpt lat="46.1650413" lon="12.270482"><ele>389.5</ele><time>2026-04-09T12:31:23.478Z</time></trkpt><trkpt lat="46.1652639" lon="12.2704619"><ele>392.0</ele><time>2026-04-09T12:31:24.478Z</time></trkpt><trkpt lat="46.1689867" lon="12.2714858"><ele>395.0</ele><time>2026-04-09T12:31:47.467Z</time></trkpt><trkpt lat="46.1691344" lon="12.2716163"><ele>398.0</ele><time>2026-04-09T12:31:48.471Z</time></trkpt><trkpt lat="46.1693564" lon="12.2717083"><ele>401.0</ele><time>2026-04-09T12:31:50.476Z</time></trkpt><trkpt lat="46.1696049" lon="12.271992"><ele>400.5</ele><time>2026-04-09T12:31:52.482Z</time></trkpt><trkpt lat="46.1698885" lon="12.2720877"><ele>400.0</ele><time>2026-04-09T12:31:53.476Z</time></trkpt><trkpt lat="46.1699524" lon="12.2722998"><ele>400.0</ele><time>2026-04-09T12:31:54.486Z</time></trkpt><trkpt lat="46.1700717" lon="12.2727381"><ele>400.0</ele><time>2026-04-09T12:31:55.475Z</time></trkpt><trkpt lat="46.1702232" lon="12.2728833"><ele>400.0</ele><time>2026-04-09T12:31:56.472Z</time></trkpt><trkpt lat="46.170473" lon="12.2730507"><ele>400.0</ele><time>2026-04-09T12:31:57.492Z</time></trkpt><trkpt lat="46.1704995" lon="12.2733734"><ele>402.33333333333337</ele><time>2026-04-09T12:31:58.485Z</time></trkpt><trkpt lat="46.1706091" lon="12.2735774"><ele>404.66666666666663</ele><time>2026-04-09T12:31:59.481Z</time></trkpt><trkpt lat="46.1708019" lon="12.2737376"><ele>407.0</ele><time>2026-04-09T12:32:00.476Z</time></trkpt><trkpt lat="46.1709853" lon="12.2738636"><ele>403.66666666666663</ele><time>2026-04-09T12:32:01.477Z</time></trkpt><trkpt lat="46.1710637" lon="12.2741033"><ele>400.33333333333337</ele><time>2026-04-09T12:32:02.489Z</time></trkpt><trkpt lat="46.1711458" lon="12.2743095"><ele>397.0</ele><time>2026-04-09T12:32:03.487Z</time></trkpt><trkpt lat="46.1712846" lon="12.2745111"><ele>398.0</ele><time>2026-04-09T12:32:04.489Z</time></trkpt><trkpt lat="46.1713063" lon="12.2747851"><ele>399.0</ele><time>2026-04-09T12:32:05.475Z</time></trkpt><trkpt lat="46.1713806" lon="12.2750115"><ele>400.0</ele><time>2026-04-09T12:32:06.48Z</time></trkpt><trkpt lat="46.1714493" lon="12.2752197"><ele>400.0</ele><time>2026-04-09T12:32:07.478Z</time></trkpt><trkpt lat="46.1715112" lon="12.2754452"><ele>400.0</ele><time>2026-04-09T12:32:08.496Z</time></trkpt><trkpt lat="46.1715464" lon="12.2756698"><ele>400.0</ele><time>2026-04-09T12:32:09.481Z</time></trkpt><trkpt lat="46.1715958" lon="12.2759353"><ele>397.33333333333337</ele><time>2026-04-09T12:32:10.491Z</time></trkpt><trkpt lat="46.1716401" lon="12.2761652"><ele>394.66666666666663</ele><time>2026-04-09T12:32:11.477Z</time></trkpt><trkpt lat="46.1717002" lon="12.2763854"><ele>392.0</ele><time>2026-04-09T12:32:12.503Z</time></trkpt><trkpt lat="46.1717468" lon="12.2766733"><ele>391.66666666666663</ele><time>2026-04-09T12:32:13.494Z</time></trkpt><trkpt lat="46.1717644" lon="12.2768915"><ele>391.33333333333337</ele><time>2026-04-09T12:32:14.478Z</time></trkpt><trkpt lat="46.1717795" lon="12.2771359"><ele>391.0</ele><time>2026-04-09T12:32:15.469Z</time></trkpt><trkpt lat="46.1717959" lon="12.2773878"><ele>391.0</ele><time>2026-04-09T12:32:16.49Z</time></trkpt><trkpt lat="46.1718138" lon="12.2776275"><ele>391.0</ele><time>2026-04-09T12:32:17.479Z</time></trkpt><trkpt lat="46.1718321" lon="12.2778847"><ele>391.0</ele><time>2026-04-09T12:32:18.49Z</time></trkpt><trkpt lat="46.1718465" lon="12.2781669"><ele>391.0</ele><time>2026-04-09T12:32:19.476Z</time></trkpt><trkpt lat="46.1718651" lon="12.2784237"><ele>391.0</ele><time>2026-04-09T12:32:20.478Z</time></trkpt><trkpt lat="46.1718845" lon="12.2787776"><ele>391.0</ele><time>2026-04-09T12:32:21.468Z</time></trkpt><trkpt lat="46.1718919" lon="12.2791547"><ele>390.5</ele><time>2026-04-09T12:32:22.477Z</time></trkpt><trkpt lat="46.1719239" lon="12.279471"><ele>390.0</ele><time>2026-04-09T12:32:23.476Z</time></trkpt><trkpt lat="46.1719501" lon="12.2798593"><ele>389.0</ele><time>2026-04-09T12:32:24.473Z</time></trkpt><trkpt lat="46.1720717" lon="12.2802711"><ele>388.0</ele><time>2026-04-09T12:32:25.484Z</time></trkpt><trkpt lat="46.1720435" lon="12.2806322"><ele>388.0</ele><time>2026-04-09T12:32:26.484Z</time></trkpt><trkpt lat="46.1720581" lon="12.280965"><ele>388.0</ele><time>2026-04-09T12:32:27.481Z</time></trkpt><trkpt lat="46.172105" lon="12.2812613"><ele>388.0</ele><time>2026-04-09T12:32:28.541Z</time></trkpt><trkpt lat="46.172105" lon="12.2815411"><ele>388.6666666666667</ele><time>2026-04-09T12:32:29.473Z</time></trkpt><trkpt lat="46.1722129" lon="12.2818402"><ele>389.33333333333337</ele><time>2026-04-09T12:32:30.479Z</time></trkpt><trkpt lat="46.1722672" lon="12.2821147"><ele>390.0</ele><time>2026-04-09T12:32:31.476Z</time></trkpt><trkpt lat="46.1722686" lon="12.2823644"><ele>390.66666666666663</ele><time>2026-04-09T12:32:32.471Z</time></trkpt><trkpt lat="46.1722753" lon="12.2825729"><ele>391.3333333333333</ele><time>2026-04-09T12:32:33.468Z</time></trkpt><trkpt lat="46.1722896" lon="12.2827957"><ele>392.0</ele><time>2026-04-09T12:32:34.486Z</time></trkpt><trkpt lat="46.1723156" lon="12.2830305"><ele>392.5</ele><time>2026-04-09T12:32:35.479Z</time></trkpt><trkpt lat="46.1723279" lon="12.2832514"><ele>393.0</ele><time>2026-04-09T12:32:36.489Z</time></trkpt><trkpt lat="46.1722932" lon="12.2833901"><ele>393.5</ele><time>2026-04-09T12:32:37.477Z</time></trkpt><trkpt lat="46.1721881" lon="12.28355"><ele>394.0</ele><time>2026-04-09T12:32:39.468Z</time></trkpt><trkpt lat="46.1724941" lon="12.2841987"><ele>394.0</ele><time>2026-04-09T12:32:40.467Z</time></trkpt><trkpt lat="46.1720003" lon="12.2831066"><ele>394.0</ele><time>2026-04-09T12:32:41.482Z</time></trkpt><trkpt lat="46.1721241" lon="12.2836772"><ele>394.0</ele><time>2026-04-09T12:32:45.481Z</time></trkpt><trkpt lat="46.1725352" lon="12.283682"><ele>387.5</ele><time>2026-04-09T12:32:53.478Z</time></trkpt><trkpt lat="46.1728024" lon="12.2838104"><ele>381.0</ele><time>2026-04-09T12:32:56.487Z</time></trkpt><trkpt lat="46.1729764" lon="12.2839979"><ele>381.0</ele><time>2026-04-09T12:32:58.48Z</time></trkpt><trkpt lat="46.1730313" lon="12.2840678"><ele>381.0</ele><time>2026-04-09T12:32:59.479Z</time></trkpt><trkpt lat="46.1733241" lon="12.2840925"><ele>381.0</ele><time>2026-04-09T12:33:00.483Z</time></trkpt><trkpt lat="46.1734291" lon="12.2841327"><ele>382.4</ele><time>2026-04-09T12:33:02.492Z</time></trkpt><trkpt lat="46.1734917" lon="12.284107"><ele>383.8</ele><time>2026-04-09T12:33:03.477Z</time></trkpt><trkpt lat="46.1736336" lon="12.2840598"><ele>385.2</ele><time>2026-04-09T12:33:04.467Z</time></trkpt><trkpt lat="46.1737291" lon="12.2839963"><ele>386.59999999999997</ele><time>2026-04-09T12:33:05.478Z</time></trkpt><trkpt lat="46.173819" lon="12.2839619"><ele>388.0</ele><time>2026-04-09T12:33:06.473Z</time></trkpt><trkpt lat="46.1738976" lon="12.2839403"><ele>387.25</ele><time>2026-04-09T12:33:07.475Z</time></trkpt><trkpt lat="46.1740089" lon="12.2839083"><ele>386.5</ele><time>2026-04-09T12:33:08.488Z</time></trkpt><trkpt lat="46.1741982" lon="12.2838237"><ele>385.75</ele><time>2026-04-09T12:33:09.477Z</time></trkpt><trkpt lat="46.1743005" lon="12.2838547"><ele>385.0</ele><time>2026-04-09T12:33:10.475Z</time></trkpt><trkpt lat="46.174484" lon="12.283774"><ele>389.33333333333337</ele><time>2026-04-09T12:33:11.482Z</time></trkpt><trkpt lat="46.1746639" lon="12.2837383"><ele>393.66666666666663</ele><time>2026-04-09T12:33:12.487Z</time></trkpt><trkpt lat="46.1748159" lon="12.2837499"><ele>398.0</ele><time>2026-04-09T12:33:13.478Z</time></trkpt><trkpt lat="46.1749417" lon="12.2837744"><ele>398.5</ele><time>2026-04-09T12:33:14.484Z</time></trkpt><trkpt lat="46.1751302" lon="12.2838059"><ele>399.0</ele><time>2026-04-09T12:33:15.483Z</time></trkpt><trkpt lat="46.1752462" lon="12.2837296"><ele>399.5</ele><time>2026-04-09T12:33:16.48Z</time></trkpt><trkpt lat="46.1753374" lon="12.2836696"><ele>400.0</ele><time>2026-04-09T12:33:17.473Z</time></trkpt><trkpt lat="46.1754532" lon="12.2835834"><ele>400.0</ele><time>2026-04-09T12:33:18.479Z</time></trkpt><trkpt lat="46.1756077" lon="12.2836464"><ele>400.0</ele><time>2026-04-09T12:33:19.479Z</time></trkpt><trkpt lat="46.1758155" lon="12.2837281"><ele>400.0</ele><time>2026-04-09T12:33:20.486Z</time></trkpt><trkpt lat="46.1759697" lon="12.2837342"><ele>399.5</ele><time>2026-04-09T12:33:21.486Z</time></trkpt><trkpt lat="46.1761135" lon="12.2837125"><ele>399.0</ele><time>2026-04-09T12:33:22.492Z</time></trkpt><trkpt lat="46.1762453" lon="12.2835696"><ele>398.5</ele><time>2026-04-09T12:33:23.479Z</time></trkpt><trkpt lat="46.1763537" lon="12.2835653"><ele>398.0</ele><time>2026-04-09T12:33:24.475Z</time></trkpt><trkpt lat="46.1764814" lon="12.2835339"><ele>396.0</ele><time>2026-04-09T12:33:25.472Z</time></trkpt><trkpt lat="46.1766225" lon="12.2835275"><ele>394.0</ele><time>2026-04-09T12:33:26.481Z</time></trkpt><trkpt lat="46.176783" lon="12.2835658"><ele>392.0</ele><time>2026-04-09T12:33:27.475Z</time></trkpt><trkpt lat="46.1771036" lon="12.2836125"><ele>392.0</ele><time>2026-04-09T12:33:29.492Z</time></trkpt><trkpt lat="46.1772555" lon="12.2836157"><ele>392.0</ele><time>2026-04-09T12:33:30.483Z</time></trkpt><trkpt lat="46.177535" lon="12.2836935"><ele>392.0</ele><time>2026-04-09T12:33:32.472Z</time></trkpt><trkpt lat="46.1776923" lon="12.2837073"><ele>394.3333333333333</ele><time>2026-04-09T12:33:33.473Z</time></trkpt><trkpt lat="46.1778729" lon="12.2837025"><ele>396.66666666666663</ele><time>2026-04-09T12:33:34.48Z</time></trkpt><trkpt lat="46.1780068" lon="12.2836977"><ele>399.0</ele><time>2026-04-09T12:33:35.474Z</time></trkpt><trkpt lat="46.1782273" lon="12.2837169"><ele>399.0</ele><time>2026-04-09T12:33:37.474Z</time></trkpt><trkpt lat="46.1783305" lon="12.2837212"><ele>399.0</ele><time>2026-04-09T12:33:38.477Z</time></trkpt><trkpt lat="46.1784586" lon="12.283721"><ele>399.0</ele><time>2026-04-09T12:33:39.473Z</time></trkpt><trkpt lat="46.1786058" lon="12.2837421"><ele>399.0</ele><time>2026-04-09T12:33:40.478Z</time></trkpt><trkpt lat="46.1787237" lon="12.2837301"><ele>399.0</ele><time>2026-04-09T12:33:41.469Z</time></trkpt><trkpt lat="46.1788542" lon="12.2837133"><ele>399.0</ele><time>2026-04-09T12:33:42.47Z</time></trkpt><trkpt lat="46.1789623" lon="12.2837193"><ele>399.0</ele><time>2026-04-09T12:33:43.493Z</time></trkpt><trkpt lat="46.1790687" lon="12.2837121"><ele>399.0</ele><time>2026-04-09T12:33:44.485Z</time></trkpt><trkpt lat="46.1791957" lon="12.28372"><ele>399.4</ele><time>2026-04-09T12:33:45.48Z</time></trkpt><trkpt lat="46.1793004" lon="12.2836908"><ele>399.79999999999995</ele><time>2026-04-09T12:33:46.482Z</time></trkpt><trkpt lat="46.179393" lon="12.2836823"><ele>400.20000000000005</ele><time>2026-04-09T12:33:47.476Z</time></trkpt><trkpt lat="46.1795021" lon="12.2836828"><ele>400.6</ele><time>2026-04-09T12:33:49.468Z</time></trkpt><trkpt lat="46.1795961" lon="12.283691"><ele>401.0</ele><time>2026-04-09T12:33:50.467Z</time></trkpt><trkpt lat="46.1796869" lon="12.2837452"><ele>401.0</ele><time>2026-04-09T12:33:51.468Z</time></trkpt><trkpt lat="46.1797557" lon="12.2837083"><ele>401.0</ele><time>2026-04-09T12:33:52.481Z</time></trkpt><trkpt lat="46.1798607" lon="12.2837383"><ele>401.0</ele><time>2026-04-09T12:33:53.489Z</time></trkpt><trkpt lat="46.1800332" lon="12.2838851"><ele>401.0</ele><time>2026-04-09T12:33:54.473Z</time></trkpt><trkpt lat="46.1801394" lon="12.2839436"><ele>400.75</ele><time>2026-04-09T12:33:55.468Z</time></trkpt><trkpt lat="46.1802548" lon="12.2839432"><ele>400.5</ele><time>2026-04-09T12:33:56.471Z</time></trkpt><trkpt lat="46.1803742" lon="12.2839672"><ele>400.25</ele><time>2026-04-09T12:33:57.495Z</time></trkpt><trkpt lat="46.1805038" lon="12.2839644"><ele>400.0</ele><time>2026-04-09T12:33:58.479Z</time></trkpt><trkpt lat="46.1806783" lon="12.2840064"><ele>400.33333333333337</ele><time>2026-04-09T12:33:59.478Z</time></trkpt><trkpt lat="46.180822" lon="12.2840304"><ele>400.66666666666663</ele><time>2026-04-09T12:34:00.487Z</time></trkpt><trkpt lat="46.1809492" lon="12.2840744"><ele>401.0</ele><time>2026-04-09T12:34:01.484Z</time></trkpt><trkpt lat="46.1811212" lon="12.2841533"><ele>401.0</ele><time>2026-04-09T12:34:02.487Z</time></trkpt><trkpt lat="46.1812919" lon="12.2842031"><ele>401.0</ele><time>2026-04-09T12:34:03.468Z</time></trkpt><trkpt lat="46.1814514" lon="12.2842368"><ele>401.0</ele><time>2026-04-09T12:34:04.489Z</time></trkpt><trkpt lat="46.1832427" lon="12.2850061"><ele>402.5</ele><time>2026-04-09T12:34:14.476Z</time></trkpt><trkpt lat="46.1835875" lon="12.2849322"><ele>404.0</ele><time>2026-04-09T12:34:16.49Z</time></trkpt><trkpt lat="46.1837292" lon="12.2850085"><ele>404.0</ele><time>2026-04-09T12:34:17.473Z</time></trkpt><trkpt lat="46.1838495" lon="12.2850538"><ele>404.0</ele><time>2026-04-09T12:34:18.474Z</time></trkpt><trkpt lat="46.1840242" lon="12.2851066"><ele>404.0</ele><time>2026-04-09T12:34:19.474Z</time></trkpt><trkpt lat="46.1841753" lon="12.2851462"><ele>403.3333333333333</ele><time>2026-04-09T12:34:20.481Z</time></trkpt><trkpt lat="46.1843769" lon="12.2851491"><ele>402.66666666666663</ele><time>2026-04-09T12:34:22.479Z</time></trkpt><trkpt lat="46.1845175" lon="12.285192"><ele>402.0</ele><time>2026-04-09T12:34:23.483Z</time></trkpt><trkpt lat="46.1846914" lon="12.2852467"><ele>402.0</ele><time>2026-04-09T12:34:24.479Z</time></trkpt><trkpt lat="46.1848483" lon="12.2852941"><ele>402.0</ele><time>2026-04-09T12:34:25.482Z</time></trkpt><trkpt lat="46.1850222" lon="12.2853374"><ele>402.0</ele><time>2026-04-09T12:34:26.488Z</time></trkpt><trkpt lat="46.1852606" lon="12.2854243"><ele>402.0</ele><time>2026-04-09T12:34:27.475Z</time></trkpt><trkpt lat="46.1854442" lon="12.2854957"><ele>402.0</ele><time>2026-04-09T12:34:28.483Z</time></trkpt><trkpt lat="46.1855893" lon="12.2855436"><ele>402.0</ele><time>2026-04-09T12:34:29.49Z</time></trkpt><trkpt lat="46.185733" lon="12.2855843"><ele>402.33333333333337</ele><time>2026-04-09T12:34:30.475Z</time></trkpt><trkpt lat="46.1859346" lon="12.2856261"><ele>402.6666666666667</ele><time>2026-04-09T12:34:31.474Z</time></trkpt><trkpt lat="46.1861079" lon="12.2856778"><ele>403.0</ele><time>2026-04-09T12:34:32.477Z</time></trkpt><trkpt lat="46.1862337" lon="12.2857101"><ele>403.0</ele><time>2026-04-09T12:34:33.481Z</time></trkpt><trkpt lat="46.186439" lon="12.2857473"><ele>403.0</ele><time>2026-04-09T12:34:34.479Z</time></trkpt><trkpt lat="46.1867471" lon="12.2857465"><ele>403.33333333333337</ele><time>2026-04-09T12:34:37.478Z</time></trkpt><trkpt lat="46.1869028" lon="12.2857914"><ele>403.66666666666663</ele><time>2026-04-09T12:34:38.488Z</time></trkpt><trkpt lat="46.1870855" lon="12.2857957"><ele>404.0</ele><time>2026-04-09T12:34:39.474Z</time></trkpt><trkpt lat="46.1873518" lon="12.2857974"><ele>404.3333333333333</ele><time>2026-04-09T12:34:41.485Z</time></trkpt><trkpt lat="46.1875007" lon="12.2858302"><ele>404.66666666666663</ele><time>2026-04-09T12:34:42.475Z</time></trkpt><trkpt lat="46.187626" lon="12.2858342"><ele>405.0</ele><time>2026-04-09T12:34:43.471Z</time></trkpt><trkpt lat="46.1878877" lon="12.2859531"><ele>405.0</ele><time>2026-04-09T12:34:44.477Z</time></trkpt><trkpt lat="46.1880903" lon="12.2860815"><ele>405.0</ele><time>2026-04-09T12:34:45.474Z</time></trkpt><trkpt lat="46.188327" lon="12.2861745"><ele>405.0</ele><time>2026-04-09T12:34:46.471Z</time></trkpt><trkpt lat="46.1886172" lon="12.2862492"><ele>405.0</ele><time>2026-04-09T12:34:47.479Z</time></trkpt><trkpt lat="46.1888326" lon="12.2862881"><ele>406.0</ele><time>2026-04-09T12:34:48.477Z</time></trkpt><trkpt lat="46.1890386" lon="12.2863244"><ele>407.0</ele><time>2026-04-09T12:34:49.479Z</time></trkpt><trkpt lat="46.1892623" lon="12.2863778"><ele>408.0</ele><time>2026-04-09T12:34:50.474Z</time></trkpt><trkpt lat="46.1894131" lon="12.2863811"><ele>408.0</ele><time>2026-04-09T12:34:51.473Z</time></trkpt><trkpt lat="46.1895951" lon="12.2864197"><ele>408.0</ele><time>2026-04-09T12:34:52.469Z</time></trkpt><trkpt lat="46.1897902" lon="12.2864572"><ele>408.0</ele><time>2026-04-09T12:34:53.473Z</time></trkpt><trkpt lat="46.1899656" lon="12.2864685"><ele>407.5</ele><time>2026-04-09T12:34:54.47Z</time></trkpt><trkpt lat="46.1901535" lon="12.2865873"><ele>407.0</ele><time>2026-04-09T12:34:55.48Z</time></trkpt><trkpt lat="46.1905119" lon="12.2866469"><ele>407.0</ele><time>2026-04-09T12:34:57.477Z</time></trkpt><trkpt lat="46.1906587" lon="12.2866721"><ele>407.0</ele><time>2026-04-09T12:34:58.477Z</time></trkpt><trkpt lat="46.1908705" lon="12.2867015"><ele>407.0</ele><time>2026-04-09T12:35:00.479Z</time></trkpt><trkpt lat="46.1910221" lon="12.2867185"><ele>407.25</ele><time>2026-04-09T12:35:01.48Z</time></trkpt><trkpt lat="46.1911785" lon="12.2867195"><ele>407.5</ele><time>2026-04-09T12:35:02.482Z</time></trkpt><trkpt lat="46.1912876" lon="12.2867264"><ele>407.75</ele><time>2026-04-09T12:35:03.474Z</time></trkpt><trkpt lat="46.1914557" lon="12.2867604"><ele>408.0</ele><time>2026-04-09T12:35:04.478Z</time></trkpt><trkpt lat="46.1915819" lon="12.2867464"><ele>408.33333333333337</ele><time>2026-04-09T12:35:05.492Z</time></trkpt><trkpt lat="46.1917292" lon="12.2867633"><ele>408.6666666666667</ele><time>2026-04-09T12:35:06.484Z</time></trkpt><trkpt lat="46.1918981" lon="12.2867562"><ele>409.0</ele><time>2026-04-09T12:35:07.482Z</time></trkpt><trkpt lat="46.192052" lon="12.2867433"><ele>409.0</ele><time>2026-04-09T12:35:08.477Z</time></trkpt><trkpt lat="46.1922189" lon="12.2867572"><ele>409.0</ele><time>2026-04-09T12:35:09.475Z</time></trkpt><trkpt lat="46.1923627" lon="12.2867577"><ele>409.0</ele><time>2026-04-09T12:35:10.485Z</time></trkpt><trkpt lat="46.1925414" lon="12.2867613"><ele>409.5</ele><time>2026-04-09T12:35:11.475Z</time></trkpt><trkpt lat="46.1928363" lon="12.2867612"><ele>410.0</ele><time>2026-04-09T12:35:13.472Z</time></trkpt><trkpt lat="46.1931273" lon="12.2867717"><ele>410.75</ele><time>2026-04-09T12:35:15.476Z</time></trkpt><trkpt lat="46.1932714" lon="12.2867603"><ele>411.5</ele><time>2026-04-09T12:35:16.474Z</time></trkpt><trkpt lat="46.1934306" lon="12.2868029"><ele>412.25</ele><time>2026-04-09T12:35:17.475Z</time></trkpt><trkpt lat="46.1935606" lon="12.2868363"><ele>413.0</ele><time>2026-04-09T12:35:18.474Z</time></trkpt><trkpt lat="46.193688" lon="12.2868524"><ele>413.0</ele><time>2026-04-09T12:35:19.476Z</time></trkpt><trkpt lat="46.1938035" lon="12.2868766"><ele>413.0</ele><time>2026-04-09T12:35:20.478Z</time></trkpt><trkpt lat="46.1939024" lon="12.2868753"><ele>413.0</ele><time>2026-04-09T12:35:21.487Z</time></trkpt><trkpt lat="46.1939872" lon="12.286889"><ele>413.0</ele><time>2026-04-09T12:35:22.478Z</time></trkpt><trkpt lat="46.1940565" lon="12.2868963"><ele>413.0</ele><time>2026-04-09T12:35:23.477Z</time></trkpt><trkpt lat="46.1941502" lon="12.2869002"><ele>412.25</ele><time>2026-04-09T12:35:24.478Z</time></trkpt><trkpt lat="46.1942557" lon="12.2868953"><ele>411.5</ele><time>2026-04-09T12:35:25.476Z</time></trkpt><trkpt lat="46.1944495" lon="12.2868877"><ele>410.75</ele><time>2026-04-09T12:35:26.47Z</time></trkpt><trkpt lat="46.1945865" lon="12.2869257"><ele>410.0</ele><time>2026-04-09T12:35:27.485Z</time></trkpt><trkpt lat="46.1947207" lon="12.2869291"><ele>411.0</ele><time>2026-04-09T12:35:28.478Z</time></trkpt><trkpt lat="46.1948664" lon="12.286934"><ele>412.0</ele><time>2026-04-09T12:35:29.474Z</time></trkpt><trkpt lat="46.1950183" lon="12.2869365"><ele>413.0</ele><time>2026-04-09T12:35:30.475Z</time></trkpt><trkpt lat="46.1951782" lon="12.2869266"><ele>413.0</ele><time>2026-04-09T12:35:31.483Z</time></trkpt><trkpt lat="46.1953239" lon="12.2869335"><ele>413.0</ele><time>2026-04-09T12:35:32.485Z</time></trkpt><trkpt lat="46.1954881" lon="12.2869554"><ele>413.0</ele><time>2026-04-09T12:35:33.478Z</time></trkpt><trkpt lat="46.1956493" lon="12.2869563"><ele>413.0</ele><time>2026-04-09T12:35:34.475Z</time></trkpt><trkpt lat="46.1957951" lon="12.2869742"><ele>413.0</ele><time>2026-04-09T12:35:35.477Z</time></trkpt><trkpt lat="46.1959298" lon="12.2869907"><ele>413.0</ele><time>2026-04-09T12:35:36.477Z</time></trkpt><trkpt lat="46.1960508" lon="12.286983"><ele>413.0</ele><time>2026-04-09T12:35:37.48Z</time></trkpt><trkpt lat="46.1961746" lon="12.2869964"><ele>413.0</ele><time>2026-04-09T12:35:38.479Z</time></trkpt><trkpt lat="46.1962772" lon="12.286956"><ele>413.0</ele><time>2026-04-09T12:35:39.466Z</time></trkpt><trkpt lat="46.1964591" lon="12.2869732"><ele>413.0</ele><time>2026-04-09T12:35:41.467Z</time></trkpt><trkpt lat="46.1965877" lon="12.2869939"><ele>413.0</ele><time>2026-04-09T12:35:43.478Z</time></trkpt><trkpt lat="46.1966547" lon="12.2869994"><ele>412.3333333333333</ele><time>2026-04-09T12:35:44.471Z</time></trkpt><trkpt lat="46.196726" lon="12.2870083"><ele>411.66666666666663</ele><time>2026-04-09T12:35:45.48Z</time></trkpt><trkpt lat="46.1967892" lon="12.287012"><ele>411.0</ele><time>2026-04-09T12:35:46.483Z</time></trkpt><trkpt lat="46.1969286" lon="12.2870239"><ele>410.33333333333337</ele><time>2026-04-09T12:35:48.489Z</time></trkpt><trkpt lat="46.1970032" lon="12.2870553"><ele>409.6666666666667</ele><time>2026-04-09T12:35:49.478Z</time></trkpt><trkpt lat="46.1970745" lon="12.2870662"><ele>409.0</ele><time>2026-04-09T12:35:50.473Z</time></trkpt><trkpt lat="46.1971408" lon="12.2870378"><ele>409.0</ele><time>2026-04-09T12:35:51.476Z</time></trkpt><trkpt lat="46.1972244" lon="12.287026"><ele>409.0</ele><time>2026-04-09T12:35:52.487Z</time></trkpt><trkpt lat="46.1972804" lon="12.2869694"><ele>409.0</ele><time>2026-04-09T12:35:53.489Z</time></trkpt><trkpt lat="46.1973187" lon="12.2881719"><ele>403.6666666666667</ele><time>2026-04-09T12:36:27.472Z</time></trkpt><trkpt lat="46.1973328" lon="12.2883017"><ele>398.33333333333337</ele><time>2026-04-09T12:36:28.464Z</time></trkpt><trkpt lat="46.1973472" lon="12.2884284"><ele>393.0</ele><time>2026-04-09T12:36:29.487Z</time></trkpt><trkpt lat="46.1962975" lon="12.2943399"><ele>391.0</ele><time>2026-04-09T12:37:01.671Z</time></trkpt><trkpt lat="46.2001722" lon="12.2952113"><ele>391.00000000000006</ele><time>2026-04-09T12:37:50.492Z</time></trkpt><trkpt lat="46.2001435" lon="12.2953198"><ele>391.0</ele><time>2026-04-09T12:37:51.465Z</time></trkpt><trkpt lat="46.2001667" lon="12.2954057"><ele>391.0</ele><time>2026-04-09T12:37:52.496Z</time></trkpt><trkpt lat="46.2001919" lon="12.2954892"><ele>391.0</ele><time>2026-04-09T12:37:53.483Z</time></trkpt><trkpt lat="46.2002317" lon="12.2956038"><ele>391.00000000000006</ele><time>2026-04-09T12:37:54.483Z</time></trkpt><trkpt lat="46.2002447" lon="12.295727"><ele>391.0</ele><time>2026-04-09T12:37:55.471Z</time></trkpt><trkpt lat="46.2002539" lon="12.2959182"><ele>391.25</ele><time>2026-04-09T12:37:57.468Z</time></trkpt><trkpt lat="46.2002539" lon="12.2960691"><ele>391.5</ele><time>2026-04-09T12:37:58.484Z</time></trkpt><trkpt lat="46.2002663" lon="12.2962181"><ele>391.75</ele><time>2026-04-09T12:37:59.479Z</time></trkpt><trkpt lat="46.2002839" lon="12.2964248"><ele>392.0</ele><time>2026-04-09T12:38:00.477Z</time></trkpt><trkpt lat="46.2002829" lon="12.2965798"><ele>391.0</ele><time>2026-04-09T12:38:01.488Z</time></trkpt><trkpt lat="46.20034" lon="12.2971202"><ele>390.0</ele><time>2026-04-09T12:38:02.478Z</time></trkpt><trkpt lat="46.2003548" lon="12.2973827"><ele>388.0</ele><time>2026-04-09T12:38:03.483Z</time></trkpt><trkpt lat="46.2004103" lon="12.2981279"><ele>388.0</ele><time>2026-04-09T12:38:04.472Z</time></trkpt><trkpt lat="46.2003901" lon="12.2984502"><ele>388.0</ele><time>2026-04-09T12:38:05.486Z</time></trkpt><trkpt lat="46.200263" lon="12.2987255"><ele>387.6666666666667</ele><time>2026-04-09T12:38:06.483Z</time></trkpt><trkpt lat="46.2002583" lon="12.2990535"><ele>387.33333333333337</ele><time>2026-04-09T12:38:07.487Z</time></trkpt><trkpt lat="46.2002493" lon="12.2993745"><ele>387.0</ele><time>2026-04-09T12:38:08.473Z</time></trkpt><trkpt lat="46.2002702" lon="12.2997066"><ele>386.33333333333337</ele><time>2026-04-09T12:38:09.477Z</time></trkpt><trkpt lat="46.2002714" lon="12.2999522"><ele>385.6666666666667</ele><time>2026-04-09T12:38:10.471Z</time></trkpt><trkpt lat="46.2002809" lon="12.3001937"><ele>385.0</ele><time>2026-04-09T12:38:11.477Z</time></trkpt><trkpt lat="46.2002778" lon="12.3003969"><ele>386.33333333333337</ele><time>2026-04-09T12:38:12.476Z</time></trkpt><trkpt lat="46.2002841" lon="12.3006937"><ele>387.66666666666663</ele><time>2026-04-09T12:38:13.475Z</time></trkpt><trkpt lat="46.2002736" lon="12.3008875"><ele>389.0</ele><time>2026-04-09T12:38:14.473Z</time></trkpt><trkpt lat="46.200293" lon="12.301067"><ele>389.0</ele><time>2026-04-09T12:38:15.482Z</time></trkpt><trkpt lat="46.2003341" lon="12.3012832"><ele>389.0</ele><time>2026-04-09T12:38:16.494Z</time></trkpt><trkpt lat="46.2003863" lon="12.3015152"><ele>389.0</ele><time>2026-04-09T12:38:17.47Z</time></trkpt><trkpt lat="46.2004319" lon="12.3017425"><ele>390.5</ele><time>2026-04-09T12:38:18.472Z</time></trkpt><trkpt lat="46.2005128" lon="12.3019389"><ele>392.0</ele><time>2026-04-09T12:38:19.473Z</time></trkpt><trkpt lat="46.2006125" lon="12.3019955"><ele>393.5</ele><time>2026-04-09T12:38:20.481Z</time></trkpt><trkpt lat="46.2007335" lon="12.3020858"><ele>395.0</ele><time>2026-04-09T12:38:22.487Z</time></trkpt><trkpt lat="46.2008542" lon="12.3021334"><ele>395.25</ele><time>2026-04-09T12:38:24.471Z</time></trkpt><trkpt lat="46.2009433" lon="12.3021099"><ele>395.5</ele><time>2026-04-09T12:38:25.473Z</time></trkpt><trkpt lat="46.2010807" lon="12.3020984"><ele>395.75</ele><time>2026-04-09T12:38:26.486Z</time></trkpt><trkpt lat="46.201227" lon="12.3020541"><ele>396.0</ele><time>2026-04-09T12:38:27.48Z</time></trkpt><trkpt lat="46.2014065" lon="12.3020133"><ele>396.0</ele><time>2026-04-09T12:38:28.472Z</time></trkpt><trkpt lat="46.201526" lon="12.3019941"><ele>396.0</ele><time>2026-04-09T12:38:29.465Z</time></trkpt><trkpt lat="46.2016022" lon="12.3019222"><ele>396.0</ele><time>2026-04-09T12:38:31.465Z</time></trkpt><trkpt lat="46.2016807" lon="12.3019108"><ele>396.0</ele><time>2026-04-09T12:38:32.474Z</time></trkpt><trkpt lat="46.2017852" lon="12.3018988"><ele>396.0</ele><time>2026-04-09T12:38:33.483Z</time></trkpt><trkpt lat="46.2018573" lon="12.3018827"><ele>396.0</ele><time>2026-04-09T12:38:34.481Z</time></trkpt><trkpt lat="46.2019304" lon="12.3018764"><ele>396.0</ele><time>2026-04-09T12:38:35.502Z</time></trkpt><trkpt lat="46.2022638" lon="12.301865"><ele>396.0</ele><time>2026-04-09T12:38:38.473Z</time></trkpt><trkpt lat="46.2026834" lon="12.3018665"><ele>398.5</ele><time>2026-04-09T12:38:41.472Z</time></trkpt><trkpt lat="46.2029529" lon="12.3019148"><ele>401.0</ele><time>2026-04-09T12:38:42.473Z</time></trkpt><trkpt lat="46.2032097" lon="12.3018483"><ele>401.66666666666663</ele><time>2026-04-09T12:38:43.474Z</time></trkpt><trkpt lat="46.2034472" lon="12.3018289"><ele>402.33333333333337</ele><time>2026-04-09T12:38:44.478Z</time></trkpt><trkpt lat="46.2036124" lon="12.3018169"><ele>403.0</ele><time>2026-04-09T12:38:45.474Z</time></trkpt><trkpt lat="46.2039453" lon="12.3018551"><ele>405.33333333333337</ele><time>2026-04-09T12:38:47.479Z</time></trkpt><trkpt lat="46.2041042" lon="12.3018442"><ele>407.66666666666663</ele><time>2026-04-09T12:38:48.474Z</time></trkpt><trkpt lat="46.2042711" lon="12.3018925"><ele>410.0</ele><time>2026-04-09T12:38:49.491Z</time></trkpt><trkpt lat="46.2043978" lon="12.3018944"><ele>410.0</ele><time>2026-04-09T12:38:50.47Z</time></trkpt><trkpt lat="46.2045348" lon="12.3018885"><ele>410.0</ele><time>2026-04-09T12:38:51.481Z</time></trkpt><trkpt lat="46.2046589" lon="12.3018616"><ele>410.0</ele><time>2026-04-09T12:38:52.478Z</time></trkpt><trkpt lat="46.2048022" lon="12.3019238"><ele>410.0</ele><time>2026-04-09T12:38:53.483Z</time></trkpt><trkpt lat="46.2048944" lon="12.3019161"><ele>411.0</ele><time>2026-04-09T12:38:54.479Z</time></trkpt><trkpt lat="46.2049801" lon="12.3018719"><ele>412.0</ele><time>2026-04-09T12:38:55.48Z</time></trkpt><trkpt lat="46.2050793" lon="12.3018892"><ele>413.0</ele><time>2026-04-09T12:38:56.478Z</time></trkpt><trkpt lat="46.2051504" lon="12.3018939"><ele>414.0</ele><time>2026-04-09T12:38:57.47Z</time></trkpt><trkpt lat="46.2052201" lon="12.3019274"><ele>415.0</ele><time>2026-04-09T12:38:58.483Z</time></trkpt><trkpt lat="46.2053349" lon="12.3019489"><ele>415.0</ele><time>2026-04-09T12:39:00.471Z</time></trkpt><trkpt lat="46.2054028" lon="12.3019255"><ele>415.0</ele><time>2026-04-09T12:39:01.474Z</time></trkpt><trkpt lat="46.2054881" lon="12.301868"><ele>415.0</ele><time>2026-04-09T12:39:02.48Z</time></trkpt><trkpt lat="46.2055755" lon="12.3018291"><ele>415.0</ele><time>2026-04-09T12:39:03.481Z</time></trkpt><trkpt lat="46.2056671" lon="12.3018166"><ele>415.0</ele><time>2026-04-09T12:39:04.475Z</time></trkpt><trkpt lat="46.2057915" lon="12.3018379"><ele>414.75</ele><time>2026-04-09T12:39:05.466Z</time></trkpt><trkpt lat="46.2059131" lon="12.3018612"><ele>414.5</ele><time>2026-04-09T12:39:06.481Z</time></trkpt><trkpt lat="46.2060561" lon="12.3018632"><ele>414.25</ele><time>2026-04-09T12:39:07.474Z</time></trkpt><trkpt lat="46.2062094" lon="12.3018829"><ele>414.0</ele><time>2026-04-09T12:39:08.484Z</time></trkpt><trkpt lat="46.2063751" lon="12.3018886"><ele>414.66666666666663</ele><time>2026-04-09T12:39:09.471Z</time></trkpt><trkpt lat="46.2065572" lon="12.3019132"><ele>415.3333333333333</ele><time>2026-04-09T12:39:10.474Z</time></trkpt><trkpt lat="46.2067413" lon="12.3019421"><ele>416.0</ele><time>2026-04-09T12:39:11.47Z</time></trkpt><trkpt lat="46.2069319" lon="12.3019653"><ele>416.0</ele><time>2026-04-09T12:39:12.473Z</time></trkpt><trkpt lat="46.2071108" lon="12.3020006"><ele>416.0</ele><time>2026-04-09T12:39:13.474Z</time></trkpt><trkpt lat="46.2072732" lon="12.3020243"><ele>416.0</ele><time>2026-04-09T12:39:14.473Z</time></trkpt><trkpt lat="46.2074334" lon="12.3020475"><ele>417.0</ele><time>2026-04-09T12:39:15.474Z</time></trkpt><trkpt lat="46.207572" lon="12.3020778"><ele>418.0</ele><time>2026-04-09T12:39:16.48Z</time></trkpt><trkpt lat="46.2076979" lon="12.3021183"><ele>419.0</ele><time>2026-04-09T12:39:17.479Z</time></trkpt><trkpt lat="46.2078206" lon="12.3021615"><ele>420.0</ele><time>2026-04-09T12:39:18.473Z</time></trkpt><trkpt lat="46.207903" lon="12.3022129"><ele>420.0</ele><time>2026-04-09T12:39:19.477Z</time></trkpt><trkpt lat="46.2079623" lon="12.3022856"><ele>420.0</ele><time>2026-04-09T12:39:20.481Z</time></trkpt><trkpt lat="46.2080264" lon="12.3023191"><ele>420.0</ele><time>2026-04-09T12:39:21.474Z</time></trkpt><trkpt lat="46.2081003" lon="12.3023079"><ele>420.0</ele><time>2026-04-09T12:39:22.485Z</time></trkpt><trkpt lat="46.208188" lon="12.3022915"><ele>420.0</ele><time>2026-04-09T12:39:23.471Z</time></trkpt><trkpt lat="46.2082875" lon="12.3021921"><ele>420.0</ele><time>2026-04-09T12:39:24.48Z</time></trkpt><trkpt lat="46.2084372" lon="12.3020966"><ele>419.5</ele><time>2026-04-09T12:39:25.474Z</time></trkpt><trkpt lat="46.2085884" lon="12.3019942"><ele>419.0</ele><time>2026-04-09T12:39:26.47Z</time></trkpt><trkpt lat="46.2087292" lon="12.3019289"><ele>418.5</ele><time>2026-04-09T12:39:27.477Z</time></trkpt><trkpt lat="46.2088563" lon="12.3018725"><ele>418.0</ele><time>2026-04-09T12:39:28.473Z</time></trkpt><trkpt lat="46.2089861" lon="12.301841"><ele>419.25</ele><time>2026-04-09T12:39:29.476Z</time></trkpt><trkpt lat="46.2090926" lon="12.3018185"><ele>420.5</ele><time>2026-04-09T12:39:30.468Z</time></trkpt><trkpt lat="46.2092137" lon="12.3017681"><ele>421.75</ele><time>2026-04-09T12:39:31.471Z</time></trkpt><trkpt lat="46.2093372" lon="12.3016655"><ele>423.0</ele><time>2026-04-09T12:39:32.476Z</time></trkpt><trkpt lat="46.209471" lon="12.3016345"><ele>423.0</ele><time>2026-04-09T12:39:33.475Z</time></trkpt><trkpt lat="46.2096457" lon="12.3015398"><ele>423.0</ele><time>2026-04-09T12:39:34.481Z</time></trkpt><trkpt lat="46.2098156" lon="12.3014791"><ele>423.0</ele><time>2026-04-09T12:39:35.485Z</time></trkpt><trkpt lat="46.209988" lon="12.3013991"><ele>420.66666666666663</ele><time>2026-04-09T12:39:36.466Z</time></trkpt><trkpt lat="46.2101721" lon="12.3013138"><ele>418.3333333333333</ele><time>2026-04-09T12:39:37.481Z</time></trkpt><trkpt lat="46.2103423" lon="12.3012368"><ele>416.0</ele><time>2026-04-09T12:39:38.47Z</time></trkpt><trkpt lat="46.2105375" lon="12.3011709"><ele>419.3333333333333</ele><time>2026-04-09T12:39:39.476Z</time></trkpt><trkpt lat="46.210719" lon="12.3011457"><ele>422.66666666666663</ele><time>2026-04-09T12:39:40.481Z</time></trkpt><trkpt lat="46.2108715" lon="12.3010431"><ele>426.0</ele><time>2026-04-09T12:39:41.484Z</time></trkpt><trkpt lat="46.2110329" lon="12.3009748"><ele>426.0</ele><time>2026-04-09T12:39:42.473Z</time></trkpt><trkpt lat="46.2111971" lon="12.3009185"><ele>426.0</ele><time>2026-04-09T12:39:43.484Z</time></trkpt><trkpt lat="46.2113312" lon="12.3008768"><ele>426.0</ele><time>2026-04-09T12:39:44.471Z</time></trkpt><trkpt lat="46.2114666" lon="12.3007881"><ele>429.33333333333337</ele><time>2026-04-09T12:39:45.478Z</time></trkpt><trkpt lat="46.2116083" lon="12.300729"><ele>432.6666666666667</ele><time>2026-04-09T12:39:46.475Z</time></trkpt><trkpt lat="46.2117653" lon="12.3006631"><ele>436.0</ele><time>2026-04-09T12:39:47.471Z</time></trkpt><trkpt lat="46.2119212" lon="12.300623"><ele>436.0</ele><time>2026-04-09T12:39:48.473Z</time></trkpt><trkpt lat="46.2120731" lon="12.3005999"><ele>436.0</ele><time>2026-04-09T12:39:49.47Z</time></trkpt><trkpt lat="46.2121993" lon="12.3005997"><ele>436.0</ele><time>2026-04-09T12:39:50.472Z</time></trkpt><trkpt lat="46.2123332" lon="12.3006045"><ele>436.0</ele><time>2026-04-09T12:39:51.475Z</time></trkpt><trkpt lat="46.2124381" lon="12.3006392"><ele>437.6666666666667</ele><time>2026-04-09T12:39:52.492Z</time></trkpt><trkpt lat="46.2125267" lon="12.3006377"><ele>439.33333333333337</ele><time>2026-04-09T12:39:53.472Z</time></trkpt><trkpt lat="46.2126168" lon="12.3006423"><ele>441.0</ele><time>2026-04-09T12:39:54.468Z</time></trkpt><trkpt lat="46.212687" lon="12.3006386"><ele>442.66666666666663</ele><time>2026-04-09T12:39:55.471Z</time></trkpt><trkpt lat="46.2127725" lon="12.3006387"><ele>444.3333333333333</ele><time>2026-04-09T12:39:56.475Z</time></trkpt><trkpt lat="46.2128419" lon="12.3006585"><ele>446.0</ele><time>2026-04-09T12:39:57.472Z</time></trkpt><trkpt lat="46.2129228" lon="12.3006091"><ele>443.6</ele><time>2026-04-09T12:39:58.472Z</time></trkpt><trkpt lat="46.2130201" lon="12.3005411"><ele>441.20000000000005</ele><time>2026-04-09T12:39:59.475Z</time></trkpt><trkpt lat="46.2131276" lon="12.3004755"><ele>438.79999999999995</ele><time>2026-04-09T12:40:00.475Z</time></trkpt><trkpt lat="46.2132323" lon="12.300407"><ele>436.4</ele><time>2026-04-09T12:40:01.473Z</time></trkpt><trkpt lat="46.2133021" lon="12.3003165"><ele>434.0</ele><time>2026-04-09T12:40:02.473Z</time></trkpt><trkpt lat="46.2133684" lon="12.3002349"><ele>433.99999999999994</ele><time>2026-04-09T12:40:03.473Z</time></trkpt><trkpt lat="46.2134257" lon="12.3001712"><ele>434.0</ele><time>2026-04-09T12:40:04.504Z</time></trkpt><trkpt lat="46.2134994" lon="12.300119"><ele>434.0</ele><time>2026-04-09T12:40:05.476Z</time></trkpt><trkpt lat="46.2135787" lon="12.3000748"><ele>434.0</ele><time>2026-04-09T12:40:06.475Z</time></trkpt><trkpt lat="46.2136561" lon="12.3000526"><ele>433.99999999999994</ele><time>2026-04-09T12:40:07.482Z</time></trkpt><trkpt lat="46.2137532" lon="12.3000561"><ele>434.0</ele><time>2026-04-09T12:40:08.477Z</time></trkpt><trkpt lat="46.21383" lon="12.3000515"><ele>434.0</ele><time>2026-04-09T12:40:09.476Z</time></trkpt><trkpt lat="46.2139035" lon="12.3000535"><ele>434.0</ele><time>2026-04-09T12:40:10.478Z</time></trkpt><trkpt lat="46.2139846" lon="12.3000603"><ele>434.0</ele><time>2026-04-09T12:40:11.48Z</time></trkpt><trkpt lat="46.2140612" lon="12.3000728"><ele>434.0</ele><time>2026-04-09T12:40:12.472Z</time></trkpt><trkpt lat="46.2141401" lon="12.3000857"><ele>434.0</ele><time>2026-04-09T12:40:13.483Z</time></trkpt><trkpt lat="46.2142833" lon="12.3000855"><ele>433.8333333333333</ele><time>2026-04-09T12:40:15.466Z</time></trkpt><trkpt lat="46.2143712" lon="12.3000995"><ele>433.66666666666663</ele><time>2026-04-09T12:40:16.482Z</time></trkpt><trkpt lat="46.2144667" lon="12.3000836"><ele>433.5</ele><time>2026-04-09T12:40:17.47Z</time></trkpt><trkpt lat="46.2145508" lon="12.3000743"><ele>433.33333333333337</ele><time>2026-04-09T12:40:18.471Z</time></trkpt><trkpt lat="46.2146127" lon="12.3000474"><ele>433.1666666666667</ele><time>2026-04-09T12:40:19.47Z</time></trkpt><trkpt lat="46.2147179" lon="12.3000346"><ele>433.0</ele><time>2026-04-09T12:40:20.474Z</time></trkpt><trkpt lat="46.2147995" lon="12.3000189"><ele>431.6666666666667</ele><time>2026-04-09T12:40:21.477Z</time></trkpt><trkpt lat="46.2149391" lon="12.3000095"><ele>430.33333333333337</ele><time>2026-04-09T12:40:22.477Z</time></trkpt><trkpt lat="46.2150853" lon="12.3000596"><ele>429.0</ele><time>2026-04-09T12:40:23.474Z</time></trkpt><trkpt lat="46.215256" lon="12.3000366"><ele>429.0</ele><time>2026-04-09T12:40:24.479Z</time></trkpt><trkpt lat="46.2153906" lon="12.3000275"><ele>429.0</ele><time>2026-04-09T12:40:25.469Z</time></trkpt><trkpt lat="46.2155258" lon="12.3000176"><ele>429.0</ele><time>2026-04-09T12:40:26.477Z</time></trkpt><trkpt lat="46.2156963" lon="12.3000553"><ele>429.0</ele><time>2026-04-09T12:40:27.473Z</time></trkpt><trkpt lat="46.2158501" lon="12.300048"><ele>427.75</ele><time>2026-04-09T12:40:28.481Z</time></trkpt><trkpt lat="46.2159839" lon="12.300048"><ele>426.5</ele><time>2026-04-09T12:40:29.473Z</time></trkpt><trkpt lat="46.216136" lon="12.3000358"><ele>425.25</ele><time>2026-04-09T12:40:30.471Z</time></trkpt><trkpt lat="46.2162676" lon="12.3000299"><ele>424.0</ele><time>2026-04-09T12:40:31.477Z</time></trkpt><trkpt lat="46.2164136" lon="12.3000154"><ele>422.0</ele><time>2026-04-09T12:40:32.481Z</time></trkpt><trkpt lat="46.2165741" lon="12.3000513"><ele>420.0</ele><time>2026-04-09T12:40:33.474Z</time></trkpt><trkpt lat="46.2167338" lon="12.3001653"><ele>418.0</ele><time>2026-04-09T12:40:34.47Z</time></trkpt><trkpt lat="46.2168879" lon="12.3002755"><ele>418.0</ele><time>2026-04-09T12:40:35.475Z</time></trkpt><trkpt lat="46.2170597" lon="12.3004026"><ele>418.0</ele><time>2026-04-09T12:40:36.486Z</time></trkpt><trkpt lat="46.217218" lon="12.3004762"><ele>418.0</ele><time>2026-04-09T12:40:37.485Z</time></trkpt><trkpt lat="46.2174226" lon="12.3005355"><ele>417.33333333333337</ele><time>2026-04-09T12:40:38.472Z</time></trkpt><trkpt lat="46.2176011" lon="12.3005934"><ele>416.66666666666663</ele><time>2026-04-09T12:40:39.488Z</time></trkpt><trkpt lat="46.2177774" lon="12.3006479"><ele>416.0</ele><time>2026-04-09T12:40:40.475Z</time></trkpt><trkpt lat="46.2179642" lon="12.3006801"><ele>416.0</ele><time>2026-04-09T12:40:41.471Z</time></trkpt><trkpt lat="46.2181274" lon="12.3007432"><ele>416.0</ele><time>2026-04-09T12:40:42.472Z</time></trkpt><trkpt lat="46.218313" lon="12.3007744"><ele>416.0</ele><time>2026-04-09T12:40:43.479Z</time></trkpt><trkpt lat="46.2185002" lon="12.3008126"><ele>415.66666666666663</ele><time>2026-04-09T12:40:44.475Z</time></trkpt><trkpt lat="46.2186778" lon="12.3008734"><ele>415.33333333333337</ele><time>2026-04-09T12:40:45.472Z</time></trkpt><trkpt lat="46.2188709" lon="12.3009213"><ele>415.0</ele><time>2026-04-09T12:40:46.47Z</time></trkpt><trkpt lat="46.2190686" lon="12.3009476"><ele>415.0</ele><time>2026-04-09T12:40:47.478Z</time></trkpt><trkpt lat="46.2192789" lon="12.3009526"><ele>415.0</ele><time>2026-04-09T12:40:48.479Z</time></trkpt><trkpt lat="46.2194879" lon="12.3009668"><ele>415.0</ele><time>2026-04-09T12:40:49.473Z</time></trkpt><trkpt lat="46.2197085" lon="12.300967"><ele>414.0</ele><time>2026-04-09T12:40:50.473Z</time></trkpt><trkpt lat="46.2199243" lon="12.3009498"><ele>413.0</ele><time>2026-04-09T12:40:51.48Z</time></trkpt><trkpt lat="46.2201152" lon="12.3009461"><ele>412.0</ele><time>2026-04-09T12:40:52.48Z</time></trkpt><trkpt lat="46.220281" lon="12.3009472"><ele>412.0</ele><time>2026-04-09T12:40:53.477Z</time></trkpt><trkpt lat="46.2204238" lon="12.3009445"><ele>412.0</ele><time>2026-04-09T12:40:54.474Z</time></trkpt><trkpt lat="46.2205497" lon="12.3009132"><ele>412.0</ele><time>2026-04-09T12:40:55.476Z</time></trkpt><trkpt lat="46.220641" lon="12.3009014"><ele>412.0</ele><time>2026-04-09T12:40:56.475Z</time></trkpt><trkpt lat="46.2207052" lon="12.3008843"><ele>412.0</ele><time>2026-04-09T12:40:57.472Z</time></trkpt><trkpt lat="46.2207532" lon="12.3007817"><ele>411.5</ele><time>2026-04-09T12:40:59.477Z</time></trkpt><trkpt lat="46.2208216" lon="12.3005687"><ele>411.0</ele><time>2026-04-09T12:41:01.472Z</time></trkpt><trkpt lat="46.2208564" lon="12.30044"><ele>410.5</ele><time>2026-04-09T12:41:02.471Z</time></trkpt><trkpt lat="46.2209061" lon="12.3002818"><ele>410.0</ele><time>2026-04-09T12:41:03.462Z</time></trkpt><trkpt lat="46.2209813" lon="12.3000683"><ele>410.0</ele><time>2026-04-09T12:41:04.483Z</time></trkpt><trkpt lat="46.2210227" lon="12.2998283"><ele>410.0</ele><time>2026-04-09T12:41:05.47Z</time></trkpt><trkpt lat="46.2210295" lon="12.2996053"><ele>410.0</ele><time>2026-04-09T12:41:06.478Z</time></trkpt><trkpt lat="46.2210302" lon="12.2994819"><ele>410.0</ele><time>2026-04-09T12:41:07.473Z</time></trkpt><trkpt lat="46.221012" lon="12.2992914"><ele>409.6</ele><time>2026-04-09T12:41:08.486Z</time></trkpt><trkpt lat="46.2209939" lon="12.2991338"><ele>409.2</ele><time>2026-04-09T12:41:09.478Z</time></trkpt><trkpt lat="46.2209692" lon="12.298973"><ele>408.79999999999995</ele><time>2026-04-09T12:41:10.469Z</time></trkpt><trkpt lat="46.2209862" lon="12.2988384"><ele>408.4</ele><time>2026-04-09T12:41:11.473Z</time></trkpt><trkpt lat="46.22099" lon="12.2987425"><ele>408.0</ele><time>2026-04-09T12:41:12.478Z</time></trkpt><trkpt lat="46.2211662" lon="12.2984517"><ele>407.5</ele><time>2026-04-09T12:41:16.469Z</time></trkpt><trkpt lat="46.221226" lon="12.2983567"><ele>407.0</ele><time>2026-04-09T12:41:17.474Z</time></trkpt><trkpt lat="46.2212684" lon="12.2982793"><ele>406.5</ele><time>2026-04-09T12:41:18.476Z</time></trkpt><trkpt lat="46.2213644" lon="12.2981055"><ele>406.0</ele><time>2026-04-09T12:41:20.474Z</time></trkpt><trkpt lat="46.2214561" lon="12.2979329"><ele>405.83333333333337</ele><time>2026-04-09T12:41:22.475Z</time></trkpt><trkpt lat="46.2215113" lon="12.2978873"><ele>405.6666666666667</ele><time>2026-04-09T12:41:23.477Z</time></trkpt><trkpt lat="46.2215586" lon="12.2978072"><ele>405.5</ele><time>2026-04-09T12:41:24.481Z</time></trkpt><trkpt lat="46.2216088" lon="12.297696"><ele>405.33333333333337</ele><time>2026-04-09T12:41:25.486Z</time></trkpt><trkpt lat="46.2216563" lon="12.2976128"><ele>405.1666666666667</ele><time>2026-04-09T12:41:26.478Z</time></trkpt><trkpt lat="46.2217278" lon="12.2975698"><ele>405.0</ele><time>2026-04-09T12:41:27.481Z</time></trkpt><trkpt lat="46.2217778" lon="12.2974917"><ele>405.0</ele><time>2026-04-09T12:41:28.485Z</time></trkpt><trkpt lat="46.2219041" lon="12.2975881"><ele>405.0</ele><time>2026-04-09T12:41:29.469Z</time></trkpt><trkpt lat="46.2242661" lon="12.3004781"><ele>406.0</ele><time>2026-04-09T12:42:15.471Z</time></trkpt><trkpt lat="46.2243602" lon="12.300555"><ele>407.0</ele><time>2026-04-09T12:42:17.485Z</time></trkpt><trkpt lat="46.2245529" lon="12.3006387"><ele>408.0</ele><time>2026-04-09T12:42:18.47Z</time></trkpt><trkpt lat="46.2275091" lon="12.2865953"><ele>440.0</ele><time>2026-04-09T12:42:52.891Z</time></trkpt><trkpt lat="46.2342353" lon="12.306318"><ele>432.0</ele><time>2026-04-09T12:44:01.471Z</time></trkpt><trkpt lat="46.2351309" lon="12.3067083"><ele>432.0</ele><time>2026-04-09T12:44:21.477Z</time></trkpt><trkpt lat="46.2353808" lon="12.306899"><ele>432.0</ele><time>2026-04-09T12:44:23.496Z</time></trkpt><trkpt lat="46.2356749" lon="12.3072202"><ele>421.0</ele><time>2026-04-09T12:44:25.485Z</time></trkpt><trkpt lat="46.237896" lon="12.2984023"><ele>421.0</ele><time>2026-04-09T12:44:45.707Z</time></trkpt><trkpt lat="46.2378729" lon="12.298122"><ele>421.0</ele><time>2026-04-09T12:44:52.609Z</time></trkpt><trkpt lat="46.2377503" lon="12.2976503"><ele>449.0</ele><time>2026-04-09T12:45:00.998Z</time></trkpt><trkpt lat="46.2452572" lon="12.312207"><ele>467.0</ele><time>2026-04-09T12:47:13.379Z</time></trkpt><trkpt lat="46.2458069" lon="12.3132544"><ele>461.0</ele><time>2026-04-09T12:47:21.23Z</time></trkpt><trkpt lat="46.2438613" lon="12.3138488"><ele>466.0</ele><time>2026-04-09T12:47:26.394Z</time></trkpt><trkpt lat="46.2451834" lon="12.3142966"><ele>474.0</ele><time>2026-04-09T12:48:03.108Z</time></trkpt><trkpt lat="46.245747" lon="12.3143089"><ele>481.0</ele><time>2026-04-09T12:48:09.616Z</time></trkpt><trkpt lat="46.2475266" lon="12.3133469"><ele>487.0</ele><time>2026-04-09T12:48:42.886Z</time></trkpt><trkpt lat="46.2485715" lon="12.3132199"><ele>487.0</ele><time>2026-04-09T12:50:02.478Z</time></trkpt><trkpt lat="46.2483658" lon="12.3132484"><ele>487.0</ele><time>2026-04-09T12:50:03.498Z</time></trkpt><trkpt lat="46.248234" lon="12.3132671"><ele>487.0</ele><time>2026-04-09T12:50:04.471Z</time></trkpt><trkpt lat="46.2478022" lon="12.3133093"><ele>481.0</ele><time>2026-04-09T12:50:06.45Z</time></trkpt></trkseg></trk></gpx>